﻿<?xml version="1.0" encoding="utf-8"?><gpx creator="Garmin Desktop App" version="1.1" xsi:schemaLocation="http://www.topografix.com/GPX/1/1 http://www.topografix.com/GPX/1/1/gpx.xsd http://www.garmin.com/xmlschemas/WaypointExtension/v1 http://www8.garmin.com/xmlschemas/WaypointExtensionv1.xsd http://www.garmin.com/xmlschemas/TrackPointExtension/v1 http://www.garmin.com/xmlschemas/TrackPointExtensionv1.xsd http://www.garmin.com/xmlschemas/GpxExtensions/v3 http://www8.garmin.com/xmlschemas/GpxExtensionsv3.xsd http://www.garmin.com/xmlschemas/ActivityExtension/v1 http://www8.garmin.com/xmlschemas/ActivityExtensionv1.xsd http://www.garmin.com/xmlschemas/AdventuresExtensions/v1 http://www8.garmin.com/xmlschemas/AdventuresExtensionv1.xsd http://www.garmin.com/xmlschemas/PressureExtension/v1 http://www.garmin.com/xmlschemas/PressureExtensionv1.xsd http://www.garmin.com/xmlschemas/TripExtensions/v1 http://www.garmin.com/xmlschemas/TripExtensionsv1.xsd http://www.garmin.com/xmlschemas/TripMetaDataExtensions/v1 http://www.garmin.com/xmlschemas/TripMetaDataExtensionsv1.xsd http://www.garmin.com/xmlschemas/ViaPointTransportationModeExtensions/v1 http://www.garmin.com/xmlschemas/ViaPointTransportationModeExtensionsv1.xsd http://www.garmin.com/xmlschemas/CreationTimeExtension/v1 http://www.garmin.com/xmlschemas/CreationTimeExtensionsv1.xsd http://www.garmin.com/xmlschemas/AccelerationExtension/v1 http://www.garmin.com/xmlschemas/AccelerationExtensionv1.xsd http://www.garmin.com/xmlschemas/PowerExtension/v1 http://www.garmin.com/xmlschemas/PowerExtensionv1.xsd http://www.garmin.com/xmlschemas/VideoExtension/v1 http://www.garmin.com/xmlschemas/VideoExtensionv1.xsd" xmlns="http://www.topografix.com/GPX/1/1" xmlns:xsi="http://www.w3.org/2001/XMLSchema-instance" xmlns:wptx1="http://www.garmin.com/xmlschemas/WaypointExtension/v1" xmlns:gpxtrx="http://www.garmin.com/xmlschemas/GpxExtensions/v3" xmlns:gpxtpx="http://www.garmin.com/xmlschemas/TrackPointExtension/v1" xmlns:gpxx="http://www.garmin.com/xmlschemas/GpxExtensions/v3" xmlns:trp="http://www.garmin.com/xmlschemas/TripExtensions/v1" xmlns:adv="http://www.garmin.com/xmlschemas/AdventuresExtensions/v1" xmlns:prs="http://www.garmin.com/xmlschemas/PressureExtension/v1" xmlns:tmd="http://www.garmin.com/xmlschemas/TripMetaDataExtensions/v1" xmlns:vptm="http://www.garmin.com/xmlschemas/ViaPointTransportationModeExtensions/v1" xmlns:ctx="http://www.garmin.com/xmlschemas/CreationTimeExtension/v1" xmlns:gpxacc="http://www.garmin.com/xmlschemas/AccelerationExtension/v1" xmlns:gpxpx="http://www.garmin.com/xmlschemas/PowerExtension/v1" xmlns:vidx1="http://www.garmin.com/xmlschemas/VideoExtension/v1">

  <metadata>
    <link href="http://www.garmin.com">
      <text>Garmin International</text>
    </link>
    <time>2025-05-04T19:05:09Z</time>
    <bounds maxlat="41.148391021415591" maxlon="-8.477523000910878" minlat="38.717261999845505" minlon="-9.497704971581698" />
  </metadata>

  <trk>
    <name>250504_G_Track</name>
    <extensions>
      <gpxx:TrackExtension>
        <gpxx:DisplayColor>DarkGray</gpxx:DisplayColor>
      </gpxx:TrackExtension>
    </extensions>
    <trkseg>
      <trkpt lat="41.144061014056206" lon="-8.60521400347352">
        <ele>172.21000000000001</ele>
        <time>2025-05-04T06:42:38Z</time>
      </trkpt>
      <trkpt lat="41.144061014056206" lon="-8.60521400347352">
        <ele>172.21000000000001</ele>
        <time>2025-05-04T06:42:45Z</time>
      </trkpt>
      <trkpt lat="41.143993036821485" lon="-8.6052789632231">
        <ele>179.41999999999999</ele>
        <time>2025-05-04T06:43:07Z</time>
      </trkpt>
      <trkpt lat="41.143993036821485" lon="-8.6052789632231">
        <ele>179.41999999999999</ele>
        <time>2025-05-04T06:43:26Z</time>
      </trkpt>
      <trkpt lat="41.143993036821485" lon="-8.605274017900229">
        <ele>179.41999999999999</ele>
        <time>2025-05-04T06:44:04Z</time>
      </trkpt>
      <trkpt lat="41.14398599602282" lon="-8.605275023728609">
        <ele>179.41999999999999</ele>
        <time>2025-05-04T06:44:34Z</time>
      </trkpt>
      <trkpt lat="41.143994964659214" lon="-8.605284998193383">
        <ele>178.46000000000001</ele>
        <time>2025-05-04T06:44:36Z</time>
      </trkpt>
      <trkpt lat="41.144142989069223" lon="-8.605250967666507">
        <ele>177.97999999999999</ele>
        <time>2025-05-04T06:44:38Z</time>
      </trkpt>
      <trkpt lat="41.144160004332662" lon="-8.605297990143299">
        <ele>177.97999999999999</ele>
        <time>2025-05-04T06:44:39Z</time>
      </trkpt>
      <trkpt lat="41.144183976575732" lon="-8.60536202788353">
        <ele>177.5</ele>
        <time>2025-05-04T06:44:40Z</time>
      </trkpt>
      <trkpt lat="41.144209960475564" lon="-8.605435034260154">
        <ele>177.5</ele>
        <time>2025-05-04T06:44:41Z</time>
      </trkpt>
      <trkpt lat="41.144236028194427" lon="-8.605505023151636">
        <ele>177.5</ele>
        <time>2025-05-04T06:44:42Z</time>
      </trkpt>
      <trkpt lat="41.144695021212101" lon="-8.606746969744563">
        <ele>171.25</ele>
        <time>2025-05-04T06:44:54Z</time>
      </trkpt>
      <trkpt lat="41.144785964861512" lon="-8.60693003050983">
        <ele>167.41</ele>
        <time>2025-05-04T06:44:58Z</time>
      </trkpt>
      <trkpt lat="41.144785964861512" lon="-8.60693003050983">
        <ele>166.93000000000001</ele>
        <time>2025-05-04T06:44:59Z</time>
      </trkpt>
      <trkpt lat="41.144756963476539" lon="-8.607032960280776">
        <ele>166.93000000000001</ele>
        <time>2025-05-04T06:45:00Z</time>
      </trkpt>
      <trkpt lat="41.144747994840145" lon="-8.607064979150891">
        <ele>166.44999999999999</ele>
        <time>2025-05-04T06:45:01Z</time>
      </trkpt>
      <trkpt lat="41.144742965698242" lon="-8.607079982757568">
        <ele>165.47999999999999</ele>
        <time>2025-05-04T06:45:02Z</time>
      </trkpt>
      <trkpt lat="41.144742965698242" lon="-8.607079982757568">
        <ele>165</ele>
        <time>2025-05-04T06:45:03Z</time>
      </trkpt>
      <trkpt lat="41.144612040370703" lon="-8.607165981084108">
        <ele>162.12</ele>
        <time>2025-05-04T06:45:05Z</time>
      </trkpt>
      <trkpt lat="41.144401989877224" lon="-8.607303025200963">
        <ele>157.78999999999999</ele>
        <time>2025-05-04T06:45:08Z</time>
      </trkpt>
      <trkpt lat="41.144340969622135" lon="-8.607343006879091">
        <ele>156.83000000000001</ele>
        <time>2025-05-04T06:45:09Z</time>
      </trkpt>
      <trkpt lat="41.14364099688828" lon="-8.607823960483074">
        <ele>143.84999999999999</ele>
        <time>2025-05-04T06:45:23Z</time>
      </trkpt>
      <trkpt lat="41.143263978883624" lon="-8.60807097516954">
        <ele>135.68000000000001</ele>
        <time>2025-05-04T06:45:31Z</time>
      </trkpt>
      <trkpt lat="41.143217962235212" lon="-8.6080920137465">
        <ele>134.72</ele>
        <time>2025-05-04T06:45:32Z</time>
      </trkpt>
      <trkpt lat="41.143174963071942" lon="-8.608111040666699">
        <ele>133.75999999999999</ele>
        <time>2025-05-04T06:45:33Z</time>
      </trkpt>
      <trkpt lat="41.143139004707336" lon="-8.608128977939487">
        <ele>133.28</ele>
        <time>2025-05-04T06:45:34Z</time>
      </trkpt>
      <trkpt lat="41.143110003322363" lon="-8.608143981546164">
        <ele>132.31999999999999</ele>
        <time>2025-05-04T06:45:35Z</time>
      </trkpt>
      <trkpt lat="41.143092988058925" lon="-8.608152028173208">
        <ele>131.36000000000001</ele>
        <time>2025-05-04T06:45:36Z</time>
      </trkpt>
      <trkpt lat="41.143092988058925" lon="-8.608152028173208">
        <ele>130.88</ele>
        <time>2025-05-04T06:45:52Z</time>
      </trkpt>
      <trkpt lat="41.143085025250912" lon="-8.608155967667699">
        <ele>130.88</ele>
        <time>2025-05-04T06:46:09Z</time>
      </trkpt>
      <trkpt lat="41.143004978075624" lon="-8.608196033164859">
        <ele>127.51000000000001</ele>
        <time>2025-05-04T06:46:12Z</time>
      </trkpt>
      <trkpt lat="41.142987040802836" lon="-8.608167031779885">
        <ele>126.55</ele>
        <time>2025-05-04T06:46:13Z</time>
      </trkpt>
      <trkpt lat="41.142952004447579" lon="-8.608109029009938">
        <ele>125.11</ele>
        <time>2025-05-04T06:46:14Z</time>
      </trkpt>
      <trkpt lat="41.142911016941071" lon="-8.608042979612947">
        <ele>124.63</ele>
        <time>2025-05-04T06:46:15Z</time>
      </trkpt>
      <trkpt lat="41.142858965322375" lon="-8.607959998771548">
        <ele>122.70999999999999</ele>
        <time>2025-05-04T06:46:16Z</time>
      </trkpt>
      <trkpt lat="41.14280398003757" lon="-8.607870982959867">
        <ele>120.78</ele>
        <time>2025-05-04T06:46:17Z</time>
      </trkpt>
      <trkpt lat="41.142744971439242" lon="-8.607776015996933">
        <ele>119.34</ele>
        <time>2025-05-04T06:46:18Z</time>
      </trkpt>
      <trkpt lat="41.142694009467959" lon="-8.607681971043348">
        <ele>117.90000000000001</ele>
        <time>2025-05-04T06:46:19Z</time>
      </trkpt>
      <trkpt lat="41.142431991174817" lon="-8.60712599940598">
        <ele>113.09</ele>
        <time>2025-05-04T06:46:24Z</time>
      </trkpt>
      <trkpt lat="41.142405001446605" lon="-8.60697696916759">
        <ele>112.61</ele>
        <time>2025-05-04T06:46:25Z</time>
      </trkpt>
      <trkpt lat="41.14237398840487" lon="-8.606815030798316">
        <ele>110.20999999999999</ele>
        <time>2025-05-04T06:46:26Z</time>
      </trkpt>
      <trkpt lat="41.142345992848277" lon="-8.606661977246404">
        <ele>107.81</ele>
        <time>2025-05-04T06:46:27Z</time>
      </trkpt>
      <trkpt lat="41.142350016161799" lon="-8.606549995020032">
        <ele>106.84</ele>
        <time>2025-05-04T06:46:28Z</time>
      </trkpt>
      <trkpt lat="41.142369965091348" lon="-8.606403982266784">
        <ele>105.88</ele>
        <time>2025-05-04T06:46:29Z</time>
      </trkpt>
      <trkpt lat="41.142387986183167" lon="-8.606260986998677">
        <ele>104.92</ele>
        <time>2025-05-04T06:46:30Z</time>
      </trkpt>
      <trkpt lat="41.142405001446605" lon="-8.60613601282239">
        <ele>104.44</ele>
        <time>2025-05-04T06:46:31Z</time>
      </trkpt>
      <trkpt lat="41.142451018095016" lon="-8.606041967868805">
        <ele>103.95999999999999</ele>
        <time>2025-05-04T06:46:32Z</time>
      </trkpt>
      <trkpt lat="41.142503991723061" lon="-8.605937026441097">
        <ele>103.48</ele>
        <time>2025-05-04T06:46:33Z</time>
      </trkpt>
      <trkpt lat="41.142555959522724" lon="-8.605834012851119">
        <ele>103.48</ele>
        <time>2025-05-04T06:46:34Z</time>
      </trkpt>
      <trkpt lat="41.142598036676645" lon="-8.60574902035296">
        <ele>103</ele>
        <time>2025-05-04T06:46:35Z</time>
      </trkpt>
      <trkpt lat="41.142672970890999" lon="-8.605675008147955">
        <ele>102.04000000000001</ele>
        <time>2025-05-04T06:46:36Z</time>
      </trkpt>
      <trkpt lat="41.142742037773132" lon="-8.605610970407724">
        <ele>102.52</ele>
        <time>2025-05-04T06:46:37Z</time>
      </trkpt>
      <trkpt lat="41.142813032492995" lon="-8.605548022314906">
        <ele>103.48</ele>
        <time>2025-05-04T06:46:38Z</time>
      </trkpt>
      <trkpt lat="41.142883021384478" lon="-8.605484990403056">
        <ele>103.95999999999999</ele>
        <time>2025-05-04T06:46:39Z</time>
      </trkpt>
      <trkpt lat="41.143026016652584" lon="-8.605399997904897">
        <ele>105.40000000000001</ele>
        <time>2025-05-04T06:46:41Z</time>
      </trkpt>
      <trkpt lat="41.143102962523699" lon="-8.60536596737802">
        <ele>106.36</ele>
        <time>2025-05-04T06:46:42Z</time>
      </trkpt>
      <trkpt lat="41.143749039620161" lon="-8.605082994326949">
        <ele>111.17</ele>
        <time>2025-05-04T06:46:51Z</time>
      </trkpt>
      <trkpt lat="41.143892034888268" lon="-8.605025997385383">
        <ele>116.45999999999999</ele>
        <time>2025-05-04T06:46:59Z</time>
      </trkpt>
      <trkpt lat="41.143892034888268" lon="-8.605025997385383">
        <ele>117.42</ele>
        <time>2025-05-04T06:47:26Z</time>
      </trkpt>
      <trkpt lat="41.143948026001453" lon="-8.605000013485551">
        <ele>117.42</ele>
        <time>2025-05-04T06:47:38Z</time>
      </trkpt>
      <trkpt lat="41.14400896243751" lon="-8.604969000443816">
        <ele>118.38</ele>
        <time>2025-05-04T06:47:39Z</time>
      </trkpt>
      <trkpt lat="41.144668031483889" lon="-8.604660965502262">
        <ele>118.38</ele>
        <time>2025-05-04T06:47:47Z</time>
      </trkpt>
      <trkpt lat="41.14512300118804" lon="-8.604455022141337">
        <ele>116.94</ele>
        <time>2025-05-04T06:47:55Z</time>
      </trkpt>
      <trkpt lat="41.145163988694549" lon="-8.604433983564377">
        <ele>116.94</ele>
        <time>2025-05-04T06:48:22Z</time>
      </trkpt>
      <trkpt lat="41.145200030878186" lon="-8.604416968300939">
        <ele>116.45999999999999</ele>
        <time>2025-05-04T06:48:23Z</time>
      </trkpt>
      <trkpt lat="41.145278988406062" lon="-8.604367012158036">
        <ele>116.45999999999999</ele>
        <time>2025-05-04T06:48:24Z</time>
      </trkpt>
      <trkpt lat="41.1453150305897" lon="-8.604313032701612">
        <ele>115.98</ele>
        <time>2025-05-04T06:48:25Z</time>
      </trkpt>
      <trkpt lat="41.145356018096209" lon="-8.604220999404788">
        <ele>115.01000000000001</ele>
        <time>2025-05-04T06:48:26Z</time>
      </trkpt>
      <trkpt lat="41.145372027531266" lon="-8.604152016341686">
        <ele>114.53</ele>
        <time>2025-05-04T06:48:27Z</time>
      </trkpt>
      <trkpt lat="41.145385019481182" lon="-8.604086972773075">
        <ele>113.56999999999999</ele>
        <time>2025-05-04T06:48:28Z</time>
      </trkpt>
      <trkpt lat="41.145408991724253" lon="-8.603969039395452">
        <ele>112.13</ele>
        <time>2025-05-04T06:48:29Z</time>
      </trkpt>
      <trkpt lat="41.145411003381014" lon="-8.603954035788775">
        <ele>111.17</ele>
        <time>2025-05-04T06:48:30Z</time>
      </trkpt>
      <trkpt lat="41.145419972017407" lon="-8.603891003876925">
        <ele>110.20999999999999</ele>
        <time>2025-05-04T06:48:31Z</time>
      </trkpt>
      <trkpt lat="41.145430030301213" lon="-8.603828977793455">
        <ele>109.25</ele>
        <time>2025-05-04T06:48:32Z</time>
      </trkpt>
      <trkpt lat="41.145438998937607" lon="-8.603768963366747">
        <ele>107.81</ele>
        <time>2025-05-04T06:48:33Z</time>
      </trkpt>
      <trkpt lat="41.14544696174562" lon="-8.603712972253561">
        <ele>106.36</ele>
        <time>2025-05-04T06:48:34Z</time>
      </trkpt>
      <trkpt lat="41.145455008372664" lon="-8.603664021939039">
        <ele>105.40000000000001</ele>
        <time>2025-05-04T06:48:35Z</time>
      </trkpt>
      <trkpt lat="41.145463977009058" lon="-8.603605013340712">
        <ele>104.44</ele>
        <time>2025-05-04T06:48:36Z</time>
      </trkpt>
      <trkpt lat="41.145472023636103" lon="-8.603549022227526">
        <ele>103.95999999999999</ele>
        <time>2025-05-04T06:48:37Z</time>
      </trkpt>
      <trkpt lat="41.14548996090889" lon="-8.603434022516012">
        <ele>102.52</ele>
        <time>2025-05-04T06:48:40Z</time>
      </trkpt>
      <trkpt lat="41.14548996090889" lon="-8.603434022516012">
        <ele>102.04000000000001</ele>
        <time>2025-05-04T06:48:51Z</time>
      </trkpt>
      <trkpt lat="41.145498007535934" lon="-8.603378031402826">
        <ele>102.52</ele>
        <time>2025-05-04T06:48:58Z</time>
      </trkpt>
      <trkpt lat="41.145564978942275" lon="-8.602833962067962">
        <ele>100.11</ele>
        <time>2025-05-04T06:49:04Z</time>
      </trkpt>
      <trkpt lat="41.145600015297532" lon="-8.602431965991855">
        <ele>98.670000000000002</ele>
        <time>2025-05-04T06:49:09Z</time>
      </trkpt>
      <trkpt lat="41.145605966448784" lon="-8.602369017899036">
        <ele>98.189999999999998</ele>
        <time>2025-05-04T06:49:10Z</time>
      </trkpt>
      <trkpt lat="41.145615018904209" lon="-8.602258041501045">
        <ele>97.709999999999994</ele>
        <time>2025-05-04T06:49:12Z</time>
      </trkpt>
      <trkpt lat="41.145622981712222" lon="-8.602166008204222">
        <ele>97.230000000000004</ele>
        <time>2025-05-04T06:49:13Z</time>
      </trkpt>
      <trkpt lat="41.145642008632421" lon="-8.601994011551142">
        <ele>95.790000000000006</ele>
        <time>2025-05-04T06:49:17Z</time>
      </trkpt>
      <trkpt lat="41.145651983097196" lon="-8.601931985467672">
        <ele>95.310000000000002</ele>
        <time>2025-05-04T06:49:18Z</time>
      </trkpt>
      <trkpt lat="41.145665980875492" lon="-8.601843975484371">
        <ele>95.310000000000002</ele>
        <time>2025-05-04T06:49:19Z</time>
      </trkpt>
      <trkpt lat="41.145690958946943" lon="-8.601553961634636">
        <ele>93.390000000000001</ele>
        <time>2025-05-04T06:49:22Z</time>
      </trkpt>
      <trkpt lat="41.145701017230749" lon="-8.601442985236645">
        <ele>92.900000000000006</ele>
        <time>2025-05-04T06:49:23Z</time>
      </trkpt>
      <trkpt lat="41.145710991695523" lon="-8.60132496803999">
        <ele>92.420000000000002</ele>
        <time>2025-05-04T06:49:24Z</time>
      </trkpt>
      <trkpt lat="41.145772011950612" lon="-8.600721973925829">
        <ele>90.019999999999996</ele>
        <time>2025-05-04T06:49:29Z</time>
      </trkpt>
      <trkpt lat="41.145816016942263" lon="-8.600191986188293">
        <ele>89.540000000000006</ele>
        <time>2025-05-04T06:49:33Z</time>
      </trkpt>
      <trkpt lat="41.145837977528572" lon="-8.600059971213341">
        <ele>89.060000000000002</ele>
        <time>2025-05-04T06:49:34Z</time>
      </trkpt>
      <trkpt lat="41.145844012498856" lon="-8.599934997037053">
        <ele>89.060000000000002</ele>
        <time>2025-05-04T06:49:35Z</time>
      </trkpt>
      <trkpt lat="41.145889023318887" lon="-8.598999995738268">
        <ele>88.099999999999994</ele>
        <time>2025-05-04T06:49:42Z</time>
      </trkpt>
      <trkpt lat="41.145894974470139" lon="-8.59887502156198">
        <ele>87.620000000000005</ele>
        <time>2025-05-04T06:49:43Z</time>
      </trkpt>
      <trkpt lat="41.145901009440422" lon="-8.598751975223422">
        <ele>87.620000000000005</ele>
        <time>2025-05-04T06:49:44Z</time>
      </trkpt>
      <trkpt lat="41.145906960591674" lon="-8.598625995218754">
        <ele>87.620000000000005</ele>
        <time>2025-05-04T06:49:45Z</time>
      </trkpt>
      <trkpt lat="41.145912995561957" lon="-8.598490040749311">
        <ele>87.140000000000001</ele>
        <time>2025-05-04T06:49:46Z</time>
      </trkpt>
      <trkpt lat="41.145919030532241" lon="-8.598349979147315">
        <ele>86.659999999999997</ele>
        <time>2025-05-04T06:49:47Z</time>
      </trkpt>
      <trkpt lat="41.145925987511873" lon="-8.598207989707589">
        <ele>86.659999999999997</ele>
        <time>2025-05-04T06:49:48Z</time>
      </trkpt>
      <trkpt lat="41.145933028310537" lon="-8.598064994439483">
        <ele>86.659999999999997</ele>
        <time>2025-05-04T06:49:49Z</time>
      </trkpt>
      <trkpt lat="41.145938979461789" lon="-8.597933985292912">
        <ele>86.180000000000007</ele>
        <time>2025-05-04T06:49:50Z</time>
      </trkpt>
      <trkpt lat="41.145945014432073" lon="-8.597811022773385">
        <ele>86.180000000000007</ele>
        <time>2025-05-04T06:49:51Z</time>
      </trkpt>
      <trkpt lat="41.145950965583324" lon="-8.597685964778066">
        <ele>86.659999999999997</ele>
        <time>2025-05-04T06:49:52Z</time>
      </trkpt>
      <trkpt lat="41.145958006381989" lon="-8.59754397533834">
        <ele>86.659999999999997</ele>
        <time>2025-05-04T06:49:53Z</time>
      </trkpt>
      <trkpt lat="41.145990025252104" lon="-8.596735037863255">
        <ele>88.579999999999998</ele>
        <time>2025-05-04T06:49:59Z</time>
      </trkpt>
      <trkpt lat="41.145992958918214" lon="-8.596653984859586">
        <ele>89.060000000000002</ele>
        <time>2025-05-04T06:50:00Z</time>
      </trkpt>
      <trkpt lat="41.145995976403356" lon="-8.596589025110006">
        <ele>89.540000000000006</ele>
        <time>2025-05-04T06:50:01Z</time>
      </trkpt>
      <trkpt lat="41.145998993888497" lon="-8.596500009298325">
        <ele>89.540000000000006</ele>
        <time>2025-05-04T06:50:03Z</time>
      </trkpt>
      <trkpt lat="41.145998993888497" lon="-8.596500009298325">
        <ele>90.019999999999996</ele>
        <time>2025-05-04T06:50:12Z</time>
      </trkpt>
      <trkpt lat="41.146002011373639" lon="-8.596429014578462">
        <ele>90.019999999999996</ele>
        <time>2025-05-04T06:50:21Z</time>
      </trkpt>
      <trkpt lat="41.146008968353271" lon="-8.595772041007876">
        <ele>92.900000000000006</ele>
        <time>2025-05-04T06:50:28Z</time>
      </trkpt>
      <trkpt lat="41.146031012758613" lon="-8.595312964171171">
        <ele>93.870000000000005</ele>
        <time>2025-05-04T06:50:32Z</time>
      </trkpt>
      <trkpt lat="41.146031012758613" lon="-8.595192013308406">
        <ele>94.349999999999994</ele>
        <time>2025-05-04T06:50:33Z</time>
      </trkpt>
      <trkpt lat="41.146045010536909" lon="-8.595055975019932">
        <ele>94.349999999999994</ele>
        <time>2025-05-04T06:50:34Z</time>
      </trkpt>
      <trkpt lat="41.146072000265121" lon="-8.594942986965179">
        <ele>94.829999999999998</ele>
        <time>2025-05-04T06:50:35Z</time>
      </trkpt>
      <trkpt lat="41.146099995821714" lon="-8.594832010567188">
        <ele>95.310000000000002</ele>
        <time>2025-05-04T06:50:36Z</time>
      </trkpt>
      <trkpt lat="41.146122962236404" lon="-8.594720028340817">
        <ele>95.790000000000006</ele>
        <time>2025-05-04T06:50:37Z</time>
      </trkpt>
      <trkpt lat="41.146140983328223" lon="-8.594606034457684">
        <ele>96.269999999999996</ele>
        <time>2025-05-04T06:50:38Z</time>
      </trkpt>
      <trkpt lat="41.146157998591661" lon="-8.594492040574551">
        <ele>96.269999999999996</ele>
        <time>2025-05-04T06:50:39Z</time>
      </trkpt>
      <trkpt lat="41.146174008026719" lon="-8.594380980357528">
        <ele>96.75</ele>
        <time>2025-05-04T06:50:40Z</time>
      </trkpt>
      <trkpt lat="41.146194040775299" lon="-8.594266986474395">
        <ele>96.75</ele>
        <time>2025-05-04T06:50:41Z</time>
      </trkpt>
      <trkpt lat="41.146259000524879" lon="-8.593914024531841">
        <ele>97.230000000000004</ele>
        <time>2025-05-04T06:50:44Z</time>
      </trkpt>
      <trkpt lat="41.146280961111188" lon="-8.593795001506805">
        <ele>97.230000000000004</ele>
        <time>2025-05-04T06:50:45Z</time>
      </trkpt>
      <trkpt lat="41.146303005516529" lon="-8.59367698431015">
        <ele>97.230000000000004</ele>
        <time>2025-05-04T06:50:46Z</time>
      </trkpt>
      <trkpt lat="41.146324966102839" lon="-8.593561984598637">
        <ele>97.230000000000004</ele>
        <time>2025-05-04T06:50:47Z</time>
      </trkpt>
      <trkpt lat="41.14634701050818" lon="-8.593444973230362">
        <ele>97.230000000000004</ele>
        <time>2025-05-04T06:50:48Z</time>
      </trkpt>
      <trkpt lat="41.14637098275125" lon="-8.593322010710836">
        <ele>97.230000000000004</ele>
        <time>2025-05-04T06:50:49Z</time>
      </trkpt>
      <trkpt lat="41.146467961370945" lon="-8.592835022136569">
        <ele>96.75</ele>
        <time>2025-05-04T06:50:53Z</time>
      </trkpt>
      <trkpt lat="41.146515989676118" lon="-8.592570992186666">
        <ele>95.790000000000006</ele>
        <time>2025-05-04T06:50:55Z</time>
      </trkpt>
      <trkpt lat="41.14653903990984" lon="-8.592437971383333">
        <ele>95.790000000000006</ele>
        <time>2025-05-04T06:50:56Z</time>
      </trkpt>
      <trkpt lat="41.146673988550901" lon="-8.591664992272854">
        <ele>93.870000000000005</ele>
        <time>2025-05-04T06:51:02Z</time>
      </trkpt>
      <trkpt lat="41.146742971614003" lon="-8.591274982318282">
        <ele>92.900000000000006</ele>
        <time>2025-05-04T06:51:05Z</time>
      </trkpt>
      <trkpt lat="41.146985040977597" lon="-8.589965980499983">
        <ele>90.5</ele>
        <time>2025-05-04T06:51:15Z</time>
      </trkpt>
      <trkpt lat="41.147102974355221" lon="-8.589352006092668">
        <ele>89.540000000000006</ele>
        <time>2025-05-04T06:51:20Z</time>
      </trkpt>
      <trkpt lat="41.147124012932181" lon="-8.589255027472973">
        <ele>89.540000000000006</ele>
        <time>2025-05-04T06:51:21Z</time>
      </trkpt>
      <trkpt lat="41.147139016538858" lon="-8.589165005832911">
        <ele>89.060000000000002</ele>
        <time>2025-05-04T06:51:22Z</time>
      </trkpt>
      <trkpt lat="41.147162988781929" lon="-8.58899200335145">
        <ele>89.060000000000002</ele>
        <time>2025-05-04T06:51:24Z</time>
      </trkpt>
      <trkpt lat="41.147188972681761" lon="-8.588795028626919">
        <ele>88.579999999999998</ele>
        <time>2025-05-04T06:51:26Z</time>
      </trkpt>
      <trkpt lat="41.147201964631677" lon="-8.588694026693702">
        <ele>87.620000000000005</ele>
        <time>2025-05-04T06:51:27Z</time>
      </trkpt>
      <trkpt lat="41.147213028743863" lon="-8.588581038638949">
        <ele>86.659999999999997</ele>
        <time>2025-05-04T06:51:28Z</time>
      </trkpt>
      <trkpt lat="41.147217974066734" lon="-8.588471990078688">
        <ele>85.689999999999998</ele>
        <time>2025-05-04T06:51:29Z</time>
      </trkpt>
      <trkpt lat="41.147224009037018" lon="-8.588363025337458">
        <ele>84.25</ele>
        <time>2025-05-04T06:51:30Z</time>
      </trkpt>
      <trkpt lat="41.147229038178921" lon="-8.588256994262338">
        <ele>83.290000000000006</ele>
        <time>2025-05-04T06:51:31Z</time>
      </trkpt>
      <trkpt lat="41.147233983501792" lon="-8.588152974843979">
        <ele>81.849999999999994</ele>
        <time>2025-05-04T06:51:32Z</time>
      </trkpt>
      <trkpt lat="41.147243035957217" lon="-8.58804602175951">
        <ele>80.890000000000001</ele>
        <time>2025-05-04T06:51:33Z</time>
      </trkpt>
      <trkpt lat="41.147252004593611" lon="-8.587942002341151">
        <ele>78.969999999999999</ele>
        <time>2025-05-04T06:51:34Z</time>
      </trkpt>
      <trkpt lat="41.147260973230004" lon="-8.587836977094412">
        <ele>77.519999999999996</ele>
        <time>2025-05-04T06:51:35Z</time>
      </trkpt>
      <trkpt lat="41.14727002568543" lon="-8.587731029838324">
        <ele>76.560000000000002</ele>
        <time>2025-05-04T06:51:36Z</time>
      </trkpt>
      <trkpt lat="41.147274971008301" lon="-8.587629022076726">
        <ele>75.120000000000005</ele>
        <time>2025-05-04T06:51:37Z</time>
      </trkpt>
      <trkpt lat="41.147283017635345" lon="-8.587341019883752">
        <ele>72.239999999999995</ele>
        <time>2025-05-04T06:51:40Z</time>
      </trkpt>
      <trkpt lat="41.147288968786597" lon="-8.587247980758548">
        <ele>70.790000000000006</ele>
        <time>2025-05-04T06:51:41Z</time>
      </trkpt>
      <trkpt lat="41.147296009585261" lon="-8.58712200075388">
        <ele>70.310000000000002</ele>
        <time>2025-05-04T06:51:42Z</time>
      </trkpt>
      <trkpt lat="41.14727002568543" lon="-8.587030973285437">
        <ele>69.829999999999998</ele>
        <time>2025-05-04T06:51:43Z</time>
      </trkpt>
      <trkpt lat="41.147241024300456" lon="-8.586927959695458">
        <ele>68.870000000000005</ele>
        <time>2025-05-04T06:51:44Z</time>
      </trkpt>
      <trkpt lat="41.147211017087102" lon="-8.586824024096131">
        <ele>67.909999999999997</ele>
        <time>2025-05-04T06:51:45Z</time>
      </trkpt>
      <trkpt lat="41.146913040429354" lon="-8.585869995877147">
        <ele>60.700000000000003</ele>
        <time>2025-05-04T06:51:53Z</time>
      </trkpt>
      <trkpt lat="41.146845985203981" lon="-8.585687018930912">
        <ele>58.780000000000001</ele>
        <time>2025-05-04T06:51:54Z</time>
      </trkpt>
      <trkpt lat="41.146696032956243" lon="-8.585192989557982">
        <ele>47.240000000000002</ele>
        <time>2025-05-04T06:51:58Z</time>
      </trkpt>
      <trkpt lat="41.14649998024106" lon="-8.584546996280551">
        <ele>35.710000000000001</ele>
        <time>2025-05-04T06:52:04Z</time>
      </trkpt>
      <trkpt lat="41.146481959149241" lon="-8.584484970197082">
        <ele>35.229999999999997</ele>
        <time>2025-05-04T06:52:05Z</time>
      </trkpt>
      <trkpt lat="41.146418005228043" lon="-8.584411963820458">
        <ele>34.740000000000002</ele>
        <time>2025-05-04T06:52:06Z</time>
      </trkpt>
      <trkpt lat="41.146358996629715" lon="-8.584344992414117">
        <ele>34.259999999999998</ele>
        <time>2025-05-04T06:52:07Z</time>
      </trkpt>
      <trkpt lat="41.146298982203007" lon="-8.584278021007776">
        <ele>33.780000000000001</ele>
        <time>2025-05-04T06:52:08Z</time>
      </trkpt>
      <trkpt lat="41.145693976432085" lon="-8.583605038002133">
        <ele>28.5</ele>
        <time>2025-05-04T06:52:17Z</time>
      </trkpt>
      <trkpt lat="41.145441010594368" lon="-8.583337990567088">
        <ele>26.09</ele>
        <time>2025-05-04T06:52:21Z</time>
      </trkpt>
      <trkpt lat="41.145333973690867" lon="-8.583225002512336">
        <ele>24.649999999999999</ele>
        <time>2025-05-04T06:52:23Z</time>
      </trkpt>
      <trkpt lat="41.145084025338292" lon="-8.582960972562432">
        <ele>21.77</ele>
        <time>2025-05-04T06:52:28Z</time>
      </trkpt>
      <trkpt lat="41.145034991204739" lon="-8.582884026691318">
        <ele>21.289999999999999</ele>
        <time>2025-05-04T06:52:29Z</time>
      </trkpt>
      <trkpt lat="41.145012024790049" lon="-8.582791993394494">
        <ele>21.289999999999999</ele>
        <time>2025-05-04T06:52:30Z</time>
      </trkpt>
      <trkpt lat="41.144985035061836" lon="-8.582684034481645">
        <ele>20.32</ele>
        <time>2025-05-04T06:52:31Z</time>
      </trkpt>
      <trkpt lat="41.144957039505243" lon="-8.582570962607861">
        <ele>19.84</ele>
        <time>2025-05-04T06:52:32Z</time>
      </trkpt>
      <trkpt lat="41.14492803812027" lon="-8.582455962896347">
        <ele>18.879999999999999</ele>
        <time>2025-05-04T06:52:33Z</time>
      </trkpt>
      <trkpt lat="41.144899036735296" lon="-8.582340963184834">
        <ele>18.399999999999999</ele>
        <time>2025-05-04T06:52:34Z</time>
      </trkpt>
      <trkpt lat="41.14484597928822" lon="-8.582127979025245">
        <ele>17.440000000000001</ele>
        <time>2025-05-04T06:52:36Z</time>
      </trkpt>
      <trkpt lat="41.144824018701911" lon="-8.582040974870324">
        <ele>16.960000000000001</ele>
        <time>2025-05-04T06:52:37Z</time>
      </trkpt>
      <trkpt lat="41.144826030358672" lon="-8.581836959347129">
        <ele>16.48</ele>
        <time>2025-05-04T06:52:39Z</time>
      </trkpt>
      <trkpt lat="41.144870035350323" lon="-8.581586005166173">
        <ele>16</ele>
        <time>2025-05-04T06:52:41Z</time>
      </trkpt>
      <trkpt lat="41.14490901120007" lon="-8.581454996019602">
        <ele>16</ele>
        <time>2025-05-04T06:52:42Z</time>
      </trkpt>
      <trkpt lat="41.145155020058155" lon="-8.580454029142857">
        <ele>12.630000000000001</ele>
        <time>2025-05-04T06:52:49Z</time>
      </trkpt>
      <trkpt lat="41.145291980355978" lon="-8.579999981448054">
        <ele>9.27</ele>
        <time>2025-05-04T06:52:53Z</time>
      </trkpt>
      <trkpt lat="41.14531897008419" lon="-8.579910965636373">
        <ele>8.310000000000001</ele>
        <time>2025-05-04T06:52:54Z</time>
      </trkpt>
      <trkpt lat="41.145344031974673" lon="-8.579828990623355">
        <ele>7.35</ele>
        <time>2025-05-04T06:52:55Z</time>
      </trkpt>
      <trkpt lat="41.145405974239111" lon="-8.579783979803324">
        <ele>6.39</ele>
        <time>2025-05-04T06:52:56Z</time>
      </trkpt>
      <trkpt lat="41.145478980615735" lon="-8.579730000346899">
        <ele>5.42</ele>
        <time>2025-05-04T06:52:57Z</time>
      </trkpt>
      <trkpt lat="41.14555399864912" lon="-8.579675015062094">
        <ele>4.46</ele>
        <time>2025-05-04T06:52:58Z</time>
      </trkpt>
      <trkpt lat="41.145628010854125" lon="-8.579621035605669">
        <ele>3.98</ele>
        <time>2025-05-04T06:52:59Z</time>
      </trkpt>
      <trkpt lat="41.145765976980329" lon="-8.579533025622368">
        <ele>3.98</ele>
        <time>2025-05-04T06:53:01Z</time>
      </trkpt>
      <trkpt lat="41.145830014720559" lon="-8.579493965953589">
        <ele>3.5</ele>
        <time>2025-05-04T06:53:02Z</time>
      </trkpt>
      <trkpt lat="41.145890029147267" lon="-8.579457001760602">
        <ele>3.02</ele>
        <time>2025-05-04T06:53:03Z</time>
      </trkpt>
      <trkpt lat="41.145880976691842" lon="-8.579271007329226">
        <ele>2.06</ele>
        <time>2025-05-04T06:53:04Z</time>
      </trkpt>
      <trkpt lat="41.145876031368971" lon="-8.579224990680814">
        <ele>1.58</ele>
        <time>2025-05-04T06:53:05Z</time>
      </trkpt>
      <trkpt lat="41.145867984741926" lon="-8.579144021496177">
        <ele>1.1</ele>
        <time>2025-05-04T06:53:06Z</time>
      </trkpt>
      <trkpt lat="41.145890029147267" lon="-8.579002032056451">
        <ele>0.62</ele>
        <time>2025-05-04T06:53:07Z</time>
      </trkpt>
      <trkpt lat="41.145924981683493" lon="-8.578941011801362">
        <ele>0.14</ele>
        <time>2025-05-04T06:53:08Z</time>
      </trkpt>
      <trkpt lat="41.146034030243754" lon="-8.57889499515295">
        <ele>-0.34</ele>
        <time>2025-05-04T06:53:09Z</time>
      </trkpt>
      <trkpt lat="41.146127991378307" lon="-8.578892983496189">
        <ele>-0.82</ele>
        <time>2025-05-04T06:53:10Z</time>
      </trkpt>
      <trkpt lat="41.146179037168622" lon="-8.578931037336588">
        <ele>-0.82</ele>
        <time>2025-05-04T06:53:11Z</time>
      </trkpt>
      <trkpt lat="41.146226981654763" lon="-8.579045031219721">
        <ele>-0.82</ele>
        <time>2025-05-04T06:53:12Z</time>
      </trkpt>
      <trkpt lat="41.146249026060104" lon="-8.579133963212371">
        <ele>-0.82</ele>
        <time>2025-05-04T06:53:13Z</time>
      </trkpt>
      <trkpt lat="41.146266963332891" lon="-8.579248962923884">
        <ele>-0.82</ele>
        <time>2025-05-04T06:53:14Z</time>
      </trkpt>
      <trkpt lat="41.14628397859633" lon="-8.579342002049089">
        <ele>-0.34</ele>
        <time>2025-05-04T06:53:15Z</time>
      </trkpt>
      <trkpt lat="41.146309962496161" lon="-8.579486003145576">
        <ele>-0.34</ele>
        <time>2025-05-04T06:53:16Z</time>
      </trkpt>
      <trkpt lat="41.146349022164941" lon="-8.57958298176527">
        <ele>0.14</ele>
        <time>2025-05-04T06:53:17Z</time>
      </trkpt>
      <trkpt lat="41.146398978307843" lon="-8.579706028103828">
        <ele>0.62</ele>
        <time>2025-05-04T06:53:18Z</time>
      </trkpt>
      <trkpt lat="41.146908011287451" lon="-8.580583026632667">
        <ele>5.91</ele>
        <time>2025-05-04T06:53:25Z</time>
      </trkpt>
      <trkpt lat="41.147278994321823" lon="-8.581012012436986">
        <ele>7.83</ele>
        <time>2025-05-04T06:53:29Z</time>
      </trkpt>
      <trkpt lat="41.147383013740182" lon="-8.581099016591907">
        <ele>8.789999999999999</ele>
        <time>2025-05-04T06:53:30Z</time>
      </trkpt>
      <trkpt lat="41.147489966824651" lon="-8.581176968291402">
        <ele>9.75</ele>
        <time>2025-05-04T06:53:31Z</time>
      </trkpt>
      <trkpt lat="41.147603960707784" lon="-8.581247963011265">
        <ele>10.710000000000001</ele>
        <time>2025-05-04T06:53:32Z</time>
      </trkpt>
      <trkpt lat="41.147714015096426" lon="-8.581304037943482">
        <ele>11.19</ele>
        <time>2025-05-04T06:53:33Z</time>
      </trkpt>
      <trkpt lat="41.147850975394249" lon="-8.581298002973199">
        <ele>12.15</ele>
        <time>2025-05-04T06:53:34Z</time>
      </trkpt>
      <trkpt lat="41.147956000640988" lon="-8.581289034336805">
        <ele>13.119999999999999</ele>
        <time>2025-05-04T06:53:35Z</time>
      </trkpt>
      <trkpt lat="41.148049961775541" lon="-8.581250980496407">
        <ele>13.6</ele>
        <time>2025-05-04T06:53:36Z</time>
      </trkpt>
      <trkpt lat="41.148139983415604" lon="-8.58121401630342">
        <ele>14.56</ele>
        <time>2025-05-04T06:53:37Z</time>
      </trkpt>
      <trkpt lat="41.148227993398905" lon="-8.58117101714015">
        <ele>16</ele>
        <time>2025-05-04T06:53:38Z</time>
      </trkpt>
      <trkpt lat="41.148298988118768" lon="-8.581086024641991">
        <ele>16.48</ele>
        <time>2025-05-04T06:53:39Z</time>
      </trkpt>
      <trkpt lat="41.14834601059556" lon="-8.580973958596587">
        <ele>17.440000000000001</ele>
        <time>2025-05-04T06:53:40Z</time>
      </trkpt>
      <trkpt lat="41.148377023637295" lon="-8.580852001905441">
        <ele>18.399999999999999</ele>
        <time>2025-05-04T06:53:41Z</time>
      </trkpt>
      <trkpt lat="41.148391021415591" lon="-8.580730967223644">
        <ele>18.879999999999999</ele>
        <time>2025-05-04T06:53:42Z</time>
      </trkpt>
      <trkpt lat="41.148385992273688" lon="-8.580594006925821">
        <ele>18.399999999999999</ele>
        <time>2025-05-04T06:53:43Z</time>
      </trkpt>
      <trkpt lat="41.148322038352489" lon="-8.580498034134507">
        <ele>18.399999999999999</ele>
        <time>2025-05-04T06:53:44Z</time>
      </trkpt>
      <trkpt lat="41.148255988955498" lon="-8.580398038029671">
        <ele>17.920000000000002</ele>
        <time>2025-05-04T06:53:45Z</time>
      </trkpt>
      <trkpt lat="41.148176025599241" lon="-8.580327965319157">
        <ele>17.440000000000001</ele>
        <time>2025-05-04T06:53:46Z</time>
      </trkpt>
      <trkpt lat="41.148080974817276" lon="-8.580294018611312">
        <ele>16.960000000000001</ele>
        <time>2025-05-04T06:53:47Z</time>
      </trkpt>
      <trkpt lat="41.147983996197581" lon="-8.580257976427674">
        <ele>16.48</ele>
        <time>2025-05-04T06:53:48Z</time>
      </trkpt>
      <trkpt lat="41.147889029234648" lon="-8.580304998904467">
        <ele>16.48</ele>
        <time>2025-05-04T06:53:49Z</time>
      </trkpt>
      <trkpt lat="41.147782998159528" lon="-8.580357972532511">
        <ele>16.48</ele>
        <time>2025-05-04T06:53:50Z</time>
      </trkpt>
      <trkpt lat="41.147669004276395" lon="-8.580414969474077">
        <ele>16.48</ele>
        <time>2025-05-04T06:53:51Z</time>
      </trkpt>
      <trkpt lat="41.147546041756868" lon="-8.580476995557547">
        <ele>16.48</ele>
        <time>2025-05-04T06:53:52Z</time>
      </trkpt>
      <trkpt lat="41.146267969161272" lon="-8.581073032692075">
        <ele>22.25</ele>
        <time>2025-05-04T06:54:01Z</time>
      </trkpt>
      <trkpt lat="41.144635006785393" lon="-8.581119971349835">
        <ele>31.379999999999999</ele>
        <time>2025-05-04T06:54:11Z</time>
      </trkpt>
      <trkpt lat="41.142224036157131" lon="-8.581002959981561">
        <ele>39.549999999999997</ele>
        <time>2025-05-04T06:54:25Z</time>
      </trkpt>
      <trkpt lat="41.139779035001993" lon="-8.580899024382234">
        <ele>38.590000000000003</ele>
        <time>2025-05-04T06:54:39Z</time>
      </trkpt>
      <trkpt lat="41.137715997174382" lon="-8.580652009695768">
        <ele>29.460000000000001</ele>
        <time>2025-05-04T06:54:50Z</time>
      </trkpt>
      <trkpt lat="41.136530041694641" lon="-8.579856986179948">
        <ele>25.609999999999999</ele>
        <time>2025-05-04T06:54:57Z</time>
      </trkpt>
      <trkpt lat="41.136366007849574" lon="-8.579708961769939">
        <ele>25.129999999999999</ele>
        <time>2025-05-04T06:54:58Z</time>
      </trkpt>
      <trkpt lat="41.135322041809559" lon="-8.578129978850484">
        <ele>21.289999999999999</ele>
        <time>2025-05-04T06:55:06Z</time>
      </trkpt>
      <trkpt lat="41.134346975013614" lon="-8.577143009752035">
        <ele>22.25</ele>
        <time>2025-05-04T06:55:12Z</time>
      </trkpt>
      <trkpt lat="41.133637027814984" lon="-8.576699020341039">
        <ele>24.649999999999999</ele>
        <time>2025-05-04T06:55:16Z</time>
      </trkpt>
      <trkpt lat="41.132085034623742" lon="-8.576354021206498">
        <ele>32.340000000000003</ele>
        <time>2025-05-04T06:55:24Z</time>
      </trkpt>
      <trkpt lat="41.130433967337012" lon="-8.576116980984807">
        <ele>41.950000000000003</ele>
        <time>2025-05-04T06:55:32Z</time>
      </trkpt>
      <trkpt lat="41.128687011078" lon="-8.575579030439258">
        <ele>51.090000000000003</ele>
        <time>2025-05-04T06:55:40Z</time>
      </trkpt>
      <trkpt lat="41.126429010182619" lon="-8.57440497726202">
        <ele>53.490000000000002</ele>
        <time>2025-05-04T06:55:50Z</time>
      </trkpt>
      <trkpt lat="41.123817963525653" lon="-8.573507023975253">
        <ele>49.159999999999997</ele>
        <time>2025-05-04T06:56:01Z</time>
      </trkpt>
      <trkpt lat="41.120739961043" lon="-8.572547966614366">
        <ele>40.509999999999998</ele>
        <time>2025-05-04T06:56:14Z</time>
      </trkpt>
      <trkpt lat="41.118371989578009" lon="-8.572144964709878">
        <ele>42.920000000000002</ele>
        <time>2025-05-04T06:56:24Z</time>
      </trkpt>
      <trkpt lat="41.116450019180775" lon="-8.571724025532603">
        <ele>54.450000000000003</ele>
        <time>2025-05-04T06:56:32Z</time>
      </trkpt>
      <trkpt lat="41.114917974919081" lon="-8.570763040333986">
        <ele>61.659999999999997</ele>
        <time>2025-05-04T06:56:39Z</time>
      </trkpt>
      <trkpt lat="41.112303994596004" lon="-8.568407976999879">
        <ele>69.829999999999998</ele>
        <time>2025-05-04T06:56:52Z</time>
      </trkpt>
      <trkpt lat="41.111085014417768" lon="-8.567320005968213">
        <ele>71.269999999999996</ele>
        <time>2025-05-04T06:56:58Z</time>
      </trkpt>
      <trkpt lat="41.109396982938051" lon="-8.566038999706507">
        <ele>73.680000000000007</ele>
        <time>2025-05-04T06:57:06Z</time>
      </trkpt>
      <trkpt lat="41.108458964154124" lon="-8.565741023048759">
        <ele>74.159999999999997</ele>
        <time>2025-05-04T06:57:10Z</time>
      </trkpt>
      <trkpt lat="41.107010990381241" lon="-8.565643960610032">
        <ele>76.079999999999998</ele>
        <time>2025-05-04T06:57:16Z</time>
      </trkpt>
      <trkpt lat="41.105598974972963" lon="-8.566079987213016">
        <ele>79.450000000000003</ele>
        <time>2025-05-04T06:57:22Z</time>
      </trkpt>
      <trkpt lat="41.103110974654555" lon="-8.567302990704775">
        <ele>87.140000000000001</ele>
        <time>2025-05-04T06:57:33Z</time>
      </trkpt>
      <trkpt lat="41.101845977827907" lon="-8.568456005305052">
        <ele>86.659999999999997</ele>
        <time>2025-05-04T06:57:40Z</time>
      </trkpt>
      <trkpt lat="41.100270012393594" lon="-8.570559024810791">
        <ele>90.019999999999996</ele>
        <time>2025-05-04T06:57:51Z</time>
      </trkpt>
      <trkpt lat="41.099738012999296" lon="-8.571209041401744">
        <ele>91.939999999999998</ele>
        <time>2025-05-04T06:57:55Z</time>
      </trkpt>
      <trkpt lat="41.098204040899873" lon="-8.572345040738583">
        <ele>100.11</ele>
        <time>2025-05-04T06:58:04Z</time>
      </trkpt>
      <trkpt lat="41.096422970294952" lon="-8.57291903346777">
        <ele>110.20999999999999</ele>
        <time>2025-05-04T06:58:12Z</time>
      </trkpt>
      <trkpt lat="41.094032032415271" lon="-8.573571983724833">
        <ele>119.34</ele>
        <time>2025-05-04T06:58:22Z</time>
      </trkpt>
      <trkpt lat="41.091477982699871" lon="-8.574655009433627">
        <ele>121.73999999999999</ele>
        <time>2025-05-04T06:58:33Z</time>
      </trkpt>
      <trkpt lat="41.088712038472295" lon="-8.57580098323524">
        <ele>126.06999999999999</ele>
        <time>2025-05-04T06:58:45Z</time>
      </trkpt>
      <trkpt lat="41.086776992306113" lon="-8.575863009318709">
        <ele>134.72</ele>
        <time>2025-05-04T06:58:53Z</time>
      </trkpt>
      <trkpt lat="41.084786038845778" lon="-8.575618006289005">
        <ele>144.81999999999999</ele>
        <time>2025-05-04T06:59:02Z</time>
      </trkpt>
      <trkpt lat="41.083155004307628" lon="-8.575459001585841">
        <ele>153.47</ele>
        <time>2025-05-04T06:59:10Z</time>
      </trkpt>
      <trkpt lat="41.081321965903044" lon="-8.575587999075651">
        <ele>163.08000000000001</ele>
        <time>2025-05-04T06:59:18Z</time>
      </trkpt>
      <trkpt lat="41.079455986618996" lon="-8.576301969587803">
        <ele>174.13999999999999</ele>
        <time>2025-05-04T06:59:26Z</time>
      </trkpt>
      <trkpt lat="41.077540973201394" lon="-8.577666962519288">
        <ele>185.19</ele>
        <time>2025-05-04T06:59:35Z</time>
      </trkpt>
      <trkpt lat="41.074628010392189" lon="-8.580053960904479">
        <ele>201.53</ele>
        <time>2025-05-04T06:59:49Z</time>
      </trkpt>
      <trkpt lat="41.072581987828016" lon="-8.581162970513105">
        <ele>203.94</ele>
        <time>2025-05-04T06:59:58Z</time>
      </trkpt>
      <trkpt lat="41.070688012987375" lon="-8.581869984045625">
        <ele>203.46000000000001</ele>
        <time>2025-05-04T07:00:06Z</time>
      </trkpt>
      <trkpt lat="41.068750033155084" lon="-8.582100989297032">
        <ele>196.72999999999999</ele>
        <time>2025-05-04T07:00:14Z</time>
      </trkpt>
      <trkpt lat="41.066824039444327" lon="-8.581721959635615">
        <ele>190.47999999999999</ele>
        <time>2025-05-04T07:00:22Z</time>
      </trkpt>
      <trkpt lat="41.064740968868136" lon="-8.580843033269048">
        <ele>181.34999999999999</ele>
        <time>2025-05-04T07:00:31Z</time>
      </trkpt>
      <trkpt lat="41.062452038750052" lon="-8.579782973974943">
        <ele>173.16999999999999</ele>
        <time>2025-05-04T07:00:41Z</time>
      </trkpt>
      <trkpt lat="41.060359999537468" lon="-8.578907987102866">
        <ele>166.93000000000001</ele>
        <time>2025-05-04T07:00:50Z</time>
      </trkpt>
      <trkpt lat="41.057275962084532" lon="-8.578043980523944">
        <ele>170.77000000000001</ele>
        <time>2025-05-04T07:01:03Z</time>
      </trkpt>
      <trkpt lat="41.05548600666225" lon="-8.577073020860553">
        <ele>175.58000000000001</ele>
        <time>2025-05-04T07:01:11Z</time>
      </trkpt>
      <trkpt lat="41.053901994600892" lon="-8.575566038489342">
        <ele>178.94</ele>
        <time>2025-05-04T07:01:19Z</time>
      </trkpt>
      <trkpt lat="41.052491990849376" lon="-8.573751021176577">
        <ele>179.41999999999999</ele>
        <time>2025-05-04T07:01:27Z</time>
      </trkpt>
      <trkpt lat="41.050856010988355" lon="-8.572330037131906">
        <ele>177.02000000000001</ele>
        <time>2025-05-04T07:01:35Z</time>
      </trkpt>
      <trkpt lat="41.04902096092701" lon="-8.57152403332293">
        <ele>171.25</ele>
        <time>2025-05-04T07:01:43Z</time>
      </trkpt>
      <trkpt lat="41.047117011621594" lon="-8.571239970624447">
        <ele>165.47999999999999</ele>
        <time>2025-05-04T07:01:51Z</time>
      </trkpt>
      <trkpt lat="41.044474029913545" lon="-8.570831017568708">
        <ele>164.03999999999999</ele>
        <time>2025-05-04T07:02:02Z</time>
      </trkpt>
      <trkpt lat="41.044000033289194" lon="-8.570689028128982">
        <ele>164.03999999999999</ele>
        <time>2025-05-04T07:02:04Z</time>
      </trkpt>
      <trkpt lat="41.043763998895884" lon="-8.570614010095596">
        <ele>164.03999999999999</ele>
        <time>2025-05-04T07:02:05Z</time>
      </trkpt>
      <trkpt lat="41.041129985824227" lon="-8.56999802403152">
        <ele>162.12</ele>
        <time>2025-05-04T07:02:16Z</time>
      </trkpt>
      <trkpt lat="41.039196029305458" lon="-8.570227017626166">
        <ele>159.72</ele>
        <time>2025-05-04T07:02:24Z</time>
      </trkpt>
      <trkpt lat="41.037127962335944" lon="-8.5711370408535">
        <ele>154.91</ele>
        <time>2025-05-04T07:02:33Z</time>
      </trkpt>
      <trkpt lat="41.035490976646543" lon="-8.571905996650457">
        <ele>152.50999999999999</ele>
        <time>2025-05-04T07:02:40Z</time>
      </trkpt>
      <trkpt lat="41.0335089918226" lon="-8.572232974693179">
        <ele>148.66</ele>
        <time>2025-05-04T07:02:48Z</time>
      </trkpt>
      <trkpt lat="41.031001964583993" lon="-8.572056032717228">
        <ele>151.53999999999999</ele>
        <time>2025-05-04T07:02:58Z</time>
      </trkpt>
      <trkpt lat="41.02901604026556" lon="-8.572331964969635">
        <ele>151.53999999999999</ele>
        <time>2025-05-04T07:03:06Z</time>
      </trkpt>
      <trkpt lat="41.027373019605875" lon="-8.573093041777611">
        <ele>147.22</ele>
        <time>2025-05-04T07:03:13Z</time>
      </trkpt>
      <trkpt lat="41.025261031463742" lon="-8.574814014136791">
        <ele>137.61000000000001</ele>
        <time>2025-05-04T07:03:23Z</time>
      </trkpt>
      <trkpt lat="41.02353997528553" lon="-8.576696002855897">
        <ele>128.47</ele>
        <time>2025-05-04T07:03:32Z</time>
      </trkpt>
      <trkpt lat="41.021429998800159" lon="-8.579466976225376">
        <ele>124.63</ele>
        <time>2025-05-04T07:03:44Z</time>
      </trkpt>
      <trkpt lat="41.019703997299075" lon="-8.580817971378565">
        <ele>124.15000000000001</ele>
        <time>2025-05-04T07:03:52Z</time>
      </trkpt>
      <trkpt lat="41.018571015447378" lon="-8.581410991027951">
        <ele>123.67</ele>
        <time>2025-05-04T07:03:58Z</time>
      </trkpt>
      <trkpt lat="41.017872970551252" lon="-8.581717014312744">
        <ele>123.67</ele>
        <time>2025-05-04T07:04:04Z</time>
      </trkpt>
      <trkpt lat="41.017567031085491" lon="-8.581845005974174">
        <ele>122.70999999999999</ele>
        <time>2025-05-04T07:04:11Z</time>
      </trkpt>
      <trkpt lat="41.017553033307195" lon="-8.581850035116077">
        <ele>122.70999999999999</ele>
        <time>2025-05-04T07:04:12Z</time>
      </trkpt>
      <trkpt lat="41.01752202026546" lon="-8.581861015409231">
        <ele>122.22</ele>
        <time>2025-05-04T07:04:24Z</time>
      </trkpt>
      <trkpt lat="41.017583040520549" lon="-8.582311039790511">
        <ele>120.78</ele>
        <time>2025-05-04T07:04:35Z</time>
      </trkpt>
      <trkpt lat="41.017650011926889" lon="-8.582382034510374">
        <ele>120.78</ele>
        <time>2025-05-04T07:04:46Z</time>
      </trkpt>
      <trkpt lat="41.017570970579982" lon="-8.582411035895348">
        <ele>120.3</ele>
        <time>2025-05-04T07:04:47Z</time>
      </trkpt>
      <trkpt lat="41.017537023872137" lon="-8.582423022016883">
        <ele>120.3</ele>
        <time>2025-05-04T07:04:48Z</time>
      </trkpt>
      <trkpt lat="41.017496036365628" lon="-8.58243802562356">
        <ele>119.81999999999999</ele>
        <time>2025-05-04T07:04:49Z</time>
      </trkpt>
      <trkpt lat="41.017465023323894" lon="-8.582450011745095">
        <ele>119.81999999999999</ele>
        <time>2025-05-04T07:04:50Z</time>
      </trkpt>
      <trkpt lat="41.017211973667145" lon="-8.582542967051268">
        <ele>118.86</ele>
        <time>2025-05-04T07:05:00Z</time>
      </trkpt>
      <trkpt lat="41.017211973667145" lon="-8.582542967051268">
        <ele>118.38</ele>
        <time>2025-05-04T07:05:17Z</time>
      </trkpt>
      <trkpt lat="41.017211973667145" lon="-8.582542967051268">
        <ele>117.90000000000001</ele>
        <time>2025-05-04T07:06:06Z</time>
      </trkpt>
      <trkpt lat="41.017211973667145" lon="-8.582542967051268">
        <ele>117.42</ele>
        <time>2025-05-04T07:06:38Z</time>
      </trkpt>
      <trkpt lat="41.017211973667145" lon="-8.582542967051268">
        <ele>118.86</ele>
        <time>2025-05-04T07:06:58Z</time>
      </trkpt>
      <trkpt lat="41.017211973667145" lon="-8.582542967051268">
        <ele>118.86</ele>
        <time>2025-05-04T07:07:20Z</time>
      </trkpt>
      <trkpt lat="41.017402997240424" lon="-8.582472978159785">
        <ele>121.26000000000001</ele>
        <time>2025-05-04T07:07:32Z</time>
      </trkpt>
      <trkpt lat="41.017627967521548" lon="-8.582683028653264">
        <ele>122.22</ele>
        <time>2025-05-04T07:07:35Z</time>
      </trkpt>
      <trkpt lat="41.017627967521548" lon="-8.582683028653264">
        <ele>122.22</ele>
        <time>2025-05-04T07:07:36Z</time>
      </trkpt>
      <trkpt lat="41.017575999721885" lon="-8.582382034510374">
        <ele>122.70999999999999</ele>
        <time>2025-05-04T07:07:38Z</time>
      </trkpt>
      <trkpt lat="41.017550015822053" lon="-8.582270974293351">
        <ele>122.22</ele>
        <time>2025-05-04T07:07:42Z</time>
      </trkpt>
      <trkpt lat="41.017540041357279" lon="-8.582422016188502">
        <ele>121.73999999999999</ele>
        <time>2025-05-04T07:07:44Z</time>
      </trkpt>
      <trkpt lat="41.017499975860119" lon="-8.582437019795179">
        <ele>121.73999999999999</ele>
        <time>2025-05-04T07:07:45Z</time>
      </trkpt>
      <trkpt lat="41.01722102612257" lon="-8.582539027556777">
        <ele>119.81999999999999</ele>
        <time>2025-05-04T07:07:55Z</time>
      </trkpt>
      <trkpt lat="41.01709202863276" lon="-8.582586972042918">
        <ele>118.38</ele>
        <time>2025-05-04T07:08:16Z</time>
      </trkpt>
      <trkpt lat="41.01709202863276" lon="-8.582586972042918">
        <ele>118.38</ele>
        <time>2025-05-04T07:08:33Z</time>
      </trkpt>
      <trkpt lat="41.017060009762645" lon="-8.582598036155105">
        <ele>118.38</ele>
        <time>2025-05-04T07:08:47Z</time>
      </trkpt>
      <trkpt lat="41.01700603030622" lon="-8.582617985084653">
        <ele>118.38</ele>
        <time>2025-05-04T07:08:48Z</time>
      </trkpt>
      <trkpt lat="41.016991026699543" lon="-8.582621002569795">
        <ele>117.90000000000001</ele>
        <time>2025-05-04T07:08:49Z</time>
      </trkpt>
      <trkpt lat="41.016949033364654" lon="-8.582627037540078">
        <ele>117.90000000000001</ele>
        <time>2025-05-04T07:08:50Z</time>
      </trkpt>
      <trkpt lat="41.016889018937945" lon="-8.582636006176472">
        <ele>117.90000000000001</ele>
        <time>2025-05-04T07:08:51Z</time>
      </trkpt>
      <trkpt lat="41.016829004511237" lon="-8.582644974812865">
        <ele>118.38</ele>
        <time>2025-05-04T07:08:52Z</time>
      </trkpt>
      <trkpt lat="41.016134982928634" lon="-8.582684034481645">
        <ele>119.81999999999999</ele>
        <time>2025-05-04T07:09:00Z</time>
      </trkpt>
      <trkpt lat="41.014684997498989" lon="-8.582755029201508">
        <ele>119.81999999999999</ele>
        <time>2025-05-04T07:09:09Z</time>
      </trkpt>
      <trkpt lat="41.013292009010911" lon="-8.583074966445565">
        <ele>119.81999999999999</ele>
        <time>2025-05-04T07:09:16Z</time>
      </trkpt>
      <trkpt lat="41.011203993111849" lon="-8.582923002541065">
        <ele>122.22</ele>
        <time>2025-05-04T07:09:25Z</time>
      </trkpt>
      <trkpt lat="41.00819899700582" lon="-8.5825240239501">
        <ele>124.15000000000001</ele>
        <time>2025-05-04T07:09:37Z</time>
      </trkpt>
      <trkpt lat="41.005691969767213" lon="-8.582443976774812">
        <ele>117.42</ele>
        <time>2025-05-04T07:09:47Z</time>
      </trkpt>
      <trkpt lat="41.002987967804074" lon="-8.582829041406512">
        <ele>110.69</ele>
        <time>2025-05-04T07:09:58Z</time>
      </trkpt>
      <trkpt lat="40.999810975044966" lon="-8.583528008311987">
        <ele>118.38</ele>
        <time>2025-05-04T07:10:11Z</time>
      </trkpt>
      <trkpt lat="40.996820982545614" lon="-8.58396302908659">
        <ele>125.11</ele>
        <time>2025-05-04T07:10:23Z</time>
      </trkpt>
      <trkpt lat="40.99539203569293" lon="-8.584581026807427">
        <ele>124.63</ele>
        <time>2025-05-04T07:10:29Z</time>
      </trkpt>
      <trkpt lat="40.993265965953469" lon="-8.585541006177664">
        <ele>123.19</ele>
        <time>2025-05-04T07:10:38Z</time>
      </trkpt>
      <trkpt lat="40.991491014137864" lon="-8.585762958973646">
        <ele>118.38</ele>
        <time>2025-05-04T07:10:45Z</time>
      </trkpt>
      <trkpt lat="40.989379025995731" lon="-8.585400022566319">
        <ele>117.42</ele>
        <time>2025-05-04T07:10:53Z</time>
      </trkpt>
      <trkpt lat="40.987362004816532" lon="-8.584293024614453">
        <ele>119.34</ele>
        <time>2025-05-04T07:11:01Z</time>
      </trkpt>
      <trkpt lat="40.985845969989896" lon="-8.582742959260941">
        <ele>118.86</ele>
        <time>2025-05-04T07:11:08Z</time>
      </trkpt>
      <trkpt lat="40.984195992350578" lon="-8.580304998904467">
        <ele>112.13</ele>
        <time>2025-05-04T07:11:17Z</time>
      </trkpt>
      <trkpt lat="40.982768973335624" lon="-8.578653009608388">
        <ele>104.92</ele>
        <time>2025-05-04T07:11:24Z</time>
      </trkpt>
      <trkpt lat="40.980839962139726" lon="-8.577266978099942">
        <ele>103.48</ele>
        <time>2025-05-04T07:11:32Z</time>
      </trkpt>
      <trkpt lat="40.978973982855678" lon="-8.576612016186118">
        <ele>104.44</ele>
        <time>2025-05-04T07:11:39Z</time>
      </trkpt>
      <trkpt lat="40.976539961993694" lon="-8.575925035402179">
        <ele>113.09</ele>
        <time>2025-05-04T07:11:48Z</time>
      </trkpt>
      <trkpt lat="40.974790994077921" lon="-8.574881991371512">
        <ele>120.78</ele>
        <time>2025-05-04T07:11:55Z</time>
      </trkpt>
      <trkpt lat="40.972469039261341" lon="-8.572905035689473">
        <ele>129.91999999999999</ele>
        <time>2025-05-04T07:12:05Z</time>
      </trkpt>
      <trkpt lat="40.970681011676788" lon="-8.571944972500205">
        <ele>137.13</ele>
        <time>2025-05-04T07:12:12Z</time>
      </trkpt>
      <trkpt lat="40.968761974945664" lon="-8.570496998727322">
        <ele>144.81999999999999</ele>
        <time>2025-05-04T07:12:20Z</time>
      </trkpt>
      <trkpt lat="40.966672031208873" lon="-8.568693967536092">
        <ele>146.74000000000001</ele>
        <time>2025-05-04T07:12:29Z</time>
      </trkpt>
      <trkpt lat="40.964838992804289" lon="-8.567847982048988">
        <ele>144.81999999999999</ele>
        <time>2025-05-04T07:12:36Z</time>
      </trkpt>
      <trkpt lat="40.962894978001714" lon="-8.5676349978894">
        <ele>139.53</ele>
        <time>2025-05-04T07:12:43Z</time>
      </trkpt>
      <trkpt lat="40.961001003161073" lon="-8.568046968430281">
        <ele>130.88</ele>
        <time>2025-05-04T07:12:50Z</time>
      </trkpt>
      <trkpt lat="40.959215993061662" lon="-8.569028992205858">
        <ele>121.26000000000001</ele>
        <time>2025-05-04T07:12:57Z</time>
      </trkpt>
      <trkpt lat="40.957395024597645" lon="-8.57066698372364">
        <ele>112.61</ele>
        <time>2025-05-04T07:13:05Z</time>
      </trkpt>
      <trkpt lat="40.955427959561348" lon="-8.5719970241189">
        <ele>109.25</ele>
        <time>2025-05-04T07:13:13Z</time>
      </trkpt>
      <trkpt lat="40.953294010832906" lon="-8.572623990476131">
        <ele>109.25</ele>
        <time>2025-05-04T07:13:21Z</time>
      </trkpt>
      <trkpt lat="40.950549021363258" lon="-8.572789030149579">
        <ele>113.09</ele>
        <time>2025-05-04T07:13:31Z</time>
      </trkpt>
      <trkpt lat="40.94836100935936" lon="-8.573218015953898">
        <ele>118.38</ele>
        <time>2025-05-04T07:13:39Z</time>
      </trkpt>
      <trkpt lat="40.94595598988235" lon="-8.574088979512453">
        <ele>124.63</ele>
        <time>2025-05-04T07:13:48Z</time>
      </trkpt>
      <trkpt lat="40.943754985928535" lon="-8.574426015838981">
        <ele>123.19</ele>
        <time>2025-05-04T07:13:56Z</time>
      </trkpt>
      <trkpt lat="40.94153000973165" lon="-8.574343034997582">
        <ele>115.5</ele>
        <time>2025-05-04T07:14:04Z</time>
      </trkpt>
      <trkpt lat="40.939075034111738" lon="-8.57390801422298">
        <ele>107.31999999999999</ele>
        <time>2025-05-04T07:14:13Z</time>
      </trkpt>
      <trkpt lat="40.936409002169967" lon="-8.572930013760924">
        <ele>103.48</ele>
        <time>2025-05-04T07:14:23Z</time>
      </trkpt>
      <trkpt lat="40.934326015412807" lon="-8.571914965286851">
        <ele>103</ele>
        <time>2025-05-04T07:14:31Z</time>
      </trkpt>
      <trkpt lat="40.930758006870747" lon="-8.570011015981436">
        <ele>110.20999999999999</ele>
        <time>2025-05-04T07:14:45Z</time>
      </trkpt>
      <trkpt lat="40.928117958828807" lon="-8.568916004151106">
        <ele>118.38</ele>
        <time>2025-05-04T07:14:55Z</time>
      </trkpt>
      <trkpt lat="40.9248579852283" lon="-8.568035988137126">
        <ele>121.73999999999999</ele>
        <time>2025-05-04T07:15:07Z</time>
      </trkpt>
      <trkpt lat="40.922381971031427" lon="-8.567759972065687">
        <ele>112.61</ele>
        <time>2025-05-04T07:15:16Z</time>
      </trkpt>
      <trkpt lat="40.918782027438283" lon="-8.567817974835634">
        <ele>106.84</ele>
        <time>2025-05-04T07:15:29Z</time>
      </trkpt>
      <trkpt lat="40.914642959833145" lon="-8.568001035600901">
        <ele>102.04000000000001</ele>
        <time>2025-05-04T07:15:44Z</time>
      </trkpt>
      <trkpt lat="40.910787032917142" lon="-8.567757038399577">
        <ele>108.29000000000001</ele>
        <time>2025-05-04T07:15:58Z</time>
      </trkpt>
      <trkpt lat="40.907480036839843" lon="-8.567269966006279">
        <ele>115.5</ele>
        <time>2025-05-04T07:16:10Z</time>
      </trkpt>
      <trkpt lat="40.904994970187545" lon="-8.566958997398615">
        <ele>116.45999999999999</ele>
        <time>2025-05-04T07:16:19Z</time>
      </trkpt>
      <trkpt lat="40.902765970677137" lon="-8.566987998783588">
        <ele>114.53</ele>
        <time>2025-05-04T07:16:27Z</time>
      </trkpt>
      <trkpt lat="40.900563960894942" lon="-8.567393012344837">
        <ele>108.29000000000001</ele>
        <time>2025-05-04T07:16:35Z</time>
      </trkpt>
      <trkpt lat="40.897554019466043" lon="-8.568094996735454">
        <ele>96.269999999999996</ele>
        <time>2025-05-04T07:16:46Z</time>
      </trkpt>
      <trkpt lat="40.894825039431453" lon="-8.568518031388521">
        <ele>85.209999999999994</ele>
        <time>2025-05-04T07:16:56Z</time>
      </trkpt>
      <trkpt lat="40.891795987263322" lon="-8.568482995033264">
        <ele>81.370000000000005</ele>
        <time>2025-05-04T07:17:07Z</time>
      </trkpt>
      <trkpt lat="40.889075975865126" lon="-8.567874971777201">
        <ele>85.689999999999998</ele>
        <time>2025-05-04T07:17:17Z</time>
      </trkpt>
      <trkpt lat="40.887034982442856" lon="-8.566783983260393">
        <ele>92.900000000000006</ele>
        <time>2025-05-04T07:17:25Z</time>
      </trkpt>
      <trkpt lat="40.885295988991857" lon="-8.565006013959646">
        <ele>101.08</ele>
        <time>2025-05-04T07:17:33Z</time>
      </trkpt>
      <trkpt lat="40.883439984172583" lon="-8.562807021662593">
        <ele>105.88</ele>
        <time>2025-05-04T07:17:42Z</time>
      </trkpt>
      <trkpt lat="40.881728986278176" lon="-8.561602039262652">
        <ele>107.81</ele>
        <time>2025-05-04T07:17:49Z</time>
      </trkpt>
      <trkpt lat="40.879881028085947" lon="-8.560940958559513">
        <ele>107.31999999999999</ele>
        <time>2025-05-04T07:17:56Z</time>
      </trkpt>
      <trkpt lat="40.877378024160862" lon="-8.560680029913783">
        <ele>104.44</ele>
        <time>2025-05-04T07:18:05Z</time>
      </trkpt>
      <trkpt lat="40.87434402666986" lon="-8.560448018833995">
        <ele>104.44</ele>
        <time>2025-05-04T07:18:16Z</time>
      </trkpt>
      <trkpt lat="40.871320003643632" lon="-8.560193041339517">
        <ele>106.84</ele>
        <time>2025-05-04T07:18:27Z</time>
      </trkpt>
      <trkpt lat="40.86884499527514" lon="-8.559819962829351">
        <ele>107.81</ele>
        <time>2025-05-04T07:18:36Z</time>
      </trkpt>
      <trkpt lat="40.865833964198828" lon="-8.559116972610354">
        <ele>111.17</ele>
        <time>2025-05-04T07:18:47Z</time>
      </trkpt>
      <trkpt lat="40.863701021298766" lon="-8.55837500654161">
        <ele>110.20999999999999</ele>
        <time>2025-05-04T07:18:55Z</time>
      </trkpt>
      <trkpt lat="40.861066002398729" lon="-8.55721402913332">
        <ele>111.65000000000001</ele>
        <time>2025-05-04T07:19:05Z</time>
      </trkpt>
      <trkpt lat="40.85818799212575" lon="-8.555889017879963">
        <ele>110.20999999999999</ele>
        <time>2025-05-04T07:19:16Z</time>
      </trkpt>
      <trkpt lat="40.856552012264729" lon="-8.55551702901721">
        <ele>109.25</ele>
        <time>2025-05-04T07:19:22Z</time>
      </trkpt>
      <trkpt lat="40.854615038260818" lon="-8.555591041222215">
        <ele>107.81</ele>
        <time>2025-05-04T07:19:29Z</time>
      </trkpt>
      <trkpt lat="40.85247497074306" lon="-8.556310962885618">
        <ele>104.44</ele>
        <time>2025-05-04T07:19:37Z</time>
      </trkpt>
      <trkpt lat="40.850116973742843" lon="-8.557270020246506">
        <ele>100.59999999999999</ele>
        <time>2025-05-04T07:19:46Z</time>
      </trkpt>
      <trkpt lat="40.848210006952286" lon="-8.557606972754002">
        <ele>96.75</ele>
        <time>2025-05-04T07:19:53Z</time>
      </trkpt>
      <trkpt lat="40.846272027119994" lon="-8.557448973879218">
        <ele>95.310000000000002</ele>
        <time>2025-05-04T07:20:00Z</time>
      </trkpt>
      <trkpt lat="40.843872036784887" lon="-8.556550014764071">
        <ele>91.459999999999994</ele>
        <time>2025-05-04T07:20:09Z</time>
      </trkpt>
      <trkpt lat="40.840666964650154" lon="-8.55539096519351">
        <ele>85.689999999999998</ele>
        <time>2025-05-04T07:20:21Z</time>
      </trkpt>
      <trkpt lat="40.838488005101681" lon="-8.555021993815899">
        <ele>84.730000000000004</ele>
        <time>2025-05-04T07:20:29Z</time>
      </trkpt>
      <trkpt lat="40.83655203692615" lon="-8.554943958297372">
        <ele>85.209999999999994</ele>
        <time>2025-05-04T07:20:36Z</time>
      </trkpt>
      <trkpt lat="40.833510998636484" lon="-8.554899031296372">
        <ele>86.180000000000007</ele>
        <time>2025-05-04T07:20:47Z</time>
      </trkpt>
      <trkpt lat="40.830483036115766" lon="-8.554640030488372">
        <ele>81.849999999999994</ele>
        <time>2025-05-04T07:20:58Z</time>
      </trkpt>
      <trkpt lat="40.828294018283486" lon="-8.554236022755504">
        <ele>79.450000000000003</ele>
        <time>2025-05-04T07:21:06Z</time>
      </trkpt>
      <trkpt lat="40.825862009078264" lon="-8.553621964529157">
        <ele>76.079999999999998</ele>
        <time>2025-05-04T07:21:15Z</time>
      </trkpt>
      <trkpt lat="40.823192037642002" lon="-8.55263901874423">
        <ele>77.519999999999996</ele>
        <time>2025-05-04T07:21:25Z</time>
      </trkpt>
      <trkpt lat="40.820057960227132" lon="-8.551161959767342">
        <ele>76.079999999999998</ele>
        <time>2025-05-04T07:21:37Z</time>
      </trkpt>
      <trkpt lat="40.817713961005211" lon="-8.550034007057548">
        <ele>73.200000000000003</ele>
        <time>2025-05-04T07:21:46Z</time>
      </trkpt>
      <trkpt lat="40.814790017902851" lon="-8.54898601770401">
        <ele>73.680000000000007</ele>
        <time>2025-05-04T07:21:57Z</time>
      </trkpt>
      <trkpt lat="40.812337975949049" lon="-8.548418981954455">
        <ele>75.599999999999994</ele>
        <time>2025-05-04T07:22:06Z</time>
      </trkpt>
      <trkpt lat="40.810123980045319" lon="-8.548185965046287">
        <ele>76.560000000000002</ele>
        <time>2025-05-04T07:22:14Z</time>
      </trkpt>
      <trkpt lat="40.807909984141588" lon="-8.548188982531428">
        <ele>75.599999999999994</ele>
        <time>2025-05-04T07:22:22Z</time>
      </trkpt>
      <trkpt lat="40.805701017379761" lon="-8.548388974741101">
        <ele>72.719999999999999</ele>
        <time>2025-05-04T07:22:30Z</time>
      </trkpt>
      <trkpt lat="40.802124040201306" lon="-8.548845034092665">
        <ele>68.390000000000001</ele>
        <time>2025-05-04T07:22:43Z</time>
      </trkpt>
      <trkpt lat="40.799660012125969" lon="-8.549174023792148">
        <ele>62.619999999999997</ele>
        <time>2025-05-04T07:22:52Z</time>
      </trkpt>
      <trkpt lat="40.795778017491102" lon="-8.549599992111325">
        <ele>63.100000000000001</ele>
        <time>2025-05-04T07:23:06Z</time>
      </trkpt>
      <trkpt lat="40.79356100410223" lon="-8.549534026533365">
        <ele>61.659999999999997</ele>
        <time>2025-05-04T07:23:14Z</time>
      </trkpt>
      <trkpt lat="40.791096976026893" lon="-8.549042008817196">
        <ele>62.140000000000001</ele>
        <time>2025-05-04T07:23:23Z</time>
      </trkpt>
      <trkpt lat="40.788719030097127" lon="-8.54808303527534">
        <ele>62.140000000000001</ele>
        <time>2025-05-04T07:23:32Z</time>
      </trkpt>
      <trkpt lat="40.785399964079261" lon="-8.546297019347549">
        <ele>65.030000000000001</ele>
        <time>2025-05-04T07:23:45Z</time>
      </trkpt>
      <trkpt lat="40.782526982948184" lon="-8.544940995052457">
        <ele>69.349999999999994</ele>
        <time>2025-05-04T07:23:56Z</time>
      </trkpt>
      <trkpt lat="40.782267982140183" lon="-8.544843010604382">
        <ele>69.349999999999994</ele>
        <time>2025-05-04T07:23:57Z</time>
      </trkpt>
      <trkpt lat="40.782006969675422" lon="-8.544747959822416">
        <ele>69.829999999999998</ele>
        <time>2025-05-04T07:23:58Z</time>
      </trkpt>
      <trkpt lat="40.779559034854174" lon="-8.544018985703588">
        <ele>72.719999999999999</ele>
        <time>2025-05-04T07:24:07Z</time>
      </trkpt>
      <trkpt lat="40.777370017021894" lon="-8.543640039861202">
        <ele>77.040000000000006</ele>
        <time>2025-05-04T07:24:15Z</time>
      </trkpt>
      <trkpt lat="40.775345033034682" lon="-8.543497966602445">
        <ele>78.480000000000004</ele>
        <time>2025-05-04T07:24:22Z</time>
      </trkpt>
      <trkpt lat="40.7717539742589" lon="-8.543666023761034">
        <ele>78.480000000000004</ele>
        <time>2025-05-04T07:24:34Z</time>
      </trkpt>
      <trkpt lat="40.769062964245677" lon="-8.543806001543999">
        <ele>77.040000000000006</ele>
        <time>2025-05-04T07:24:43Z</time>
      </trkpt>
      <trkpt lat="40.767001016065478" lon="-8.543363017961383">
        <ele>73.680000000000007</ele>
        <time>2025-05-04T07:24:50Z</time>
      </trkpt>
      <trkpt lat="40.765057001262903" lon="-8.542321985587478">
        <ele>66.950000000000003</ele>
        <time>2025-05-04T07:24:57Z</time>
      </trkpt>
      <trkpt lat="40.762821966782212" lon="-8.540877029299736">
        <ele>61.659999999999997</ele>
        <time>2025-05-04T07:25:06Z</time>
      </trkpt>
      <trkpt lat="40.761224962770939" lon="-8.539844965562224">
        <ele>59.259999999999998</ele>
        <time>2025-05-04T07:25:15Z</time>
      </trkpt>
      <trkpt lat="40.759130995720625" lon="-8.538495982065797">
        <ele>58.299999999999997</ele>
        <time>2025-05-04T07:25:27Z</time>
      </trkpt>
      <trkpt lat="40.756722036749125" lon="-8.536948012188077">
        <ele>62.619999999999997</ele>
        <time>2025-05-04T07:25:39Z</time>
      </trkpt>
      <trkpt lat="40.75460996478796" lon="-8.535571033135057">
        <ele>66.469999999999999</ele>
        <time>2025-05-04T07:25:47Z</time>
      </trkpt>
      <trkpt lat="40.751666994765401" lon="-8.533617965877056">
        <ele>68.870000000000005</ele>
        <time>2025-05-04T07:25:58Z</time>
      </trkpt>
      <trkpt lat="40.74857197701931" lon="-8.531267009675503">
        <ele>73.200000000000003</ele>
        <time>2025-05-04T07:26:10Z</time>
      </trkpt>
      <trkpt lat="40.746709015220404" lon="-8.529817024245858">
        <ele>73.200000000000003</ele>
        <time>2025-05-04T07:26:18Z</time>
      </trkpt>
      <trkpt lat="40.745088960975409" lon="-8.528679013252258">
        <ele>72.719999999999999</ele>
        <time>2025-05-04T07:26:24Z</time>
      </trkpt>
      <trkpt lat="40.743569992482662" lon="-8.527691038325429">
        <ele>70.790000000000006</ele>
        <time>2025-05-04T07:26:30Z</time>
      </trkpt>
      <trkpt lat="40.742127969861031" lon="-8.526885034516454">
        <ele>69.829999999999998</ele>
        <time>2025-05-04T07:26:36Z</time>
      </trkpt>
      <trkpt lat="40.739361019805074" lon="-8.525480981916189">
        <ele>68.390000000000001</ele>
        <time>2025-05-04T07:26:46Z</time>
      </trkpt>
      <trkpt lat="40.736498013138771" lon="-8.524315981194377">
        <ele>72.719999999999999</ele>
        <time>2025-05-04T07:26:56Z</time>
      </trkpt>
      <trkpt lat="40.73271400295198" lon="-8.523201020434499">
        <ele>80.409999999999997</ele>
        <time>2025-05-04T07:27:09Z</time>
      </trkpt>
      <trkpt lat="40.73035198263824" lon="-8.522735992446542">
        <ele>85.209999999999994</ele>
        <time>2025-05-04T07:27:17Z</time>
      </trkpt>
      <trkpt lat="40.726463031023741" lon="-8.522313041612506">
        <ele>91.939999999999998</ele>
        <time>2025-05-04T07:27:30Z</time>
      </trkpt>
      <trkpt lat="40.72362701408565" lon="-8.52227901108563">
        <ele>96.269999999999996</ele>
        <time>2025-05-04T07:27:40Z</time>
      </trkpt>
      <trkpt lat="40.71948098950088" lon="-8.522460982203484">
        <ele>100.59999999999999</ele>
        <time>2025-05-04T07:27:55Z</time>
      </trkpt>
      <trkpt lat="40.715613998472691" lon="-8.522264007478952">
        <ele>103.48</ele>
        <time>2025-05-04T07:28:09Z</time>
      </trkpt>
      <trkpt lat="40.711759999394417" lon="-8.521826975047588">
        <ele>106.36</ele>
        <time>2025-05-04T07:28:23Z</time>
      </trkpt>
      <trkpt lat="40.70790097117424" lon="-8.521778024733067">
        <ele>108.29000000000001</ele>
        <time>2025-05-04T07:28:37Z</time>
      </trkpt>
      <trkpt lat="40.704876026138663" lon="-8.522241963073611">
        <ele>109.25</ele>
        <time>2025-05-04T07:28:48Z</time>
      </trkpt>
      <trkpt lat="40.701028984040022" lon="-8.522989964112639">
        <ele>107.81</ele>
        <time>2025-05-04T07:29:02Z</time>
      </trkpt>
      <trkpt lat="40.697719976305962" lon="-8.523180987685919">
        <ele>105.88</ele>
        <time>2025-05-04T07:29:14Z</time>
      </trkpt>
      <trkpt lat="40.694978004321456" lon="-8.522963980212808">
        <ele>106.84</ele>
        <time>2025-05-04T07:29:24Z</time>
      </trkpt>
      <trkpt lat="40.691403038799763" lon="-8.522102991119027">
        <ele>111.65000000000001</ele>
        <time>2025-05-04T07:29:37Z</time>
      </trkpt>
      <trkpt lat="40.688264016062021" lon="-8.520822990685701">
        <ele>117.42</ele>
        <time>2025-05-04T07:29:48Z</time>
      </trkpt>
      <trkpt lat="40.684914020821452" lon="-8.519094977527857">
        <ele>116.45999999999999</ele>
        <time>2025-05-04T07:30:00Z</time>
      </trkpt>
      <trkpt lat="40.682857017964125" lon="-8.518631039187312">
        <ele>111.17</ele>
        <time>2025-05-04T07:30:07Z</time>
      </trkpt>
      <trkpt lat="40.68076497875154" lon="-8.518855003640056">
        <ele>103.95999999999999</ele>
        <time>2025-05-04T07:30:14Z</time>
      </trkpt>
      <trkpt lat="40.678413016721606" lon="-8.519447017461062">
        <ele>99.629999999999995</ele>
        <time>2025-05-04T07:30:22Z</time>
      </trkpt>
      <trkpt lat="40.676040016114712" lon="-8.519716998562217">
        <ele>94.349999999999994</ele>
        <time>2025-05-04T07:30:30Z</time>
      </trkpt>
      <trkpt lat="40.673370966687799" lon="-8.519344003871083">
        <ele>90.980000000000004</ele>
        <time>2025-05-04T07:30:39Z</time>
      </trkpt>
      <trkpt lat="40.67081599496305" lon="-8.518315963447094">
        <ele>87.620000000000005</ele>
        <time>2025-05-04T07:30:48Z</time>
      </trkpt>
      <trkpt lat="40.667717037722468" lon="-8.516659028828144">
        <ele>87.140000000000001</ele>
        <time>2025-05-04T07:31:00Z</time>
      </trkpt>
      <trkpt lat="40.664101000875235" lon="-8.514886004850268">
        <ele>90.5</ele>
        <time>2025-05-04T07:31:14Z</time>
      </trkpt>
      <trkpt lat="40.662163021042943" lon="-8.51463102735579">
        <ele>92.420000000000002</ele>
        <time>2025-05-04T07:31:21Z</time>
      </trkpt>
      <trkpt lat="40.660255970433354" lon="-8.514990024268627">
        <ele>90.980000000000004</ele>
        <time>2025-05-04T07:31:28Z</time>
      </trkpt>
      <trkpt lat="40.658459980040789" lon="-8.515935000032187">
        <ele>89.540000000000006</ele>
        <time>2025-05-04T07:31:35Z</time>
      </trkpt>
      <trkpt lat="40.656332988291979" lon="-8.517581038177013">
        <ele>89.540000000000006</ele>
        <time>2025-05-04T07:31:44Z</time>
      </trkpt>
      <trkpt lat="40.654506990686059" lon="-8.518406990915537">
        <ele>90.019999999999996</ele>
        <time>2025-05-04T07:31:51Z</time>
      </trkpt>
      <trkpt lat="40.652299029752612" lon="-8.518641013652086">
        <ele>88.579999999999998</ele>
        <time>2025-05-04T07:31:59Z</time>
      </trkpt>
      <trkpt lat="40.649530990049243" lon="-8.518823990598321">
        <ele>85.209999999999994</ele>
        <time>2025-05-04T07:32:09Z</time>
      </trkpt>
      <trkpt lat="40.647682026028633" lon="-8.51946797221899">
        <ele>83.290000000000006</ele>
        <time>2025-05-04T07:32:16Z</time>
      </trkpt>
      <trkpt lat="40.645668022334576" lon="-8.52069198153913">
        <ele>79.930000000000007</ele>
        <time>2025-05-04T07:32:24Z</time>
      </trkpt>
      <trkpt lat="40.643015988171101" lon="-8.522653011605144">
        <ele>72.719999999999999</ele>
        <time>2025-05-04T07:32:35Z</time>
      </trkpt>
      <trkpt lat="40.640440983697772" lon="-8.523944998160005">
        <ele>65.989999999999995</ele>
        <time>2025-05-04T07:32:45Z</time>
      </trkpt>
      <trkpt lat="40.63755702227354" lon="-8.525192979723215">
        <ele>61.659999999999997</ele>
        <time>2025-05-04T07:32:56Z</time>
      </trkpt>
      <trkpt lat="40.635241018608212" lon="-8.526708008721471">
        <ele>59.259999999999998</ele>
        <time>2025-05-04T07:33:05Z</time>
      </trkpt>
      <trkpt lat="40.633330028504133" lon="-8.528442978858948">
        <ele>55.409999999999997</ele>
        <time>2025-05-04T07:33:13Z</time>
      </trkpt>
      <trkpt lat="40.631061969324946" lon="-8.531399024650455">
        <ele>42.439999999999998</ele>
        <time>2025-05-04T07:33:24Z</time>
      </trkpt>
      <trkpt lat="40.629191966727376" lon="-8.533756015822291">
        <ele>30.899999999999999</ele>
        <time>2025-05-04T07:33:33Z</time>
      </trkpt>
      <trkpt lat="40.627467976883054" lon="-8.535155961290002">
        <ele>23.690000000000001</ele>
        <time>2025-05-04T07:33:40Z</time>
      </trkpt>
      <trkpt lat="40.625318018719554" lon="-8.536238986998797">
        <ele>16</ele>
        <time>2025-05-04T07:33:48Z</time>
      </trkpt>
      <trkpt lat="40.622112024575472" lon="-8.537861974909902">
        <ele>10.710000000000001</ele>
        <time>2025-05-04T07:34:00Z</time>
      </trkpt>
      <trkpt lat="40.618752976879478" lon="-8.540058033540845">
        <ele>14.08</ele>
        <time>2025-05-04T07:34:13Z</time>
      </trkpt>
      <trkpt lat="40.616078982129693" lon="-8.542327014729381">
        <ele>17.920000000000002</ele>
        <time>2025-05-04T07:34:24Z</time>
      </trkpt>
      <trkpt lat="40.613577989861369" lon="-8.544893972575665">
        <ele>27.050000000000001</ele>
        <time>2025-05-04T07:34:35Z</time>
      </trkpt>
      <trkpt lat="40.611315965652466" lon="-8.547231014817953">
        <ele>34.740000000000002</ele>
        <time>2025-05-04T07:34:45Z</time>
      </trkpt>
      <trkpt lat="40.608774991706014" lon="-8.549059024080634">
        <ele>42.920000000000002</ele>
        <time>2025-05-04T07:34:55Z</time>
      </trkpt>
      <trkpt lat="40.605556005612016" lon="-8.550793994218111">
        <ele>50.609999999999999</ele>
        <time>2025-05-04T07:35:07Z</time>
      </trkpt>
      <trkpt lat="40.603277971968055" lon="-8.552413964644074">
        <ele>52.530000000000001</ele>
        <time>2025-05-04T07:35:16Z</time>
      </trkpt>
      <trkpt lat="40.601016031578183" lon="-8.554758969694376">
        <ele>53.490000000000002</ele>
        <time>2025-05-04T07:35:26Z</time>
      </trkpt>
      <trkpt lat="40.599147034808993" lon="-8.557105986401439">
        <ele>55.409999999999997</ele>
        <time>2025-05-04T07:35:35Z</time>
      </trkpt>
      <trkpt lat="40.597275020554662" lon="-8.55889099650085">
        <ele>59.740000000000002</ele>
        <time>2025-05-04T07:35:43Z</time>
      </trkpt>
      <trkpt lat="40.59518801048398" lon="-8.560184994712472">
        <ele>66.469999999999999</ele>
        <time>2025-05-04T07:35:51Z</time>
      </trkpt>
      <trkpt lat="40.593221029266715" lon="-8.560874992981553">
        <ele>71.760000000000005</ele>
        <time>2025-05-04T07:35:58Z</time>
      </trkpt>
      <trkpt lat="40.590629009529948" lon="-8.561054030433297">
        <ele>70.790000000000006</ele>
        <time>2025-05-04T07:36:07Z</time>
      </trkpt>
      <trkpt lat="40.588050987571478" lon="-8.560581961646676">
        <ele>64.549999999999997</ele>
        <time>2025-05-04T07:36:16Z</time>
      </trkpt>
      <trkpt lat="40.585160991176963" lon="-8.560217013582587">
        <ele>55.409999999999997</ele>
        <time>2025-05-04T07:36:26Z</time>
      </trkpt>
      <trkpt lat="40.582577018067241" lon="-8.560601994395256">
        <ele>47.719999999999999</ele>
        <time>2025-05-04T07:36:35Z</time>
      </trkpt>
      <trkpt lat="40.579215958714485" lon="-8.561665993183851">
        <ele>43.399999999999999</ele>
        <time>2025-05-04T07:36:47Z</time>
      </trkpt>
      <trkpt lat="40.576911019161344" lon="-8.561875959858298">
        <ele>39.549999999999997</ele>
        <time>2025-05-04T07:36:55Z</time>
      </trkpt>
      <trkpt lat="40.575177976861596" lon="-8.561645960435271">
        <ele>37.149999999999999</ele>
        <time>2025-05-04T07:37:01Z</time>
      </trkpt>
      <trkpt lat="40.572364004328847" lon="-8.560791006311774">
        <ele>27.530000000000001</ele>
        <time>2025-05-04T07:37:11Z</time>
      </trkpt>
      <trkpt lat="40.570083959028125" lon="-8.560434021055698">
        <ele>22.73</ele>
        <time>2025-05-04T07:37:19Z</time>
      </trkpt>
      <trkpt lat="40.567490011453629" lon="-8.56063099578023">
        <ele>19.84</ele>
        <time>2025-05-04T07:37:28Z</time>
      </trkpt>
      <trkpt lat="40.563190011307597" lon="-8.561302972957492">
        <ele>19.84</ele>
        <time>2025-05-04T07:37:43Z</time>
      </trkpt>
      <trkpt lat="40.55971797555685" lon="-8.561291992664337">
        <ele>27.530000000000001</ele>
        <time>2025-05-04T07:37:55Z</time>
      </trkpt>
      <trkpt lat="40.556294973939657" lon="-8.560699978843331">
        <ele>37.149999999999999</ele>
        <time>2025-05-04T07:38:07Z</time>
      </trkpt>
      <trkpt lat="40.552843976765871" lon="-8.56003001332283">
        <ele>40.990000000000002</ele>
        <time>2025-05-04T07:38:19Z</time>
      </trkpt>
      <trkpt lat="40.550545994192362" lon="-8.560103019699454">
        <ele>38.109999999999999</ele>
        <time>2025-05-04T07:38:27Z</time>
      </trkpt>
      <trkpt lat="40.548020023852587" lon="-8.560838028788567">
        <ele>36.189999999999998</ele>
        <time>2025-05-04T07:38:36Z</time>
      </trkpt>
      <trkpt lat="40.545704020187259" lon="-8.561746040359139">
        <ele>39.549999999999997</ele>
        <time>2025-05-04T07:38:45Z</time>
      </trkpt>
      <trkpt lat="40.543729998171329" lon="-8.562031025066972">
        <ele>47.240000000000002</ele>
        <time>2025-05-04T07:38:52Z</time>
      </trkpt>
      <trkpt lat="40.541424974799156" lon="-8.561669010668993">
        <ele>56.369999999999997</ele>
        <time>2025-05-04T07:39:00Z</time>
      </trkpt>
      <trkpt lat="40.539803998544812" lon="-8.560894019901753">
        <ele>60.700000000000003</ele>
        <time>2025-05-04T07:39:06Z</time>
      </trkpt>
      <trkpt lat="40.53803700953722" lon="-8.559589041396976">
        <ele>60.700000000000003</ele>
        <time>2025-05-04T07:39:13Z</time>
      </trkpt>
      <trkpt lat="40.535011980682611" lon="-8.557353001087904">
        <ele>53.969999999999999</ele>
        <time>2025-05-04T07:39:25Z</time>
      </trkpt>
      <trkpt lat="40.532092982903123" lon="-8.555717021226883">
        <ele>47.240000000000002</ele>
        <time>2025-05-04T07:39:36Z</time>
      </trkpt>
      <trkpt lat="40.529317986220121" lon="-8.55463701300323">
        <ele>43.399999999999999</ele>
        <time>2025-05-04T07:39:46Z</time>
      </trkpt>
      <trkpt lat="40.525720976293087" lon="-8.553355000913143">
        <ele>49.649999999999999</ele>
        <time>2025-05-04T07:39:59Z</time>
      </trkpt>
      <trkpt lat="40.523288967087865" lon="-8.552109031006694">
        <ele>54.450000000000003</ele>
        <time>2025-05-04T07:40:08Z</time>
      </trkpt>
      <trkpt lat="40.520976986736059" lon="-8.550499035045505">
        <ele>57.340000000000003</ele>
        <time>2025-05-04T07:40:17Z</time>
      </trkpt>
      <trkpt lat="40.518401982262731" lon="-8.548069037497044">
        <ele>55.890000000000001</ele>
        <time>2025-05-04T07:40:28Z</time>
      </trkpt>
      <trkpt lat="40.515930997207761" lon="-8.544899001717567">
        <ele>56.369999999999997</ele>
        <time>2025-05-04T07:40:40Z</time>
      </trkpt>
      <trkpt lat="40.513839041814208" lon="-8.541265027597547">
        <ele>59.740000000000002</ele>
        <time>2025-05-04T07:40:52Z</time>
      </trkpt>
      <trkpt lat="40.511897960677743" lon="-8.537974040955305">
        <ele>60.219999999999999</ele>
        <time>2025-05-04T07:41:03Z</time>
      </trkpt>
      <trkpt lat="40.50999803468585" lon="-8.535648984834552">
        <ele>61.659999999999997</ele>
        <time>2025-05-04T07:41:12Z</time>
      </trkpt>
      <trkpt lat="40.507814968004823" lon="-8.533794991672039">
        <ele>61.659999999999997</ele>
        <time>2025-05-04T07:41:21Z</time>
      </trkpt>
      <trkpt lat="40.505146002396941" lon="-8.53235699236393">
        <ele>57.340000000000003</ele>
        <time>2025-05-04T07:41:31Z</time>
      </trkpt>
      <trkpt lat="40.502605028450489" lon="-8.531632041558623">
        <ele>51.090000000000003</ele>
        <time>2025-05-04T07:41:40Z</time>
      </trkpt>
      <trkpt lat="40.500016026198864" lon="-8.531382009387016">
        <ele>46.280000000000001</ele>
        <time>2025-05-04T07:41:49Z</time>
      </trkpt>
      <trkpt lat="40.498000010848045" lon="-8.531124014407396">
        <ele>44.359999999999999</ele>
        <time>2025-05-04T07:41:56Z</time>
      </trkpt>
      <trkpt lat="40.495494995266199" lon="-8.530190018936992">
        <ele>39.07</ele>
        <time>2025-05-04T07:42:05Z</time>
      </trkpt>
      <trkpt lat="40.493165999650955" lon="-8.528697034344077">
        <ele>39.07</ele>
        <time>2025-05-04T07:42:14Z</time>
      </trkpt>
      <trkpt lat="40.490444982424378" lon="-8.526526959612966">
        <ele>48.68</ele>
        <time>2025-05-04T07:42:25Z</time>
      </trkpt>
      <trkpt lat="40.487894034013152" lon="-8.524800036102533">
        <ele>54.93</ele>
        <time>2025-05-04T07:42:35Z</time>
      </trkpt>
      <trkpt lat="40.484661972150207" lon="-8.523181993514299">
        <ele>67.430000000000007</ele>
        <time>2025-05-04T07:42:47Z</time>
      </trkpt>
      <trkpt lat="40.48155496828258" lon="-8.522214973345399">
        <ele>75.599999999999994</ele>
        <time>2025-05-04T07:42:58Z</time>
      </trkpt>
      <trkpt lat="40.478105982765555" lon="-8.521693032234907">
        <ele>80.409999999999997</ele>
        <time>2025-05-04T07:43:10Z</time>
      </trkpt>
      <trkpt lat="40.47463595867157" lon="-8.521702000871301">
        <ele>79.930000000000007</ele>
        <time>2025-05-04T07:43:22Z</time>
      </trkpt>
      <trkpt lat="40.470606023445725" lon="-8.52174298837781">
        <ele>83.290000000000006</ele>
        <time>2025-05-04T07:43:36Z</time>
      </trkpt>
      <trkpt lat="40.468322960659862" lon="-8.52146596647799">
        <ele>86.180000000000007</ele>
        <time>2025-05-04T07:43:44Z</time>
      </trkpt>
      <trkpt lat="40.464914962649345" lon="-8.520567007362843">
        <ele>87.140000000000001</ele>
        <time>2025-05-04T07:43:56Z</time>
      </trkpt>
      <trkpt lat="40.46155096963048" lon="-8.519398989155889">
        <ele>88.579999999999998</ele>
        <time>2025-05-04T07:44:08Z</time>
      </trkpt>
      <trkpt lat="40.459301015362144" lon="-8.518666997551918">
        <ele>93.390000000000001</ele>
        <time>2025-05-04T07:44:16Z</time>
      </trkpt>
      <trkpt lat="40.455881031230092" lon="-8.517969036474824">
        <ele>98.189999999999998</ele>
        <time>2025-05-04T07:44:28Z</time>
      </trkpt>
      <trkpt lat="40.452402960509062" lon="-8.517719004303217">
        <ele>99.150000000000006</ele>
        <time>2025-05-04T07:44:40Z</time>
      </trkpt>
      <trkpt lat="40.449799038469791" lon="-8.517612973228097">
        <ele>95.790000000000006</ele>
        <time>2025-05-04T07:44:49Z</time>
      </trkpt>
      <trkpt lat="40.446649035438895" lon="-8.517187004908919">
        <ele>91.939999999999998</ele>
        <time>2025-05-04T07:45:00Z</time>
      </trkpt>
      <trkpt lat="40.443856017664075" lon="-8.516219984740019">
        <ele>90.980000000000004</ele>
        <time>2025-05-04T07:45:10Z</time>
      </trkpt>
      <trkpt lat="40.441469019278884" lon="-8.514854991808534">
        <ele>90.5</ele>
        <time>2025-05-04T07:45:19Z</time>
      </trkpt>
      <trkpt lat="40.439261980354786" lon="-8.513051960617304">
        <ele>90.980000000000004</ele>
        <time>2025-05-04T07:45:28Z</time>
      </trkpt>
      <trkpt lat="40.437241019681096" lon="-8.510853974148631">
        <ele>91.939999999999998</ele>
        <time>2025-05-04T07:45:37Z</time>
      </trkpt>
      <trkpt lat="40.433638980612159" lon="-8.506505023688078">
        <ele>89.540000000000006</ele>
        <time>2025-05-04T07:45:54Z</time>
      </trkpt>
      <trkpt lat="40.431245025247335" lon="-8.503780988976359">
        <ele>92.900000000000006</ele>
        <time>2025-05-04T07:46:05Z</time>
      </trkpt>
      <trkpt lat="40.428629033267498" lon="-8.501432966440916">
        <ele>93.390000000000001</ele>
        <time>2025-05-04T07:46:16Z</time>
      </trkpt>
      <trkpt lat="40.425564022734761" lon="-8.499338999390602">
        <ele>99.150000000000006</ele>
        <time>2025-05-04T07:46:28Z</time>
      </trkpt>
      <trkpt lat="40.422844011336565" lon="-8.498000996187329">
        <ele>106.84</ele>
        <time>2025-05-04T07:46:38Z</time>
      </trkpt>
      <trkpt lat="40.420055016875267" lon="-8.497018972411752">
        <ele>109.25</ele>
        <time>2025-05-04T07:46:48Z</time>
      </trkpt>
      <trkpt lat="40.415845960378647" lon="-8.495642999187112">
        <ele>108.29000000000001</ele>
        <time>2025-05-04T07:47:03Z</time>
      </trkpt>
      <trkpt lat="40.412841970100999" lon="-8.494237018749118">
        <ele>103</ele>
        <time>2025-05-04T07:47:14Z</time>
      </trkpt>
      <trkpt lat="40.409606974571943" lon="-8.492572959512472">
        <ele>91.939999999999998</ele>
        <time>2025-05-04T07:47:26Z</time>
      </trkpt>
      <trkpt lat="40.406802976503968" lon="-8.491647010669112">
        <ele>80.890000000000001</ele>
        <time>2025-05-04T07:47:36Z</time>
      </trkpt>
      <trkpt lat="40.40392798371613" lon="-8.49132196046412">
        <ele>69.349999999999994</ele>
        <time>2025-05-04T07:47:46Z</time>
      </trkpt>
      <trkpt lat="40.400475980713964" lon="-8.491149041801691">
        <ele>61.18</ele>
        <time>2025-05-04T07:47:58Z</time>
      </trkpt>
      <trkpt lat="40.397639041766524" lon="-8.490473963320255">
        <ele>61.659999999999997</ele>
        <time>2025-05-04T07:48:08Z</time>
      </trkpt>
      <trkpt lat="40.395381962880492" lon="-8.489765021950007">
        <ele>61.18</ele>
        <time>2025-05-04T07:48:16Z</time>
      </trkpt>
      <trkpt lat="40.392242018133402" lon="-8.48910503089428">
        <ele>63.579999999999998</ele>
        <time>2025-05-04T07:48:27Z</time>
      </trkpt>
      <trkpt lat="40.389356967061758" lon="-8.489031018689275">
        <ele>65.510000000000005</ele>
        <time>2025-05-04T07:48:37Z</time>
      </trkpt>
      <trkpt lat="40.386488009244204" lon="-8.489458998665214">
        <ele>67.430000000000007</ele>
        <time>2025-05-04T07:48:47Z</time>
      </trkpt>
      <trkpt lat="40.383411012589931" lon="-8.490513022989035">
        <ele>68.390000000000001</ele>
        <time>2025-05-04T07:48:58Z</time>
      </trkpt>
      <trkpt lat="40.383128961548209" lon="-8.490635985508561">
        <ele>68.390000000000001</ele>
        <time>2025-05-04T07:48:59Z</time>
      </trkpt>
      <trkpt lat="40.379013027995825" lon="-8.492362992838025">
        <ele>72.719999999999999</ele>
        <time>2025-05-04T07:49:14Z</time>
      </trkpt>
      <trkpt lat="40.376186985522509" lon="-8.49316799081862">
        <ele>73.680000000000007</ele>
        <time>2025-05-04T07:49:24Z</time>
      </trkpt>
      <trkpt lat="40.373029019683599" lon="-8.493628995493054">
        <ele>74.640000000000001</ele>
        <time>2025-05-04T07:49:35Z</time>
      </trkpt>
      <trkpt lat="40.36957198753953" lon="-8.493480971083045">
        <ele>78.480000000000004</ele>
        <time>2025-05-04T07:49:47Z</time>
      </trkpt>
      <trkpt lat="40.365265030413866" lon="-8.492802958935499">
        <ele>89.060000000000002</ele>
        <time>2025-05-04T07:50:02Z</time>
      </trkpt>
      <trkpt lat="40.363249015063047" lon="-8.492576982825995">
        <ele>93.870000000000005</ele>
        <time>2025-05-04T07:50:09Z</time>
      </trkpt>
      <trkpt lat="40.360362958163023" lon="-8.492791978642345">
        <ele>95.790000000000006</ele>
        <time>2025-05-04T07:50:19Z</time>
      </trkpt>
      <trkpt lat="40.357234999537468" lon="-8.493612986057997">
        <ele>93.390000000000001</ele>
        <time>2025-05-04T07:50:30Z</time>
      </trkpt>
      <trkpt lat="40.353278992697597" lon="-8.494666004553437">
        <ele>91.939999999999998</ele>
        <time>2025-05-04T07:50:44Z</time>
      </trkpt>
      <trkpt lat="40.351250991225243" lon="-8.494830960407853">
        <ele>90.980000000000004</ele>
        <time>2025-05-04T07:50:51Z</time>
      </trkpt>
      <trkpt lat="40.347235975787044" lon="-8.494959035888314">
        <ele>99.629999999999995</ele>
        <time>2025-05-04T07:51:05Z</time>
      </trkpt>
      <trkpt lat="40.343513991683722" lon="-8.495606034994125">
        <ele>114.53</ele>
        <time>2025-05-04T07:51:18Z</time>
      </trkpt>
      <trkpt lat="40.340617960318923" lon="-8.495587008073926">
        <ele>123.19</ele>
        <time>2025-05-04T07:51:28Z</time>
      </trkpt>
      <trkpt lat="40.3380530141294" lon="-8.495019972324371">
        <ele>125.11</ele>
        <time>2025-05-04T07:51:37Z</time>
      </trkpt>
      <trkpt lat="40.33358596265316" lon="-8.493432020768523">
        <ele>119.34</ele>
        <time>2025-05-04T07:51:53Z</time>
      </trkpt>
      <trkpt lat="40.33072697930038" lon="-8.492845958098769">
        <ele>111.65000000000001</ele>
        <time>2025-05-04T07:52:03Z</time>
      </trkpt>
      <trkpt lat="40.328420028090477" lon="-8.492755014449358">
        <ele>108.29000000000001</ele>
        <time>2025-05-04T07:52:11Z</time>
      </trkpt>
      <trkpt lat="40.324364025145769" lon="-8.492491990327835">
        <ele>94.349999999999994</ele>
        <time>2025-05-04T07:52:25Z</time>
      </trkpt>
      <trkpt lat="40.321250986307859" lon="-8.491674000397325">
        <ele>80.409999999999997</ele>
        <time>2025-05-04T07:52:36Z</time>
      </trkpt>
      <trkpt lat="40.318194022402167" lon="-8.49050497636199">
        <ele>66.950000000000003</ele>
        <time>2025-05-04T07:52:47Z</time>
      </trkpt>
      <trkpt lat="40.315651036798954" lon="-8.489844985306263">
        <ele>60.700000000000003</ele>
        <time>2025-05-04T07:52:56Z</time>
      </trkpt>
      <trkpt lat="40.312780989333987" lon="-8.48957902751863">
        <ele>60.700000000000003</ele>
        <time>2025-05-04T07:53:06Z</time>
      </trkpt>
      <trkpt lat="40.30962897464633" lon="-8.489049961790443">
        <ele>67.909999999999997</ele>
        <time>2025-05-04T07:53:17Z</time>
      </trkpt>
      <trkpt lat="40.307123037055135" lon="-8.488065004348755">
        <ele>69.829999999999998</ele>
        <time>2025-05-04T07:53:26Z</time>
      </trkpt>
      <trkpt lat="40.303820986300707" lon="-8.48667997866869">
        <ele>59.740000000000002</ele>
        <time>2025-05-04T07:53:38Z</time>
      </trkpt>
      <trkpt lat="40.300972983241081" lon="-8.486202964559197">
        <ele>52.049999999999997</ele>
        <time>2025-05-04T07:53:48Z</time>
      </trkpt>
      <trkpt lat="40.297225015237927" lon="-8.486084025353193">
        <ele>54.93</ele>
        <time>2025-05-04T07:54:01Z</time>
      </trkpt>
      <trkpt lat="40.294359996914864" lon="-8.485517995432019">
        <ele>58.299999999999997</ele>
        <time>2025-05-04T07:54:11Z</time>
      </trkpt>
      <trkpt lat="40.291611989960074" lon="-8.484312007203698">
        <ele>57.340000000000003</ele>
        <time>2025-05-04T07:54:21Z</time>
      </trkpt>
      <trkpt lat="40.289333034306765" lon="-8.482672004029155">
        <ele>52.530000000000001</ele>
        <time>2025-05-04T07:54:30Z</time>
      </trkpt>
      <trkpt lat="40.287763020023704" lon="-8.481022026389837">
        <ele>49.159999999999997</ele>
        <time>2025-05-04T07:54:37Z</time>
      </trkpt>
      <trkpt lat="40.285686990246177" lon="-8.478994024917483">
        <ele>48.68</ele>
        <time>2025-05-04T07:54:46Z</time>
      </trkpt>
      <trkpt lat="40.283831991255283" lon="-8.477964978665113">
        <ele>49.649999999999999</ele>
        <time>2025-05-04T07:54:53Z</time>
      </trkpt>
      <trkpt lat="40.281832991167903" lon="-8.477523000910878">
        <ele>47.240000000000002</ele>
        <time>2025-05-04T07:55:00Z</time>
      </trkpt>
      <trkpt lat="40.279816975817084" lon="-8.477656021714211">
        <ele>40.509999999999998</ele>
        <time>2025-05-04T07:55:07Z</time>
      </trkpt>
      <trkpt lat="40.277886036783457" lon="-8.478394970297813">
        <ele>36.670000000000002</ele>
        <time>2025-05-04T07:55:14Z</time>
      </trkpt>
      <trkpt lat="40.27583003975451" lon="-8.479717969894409">
        <ele>39.549999999999997</ele>
        <time>2025-05-04T07:55:22Z</time>
      </trkpt>
      <trkpt lat="40.272929985076189" lon="-8.482157019898295">
        <ele>48.68</ele>
        <time>2025-05-04T07:55:34Z</time>
      </trkpt>
      <trkpt lat="40.271055959165096" lon="-8.483129991218448">
        <ele>55.890000000000001</ele>
        <time>2025-05-04T07:55:41Z</time>
      </trkpt>
      <trkpt lat="40.269056037068367" lon="-8.48350097425282">
        <ele>63.100000000000001</ele>
        <time>2025-05-04T07:55:48Z</time>
      </trkpt>
      <trkpt lat="40.267316959798336" lon="-8.483299976214767">
        <ele>70.310000000000002</ele>
        <time>2025-05-04T07:55:54Z</time>
      </trkpt>
      <trkpt lat="40.264725023880601" lon="-8.483033012598753">
        <ele>73.200000000000003</ele>
        <time>2025-05-04T07:56:03Z</time>
      </trkpt>
      <trkpt lat="40.262443972751498" lon="-8.483470967039466">
        <ele>74.159999999999997</ele>
        <time>2025-05-04T07:56:11Z</time>
      </trkpt>
      <trkpt lat="40.2605339884758" lon="-8.484317036345601">
        <ele>72.719999999999999</ele>
        <time>2025-05-04T07:56:18Z</time>
      </trkpt>
      <trkpt lat="40.258758030831814" lon="-8.485644981265068">
        <ele>73.200000000000003</ele>
        <time>2025-05-04T07:56:25Z</time>
      </trkpt>
      <trkpt lat="40.256714019924402" lon="-8.487034030258656">
        <ele>71.269999999999996</ele>
        <time>2025-05-04T07:56:33Z</time>
      </trkpt>
      <trkpt lat="40.254779979586601" lon="-8.487601988017559">
        <ele>70.310000000000002</ele>
        <time>2025-05-04T07:56:40Z</time>
      </trkpt>
      <trkpt lat="40.25217697955668" lon="-8.487625038251281">
        <ele>71.269999999999996</ele>
        <time>2025-05-04T07:56:49Z</time>
      </trkpt>
      <trkpt lat="40.248704021796584" lon="-8.487835004925728">
        <ele>73.200000000000003</ele>
        <time>2025-05-04T07:57:01Z</time>
      </trkpt>
      <trkpt lat="40.244694035500288" lon="-8.488646959885955">
        <ele>66.469999999999999</ele>
        <time>2025-05-04T07:57:15Z</time>
      </trkpt>
      <trkpt lat="40.242092963308096" lon="-8.488692976534367">
        <ele>58.780000000000001</ele>
        <time>2025-05-04T07:57:24Z</time>
      </trkpt>
      <trkpt lat="40.239515025168657" lon="-8.488122001290321">
        <ele>53.009999999999998</ele>
        <time>2025-05-04T07:57:33Z</time>
      </trkpt>
      <trkpt lat="40.236101998016238" lon="-8.487280961126089">
        <ele>41.950000000000003</ele>
        <time>2025-05-04T07:57:45Z</time>
      </trkpt>
      <trkpt lat="40.232642032206059" lon="-8.486998993903399">
        <ele>32.82</ele>
        <time>2025-05-04T07:57:57Z</time>
      </trkpt>
      <trkpt lat="40.22860798984766" lon="-8.487208960577846">
        <ele>27.530000000000001</ele>
        <time>2025-05-04T07:58:11Z</time>
      </trkpt>
      <trkpt lat="40.224563973024487" lon="-8.4873460046947">
        <ele>28.5</ele>
        <time>2025-05-04T07:58:25Z</time>
      </trkpt>
      <trkpt lat="40.219942023977637" lon="-8.487245002761483">
        <ele>28.98</ele>
        <time>2025-05-04T07:58:41Z</time>
      </trkpt>
      <trkpt lat="40.215613022446632" lon="-8.487118016928434">
        <ele>28.5</ele>
        <time>2025-05-04T07:58:56Z</time>
      </trkpt>
      <trkpt lat="40.212731994688511" lon="-8.487508026883006">
        <ele>29.460000000000001</ele>
        <time>2025-05-04T07:59:06Z</time>
      </trkpt>
      <trkpt lat="40.209339000284672" lon="-8.488429030403495">
        <ele>33.299999999999997</ele>
        <time>2025-05-04T07:59:18Z</time>
      </trkpt>
      <trkpt lat="40.206195032224059" lon="-8.489077035337687">
        <ele>39.07</ele>
        <time>2025-05-04T07:59:29Z</time>
      </trkpt>
      <trkpt lat="40.203303024172783" lon="-8.488988019526005">
        <ele>40.030000000000001</ele>
        <time>2025-05-04T07:59:39Z</time>
      </trkpt>
      <trkpt lat="40.200464995577931" lon="-8.488359041512013">
        <ele>38.590000000000003</ele>
        <time>2025-05-04T07:59:49Z</time>
      </trkpt>
      <trkpt lat="40.196776036173105" lon="-8.48745102994144">
        <ele>43.399999999999999</ele>
        <time>2025-05-04T08:00:02Z</time>
      </trkpt>
      <trkpt lat="40.193883022293448" lon="-8.487294958904386">
        <ele>47.240000000000002</ele>
        <time>2025-05-04T08:00:12Z</time>
      </trkpt>
      <trkpt lat="40.191307011991739" lon="-8.487714976072311">
        <ele>46.759999999999998</ele>
        <time>2025-05-04T08:00:21Z</time>
      </trkpt>
      <trkpt lat="40.189111037179828" lon="-8.488620975986123">
        <ele>46.759999999999998</ele>
        <time>2025-05-04T08:00:29Z</time>
      </trkpt>
      <trkpt lat="40.187180014327168" lon="-8.490269025787711">
        <ele>51.090000000000003</ele>
        <time>2025-05-04T08:00:37Z</time>
      </trkpt>
      <trkpt lat="40.185661967843771" lon="-8.491379041224718">
        <ele>54.93</ele>
        <time>2025-05-04T08:00:43Z</time>
      </trkpt>
      <trkpt lat="40.183451995253563" lon="-8.492194013670087">
        <ele>60.219999999999999</ele>
        <time>2025-05-04T08:00:51Z</time>
      </trkpt>
      <trkpt lat="40.180908003821969" lon="-8.49267597310245">
        <ele>64.549999999999997</ele>
        <time>2025-05-04T08:01:00Z</time>
      </trkpt>
      <trkpt lat="40.178677998483181" lon="-8.493581973016262">
        <ele>67.430000000000007</ele>
        <time>2025-05-04T08:01:08Z</time>
      </trkpt>
      <trkpt lat="40.176470037549734" lon="-8.494527032598853">
        <ele>76.079999999999998</ele>
        <time>2025-05-04T08:01:16Z</time>
      </trkpt>
      <trkpt lat="40.174471959471703" lon="-8.494917964562774">
        <ele>83.769999999999996</ele>
        <time>2025-05-04T08:01:23Z</time>
      </trkpt>
      <trkpt lat="40.172474971041083" lon="-8.494772035628557">
        <ele>88.099999999999994</ele>
        <time>2025-05-04T08:01:30Z</time>
      </trkpt>
      <trkpt lat="40.169944977387786" lon="-8.493987992405891">
        <ele>93.870000000000005</ele>
        <time>2025-05-04T08:01:39Z</time>
      </trkpt>
      <trkpt lat="40.167369972914457" lon="-8.493470996618271">
        <ele>96.269999999999996</ele>
        <time>2025-05-04T08:01:48Z</time>
      </trkpt>
      <trkpt lat="40.165066039189696" lon="-8.493547020480037">
        <ele>95.310000000000002</ele>
        <time>2025-05-04T08:01:56Z</time>
      </trkpt>
      <trkpt lat="40.162779036909342" lon="-8.494137022644281">
        <ele>90.5</ele>
        <time>2025-05-04T08:02:04Z</time>
      </trkpt>
      <trkpt lat="40.159379001706839" lon="-8.494976973161101">
        <ele>85.209999999999994</ele>
        <time>2025-05-04T08:02:16Z</time>
      </trkpt>
      <trkpt lat="40.15650300309062" lon="-8.495089039206505">
        <ele>80.409999999999997</ele>
        <time>2025-05-04T08:02:26Z</time>
      </trkpt>
      <trkpt lat="40.153650976717472" lon="-8.494548993185163">
        <ele>73.680000000000007</ele>
        <time>2025-05-04T08:02:36Z</time>
      </trkpt>
      <trkpt lat="40.150595018640161" lon="-8.493374017998576">
        <ele>65.989999999999995</ele>
        <time>2025-05-04T08:02:47Z</time>
      </trkpt>
      <trkpt lat="40.148066030815244" lon="-8.492646971717477">
        <ele>62.140000000000001</ele>
        <time>2025-05-04T08:02:56Z</time>
      </trkpt>
      <trkpt lat="40.145470993593335" lon="-8.492593998089433">
        <ele>63.100000000000001</ele>
        <time>2025-05-04T08:03:05Z</time>
      </trkpt>
      <trkpt lat="40.142907975241542" lon="-8.493141001090407">
        <ele>67.909999999999997</ele>
        <time>2025-05-04T08:03:14Z</time>
      </trkpt>
      <trkpt lat="40.140745025128126" lon="-8.494196031242609">
        <ele>73.680000000000007</ele>
        <time>2025-05-04T08:03:22Z</time>
      </trkpt>
      <trkpt lat="40.138076981529593" lon="-8.495675018057227">
        <ele>77.040000000000006</ele>
        <time>2025-05-04T08:03:32Z</time>
      </trkpt>
      <trkpt lat="40.136085022240877" lon="-8.496134011074901">
        <ele>74.159999999999997</ele>
        <time>2025-05-04T08:03:39Z</time>
      </trkpt>
      <trkpt lat="40.133486967533827" lon="-8.496073996648192">
        <ele>67.430000000000007</ele>
        <time>2025-05-04T08:03:48Z</time>
      </trkpt>
      <trkpt lat="40.131490984931588" lon="-8.496509017422795">
        <ele>62.619999999999997</ele>
        <time>2025-05-04T08:03:55Z</time>
      </trkpt>
      <trkpt lat="40.12968803755939" lon="-8.497591037303209">
        <ele>57.82</ele>
        <time>2025-05-04T08:04:02Z</time>
      </trkpt>
      <trkpt lat="40.128132021054626" lon="-8.499216036871076">
        <ele>58.780000000000001</ele>
        <time>2025-05-04T08:04:09Z</time>
      </trkpt>
      <trkpt lat="40.12691899202764" lon="-8.501300029456615">
        <ele>64.549999999999997</ele>
        <time>2025-05-04T08:04:16Z</time>
      </trkpt>
      <trkpt lat="40.126216001808643" lon="-8.503373963758349">
        <ele>68.390000000000001</ele>
        <time>2025-05-04T08:04:22Z</time>
      </trkpt>
      <trkpt lat="40.125756002962589" lon="-8.506349958479404">
        <ele>68.390000000000001</ele>
        <time>2025-05-04T08:04:30Z</time>
      </trkpt>
      <trkpt lat="40.125147979706526" lon="-8.510042019188404">
        <ele>61.18</ele>
        <time>2025-05-04T08:04:40Z</time>
      </trkpt>
      <trkpt lat="40.124025978147984" lon="-8.513094037771225">
        <ele>53.009999999999998</ele>
        <time>2025-05-04T08:04:49Z</time>
      </trkpt>
      <trkpt lat="40.122660985216498" lon="-8.515499979257584">
        <ele>48.200000000000003</ele>
        <time>2025-05-04T08:04:57Z</time>
      </trkpt>
      <trkpt lat="40.120938001200557" lon="-8.517492022365332">
        <ele>45.799999999999997</ele>
        <time>2025-05-04T08:05:05Z</time>
      </trkpt>
      <trkpt lat="40.118273980915546" lon="-8.520362991839647">
        <ele>43.880000000000003</ele>
        <time>2025-05-04T08:05:17Z</time>
      </trkpt>
      <trkpt lat="40.116186970844865" lon="-8.522963980212808">
        <ele>49.159999999999997</ele>
        <time>2025-05-04T08:05:27Z</time>
      </trkpt>
      <trkpt lat="40.114150000736117" lon="-8.52509499527514">
        <ele>53.009999999999998</ele>
        <time>2025-05-04T08:05:36Z</time>
      </trkpt>
      <trkpt lat="40.112142032012343" lon="-8.526560990139842">
        <ele>51.57</ele>
        <time>2025-05-04T08:05:44Z</time>
      </trkpt>
      <trkpt lat="40.109680015593767" lon="-8.527611996978521">
        <ele>49.649999999999999</ele>
        <time>2025-05-04T08:05:53Z</time>
      </trkpt>
      <trkpt lat="40.107096964493394" lon="-8.528109965845943">
        <ele>47.240000000000002</ele>
        <time>2025-05-04T08:06:02Z</time>
      </trkpt>
      <trkpt lat="40.103954002261162" lon="-8.528636014088988">
        <ele>45.799999999999997</ele>
        <time>2025-05-04T08:06:13Z</time>
      </trkpt>
      <trkpt lat="40.101792979985476" lon="-8.529696995392442">
        <ele>44.840000000000003</ele>
        <time>2025-05-04T08:06:21Z</time>
      </trkpt>
      <trkpt lat="40.100299995392561" lon="-8.530883034691215">
        <ele>42.920000000000002</ele>
        <time>2025-05-04T08:06:27Z</time>
      </trkpt>
      <trkpt lat="40.098160011693835" lon="-8.532762005925179">
        <ele>40.990000000000002</ele>
        <time>2025-05-04T08:06:36Z</time>
      </trkpt>
      <trkpt lat="40.096016004681587" lon="-8.533845031633973">
        <ele>41.950000000000003</ele>
        <time>2025-05-04T08:06:44Z</time>
      </trkpt>
      <trkpt lat="40.094023961573839" lon="-8.534200005233288">
        <ele>43.399999999999999</ele>
        <time>2025-05-04T08:06:51Z</time>
      </trkpt>
      <trkpt lat="40.091431019827724" lon="-8.53396899998188">
        <ele>51.090000000000003</ele>
        <time>2025-05-04T08:07:00Z</time>
      </trkpt>
      <trkpt lat="40.089138988405466" lon="-8.534179972484708">
        <ele>56.859999999999999</ele>
        <time>2025-05-04T08:07:08Z</time>
      </trkpt>
      <trkpt lat="40.087224980816245" lon="-8.534982036799192">
        <ele>64.549999999999997</ele>
        <time>2025-05-04T08:07:15Z</time>
      </trkpt>
      <trkpt lat="40.085168983787298" lon="-8.536392962560058">
        <ele>74.640000000000001</ele>
        <time>2025-05-04T08:07:23Z</time>
      </trkpt>
      <trkpt lat="40.083272997289896" lon="-8.537281025201082">
        <ele>83.290000000000006</ele>
        <time>2025-05-04T08:07:30Z</time>
      </trkpt>
      <trkpt lat="40.081277014687657" lon="-8.537530973553658">
        <ele>90.980000000000004</ele>
        <time>2025-05-04T08:07:37Z</time>
      </trkpt>
      <trkpt lat="40.078695975244045" lon="-8.537270966917276">
        <ele>99.629999999999995</ele>
        <time>2025-05-04T08:07:46Z</time>
      </trkpt>
      <trkpt lat="40.07668498903513" lon="-8.537399964407086">
        <ele>103.95999999999999</ele>
        <time>2025-05-04T08:07:53Z</time>
      </trkpt>
      <trkpt lat="40.074465963989496" lon="-8.538228012621403">
        <ele>110.20999999999999</ele>
        <time>2025-05-04T08:08:01Z</time>
      </trkpt>
      <trkpt lat="40.072454977780581" lon="-8.539688978344202">
        <ele>115.01000000000001</ele>
        <time>2025-05-04T08:08:09Z</time>
      </trkpt>
      <trkpt lat="40.070852022618055" lon="-8.541353037580848">
        <ele>115.01000000000001</ele>
        <time>2025-05-04T08:08:16Z</time>
      </trkpt>
      <trkpt lat="40.068890992552042" lon="-8.542940989136696">
        <ele>107.31999999999999</ele>
        <time>2025-05-04T08:08:24Z</time>
      </trkpt>
      <trkpt lat="40.066527966409922" lon="-8.544271029531956">
        <ele>100.11</ele>
        <time>2025-05-04T08:08:33Z</time>
      </trkpt>
      <trkpt lat="40.064754020422697" lon="-8.545557986944914">
        <ele>94.829999999999998</ele>
        <time>2025-05-04T08:08:40Z</time>
      </trkpt>
      <trkpt lat="40.063205966725945" lon="-8.547280970960856">
        <ele>89.540000000000006</ele>
        <time>2025-05-04T08:08:47Z</time>
      </trkpt>
      <trkpt lat="40.061521036550403" lon="-8.549854969605804">
        <ele>84.730000000000004</ele>
        <time>2025-05-04T08:08:56Z</time>
      </trkpt>
      <trkpt lat="40.059364959597588" lon="-8.552862983196974">
        <ele>82.810000000000002</ele>
        <time>2025-05-04T08:09:07Z</time>
      </trkpt>
      <trkpt lat="40.057049039751291" lon="-8.556207027286291">
        <ele>88.099999999999994</ele>
        <time>2025-05-04T08:09:19Z</time>
      </trkpt>
      <trkpt lat="40.055155986919999" lon="-8.559544030576944">
        <ele>93.390000000000001</ele>
        <time>2025-05-04T08:09:30Z</time>
      </trkpt>
      <trkpt lat="40.053500980138779" lon="-8.563098041340709">
        <ele>95.790000000000006</ele>
        <time>2025-05-04T08:09:41Z</time>
      </trkpt>
      <trkpt lat="40.051849996671081" lon="-8.566648028790951">
        <ele>96.75</ele>
        <time>2025-05-04T08:09:52Z</time>
      </trkpt>
      <trkpt lat="40.050245029851794" lon="-8.568809973075986">
        <ele>94.349999999999994</ele>
        <time>2025-05-04T08:10:00Z</time>
      </trkpt>
      <trkpt lat="40.04834502004087" lon="-8.570483000949025">
        <ele>89.060000000000002</ele>
        <time>2025-05-04T08:10:08Z</time>
      </trkpt>
      <trkpt lat="40.046211993321776" lon="-8.571683038026094">
        <ele>82.329999999999998</ele>
        <time>2025-05-04T08:10:16Z</time>
      </trkpt>
      <trkpt lat="40.044643990695477" lon="-8.57266397215426">
        <ele>76.560000000000002</ele>
        <time>2025-05-04T08:10:22Z</time>
      </trkpt>
      <trkpt lat="40.042756972834468" lon="-8.574427021667361">
        <ele>67.430000000000007</ele>
        <time>2025-05-04T08:10:30Z</time>
      </trkpt>
      <trkpt lat="40.040973974391818" lon="-8.57687596231699">
        <ele>57.82</ele>
        <time>2025-05-04T08:10:39Z</time>
      </trkpt>
      <trkpt lat="40.038496032357216" lon="-8.579978020861745">
        <ele>54.93</ele>
        <time>2025-05-04T08:10:51Z</time>
      </trkpt>
      <trkpt lat="40.036236019805074" lon="-8.582327971234918">
        <ele>62.619999999999997</ele>
        <time>2025-05-04T08:11:01Z</time>
      </trkpt>
      <trkpt lat="40.033319033682346" lon="-8.584783030673862">
        <ele>68.390000000000001</ele>
        <time>2025-05-04T08:11:13Z</time>
      </trkpt>
      <trkpt lat="40.030472036451101" lon="-8.586700977757573">
        <ele>62.140000000000001</ele>
        <time>2025-05-04T08:11:24Z</time>
      </trkpt>
      <trkpt lat="40.027530994266272" lon="-8.5883470159024">
        <ele>53.490000000000002</ele>
        <time>2025-05-04T08:11:35Z</time>
      </trkpt>
      <trkpt lat="40.024467995390296" lon="-8.590381974354386">
        <ele>45.799999999999997</ele>
        <time>2025-05-04T08:11:47Z</time>
      </trkpt>
      <trkpt lat="40.021786959841847" lon="-8.592589013278484">
        <ele>47.240000000000002</ele>
        <time>2025-05-04T08:11:58Z</time>
      </trkpt>
      <trkpt lat="40.019288985058665" lon="-8.595123030245304">
        <ele>48.68</ele>
        <time>2025-05-04T08:12:09Z</time>
      </trkpt>
      <trkpt lat="40.016694031655788" lon="-8.598075974732637">
        <ele>53.969999999999999</ele>
        <time>2025-05-04T08:12:21Z</time>
      </trkpt>
      <trkpt lat="40.014717997983098" lon="-8.599603995680809">
        <ele>62.140000000000001</ele>
        <time>2025-05-04T08:12:29Z</time>
      </trkpt>
      <trkpt lat="40.012523028999567" lon="-8.600518964231014">
        <ele>69.829999999999998</ele>
        <time>2025-05-04T08:12:37Z</time>
      </trkpt>
      <trkpt lat="40.010114992037416" lon="-8.601745991036296">
        <ele>77.040000000000006</ele>
        <time>2025-05-04T08:12:46Z</time>
      </trkpt>
      <trkpt lat="40.008201990276575" lon="-8.603427987545729">
        <ele>84.730000000000004</ele>
        <time>2025-05-04T08:12:54Z</time>
      </trkpt>
      <trkpt lat="40.005954969674349" lon="-8.605798976495862">
        <ele>89.060000000000002</ele>
        <time>2025-05-04T08:13:04Z</time>
      </trkpt>
      <trkpt lat="40.003688000142574" lon="-8.607430011034012">
        <ele>94.349999999999994</ele>
        <time>2025-05-04T08:13:13Z</time>
      </trkpt>
      <trkpt lat="40.000952985137701" lon="-8.608655026182532">
        <ele>101.56</ele>
        <time>2025-05-04T08:13:23Z</time>
      </trkpt>
      <trkpt lat="39.998532962054014" lon="-8.609931003302336">
        <ele>106.36</ele>
        <time>2025-05-04T08:13:32Z</time>
      </trkpt>
      <trkpt lat="39.996605962514877" lon="-8.611633032560349">
        <ele>104.92</ele>
        <time>2025-05-04T08:13:40Z</time>
      </trkpt>
      <trkpt lat="39.99476102180779" lon="-8.613471016287804">
        <ele>100.11</ele>
        <time>2025-05-04T08:13:48Z</time>
      </trkpt>
      <trkpt lat="39.992764033377171" lon="-8.614958971738815">
        <ele>94.349999999999994</ele>
        <time>2025-05-04T08:13:56Z</time>
      </trkpt>
      <trkpt lat="39.990446018055081" lon="-8.61647198908031">
        <ele>88.099999999999994</ele>
        <time>2025-05-04T08:14:05Z</time>
      </trkpt>
      <trkpt lat="39.989052023738623" lon="-8.617815021425486">
        <ele>84.25</ele>
        <time>2025-05-04T08:14:11Z</time>
      </trkpt>
      <trkpt lat="39.987477986142039" lon="-8.619989035651088">
        <ele>78</ele>
        <time>2025-05-04T08:14:19Z</time>
      </trkpt>
      <trkpt lat="39.985349988564849" lon="-8.623053040355444">
        <ele>68.870000000000005</ele>
        <time>2025-05-04T08:14:30Z</time>
      </trkpt>
      <trkpt lat="39.983487026765943" lon="-8.624795973300934">
        <ele>61.18</ele>
        <time>2025-05-04T08:14:38Z</time>
      </trkpt>
      <trkpt lat="39.981221985071898" lon="-8.626491967588663">
        <ele>53.009999999999998</ele>
        <time>2025-05-04T08:14:47Z</time>
      </trkpt>
      <trkpt lat="39.979227008298039" lon="-8.628604961559176">
        <ele>49.649999999999999</ele>
        <time>2025-05-04T08:14:56Z</time>
      </trkpt>
      <trkpt lat="39.977818010374904" lon="-8.630960024893284">
        <ele>51.090000000000003</ele>
        <time>2025-05-04T08:15:04Z</time>
      </trkpt>
      <trkpt lat="39.976279009133577" lon="-8.634577989578247">
        <ele>54.93</ele>
        <time>2025-05-04T08:15:15Z</time>
      </trkpt>
      <trkpt lat="39.974087979644537" lon="-8.639882979914546">
        <ele>55.409999999999997</ele>
        <time>2025-05-04T08:15:31Z</time>
      </trkpt>
      <trkpt lat="39.972313027828932" lon="-8.644181974232197">
        <ele>53.490000000000002</ele>
        <time>2025-05-04T08:15:44Z</time>
      </trkpt>
      <trkpt lat="39.97067503631115" lon="-8.648168994113803">
        <ele>55.890000000000001</ele>
        <time>2025-05-04T08:15:56Z</time>
      </trkpt>
      <trkpt lat="39.96949695982039" lon="-8.651567017659545">
        <ele>57.82</ele>
        <time>2025-05-04T08:16:06Z</time>
      </trkpt>
      <trkpt lat="39.968332964926958" lon="-8.654981972649694">
        <ele>67.909999999999997</ele>
        <time>2025-05-04T08:16:16Z</time>
      </trkpt>
      <trkpt lat="39.967156983911991" lon="-8.657109970226884">
        <ele>74.640000000000001</ele>
        <time>2025-05-04T08:16:23Z</time>
      </trkpt>
      <trkpt lat="39.965668022632599" lon="-8.658865978941321">
        <ele>80.409999999999997</ele>
        <time>2025-05-04T08:16:30Z</time>
      </trkpt>
      <trkpt lat="39.963428964838386" lon="-8.66056096740067">
        <ele>89.540000000000006</ele>
        <time>2025-05-04T08:16:39Z</time>
      </trkpt>
      <trkpt lat="39.961487967520952" lon="-8.662094017490745">
        <ele>99.629999999999995</ele>
        <time>2025-05-04T08:16:47Z</time>
      </trkpt>
      <trkpt lat="39.959817035123706" lon="-8.664128975942731">
        <ele>110.20999999999999</ele>
        <time>2025-05-04T08:16:55Z</time>
      </trkpt>
      <trkpt lat="39.957748968154192" lon="-8.666820991784334">
        <ele>116.45999999999999</ele>
        <time>2025-05-04T08:17:05Z</time>
      </trkpt>
      <trkpt lat="39.956055991351604" lon="-8.668321017175913">
        <ele>114.53</ele>
        <time>2025-05-04T08:17:12Z</time>
      </trkpt>
      <trkpt lat="39.953901004046202" lon="-8.669317038729787">
        <ele>114.53</ele>
        <time>2025-05-04T08:17:20Z</time>
      </trkpt>
      <trkpt lat="39.951355000957847" lon="-8.669859012588859">
        <ele>119.81999999999999</ele>
        <time>2025-05-04T08:17:29Z</time>
      </trkpt>
      <trkpt lat="39.948791982606053" lon="-8.670524032786489">
        <ele>126.55</ele>
        <time>2025-05-04T08:17:38Z</time>
      </trkpt>
      <trkpt lat="39.946688041090965" lon="-8.671772014349699">
        <ele>129.91999999999999</ele>
        <time>2025-05-04T08:17:46Z</time>
      </trkpt>
      <trkpt lat="39.944866988807917" lon="-8.673628019168973">
        <ele>130.40000000000001</ele>
        <time>2025-05-04T08:17:54Z</time>
      </trkpt>
      <trkpt lat="39.942563977092505" lon="-8.676455989480019">
        <ele>129.43000000000001</ele>
        <time>2025-05-04T08:18:05Z</time>
      </trkpt>
      <trkpt lat="39.940722975879908" lon="-8.678252985700965">
        <ele>130.88</ele>
        <time>2025-05-04T08:18:13Z</time>
      </trkpt>
      <trkpt lat="39.938654992729425" lon="-8.679570034146309">
        <ele>129.91999999999999</ele>
        <time>2025-05-04T08:18:21Z</time>
      </trkpt>
      <trkpt lat="39.936419036239386" lon="-8.680307976901531">
        <ele>132.80000000000001</ele>
        <time>2025-05-04T08:18:29Z</time>
      </trkpt>
      <trkpt lat="39.933827016502619" lon="-8.680442003533244">
        <ele>136.16</ele>
        <time>2025-05-04T08:18:38Z</time>
      </trkpt>
      <trkpt lat="39.929787022992969" lon="-8.680116031318903">
        <ele>132.80000000000001</ele>
        <time>2025-05-04T08:18:52Z</time>
      </trkpt>
      <trkpt lat="39.926901971921325" lon="-8.680315017700195">
        <ele>131.36000000000001</ele>
        <time>2025-05-04T08:19:02Z</time>
      </trkpt>
      <trkpt lat="39.924345994368196" lon="-8.681085985153914">
        <ele>133.28</ele>
        <time>2025-05-04T08:19:11Z</time>
      </trkpt>
      <trkpt lat="39.921913985162973" lon="-8.682337990030646">
        <ele>129.43000000000001</ele>
        <time>2025-05-04T08:19:20Z</time>
      </trkpt>
      <trkpt lat="39.919554982334375" lon="-8.68374296464026">
        <ele>128.94999999999999</ele>
        <time>2025-05-04T08:19:29Z</time>
      </trkpt>
      <trkpt lat="39.917336041107774" lon="-8.684564977884293">
        <ele>129.91999999999999</ele>
        <time>2025-05-04T08:19:37Z</time>
      </trkpt>
      <trkpt lat="39.91503001190722" lon="-8.684684000909329">
        <ele>129.43000000000001</ele>
        <time>2025-05-04T08:19:45Z</time>
      </trkpt>
      <trkpt lat="39.911846984177828" lon="-8.684589033946395">
        <ele>127.51000000000001</ele>
        <time>2025-05-04T08:19:56Z</time>
      </trkpt>
      <trkpt lat="39.90957498550415" lon="-8.685059007257223">
        <ele>129.43000000000001</ele>
        <time>2025-05-04T08:20:04Z</time>
      </trkpt>
      <trkpt lat="39.90742402151227" lon="-8.686146978288889">
        <ele>134.24000000000001</ele>
        <time>2025-05-04T08:20:12Z</time>
      </trkpt>
      <trkpt lat="39.904891010373831" lon="-8.687926959246397">
        <ele>142.88999999999999</ele>
        <time>2025-05-04T08:20:22Z</time>
      </trkpt>
      <trkpt lat="39.902531001716852" lon="-8.689361019060016">
        <ele>150.09999999999999</ele>
        <time>2025-05-04T08:20:31Z</time>
      </trkpt>
      <trkpt lat="39.899719962850213" lon="-8.690229970961809">
        <ele>156.34999999999999</ele>
        <time>2025-05-04T08:20:41Z</time>
      </trkpt>
      <trkpt lat="39.897119980305433" lon="-8.690276993438602">
        <ele>160.68000000000001</ele>
        <time>2025-05-04T08:20:50Z</time>
      </trkpt>
      <trkpt lat="39.893974000588059" lon="-8.689701994881034">
        <ele>163.56</ele>
        <time>2025-05-04T08:21:01Z</time>
      </trkpt>
      <trkpt lat="39.89109599031508" lon="-8.689396977424622">
        <ele>166.93000000000001</ele>
        <time>2025-05-04T08:21:11Z</time>
      </trkpt>
      <trkpt lat="39.889107970520854" lon="-8.689792016521096">
        <ele>170.28999999999999</ele>
        <time>2025-05-04T08:21:18Z</time>
      </trkpt>
      <trkpt lat="39.887223970144987" lon="-8.690774962306023">
        <ele>169.81</ele>
        <time>2025-05-04T08:21:25Z</time>
      </trkpt>
      <trkpt lat="39.88555395975709" lon="-8.692255960777402">
        <ele>170.28999999999999</ele>
        <time>2025-05-04T08:21:32Z</time>
      </trkpt>
      <trkpt lat="39.883626038208604" lon="-8.694523014128208">
        <ele>172.69</ele>
        <time>2025-05-04T08:21:41Z</time>
      </trkpt>
      <trkpt lat="39.881143989041448" lon="-8.697110004723072">
        <ele>172.69</ele>
        <time>2025-05-04T08:21:52Z</time>
      </trkpt>
      <trkpt lat="39.878254998475313" lon="-8.699571015313268">
        <ele>169.81</ele>
        <time>2025-05-04T08:22:04Z</time>
      </trkpt>
      <trkpt lat="39.875166015699506" lon="-8.701631035655737">
        <ele>168.37</ele>
        <time>2025-05-04T08:22:16Z</time>
      </trkpt>
      <trkpt lat="39.872743980959058" lon="-8.702884968370199">
        <ele>166.93000000000001</ele>
        <time>2025-05-04T08:22:25Z</time>
      </trkpt>
      <trkpt lat="39.870243994519114" lon="-8.70389498770237">
        <ele>163.56</ele>
        <time>2025-05-04T08:22:34Z</time>
      </trkpt>
      <trkpt lat="39.867133973166347" lon="-8.704782966524363">
        <ele>159.72</ele>
        <time>2025-05-04T08:22:45Z</time>
      </trkpt>
      <trkpt lat="39.86488401889801" lon="-8.70552996173501">
        <ele>157.78999999999999</ele>
        <time>2025-05-04T08:22:53Z</time>
      </trkpt>
      <trkpt lat="39.864327041432261" lon="-8.705747975036502">
        <ele>157.78999999999999</ele>
        <time>2025-05-04T08:22:55Z</time>
      </trkpt>
      <trkpt lat="39.861867036670446" lon="-8.706838963553309">
        <ele>154.91</ele>
        <time>2025-05-04T08:23:04Z</time>
      </trkpt>
      <trkpt lat="39.858966981992126" lon="-8.7085369694978">
        <ele>152.03</ele>
        <time>2025-05-04T08:23:15Z</time>
      </trkpt>
      <trkpt lat="39.85575302504003" lon="-8.71100602671504">
        <ele>153.47</ele>
        <time>2025-05-04T08:23:28Z</time>
      </trkpt>
      <trkpt lat="39.853199981153011" lon="-8.713463013991714">
        <ele>165.47999999999999</ele>
        <time>2025-05-04T08:23:39Z</time>
      </trkpt>
      <trkpt lat="39.850936029106379" lon="-8.715835008770227">
        <ele>169.33000000000001</ele>
        <time>2025-05-04T08:23:49Z</time>
      </trkpt>
      <trkpt lat="39.849153030663729" lon="-8.717089025303721">
        <ele>165.96000000000001</ele>
        <time>2025-05-04T08:23:56Z</time>
      </trkpt>
      <trkpt lat="39.847488971427083" lon="-8.717649020254612">
        <ele>163.08000000000001</ele>
        <time>2025-05-04T08:24:02Z</time>
      </trkpt>
      <trkpt lat="39.844938023015857" lon="-8.718145983293653">
        <ele>165</ele>
        <time>2025-05-04T08:24:11Z</time>
      </trkpt>
      <trkpt lat="39.842114998027682" lon="-8.718930026516318">
        <ele>168.84999999999999</ele>
        <time>2025-05-04T08:24:21Z</time>
      </trkpt>
      <trkpt lat="39.8393389955163" lon="-8.720048004761338">
        <ele>175.09999999999999</ele>
        <time>2025-05-04T08:24:31Z</time>
      </trkpt>
      <trkpt lat="39.836283959448338" lon="-8.721222979947925">
        <ele>174.62</ele>
        <time>2025-05-04T08:24:42Z</time>
      </trkpt>
      <trkpt lat="39.834284959360957" lon="-8.721268996596336">
        <ele>173.66</ele>
        <time>2025-05-04T08:24:49Z</time>
      </trkpt>
      <trkpt lat="39.832319989800453" lon="-8.720713024958968">
        <ele>177.97999999999999</ele>
        <time>2025-05-04T08:24:56Z</time>
      </trkpt>
      <trkpt lat="39.83050798997283" lon="-8.719564033672214">
        <ele>184.71000000000001</ele>
        <time>2025-05-04T08:25:03Z</time>
      </trkpt>
      <trkpt lat="39.827895015478134" lon="-8.717968035489321">
        <ele>193.36000000000001</ele>
        <time>2025-05-04T08:25:13Z</time>
      </trkpt>
      <trkpt lat="39.825900038704276" lon="-8.717464031651616">
        <ele>194.31999999999999</ele>
        <time>2025-05-04T08:25:20Z</time>
      </trkpt>
      <trkpt lat="39.823875976726413" lon="-8.717682966962457">
        <ele>193.36000000000001</ele>
        <time>2025-05-04T08:25:27Z</time>
      </trkpt>
      <trkpt lat="39.823600966483355" lon="-8.717741975560784">
        <ele>192.88</ele>
        <time>2025-05-04T08:25:28Z</time>
      </trkpt>
      <trkpt lat="39.823326962068677" lon="-8.717834008857608">
        <ele>192.40000000000001</ele>
        <time>2025-05-04T08:25:29Z</time>
      </trkpt>
      <trkpt lat="39.823047006502748" lon="-8.717944985255599">
        <ele>191.91999999999999</ele>
        <time>2025-05-04T08:25:30Z</time>
      </trkpt>
      <trkpt lat="39.821707997471094" lon="-8.718685023486614">
        <ele>189.03999999999999</ele>
        <time>2025-05-04T08:25:35Z</time>
      </trkpt>
      <trkpt lat="39.818968959152699" lon="-8.720785025507212">
        <ele>180.38</ele>
        <time>2025-05-04T08:25:46Z</time>
      </trkpt>
      <trkpt lat="39.816860994324088" lon="-8.722024038434029">
        <ele>172.69</ele>
        <time>2025-05-04T08:25:54Z</time>
      </trkpt>
      <trkpt lat="39.814609028398991" lon="-8.722705990076065">
        <ele>165</ele>
        <time>2025-05-04T08:26:02Z</time>
      </trkpt>
      <trkpt lat="39.811998987570405" lon="-8.722769021987915">
        <ele>157.31</ele>
        <time>2025-05-04T08:26:11Z</time>
      </trkpt>
      <trkpt lat="39.809404034167528" lon="-8.722368031740189">
        <ele>145.30000000000001</ele>
        <time>2025-05-04T08:26:20Z</time>
      </trkpt>
      <trkpt lat="39.807122983038425" lon="-8.72239300981164">
        <ele>133.28</ele>
        <time>2025-05-04T08:26:28Z</time>
      </trkpt>
      <trkpt lat="39.805200006812811" lon="-8.723093988373876">
        <ele>127.51000000000001</ele>
        <time>2025-05-04T08:26:35Z</time>
      </trkpt>
      <trkpt lat="39.803219027817249" lon="-8.724580015987158">
        <ele>128.94999999999999</ele>
        <time>2025-05-04T08:26:43Z</time>
      </trkpt>
      <trkpt lat="39.80049398727715" lon="-8.726659985259175">
        <ele>142.88999999999999</ele>
        <time>2025-05-04T08:26:54Z</time>
      </trkpt>
      <trkpt lat="39.797704992815852" lon="-8.728612968698144">
        <ele>157.78999999999999</ele>
        <time>2025-05-04T08:27:05Z</time>
      </trkpt>
      <trkpt lat="39.796147970482707" lon="-8.730295971035957">
        <ele>163.08000000000001</ele>
        <time>2025-05-04T08:27:12Z</time>
      </trkpt>
      <trkpt lat="39.79398300871253" lon="-8.733350001275539">
        <ele>163.08000000000001</ele>
        <time>2025-05-04T08:27:23Z</time>
      </trkpt>
      <trkpt lat="39.792238986119628" lon="-8.735311031341553">
        <ele>156.34999999999999</ele>
        <time>2025-05-04T08:27:31Z</time>
      </trkpt>
      <trkpt lat="39.790404019877315" lon="-8.736435966566205">
        <ele>149.13999999999999</ele>
        <time>2025-05-04T08:27:38Z</time>
      </trkpt>
      <trkpt lat="39.788145013153553" lon="-8.737081037834287">
        <ele>141.44999999999999</ele>
        <time>2025-05-04T08:27:46Z</time>
      </trkpt>
      <trkpt lat="39.785249987617135" lon="-8.737168963998556">
        <ele>133.75999999999999</ele>
        <time>2025-05-04T08:27:56Z</time>
      </trkpt>
      <trkpt lat="39.782668026164174" lon="-8.737466018646956">
        <ele>134.72</ele>
        <time>2025-05-04T08:28:05Z</time>
      </trkpt>
      <trkpt lat="39.781002961099148" lon="-8.738174960017204">
        <ele>133.75999999999999</ele>
        <time>2025-05-04T08:28:11Z</time>
      </trkpt>
      <trkpt lat="39.779241001233459" lon="-8.739473987370729">
        <ele>130.40000000000001</ele>
        <time>2025-05-04T08:28:18Z</time>
      </trkpt>
      <trkpt lat="39.777448028326035" lon="-8.74136402271688">
        <ele>124.63</ele>
        <time>2025-05-04T08:28:26Z</time>
      </trkpt>
      <trkpt lat="39.775523962453008" lon="-8.743007965385914">
        <ele>116.94</ele>
        <time>2025-05-04T08:28:34Z</time>
      </trkpt>
      <trkpt lat="39.773616995662451" lon="-8.743853028863668">
        <ele>109.73</ele>
        <time>2025-05-04T08:28:41Z</time>
      </trkpt>
      <trkpt lat="39.770768992602825" lon="-8.744346974417567">
        <ele>104.44</ele>
        <time>2025-05-04T08:28:51Z</time>
      </trkpt>
      <trkpt lat="39.767586970701814" lon="-8.744605975225568">
        <ele>108.29000000000001</ele>
        <time>2025-05-04T08:29:02Z</time>
      </trkpt>
      <trkpt lat="39.763820981606841" lon="-8.744962038472295">
        <ele>107.81</ele>
        <time>2025-05-04T08:29:15Z</time>
      </trkpt>
      <trkpt lat="39.761248994618654" lon="-8.745467970147729">
        <ele>101.08</ele>
        <time>2025-05-04T08:29:24Z</time>
      </trkpt>
      <trkpt lat="39.760968033224344" lon="-8.745564026758075">
        <ele>100.11</ele>
        <time>2025-05-04T08:29:25Z</time>
      </trkpt>
      <trkpt lat="39.758824026212096" lon="-8.746789963915944">
        <ele>89.540000000000006</ele>
        <time>2025-05-04T08:29:33Z</time>
      </trkpt>
      <trkpt lat="39.755999995395541" lon="-8.748577991500497">
        <ele>81.370000000000005</ele>
        <time>2025-05-04T08:29:44Z</time>
      </trkpt>
      <trkpt lat="39.75404198281467" lon="-8.749117031693459">
        <ele>81.849999999999994</ele>
        <time>2025-05-04T08:29:51Z</time>
      </trkpt>
      <trkpt lat="39.752313969656825" lon="-8.749046036973596">
        <ele>84.730000000000004</ele>
        <time>2025-05-04T08:29:57Z</time>
      </trkpt>
      <trkpt lat="39.750365009531379" lon="-8.748438013717532">
        <ele>91.459999999999994</ele>
        <time>2025-05-04T08:30:04Z</time>
      </trkpt>
      <trkpt lat="39.747029012069106" lon="-8.747204029932618">
        <ele>107.31999999999999</ele>
        <time>2025-05-04T08:30:16Z</time>
      </trkpt>
      <trkpt lat="39.744574958458543" lon="-8.746100971475244">
        <ele>122.22</ele>
        <time>2025-05-04T08:30:25Z</time>
      </trkpt>
      <trkpt lat="39.742883993312716" lon="-8.744699014350772">
        <ele>131.84</ele>
        <time>2025-05-04T08:30:32Z</time>
      </trkpt>
      <trkpt lat="39.741496033966541" lon="-8.742832029238343">
        <ele>142.41</ele>
        <time>2025-05-04T08:30:39Z</time>
      </trkpt>
      <trkpt lat="39.740594979375601" lon="-8.740941993892193">
        <ele>152.99000000000001</ele>
        <time>2025-05-04T08:30:45Z</time>
      </trkpt>
      <trkpt lat="39.739737007766962" lon="-8.737761983647943">
        <ele>167.88999999999999</ele>
        <time>2025-05-04T08:30:54Z</time>
      </trkpt>
      <trkpt lat="39.738709973171353" lon="-8.734262958168984">
        <ele>180.87</ele>
        <time>2025-05-04T08:31:04Z</time>
      </trkpt>
      <trkpt lat="39.737295024096966" lon="-8.731880988925695">
        <ele>184.22999999999999</ele>
        <time>2025-05-04T08:31:12Z</time>
      </trkpt>
      <trkpt lat="39.735490987077355" lon="-8.729994976893067">
        <ele>182.78999999999999</ele>
        <time>2025-05-04T08:31:20Z</time>
      </trkpt>
      <trkpt lat="39.733017990365624" lon="-8.727400023490191">
        <ele>179.90000000000001</ele>
        <time>2025-05-04T08:31:31Z</time>
      </trkpt>
      <trkpt lat="39.731374969705939" lon="-8.72482200153172">
        <ele>181.83000000000001</ele>
        <time>2025-05-04T08:31:40Z</time>
      </trkpt>
      <trkpt lat="39.730208963155746" lon="-8.722254037857056">
        <ele>187.11000000000001</ele>
        <time>2025-05-04T08:31:48Z</time>
      </trkpt>
      <trkpt lat="39.728613970801234" lon="-8.719135969877243">
        <ele>190.96000000000001</ele>
        <time>2025-05-04T08:31:58Z</time>
      </trkpt>
      <trkpt lat="39.727104976773262" lon="-8.717379961162806">
        <ele>190.96000000000001</ele>
        <time>2025-05-04T08:32:05Z</time>
      </trkpt>
      <trkpt lat="39.725314015522599" lon="-8.716175984591246">
        <ele>188.56</ele>
        <time>2025-05-04T08:32:12Z</time>
      </trkpt>
      <trkpt lat="39.722802964970469" lon="-8.715291023254395">
        <ele>181.34999999999999</ele>
        <time>2025-05-04T08:32:21Z</time>
      </trkpt>
      <trkpt lat="39.718890963122249" lon="-8.713908009231091">
        <ele>170.28999999999999</ele>
        <time>2025-05-04T08:32:35Z</time>
      </trkpt>
      <trkpt lat="39.714835966005921" lon="-8.711900040507317">
        <ele>158.75</ele>
        <time>2025-05-04T08:32:50Z</time>
      </trkpt>
      <trkpt lat="39.711710019037127" lon="-8.709982009604573">
        <ele>159.72</ele>
        <time>2025-05-04T08:33:02Z</time>
      </trkpt>
      <trkpt lat="39.708539983257651" lon="-8.708115024492145">
        <ele>166.44999999999999</ele>
        <time>2025-05-04T08:33:14Z</time>
      </trkpt>
      <trkpt lat="39.706091964617372" lon="-8.706164974719286">
        <ele>173.66</ele>
        <time>2025-05-04T08:33:24Z</time>
      </trkpt>
      <trkpt lat="39.704225985333323" lon="-8.703846959397197">
        <ele>180.87</ele>
        <time>2025-05-04T08:33:33Z</time>
      </trkpt>
      <trkpt lat="39.702356988564134" lon="-8.700578017160296">
        <ele>192.40000000000001</ele>
        <time>2025-05-04T08:33:44Z</time>
      </trkpt>
      <trkpt lat="39.700702987611294" lon="-8.69800703600049">
        <ele>207.30000000000001</ele>
        <time>2025-05-04T08:33:53Z</time>
      </trkpt>
      <trkpt lat="39.699050998315215" lon="-8.696522014215589">
        <ele>220.75999999999999</ele>
        <time>2025-05-04T08:34:00Z</time>
      </trkpt>
      <trkpt lat="39.696917971596122" lon="-8.695394983515143">
        <ele>235.18000000000001</ele>
        <time>2025-05-04T08:34:08Z</time>
      </trkpt>
      <trkpt lat="39.694852000102401" lon="-8.694073995575309">
        <ele>248.16</ele>
        <time>2025-05-04T08:34:16Z</time>
      </trkpt>
      <trkpt lat="39.694606997072697" lon="-8.693894036114216">
        <ele>249.59999999999999</ele>
        <time>2025-05-04T08:34:17Z</time>
      </trkpt>
      <trkpt lat="39.694371968507767" lon="-8.693694965913892">
        <ele>251.03999999999999</ele>
        <time>2025-05-04T08:34:18Z</time>
      </trkpt>
      <trkpt lat="39.690926000475883" lon="-8.690955005586147">
        <ele>273.14999999999998</ele>
        <time>2025-05-04T08:34:32Z</time>
      </trkpt>
      <trkpt lat="39.688363987952471" lon="-8.689240990206599">
        <ele>290.94</ele>
        <time>2025-05-04T08:34:42Z</time>
      </trkpt>
      <trkpt lat="39.685056991875172" lon="-8.686887016519904">
        <ele>306.80000000000001</ele>
        <time>2025-05-04T08:34:55Z</time>
      </trkpt>
      <trkpt lat="39.682842995971441" lon="-8.685143999755383">
        <ele>313.52999999999997</ele>
        <time>2025-05-04T08:35:04Z</time>
      </trkpt>
      <trkpt lat="39.680683985352516" lon="-8.684027027338743">
        <ele>314.00999999999999</ele>
        <time>2025-05-04T08:35:12Z</time>
      </trkpt>
      <trkpt lat="39.678691020235419" lon="-8.683727039024234">
        <ele>321.22000000000003</ele>
        <time>2025-05-04T08:35:19Z</time>
      </trkpt>
      <trkpt lat="39.676683973520994" lon="-8.684047982096672">
        <ele>331.31</ele>
        <time>2025-05-04T08:35:26Z</time>
      </trkpt>
      <trkpt lat="39.674710035324097" lon="-8.684740997850895">
        <ele>340.92000000000002</ele>
        <time>2025-05-04T08:35:33Z</time>
      </trkpt>
      <trkpt lat="39.671632032841444" lon="-8.685814971104264">
        <ele>343.81</ele>
        <time>2025-05-04T08:35:44Z</time>
      </trkpt>
      <trkpt lat="39.668901963159442" lon="-8.686909982934594">
        <ele>345.73000000000002</ele>
        <time>2025-05-04T08:35:54Z</time>
      </trkpt>
      <trkpt lat="39.666610015556216" lon="-8.688472034409642">
        <ele>355.82999999999998</ele>
        <time>2025-05-04T08:36:03Z</time>
      </trkpt>
      <trkpt lat="39.663122976198792" lon="-8.691161032766104">
        <ele>360.63</ele>
        <time>2025-05-04T08:36:17Z</time>
      </trkpt>
      <trkpt lat="39.660887019708753" lon="-8.692861972376704">
        <ele>367.83999999999997</ele>
        <time>2025-05-04T08:36:26Z</time>
      </trkpt>
      <trkpt lat="39.659029003232718" lon="-8.694310029968619">
        <ele>376.49000000000001</ele>
        <time>2025-05-04T08:36:34Z</time>
      </trkpt>
      <trkpt lat="39.657274000346661" lon="-8.69538601487875">
        <ele>381.77999999999997</ele>
        <time>2025-05-04T08:36:41Z</time>
      </trkpt>
      <trkpt lat="39.6551030036062" lon="-8.696146002039313">
        <ele>385.63</ele>
        <time>2025-05-04T08:36:49Z</time>
      </trkpt>
      <trkpt lat="39.652796974405646" lon="-8.696263013407588">
        <ele>383.69999999999999</ele>
        <time>2025-05-04T08:36:57Z</time>
      </trkpt>
      <trkpt lat="39.64949400164187" lon="-8.696083975955844">
        <ele>374.08999999999997</ele>
        <time>2025-05-04T08:37:08Z</time>
      </trkpt>
      <trkpt lat="39.647462982684374" lon="-8.696604995056987">
        <ele>366.39999999999998</ele>
        <time>2025-05-04T08:37:15Z</time>
      </trkpt>
      <trkpt lat="39.645439004525542" lon="-8.697807965800166">
        <ele>364.48000000000002</ele>
        <time>2025-05-04T08:37:23Z</time>
      </trkpt>
      <trkpt lat="39.643433969467878" lon="-8.698836006224155">
        <ele>365.44</ele>
        <time>2025-05-04T08:37:31Z</time>
      </trkpt>
      <trkpt lat="39.642882021144032" lon="-8.69903901591897">
        <ele>365.92000000000002</ele>
        <time>2025-05-04T08:37:33Z</time>
      </trkpt>
      <trkpt lat="39.641198012977839" lon="-8.699236996471882">
        <ele>366.88</ele>
        <time>2025-05-04T08:37:39Z</time>
      </trkpt>
      <trkpt lat="39.638948980718851" lon="-8.699009008705616">
        <ele>364.95999999999998</ele>
        <time>2025-05-04T08:37:47Z</time>
      </trkpt>
      <trkpt lat="39.635477028787136" lon="-8.698805999010801">
        <ele>362.55000000000001</ele>
        <time>2025-05-04T08:37:59Z</time>
      </trkpt>
      <trkpt lat="39.632335994392633" lon="-8.698696028441191">
        <ele>361.58999999999997</ele>
        <time>2025-05-04T08:38:10Z</time>
      </trkpt>
      <trkpt lat="39.629552029073238" lon="-8.698055986315012">
        <ele>364</ele>
        <time>2025-05-04T08:38:20Z</time>
      </trkpt>
      <trkpt lat="39.62783700786531" lon="-8.69736397638917">
        <ele>365.44</ele>
        <time>2025-05-04T08:38:27Z</time>
      </trkpt>
      <trkpt lat="39.626343017444015" lon="-8.696638019755483">
        <ele>364.95999999999998</ele>
        <time>2025-05-04T08:38:35Z</time>
      </trkpt>
      <trkpt lat="39.625902967527509" lon="-8.696469040587544">
        <ele>364.95999999999998</ele>
        <time>2025-05-04T08:38:38Z</time>
      </trkpt>
      <trkpt lat="39.625759972259402" lon="-8.696437021717429">
        <ele>364.95999999999998</ele>
        <time>2025-05-04T08:38:39Z</time>
      </trkpt>
      <trkpt lat="39.625617982819676" lon="-8.696405002847314">
        <ele>364.95999999999998</ele>
        <time>2025-05-04T08:38:40Z</time>
      </trkpt>
      <trkpt lat="39.625332998111844" lon="-8.696437021717429">
        <ele>364.48000000000002</ele>
        <time>2025-05-04T08:38:42Z</time>
      </trkpt>
      <trkpt lat="39.625186985358596" lon="-8.696472980082035">
        <ele>364</ele>
        <time>2025-05-04T08:38:43Z</time>
      </trkpt>
      <trkpt lat="39.624343011528254" lon="-8.696680013090372">
        <ele>364.48000000000002</ele>
        <time>2025-05-04T08:38:49Z</time>
      </trkpt>
      <trkpt lat="39.62420797906816" lon="-8.696656040847302">
        <ele>364.48000000000002</ele>
        <time>2025-05-04T08:38:50Z</time>
      </trkpt>
      <trkpt lat="39.624085016548634" lon="-8.696606000885367">
        <ele>364.48000000000002</ele>
        <time>2025-05-04T08:38:51Z</time>
      </trkpt>
      <trkpt lat="39.623964987695217" lon="-8.696529977023602">
        <ele>364.48000000000002</ele>
        <time>2025-05-04T08:38:52Z</time>
      </trkpt>
      <trkpt lat="39.623875971883535" lon="-8.696435010060668">
        <ele>364.48000000000002</ele>
        <time>2025-05-04T08:38:53Z</time>
      </trkpt>
      <trkpt lat="39.62379802018404" lon="-8.696296960115433">
        <ele>364.95999999999998</ele>
        <time>2025-05-04T08:38:54Z</time>
      </trkpt>
      <trkpt lat="39.623715961351991" lon="-8.696151031181216">
        <ele>364.95999999999998</ele>
        <time>2025-05-04T08:38:55Z</time>
      </trkpt>
      <trkpt lat="39.623707998543978" lon="-8.69600904174149">
        <ele>364.48000000000002</ele>
        <time>2025-05-04T08:38:56Z</time>
      </trkpt>
      <trkpt lat="39.623698024079204" lon="-8.695834027603269">
        <ele>364.48000000000002</ele>
        <time>2025-05-04T08:38:57Z</time>
      </trkpt>
      <trkpt lat="39.623738005757332" lon="-8.695680974051356">
        <ele>364.48000000000002</ele>
        <time>2025-05-04T08:38:58Z</time>
      </trkpt>
      <trkpt lat="39.623802965506911" lon="-8.695521969348192">
        <ele>364.95999999999998</ele>
        <time>2025-05-04T08:38:59Z</time>
      </trkpt>
      <trkpt lat="39.623868009075522" lon="-8.695361036807299">
        <ele>364.95999999999998</ele>
        <time>2025-05-04T08:39:00Z</time>
      </trkpt>
      <trkpt lat="39.623932968825102" lon="-8.695202032104135">
        <ele>365.44</ele>
        <time>2025-05-04T08:39:01Z</time>
      </trkpt>
      <trkpt lat="39.624697985127568" lon="-8.693631011992693">
        <ele>364.95999999999998</ele>
        <time>2025-05-04T08:39:11Z</time>
      </trkpt>
      <trkpt lat="39.625685038045049" lon="-8.6914979852736">
        <ele>358.23000000000002</ele>
        <time>2025-05-04T08:39:24Z</time>
      </trkpt>
      <trkpt lat="39.626654991880059" lon="-8.68956302292645">
        <ele>354.38</ele>
        <time>2025-05-04T08:39:37Z</time>
      </trkpt>
      <trkpt lat="39.627006025984883" lon="-8.688904037699103">
        <ele>352.45999999999998</ele>
        <time>2025-05-04T08:39:44Z</time>
      </trkpt>
      <trkpt lat="39.627045001834631" lon="-8.688831031322479">
        <ele>351.5</ele>
        <time>2025-05-04T08:39:51Z</time>
      </trkpt>
      <trkpt lat="39.627067968249321" lon="-8.688788032159209">
        <ele>351.98000000000002</ele>
        <time>2025-05-04T08:40:36Z</time>
      </trkpt>
      <trkpt lat="39.627380026504397" lon="-8.688193000853062">
        <ele>351.5</ele>
        <time>2025-05-04T08:40:44Z</time>
      </trkpt>
      <trkpt lat="39.627680014818907" lon="-8.687620013952255">
        <ele>352.45999999999998</ele>
        <time>2025-05-04T08:40:53Z</time>
      </trkpt>
      <trkpt lat="39.627694012597203" lon="-8.687593024224043">
        <ele>352.45999999999998</ele>
        <time>2025-05-04T08:40:54Z</time>
      </trkpt>
      <trkpt lat="39.627694012597203" lon="-8.687593024224043">
        <ele>352.94</ele>
        <time>2025-05-04T08:41:05Z</time>
      </trkpt>
      <trkpt lat="39.62777397595346" lon="-8.687425972893834">
        <ele>355.33999999999997</ele>
        <time>2025-05-04T08:41:47Z</time>
      </trkpt>
      <trkpt lat="39.627842959016562" lon="-8.687280965968967">
        <ele>356.31</ele>
        <time>2025-05-04T08:41:49Z</time>
      </trkpt>
      <trkpt lat="39.627879001200199" lon="-8.687203014269471">
        <ele>357.75</ele>
        <time>2025-05-04T08:41:50Z</time>
      </trkpt>
      <trkpt lat="39.62790003977716" lon="-8.687160015106201">
        <ele>358.23000000000002</ele>
        <time>2025-05-04T08:41:51Z</time>
      </trkpt>
      <trkpt lat="39.627909008413553" lon="-8.687140988186002">
        <ele>358.23000000000002</ele>
        <time>2025-05-04T08:41:52Z</time>
      </trkpt>
      <trkpt lat="39.627909008413553" lon="-8.687140988186002">
        <ele>358.70999999999998</ele>
        <time>2025-05-04T08:41:53Z</time>
      </trkpt>
      <trkpt lat="39.627909008413553" lon="-8.687140988186002">
        <ele>357.26999999999998</ele>
        <time>2025-05-04T08:41:54Z</time>
      </trkpt>
      <trkpt lat="39.627909008413553" lon="-8.687140988186002">
        <ele>356.79000000000002</ele>
        <time>2025-05-04T08:41:55Z</time>
      </trkpt>
      <trkpt lat="39.62790297344327" lon="-8.687151968479157">
        <ele>356.79000000000002</ele>
        <time>2025-05-04T08:41:56Z</time>
      </trkpt>
      <trkpt lat="39.627906996756792" lon="-8.687144005671144">
        <ele>356.79000000000002</ele>
        <time>2025-05-04T08:41:57Z</time>
      </trkpt>
      <trkpt lat="39.627915965393186" lon="-8.687125984579325">
        <ele>357.26999999999998</ele>
        <time>2025-05-04T08:41:58Z</time>
      </trkpt>
      <trkpt lat="39.627929041162133" lon="-8.687098994851112">
        <ele>357.75</ele>
        <time>2025-05-04T08:41:59Z</time>
      </trkpt>
      <trkpt lat="39.62794597260654" lon="-8.687062030658126">
        <ele>358.23000000000002</ele>
        <time>2025-05-04T08:42:00Z</time>
      </trkpt>
      <trkpt lat="39.628001041710377" lon="-8.686947030946612">
        <ele>359.19</ele>
        <time>2025-05-04T08:42:10Z</time>
      </trkpt>
      <trkpt lat="39.628001041710377" lon="-8.686947030946612">
        <ele>358.70999999999998</ele>
        <time>2025-05-04T08:42:48Z</time>
      </trkpt>
      <trkpt lat="39.628001041710377" lon="-8.686947030946612">
        <ele>358.70999999999998</ele>
        <time>2025-05-04T08:43:22Z</time>
      </trkpt>
      <trkpt lat="39.628001041710377" lon="-8.686947030946612">
        <ele>358.70999999999998</ele>
        <time>2025-05-04T08:43:58Z</time>
      </trkpt>
      <trkpt lat="39.628040017560124" lon="-8.686864972114563">
        <ele>358.23000000000002</ele>
        <time>2025-05-04T08:43:59Z</time>
      </trkpt>
      <trkpt lat="39.628062983974814" lon="-8.686817027628422">
        <ele>358.23000000000002</ele>
        <time>2025-05-04T08:44:00Z</time>
      </trkpt>
      <trkpt lat="39.628093997016549" lon="-8.686751984059811">
        <ele>357.75</ele>
        <time>2025-05-04T08:44:01Z</time>
      </trkpt>
      <trkpt lat="39.628141019493341" lon="-8.686633966863155">
        <ele>356.79000000000002</ele>
        <time>2025-05-04T08:44:02Z</time>
      </trkpt>
      <trkpt lat="39.62818200699985" lon="-8.686531037092209">
        <ele>356.79000000000002</ele>
        <time>2025-05-04T08:44:03Z</time>
      </trkpt>
      <trkpt lat="39.628231041133404" lon="-8.686410002410412">
        <ele>356.79000000000002</ele>
        <time>2025-05-04T08:44:04Z</time>
      </trkpt>
      <trkpt lat="39.628964038565755" lon="-8.684965968132019">
        <ele>354.38</ele>
        <time>2025-05-04T08:44:14Z</time>
      </trkpt>
      <trkpt lat="39.629889987409115" lon="-8.683632994070649">
        <ele>355.33999999999997</ele>
        <time>2025-05-04T08:44:24Z</time>
      </trkpt>
      <trkpt lat="39.630584008991718" lon="-8.682657005265355">
        <ele>355.33999999999997</ele>
        <time>2025-05-04T08:44:32Z</time>
      </trkpt>
      <trkpt lat="39.630629019811749" lon="-8.682577041909099">
        <ele>354.86000000000001</ele>
        <time>2025-05-04T08:44:33Z</time>
      </trkpt>
      <trkpt lat="39.63067595846951" lon="-8.682402027770877">
        <ele>353.89999999999998</ele>
        <time>2025-05-04T08:44:35Z</time>
      </trkpt>
      <trkpt lat="39.630707977339625" lon="-8.68225802667439">
        <ele>352.94</ele>
        <time>2025-05-04T08:44:37Z</time>
      </trkpt>
      <trkpt lat="39.630678975954652" lon="-8.682187031954527">
        <ele>352.45999999999998</ele>
        <time>2025-05-04T08:44:38Z</time>
      </trkpt>
      <trkpt lat="39.630648968741298" lon="-8.682112013921142">
        <ele>351.5</ele>
        <time>2025-05-04T08:44:39Z</time>
      </trkpt>
      <trkpt lat="39.630618039518595" lon="-8.682033978402615">
        <ele>351.01999999999998</ele>
        <time>2025-05-04T08:44:40Z</time>
      </trkpt>
      <trkpt lat="39.630583003163338" lon="-8.681945968419313">
        <ele>350.54000000000002</ele>
        <time>2025-05-04T08:44:41Z</time>
      </trkpt>
      <trkpt lat="39.630515025928617" lon="-8.681890983134508">
        <ele>350.06</ele>
        <time>2025-05-04T08:44:42Z</time>
      </trkpt>
      <trkpt lat="39.630435984581709" lon="-8.681829040870071">
        <ele>349.57999999999998</ele>
        <time>2025-05-04T08:44:43Z</time>
      </trkpt>
      <trkpt lat="39.63035199791193" lon="-8.681774977594614">
        <ele>348.62</ele>
        <time>2025-05-04T08:44:44Z</time>
      </trkpt>
      <trkpt lat="39.630256025120616" lon="-8.681784030050039">
        <ele>347.64999999999998</ele>
        <time>2025-05-04T08:44:45Z</time>
      </trkpt>
      <trkpt lat="39.63015703484416" lon="-8.681791992858052">
        <ele>347.17000000000002</ele>
        <time>2025-05-04T08:44:46Z</time>
      </trkpt>
      <trkpt lat="39.630054021254182" lon="-8.681853013113141">
        <ele>346.20999999999998</ele>
        <time>2025-05-04T08:44:47Z</time>
      </trkpt>
      <trkpt lat="39.629981014877558" lon="-8.681948985904455">
        <ele>345.73000000000002</ele>
        <time>2025-05-04T08:44:48Z</time>
      </trkpt>
      <trkpt lat="39.629929969087243" lon="-8.682049987837672">
        <ele>345.25</ele>
        <time>2025-05-04T08:44:49Z</time>
      </trkpt>
      <trkpt lat="39.629893004894257" lon="-8.682159036397934">
        <ele>344.76999999999998</ele>
        <time>2025-05-04T08:44:50Z</time>
      </trkpt>
      <trkpt lat="39.629885964095592" lon="-8.682268001139164">
        <ele>344.29000000000002</ele>
        <time>2025-05-04T08:44:51Z</time>
      </trkpt>
      <trkpt lat="39.62987800128758" lon="-8.682377971708775">
        <ele>343.81</ele>
        <time>2025-05-04T08:44:52Z</time>
      </trkpt>
      <trkpt lat="39.629915971308947" lon="-8.682501018047333">
        <ele>343.81</ele>
        <time>2025-05-04T08:44:53Z</time>
      </trkpt>
      <trkpt lat="39.629966011270881" lon="-8.682601014152169">
        <ele>343.32999999999998</ele>
        <time>2025-05-04T08:44:54Z</time>
      </trkpt>
      <trkpt lat="39.630015967413783" lon="-8.682700004428625">
        <ele>343.32999999999998</ele>
        <time>2025-05-04T08:44:55Z</time>
      </trkpt>
      <trkpt lat="39.630060978233814" lon="-8.682791031897068">
        <ele>343.32999999999998</ele>
        <time>2025-05-04T08:44:56Z</time>
      </trkpt>
      <trkpt lat="39.630111018195748" lon="-8.682890022173524">
        <ele>342.85000000000002</ele>
        <time>2025-05-04T08:44:57Z</time>
      </trkpt>
      <trkpt lat="39.630138007923961" lon="-8.682927992194891">
        <ele>342.85000000000002</ele>
        <time>2025-05-04T08:44:58Z</time>
      </trkpt>
      <trkpt lat="39.630168015137315" lon="-8.6829689797014">
        <ele>342.37</ele>
        <time>2025-05-04T08:44:59Z</time>
      </trkpt>
      <trkpt lat="39.630325008183718" lon="-8.683168971911073">
        <ele>341.41000000000003</ele>
        <time>2025-05-04T08:45:06Z</time>
      </trkpt>
      <trkpt lat="39.630571017041802" lon="-8.68346300907433">
        <ele>341.41000000000003</ele>
        <time>2025-05-04T08:45:15Z</time>
      </trkpt>
      <trkpt lat="39.63088802061975" lon="-8.683788981288672">
        <ele>341.88999999999999</ele>
        <time>2025-05-04T08:45:20Z</time>
      </trkpt>
      <trkpt lat="39.631337961181998" lon="-8.684145966544747">
        <ele>343.81</ele>
        <time>2025-05-04T08:45:24Z</time>
      </trkpt>
      <trkpt lat="39.63146997615695" lon="-8.684222996234894">
        <ele>344.29000000000002</ele>
        <time>2025-05-04T08:45:25Z</time>
      </trkpt>
      <trkpt lat="39.631868032738566" lon="-8.684362974017859">
        <ele>345.73000000000002</ele>
        <time>2025-05-04T08:45:28Z</time>
      </trkpt>
      <trkpt lat="39.632286038249731" lon="-8.684391975402832">
        <ele>345.73000000000002</ele>
        <time>2025-05-04T08:45:31Z</time>
      </trkpt>
      <trkpt lat="39.632559958845377" lon="-8.684360962361097">
        <ele>345.73000000000002</ele>
        <time>2025-05-04T08:45:33Z</time>
      </trkpt>
      <trkpt lat="39.633607026189566" lon="-8.684058962389827">
        <ele>347.17000000000002</ele>
        <time>2025-05-04T08:45:42Z</time>
      </trkpt>
      <trkpt lat="39.634112035855651" lon="-8.683842960745096">
        <ele>347.17000000000002</ele>
        <time>2025-05-04T08:45:48Z</time>
      </trkpt>
      <trkpt lat="39.634168026968837" lon="-8.683800967410207">
        <ele>347.17000000000002</ele>
        <time>2025-05-04T08:45:49Z</time>
      </trkpt>
      <trkpt lat="39.63421898894012" lon="-8.68374003097415">
        <ele>346.69</ele>
        <time>2025-05-04T08:45:50Z</time>
      </trkpt>
      <trkpt lat="39.634230975061655" lon="-8.683704994618893">
        <ele>346.69</ele>
        <time>2025-05-04T08:45:51Z</time>
      </trkpt>
      <trkpt lat="39.634265005588531" lon="-8.683620002120733">
        <ele>346.69</ele>
        <time>2025-05-04T08:45:52Z</time>
      </trkpt>
      <trkpt lat="39.634214965626597" lon="-8.683512965217233">
        <ele>346.69</ele>
        <time>2025-05-04T08:45:53Z</time>
      </trkpt>
      <trkpt lat="39.634178001433611" lon="-8.683459991589189">
        <ele>346.69</ele>
        <time>2025-05-04T08:45:54Z</time>
      </trkpt>
      <trkpt lat="39.634136008098722" lon="-8.6833989713341">
        <ele>346.20999999999998</ele>
        <time>2025-05-04T08:45:55Z</time>
      </trkpt>
      <trkpt lat="39.634093008935452" lon="-8.683337029069662">
        <ele>345.73000000000002</ele>
        <time>2025-05-04T08:45:56Z</time>
      </trkpt>
      <trkpt lat="39.634080016985536" lon="-8.683319007977843">
        <ele>345.25</ele>
        <time>2025-05-04T08:45:57Z</time>
      </trkpt>
      <trkpt lat="39.634014973416924" lon="-8.683238960802555">
        <ele>345.25</ele>
        <time>2025-05-04T08:45:58Z</time>
      </trkpt>
      <trkpt lat="39.633523039519787" lon="-8.682629009708762">
        <ele>343.81</ele>
        <time>2025-05-04T08:46:08Z</time>
      </trkpt>
      <trkpt lat="39.633216010406613" lon="-8.682247968390584">
        <ele>340.44</ele>
        <time>2025-05-04T08:46:13Z</time>
      </trkpt>
      <trkpt lat="39.633155995979905" lon="-8.682174040004611">
        <ele>340.44</ele>
        <time>2025-05-04T08:46:14Z</time>
      </trkpt>
      <trkpt lat="39.633092964068055" lon="-8.682096004486084">
        <ele>339.48000000000002</ele>
        <time>2025-05-04T08:46:15Z</time>
      </trkpt>
      <trkpt lat="39.633044013753533" lon="-8.682032972574234">
        <ele>339</ele>
        <time>2025-05-04T08:46:16Z</time>
      </trkpt>
      <trkpt lat="39.632987016811967" lon="-8.681960972025991">
        <ele>338.51999999999998</ele>
        <time>2025-05-04T08:46:17Z</time>
      </trkpt>
      <trkpt lat="39.6329300198704" lon="-8.681888971477747">
        <ele>338.51999999999998</ele>
        <time>2025-05-04T08:46:18Z</time>
      </trkpt>
      <trkpt lat="39.63265098631382" lon="-8.681525029242039">
        <ele>338.04000000000002</ele>
        <time>2025-05-04T08:46:23Z</time>
      </trkpt>
      <trkpt lat="39.632438002154231" lon="-8.681237027049065">
        <ele>337.56</ele>
        <time>2025-05-04T08:46:27Z</time>
      </trkpt>
      <trkpt lat="39.632326019927859" lon="-8.681090008467436">
        <ele>337.07999999999998</ele>
        <time>2025-05-04T08:46:29Z</time>
      </trkpt>
      <trkpt lat="39.632098032161593" lon="-8.680823966860771">
        <ele>336.12</ele>
        <time>2025-05-04T08:46:33Z</time>
      </trkpt>
      <trkpt lat="39.631947996094823" lon="-8.680650964379311">
        <ele>334.68000000000001</ele>
        <time>2025-05-04T08:46:36Z</time>
      </trkpt>
      <trkpt lat="39.63189703412354" lon="-8.680592039600015">
        <ele>333.70999999999998</ele>
        <time>2025-05-04T08:46:37Z</time>
      </trkpt>
      <trkpt lat="39.631738029420376" lon="-8.680408978834748">
        <ele>331.31</ele>
        <time>2025-05-04T08:46:40Z</time>
      </trkpt>
      <trkpt lat="39.6316849719733" lon="-8.68034795857966">
        <ele>330.82999999999998</ele>
        <time>2025-05-04T08:46:41Z</time>
      </trkpt>
      <trkpt lat="39.63163903914392" lon="-8.680293979123235">
        <ele>330.35000000000002</ele>
        <time>2025-05-04T08:46:42Z</time>
      </trkpt>
      <trkpt lat="39.631600985303521" lon="-8.680249974131584">
        <ele>329.87</ele>
        <time>2025-05-04T08:46:43Z</time>
      </trkpt>
      <trkpt lat="39.631558991968632" lon="-8.680203035473824">
        <ele>329.87</ele>
        <time>2025-05-04T08:46:44Z</time>
      </trkpt>
      <trkpt lat="39.631514986976981" lon="-8.68015299551189">
        <ele>329.38999999999999</ele>
        <time>2025-05-04T08:46:45Z</time>
      </trkpt>
      <trkpt lat="39.631471987813711" lon="-8.68010999634862">
        <ele>329.38999999999999</ele>
        <time>2025-05-04T08:46:46Z</time>
      </trkpt>
      <trkpt lat="39.631354976445436" lon="-8.680186020210385">
        <ele>329.38999999999999</ele>
        <time>2025-05-04T08:46:47Z</time>
      </trkpt>
      <trkpt lat="39.631335027515888" lon="-8.680179985240102">
        <ele>329.38999999999999</ele>
        <time>2025-05-04T08:46:48Z</time>
      </trkpt>
      <trkpt lat="39.631265038624406" lon="-8.680126005783677">
        <ele>329.87</ele>
        <time>2025-05-04T08:46:49Z</time>
      </trkpt>
      <trkpt lat="39.631248023360968" lon="-8.680101027712226">
        <ele>329.38999999999999</ele>
        <time>2025-05-04T08:46:50Z</time>
      </trkpt>
      <trkpt lat="39.631268978118896" lon="-8.679906986653805">
        <ele>328.91000000000003</ele>
        <time>2025-05-04T08:46:51Z</time>
      </trkpt>
      <trkpt lat="39.631244000047445" lon="-8.67987303994596">
        <ele>328.43000000000001</ele>
        <time>2025-05-04T08:46:52Z</time>
      </trkpt>
      <trkpt lat="39.631205024197698" lon="-8.679820988327265">
        <ele>327.94999999999999</ele>
        <time>2025-05-04T08:46:53Z</time>
      </trkpt>
      <trkpt lat="39.630992040038109" lon="-8.679548995569348">
        <ele>325.06</ele>
        <time>2025-05-04T08:46:58Z</time>
      </trkpt>
      <trkpt lat="39.630949040874839" lon="-8.679495016112924">
        <ele>324.57999999999998</ele>
        <time>2025-05-04T08:46:59Z</time>
      </trkpt>
      <trkpt lat="39.630868993699551" lon="-8.679394014179707">
        <ele>323.13999999999999</ele>
        <time>2025-05-04T08:47:01Z</time>
      </trkpt>
      <trkpt lat="39.630829012021422" lon="-8.679343974217773">
        <ele>322.66000000000003</ele>
        <time>2025-05-04T08:47:02Z</time>
      </trkpt>
      <trkpt lat="39.630788024514914" lon="-8.679292006418109">
        <ele>322.18000000000001</ele>
        <time>2025-05-04T08:47:03Z</time>
      </trkpt>
      <trkpt lat="39.630333976820111" lon="-8.678725976496935">
        <ele>320.25999999999999</ele>
        <time>2025-05-04T08:47:12Z</time>
      </trkpt>
      <trkpt lat="39.629531996324658" lon="-8.677735989913344">
        <ele>316.88999999999999</ele>
        <time>2025-05-04T08:47:21Z</time>
      </trkpt>
      <trkpt lat="39.629237037152052" lon="-8.677369030192494">
        <ele>314.97000000000003</ele>
        <time>2025-05-04T08:47:24Z</time>
      </trkpt>
      <trkpt lat="39.626990016549826" lon="-8.674485990777612">
        <ele>320.74000000000001</ele>
        <time>2025-05-04T08:47:47Z</time>
      </trkpt>
      <trkpt lat="39.626877028495073" lon="-8.674270994961262">
        <ele>322.66000000000003</ele>
        <time>2025-05-04T08:47:49Z</time>
      </trkpt>
      <trkpt lat="39.62680896744132" lon="-8.674114001914859">
        <ele>325.06</ele>
        <time>2025-05-04T08:47:51Z</time>
      </trkpt>
      <trkpt lat="39.62669899687171" lon="-8.673628019168973">
        <ele>331.79000000000002</ele>
        <time>2025-05-04T08:47:57Z</time>
      </trkpt>
      <trkpt lat="39.626705031841993" lon="-8.673474965617061">
        <ele>333.70999999999998</ele>
        <time>2025-05-04T08:47:59Z</time>
      </trkpt>
      <trkpt lat="39.626708971336484" lon="-8.673399025574327">
        <ele>334.19999999999999</ele>
        <time>2025-05-04T08:48:00Z</time>
      </trkpt>
      <trkpt lat="39.626712994650006" lon="-8.67332199588418">
        <ele>335.16000000000003</ele>
        <time>2025-05-04T08:48:01Z</time>
      </trkpt>
      <trkpt lat="39.626717017963529" lon="-8.673248989507556">
        <ele>335.63999999999999</ele>
        <time>2025-05-04T08:48:02Z</time>
      </trkpt>
      <trkpt lat="39.62672003544867" lon="-8.673190986737609">
        <ele>336.12</ele>
        <time>2025-05-04T08:48:03Z</time>
      </trkpt>
      <trkpt lat="39.626737972721457" lon="-8.67310599423945">
        <ele>336.60000000000002</ele>
        <time>2025-05-04T08:48:04Z</time>
      </trkpt>
      <trkpt lat="39.626752976328135" lon="-8.673034999519587">
        <ele>337.07999999999998</ele>
        <time>2025-05-04T08:48:05Z</time>
      </trkpt>
      <trkpt lat="39.626767979934812" lon="-8.672960987314582">
        <ele>337.56</ele>
        <time>2025-05-04T08:48:06Z</time>
      </trkpt>
      <trkpt lat="39.626783989369869" lon="-8.672882029786706">
        <ele>337.56</ele>
        <time>2025-05-04T08:48:07Z</time>
      </trkpt>
      <trkpt lat="39.626949029043317" lon="-8.672068985179067">
        <ele>339.95999999999998</ele>
        <time>2025-05-04T08:48:16Z</time>
      </trkpt>
      <trkpt lat="39.626964032649994" lon="-8.671993967145681">
        <ele>339.95999999999998</ele>
        <time>2025-05-04T08:48:17Z</time>
      </trkpt>
      <trkpt lat="39.62697803042829" lon="-8.67192498408258">
        <ele>340.44</ele>
        <time>2025-05-04T08:48:18Z</time>
      </trkpt>
      <trkpt lat="39.626990016549826" lon="-8.671863041818142">
        <ele>340.44</ele>
        <time>2025-05-04T08:48:19Z</time>
      </trkpt>
      <trkpt lat="39.627002002671361" lon="-8.671806966885924">
        <ele>340.44</ele>
        <time>2025-05-04T08:48:20Z</time>
      </trkpt>
      <trkpt lat="39.62702102959156" lon="-8.671455010771751">
        <ele>341.41000000000003</ele>
        <time>2025-05-04T08:48:27Z</time>
      </trkpt>
      <trkpt lat="39.627057993784547" lon="-8.671398013830185">
        <ele>341.41000000000003</ele>
        <time>2025-05-04T08:48:28Z</time>
      </trkpt>
      <trkpt lat="39.62708699516952" lon="-8.671388039365411">
        <ele>341.88999999999999</ele>
        <time>2025-05-04T08:48:29Z</time>
      </trkpt>
      <trkpt lat="39.627115996554494" lon="-8.671378986909986">
        <ele>342.37</ele>
        <time>2025-05-04T08:48:30Z</time>
      </trkpt>
      <trkpt lat="39.627163019031286" lon="-8.671380998566747">
        <ele>342.85000000000002</ele>
        <time>2025-05-04T08:48:31Z</time>
      </trkpt>
      <trkpt lat="39.627185985445976" lon="-8.671403964981437">
        <ele>343.32999999999998</ele>
        <time>2025-05-04T08:48:32Z</time>
      </trkpt>
      <trkpt lat="39.62719202041626" lon="-8.671455010771751">
        <ele>343.81</ele>
        <time>2025-05-04T08:48:33Z</time>
      </trkpt>
      <trkpt lat="39.62719202041626" lon="-8.671501027420163">
        <ele>343.81</ele>
        <time>2025-05-04T08:48:34Z</time>
      </trkpt>
      <trkpt lat="39.62719202041626" lon="-8.67153899744153">
        <ele>344.29000000000002</ele>
        <time>2025-05-04T08:48:35Z</time>
      </trkpt>
      <trkpt lat="39.627029998227954" lon="-8.671657014638186">
        <ele>343.81</ele>
        <time>2025-05-04T08:48:38Z</time>
      </trkpt>
      <trkpt lat="39.626995967701077" lon="-8.671833034604788">
        <ele>342.37</ele>
        <time>2025-05-04T08:48:41Z</time>
      </trkpt>
      <trkpt lat="39.626982975751162" lon="-8.67190201766789">
        <ele>341.88999999999999</ele>
        <time>2025-05-04T08:48:42Z</time>
      </trkpt>
      <trkpt lat="39.626803016290069" lon="-8.672791002318263">
        <ele>338.04000000000002</ele>
        <time>2025-05-04T08:48:53Z</time>
      </trkpt>
      <trkpt lat="39.626751970499754" lon="-8.673039022833109">
        <ele>337.07999999999998</ele>
        <time>2025-05-04T08:48:56Z</time>
      </trkpt>
      <trkpt lat="39.626735039055347" lon="-8.673123009502888">
        <ele>337.07999999999998</ele>
        <time>2025-05-04T08:48:57Z</time>
      </trkpt>
      <trkpt lat="39.626705031841993" lon="-8.673464991152287">
        <ele>336.60000000000002</ele>
        <time>2025-05-04T08:49:01Z</time>
      </trkpt>
      <trkpt lat="39.626701008528471" lon="-8.67353598587215">
        <ele>336.12</ele>
        <time>2025-05-04T08:49:02Z</time>
      </trkpt>
      <trkpt lat="39.62669899687171" lon="-8.673660038039088">
        <ele>336.12</ele>
        <time>2025-05-04T08:49:04Z</time>
      </trkpt>
      <trkpt lat="39.626717017963529" lon="-8.67379498668015">
        <ele>336.12</ele>
        <time>2025-05-04T08:49:06Z</time>
      </trkpt>
      <trkpt lat="39.626736966893077" lon="-8.673868998885155">
        <ele>335.63999999999999</ele>
        <time>2025-05-04T08:49:07Z</time>
      </trkpt>
      <trkpt lat="39.626791030168533" lon="-8.673940999433398">
        <ele>336.12</ele>
        <time>2025-05-04T08:49:08Z</time>
      </trkpt>
      <trkpt lat="39.626833023503423" lon="-8.674016017466784">
        <ele>336.60000000000002</ele>
        <time>2025-05-04T08:49:09Z</time>
      </trkpt>
      <trkpt lat="39.626880967989564" lon="-8.674102015793324">
        <ele>337.56</ele>
        <time>2025-05-04T08:49:10Z</time>
      </trkpt>
      <trkpt lat="39.626965960487723" lon="-8.674254985526204">
        <ele>338.04000000000002</ele>
        <time>2025-05-04T08:49:12Z</time>
      </trkpt>
      <trkpt lat="39.62715002708137" lon="-8.674585986882448">
        <ele>340.92000000000002</ele>
        <time>2025-05-04T08:49:17Z</time>
      </trkpt>
      <trkpt lat="39.62723602540791" lon="-8.674692017957568">
        <ele>341.41000000000003</ele>
        <time>2025-05-04T08:49:19Z</time>
      </trkpt>
      <trkpt lat="39.627485973760486" lon="-8.675174983218312">
        <ele>341.41000000000003</ele>
        <time>2025-05-04T08:49:27Z</time>
      </trkpt>
      <trkpt lat="39.627522015944123" lon="-8.675223011523485">
        <ele>341.41000000000003</ele>
        <time>2025-05-04T08:49:28Z</time>
      </trkpt>
      <trkpt lat="39.62762201204896" lon="-8.675165008753538">
        <ele>341.41000000000003</ele>
        <time>2025-05-04T08:49:29Z</time>
      </trkpt>
      <trkpt lat="39.627655036747456" lon="-8.675214964896441">
        <ele>341.41000000000003</ele>
        <time>2025-05-04T08:49:30Z</time>
      </trkpt>
      <trkpt lat="39.627679008990526" lon="-8.675251007080078">
        <ele>341.41000000000003</ele>
        <time>2025-05-04T08:49:31Z</time>
      </trkpt>
      <trkpt lat="39.627697030082345" lon="-8.675277996808291">
        <ele>341.41000000000003</ele>
        <time>2025-05-04T08:49:32Z</time>
      </trkpt>
      <trkpt lat="39.627712033689022" lon="-8.675300963222981">
        <ele>341.41000000000003</ele>
        <time>2025-05-04T08:49:33Z</time>
      </trkpt>
      <trkpt lat="39.627727037295699" lon="-8.675323007628322">
        <ele>340.92000000000002</ele>
        <time>2025-05-04T08:49:34Z</time>
      </trkpt>
      <trkpt lat="39.627742040902376" lon="-8.675345974043012">
        <ele>340.92000000000002</ele>
        <time>2025-05-04T08:49:35Z</time>
      </trkpt>
      <trkpt lat="39.627756960690022" lon="-8.675368018448353">
        <ele>340.92000000000002</ele>
        <time>2025-05-04T08:49:36Z</time>
      </trkpt>
      <trkpt lat="39.627770958468318" lon="-8.675388973206282">
        <ele>340.44</ele>
        <time>2025-05-04T08:49:37Z</time>
      </trkpt>
      <trkpt lat="39.627783028408885" lon="-8.675408000126481">
        <ele>339.95999999999998</ele>
        <time>2025-05-04T08:49:38Z</time>
      </trkpt>
      <trkpt lat="39.62779501453042" lon="-8.6754260212183">
        <ele>339.95999999999998</ele>
        <time>2025-05-04T08:49:39Z</time>
      </trkpt>
      <trkpt lat="39.627890987321734" lon="-8.675618972629309">
        <ele>341.41000000000003</ele>
        <time>2025-05-04T08:49:49Z</time>
      </trkpt>
      <trkpt lat="39.627885036170483" lon="-8.67566398344934">
        <ele>340.92000000000002</ele>
        <time>2025-05-04T08:50:01Z</time>
      </trkpt>
      <trkpt lat="39.627879001200199" lon="-8.675702037289739">
        <ele>340.92000000000002</ele>
        <time>2025-05-04T08:50:02Z</time>
      </trkpt>
      <trkpt lat="39.627876989543438" lon="-8.675701031461358">
        <ele>340.44</ele>
        <time>2025-05-04T08:50:03Z</time>
      </trkpt>
      <trkpt lat="39.627879001200199" lon="-8.675702037289739">
        <ele>340.92000000000002</ele>
        <time>2025-05-04T08:50:13Z</time>
      </trkpt>
      <trkpt lat="39.627879001200199" lon="-8.675702037289739">
        <ele>340.92000000000002</ele>
        <time>2025-05-04T08:50:14Z</time>
      </trkpt>
      <trkpt lat="39.627879001200199" lon="-8.675702037289739">
        <ele>341.88999999999999</ele>
        <time>2025-05-04T08:50:27Z</time>
      </trkpt>
      <trkpt lat="39.627879001200199" lon="-8.675702037289739">
        <ele>341.88999999999999</ele>
        <time>2025-05-04T08:50:36Z</time>
      </trkpt>
      <trkpt lat="39.627682026475668" lon="-8.675851989537478">
        <ele>386.58999999999997</ele>
        <time>2025-05-04T10:15:51Z</time>
      </trkpt>
      <trkpt lat="39.627703987061977" lon="-8.675944022834301">
        <ele>355.33999999999997</ele>
        <time>2025-05-04T10:16:38Z</time>
      </trkpt>
      <trkpt lat="39.627742040902376" lon="-8.675910998135805">
        <ele>353.42000000000002</ele>
        <time>2025-05-04T10:17:24Z</time>
      </trkpt>
      <trkpt lat="39.627753021195531" lon="-8.675913009792566">
        <ele>353.42000000000002</ele>
        <time>2025-05-04T10:17:54Z</time>
      </trkpt>
      <trkpt lat="39.627753021195531" lon="-8.675916027277708">
        <ele>353.42000000000002</ele>
        <time>2025-05-04T10:18:37Z</time>
      </trkpt>
      <trkpt lat="39.627753021195531" lon="-8.675916027277708">
        <ele>353.42000000000002</ele>
        <time>2025-05-04T10:18:53Z</time>
      </trkpt>
      <trkpt lat="39.627710022032261" lon="-8.675854001194239">
        <ele>351.98000000000002</ele>
        <time>2025-05-04T10:19:00Z</time>
      </trkpt>
      <trkpt lat="39.627737011760473" lon="-8.675824999809265">
        <ele>351.98000000000002</ele>
        <time>2025-05-04T10:19:04Z</time>
      </trkpt>
      <trkpt lat="39.627789985388517" lon="-8.675803961232305">
        <ele>351.5</ele>
        <time>2025-05-04T10:19:11Z</time>
      </trkpt>
      <trkpt lat="39.627750003710389" lon="-8.675659038126469">
        <ele>351.01999999999998</ele>
        <time>2025-05-04T10:19:13Z</time>
      </trkpt>
      <trkpt lat="39.627750003710389" lon="-8.675659038126469">
        <ele>351.01999999999998</ele>
        <time>2025-05-04T10:19:14Z</time>
      </trkpt>
      <trkpt lat="39.627746986225247" lon="-8.675654008984566">
        <ele>350.54000000000002</ele>
        <time>2025-05-04T10:19:15Z</time>
      </trkpt>
      <trkpt lat="39.6277080103755" lon="-8.675603969022632">
        <ele>350.06</ele>
        <time>2025-05-04T10:19:16Z</time>
      </trkpt>
      <trkpt lat="39.627670962363482" lon="-8.67555602453649">
        <ele>350.06</ele>
        <time>2025-05-04T10:19:17Z</time>
      </trkpt>
      <trkpt lat="39.627211969345808" lon="-8.674981025978923">
        <ele>347.64999999999998</ele>
        <time>2025-05-04T10:19:28Z</time>
      </trkpt>
      <trkpt lat="39.626833023503423" lon="-8.674376020208001">
        <ele>346.69</ele>
        <time>2025-05-04T10:19:38Z</time>
      </trkpt>
      <trkpt lat="39.626812990754843" lon="-8.674317011609674">
        <ele>346.20999999999998</ele>
        <time>2025-05-04T10:19:39Z</time>
      </trkpt>
      <trkpt lat="39.626727998256683" lon="-8.67392398416996">
        <ele>346.69</ele>
        <time>2025-05-04T10:19:48Z</time>
      </trkpt>
      <trkpt lat="39.62669899687171" lon="-8.673576973378658">
        <ele>346.20999999999998</ele>
        <time>2025-05-04T10:19:54Z</time>
      </trkpt>
      <trkpt lat="39.626702014356852" lon="-8.673515031114221">
        <ele>345.73000000000002</ele>
        <time>2025-05-04T10:19:55Z</time>
      </trkpt>
      <trkpt lat="39.626706037670374" lon="-8.673443030565977">
        <ele>345.73000000000002</ele>
        <time>2025-05-04T10:19:56Z</time>
      </trkpt>
      <trkpt lat="39.626770997419953" lon="-8.672946989536285">
        <ele>345.73000000000002</ele>
        <time>2025-05-04T10:20:04Z</time>
      </trkpt>
      <trkpt lat="39.626797987148166" lon="-8.672814974561334">
        <ele>345.25</ele>
        <time>2025-05-04T10:20:06Z</time>
      </trkpt>
      <trkpt lat="39.626811984926462" lon="-8.672750014811754">
        <ele>345.25</ele>
        <time>2025-05-04T10:20:07Z</time>
      </trkpt>
      <trkpt lat="39.626840986311436" lon="-8.67261003702879">
        <ele>344.76999999999998</ele>
        <time>2025-05-04T10:20:09Z</time>
      </trkpt>
      <trkpt lat="39.626855989918113" lon="-8.672536024823785">
        <ele>344.76999999999998</ele>
        <time>2025-05-04T10:20:10Z</time>
      </trkpt>
      <trkpt lat="39.62687099352479" lon="-8.67246201261878">
        <ele>344.76999999999998</ele>
        <time>2025-05-04T10:20:11Z</time>
      </trkpt>
      <trkpt lat="39.626885997131467" lon="-8.672385988757014">
        <ele>344.76999999999998</ele>
        <time>2025-05-04T10:20:12Z</time>
      </trkpt>
      <trkpt lat="39.626898989081383" lon="-8.672317005693913">
        <ele>344.76999999999998</ele>
        <time>2025-05-04T10:20:13Z</time>
      </trkpt>
      <trkpt lat="39.626912986859679" lon="-8.672251040115953">
        <ele>344.76999999999998</ele>
        <time>2025-05-04T10:20:14Z</time>
      </trkpt>
      <trkpt lat="39.626924972981215" lon="-8.672188008204103">
        <ele>344.76999999999998</ele>
        <time>2025-05-04T10:20:15Z</time>
      </trkpt>
      <trkpt lat="39.626938970759511" lon="-8.672119025141001">
        <ele>344.76999999999998</ele>
        <time>2025-05-04T10:20:16Z</time>
      </trkpt>
      <trkpt lat="39.626952968537807" lon="-8.672051969915628">
        <ele>344.76999999999998</ele>
        <time>2025-05-04T10:20:17Z</time>
      </trkpt>
      <trkpt lat="39.626964032649994" lon="-8.671994972974062">
        <ele>344.29000000000002</ele>
        <time>2025-05-04T10:20:18Z</time>
      </trkpt>
      <trkpt lat="39.627022035419941" lon="-8.671700013801456">
        <ele>342.85000000000002</ele>
        <time>2025-05-04T10:20:24Z</time>
      </trkpt>
      <trkpt lat="39.62702102959156" lon="-8.67153899744153">
        <ele>342.37</ele>
        <time>2025-05-04T10:20:26Z</time>
      </trkpt>
      <trkpt lat="39.62702102959156" lon="-8.671501027420163">
        <ele>341.88999999999999</ele>
        <time>2025-05-04T10:20:27Z</time>
      </trkpt>
      <trkpt lat="39.627050030976534" lon="-8.671401031315327">
        <ele>341.88999999999999</ele>
        <time>2025-05-04T10:20:28Z</time>
      </trkpt>
      <trkpt lat="39.627081966027617" lon="-8.67138996720314">
        <ele>341.88999999999999</ele>
        <time>2025-05-04T10:20:29Z</time>
      </trkpt>
      <trkpt lat="39.62715296074748" lon="-8.671371024101973">
        <ele>341.88999999999999</ele>
        <time>2025-05-04T10:20:30Z</time>
      </trkpt>
      <trkpt lat="39.627177016809583" lon="-8.671393990516663">
        <ele>341.41000000000003</ele>
        <time>2025-05-04T10:20:31Z</time>
      </trkpt>
      <trkpt lat="39.62719202041626" lon="-8.671463979408145">
        <ele>340.92000000000002</ele>
        <time>2025-05-04T10:20:32Z</time>
      </trkpt>
      <trkpt lat="39.62719202041626" lon="-8.671509996056557">
        <ele>340.92000000000002</ele>
        <time>2025-05-04T10:20:33Z</time>
      </trkpt>
      <trkpt lat="39.62719202041626" lon="-8.67153899744153">
        <ele>340.92000000000002</ele>
        <time>2025-05-04T10:20:34Z</time>
      </trkpt>
      <trkpt lat="39.627138962969184" lon="-8.671554001048207">
        <ele>340.92000000000002</ele>
        <time>2025-05-04T10:20:35Z</time>
      </trkpt>
      <trkpt lat="39.627033015713096" lon="-8.671634970232844">
        <ele>341.41000000000003</ele>
        <time>2025-05-04T10:20:36Z</time>
      </trkpt>
      <trkpt lat="39.627022035419941" lon="-8.671704959124327">
        <ele>340.92000000000002</ele>
        <time>2025-05-04T10:20:37Z</time>
      </trkpt>
      <trkpt lat="39.627009965479374" lon="-8.671762961894274">
        <ele>340.92000000000002</ele>
        <time>2025-05-04T10:20:38Z</time>
      </trkpt>
      <trkpt lat="39.626998985186219" lon="-8.671820964664221">
        <ele>340.44</ele>
        <time>2025-05-04T10:20:39Z</time>
      </trkpt>
      <trkpt lat="39.626986999064684" lon="-8.671877961605787">
        <ele>340.44</ele>
        <time>2025-05-04T10:20:40Z</time>
      </trkpt>
      <trkpt lat="39.626975012943149" lon="-8.671940993517637">
        <ele>340.44</ele>
        <time>2025-05-04T10:20:41Z</time>
      </trkpt>
      <trkpt lat="39.626961015164852" lon="-8.672008970752358">
        <ele>339.95999999999998</ele>
        <time>2025-05-04T10:20:42Z</time>
      </trkpt>
      <trkpt lat="39.626946011558175" lon="-8.672084994614124">
        <ele>339.95999999999998</ele>
        <time>2025-05-04T10:20:43Z</time>
      </trkpt>
      <trkpt lat="39.626930002123117" lon="-8.672166969627142">
        <ele>339.48000000000002</ele>
        <time>2025-05-04T10:20:44Z</time>
      </trkpt>
      <trkpt lat="39.626912986859679" lon="-8.672251962125301">
        <ele>339</ele>
        <time>2025-05-04T10:20:45Z</time>
      </trkpt>
      <trkpt lat="39.626822965219617" lon="-8.67269704118371">
        <ele>341.41000000000003</ele>
        <time>2025-05-04T10:20:50Z</time>
      </trkpt>
      <trkpt lat="39.626778038218617" lon="-8.672912959009409">
        <ele>343.81</ele>
        <time>2025-05-04T10:20:53Z</time>
      </trkpt>
      <trkpt lat="39.62676496244967" lon="-8.672975990921259">
        <ele>344.29000000000002</ele>
        <time>2025-05-04T10:20:54Z</time>
      </trkpt>
      <trkpt lat="39.626750964671373" lon="-8.67304103448987">
        <ele>345.25</ele>
        <time>2025-05-04T10:20:55Z</time>
      </trkpt>
      <trkpt lat="39.626735961064696" lon="-8.673114040866494">
        <ele>346.20999999999998</ele>
        <time>2025-05-04T10:20:56Z</time>
      </trkpt>
      <trkpt lat="39.62672003544867" lon="-8.673201967030764">
        <ele>346.69</ele>
        <time>2025-05-04T10:20:57Z</time>
      </trkpt>
      <trkpt lat="39.626715006306767" lon="-8.673291988670826">
        <ele>347.17000000000002</ele>
        <time>2025-05-04T10:20:58Z</time>
      </trkpt>
      <trkpt lat="39.626716012135148" lon="-8.673790041357279">
        <ele>351.98000000000002</ele>
        <time>2025-05-04T10:21:04Z</time>
      </trkpt>
      <trkpt lat="39.626782983541489" lon="-8.674025991931558">
        <ele>353.89999999999998</ele>
        <time>2025-05-04T10:21:07Z</time>
      </trkpt>
      <trkpt lat="39.62680603377521" lon="-8.674104027450085">
        <ele>354.38</ele>
        <time>2025-05-04T10:21:08Z</time>
      </trkpt>
      <trkpt lat="39.627290004864335" lon="-8.674908019602299">
        <ele>358.70999999999998</ele>
        <time>2025-05-04T10:21:17Z</time>
      </trkpt>
      <trkpt lat="39.627632992342114" lon="-8.675372041761875">
        <ele>359.19</ele>
        <time>2025-05-04T10:21:21Z</time>
      </trkpt>
      <trkpt lat="39.630190981552005" lon="-8.678549034520984">
        <ele>356.79000000000002</ele>
        <time>2025-05-04T10:21:48Z</time>
      </trkpt>
      <trkpt lat="39.630373036488891" lon="-8.678775010630488">
        <ele>356.31</ele>
        <time>2025-05-04T10:21:51Z</time>
      </trkpt>
      <trkpt lat="39.630413018167019" lon="-8.678823038935661">
        <ele>356.31</ele>
        <time>2025-05-04T10:21:52Z</time>
      </trkpt>
      <trkpt lat="39.630451994016767" lon="-8.678870983421803">
        <ele>356.31</ele>
        <time>2025-05-04T10:21:53Z</time>
      </trkpt>
      <trkpt lat="39.630560958757997" lon="-8.679006015881896">
        <ele>355.82999999999998</ele>
        <time>2025-05-04T10:21:55Z</time>
      </trkpt>
      <trkpt lat="39.630579985678196" lon="-8.679029988124967">
        <ele>355.82999999999998</ele>
        <time>2025-05-04T10:21:56Z</time>
      </trkpt>
      <trkpt lat="39.63060999289155" lon="-8.679067958146334">
        <ele>355.82999999999998</ele>
        <time>2025-05-04T10:21:57Z</time>
      </trkpt>
      <trkpt lat="39.630642011761665" lon="-8.679108023643494">
        <ele>355.33999999999997</ele>
        <time>2025-05-04T10:21:58Z</time>
      </trkpt>
      <trkpt lat="39.630672018975019" lon="-8.67914498783648">
        <ele>354.86000000000001</ele>
        <time>2025-05-04T10:21:59Z</time>
      </trkpt>
      <trkpt lat="39.630699008703232" lon="-8.679180024191737">
        <ele>354.38</ele>
        <time>2025-05-04T10:22:00Z</time>
      </trkpt>
      <trkpt lat="39.630732033401728" lon="-8.679221011698246">
        <ele>354.38</ele>
        <time>2025-05-04T10:22:01Z</time>
      </trkpt>
      <trkpt lat="39.630760028958321" lon="-8.679255964234471">
        <ele>354.38</ele>
        <time>2025-05-04T10:22:02Z</time>
      </trkpt>
      <trkpt lat="39.630782995373011" lon="-8.679284965619445">
        <ele>354.38</ele>
        <time>2025-05-04T10:22:03Z</time>
      </trkpt>
      <trkpt lat="39.630805961787701" lon="-8.679313967004418">
        <ele>353.89999999999998</ele>
        <time>2025-05-04T10:22:04Z</time>
      </trkpt>
      <trkpt lat="39.630829012021422" lon="-8.679342968389392">
        <ele>353.42000000000002</ele>
        <time>2025-05-04T10:22:05Z</time>
      </trkpt>
      <trkpt lat="39.630865976214409" lon="-8.679389990866184">
        <ele>352.94</ele>
        <time>2025-05-04T10:22:07Z</time>
      </trkpt>
      <trkpt lat="39.630911992862821" lon="-8.679447993636131">
        <ele>351.98000000000002</ele>
        <time>2025-05-04T10:22:17Z</time>
      </trkpt>
      <trkpt lat="39.631140986457467" lon="-8.679735995829105">
        <ele>351.5</ele>
        <time>2025-05-04T10:22:31Z</time>
      </trkpt>
      <trkpt lat="39.631493026390672" lon="-8.68013103492558">
        <ele>351.01999999999998</ele>
        <time>2025-05-04T10:22:41Z</time>
      </trkpt>
      <trkpt lat="39.631529990583658" lon="-8.680167999118567">
        <ele>351.01999999999998</ele>
        <time>2025-05-04T10:22:42Z</time>
      </trkpt>
      <trkpt lat="39.631597967818379" lon="-8.680247040465474">
        <ele>351.01999999999998</ele>
        <time>2025-05-04T10:22:44Z</time>
      </trkpt>
      <trkpt lat="39.631634010002017" lon="-8.680288027971983">
        <ele>351.01999999999998</ele>
        <time>2025-05-04T10:22:45Z</time>
      </trkpt>
      <trkpt lat="39.631668962538242" lon="-8.680329015478492">
        <ele>350.54000000000002</ele>
        <time>2025-05-04T10:22:46Z</time>
      </trkpt>
      <trkpt lat="39.631691006943583" lon="-8.680353993549943">
        <ele>350.54000000000002</ele>
        <time>2025-05-04T10:22:47Z</time>
      </trkpt>
      <trkpt lat="39.631713973358274" lon="-8.680379977449775">
        <ele>350.54000000000002</ele>
        <time>2025-05-04T10:22:48Z</time>
      </trkpt>
      <trkpt lat="39.631749009713531" lon="-8.680420964956284">
        <ele>350.54000000000002</ele>
        <time>2025-05-04T10:22:49Z</time>
      </trkpt>
      <trkpt lat="39.631786979734898" lon="-8.680463964119554">
        <ele>350.54000000000002</ele>
        <time>2025-05-04T10:22:50Z</time>
      </trkpt>
      <trkpt lat="39.632013039663434" lon="-8.680725982412696">
        <ele>350.54000000000002</ele>
        <time>2025-05-04T10:22:55Z</time>
      </trkpt>
      <trkpt lat="39.632116975262761" lon="-8.680845005437732">
        <ele>350.06</ele>
        <time>2025-05-04T10:22:57Z</time>
      </trkpt>
      <trkpt lat="39.632315039634705" lon="-8.681076010689139">
        <ele>349.10000000000002</ele>
        <time>2025-05-04T10:23:01Z</time>
      </trkpt>
      <trkpt lat="39.632366001605988" lon="-8.681139964610338">
        <ele>348.62</ele>
        <time>2025-05-04T10:23:02Z</time>
      </trkpt>
      <trkpt lat="39.632415035739541" lon="-8.68120601400733">
        <ele>348.13</ele>
        <time>2025-05-04T10:23:03Z</time>
      </trkpt>
      <trkpt lat="39.632504973560572" lon="-8.681331994011998">
        <ele>347.64999999999998</ele>
        <time>2025-05-04T10:23:05Z</time>
      </trkpt>
      <trkpt lat="39.632546966895461" lon="-8.681387985125184">
        <ele>347.64999999999998</ele>
        <time>2025-05-04T10:23:06Z</time>
      </trkpt>
      <trkpt lat="39.632584014907479" lon="-8.681437019258738">
        <ele>347.64999999999998</ele>
        <time>2025-05-04T10:23:07Z</time>
      </trkpt>
      <trkpt lat="39.632622990757227" lon="-8.681487981230021">
        <ele>347.64999999999998</ele>
        <time>2025-05-04T10:23:08Z</time>
      </trkpt>
      <trkpt lat="39.632664984092116" lon="-8.681542966514826">
        <ele>347.64999999999998</ele>
        <time>2025-05-04T10:23:09Z</time>
      </trkpt>
      <trkpt lat="39.632709994912148" lon="-8.681602980941534">
        <ele>347.64999999999998</ele>
        <time>2025-05-04T10:23:10Z</time>
      </trkpt>
      <trkpt lat="39.632760034874082" lon="-8.681668024510145">
        <ele>347.64999999999998</ele>
        <time>2025-05-04T10:23:11Z</time>
      </trkpt>
      <trkpt lat="39.632813008502126" lon="-8.681737007573247">
        <ele>347.64999999999998</ele>
        <time>2025-05-04T10:23:12Z</time>
      </trkpt>
      <trkpt lat="39.63286698795855" lon="-8.68180800229311">
        <ele>347.64999999999998</ele>
        <time>2025-05-04T10:23:13Z</time>
      </trkpt>
      <trkpt lat="39.632923984900117" lon="-8.681881008669734">
        <ele>348.13</ele>
        <time>2025-05-04T10:23:14Z</time>
      </trkpt>
      <trkpt lat="39.632983999326825" lon="-8.6819570325315">
        <ele>348.13</ele>
        <time>2025-05-04T10:23:15Z</time>
      </trkpt>
      <trkpt lat="39.633046025410295" lon="-8.682034984230995">
        <ele>348.62</ele>
        <time>2025-05-04T10:23:16Z</time>
      </trkpt>
      <trkpt lat="39.633100004866719" lon="-8.682104973122478">
        <ele>348.62</ele>
        <time>2025-05-04T10:23:17Z</time>
      </trkpt>
      <trkpt lat="39.633146021515131" lon="-8.682160964235663">
        <ele>348.62</ele>
        <time>2025-05-04T10:23:18Z</time>
      </trkpt>
      <trkpt lat="39.633192960172892" lon="-8.682219972833991">
        <ele>349.10000000000002</ele>
        <time>2025-05-04T10:23:19Z</time>
      </trkpt>
      <trkpt lat="39.633235959336162" lon="-8.682272024452686">
        <ele>349.10000000000002</ele>
        <time>2025-05-04T10:23:20Z</time>
      </trkpt>
      <trkpt lat="39.633278036490083" lon="-8.68232499808073">
        <ele>349.10000000000002</ele>
        <time>2025-05-04T10:23:21Z</time>
      </trkpt>
      <trkpt lat="39.633320029824972" lon="-8.682376965880394">
        <ele>349.10000000000002</ele>
        <time>2025-05-04T10:23:22Z</time>
      </trkpt>
      <trkpt lat="39.63335900567472" lon="-8.682426000013948">
        <ele>349.57999999999998</ele>
        <time>2025-05-04T10:23:23Z</time>
      </trkpt>
      <trkpt lat="39.633392030373216" lon="-8.682466987520456">
        <ele>349.10000000000002</ele>
        <time>2025-05-04T10:23:24Z</time>
      </trkpt>
      <trkpt lat="39.633422959595919" lon="-8.682504035532475">
        <ele>349.57999999999998</ele>
        <time>2025-05-04T10:23:25Z</time>
      </trkpt>
      <trkpt lat="39.633452966809273" lon="-8.682542005553842">
        <ele>349.57999999999998</ele>
        <time>2025-05-04T10:23:26Z</time>
      </trkpt>
      <trkpt lat="39.633481968194246" lon="-8.682577041909099">
        <ele>349.57999999999998</ele>
        <time>2025-05-04T10:23:27Z</time>
      </trkpt>
      <trkpt lat="39.63351096957922" lon="-8.682614006102085">
        <ele>349.57999999999998</ele>
        <time>2025-05-04T10:23:28Z</time>
      </trkpt>
      <trkpt lat="39.633578024804592" lon="-8.682696986943483">
        <ele>349.10000000000002</ele>
        <time>2025-05-04T10:23:31Z</time>
      </trkpt>
      <trkpt lat="39.633582970127463" lon="-8.682703021913767">
        <ele>345.73000000000002</ele>
        <time>2025-05-04T10:23:37Z</time>
      </trkpt>
      <trkpt lat="39.633558997884393" lon="-8.682674020528793">
        <ele>346.20999999999998</ele>
        <time>2025-05-04T10:23:38Z</time>
      </trkpt>
      <trkpt lat="39.633533013984561" lon="-8.682640995830298">
        <ele>346.20999999999998</ele>
        <time>2025-05-04T10:23:39Z</time>
      </trkpt>
      <trkpt lat="39.63348900899291" lon="-8.682586010545492">
        <ele>344.76999999999998</ele>
        <time>2025-05-04T10:23:47Z</time>
      </trkpt>
      <trkpt lat="39.633792014792562" lon="-8.68215199559927">
        <ele>299.58999999999997</ele>
        <time>2025-05-04T10:28:17Z</time>
      </trkpt>
      <trkpt lat="39.633422959595919" lon="-8.682533958926797">
        <ele>328.43000000000001</ele>
        <time>2025-05-04T10:28:42Z</time>
      </trkpt>
      <trkpt lat="39.633330004289746" lon="-8.68262498639524">
        <ele>334.19999999999999</ele>
        <time>2025-05-04T10:29:12Z</time>
      </trkpt>
      <trkpt lat="39.633341990411282" lon="-8.682610988616943">
        <ele>338.51999999999998</ele>
        <time>2025-05-04T10:29:41Z</time>
      </trkpt>
      <trkpt lat="39.633265966549516" lon="-8.682605037465692">
        <ele>339.95999999999998</ele>
        <time>2025-05-04T10:29:46Z</time>
      </trkpt>
      <trkpt lat="39.633245011791587" lon="-8.682530019432306">
        <ele>345.25</ele>
        <time>2025-05-04T10:29:51Z</time>
      </trkpt>
      <trkpt lat="39.633356994017959" lon="-8.682422982528806">
        <ele>342.85000000000002</ele>
        <time>2025-05-04T10:30:08Z</time>
      </trkpt>
      <trkpt lat="39.633393036201596" lon="-8.682467993348837">
        <ele>341.88999999999999</ele>
        <time>2025-05-04T10:30:10Z</time>
      </trkpt>
      <trkpt lat="39.633419020101428" lon="-8.682500012218952">
        <ele>341.41000000000003</ele>
        <time>2025-05-04T10:30:11Z</time>
      </trkpt>
      <trkpt lat="39.633450033143163" lon="-8.682537982240319">
        <ele>340.92000000000002</ele>
        <time>2025-05-04T10:30:12Z</time>
      </trkpt>
      <trkpt lat="39.633522033691406" lon="-8.682628003880382">
        <ele>339.95999999999998</ele>
        <time>2025-05-04T10:30:14Z</time>
      </trkpt>
      <trkpt lat="39.633565032854676" lon="-8.682680977508426">
        <ele>339.48000000000002</ele>
        <time>2025-05-04T10:30:15Z</time>
      </trkpt>
      <trkpt lat="39.633750021457672" lon="-8.682909971103072">
        <ele>338.04000000000002</ele>
        <time>2025-05-04T10:30:19Z</time>
      </trkpt>
      <trkpt lat="39.633794026449323" lon="-8.682965040206909">
        <ele>337.56</ele>
        <time>2025-05-04T10:30:20Z</time>
      </trkpt>
      <trkpt lat="39.633839037269354" lon="-8.683020025491715">
        <ele>337.07999999999998</ele>
        <time>2025-05-04T10:30:21Z</time>
      </trkpt>
      <trkpt lat="39.633880024775863" lon="-8.683070987462997">
        <ele>336.60000000000002</ele>
        <time>2025-05-04T10:30:22Z</time>
      </trkpt>
      <trkpt lat="39.63391799479723" lon="-8.68311800993979">
        <ele>336.12</ele>
        <time>2025-05-04T10:30:23Z</time>
      </trkpt>
      <trkpt lat="39.633955964818597" lon="-8.683165032416582">
        <ele>336.12</ele>
        <time>2025-05-04T10:30:24Z</time>
      </trkpt>
      <trkpt lat="39.633994018658996" lon="-8.683211971074343">
        <ele>335.63999999999999</ele>
        <time>2025-05-04T10:30:25Z</time>
      </trkpt>
      <trkpt lat="39.63402503170073" lon="-8.683251030743122">
        <ele>335.16000000000003</ele>
        <time>2025-05-04T10:30:26Z</time>
      </trkpt>
      <trkpt lat="39.634053027257323" lon="-8.683285983279347">
        <ele>335.16000000000003</ele>
        <time>2025-05-04T10:30:27Z</time>
      </trkpt>
      <trkpt lat="39.634080016985536" lon="-8.683319007977843">
        <ele>334.68000000000001</ele>
        <time>2025-05-04T10:30:28Z</time>
      </trkpt>
      <trkpt lat="39.634098038077354" lon="-8.683343986049295">
        <ele>334.68000000000001</ele>
        <time>2025-05-04T10:30:29Z</time>
      </trkpt>
      <trkpt lat="39.63411396369338" lon="-8.683367036283016">
        <ele>334.68000000000001</ele>
        <time>2025-05-04T10:30:39Z</time>
      </trkpt>
      <trkpt lat="39.634358966723084" lon="-8.683491004630923">
        <ele>337.07999999999998</ele>
        <time>2025-05-04T10:31:01Z</time>
      </trkpt>
      <trkpt lat="39.634401965886354" lon="-8.683468960225582">
        <ele>337.56</ele>
        <time>2025-05-04T10:31:02Z</time>
      </trkpt>
      <trkpt lat="39.634516965597868" lon="-8.683449011296034">
        <ele>338.04000000000002</ele>
        <time>2025-05-04T10:31:04Z</time>
      </trkpt>
      <trkpt lat="39.634568011388183" lon="-8.683459991589189">
        <ele>338.51999999999998</ele>
        <time>2025-05-04T10:31:05Z</time>
      </trkpt>
      <trkpt lat="39.634613022208214" lon="-8.683468960225582">
        <ele>339</ele>
        <time>2025-05-04T10:31:06Z</time>
      </trkpt>
      <trkpt lat="39.634663984179497" lon="-8.683515982702375">
        <ele>339.48000000000002</ele>
        <time>2025-05-04T10:31:07Z</time>
      </trkpt>
      <trkpt lat="39.634707989171147" lon="-8.683560993522406">
        <ele>339.48000000000002</ele>
        <time>2025-05-04T10:31:08Z</time>
      </trkpt>
      <trkpt lat="39.634757023304701" lon="-8.683610027655959">
        <ele>339.48000000000002</ele>
        <time>2025-05-04T10:31:09Z</time>
      </trkpt>
      <trkpt lat="39.634782001376152" lon="-8.683689991012216">
        <ele>339.95999999999998</ele>
        <time>2025-05-04T10:31:10Z</time>
      </trkpt>
      <trkpt lat="39.634797004982829" lon="-8.683761991560459">
        <ele>340.44</ele>
        <time>2025-05-04T10:31:11Z</time>
      </trkpt>
      <trkpt lat="39.634812008589506" lon="-8.683828040957451">
        <ele>340.44</ele>
        <time>2025-05-04T10:31:12Z</time>
      </trkpt>
      <trkpt lat="39.634892977774143" lon="-8.683919990435243">
        <ele>340.44</ele>
        <time>2025-05-04T10:31:13Z</time>
      </trkpt>
      <trkpt lat="39.634960032999516" lon="-8.683919990435243">
        <ele>340.44</ele>
        <time>2025-05-04T10:31:14Z</time>
      </trkpt>
      <trkpt lat="39.634967995807528" lon="-8.683922002092004">
        <ele>340.44</ele>
        <time>2025-05-04T10:31:15Z</time>
      </trkpt>
      <trkpt lat="39.635010994970798" lon="-8.683929964900017">
        <ele>340.44</ele>
        <time>2025-05-04T10:31:16Z</time>
      </trkpt>
      <trkpt lat="39.635052988305688" lon="-8.683939017355442">
        <ele>340.44</ele>
        <time>2025-05-04T10:31:17Z</time>
      </trkpt>
      <trkpt lat="39.635604014620185" lon="-8.684046976268292">
        <ele>341.88999999999999</ele>
        <time>2025-05-04T10:31:26Z</time>
      </trkpt>
      <trkpt lat="39.63645201176405" lon="-8.684195000678301">
        <ele>342.85000000000002</ele>
        <time>2025-05-04T10:31:38Z</time>
      </trkpt>
      <trkpt lat="39.637576024979353" lon="-8.684402033686638">
        <ele>344.29000000000002</ele>
        <time>2025-05-04T10:31:51Z</time>
      </trkpt>
      <trkpt lat="39.638189999386668" lon="-8.684522984549403">
        <ele>345.73000000000002</ele>
        <time>2025-05-04T10:31:58Z</time>
      </trkpt>
      <trkpt lat="39.638976976275444" lon="-8.684661034494638">
        <ele>348.62</ele>
        <time>2025-05-04T10:32:09Z</time>
      </trkpt>
      <trkpt lat="39.639767976477742" lon="-8.684806041419506">
        <ele>351.98000000000002</ele>
        <time>2025-05-04T10:32:18Z</time>
      </trkpt>
      <trkpt lat="39.640431990846992" lon="-8.684929003939033">
        <ele>355.33999999999997</ele>
        <time>2025-05-04T10:32:26Z</time>
      </trkpt>
      <trkpt lat="39.641672009602189" lon="-8.685148023068905">
        <ele>360.63</ele>
        <time>2025-05-04T10:32:40Z</time>
      </trkpt>
      <trkpt lat="39.642967013642192" lon="-8.68539403192699">
        <ele>363.51999999999998</ele>
        <time>2025-05-04T10:32:54Z</time>
      </trkpt>
      <trkpt lat="39.643647959455848" lon="-8.685527974739671">
        <ele>365.44</ele>
        <time>2025-05-04T10:33:04Z</time>
      </trkpt>
      <trkpt lat="39.643812999129295" lon="-8.685557981953025">
        <ele>365.92000000000002</ele>
        <time>2025-05-04T10:33:09Z</time>
      </trkpt>
      <trkpt lat="39.644447006285191" lon="-8.685663007199764">
        <ele>367.36000000000001</ele>
        <time>2025-05-04T10:33:19Z</time>
      </trkpt>
      <trkpt lat="39.645506981760263" lon="-8.685842966660857">
        <ele>369.27999999999997</ele>
        <time>2025-05-04T10:33:30Z</time>
      </trkpt>
      <trkpt lat="39.646392026916146" lon="-8.686024015769362">
        <ele>371.20999999999998</ele>
        <time>2025-05-04T10:33:39Z</time>
      </trkpt>
      <trkpt lat="39.647326022386551" lon="-8.686197018250823">
        <ele>376.49000000000001</ele>
        <time>2025-05-04T10:33:51Z</time>
      </trkpt>
      <trkpt lat="39.648751029744744" lon="-8.686450989916921">
        <ele>379.38</ele>
        <time>2025-05-04T10:34:04Z</time>
      </trkpt>
      <trkpt lat="39.650718010962009" lon="-8.686820967122912">
        <ele>387.55000000000001</ele>
        <time>2025-05-04T10:34:20Z</time>
      </trkpt>
      <trkpt lat="39.65168796479702" lon="-8.687000004574657">
        <ele>387.55000000000001</ele>
        <time>2025-05-04T10:34:29Z</time>
      </trkpt>
      <trkpt lat="39.652539985254407" lon="-8.687163032591343">
        <ele>386.11000000000001</ele>
        <time>2025-05-04T10:34:38Z</time>
      </trkpt>
      <trkpt lat="39.653626028448343" lon="-8.68737299926579">
        <ele>382.74000000000001</ele>
        <time>2025-05-04T10:34:49Z</time>
      </trkpt>
      <trkpt lat="39.653724012896419" lon="-8.687388002872467">
        <ele>382.25999999999999</ele>
        <time>2025-05-04T10:34:50Z</time>
      </trkpt>
      <trkpt lat="39.654434965923429" lon="-8.687512977048755">
        <ele>380.33999999999997</ele>
        <time>2025-05-04T10:34:57Z</time>
      </trkpt>
      <trkpt lat="39.654539991170168" lon="-8.687529992312193">
        <ele>379.86000000000001</ele>
        <time>2025-05-04T10:34:58Z</time>
      </trkpt>
      <trkpt lat="39.654649961739779" lon="-8.687549019232392">
        <ele>379.38</ele>
        <time>2025-05-04T10:34:59Z</time>
      </trkpt>
      <trkpt lat="39.656270015984774" lon="-8.687940035015345">
        <ele>375.52999999999997</ele>
        <time>2025-05-04T10:35:14Z</time>
      </trkpt>
      <trkpt lat="39.657180039212108" lon="-8.688214039430022">
        <ele>375.52999999999997</ele>
        <time>2025-05-04T10:35:24Z</time>
      </trkpt>
      <trkpt lat="39.657947989180684" lon="-8.688434986397624">
        <ele>376.00999999999999</ele>
        <time>2025-05-04T10:35:35Z</time>
      </trkpt>
      <trkpt lat="39.658393990248442" lon="-8.688558032736182">
        <ele>376.49000000000001</ele>
        <time>2025-05-04T10:35:41Z</time>
      </trkpt>
      <trkpt lat="39.65873203240335" lon="-8.6886400077492">
        <ele>376.97000000000003</ele>
        <time>2025-05-04T10:35:47Z</time>
      </trkpt>
      <trkpt lat="39.659278029575944" lon="-8.688625004142523">
        <ele>378.42000000000002</ele>
        <time>2025-05-04T10:35:57Z</time>
      </trkpt>
      <trkpt lat="39.66017497703433" lon="-8.688531965017319">
        <ele>377.94</ele>
        <time>2025-05-04T10:36:08Z</time>
      </trkpt>
      <trkpt lat="39.661192037165165" lon="-8.688407996669412">
        <ele>376.49000000000001</ele>
        <time>2025-05-04T10:36:19Z</time>
      </trkpt>
      <trkpt lat="39.6617859788239" lon="-8.688299031928182">
        <ele>375.05000000000001</ele>
        <time>2025-05-04T10:36:26Z</time>
      </trkpt>
      <trkpt lat="39.661928974092007" lon="-8.688227031379938">
        <ele>374.56999999999999</ele>
        <time>2025-05-04T10:36:28Z</time>
      </trkpt>
      <trkpt lat="39.662568010389805" lon="-8.687682962045074">
        <ele>370.73000000000002</ele>
        <time>2025-05-04T10:36:36Z</time>
      </trkpt>
      <trkpt lat="39.663101015612483" lon="-8.687172001227737">
        <ele>366.88</ele>
        <time>2025-05-04T10:36:44Z</time>
      </trkpt>
      <trkpt lat="39.663131022825837" lon="-8.687144005671144">
        <ele>366.88</ele>
        <time>2025-05-04T10:36:45Z</time>
      </trkpt>
      <trkpt lat="39.663682971149683" lon="-8.686640001833439">
        <ele>363.04000000000002</ele>
        <time>2025-05-04T10:36:55Z</time>
      </trkpt>
      <trkpt lat="39.664372969418764" lon="-8.685986967757344">
        <ele>358.70999999999998</ele>
        <time>2025-05-04T10:37:04Z</time>
      </trkpt>
      <trkpt lat="39.665378965437412" lon="-8.685186998918653">
        <ele>353.42000000000002</ele>
        <time>2025-05-04T10:37:15Z</time>
      </trkpt>
      <trkpt lat="39.666507001966238" lon="-8.684542011469603">
        <ele>347.17000000000002</ele>
        <time>2025-05-04T10:37:26Z</time>
      </trkpt>
      <trkpt lat="39.667666973546147" lon="-8.684117970988154">
        <ele>340.44</ele>
        <time>2025-05-04T10:37:36Z</time>
      </trkpt>
      <trkpt lat="39.66908703558147" lon="-8.684098022058606">
        <ele>338.51999999999998</ele>
        <time>2025-05-04T10:37:48Z</time>
      </trkpt>
      <trkpt lat="39.670322025194764" lon="-8.684005988761783">
        <ele>340.92000000000002</ele>
        <time>2025-05-04T10:37:59Z</time>
      </trkpt>
      <trkpt lat="39.670957960188389" lon="-8.683808008208871">
        <ele>340.92000000000002</ele>
        <time>2025-05-04T10:38:07Z</time>
      </trkpt>
      <trkpt lat="39.671549974009395" lon="-8.683626037091017">
        <ele>341.41000000000003</ele>
        <time>2025-05-04T10:38:17Z</time>
      </trkpt>
      <trkpt lat="39.671983988955617" lon="-8.683675993233919">
        <ele>340.92000000000002</ele>
        <time>2025-05-04T10:38:24Z</time>
      </trkpt>
      <trkpt lat="39.672027993947268" lon="-8.683684039860964">
        <ele>340.44</ele>
        <time>2025-05-04T10:38:25Z</time>
      </trkpt>
      <trkpt lat="39.672124972566962" lon="-8.683039974421263">
        <ele>340.44</ele>
        <time>2025-05-04T10:38:27Z</time>
      </trkpt>
      <trkpt lat="39.672124972566962" lon="-8.683039974421263">
        <ele>339.95999999999998</ele>
        <time>2025-05-04T10:38:28Z</time>
      </trkpt>
      <trkpt lat="39.672124972566962" lon="-8.683039974421263">
        <ele>339.48000000000002</ele>
        <time>2025-05-04T10:38:29Z</time>
      </trkpt>
      <trkpt lat="39.672124972566962" lon="-8.683039974421263">
        <ele>339.48000000000002</ele>
        <time>2025-05-04T10:38:30Z</time>
      </trkpt>
      <trkpt lat="39.672099994495511" lon="-8.682955987751484">
        <ele>339</ele>
        <time>2025-05-04T10:38:31Z</time>
      </trkpt>
      <trkpt lat="39.672071998938918" lon="-8.682864960283041">
        <ele>338.51999999999998</ele>
        <time>2025-05-04T10:38:32Z</time>
      </trkpt>
      <trkpt lat="39.671803023666143" lon="-8.681730972602963">
        <ele>335.63999999999999</ele>
        <time>2025-05-04T10:38:42Z</time>
      </trkpt>
      <trkpt lat="39.671354005113244" lon="-8.68019599467516">
        <ele>327.94999999999999</ele>
        <time>2025-05-04T10:38:54Z</time>
      </trkpt>
      <trkpt lat="39.671332966536283" lon="-8.680072026327252">
        <ele>327.47000000000003</ele>
        <time>2025-05-04T10:38:55Z</time>
      </trkpt>
      <trkpt lat="39.671339001506567" lon="-8.679951997473836">
        <ele>326.5</ele>
        <time>2025-05-04T10:38:56Z</time>
      </trkpt>
      <trkpt lat="39.671348975971341" lon="-8.679824005812407">
        <ele>326.01999999999998</ele>
        <time>2025-05-04T10:38:57Z</time>
      </trkpt>
      <trkpt lat="39.671369008719921" lon="-8.679708000272512">
        <ele>325.06</ele>
        <time>2025-05-04T10:38:58Z</time>
      </trkpt>
      <trkpt lat="39.671397004276514" lon="-8.679584031924605">
        <ele>324.10000000000002</ele>
        <time>2025-05-04T10:38:59Z</time>
      </trkpt>
      <trkpt lat="39.671429023146629" lon="-8.679472971707583">
        <ele>323.13999999999999</ele>
        <time>2025-05-04T10:39:00Z</time>
      </trkpt>
      <trkpt lat="39.671480990946293" lon="-8.679365012794733">
        <ele>322.66000000000003</ele>
        <time>2025-05-04T10:39:01Z</time>
      </trkpt>
      <trkpt lat="39.671532036736608" lon="-8.679258981719613">
        <ele>321.69999999999999</ele>
        <time>2025-05-04T10:39:02Z</time>
      </trkpt>
      <trkpt lat="39.671580987051129" lon="-8.679154962301254">
        <ele>321.22000000000003</ele>
        <time>2025-05-04T10:39:03Z</time>
      </trkpt>
      <trkpt lat="39.672214994207025" lon="-8.678060034289956">
        <ele>317.37</ele>
        <time>2025-05-04T10:39:14Z</time>
      </trkpt>
      <trkpt lat="39.672266962006688" lon="-8.677968000993133">
        <ele>316.88999999999999</ele>
        <time>2025-05-04T10:39:15Z</time>
      </trkpt>
      <trkpt lat="39.672324964776635" lon="-8.677888037636876">
        <ele>316.41000000000003</ele>
        <time>2025-05-04T10:39:16Z</time>
      </trkpt>
      <trkpt lat="39.672318007797003" lon="-8.677589977160096">
        <ele>316.41000000000003</ele>
        <time>2025-05-04T10:39:17Z</time>
      </trkpt>
      <trkpt lat="39.672318007797003" lon="-8.677587965503335">
        <ele>316.41000000000003</ele>
        <time>2025-05-04T10:39:18Z</time>
      </trkpt>
      <trkpt lat="39.672354971989989" lon="-8.677387973293662">
        <ele>316.41000000000003</ele>
        <time>2025-05-04T10:39:19Z</time>
      </trkpt>
      <trkpt lat="39.672294035553932" lon="-8.677292000502348">
        <ele>316.41000000000003</ele>
        <time>2025-05-04T10:39:20Z</time>
      </trkpt>
      <trkpt lat="39.672225974500179" lon="-8.677184963598847">
        <ele>316.88999999999999</ele>
        <time>2025-05-04T10:39:21Z</time>
      </trkpt>
      <trkpt lat="39.672150034457445" lon="-8.677066024392843">
        <ele>317.37</ele>
        <time>2025-05-04T10:39:22Z</time>
      </trkpt>
      <trkpt lat="39.671750972047448" lon="-8.676628991961479">
        <ele>319.30000000000001</ele>
        <time>2025-05-04T10:39:26Z</time>
      </trkpt>
      <trkpt lat="39.671633960679173" lon="-8.676534024998546">
        <ele>319.77999999999997</ele>
        <time>2025-05-04T10:39:27Z</time>
      </trkpt>
      <trkpt lat="39.671519966796041" lon="-8.676441991701722">
        <ele>320.25999999999999</ele>
        <time>2025-05-04T10:39:28Z</time>
      </trkpt>
      <trkpt lat="39.671398010104895" lon="-8.67639597505331">
        <ele>320.25999999999999</ele>
        <time>2025-05-04T10:39:29Z</time>
      </trkpt>
      <trkpt lat="39.671268006786704" lon="-8.676374014467001">
        <ele>320.25999999999999</ele>
        <time>2025-05-04T10:39:30Z</time>
      </trkpt>
      <trkpt lat="39.671133980154991" lon="-8.676384994760156">
        <ele>320.74000000000001</ele>
        <time>2025-05-04T10:39:31Z</time>
      </trkpt>
      <trkpt lat="39.670997019857168" lon="-8.676420031115413">
        <ele>320.74000000000001</ele>
        <time>2025-05-04T10:39:32Z</time>
      </trkpt>
      <trkpt lat="39.670881014317274" lon="-8.676511980593205">
        <ele>321.22000000000003</ele>
        <time>2025-05-04T10:39:33Z</time>
      </trkpt>
      <trkpt lat="39.670770037919283" lon="-8.676622034981847">
        <ele>321.22000000000003</ele>
        <time>2025-05-04T10:39:34Z</time>
      </trkpt>
      <trkpt lat="39.670685967430472" lon="-8.676757989451289">
        <ele>321.22000000000003</ele>
        <time>2025-05-04T10:39:35Z</time>
      </trkpt>
      <trkpt lat="39.670610027387738" lon="-8.676916994154453">
        <ele>321.22000000000003</ele>
        <time>2025-05-04T10:39:36Z</time>
      </trkpt>
      <trkpt lat="39.670570967718959" lon="-8.677098965272307">
        <ele>320.74000000000001</ele>
        <time>2025-05-04T10:39:37Z</time>
      </trkpt>
      <trkpt lat="39.67052998021245" lon="-8.677286971360445">
        <ele>320.74000000000001</ele>
        <time>2025-05-04T10:39:38Z</time>
      </trkpt>
      <trkpt lat="39.670131001621485" lon="-8.679527034983039">
        <ele>321.22000000000003</ele>
        <time>2025-05-04T10:39:48Z</time>
      </trkpt>
      <trkpt lat="39.669749038293958" lon="-8.68296998552978">
        <ele>326.99000000000001</ele>
        <time>2025-05-04T10:40:01Z</time>
      </trkpt>
      <trkpt lat="39.669452989473939" lon="-8.685851013287902">
        <ele>332.26999999999998</ele>
        <time>2025-05-04T10:40:11Z</time>
      </trkpt>
      <trkpt lat="39.669209998100996" lon="-8.688161987811327">
        <ele>334.68000000000001</ele>
        <time>2025-05-04T10:40:19Z</time>
      </trkpt>
      <trkpt lat="39.668827028945088" lon="-8.69162798859179">
        <ele>341.88999999999999</ele>
        <time>2025-05-04T10:40:31Z</time>
      </trkpt>
      <trkpt lat="39.668206013739109" lon="-8.694408014416695">
        <ele>347.64999999999998</ele>
        <time>2025-05-04T10:40:41Z</time>
      </trkpt>
      <trkpt lat="39.66722197830677" lon="-8.696311041712761">
        <ele>351.98000000000002</ele>
        <time>2025-05-04T10:40:49Z</time>
      </trkpt>
      <trkpt lat="39.665881041437387" lon="-8.697773013263941">
        <ele>354.86000000000001</ele>
        <time>2025-05-04T10:40:57Z</time>
      </trkpt>
      <trkpt lat="39.663709960877895" lon="-8.699609991163015">
        <ele>360.14999999999998</ele>
        <time>2025-05-04T10:41:09Z</time>
      </trkpt>
      <trkpt lat="39.662570022046566" lon="-8.700912036001682">
        <ele>364</ele>
        <time>2025-05-04T10:41:17Z</time>
      </trkpt>
      <trkpt lat="39.661490013822913" lon="-8.702579028904438">
        <ele>370.73000000000002</ele>
        <time>2025-05-04T10:41:26Z</time>
      </trkpt>
      <trkpt lat="39.659782033413649" lon="-8.705416973680258">
        <ele>378.89999999999998</ele>
        <time>2025-05-04T10:41:39Z</time>
      </trkpt>
      <trkpt lat="39.657800970599055" lon="-8.708705026656389">
        <ele>383.69999999999999</ele>
        <time>2025-05-04T10:41:54Z</time>
      </trkpt>
      <trkpt lat="39.656279990449548" lon="-8.711395030841231">
        <ele>386.58999999999997</ele>
        <time>2025-05-04T10:42:06Z</time>
      </trkpt>
      <trkpt lat="39.655538024380803" lon="-8.713058000430465">
        <ele>388.02999999999997</ele>
        <time>2025-05-04T10:42:13Z</time>
      </trkpt>
      <trkpt lat="39.654841991141438" lon="-8.715685978531838">
        <ele>388.50999999999999</ele>
        <time>2025-05-04T10:42:23Z</time>
      </trkpt>
      <trkpt lat="39.654644010588527" lon="-8.718162998557091">
        <ele>390.43000000000001</ele>
        <time>2025-05-04T10:42:32Z</time>
      </trkpt>
      <trkpt lat="39.65493100695312" lon="-8.720906982198358">
        <ele>395.24000000000001</ele>
        <time>2025-05-04T10:42:42Z</time>
      </trkpt>
      <trkpt lat="39.655569959431887" lon="-8.723270008340478">
        <ele>401.00999999999999</ele>
        <time>2025-05-04T10:42:51Z</time>
      </trkpt>
      <trkpt lat="39.656560029834509" lon="-8.725725989788771">
        <ele>405.32999999999998</ele>
        <time>2025-05-04T10:43:01Z</time>
      </trkpt>
      <trkpt lat="39.656872004270554" lon="-8.726452030241489">
        <ele>406.29000000000002</ele>
        <time>2025-05-04T10:43:04Z</time>
      </trkpt>
      <trkpt lat="39.656977029517293" lon="-8.726695021614432">
        <ele>406.29000000000002</ele>
        <time>2025-05-04T10:43:05Z</time>
      </trkpt>
      <trkpt lat="39.657758977264166" lon="-8.729284023866057">
        <ele>404.85000000000002</ele>
        <time>2025-05-04T10:43:15Z</time>
      </trkpt>
      <trkpt lat="39.657931979745626" lon="-8.731486033648253">
        <ele>401.49000000000001</ele>
        <time>2025-05-04T10:43:23Z</time>
      </trkpt>
      <trkpt lat="39.657668033614755" lon="-8.733406998217106">
        <ele>396.68000000000001</ele>
        <time>2025-05-04T10:43:30Z</time>
      </trkpt>
      <trkpt lat="39.656912991777062" lon="-8.736007986590266">
        <ele>385.63</ele>
        <time>2025-05-04T10:43:40Z</time>
      </trkpt>
      <trkpt lat="39.655970027670264" lon="-8.738917009904981">
        <ele>368.80000000000001</ele>
        <time>2025-05-04T10:43:51Z</time>
      </trkpt>
      <trkpt lat="39.654624983668327" lon="-8.743182979524136">
        <ele>346.20999999999998</ele>
        <time>2025-05-04T10:44:06Z</time>
      </trkpt>
      <trkpt lat="39.654364977031946" lon="-8.745278958231211">
        <ele>336.12</ele>
        <time>2025-05-04T10:44:13Z</time>
      </trkpt>
      <trkpt lat="39.654559018090367" lon="-8.746999008581042">
        <ele>325.54000000000002</ele>
        <time>2025-05-04T10:44:19Z</time>
      </trkpt>
      <trkpt lat="39.655331997200847" lon="-8.749041007831693">
        <ele>314.00999999999999</ele>
        <time>2025-05-04T10:44:27Z</time>
      </trkpt>
      <trkpt lat="39.657176015898585" lon="-8.752919984981418">
        <ele>289.00999999999999</ele>
        <time>2025-05-04T10:44:43Z</time>
      </trkpt>
      <trkpt lat="39.657650012522936" lon="-8.754805997014046">
        <ele>277</ele>
        <time>2025-05-04T10:44:50Z</time>
      </trkpt>
      <trkpt lat="39.657640960067511" lon="-8.757067015394568">
        <ele>266.42000000000002</ele>
        <time>2025-05-04T10:44:58Z</time>
      </trkpt>
      <trkpt lat="39.657425964251161" lon="-8.760461015626788">
        <ele>251.52000000000001</ele>
        <time>2025-05-04T10:45:10Z</time>
      </trkpt>
      <trkpt lat="39.657142991200089" lon="-8.763569025322795">
        <ele>236.62</ele>
        <time>2025-05-04T10:45:21Z</time>
      </trkpt>
      <trkpt lat="39.656535973772407" lon="-8.765055974945426">
        <ele>228.44999999999999</ele>
        <time>2025-05-04T10:45:27Z</time>
      </trkpt>
      <trkpt lat="39.655382037162781" lon="-8.766345027834177">
        <ele>218.84</ele>
        <time>2025-05-04T10:45:34Z</time>
      </trkpt>
      <trkpt lat="39.653453025966883" lon="-8.768216036260128">
        <ele>202.00999999999999</ele>
        <time>2025-05-04T10:45:45Z</time>
      </trkpt>
      <trkpt lat="39.652669988572598" lon="-8.769903983920813">
        <ele>191.44</ele>
        <time>2025-05-04T10:45:52Z</time>
      </trkpt>
      <trkpt lat="39.652469996362925" lon="-8.771285992115736">
        <ele>184.71000000000001</ele>
        <time>2025-05-04T10:45:57Z</time>
      </trkpt>
      <trkpt lat="39.652655990794301" lon="-8.773260014131665">
        <ele>174.62</ele>
        <time>2025-05-04T10:46:04Z</time>
      </trkpt>
      <trkpt lat="39.653650000691414" lon="-8.776420997455716">
        <ele>158.75</ele>
        <time>2025-05-04T10:46:16Z</time>
      </trkpt>
      <trkpt lat="39.654015032574534" lon="-8.778631975874305">
        <ele>153.94999999999999</ele>
        <time>2025-05-04T10:46:24Z</time>
      </trkpt>
      <trkpt lat="39.653872959315777" lon="-8.780870027840138">
        <ele>155.87</ele>
        <time>2025-05-04T10:46:32Z</time>
      </trkpt>
      <trkpt lat="39.653309024870396" lon="-8.78298201598227">
        <ele>162.12</ele>
        <time>2025-05-04T10:46:40Z</time>
      </trkpt>
      <trkpt lat="39.652278972789645" lon="-8.784798039123416">
        <ele>170.28999999999999</ele>
        <time>2025-05-04T10:46:48Z</time>
      </trkpt>
      <trkpt lat="39.650764027610421" lon="-8.78646201454103">
        <ele>178.46000000000001</ele>
        <time>2025-05-04T10:46:57Z</time>
      </trkpt>
      <trkpt lat="39.648525975644588" lon="-8.788737030699849">
        <ele>187.59</ele>
        <time>2025-05-04T10:47:10Z</time>
      </trkpt>
      <trkpt lat="39.647061992436647" lon="-8.789972020313144">
        <ele>189.52000000000001</ele>
        <time>2025-05-04T10:47:18Z</time>
      </trkpt>
      <trkpt lat="39.645586023107171" lon="-8.790531009435654">
        <ele>189.03999999999999</ele>
        <time>2025-05-04T10:47:25Z</time>
      </trkpt>
      <trkpt lat="39.64317798614502" lon="-8.790906015783548">
        <ele>184.22999999999999</ele>
        <time>2025-05-04T10:47:36Z</time>
      </trkpt>
      <trkpt lat="39.641827996820211" lon="-8.791764993220568">
        <ele>182.31</ele>
        <time>2025-05-04T10:47:43Z</time>
      </trkpt>
      <trkpt lat="39.640137031674385" lon="-8.793527036905289">
        <ele>186.15000000000001</ele>
        <time>2025-05-04T10:47:53Z</time>
      </trkpt>
      <trkpt lat="39.638773966580629" lon="-8.7944330368191">
        <ele>190</ele>
        <time>2025-05-04T10:48:00Z</time>
      </trkpt>
      <trkpt lat="39.637253992259502" lon="-8.794759009033442">
        <ele>193.36000000000001</ele>
        <time>2025-05-04T10:48:07Z</time>
      </trkpt>
      <trkpt lat="39.63486498221755" lon="-8.795221019536257">
        <ele>194.31999999999999</ele>
        <time>2025-05-04T10:48:18Z</time>
      </trkpt>
      <trkpt lat="39.633321035653353" lon="-8.796298010274768">
        <ele>192.88</ele>
        <time>2025-05-04T10:48:26Z</time>
      </trkpt>
      <trkpt lat="39.630951974540949" lon="-8.79836498759687">
        <ele>190</ele>
        <time>2025-05-04T10:48:39Z</time>
      </trkpt>
      <trkpt lat="39.627900961786509" lon="-8.801090028136969">
        <ele>198.16999999999999</ele>
        <time>2025-05-04T10:48:56Z</time>
      </trkpt>
      <trkpt lat="39.625421008095145" lon="-8.803497981280088">
        <ele>200.56999999999999</ele>
        <time>2025-05-04T10:49:10Z</time>
      </trkpt>
      <trkpt lat="39.623655024915934" lon="-8.806053036823869">
        <ele>196.72999999999999</ele>
        <time>2025-05-04T10:49:22Z</time>
      </trkpt>
      <trkpt lat="39.621788039803505" lon="-8.808843037113547">
        <ele>186.15000000000001</ele>
        <time>2025-05-04T10:49:35Z</time>
      </trkpt>
      <trkpt lat="39.620193969458342" lon="-8.810360999777913">
        <ele>174.13999999999999</ele>
        <time>2025-05-04T10:49:44Z</time>
      </trkpt>
      <trkpt lat="39.618277028203011" lon="-8.811766980215907">
        <ele>161.16</ele>
        <time>2025-05-04T10:49:54Z</time>
      </trkpt>
      <trkpt lat="39.616897031664848" lon="-8.813130967319012">
        <ele>151.06</ele>
        <time>2025-05-04T10:50:02Z</time>
      </trkpt>
      <trkpt lat="39.615852981805801" lon="-8.814929975196719">
        <ele>141.44999999999999</ele>
        <time>2025-05-04T10:50:10Z</time>
      </trkpt>
      <trkpt lat="39.615203971043229" lon="-8.81701497361064">
        <ele>134.24000000000001</ele>
        <time>2025-05-04T10:50:18Z</time>
      </trkpt>
      <trkpt lat="39.61460298858583" lon="-8.820333033800125">
        <ele>130.40000000000001</ele>
        <time>2025-05-04T10:50:30Z</time>
      </trkpt>
      <trkpt lat="39.614028995856643" lon="-8.823644975200295">
        <ele>133.75999999999999</ele>
        <time>2025-05-04T10:50:42Z</time>
      </trkpt>
      <trkpt lat="39.613342015072703" lon="-8.827504003420472">
        <ele>151.06</ele>
        <time>2025-05-04T10:50:56Z</time>
      </trkpt>
      <trkpt lat="39.612596025690436" lon="-8.831636030226946">
        <ele>167.41</ele>
        <time>2025-05-04T10:51:11Z</time>
      </trkpt>
      <trkpt lat="39.611957995221019" lon="-8.835540991276503">
        <ele>177.5</ele>
        <time>2025-05-04T10:51:25Z</time>
      </trkpt>
      <trkpt lat="39.612031001597643" lon="-8.837831011041999">
        <ele>181.34999999999999</ele>
        <time>2025-05-04T10:51:33Z</time>
      </trkpt>
      <trkpt lat="39.612565012648702" lon="-8.840019023045898">
        <ele>181.83000000000001</ele>
        <time>2025-05-04T10:51:41Z</time>
      </trkpt>
      <trkpt lat="39.613640997558832" lon="-8.842156995087862">
        <ele>177.97999999999999</ele>
        <time>2025-05-04T10:51:50Z</time>
      </trkpt>
      <trkpt lat="39.614884033799171" lon="-8.844834007322788">
        <ele>173.66</ele>
        <time>2025-05-04T10:52:01Z</time>
      </trkpt>
      <trkpt lat="39.615651983767748" lon="-8.84780203923583">
        <ele>168.84999999999999</ele>
        <time>2025-05-04T10:52:12Z</time>
      </trkpt>
      <trkpt lat="39.616795023903251" lon="-8.850193982943893">
        <ele>165</ele>
        <time>2025-05-04T10:52:22Z</time>
      </trkpt>
      <trkpt lat="39.618560001254082" lon="-8.853065958246589">
        <ele>171.25</ele>
        <time>2025-05-04T10:52:35Z</time>
      </trkpt>
      <trkpt lat="39.619057970121503" lon="-8.8545280136168">
        <ele>173.16999999999999</ele>
        <time>2025-05-04T10:52:42Z</time>
      </trkpt>
      <trkpt lat="39.619723996147513" lon="-8.856412013992667">
        <ele>182.31</ele>
        <time>2025-05-04T10:52:53Z</time>
      </trkpt>
      <trkpt lat="39.619789961725473" lon="-8.856662968173623">
        <ele>186.15000000000001</ele>
        <time>2025-05-04T10:52:58Z</time>
      </trkpt>
      <trkpt lat="39.61984503082931" lon="-8.856903025880456">
        <ele>190</ele>
        <time>2025-05-04T10:53:03Z</time>
      </trkpt>
      <trkpt lat="39.619939997792244" lon="-8.85699799284339">
        <ele>190</ele>
        <time>2025-05-04T10:53:04Z</time>
      </trkpt>
      <trkpt lat="39.619962964206934" lon="-8.857023976743221">
        <ele>190.47999999999999</ele>
        <time>2025-05-04T10:53:05Z</time>
      </trkpt>
      <trkpt lat="39.620013004168868" lon="-8.857080973684788">
        <ele>190.47999999999999</ele>
        <time>2025-05-04T10:53:06Z</time>
      </trkpt>
      <trkpt lat="39.620065977796912" lon="-8.857140988111496">
        <ele>190.47999999999999</ele>
        <time>2025-05-04T10:53:07Z</time>
      </trkpt>
      <trkpt lat="39.62010302580893" lon="-8.857248025014997">
        <ele>190.47999999999999</ele>
        <time>2025-05-04T10:53:08Z</time>
      </trkpt>
      <trkpt lat="39.620119035243988" lon="-8.857340980321169">
        <ele>190.47999999999999</ele>
        <time>2025-05-04T10:53:09Z</time>
      </trkpt>
      <trkpt lat="39.620133033022285" lon="-8.857426978647709">
        <ele>190.47999999999999</ele>
        <time>2025-05-04T10:53:10Z</time>
      </trkpt>
      <trkpt lat="39.620110988616943" lon="-8.857534015551209">
        <ele>190.47999999999999</ele>
        <time>2025-05-04T10:53:11Z</time>
      </trkpt>
      <trkpt lat="39.620076036080718" lon="-8.857633005827665">
        <ele>190</ele>
        <time>2025-05-04T10:53:12Z</time>
      </trkpt>
      <trkpt lat="39.620037982240319" lon="-8.857737025246024">
        <ele>190.47999999999999</ele>
        <time>2025-05-04T10:53:13Z</time>
      </trkpt>
      <trkpt lat="39.619980985298753" lon="-8.857802990823984">
        <ele>190.96000000000001</ele>
        <time>2025-05-04T10:53:14Z</time>
      </trkpt>
      <trkpt lat="39.619939997792244" lon="-8.857834003865719">
        <ele>190.96000000000001</ele>
        <time>2025-05-04T10:53:15Z</time>
      </trkpt>
      <trkpt lat="39.619822986423969" lon="-8.857878008857369">
        <ele>191.44</ele>
        <time>2025-05-04T10:53:16Z</time>
      </trkpt>
      <trkpt lat="39.619741011410952" lon="-8.857899969443679">
        <ele>191.44</ele>
        <time>2025-05-04T10:53:17Z</time>
      </trkpt>
      <trkpt lat="39.61965199559927" lon="-8.857917990535498">
        <ele>191.91999999999999</ele>
        <time>2025-05-04T10:53:18Z</time>
      </trkpt>
      <trkpt lat="39.619560968130827" lon="-8.857936011627317">
        <ele>191.91999999999999</ele>
        <time>2025-05-04T10:53:19Z</time>
      </trkpt>
      <trkpt lat="39.61946097202599" lon="-8.85807397775352">
        <ele>191.91999999999999</ele>
        <time>2025-05-04T10:53:20Z</time>
      </trkpt>
      <trkpt lat="39.619406992569566" lon="-8.858174979686737">
        <ele>191.91999999999999</ele>
        <time>2025-05-04T10:53:21Z</time>
      </trkpt>
      <trkpt lat="39.619369022548199" lon="-8.858297020196915">
        <ele>191.91999999999999</ele>
        <time>2025-05-04T10:53:22Z</time>
      </trkpt>
      <trkpt lat="39.619349995627999" lon="-8.858404979109764">
        <ele>191.91999999999999</ele>
        <time>2025-05-04T10:53:23Z</time>
      </trkpt>
      <trkpt lat="39.619333986192942" lon="-8.858495000749826">
        <ele>192.40000000000001</ele>
        <time>2025-05-04T10:53:24Z</time>
      </trkpt>
      <trkpt lat="39.619304984807968" lon="-8.858661968261004">
        <ele>192.40000000000001</ele>
        <time>2025-05-04T10:53:26Z</time>
      </trkpt>
      <trkpt lat="39.619359970092773" lon="-8.858820972964168">
        <ele>192.40000000000001</ele>
        <time>2025-05-04T10:53:27Z</time>
      </trkpt>
      <trkpt lat="39.619359970092773" lon="-8.858838994055986">
        <ele>192.40000000000001</ele>
        <time>2025-05-04T10:53:28Z</time>
      </trkpt>
      <trkpt lat="39.619359970092773" lon="-8.858915017917752">
        <ele>192.88</ele>
        <time>2025-05-04T10:53:29Z</time>
      </trkpt>
      <trkpt lat="39.619327029213309" lon="-8.859005039557815">
        <ele>192.40000000000001</ele>
        <time>2025-05-04T10:53:30Z</time>
      </trkpt>
      <trkpt lat="39.619251005351543" lon="-8.859049966558814">
        <ele>192.40000000000001</ele>
        <time>2025-05-04T10:53:31Z</time>
      </trkpt>
      <trkpt lat="39.619188979268074" lon="-8.85903999209404">
        <ele>192.88</ele>
        <time>2025-05-04T10:53:32Z</time>
      </trkpt>
      <trkpt lat="39.619134999811649" lon="-8.858992969617248">
        <ele>192.88</ele>
        <time>2025-05-04T10:53:33Z</time>
      </trkpt>
      <trkpt lat="39.619102980941534" lon="-8.858949970453978">
        <ele>192.88</ele>
        <time>2025-05-04T10:53:34Z</time>
      </trkpt>
      <trkpt lat="39.619102980941534" lon="-8.858843017369509">
        <ele>192.88</ele>
        <time>2025-05-04T10:53:35Z</time>
      </trkpt>
      <trkpt lat="39.619142962619662" lon="-8.858772022649646">
        <ele>192.88</ele>
        <time>2025-05-04T10:53:36Z</time>
      </trkpt>
      <trkpt lat="39.619188979268074" lon="-8.858714019879699">
        <ele>192.88</ele>
        <time>2025-05-04T10:53:37Z</time>
      </trkpt>
      <trkpt lat="39.619314959272742" lon="-8.858606982976198">
        <ele>192.88</ele>
        <time>2025-05-04T10:53:38Z</time>
      </trkpt>
      <trkpt lat="39.619334992021322" lon="-8.858489971607924">
        <ele>192.88</ele>
        <time>2025-05-04T10:53:39Z</time>
      </trkpt>
      <trkpt lat="39.619398023933172" lon="-8.858098033815622">
        <ele>190.47999999999999</ele>
        <time>2025-05-04T10:53:45Z</time>
      </trkpt>
      <trkpt lat="39.61941403336823" lon="-8.857982028275728">
        <ele>188.56</ele>
        <time>2025-05-04T10:53:50Z</time>
      </trkpt>
      <trkpt lat="39.619423002004623" lon="-8.857913967221975">
        <ele>188.56</ele>
        <time>2025-05-04T10:53:51Z</time>
      </trkpt>
      <trkpt lat="39.619433982297778" lon="-8.857832998037338">
        <ele>188.08000000000001</ele>
        <time>2025-05-04T10:53:52Z</time>
      </trkpt>
      <trkpt lat="39.619425013661385" lon="-8.857706012204289">
        <ele>187.59</ele>
        <time>2025-05-04T10:53:53Z</time>
      </trkpt>
      <trkpt lat="39.619313031435013" lon="-8.857657983899117">
        <ele>187.11000000000001</ele>
        <time>2025-05-04T10:53:54Z</time>
      </trkpt>
      <trkpt lat="39.619225021451712" lon="-8.857619008049369">
        <ele>186.15000000000001</ele>
        <time>2025-05-04T10:53:55Z</time>
      </trkpt>
      <trkpt lat="39.619124019518495" lon="-8.857575003057718">
        <ele>186.15000000000001</ele>
        <time>2025-05-04T10:53:56Z</time>
      </trkpt>
      <trkpt lat="39.619016982614994" lon="-8.857526974752545">
        <ele>185.66999999999999</ele>
        <time>2025-05-04T10:53:57Z</time>
      </trkpt>
      <trkpt lat="39.618899971246719" lon="-8.857475006952882">
        <ele>185.19</ele>
        <time>2025-05-04T10:53:58Z</time>
      </trkpt>
      <trkpt lat="39.618783965706825" lon="-8.857418010011315">
        <ele>185.19</ele>
        <time>2025-05-04T10:53:59Z</time>
      </trkpt>
      <trkpt lat="39.618664020672441" lon="-8.857348021119833">
        <ele>184.71000000000001</ele>
        <time>2025-05-04T10:54:00Z</time>
      </trkpt>
      <trkpt lat="39.618538040667772" lon="-8.857271997258067">
        <ele>183.75</ele>
        <time>2025-05-04T10:54:01Z</time>
      </trkpt>
      <trkpt lat="39.618403008207679" lon="-8.857204020023346">
        <ele>183.27000000000001</ele>
        <time>2025-05-04T10:54:02Z</time>
      </trkpt>
      <trkpt lat="39.618265964090824" lon="-8.857168983668089">
        <ele>183.27000000000001</ele>
        <time>2025-05-04T10:54:03Z</time>
      </trkpt>
      <trkpt lat="39.618109976872802" lon="-8.857153980061412">
        <ele>182.78999999999999</ele>
        <time>2025-05-04T10:54:04Z</time>
      </trkpt>
      <trkpt lat="39.617959018796682" lon="-8.857140988111496">
        <ele>182.78999999999999</ele>
        <time>2025-05-04T10:54:05Z</time>
      </trkpt>
      <trkpt lat="39.615908972918987" lon="-8.85702095925808">
        <ele>178.46000000000001</ele>
        <time>2025-05-04T10:54:17Z</time>
      </trkpt>
      <trkpt lat="39.615696994587779" lon="-8.857006961479783">
        <ele>177.5</ele>
        <time>2025-05-04T10:54:20Z</time>
      </trkpt>
      <trkpt lat="39.61561200208962" lon="-8.857002016156912">
        <ele>176.53999999999999</ele>
        <time>2025-05-04T10:54:25Z</time>
      </trkpt>
      <trkpt lat="39.615594986826181" lon="-8.857001010328531">
        <ele>176.53999999999999</ele>
        <time>2025-05-04T10:54:26Z</time>
      </trkpt>
      <trkpt lat="39.615594986826181" lon="-8.857001010328531">
        <ele>176.53999999999999</ele>
        <time>2025-05-04T10:54:39Z</time>
      </trkpt>
      <trkpt lat="39.615594986826181" lon="-8.857001010328531">
        <ele>176.53999999999999</ele>
        <time>2025-05-04T10:55:32Z</time>
      </trkpt>
      <trkpt lat="39.615594986826181" lon="-8.857001010328531">
        <ele>177.02000000000001</ele>
        <time>2025-05-04T10:56:28Z</time>
      </trkpt>
      <trkpt lat="39.615594986826181" lon="-8.857001010328531">
        <ele>177.02000000000001</ele>
        <time>2025-05-04T10:57:18Z</time>
      </trkpt>
      <trkpt lat="39.615594986826181" lon="-8.857001010328531">
        <ele>177.5</ele>
        <time>2025-05-04T10:58:13Z</time>
      </trkpt>
      <trkpt lat="39.615536984056234" lon="-8.856996987015009">
        <ele>177.02000000000001</ele>
        <time>2025-05-04T10:58:43Z</time>
      </trkpt>
      <trkpt lat="39.615287035703659" lon="-8.856980977579951">
        <ele>176.53999999999999</ele>
        <time>2025-05-04T10:58:50Z</time>
      </trkpt>
      <trkpt lat="39.614355973899364" lon="-8.856921968981624">
        <ele>176.06</ele>
        <time>2025-05-04T10:58:57Z</time>
      </trkpt>
      <trkpt lat="39.612580016255379" lon="-8.85686899535358">
        <ele>174.13999999999999</ele>
        <time>2025-05-04T10:59:07Z</time>
      </trkpt>
      <trkpt lat="39.610612029209733" lon="-8.856986006721854">
        <ele>171.72999999999999</ele>
        <time>2025-05-04T10:59:18Z</time>
      </trkpt>
      <trkpt lat="39.608804974704981" lon="-8.857086002826691">
        <ele>168.37</ele>
        <time>2025-05-04T10:59:29Z</time>
      </trkpt>
      <trkpt lat="39.607001021504402" lon="-8.857254981994629">
        <ele>166.93000000000001</ele>
        <time>2025-05-04T10:59:40Z</time>
      </trkpt>
      <trkpt lat="39.604214960709214" lon="-8.85736302472651">
        <ele>165.47999999999999</ele>
        <time>2025-05-04T10:59:56Z</time>
      </trkpt>
      <trkpt lat="39.602229036390781" lon="-8.85751498863101">
        <ele>164.52000000000001</ele>
        <time>2025-05-04T11:00:08Z</time>
      </trkpt>
      <trkpt lat="39.601062024012208" lon="-8.857602998614311">
        <ele>161.16</ele>
        <time>2025-05-04T11:00:17Z</time>
      </trkpt>
      <trkpt lat="39.600952975451946" lon="-8.857616996392608">
        <ele>160.68000000000001</ele>
        <time>2025-05-04T11:00:18Z</time>
      </trkpt>
      <trkpt lat="39.600820960476995" lon="-8.857726966962218">
        <ele>160.19999999999999</ele>
        <time>2025-05-04T11:00:19Z</time>
      </trkpt>
      <trkpt lat="39.60074502043426" lon="-8.857757980003953">
        <ele>159.72</ele>
        <time>2025-05-04T11:00:20Z</time>
      </trkpt>
      <trkpt lat="39.600628009065986" lon="-8.857769966125488">
        <ele>159.72</ele>
        <time>2025-05-04T11:00:21Z</time>
      </trkpt>
      <trkpt lat="39.600520972162485" lon="-8.857726966962218">
        <ele>159.72</ele>
        <time>2025-05-04T11:00:22Z</time>
      </trkpt>
      <trkpt lat="39.600392980501056" lon="-8.857613978907466">
        <ele>159.24000000000001</ele>
        <time>2025-05-04T11:00:23Z</time>
      </trkpt>
      <trkpt lat="39.600270017981529" lon="-8.857602998614311">
        <ele>158.75</ele>
        <time>2025-05-04T11:00:24Z</time>
      </trkpt>
      <trkpt lat="39.600136997178197" lon="-8.857604004442692">
        <ele>158.27000000000001</ele>
        <time>2025-05-04T11:00:25Z</time>
      </trkpt>
      <trkpt lat="39.600007999688387" lon="-8.857613978907466">
        <ele>157.78999999999999</ele>
        <time>2025-05-04T11:00:26Z</time>
      </trkpt>
      <trkpt lat="39.598733028396964" lon="-8.857806008309126">
        <ele>155.38999999999999</ele>
        <time>2025-05-04T11:00:36Z</time>
      </trkpt>
      <trkpt lat="39.597107023000717" lon="-8.858371032401919">
        <ele>154.43000000000001</ele>
        <time>2025-05-04T11:00:47Z</time>
      </trkpt>
      <trkpt lat="39.595553018152714" lon="-8.859349032863975">
        <ele>152.99000000000001</ele>
        <time>2025-05-04T11:00:57Z</time>
      </trkpt>
      <trkpt lat="39.594333032146096" lon="-8.8605029694736">
        <ele>153.94999999999999</ele>
        <time>2025-05-04T11:01:06Z</time>
      </trkpt>
      <trkpt lat="39.592458000406623" lon="-8.862381018698216">
        <ele>155.87</ele>
        <time>2025-05-04T11:01:20Z</time>
      </trkpt>
      <trkpt lat="39.591045984998345" lon="-8.863833015784621">
        <ele>156.34999999999999</ele>
        <time>2025-05-04T11:01:30Z</time>
      </trkpt>
      <trkpt lat="39.590914975851774" lon="-8.863964024931192">
        <ele>156.83000000000001</ele>
        <time>2025-05-04T11:01:31Z</time>
      </trkpt>
      <trkpt lat="39.58905603736639" lon="-8.865865040570498">
        <ele>155.87</ele>
        <time>2025-05-04T11:01:45Z</time>
      </trkpt>
      <trkpt lat="39.587156027555466" lon="-8.867788016796112">
        <ele>152.03</ele>
        <time>2025-05-04T11:01:59Z</time>
      </trkpt>
      <trkpt lat="39.585701012983918" lon="-8.869186034426093">
        <ele>149.62</ele>
        <time>2025-05-04T11:02:10Z</time>
      </trkpt>
      <trkpt lat="39.584441967308521" lon="-8.870076024904847">
        <ele>148.66</ele>
        <time>2025-05-04T11:02:19Z</time>
      </trkpt>
      <trkpt lat="39.582562996074557" lon="-8.871149998158217">
        <ele>147.69999999999999</ele>
        <time>2025-05-04T11:02:32Z</time>
      </trkpt>
      <trkpt lat="39.581072023138404" lon="-8.872009981423616">
        <ele>148.66</ele>
        <time>2025-05-04T11:02:41Z</time>
      </trkpt>
      <trkpt lat="39.579074028879404" lon="-8.87315696105361">
        <ele>157.31</ele>
        <time>2025-05-04T11:02:53Z</time>
      </trkpt>
      <trkpt lat="39.577145017683506" lon="-8.874281980097294">
        <ele>169.33000000000001</ele>
        <time>2025-05-04T11:03:05Z</time>
      </trkpt>
      <trkpt lat="39.575182981789112" lon="-8.875434994697571">
        <ele>182.31</ele>
        <time>2025-05-04T11:03:17Z</time>
      </trkpt>
      <trkpt lat="39.572874018922448" lon="-8.876740979030728">
        <ele>195.77000000000001</ele>
        <time>2025-05-04T11:03:30Z</time>
      </trkpt>
      <trkpt lat="39.570511998608708" lon="-8.878259025514126">
        <ele>202.97999999999999</ele>
        <time>2025-05-04T11:03:44Z</time>
      </trkpt>
      <trkpt lat="39.567969013005495" lon="-8.880017967894673">
        <ele>206.34</ele>
        <time>2025-05-04T11:04:00Z</time>
      </trkpt>
      <trkpt lat="39.565801033750176" lon="-8.881603991612792">
        <ele>210.19</ele>
        <time>2025-05-04T11:04:14Z</time>
      </trkpt>
      <trkpt lat="39.56447996199131" lon="-8.882510997354984">
        <ele>211.15000000000001</ele>
        <time>2025-05-04T11:04:24Z</time>
      </trkpt>
      <trkpt lat="39.562753960490227" lon="-8.883695024996996">
        <ele>210.19</ele>
        <time>2025-05-04T11:04:35Z</time>
      </trkpt>
      <trkpt lat="39.560163030400872" lon="-8.885474000126123">
        <ele>202.97999999999999</ele>
        <time>2025-05-04T11:04:51Z</time>
      </trkpt>
      <trkpt lat="39.558318005874753" lon="-8.88675601221621">
        <ele>195.77000000000001</ele>
        <time>2025-05-04T11:05:02Z</time>
      </trkpt>
      <trkpt lat="39.557153005152941" lon="-8.887723032385111">
        <ele>190.47999999999999</ele>
        <time>2025-05-04T11:05:10Z</time>
      </trkpt>
      <trkpt lat="39.55704496242106" lon="-8.88785001821816">
        <ele>190</ele>
        <time>2025-05-04T11:05:11Z</time>
      </trkpt>
      <trkpt lat="39.556969022378325" lon="-8.88800298795104">
        <ele>189.03999999999999</ele>
        <time>2025-05-04T11:05:12Z</time>
      </trkpt>
      <trkpt lat="39.556912025436759" lon="-8.88817397877574">
        <ele>189.03999999999999</ele>
        <time>2025-05-04T11:05:13Z</time>
      </trkpt>
      <trkpt lat="39.556855028495193" lon="-8.888343963772059">
        <ele>189.03999999999999</ele>
        <time>2025-05-04T11:05:14Z</time>
      </trkpt>
      <trkpt lat="39.556824015453458" lon="-8.888521995395422">
        <ele>189.03999999999999</ele>
        <time>2025-05-04T11:05:15Z</time>
      </trkpt>
      <trkpt lat="39.556814040988684" lon="-8.888712013140321">
        <ele>189.52000000000001</ele>
        <time>2025-05-04T11:05:16Z</time>
      </trkpt>
      <trkpt lat="39.5568270329386" lon="-8.888907982036471">
        <ele>190</ele>
        <time>2025-05-04T11:05:17Z</time>
      </trkpt>
      <trkpt lat="39.556839019060135" lon="-8.889105962589383">
        <ele>190</ele>
        <time>2025-05-04T11:05:18Z</time>
      </trkpt>
      <trkpt lat="39.556866008788347" lon="-8.889359012246132">
        <ele>190</ele>
        <time>2025-05-04T11:05:19Z</time>
      </trkpt>
      <trkpt lat="39.556955024600029" lon="-8.88954802416265">
        <ele>190</ele>
        <time>2025-05-04T11:05:20Z</time>
      </trkpt>
      <trkpt lat="39.55798901617527" lon="-8.891732012853026">
        <ele>190.47999999999999</ele>
        <time>2025-05-04T11:05:30Z</time>
      </trkpt>
      <trkpt lat="39.559791963547468" lon="-8.895643008872867">
        <ele>190.96000000000001</ele>
        <time>2025-05-04T11:05:46Z</time>
      </trkpt>
      <trkpt lat="39.561175983399153" lon="-8.899213029071689">
        <ele>181.34999999999999</ele>
        <time>2025-05-04T11:06:00Z</time>
      </trkpt>
      <trkpt lat="39.562218021601439" lon="-8.902958985418081">
        <ele>161.16</ele>
        <time>2025-05-04T11:06:14Z</time>
      </trkpt>
      <trkpt lat="39.562975997105241" lon="-8.906797980889678">
        <ele>146.25999999999999</ele>
        <time>2025-05-04T11:06:28Z</time>
      </trkpt>
      <trkpt lat="39.563472960144281" lon="-8.910985998809338">
        <ele>149.62</ele>
        <time>2025-05-04T11:06:43Z</time>
      </trkpt>
      <trkpt lat="39.564251974225044" lon="-8.915129005908966">
        <ele>150.58000000000001</ele>
        <time>2025-05-04T11:06:58Z</time>
      </trkpt>
      <trkpt lat="39.5650589838624" lon="-8.918950986117125">
        <ele>154.43000000000001</ele>
        <time>2025-05-04T11:07:12Z</time>
      </trkpt>
      <trkpt lat="39.565030988305807" lon="-8.921210998669267">
        <ele>156.34999999999999</ele>
        <time>2025-05-04T11:07:20Z</time>
      </trkpt>
      <trkpt lat="39.564538970589638" lon="-8.923380989581347">
        <ele>158.27000000000001</ele>
        <time>2025-05-04T11:07:28Z</time>
      </trkpt>
      <trkpt lat="39.563348991796374" lon="-8.926426973193884">
        <ele>160.19999999999999</ele>
        <time>2025-05-04T11:07:40Z</time>
      </trkpt>
      <trkpt lat="39.562152978032827" lon="-8.929764982312918">
        <ele>164.03999999999999</ele>
        <time>2025-05-04T11:07:53Z</time>
      </trkpt>
      <trkpt lat="39.561230968683958" lon="-8.933557961136103">
        <ele>172.69</ele>
        <time>2025-05-04T11:08:07Z</time>
      </trkpt>
      <trkpt lat="39.560553040355444" lon="-8.937456971034408">
        <ele>171.72999999999999</ele>
        <time>2025-05-04T11:08:21Z</time>
      </trkpt>
      <trkpt lat="39.559803027659655" lon="-8.941900972276926">
        <ele>152.99000000000001</ele>
        <time>2025-05-04T11:08:37Z</time>
      </trkpt>
      <trkpt lat="39.559198021888733" lon="-8.944018995389342">
        <ele>146.25999999999999</ele>
        <time>2025-05-04T11:08:45Z</time>
      </trkpt>
      <trkpt lat="39.55822697840631" lon="-8.946279007941485">
        <ele>139.05000000000001</ele>
        <time>2025-05-04T11:08:54Z</time>
      </trkpt>
      <trkpt lat="39.557862030342221" lon="-8.948187986388803">
        <ele>130.88</ele>
        <time>2025-05-04T11:09:01Z</time>
      </trkpt>
      <trkpt lat="39.557863958179951" lon="-8.950729966163635">
        <ele>115.98</ele>
        <time>2025-05-04T11:09:10Z</time>
      </trkpt>
      <trkpt lat="39.558138968423009" lon="-8.954654037952423">
        <ele>103</ele>
        <time>2025-05-04T11:09:24Z</time>
      </trkpt>
      <trkpt lat="39.558819998055696" lon="-8.957329038530588">
        <ele>108.29000000000001</ele>
        <time>2025-05-04T11:09:34Z</time>
      </trkpt>
      <trkpt lat="39.559948034584522" lon="-8.959739003330469">
        <ele>120.78</ele>
        <time>2025-05-04T11:09:44Z</time>
      </trkpt>
      <trkpt lat="39.561334988102317" lon="-8.961584027856588">
        <ele>129.43000000000001</ele>
        <time>2025-05-04T11:09:53Z</time>
      </trkpt>
      <trkpt lat="39.562916988506913" lon="-8.963165022432804">
        <ele>130.88</ele>
        <time>2025-05-04T11:10:02Z</time>
      </trkpt>
      <trkpt lat="39.56456596031785" lon="-8.965043993666768">
        <ele>124.63</ele>
        <time>2025-05-04T11:10:12Z</time>
      </trkpt>
      <trkpt lat="39.565557958558202" lon="-8.966919025406241">
        <ele>114.05</ele>
        <time>2025-05-04T11:10:20Z</time>
      </trkpt>
      <trkpt lat="39.566735029220581" lon="-8.970269020646811">
        <ele>98.189999999999998</ele>
        <time>2025-05-04T11:10:33Z</time>
      </trkpt>
      <trkpt lat="39.567884020507336" lon="-8.973584985360503">
        <ele>85.209999999999994</ele>
        <time>2025-05-04T11:10:46Z</time>
      </trkpt>
      <trkpt lat="39.568741992115974" lon="-8.976173987612128">
        <ele>71.269999999999996</ele>
        <time>2025-05-04T11:10:56Z</time>
      </trkpt>
      <trkpt lat="39.569129990413785" lon="-8.978366022929549">
        <ele>63.579999999999998</ele>
        <time>2025-05-04T11:11:04Z</time>
      </trkpt>
      <trkpt lat="39.56978403031826" lon="-8.98049402050674">
        <ele>55.890000000000001</ele>
        <time>2025-05-04T11:11:13Z</time>
      </trkpt>
      <trkpt lat="39.570668991655111" lon="-8.982056993991137">
        <ele>48.68</ele>
        <time>2025-05-04T11:11:20Z</time>
      </trkpt>
      <trkpt lat="39.572313018143177" lon="-8.985429033637047">
        <ele>30.420000000000002</ele>
        <time>2025-05-04T11:11:34Z</time>
      </trkpt>
      <trkpt lat="39.573626965284348" lon="-8.989330977201462">
        <ele>26.09</ele>
        <time>2025-05-04T11:11:49Z</time>
      </trkpt>
      <trkpt lat="39.575032023712993" lon="-8.994111008942127">
        <ele>24.649999999999999</ele>
        <time>2025-05-04T11:12:07Z</time>
      </trkpt>
      <trkpt lat="39.576038019731641" lon="-8.997590001672506">
        <ele>26.09</ele>
        <time>2025-05-04T11:12:20Z</time>
      </trkpt>
      <trkpt lat="39.577427990734577" lon="-9.001751029863954">
        <ele>21.289999999999999</ele>
        <time>2025-05-04T11:12:36Z</time>
      </trkpt>
      <trkpt lat="39.578484026715159" lon="-9.003146030008793">
        <ele>19.84</ele>
        <time>2025-05-04T11:12:43Z</time>
      </trkpt>
      <trkpt lat="39.580065021291375" lon="-9.004116989672184">
        <ele>21.77</ele>
        <time>2025-05-04T11:12:51Z</time>
      </trkpt>
      <trkpt lat="39.583365982398391" lon="-9.005728997290134">
        <ele>27.530000000000001</ele>
        <time>2025-05-04T11:13:07Z</time>
      </trkpt>
      <trkpt lat="39.586430992931128" lon="-9.007229022681713">
        <ele>29.940000000000001</ele>
        <time>2025-05-04T11:13:22Z</time>
      </trkpt>
      <trkpt lat="39.589490974321961" lon="-9.008802976459265">
        <ele>32.82</ele>
        <time>2025-05-04T11:13:37Z</time>
      </trkpt>
      <trkpt lat="39.592016022652388" lon="-9.010516991838813">
        <ele>33.780000000000001</ele>
        <time>2025-05-04T11:13:50Z</time>
      </trkpt>
      <trkpt lat="39.596009999513626" lon="-9.013493992388248">
        <ele>37.149999999999999</ele>
        <time>2025-05-04T11:14:11Z</time>
      </trkpt>
      <trkpt lat="39.597740024328232" lon="-9.015213958919048">
        <ele>44.359999999999999</ele>
        <time>2025-05-04T11:14:21Z</time>
      </trkpt>
      <trkpt lat="39.599005021154881" lon="-9.017196027562022">
        <ele>51.090000000000003</ele>
        <time>2025-05-04T11:14:30Z</time>
      </trkpt>
      <trkpt lat="39.600128028541803" lon="-9.01996498927474">
        <ele>58.299999999999997</ele>
        <time>2025-05-04T11:14:41Z</time>
      </trkpt>
      <trkpt lat="39.601272996515036" lon="-9.023155979812145">
        <ele>60.219999999999999</ele>
        <time>2025-05-04T11:14:53Z</time>
      </trkpt>
      <trkpt lat="39.601913038641214" lon="-9.024939984083176">
        <ele>56.369999999999997</ele>
        <time>2025-05-04T11:14:59Z</time>
      </trkpt>
      <trkpt lat="39.60304400883615" lon="-9.02767701074481">
        <ele>45.32</ele>
        <time>2025-05-04T11:15:10Z</time>
      </trkpt>
      <trkpt lat="39.604237005114555" lon="-9.028902025893331">
        <ele>41.469999999999999</ele>
        <time>2025-05-04T11:15:17Z</time>
      </trkpt>
      <trkpt lat="39.605764020234346" lon="-9.030398027971387">
        <ele>41.469999999999999</ele>
        <time>2025-05-04T11:15:26Z</time>
      </trkpt>
      <trkpt lat="39.606515960767865" lon="-9.032092010602355">
        <ele>41.950000000000003</ele>
        <time>2025-05-04T11:15:33Z</time>
      </trkpt>
      <trkpt lat="39.60678300820291" lon="-9.034040970727801">
        <ele>44.359999999999999</ele>
        <time>2025-05-04T11:15:40Z</time>
      </trkpt>
      <trkpt lat="39.606649987399578" lon="-9.036809010431171">
        <ele>51.090000000000003</ele>
        <time>2025-05-04T11:15:50Z</time>
      </trkpt>
      <trkpt lat="39.606440020725131" lon="-9.040775997564197">
        <ele>64.549999999999997</ele>
        <time>2025-05-04T11:16:04Z</time>
      </trkpt>
      <trkpt lat="39.606199041008949" lon="-9.045566003769636">
        <ele>79.450000000000003</ele>
        <time>2025-05-04T11:16:21Z</time>
      </trkpt>
      <trkpt lat="39.605953032150865" lon="-9.050088040530682">
        <ele>87.620000000000005</ele>
        <time>2025-05-04T11:16:37Z</time>
      </trkpt>
      <trkpt lat="39.60579302161932" lon="-9.05320200137794">
        <ele>105.40000000000001</ele>
        <time>2025-05-04T11:16:48Z</time>
      </trkpt>
      <trkpt lat="39.605723032727838" lon="-9.054218977689743">
        <ele>112.61</ele>
        <time>2025-05-04T11:16:53Z</time>
      </trkpt>
      <trkpt lat="39.605680033564568" lon="-9.055115003138781">
        <ele>117.90000000000001</ele>
        <time>2025-05-04T11:17:00Z</time>
      </trkpt>
      <trkpt lat="39.605675004422665" lon="-9.055217010900378">
        <ele>118.38</ele>
        <time>2025-05-04T11:17:01Z</time>
      </trkpt>
      <trkpt lat="39.605841971933842" lon="-9.05539495870471">
        <ele>118.86</ele>
        <time>2025-05-04T11:17:02Z</time>
      </trkpt>
      <trkpt lat="39.605848006904125" lon="-9.055407028645277">
        <ele>119.34</ele>
        <time>2025-05-04T11:17:03Z</time>
      </trkpt>
      <trkpt lat="39.60590198636055" lon="-9.055501995608211">
        <ele>119.34</ele>
        <time>2025-05-04T11:17:04Z</time>
      </trkpt>
      <trkpt lat="39.605949008837342" lon="-9.055604003369808">
        <ele>119.81999999999999</ele>
        <time>2025-05-04T11:17:05Z</time>
      </trkpt>
      <trkpt lat="39.605949008837342" lon="-9.055726965889335">
        <ele>119.81999999999999</ele>
        <time>2025-05-04T11:17:06Z</time>
      </trkpt>
      <trkpt lat="39.605949008837342" lon="-9.055845988914371">
        <ele>119.34</ele>
        <time>2025-05-04T11:17:07Z</time>
      </trkpt>
      <trkpt lat="39.605949008837342" lon="-9.055845988914371">
        <ele>119.34</ele>
        <time>2025-05-04T11:17:08Z</time>
      </trkpt>
      <trkpt lat="39.605863010510802" lon="-9.056167015805841">
        <ele>118.86</ele>
        <time>2025-05-04T11:17:09Z</time>
      </trkpt>
      <trkpt lat="39.605916989967227" lon="-9.056273968890309">
        <ele>118.38</ele>
        <time>2025-05-04T11:17:10Z</time>
      </trkpt>
      <trkpt lat="39.605967029929161" lon="-9.056373964995146">
        <ele>117.90000000000001</ele>
        <time>2025-05-04T11:17:11Z</time>
      </trkpt>
      <trkpt lat="39.606016986072063" lon="-9.056474966928363">
        <ele>117.90000000000001</ele>
        <time>2025-05-04T11:17:12Z</time>
      </trkpt>
      <trkpt lat="39.606085969135165" lon="-9.056560965254903">
        <ele>118.38</ele>
        <time>2025-05-04T11:17:13Z</time>
      </trkpt>
      <trkpt lat="39.60616098716855" lon="-9.056636989116669">
        <ele>118.38</ele>
        <time>2025-05-04T11:17:14Z</time>
      </trkpt>
      <trkpt lat="39.606236005201936" lon="-9.056713012978435">
        <ele>118.86</ele>
        <time>2025-05-04T11:17:15Z</time>
      </trkpt>
      <trkpt lat="39.607025999575853" lon="-9.057704005390406">
        <ele>120.3</ele>
        <time>2025-05-04T11:17:27Z</time>
      </trkpt>
      <trkpt lat="39.607263961806893" lon="-9.058003993704915">
        <ele>120.3</ele>
        <time>2025-05-04T11:17:31Z</time>
      </trkpt>
      <trkpt lat="39.607477029785514" lon="-9.058034000918269">
        <ele>120.78</ele>
        <time>2025-05-04T11:17:33Z</time>
      </trkpt>
      <trkpt lat="39.607516005635262" lon="-9.058098960667849">
        <ele>120.78</ele>
        <time>2025-05-04T11:17:34Z</time>
      </trkpt>
      <trkpt lat="39.607565961778164" lon="-9.058256959542632">
        <ele>121.26000000000001</ele>
        <time>2025-05-04T11:17:35Z</time>
      </trkpt>
      <trkpt lat="39.607655983418226" lon="-9.058271963149309">
        <ele>122.70999999999999</ele>
        <time>2025-05-04T11:17:36Z</time>
      </trkpt>
      <trkpt lat="39.607763020321727" lon="-9.058289984241128">
        <ele>124.15000000000001</ele>
        <time>2025-05-04T11:17:37Z</time>
      </trkpt>
      <trkpt lat="39.607901992276311" lon="-9.05831303447485">
        <ele>125.11</ele>
        <time>2025-05-04T11:17:38Z</time>
      </trkpt>
      <trkpt lat="39.608897008001804" lon="-9.058409007266164">
        <ele>134.72</ele>
        <time>2025-05-04T11:17:48Z</time>
      </trkpt>
      <trkpt lat="39.609099011868238" lon="-9.058432979509234">
        <ele>135.19999999999999</ele>
        <time>2025-05-04T11:17:50Z</time>
      </trkpt>
      <trkpt lat="39.609196996316314" lon="-9.05846600420773">
        <ele>135.68000000000001</ele>
        <time>2025-05-04T11:17:51Z</time>
      </trkpt>
      <trkpt lat="39.609288023784757" lon="-9.058515038341284">
        <ele>135.68000000000001</ele>
        <time>2025-05-04T11:17:52Z</time>
      </trkpt>
      <trkpt lat="39.609372010454535" lon="-9.058590978384018">
        <ele>135.19999999999999</ele>
        <time>2025-05-04T11:17:53Z</time>
      </trkpt>
      <trkpt lat="39.609460020437837" lon="-9.058671025559306">
        <ele>135.19999999999999</ele>
        <time>2025-05-04T11:17:54Z</time>
      </trkpt>
      <trkpt lat="39.609611984342337" lon="-9.058869006112218">
        <ele>133.75999999999999</ele>
        <time>2025-05-04T11:17:56Z</time>
      </trkpt>
      <trkpt lat="39.609670992940664" lon="-9.058967996388674">
        <ele>133.28</ele>
        <time>2025-05-04T11:17:57Z</time>
      </trkpt>
      <trkpt lat="39.61007097736001" lon="-9.059930993244052">
        <ele>127.03</ele>
        <time>2025-05-04T11:18:06Z</time>
      </trkpt>
      <trkpt lat="39.610438020899892" lon="-9.060778990387917">
        <ele>123.67</ele>
        <time>2025-05-04T11:18:14Z</time>
      </trkpt>
      <trkpt lat="39.610484959557652" lon="-9.060888038948178">
        <ele>122.70999999999999</ele>
        <time>2025-05-04T11:18:15Z</time>
      </trkpt>
      <trkpt lat="39.610982006415725" lon="-9.062033006921411">
        <ele>119.34</ele>
        <time>2025-05-04T11:18:26Z</time>
      </trkpt>
      <trkpt lat="39.611034980043769" lon="-9.062154041603208">
        <ele>119.34</ele>
        <time>2025-05-04T11:18:27Z</time>
      </trkpt>
      <trkpt lat="39.611131036654115" lon="-9.062281027436256">
        <ele>118.86</ele>
        <time>2025-05-04T11:18:29Z</time>
      </trkpt>
      <trkpt lat="39.611194990575314" lon="-9.062318997457624">
        <ele>118.86</ele>
        <time>2025-05-04T11:18:30Z</time>
      </trkpt>
      <trkpt lat="39.611277971416712" lon="-9.062312040477991">
        <ele>118.86</ele>
        <time>2025-05-04T11:18:31Z</time>
      </trkpt>
      <trkpt lat="39.611319964751601" lon="-9.062354033812881">
        <ele>118.38</ele>
        <time>2025-05-04T11:18:32Z</time>
      </trkpt>
      <trkpt lat="39.611347960308194" lon="-9.062435002997518">
        <ele>118.38</ele>
        <time>2025-05-04T11:18:33Z</time>
      </trkpt>
      <trkpt lat="39.611357012763619" lon="-9.062475990504026">
        <ele>118.38</ele>
        <time>2025-05-04T11:18:34Z</time>
      </trkpt>
      <trkpt lat="39.611302027478814" lon="-9.062548996880651">
        <ele>118.38</ele>
        <time>2025-05-04T11:18:35Z</time>
      </trkpt>
      <trkpt lat="39.611269002780318" lon="-9.062561988830566">
        <ele>117.90000000000001</ele>
        <time>2025-05-04T11:18:36Z</time>
      </trkpt>
      <trkpt lat="39.611215023323894" lon="-9.062561988830566">
        <ele>117.90000000000001</ele>
        <time>2025-05-04T11:18:37Z</time>
      </trkpt>
      <trkpt lat="39.611206976696849" lon="-9.062561988830566">
        <ele>117.90000000000001</ele>
        <time>2025-05-04T11:18:38Z</time>
      </trkpt>
      <trkpt lat="39.61105702444911" lon="-9.06256802380085">
        <ele>117.42</ele>
        <time>2025-05-04T11:18:39Z</time>
      </trkpt>
      <trkpt lat="39.611002039164305" lon="-9.062613034620881">
        <ele>117.42</ele>
        <time>2025-05-04T11:18:40Z</time>
      </trkpt>
      <trkpt lat="39.610095033422112" lon="-9.063259027898312">
        <ele>115.98</ele>
        <time>2025-05-04T11:18:51Z</time>
      </trkpt>
      <trkpt lat="39.609060036018491" lon="-9.064085986465216">
        <ele>113.56999999999999</ele>
        <time>2025-05-04T11:19:02Z</time>
      </trkpt>
      <trkpt lat="39.608563994988799" lon="-9.064678000286222">
        <ele>111.17</ele>
        <time>2025-05-04T11:19:08Z</time>
      </trkpt>
      <trkpt lat="39.607944991439581" lon="-9.065436981618404">
        <ele>105.88</ele>
        <time>2025-05-04T11:19:17Z</time>
      </trkpt>
      <trkpt lat="39.607881037518382" lon="-9.065780974924564">
        <ele>103.48</ele>
        <time>2025-05-04T11:19:22Z</time>
      </trkpt>
      <trkpt lat="39.607872990891337" lon="-9.065797990188003">
        <ele>102.52</ele>
        <time>2025-05-04T11:19:23Z</time>
      </trkpt>
      <trkpt lat="39.607848012819886" lon="-9.065853981301189">
        <ele>102.04000000000001</ele>
        <time>2025-05-04T11:19:24Z</time>
      </trkpt>
      <trkpt lat="39.607837032526731" lon="-9.066059002652764">
        <ele>101.08</ele>
        <time>2025-05-04T11:19:26Z</time>
      </trkpt>
      <trkpt lat="39.607980027794838" lon="-9.06665001064539">
        <ele>98.670000000000002</ele>
        <time>2025-05-04T11:19:34Z</time>
      </trkpt>
      <trkpt lat="39.607970975339413" lon="-9.066742965951562">
        <ele>99.150000000000006</ele>
        <time>2025-05-04T11:19:35Z</time>
      </trkpt>
      <trkpt lat="39.607950020581484" lon="-9.06684497371316">
        <ele>100.11</ele>
        <time>2025-05-04T11:19:36Z</time>
      </trkpt>
      <trkpt lat="39.60792001336813" lon="-9.066946981474757">
        <ele>100.59999999999999</ele>
        <time>2025-05-04T11:19:37Z</time>
      </trkpt>
      <trkpt lat="39.60787802003324" lon="-9.067048989236355">
        <ele>101.08</ele>
        <time>2025-05-04T11:19:38Z</time>
      </trkpt>
      <trkpt lat="39.607285000383854" lon="-9.068293031305075">
        <ele>108.29000000000001</ele>
        <time>2025-05-04T11:19:48Z</time>
      </trkpt>
      <trkpt lat="39.606705978512764" lon="-9.069554004818201">
        <ele>118.38</ele>
        <time>2025-05-04T11:19:58Z</time>
      </trkpt>
      <trkpt lat="39.606424011290073" lon="-9.070463022217155">
        <ele>125.11</ele>
        <time>2025-05-04T11:20:05Z</time>
      </trkpt>
      <trkpt lat="39.606141960248351" lon="-9.071357036009431">
        <ele>129.91999999999999</ele>
        <time>2025-05-04T11:20:12Z</time>
      </trkpt>
      <trkpt lat="39.605980021879077" lon="-9.072099002078176">
        <ele>132.31999999999999</ele>
        <time>2025-05-04T11:20:19Z</time>
      </trkpt>
      <trkpt lat="39.605993013828993" lon="-9.072180977091193">
        <ele>131.84</ele>
        <time>2025-05-04T11:20:20Z</time>
      </trkpt>
      <trkpt lat="39.606038024649024" lon="-9.072234034538269">
        <ele>131.84</ele>
        <time>2025-05-04T11:20:21Z</time>
      </trkpt>
      <trkpt lat="39.606131985783577" lon="-9.072363032028079">
        <ele>131.84</ele>
        <time>2025-05-04T11:20:23Z</time>
      </trkpt>
      <trkpt lat="39.606174984946847" lon="-9.0724310092628">
        <ele>131.84</ele>
        <time>2025-05-04T11:20:24Z</time>
      </trkpt>
      <trkpt lat="39.606256959959865" lon="-9.07257903367281">
        <ele>132.31999999999999</ele>
        <time>2025-05-04T11:20:26Z</time>
      </trkpt>
      <trkpt lat="39.606367014348507" lon="-9.072700990363956">
        <ele>132.31999999999999</ele>
        <time>2025-05-04T11:20:28Z</time>
      </trkpt>
      <trkpt lat="39.6065469738096" lon="-9.072913974523544">
        <ele>131.36000000000001</ele>
        <time>2025-05-04T11:20:32Z</time>
      </trkpt>
      <trkpt lat="39.606583015993237" lon="-9.072991004213691">
        <ele>130.88</ele>
        <time>2025-05-04T11:20:33Z</time>
      </trkpt>
      <trkpt lat="39.606560971587896" lon="-9.073038026690483">
        <ele>130.40000000000001</ele>
        <time>2025-05-04T11:20:34Z</time>
      </trkpt>
      <trkpt lat="39.606532976031303" lon="-9.073099968954921">
        <ele>129.91999999999999</ele>
        <time>2025-05-04T11:20:35Z</time>
      </trkpt>
      <trkpt lat="39.606502968817949" lon="-9.073164006695151">
        <ele>129.43000000000001</ele>
        <time>2025-05-04T11:20:36Z</time>
      </trkpt>
      <trkpt lat="39.606463992968202" lon="-9.07324799336493">
        <ele>128.94999999999999</ele>
        <time>2025-05-04T11:20:37Z</time>
      </trkpt>
      <trkpt lat="39.606456030160189" lon="-9.073315970599651">
        <ele>128.47</ele>
        <time>2025-05-04T11:20:38Z</time>
      </trkpt>
      <trkpt lat="39.606444966048002" lon="-9.073400963097811">
        <ele>127.98999999999999</ele>
        <time>2025-05-04T11:20:39Z</time>
      </trkpt>
      <trkpt lat="39.606489976868033" lon="-9.073489978909493">
        <ele>127.03</ele>
        <time>2025-05-04T11:20:40Z</time>
      </trkpt>
      <trkpt lat="39.606530964374542" lon="-9.073552004992962">
        <ele>126.06999999999999</ele>
        <time>2025-05-04T11:20:41Z</time>
      </trkpt>
      <trkpt lat="39.606572035700083" lon="-9.073613025248051">
        <ele>125.11</ele>
        <time>2025-05-04T11:20:42Z</time>
      </trkpt>
      <trkpt lat="39.606628026813269" lon="-9.073639009147883">
        <ele>124.63</ele>
        <time>2025-05-04T11:20:43Z</time>
      </trkpt>
      <trkpt lat="39.606698015704751" lon="-9.073672033846378">
        <ele>123.67</ele>
        <time>2025-05-04T11:20:44Z</time>
      </trkpt>
      <trkpt lat="39.606770016252995" lon="-9.073705980554223">
        <ele>123.19</ele>
        <time>2025-05-04T11:20:45Z</time>
      </trkpt>
      <trkpt lat="39.606836987659335" lon="-9.073737999424338">
        <ele>122.70999999999999</ele>
        <time>2025-05-04T11:20:46Z</time>
      </trkpt>
      <trkpt lat="39.606903959065676" lon="-9.073769012466073">
        <ele>121.73999999999999</ele>
        <time>2025-05-04T11:20:47Z</time>
      </trkpt>
      <trkpt lat="39.606973025947809" lon="-9.073802037164569">
        <ele>120.78</ele>
        <time>2025-05-04T11:20:48Z</time>
      </trkpt>
      <trkpt lat="39.607044020667672" lon="-9.073834978044033">
        <ele>120.3</ele>
        <time>2025-05-04T11:20:49Z</time>
      </trkpt>
      <trkpt lat="39.607109986245632" lon="-9.073865991085768">
        <ele>119.34</ele>
        <time>2025-05-04T11:20:50Z</time>
      </trkpt>
      <trkpt lat="39.607171006500721" lon="-9.073894992470741">
        <ele>118.38</ele>
        <time>2025-05-04T11:20:51Z</time>
      </trkpt>
      <trkpt lat="39.607224985957146" lon="-9.073919970542193">
        <ele>117.90000000000001</ele>
        <time>2025-05-04T11:20:52Z</time>
      </trkpt>
      <trkpt lat="39.607281982898712" lon="-9.073946960270405">
        <ele>117.42</ele>
        <time>2025-05-04T11:20:53Z</time>
      </trkpt>
      <trkpt lat="39.607330011203885" lon="-9.073994988575578">
        <ele>116.45999999999999</ele>
        <time>2025-05-04T11:20:54Z</time>
      </trkpt>
      <trkpt lat="39.607363035902381" lon="-9.074057014659047">
        <ele>115.5</ele>
        <time>2025-05-04T11:20:55Z</time>
      </trkpt>
      <trkpt lat="39.607351971790195" lon="-9.074119962751865">
        <ele>114.53</ele>
        <time>2025-05-04T11:20:56Z</time>
      </trkpt>
      <trkpt lat="39.607337974011898" lon="-9.074195986613631">
        <ele>114.05</ele>
        <time>2025-05-04T11:20:57Z</time>
      </trkpt>
      <trkpt lat="39.607322970405221" lon="-9.074280979111791">
        <ele>113.09</ele>
        <time>2025-05-04T11:20:58Z</time>
      </trkpt>
      <trkpt lat="39.607307966798544" lon="-9.074366977438331">
        <ele>112.13</ele>
        <time>2025-05-04T11:20:59Z</time>
      </trkpt>
      <trkpt lat="39.607292041182518" lon="-9.074455993250012">
        <ele>111.65000000000001</ele>
        <time>2025-05-04T11:21:00Z</time>
      </trkpt>
      <trkpt lat="39.607142005115747" lon="-9.074776014313102">
        <ele>109.25</ele>
        <time>2025-05-04T11:21:04Z</time>
      </trkpt>
      <trkpt lat="39.607090037316084" lon="-9.074832005426288">
        <ele>108.77</ele>
        <time>2025-05-04T11:21:05Z</time>
      </trkpt>
      <trkpt lat="39.607021976262331" lon="-9.074899982661009">
        <ele>108.77</ele>
        <time>2025-05-04T11:21:06Z</time>
      </trkpt>
      <trkpt lat="39.606788959354162" lon="-9.075211035087705">
        <ele>107.81</ele>
        <time>2025-05-04T11:21:11Z</time>
      </trkpt>
      <trkpt lat="39.606736991554499" lon="-9.075280018150806">
        <ele>107.81</ele>
        <time>2025-05-04T11:21:12Z</time>
      </trkpt>
      <trkpt lat="39.606545967981219" lon="-9.075552010908723">
        <ele>107.31999999999999</ele>
        <time>2025-05-04T11:21:16Z</time>
      </trkpt>
      <trkpt lat="39.60650397464633" lon="-9.075638009235263">
        <ele>106.84</ele>
        <time>2025-05-04T11:21:17Z</time>
      </trkpt>
      <trkpt lat="39.606373971328139" lon="-9.075865997001529">
        <ele>106.36</ele>
        <time>2025-05-04T11:21:20Z</time>
      </trkpt>
      <trkpt lat="39.606319991871715" lon="-9.075915031135082">
        <ele>106.36</ele>
        <time>2025-05-04T11:21:21Z</time>
      </trkpt>
      <trkpt lat="39.606264000758529" lon="-9.075965993106365">
        <ele>106.36</ele>
        <time>2025-05-04T11:21:22Z</time>
      </trkpt>
      <trkpt lat="39.606184959411621" lon="-9.076037993654609">
        <ele>106.36</ele>
        <time>2025-05-04T11:21:23Z</time>
      </trkpt>
      <trkpt lat="39.606133997440338" lon="-9.076055008918047">
        <ele>106.84</ele>
        <time>2025-05-04T11:21:24Z</time>
      </trkpt>
      <trkpt lat="39.606060991063714" lon="-9.076080992817879">
        <ele>106.84</ele>
        <time>2025-05-04T11:21:25Z</time>
      </trkpt>
      <trkpt lat="39.605534020811319" lon="-9.076221976429224">
        <ele>111.17</ele>
        <time>2025-05-04T11:21:34Z</time>
      </trkpt>
      <trkpt lat="39.605500996112823" lon="-9.076230023056269">
        <ele>111.65000000000001</ele>
        <time>2025-05-04T11:21:35Z</time>
      </trkpt>
      <trkpt lat="39.605482975021005" lon="-9.076184006407857">
        <ele>112.61</ele>
        <time>2025-05-04T11:21:36Z</time>
      </trkpt>
      <trkpt lat="39.605467971414328" lon="-9.076137989759445">
        <ele>113.09</ele>
        <time>2025-05-04T11:21:37Z</time>
      </trkpt>
      <trkpt lat="39.605442993342876" lon="-9.076063977554441">
        <ele>114.53</ele>
        <time>2025-05-04T11:21:40Z</time>
      </trkpt>
      <trkpt lat="39.605437964200974" lon="-9.076048973947763">
        <ele>114.53</ele>
        <time>2025-05-04T11:21:41Z</time>
      </trkpt>
      <trkpt lat="39.605430001392961" lon="-9.076023995876312">
        <ele>115.01000000000001</ele>
        <time>2025-05-04T11:21:42Z</time>
      </trkpt>
      <trkpt lat="39.605418015271425" lon="-9.075988959521055">
        <ele>115.5</ele>
        <time>2025-05-04T11:21:43Z</time>
      </trkpt>
      <trkpt lat="39.605403011664748" lon="-9.075953001156449">
        <ele>115.98</ele>
        <time>2025-05-04T11:21:44Z</time>
      </trkpt>
      <trkpt lat="39.605382978916168" lon="-9.075913019478321">
        <ele>115.98</ele>
        <time>2025-05-04T11:21:45Z</time>
      </trkpt>
      <trkpt lat="39.605239983648062" lon="-9.075628034770489">
        <ele>117.90000000000001</ele>
        <time>2025-05-04T11:21:54Z</time>
      </trkpt>
      <trkpt lat="39.605224980041385" lon="-9.075512029230595">
        <ele>118.38</ele>
        <time>2025-05-04T11:21:58Z</time>
      </trkpt>
      <trkpt lat="39.605254987254739" lon="-9.075475987046957">
        <ele>118.38</ele>
        <time>2025-05-04T11:21:59Z</time>
      </trkpt>
      <trkpt lat="39.605287006124854" lon="-9.07543801702559">
        <ele>118.38</ele>
        <time>2025-05-04T11:22:00Z</time>
      </trkpt>
      <trkpt lat="39.605306033045053" lon="-9.075414966791868">
        <ele>117.90000000000001</ele>
        <time>2025-05-04T11:22:01Z</time>
      </trkpt>
      <trkpt lat="39.605338973924518" lon="-9.075365010648966">
        <ele>117.90000000000001</ele>
        <time>2025-05-04T11:22:02Z</time>
      </trkpt>
      <trkpt lat="39.605358000844717" lon="-9.075336009263992">
        <ele>117.42</ele>
        <time>2025-05-04T11:22:03Z</time>
      </trkpt>
      <trkpt lat="39.605464031919837" lon="-9.07515998929739">
        <ele>116.94</ele>
        <time>2025-05-04T11:22:08Z</time>
      </trkpt>
      <trkpt lat="39.605570985004306" lon="-9.074976006522775">
        <ele>115.98</ele>
        <time>2025-05-04T11:22:12Z</time>
      </trkpt>
      <trkpt lat="39.605595963075757" lon="-9.074933007359505">
        <ele>115.98</ele>
        <time>2025-05-04T11:22:13Z</time>
      </trkpt>
      <trkpt lat="39.605627981945872" lon="-9.07487902790308">
        <ele>115.98</ele>
        <time>2025-05-04T11:22:15Z</time>
      </trkpt>
      <trkpt lat="39.605652960017323" lon="-9.074800992384553">
        <ele>115.98</ele>
        <time>2025-05-04T11:22:16Z</time>
      </trkpt>
      <trkpt lat="39.605678021907806" lon="-9.074737960472703">
        <ele>115.98</ele>
        <time>2025-05-04T11:22:17Z</time>
      </trkpt>
      <trkpt lat="39.605702999979258" lon="-9.074694961309433">
        <ele>115.98</ele>
        <time>2025-05-04T11:22:18Z</time>
      </trkpt>
      <trkpt lat="39.605730995535851" lon="-9.074650034308434">
        <ele>116.45999999999999</ele>
        <time>2025-05-04T11:22:19Z</time>
      </trkpt>
      <trkpt lat="39.605749016627669" lon="-9.07460100017488">
        <ele>116.45999999999999</ele>
        <time>2025-05-04T11:22:20Z</time>
      </trkpt>
      <trkpt lat="39.605776006355882" lon="-9.07453796826303">
        <ele>116.45999999999999</ele>
        <time>2025-05-04T11:22:21Z</time>
      </trkpt>
      <trkpt lat="39.605805007740855" lon="-9.074480971321464">
        <ele>116.94</ele>
        <time>2025-05-04T11:22:22Z</time>
      </trkpt>
      <trkpt lat="39.605821017175913" lon="-9.074449958279729">
        <ele>116.94</ele>
        <time>2025-05-04T11:22:23Z</time>
      </trkpt>
      <trkpt lat="39.605838032439351" lon="-9.074390027672052">
        <ele>116.94</ele>
        <time>2025-05-04T11:22:24Z</time>
      </trkpt>
      <trkpt lat="39.605851024389267" lon="-9.074344011023641">
        <ele>116.94</ele>
        <time>2025-05-04T11:22:25Z</time>
      </trkpt>
      <trkpt lat="39.605860998854041" lon="-9.074287014082074">
        <ele>116.94</ele>
        <time>2025-05-04T11:22:26Z</time>
      </trkpt>
      <trkpt lat="39.605848006904125" lon="-9.074222976341844">
        <ele>117.42</ele>
        <time>2025-05-04T11:22:27Z</time>
      </trkpt>
      <trkpt lat="39.605834009125829" lon="-9.074158016592264">
        <ele>117.42</ele>
        <time>2025-05-04T11:22:28Z</time>
      </trkpt>
      <trkpt lat="39.605783969163895" lon="-9.073917036876082">
        <ele>118.38</ele>
        <time>2025-05-04T11:22:32Z</time>
      </trkpt>
      <trkpt lat="39.605771983042359" lon="-9.073860039934516">
        <ele>118.38</ele>
        <time>2025-05-04T11:22:33Z</time>
      </trkpt>
      <trkpt lat="39.60575002245605" lon="-9.073745040223002">
        <ele>118.38</ele>
        <time>2025-05-04T11:22:35Z</time>
      </trkpt>
      <trkpt lat="39.605723032727838" lon="-9.073562985286117">
        <ele>117.90000000000001</ele>
        <time>2025-05-04T11:22:38Z</time>
      </trkpt>
      <trkpt lat="39.605712974444032" lon="-9.073484027758241">
        <ele>117.90000000000001</ele>
        <time>2025-05-04T11:22:39Z</time>
      </trkpt>
      <trkpt lat="39.605747004970908" lon="-9.073215974494815">
        <ele>117.90000000000001</ele>
        <time>2025-05-04T11:22:43Z</time>
      </trkpt>
      <trkpt lat="39.605770977213979" lon="-9.073024028912187">
        <ele>117.42</ele>
        <time>2025-05-04T11:22:46Z</time>
      </trkpt>
      <trkpt lat="39.605859993025661" lon="-9.072577022016048">
        <ele>117.42</ele>
        <time>2025-05-04T11:22:53Z</time>
      </trkpt>
      <trkpt lat="39.605871979147196" lon="-9.072528993710876">
        <ele>117.90000000000001</ele>
        <time>2025-05-04T11:22:54Z</time>
      </trkpt>
      <trkpt lat="39.60588002577424" lon="-9.07249596901238">
        <ele>118.38</ele>
        <time>2025-05-04T11:22:55Z</time>
      </trkpt>
      <trkpt lat="39.605907015502453" lon="-9.072389015927911">
        <ele>119.34</ele>
        <time>2025-05-04T11:23:04Z</time>
      </trkpt>
      <trkpt lat="39.605927970260382" lon="-9.072304023429751">
        <ele>120.3</ele>
        <time>2025-05-04T11:23:09Z</time>
      </trkpt>
      <trkpt lat="39.605927970260382" lon="-9.072304023429751">
        <ele>120.3</ele>
        <time>2025-05-04T11:23:10Z</time>
      </trkpt>
      <trkpt lat="39.606049004942179" lon="-9.072248032316566">
        <ele>120.3</ele>
        <time>2025-05-04T11:23:11Z</time>
      </trkpt>
      <trkpt lat="39.606069959700108" lon="-9.072272004559636">
        <ele>119.81999999999999</ele>
        <time>2025-05-04T11:23:12Z</time>
      </trkpt>
      <trkpt lat="39.606093009933829" lon="-9.072305029258132">
        <ele>119.81999999999999</ele>
        <time>2025-05-04T11:23:13Z</time>
      </trkpt>
      <trkpt lat="39.606234999373555" lon="-9.07253896817565">
        <ele>120.78</ele>
        <time>2025-05-04T11:23:22Z</time>
      </trkpt>
      <trkpt lat="39.606357961893082" lon="-9.072691015899181">
        <ele>121.73999999999999</ele>
        <time>2025-05-04T11:23:25Z</time>
      </trkpt>
      <trkpt lat="39.606477990746498" lon="-9.072833005338907">
        <ele>122.22</ele>
        <time>2025-05-04T11:23:28Z</time>
      </trkpt>
      <trkpt lat="39.606507997959852" lon="-9.072868041694164">
        <ele>121.73999999999999</ele>
        <time>2025-05-04T11:23:29Z</time>
      </trkpt>
      <trkpt lat="39.606531970202923" lon="-9.072896959260106">
        <ele>121.73999999999999</ele>
        <time>2025-05-04T11:23:30Z</time>
      </trkpt>
      <trkpt lat="39.606557032093406" lon="-9.07292596064508">
        <ele>121.26000000000001</ele>
        <time>2025-05-04T11:23:31Z</time>
      </trkpt>
      <trkpt lat="39.606572035700083" lon="-9.073013970628381">
        <ele>121.26000000000001</ele>
        <time>2025-05-04T11:23:32Z</time>
      </trkpt>
      <trkpt lat="39.606552002951503" lon="-9.073056969791651">
        <ele>121.26000000000001</ele>
        <time>2025-05-04T11:23:33Z</time>
      </trkpt>
      <trkpt lat="39.606530964374542" lon="-9.073103992268443">
        <ele>120.78</ele>
        <time>2025-05-04T11:23:34Z</time>
      </trkpt>
      <trkpt lat="39.606512021273375" lon="-9.073143973946571">
        <ele>120.78</ele>
        <time>2025-05-04T11:23:35Z</time>
      </trkpt>
      <trkpt lat="39.606492994353175" lon="-9.07318496145308">
        <ele>120.3</ele>
        <time>2025-05-04T11:23:36Z</time>
      </trkpt>
      <trkpt lat="39.606463992968202" lon="-9.07324799336493">
        <ele>119.81999999999999</ele>
        <time>2025-05-04T11:23:37Z</time>
      </trkpt>
      <trkpt lat="39.60646198131144" lon="-9.073270037770271">
        <ele>119.34</ele>
        <time>2025-05-04T11:23:38Z</time>
      </trkpt>
      <trkpt lat="39.606455024331808" lon="-9.073322005569935">
        <ele>118.86</ele>
        <time>2025-05-04T11:23:39Z</time>
      </trkpt>
      <trkpt lat="39.606448989361525" lon="-9.073371039703488">
        <ele>118.38</ele>
        <time>2025-05-04T11:23:40Z</time>
      </trkpt>
      <trkpt lat="39.606443960219622" lon="-9.073409009724855">
        <ele>118.38</ele>
        <time>2025-05-04T11:23:41Z</time>
      </trkpt>
      <trkpt lat="39.606466004624963" lon="-9.073454020544887">
        <ele>117.90000000000001</ele>
        <time>2025-05-04T11:23:42Z</time>
      </trkpt>
      <trkpt lat="39.606443038210273" lon="-9.07341999001801">
        <ele>117.42</ele>
        <time>2025-05-04T11:23:43Z</time>
      </trkpt>
      <trkpt lat="39.606443038210273" lon="-9.07341999001801">
        <ele>116.94</ele>
        <time>2025-05-04T11:23:53Z</time>
      </trkpt>
      <trkpt lat="39.606663985177875" lon="-9.073656024411321">
        <ele>115.98</ele>
        <time>2025-05-04T11:24:03Z</time>
      </trkpt>
      <trkpt lat="39.607151979580522" lon="-9.073886023834348">
        <ele>115.98</ele>
        <time>2025-05-04T11:24:15Z</time>
      </trkpt>
      <trkpt lat="39.607315007597208" lon="-9.07397503964603">
        <ele>115.5</ele>
        <time>2025-05-04T11:24:19Z</time>
      </trkpt>
      <trkpt lat="39.607348032295704" lon="-9.074018960818648">
        <ele>115.01000000000001</ele>
        <time>2025-05-04T11:24:20Z</time>
      </trkpt>
      <trkpt lat="39.607359012588859" lon="-9.074078975245357">
        <ele>114.53</ele>
        <time>2025-05-04T11:24:21Z</time>
      </trkpt>
      <trkpt lat="39.607350965961814" lon="-9.074125997722149">
        <ele>114.05</ele>
        <time>2025-05-04T11:24:22Z</time>
      </trkpt>
      <trkpt lat="39.60734099149704" lon="-9.074176959693432">
        <ele>113.56999999999999</ele>
        <time>2025-05-04T11:24:23Z</time>
      </trkpt>
      <trkpt lat="39.607333028689027" lon="-9.074221970513463">
        <ele>113.09</ele>
        <time>2025-05-04T11:24:24Z</time>
      </trkpt>
      <trkpt lat="39.607324982061982" lon="-9.074271004647017">
        <ele>112.61</ele>
        <time>2025-05-04T11:24:25Z</time>
      </trkpt>
      <trkpt lat="39.607315007597208" lon="-9.074323978275061">
        <ele>112.13</ele>
        <time>2025-05-04T11:24:26Z</time>
      </trkpt>
      <trkpt lat="39.607306038960814" lon="-9.074377035722137">
        <ele>111.65000000000001</ele>
        <time>2025-05-04T11:24:27Z</time>
      </trkpt>
      <trkpt lat="39.607295980677009" lon="-9.074433026835322">
        <ele>111.65000000000001</ele>
        <time>2025-05-04T11:24:28Z</time>
      </trkpt>
      <trkpt lat="39.60727502591908" lon="-9.074550960212946">
        <ele>111.17</ele>
        <time>2025-05-04T11:24:30Z</time>
      </trkpt>
      <trkpt lat="39.607173018157482" lon="-9.074739972129464">
        <ele>110.20999999999999</ele>
        <time>2025-05-04T11:24:33Z</time>
      </trkpt>
      <trkpt lat="39.607090959325433" lon="-9.074832005426288">
        <ele>109.25</ele>
        <time>2025-05-04T11:24:35Z</time>
      </trkpt>
      <trkpt lat="39.607046032324433" lon="-9.074877016246319">
        <ele>109.25</ele>
        <time>2025-05-04T11:24:36Z</time>
      </trkpt>
      <trkpt lat="39.607003033161163" lon="-9.074925966560841">
        <ele>109.25</ele>
        <time>2025-05-04T11:24:37Z</time>
      </trkpt>
      <trkpt lat="39.606557032093406" lon="-9.075530972331762">
        <ele>108.29000000000001</ele>
        <time>2025-05-04T11:24:49Z</time>
      </trkpt>
      <trkpt lat="39.606421999633312" lon="-9.075822997838259">
        <ele>106.36</ele>
        <time>2025-05-04T11:24:55Z</time>
      </trkpt>
      <trkpt lat="39.606384029611945" lon="-9.075857028365135">
        <ele>105.88</ele>
        <time>2025-05-04T11:24:56Z</time>
      </trkpt>
      <trkpt lat="39.606344969943166" lon="-9.075891980901361">
        <ele>105.88</ele>
        <time>2025-05-04T11:24:57Z</time>
      </trkpt>
      <trkpt lat="39.606301970779896" lon="-9.07593104057014">
        <ele>105.88</ele>
        <time>2025-05-04T11:24:58Z</time>
      </trkpt>
      <trkpt lat="39.606261989101768" lon="-9.075968004763126">
        <ele>105.40000000000001</ele>
        <time>2025-05-04T11:24:59Z</time>
      </trkpt>
      <trkpt lat="39.606197029352188" lon="-9.076027013361454">
        <ele>105.40000000000001</ele>
        <time>2025-05-04T11:25:01Z</time>
      </trkpt>
      <trkpt lat="39.606123017147183" lon="-9.076058026403189">
        <ele>105.88</ele>
        <time>2025-05-04T11:25:03Z</time>
      </trkpt>
      <trkpt lat="39.606086974963546" lon="-9.076138995587826">
        <ele>105.88</ele>
        <time>2025-05-04T11:25:04Z</time>
      </trkpt>
      <trkpt lat="39.605839038267732" lon="-9.076473014429212">
        <ele>108.29000000000001</ele>
        <time>2025-05-04T11:25:13Z</time>
      </trkpt>
      <trkpt lat="39.605622030794621" lon="-9.076925972476602">
        <ele>111.65000000000001</ele>
        <time>2025-05-04T11:25:24Z</time>
      </trkpt>
      <trkpt lat="39.605585988610983" lon="-9.077225038781762">
        <ele>112.13</ele>
        <time>2025-05-04T11:25:33Z</time>
      </trkpt>
      <trkpt lat="39.605585988610983" lon="-9.077225038781762">
        <ele>111.65000000000001</ele>
        <time>2025-05-04T11:25:39Z</time>
      </trkpt>
      <trkpt lat="39.605556987226009" lon="-9.077293016016483">
        <ele>112.13</ele>
        <time>2025-05-04T11:25:40Z</time>
      </trkpt>
      <trkpt lat="39.605502001941204" lon="-9.077358981594443">
        <ele>112.61</ele>
        <time>2025-05-04T11:25:41Z</time>
      </trkpt>
      <trkpt lat="39.605480963364244" lon="-9.077348001301289">
        <ele>112.61</ele>
        <time>2025-05-04T11:25:42Z</time>
      </trkpt>
      <trkpt lat="39.605457996949553" lon="-9.077337021008134">
        <ele>112.61</ele>
        <time>2025-05-04T11:25:43Z</time>
      </trkpt>
      <trkpt lat="39.605433018878102" lon="-9.077324029058218">
        <ele>112.61</ele>
        <time>2025-05-04T11:25:44Z</time>
      </trkpt>
      <trkpt lat="39.605408040806651" lon="-9.077311959117651">
        <ele>112.61</ele>
        <time>2025-05-04T11:25:45Z</time>
      </trkpt>
      <trkpt lat="39.605197990313172" lon="-9.077003002166748">
        <ele>112.13</ele>
        <time>2025-05-04T11:25:56Z</time>
      </trkpt>
      <trkpt lat="39.605186004191637" lon="-9.076888002455235">
        <ele>111.65000000000001</ele>
        <time>2025-05-04T11:26:12Z</time>
      </trkpt>
      <trkpt lat="39.605186004191637" lon="-9.076888002455235">
        <ele>111.65000000000001</ele>
        <time>2025-05-04T11:26:28Z</time>
      </trkpt>
      <trkpt lat="39.605247024446726" lon="-9.076871993020177">
        <ele>113.09</ele>
        <time>2025-05-04T11:26:31Z</time>
      </trkpt>
      <trkpt lat="39.605253981426358" lon="-9.076919015496969">
        <ele>113.56999999999999</ele>
        <time>2025-05-04T11:26:32Z</time>
      </trkpt>
      <trkpt lat="39.605295974761248" lon="-9.077196959406138">
        <ele>113.56999999999999</ele>
        <time>2025-05-04T11:26:43Z</time>
      </trkpt>
      <trkpt lat="39.605367975309491" lon="-9.077292010188103">
        <ele>112.61</ele>
        <time>2025-05-04T11:26:55Z</time>
      </trkpt>
      <trkpt lat="39.605450034141541" lon="-9.077332997694612">
        <ele>111.17</ele>
        <time>2025-05-04T11:27:02Z</time>
      </trkpt>
      <trkpt lat="39.605520023033023" lon="-9.077368034049869">
        <ele>111.17</ele>
        <time>2025-05-04T11:27:03Z</time>
      </trkpt>
      <trkpt lat="39.60547199472785" lon="-9.077776987105608">
        <ele>108.77</ele>
        <time>2025-05-04T11:27:18Z</time>
      </trkpt>
      <trkpt lat="39.605438970029354" lon="-9.077860973775387">
        <ele>107.31999999999999</ele>
        <time>2025-05-04T11:27:51Z</time>
      </trkpt>
      <trkpt lat="39.605341991409659" lon="-9.077950995415449">
        <ele>106.84</ele>
        <time>2025-05-04T11:28:04Z</time>
      </trkpt>
      <trkpt lat="39.605197990313172" lon="-9.077969016507268">
        <ele>107.81</ele>
        <time>2025-05-04T11:28:09Z</time>
      </trkpt>
      <trkpt lat="39.605181980878115" lon="-9.077992988750339">
        <ele>108.29000000000001</ele>
        <time>2025-05-04T11:28:10Z</time>
      </trkpt>
      <trkpt lat="39.605166977271438" lon="-9.07801603898406">
        <ele>108.29000000000001</ele>
        <time>2025-05-04T11:28:11Z</time>
      </trkpt>
      <trkpt lat="39.605115009471774" lon="-9.078093990683556">
        <ele>108.29000000000001</ele>
        <time>2025-05-04T11:28:22Z</time>
      </trkpt>
      <trkpt lat="39.605110986158252" lon="-9.078098013997078">
        <ele>109.25</ele>
        <time>2025-05-04T11:28:31Z</time>
      </trkpt>
      <trkpt lat="39.605007972568274" lon="-9.07816699706018">
        <ele>109.25</ele>
        <time>2025-05-04T11:28:43Z</time>
      </trkpt>
      <trkpt lat="39.60493303835392" lon="-9.078183006495237">
        <ele>109.73</ele>
        <time>2025-05-04T11:28:50Z</time>
      </trkpt>
      <trkpt lat="39.604917028918862" lon="-9.078183006495237">
        <ele>109.73</ele>
        <time>2025-05-04T11:28:51Z</time>
      </trkpt>
      <trkpt lat="39.604917028918862" lon="-9.078183006495237">
        <ele>109.73</ele>
        <time>2025-05-04T11:28:52Z</time>
      </trkpt>
      <trkpt lat="39.604734973981977" lon="-9.078132966533303">
        <ele>109.25</ele>
        <time>2025-05-04T11:29:06Z</time>
      </trkpt>
      <trkpt lat="39.604666996747255" lon="-9.077861979603767">
        <ele>109.73</ele>
        <time>2025-05-04T11:29:15Z</time>
      </trkpt>
      <trkpt lat="39.604613017290831" lon="-9.077509017661214">
        <ele>111.17</ele>
        <time>2025-05-04T11:29:26Z</time>
      </trkpt>
      <trkpt lat="39.604613017290831" lon="-9.077509017661214">
        <ele>111.17</ele>
        <time>2025-05-04T11:29:41Z</time>
      </trkpt>
      <trkpt lat="39.604613017290831" lon="-9.077509017661214">
        <ele>111.17</ele>
        <time>2025-05-04T11:30:01Z</time>
      </trkpt>
      <trkpt lat="39.604613017290831" lon="-9.077509017661214">
        <ele>112.13</ele>
        <time>2025-05-04T11:30:25Z</time>
      </trkpt>
      <trkpt lat="39.604645036160946" lon="-9.077440034598112">
        <ele>98.670000000000002</ele>
        <time>2025-05-04T12:40:57Z</time>
      </trkpt>
      <trkpt lat="39.604716030880809" lon="-9.077424025163055">
        <ele>103.95999999999999</ele>
        <time>2025-05-04T12:41:27Z</time>
      </trkpt>
      <trkpt lat="39.604693986475468" lon="-9.077473981305957">
        <ele>115.5</ele>
        <time>2025-05-04T12:42:10Z</time>
      </trkpt>
      <trkpt lat="39.604683006182313" lon="-9.077468030154705">
        <ele>115.01000000000001</ele>
        <time>2025-05-04T12:42:46Z</time>
      </trkpt>
      <trkpt lat="39.604682000353932" lon="-9.077469035983086">
        <ele>115.01000000000001</ele>
        <time>2025-05-04T12:43:21Z</time>
      </trkpt>
      <trkpt lat="39.60467797704041" lon="-9.077470963820815">
        <ele>114.53</ele>
        <time>2025-05-04T12:44:08Z</time>
      </trkpt>
      <trkpt lat="39.604674037545919" lon="-9.077471969649196">
        <ele>115.01000000000001</ele>
        <time>2025-05-04T12:44:53Z</time>
      </trkpt>
      <trkpt lat="39.604672025889158" lon="-9.077469035983086">
        <ele>115.01000000000001</ele>
        <time>2025-05-04T12:45:40Z</time>
      </trkpt>
      <trkpt lat="39.604671020060778" lon="-9.077468030154705">
        <ele>115.01000000000001</ele>
        <time>2025-05-04T12:46:23Z</time>
      </trkpt>
      <trkpt lat="39.604670014232397" lon="-9.077466018497944">
        <ele>115.01000000000001</ele>
        <time>2025-05-04T12:47:13Z</time>
      </trkpt>
      <trkpt lat="39.604665990918875" lon="-9.077466018497944">
        <ele>115.5</ele>
        <time>2025-05-04T12:47:58Z</time>
      </trkpt>
      <trkpt lat="39.604603964835405" lon="-9.077444979920983">
        <ele>115.98</ele>
        <time>2025-05-04T12:48:33Z</time>
      </trkpt>
      <trkpt lat="39.604596002027392" lon="-9.077397035434842">
        <ele>115.98</ele>
        <time>2025-05-04T12:48:34Z</time>
      </trkpt>
      <trkpt lat="39.604588961228728" lon="-9.077345989644527">
        <ele>115.98</ele>
        <time>2025-05-04T12:48:35Z</time>
      </trkpt>
      <trkpt lat="39.604596002027392" lon="-9.076866041868925">
        <ele>114.05</ele>
        <time>2025-05-04T12:48:45Z</time>
      </trkpt>
      <trkpt lat="39.604599019512534" lon="-9.076809966936708">
        <ele>113.56999999999999</ele>
        <time>2025-05-04T12:48:46Z</time>
      </trkpt>
      <trkpt lat="39.604611005634069" lon="-9.076570998877287">
        <ele>112.13</ele>
        <time>2025-05-04T12:48:52Z</time>
      </trkpt>
      <trkpt lat="39.604670014232397" lon="-9.076249971985817">
        <ele>111.17</ele>
        <time>2025-05-04T12:48:58Z</time>
      </trkpt>
      <trkpt lat="39.604683006182313" lon="-9.076208984479308">
        <ele>111.17</ele>
        <time>2025-05-04T12:48:59Z</time>
      </trkpt>
      <trkpt lat="39.604801023378968" lon="-9.076049979776144">
        <ele>110.69</ele>
        <time>2025-05-04T12:49:02Z</time>
      </trkpt>
      <trkpt lat="39.604864977300167" lon="-9.075962975621223">
        <ele>110.69</ele>
        <time>2025-05-04T12:49:04Z</time>
      </trkpt>
      <trkpt lat="39.605003027245402" lon="-9.075776981189847">
        <ele>109.73</ele>
        <time>2025-05-04T12:49:08Z</time>
      </trkpt>
      <trkpt lat="39.605145016685128" lon="-9.075586041435599">
        <ele>109.25</ele>
        <time>2025-05-04T12:49:13Z</time>
      </trkpt>
      <trkpt lat="39.605163037776947" lon="-9.075572965666652">
        <ele>108.77</ele>
        <time>2025-05-04T12:49:14Z</time>
      </trkpt>
      <trkpt lat="39.605181980878115" lon="-9.075557040050626">
        <ele>108.77</ele>
        <time>2025-05-04T12:49:15Z</time>
      </trkpt>
      <trkpt lat="39.605333022773266" lon="-9.075373979285359">
        <ele>107.31999999999999</ele>
        <time>2025-05-04T12:49:21Z</time>
      </trkpt>
      <trkpt lat="39.605351965874434" lon="-9.075345983728766">
        <ele>106.84</ele>
        <time>2025-05-04T12:49:22Z</time>
      </trkpt>
      <trkpt lat="39.605375016108155" lon="-9.075311031192541">
        <ele>106.84</ele>
        <time>2025-05-04T12:49:23Z</time>
      </trkpt>
      <trkpt lat="39.605463026091456" lon="-9.075163006782532">
        <ele>105.88</ele>
        <time>2025-05-04T12:49:27Z</time>
      </trkpt>
      <trkpt lat="39.605489009991288" lon="-9.07511699013412">
        <ele>105.40000000000001</ele>
        <time>2025-05-04T12:49:28Z</time>
      </trkpt>
      <trkpt lat="39.605641979724169" lon="-9.074837034568191">
        <ele>103.95999999999999</ele>
        <time>2025-05-04T12:49:34Z</time>
      </trkpt>
      <trkpt lat="39.605669975280762" lon="-9.07475003041327">
        <ele>103.48</ele>
        <time>2025-05-04T12:49:36Z</time>
      </trkpt>
      <trkpt lat="39.605813976377249" lon="-9.074463034048677">
        <ele>103</ele>
        <time>2025-05-04T12:49:41Z</time>
      </trkpt>
      <trkpt lat="39.605833003297448" lon="-9.07440603710711">
        <ele>103</ele>
        <time>2025-05-04T12:49:42Z</time>
      </trkpt>
      <trkpt lat="39.605864016339183" lon="-9.07429900020361">
        <ele>103</ele>
        <time>2025-05-04T12:49:43Z</time>
      </trkpt>
      <trkpt lat="39.605824034661055" lon="-9.074108982458711">
        <ele>102.52</ele>
        <time>2025-05-04T12:49:46Z</time>
      </trkpt>
      <trkpt lat="39.605810958892107" lon="-9.074047962203622">
        <ele>102.52</ele>
        <time>2025-05-04T12:49:47Z</time>
      </trkpt>
      <trkpt lat="39.605797966942191" lon="-9.073985014110804">
        <ele>102.52</ele>
        <time>2025-05-04T12:49:48Z</time>
      </trkpt>
      <trkpt lat="39.605784974992275" lon="-9.073921982198954">
        <ele>102.52</ele>
        <time>2025-05-04T12:49:49Z</time>
      </trkpt>
      <trkpt lat="39.605771983042359" lon="-9.073860039934516">
        <ele>102.52</ele>
        <time>2025-05-04T12:49:50Z</time>
      </trkpt>
      <trkpt lat="39.605762008577585" lon="-9.073809999972582">
        <ele>102.04000000000001</ele>
        <time>2025-05-04T12:49:51Z</time>
      </trkpt>
      <trkpt lat="39.605753961950541" lon="-9.073770018294454">
        <ele>102.04000000000001</ele>
        <time>2025-05-04T12:49:52Z</time>
      </trkpt>
      <trkpt lat="39.605748010799289" lon="-9.073736993595958">
        <ele>101.56</ele>
        <time>2025-05-04T12:49:53Z</time>
      </trkpt>
      <trkpt lat="39.605744993314147" lon="-9.073716038838029">
        <ele>101.56</ele>
        <time>2025-05-04T12:49:54Z</time>
      </trkpt>
      <trkpt lat="39.605744993314147" lon="-9.073716038838029">
        <ele>101.56</ele>
        <time>2025-05-04T12:49:55Z</time>
      </trkpt>
      <trkpt lat="39.605744993314147" lon="-9.073716038838029">
        <ele>101.56</ele>
        <time>2025-05-04T12:49:56Z</time>
      </trkpt>
      <trkpt lat="39.605737030506134" lon="-9.073672033846378">
        <ele>102.04000000000001</ele>
        <time>2025-05-04T12:49:57Z</time>
      </trkpt>
      <trkpt lat="39.605669975280762" lon="-9.073570026084781">
        <ele>103</ele>
        <time>2025-05-04T12:49:58Z</time>
      </trkpt>
      <trkpt lat="39.60572998970747" lon="-9.073617970570922">
        <ele>103</ele>
        <time>2025-05-04T12:49:59Z</time>
      </trkpt>
      <trkpt lat="39.605723032727838" lon="-9.073558039963245">
        <ele>103</ele>
        <time>2025-05-04T12:50:00Z</time>
      </trkpt>
      <trkpt lat="39.605712974444032" lon="-9.073484027758241">
        <ele>103</ele>
        <time>2025-05-04T12:50:01Z</time>
      </trkpt>
      <trkpt lat="39.605722026899457" lon="-9.073413033038378">
        <ele>103</ele>
        <time>2025-05-04T12:50:02Z</time>
      </trkpt>
      <trkpt lat="39.60577298887074" lon="-9.07300902530551">
        <ele>102.52</ele>
        <time>2025-05-04T12:50:07Z</time>
      </trkpt>
      <trkpt lat="39.605800984427333" lon="-9.072863012552261">
        <ele>102.52</ele>
        <time>2025-05-04T12:50:09Z</time>
      </trkpt>
      <trkpt lat="39.605816993862391" lon="-9.07279402948916">
        <ele>102.52</ele>
        <time>2025-05-04T12:50:10Z</time>
      </trkpt>
      <trkpt lat="39.605831997469068" lon="-9.072718005627394">
        <ele>102.04000000000001</ele>
        <time>2025-05-04T12:50:11Z</time>
      </trkpt>
      <trkpt lat="39.605848006904125" lon="-9.072637036442757">
        <ele>102.52</ele>
        <time>2025-05-04T12:50:12Z</time>
      </trkpt>
      <trkpt lat="39.605865022167563" lon="-9.072555983439088">
        <ele>102.52</ele>
        <time>2025-05-04T12:50:13Z</time>
      </trkpt>
      <trkpt lat="39.605979016050696" lon="-9.072106964886189">
        <ele>103.95999999999999</ele>
        <time>2025-05-04T12:50:20Z</time>
      </trkpt>
      <trkpt lat="39.606179008260369" lon="-9.07122602686286">
        <ele>108.29000000000001</ele>
        <time>2025-05-04T12:50:28Z</time>
      </trkpt>
      <trkpt lat="39.606526019051671" lon="-9.070133026689291">
        <ele>108.29000000000001</ele>
        <time>2025-05-04T12:50:36Z</time>
      </trkpt>
      <trkpt lat="39.607035974040627" lon="-9.068804997950792">
        <ele>105.40000000000001</ele>
        <time>2025-05-04T12:50:45Z</time>
      </trkpt>
      <trkpt lat="39.607812976464629" lon="-9.067202964797616">
        <ele>97.230000000000004</ele>
        <time>2025-05-04T12:50:57Z</time>
      </trkpt>
      <trkpt lat="39.607867039740086" lon="-9.067073967307806">
        <ele>96.75</ele>
        <time>2025-05-04T12:50:58Z</time>
      </trkpt>
      <trkpt lat="39.607923030853271" lon="-9.066939018666744">
        <ele>96.269999999999996</ele>
        <time>2025-05-04T12:50:59Z</time>
      </trkpt>
      <trkpt lat="39.607958989217877" lon="-9.066815972328186">
        <ele>95.790000000000006</ele>
        <time>2025-05-04T12:51:00Z</time>
      </trkpt>
      <trkpt lat="39.607977010309696" lon="-9.066682029515505">
        <ele>95.310000000000002</ele>
        <time>2025-05-04T12:51:01Z</time>
      </trkpt>
      <trkpt lat="39.607983967289329" lon="-9.066554037854075">
        <ele>94.829999999999998</ele>
        <time>2025-05-04T12:51:02Z</time>
      </trkpt>
      <trkpt lat="39.60796401835978" lon="-9.066448006778956">
        <ele>94.349999999999994</ele>
        <time>2025-05-04T12:51:03Z</time>
      </trkpt>
      <trkpt lat="39.607947003096342" lon="-9.066357985138893">
        <ele>93.870000000000005</ele>
        <time>2025-05-04T12:51:04Z</time>
      </trkpt>
      <trkpt lat="39.607923030853271" lon="-9.066230999305844">
        <ele>93.870000000000005</ele>
        <time>2025-05-04T12:51:05Z</time>
      </trkpt>
      <trkpt lat="39.607910038903356" lon="-9.066204009577632">
        <ele>93.390000000000001</ele>
        <time>2025-05-04T12:51:06Z</time>
      </trkpt>
      <trkpt lat="39.607844995334744" lon="-9.066074006259441">
        <ele>92.420000000000002</ele>
        <time>2025-05-04T12:51:08Z</time>
      </trkpt>
      <trkpt lat="39.607645003125072" lon="-9.065994964912534">
        <ele>91.459999999999994</ele>
        <time>2025-05-04T12:51:10Z</time>
      </trkpt>
      <trkpt lat="39.607645003125072" lon="-9.065994964912534">
        <ele>90.980000000000004</ele>
        <time>2025-05-04T12:51:11Z</time>
      </trkpt>
      <trkpt lat="39.607463032007217" lon="-9.065890023484826">
        <ele>90.5</ele>
        <time>2025-05-04T12:51:12Z</time>
      </trkpt>
      <trkpt lat="39.60633298382163" lon="-9.066354967653751">
        <ele>78.969999999999999</ele>
        <time>2025-05-04T12:51:22Z</time>
      </trkpt>
      <trkpt lat="39.605450034141541" lon="-9.066566023975611">
        <ele>69.829999999999998</ele>
        <time>2025-05-04T12:51:31Z</time>
      </trkpt>
      <trkpt lat="39.604472033679485" lon="-9.066795017570257">
        <ele>63.579999999999998</ele>
        <time>2025-05-04T12:51:40Z</time>
      </trkpt>
      <trkpt lat="39.60437698289752" lon="-9.066827036440373">
        <ele>63.100000000000001</ele>
        <time>2025-05-04T12:51:41Z</time>
      </trkpt>
      <trkpt lat="39.604286961257458" lon="-9.066876992583275">
        <ele>62.619999999999997</ele>
        <time>2025-05-04T12:51:42Z</time>
      </trkpt>
      <trkpt lat="39.604195011779666" lon="-9.06693197786808">
        <ele>62.140000000000001</ele>
        <time>2025-05-04T12:51:43Z</time>
      </trkpt>
      <trkpt lat="39.604102978482842" lon="-9.067004984244704">
        <ele>61.659999999999997</ele>
        <time>2025-05-04T12:51:44Z</time>
      </trkpt>
      <trkpt lat="39.604023015126586" lon="-9.067085031419992">
        <ele>61.18</ele>
        <time>2025-05-04T12:51:45Z</time>
      </trkpt>
      <trkpt lat="39.603943973779678" lon="-9.067163988947868">
        <ele>60.219999999999999</ele>
        <time>2025-05-04T12:51:46Z</time>
      </trkpt>
      <trkpt lat="39.603803995996714" lon="-9.067432964220643">
        <ele>59.259999999999998</ele>
        <time>2025-05-04T12:51:48Z</time>
      </trkpt>
      <trkpt lat="39.603782035410404" lon="-9.067475963383913">
        <ele>59.259999999999998</ele>
        <time>2025-05-04T12:51:49Z</time>
      </trkpt>
      <trkpt lat="39.603686984628439" lon="-9.067518962547183">
        <ele>58.780000000000001</ele>
        <time>2025-05-04T12:51:50Z</time>
      </trkpt>
      <trkpt lat="39.60259297862649" lon="-9.067814005538821">
        <ele>50.609999999999999</ele>
        <time>2025-05-04T12:52:01Z</time>
      </trkpt>
      <trkpt lat="39.60177599452436" lon="-9.06772498972714">
        <ele>45.799999999999997</ele>
        <time>2025-05-04T12:52:11Z</time>
      </trkpt>
      <trkpt lat="39.601621013134718" lon="-9.06768299639225">
        <ele>43.880000000000003</ele>
        <time>2025-05-04T12:52:20Z</time>
      </trkpt>
      <trkpt lat="39.601578013971448" lon="-9.067671010270715">
        <ele>43.880000000000003</ele>
        <time>2025-05-04T12:52:21Z</time>
      </trkpt>
      <trkpt lat="39.601425966247916" lon="-9.067777963355184">
        <ele>43.880000000000003</ele>
        <time>2025-05-04T12:52:22Z</time>
      </trkpt>
      <trkpt lat="39.601426972076297" lon="-9.067777963355184">
        <ele>43.880000000000003</ele>
        <time>2025-05-04T12:52:23Z</time>
      </trkpt>
      <trkpt lat="39.60136997513473" lon="-9.067690037190914">
        <ele>44.359999999999999</ele>
        <time>2025-05-04T12:52:24Z</time>
      </trkpt>
      <trkpt lat="39.601386990398169" lon="-9.067593980580568">
        <ele>44.359999999999999</ele>
        <time>2025-05-04T12:52:25Z</time>
      </trkpt>
      <trkpt lat="39.601399982348084" lon="-9.067561961710453">
        <ele>44.840000000000003</ele>
        <time>2025-05-04T12:52:26Z</time>
      </trkpt>
      <trkpt lat="39.601437030360103" lon="-9.067379990592599">
        <ele>44.840000000000003</ele>
        <time>2025-05-04T12:52:27Z</time>
      </trkpt>
      <trkpt lat="39.601416997611523" lon="-9.06727203167975">
        <ele>45.32</ele>
        <time>2025-05-04T12:52:28Z</time>
      </trkpt>
      <trkpt lat="39.601396964862943" lon="-9.067140016704798">
        <ele>45.799999999999997</ele>
        <time>2025-05-04T12:52:29Z</time>
      </trkpt>
      <trkpt lat="39.601363018155098" lon="-9.066997021436691">
        <ele>46.280000000000001</ele>
        <time>2025-05-04T12:52:30Z</time>
      </trkpt>
      <trkpt lat="39.601294035091996" lon="-9.066874980926514">
        <ele>47.240000000000002</ele>
        <time>2025-05-04T12:52:31Z</time>
      </trkpt>
      <trkpt lat="39.600921962410212" lon="-9.066080041229725">
        <ele>54.450000000000003</ele>
        <time>2025-05-04T12:52:38Z</time>
      </trkpt>
      <trkpt lat="39.600780978798866" lon="-9.065723977982998">
        <ele>57.82</ele>
        <time>2025-05-04T12:52:41Z</time>
      </trkpt>
      <trkpt lat="39.600714007392526" lon="-9.065613001585007">
        <ele>58.780000000000001</ele>
        <time>2025-05-04T12:52:42Z</time>
      </trkpt>
      <trkpt lat="39.600647035986185" lon="-9.065503031015396">
        <ele>59.259999999999998</ele>
        <time>2025-05-04T12:52:43Z</time>
      </trkpt>
      <trkpt lat="39.600574029609561" lon="-9.065410997718573">
        <ele>60.219999999999999</ele>
        <time>2025-05-04T12:52:44Z</time>
      </trkpt>
      <trkpt lat="39.600477972999215" lon="-9.065330028533936">
        <ele>61.18</ele>
        <time>2025-05-04T12:52:45Z</time>
      </trkpt>
      <trkpt lat="39.600373031571507" lon="-9.065307984128594">
        <ele>62.140000000000001</ele>
        <time>2025-05-04T12:52:46Z</time>
      </trkpt>
      <trkpt lat="39.600049993023276" lon="-9.065239001065493">
        <ele>65.030000000000001</ele>
        <time>2025-05-04T12:52:49Z</time>
      </trkpt>
      <trkpt lat="39.599945973604918" lon="-9.065217962488532">
        <ele>65.989999999999995</ele>
        <time>2025-05-04T12:52:50Z</time>
      </trkpt>
      <trkpt lat="39.59984396584332" lon="-9.065196001902223">
        <ele>66.950000000000003</ele>
        <time>2025-05-04T12:52:51Z</time>
      </trkpt>
      <trkpt lat="39.599748998880386" lon="-9.065164988860488">
        <ele>67.909999999999997</ele>
        <time>2025-05-04T12:52:52Z</time>
      </trkpt>
      <trkpt lat="39.599658977240324" lon="-9.065098017454147">
        <ele>68.390000000000001</ele>
        <time>2025-05-04T12:52:53Z</time>
      </trkpt>
      <trkpt lat="39.599571973085403" lon="-9.065033979713917">
        <ele>69.349999999999994</ele>
        <time>2025-05-04T12:52:54Z</time>
      </trkpt>
      <trkpt lat="39.599484968930483" lon="-9.064970025792718">
        <ele>69.829999999999998</ele>
        <time>2025-05-04T12:52:55Z</time>
      </trkpt>
      <trkpt lat="39.599237032234669" lon="-9.064759975299239">
        <ele>72.719999999999999</ele>
        <time>2025-05-04T12:52:58Z</time>
      </trkpt>
      <trkpt lat="39.599171988666058" lon="-9.064666014164686">
        <ele>73.680000000000007</ele>
        <time>2025-05-04T12:52:59Z</time>
      </trkpt>
      <trkpt lat="39.599119015038013" lon="-9.064575992524624">
        <ele>75.120000000000005</ele>
        <time>2025-05-04T12:53:00Z</time>
      </trkpt>
      <trkpt lat="39.59909001365304" lon="-9.064468033611774">
        <ele>75.599999999999994</ele>
        <time>2025-05-04T12:53:01Z</time>
      </trkpt>
      <trkpt lat="39.599064029753208" lon="-9.064355967566371">
        <ele>76.560000000000002</ele>
        <time>2025-05-04T12:53:02Z</time>
      </trkpt>
      <trkpt lat="39.599094036966562" lon="-9.064248008653522">
        <ele>77.519999999999996</ele>
        <time>2025-05-04T12:53:03Z</time>
      </trkpt>
      <trkpt lat="39.599187998101115" lon="-9.063908038660884">
        <ele>79.450000000000003</ele>
        <time>2025-05-04T12:53:06Z</time>
      </trkpt>
      <trkpt lat="39.599222028627992" lon="-9.063788009807468">
        <ele>80.409999999999997</ele>
        <time>2025-05-04T12:53:07Z</time>
      </trkpt>
      <trkpt lat="39.599388996139169" lon="-9.063146961852908">
        <ele>84.730000000000004</ele>
        <time>2025-05-04T12:53:12Z</time>
      </trkpt>
      <trkpt lat="39.599405005574226" lon="-9.062714036554098">
        <ele>87.620000000000005</ele>
        <time>2025-05-04T12:53:15Z</time>
      </trkpt>
      <trkpt lat="39.599405005574226" lon="-9.062560983002186">
        <ele>88.579999999999998</ele>
        <time>2025-05-04T12:53:16Z</time>
      </trkpt>
      <trkpt lat="39.599141981452703" lon="-9.061190038919449">
        <ele>96.75</ele>
        <time>2025-05-04T12:53:25Z</time>
      </trkpt>
      <trkpt lat="39.599063023924828" lon="-9.060946963727474">
        <ele>98.189999999999998</ele>
        <time>2025-05-04T12:53:27Z</time>
      </trkpt>
      <trkpt lat="39.599019018933177" lon="-9.060824001207948">
        <ele>98.670000000000002</ele>
        <time>2025-05-04T12:53:28Z</time>
      </trkpt>
      <trkpt lat="39.598969984799623" lon="-9.060743032023311">
        <ele>99.150000000000006</ele>
        <time>2025-05-04T12:53:29Z</time>
      </trkpt>
      <trkpt lat="39.598953975364566" lon="-9.060716964304447">
        <ele>99.150000000000006</ele>
        <time>2025-05-04T12:53:30Z</time>
      </trkpt>
      <trkpt lat="39.598907958716154" lon="-9.060602970421314">
        <ele>99.150000000000006</ele>
        <time>2025-05-04T12:53:31Z</time>
      </trkpt>
      <trkpt lat="39.598874012008309" lon="-9.060533987358213">
        <ele>99.150000000000006</ele>
        <time>2025-05-04T12:53:32Z</time>
      </trkpt>
      <trkpt lat="39.598739985376596" lon="-9.060524012893438">
        <ele>98.670000000000002</ele>
        <time>2025-05-04T12:53:33Z</time>
      </trkpt>
      <trkpt lat="39.598721964284778" lon="-9.060461986809969">
        <ele>99.150000000000006</ele>
        <time>2025-05-04T12:53:34Z</time>
      </trkpt>
      <trkpt lat="39.598704027011991" lon="-9.060399038717151">
        <ele>99.150000000000006</ele>
        <time>2025-05-04T12:53:35Z</time>
      </trkpt>
      <trkpt lat="39.598761023953557" lon="-9.060287978500128">
        <ele>99.150000000000006</ele>
        <time>2025-05-04T12:53:36Z</time>
      </trkpt>
      <trkpt lat="39.598895972594619" lon="-9.060187982395291">
        <ele>98.670000000000002</ele>
        <time>2025-05-04T12:53:37Z</time>
      </trkpt>
      <trkpt lat="39.598919022828341" lon="-9.060087986290455">
        <ele>98.670000000000002</ele>
        <time>2025-05-04T12:53:38Z</time>
      </trkpt>
      <trkpt lat="39.598924973979592" lon="-9.059953037649393">
        <ele>98.189999999999998</ele>
        <time>2025-05-04T12:53:39Z</time>
      </trkpt>
      <trkpt lat="39.598911982029676" lon="-9.059824040159583">
        <ele>97.709999999999994</ele>
        <time>2025-05-04T12:53:40Z</time>
      </trkpt>
      <trkpt lat="39.598898990079761" lon="-9.059688001871109">
        <ele>96.75</ele>
        <time>2025-05-04T12:53:41Z</time>
      </trkpt>
      <trkpt lat="39.598845010623336" lon="-9.059531008824706">
        <ele>95.790000000000006</ele>
        <time>2025-05-04T12:53:42Z</time>
      </trkpt>
      <trkpt lat="39.598769992589951" lon="-9.059417014941573">
        <ele>94.829999999999998</ele>
        <time>2025-05-04T12:53:43Z</time>
      </trkpt>
      <trkpt lat="39.598694974556565" lon="-9.059301009401679">
        <ele>93.390000000000001</ele>
        <time>2025-05-04T12:53:44Z</time>
      </trkpt>
      <trkpt lat="39.598624985665083" lon="-9.059192966669798">
        <ele>91.939999999999998</ele>
        <time>2025-05-04T12:53:45Z</time>
      </trkpt>
      <trkpt lat="39.598592966794968" lon="-9.059101017192006">
        <ele>90.5</ele>
        <time>2025-05-04T12:53:46Z</time>
      </trkpt>
      <trkpt lat="39.598536975681782" lon="-9.058875041082501">
        <ele>88.579999999999998</ele>
        <time>2025-05-04T12:53:49Z</time>
      </trkpt>
      <trkpt lat="39.598332038149238" lon="-9.058763980865479">
        <ele>88.099999999999994</ele>
        <time>2025-05-04T12:53:50Z</time>
      </trkpt>
      <trkpt lat="39.598332038149238" lon="-9.058763980865479">
        <ele>87.620000000000005</ele>
        <time>2025-05-04T12:53:51Z</time>
      </trkpt>
      <trkpt lat="39.59810396656394" lon="-9.058541022241116">
        <ele>86.659999999999997</ele>
        <time>2025-05-04T12:53:52Z</time>
      </trkpt>
      <trkpt lat="39.59810396656394" lon="-9.058541022241116">
        <ele>85.689999999999998</ele>
        <time>2025-05-04T12:53:53Z</time>
      </trkpt>
      <trkpt lat="39.597987961024046" lon="-9.05855200253427">
        <ele>84.730000000000004</ele>
        <time>2025-05-04T12:53:54Z</time>
      </trkpt>
      <trkpt lat="39.597859969362617" lon="-9.058569017797709">
        <ele>83.769999999999996</ele>
        <time>2025-05-04T12:53:55Z</time>
      </trkpt>
      <trkpt lat="39.596519032493234" lon="-9.058717964217067">
        <ele>76.560000000000002</ele>
        <time>2025-05-04T12:54:03Z</time>
      </trkpt>
      <trkpt lat="39.594375025480986" lon="-9.05902398750186">
        <ele>62.619999999999997</ele>
        <time>2025-05-04T12:54:13Z</time>
      </trkpt>
      <trkpt lat="39.592735022306442" lon="-9.059843989089131">
        <ele>54.450000000000003</ele>
        <time>2025-05-04T12:54:21Z</time>
      </trkpt>
      <trkpt lat="39.590488001704216" lon="-9.061674010008574">
        <ele>51.57</ele>
        <time>2025-05-04T12:54:33Z</time>
      </trkpt>
      <trkpt lat="39.588160011917353" lon="-9.063318036496639">
        <ele>51.090000000000003</ele>
        <time>2025-05-04T12:54:45Z</time>
      </trkpt>
      <trkpt lat="39.586636014282703" lon="-9.063621964305639">
        <ele>51.090000000000003</ele>
        <time>2025-05-04T12:54:52Z</time>
      </trkpt>
      <trkpt lat="39.583737971261144" lon="-9.063691031187773">
        <ele>52.530000000000001</ele>
        <time>2025-05-04T12:55:05Z</time>
      </trkpt>
      <trkpt lat="39.582222020253539" lon="-9.06409403309226">
        <ele>52.049999999999997</ele>
        <time>2025-05-04T12:55:12Z</time>
      </trkpt>
      <trkpt lat="39.579822029918432" lon="-9.065586011856794">
        <ele>45.32</ele>
        <time>2025-05-04T12:55:24Z</time>
      </trkpt>
      <trkpt lat="39.578041965141892" lon="-9.066476002335548">
        <ele>41.469999999999999</ele>
        <time>2025-05-04T12:55:33Z</time>
      </trkpt>
      <trkpt lat="39.577167984098196" lon="-9.066981012001634">
        <ele>38.109999999999999</ele>
        <time>2025-05-04T12:55:40Z</time>
      </trkpt>
      <trkpt lat="39.577076034620404" lon="-9.067045971751213">
        <ele>37.630000000000003</ele>
        <time>2025-05-04T12:55:41Z</time>
      </trkpt>
      <trkpt lat="39.576993975788355" lon="-9.067104980349541">
        <ele>37.630000000000003</ele>
        <time>2025-05-04T12:55:42Z</time>
      </trkpt>
      <trkpt lat="39.576890962198377" lon="-9.067201958969235">
        <ele>37.149999999999999</ele>
        <time>2025-05-04T12:55:43Z</time>
      </trkpt>
      <trkpt lat="39.576867995783687" lon="-9.06731503084302">
        <ele>36.670000000000002</ele>
        <time>2025-05-04T12:55:44Z</time>
      </trkpt>
      <trkpt lat="39.576819967478514" lon="-9.06740396283567">
        <ele>36.189999999999998</ele>
        <time>2025-05-04T12:55:45Z</time>
      </trkpt>
      <trkpt lat="39.576735980808735" lon="-9.067442016676068">
        <ele>35.710000000000001</ele>
        <time>2025-05-04T12:55:46Z</time>
      </trkpt>
      <trkpt lat="39.576625004410744" lon="-9.067442016676068">
        <ele>35.229999999999997</ele>
        <time>2025-05-04T12:55:47Z</time>
      </trkpt>
      <trkpt lat="39.576573958620429" lon="-9.067389965057373">
        <ele>34.740000000000002</ele>
        <time>2025-05-04T12:55:48Z</time>
      </trkpt>
      <trkpt lat="39.576418977230787" lon="-9.067319976165891">
        <ele>34.740000000000002</ele>
        <time>2025-05-04T12:55:49Z</time>
      </trkpt>
      <trkpt lat="39.576305989176035" lon="-9.06735803000629">
        <ele>34.740000000000002</ele>
        <time>2025-05-04T12:55:50Z</time>
      </trkpt>
      <trkpt lat="39.576172968372703" lon="-9.067394994199276">
        <ele>34.259999999999998</ele>
        <time>2025-05-04T12:55:51Z</time>
      </trkpt>
      <trkpt lat="39.574482003226876" lon="-9.06776899471879">
        <ele>29.460000000000001</ele>
        <time>2025-05-04T12:56:02Z</time>
      </trkpt>
      <trkpt lat="39.572518039494753" lon="-9.068006034940481">
        <ele>22.25</ele>
        <time>2025-05-04T12:56:13Z</time>
      </trkpt>
      <trkpt lat="39.570519039407372" lon="-9.068021960556507">
        <ele>14.56</ele>
        <time>2025-05-04T12:56:23Z</time>
      </trkpt>
      <trkpt lat="39.569756034761667" lon="-9.068045010790229">
        <ele>12.15</ele>
        <time>2025-05-04T12:56:27Z</time>
      </trkpt>
      <trkpt lat="39.568285010755062" lon="-9.068382969126105">
        <ele>7.83</ele>
        <time>2025-05-04T12:56:34Z</time>
      </trkpt>
      <trkpt lat="39.566774005070329" lon="-9.068769961595535">
        <ele>5.91</ele>
        <time>2025-05-04T12:56:41Z</time>
      </trkpt>
      <trkpt lat="39.565068036317825" lon="-9.069291986525059">
        <ele>4.46</ele>
        <time>2025-05-04T12:56:49Z</time>
      </trkpt>
      <trkpt lat="39.564855974167585" lon="-9.069310007616878">
        <ele>3.98</ele>
        <time>2025-05-04T12:56:50Z</time>
      </trkpt>
      <trkpt lat="39.56465195864439" lon="-9.069327022880316">
        <ele>3.5</ele>
        <time>2025-05-04T12:56:51Z</time>
      </trkpt>
      <trkpt lat="39.564459007233381" lon="-9.069340014830232">
        <ele>3.5</ele>
        <time>2025-05-04T12:56:52Z</time>
      </trkpt>
      <trkpt lat="39.564277036115527" lon="-9.069296009838581">
        <ele>3.5</ele>
        <time>2025-05-04T12:56:53Z</time>
      </trkpt>
      <trkpt lat="39.563246984034777" lon="-9.069020999595523">
        <ele>1.58</ele>
        <time>2025-05-04T12:57:00Z</time>
      </trkpt>
      <trkpt lat="39.561975030228496" lon="-9.068712964653969">
        <ele>0.62</ele>
        <time>2025-05-04T12:57:11Z</time>
      </trkpt>
      <trkpt lat="39.561616033315659" lon="-9.068654961884022">
        <ele>1.58</ele>
        <time>2025-05-04T12:57:14Z</time>
      </trkpt>
      <trkpt lat="39.56003000959754" lon="-9.068691004067659">
        <ele>7.35</ele>
        <time>2025-05-04T12:57:27Z</time>
      </trkpt>
      <trkpt lat="39.558229995891452" lon="-9.069025022909045">
        <ele>8.310000000000001</ele>
        <time>2025-05-04T12:57:42Z</time>
      </trkpt>
      <trkpt lat="39.556967010721564" lon="-9.069412015378475">
        <ele>7.35</ele>
        <time>2025-05-04T12:57:52Z</time>
      </trkpt>
      <trkpt lat="39.555061971768737" lon="-9.070065971463919">
        <ele>9.27</ele>
        <time>2025-05-04T12:58:03Z</time>
      </trkpt>
      <trkpt lat="39.552720990031958" lon="-9.070892008021474">
        <ele>10.23</ele>
        <time>2025-05-04T12:58:15Z</time>
      </trkpt>
      <trkpt lat="39.551718011498451" lon="-9.071318982169032">
        <ele>10.23</ele>
        <time>2025-05-04T12:58:20Z</time>
      </trkpt>
      <trkpt lat="39.55051202327013" lon="-9.072359008714557">
        <ele>9.27</ele>
        <time>2025-05-04T12:58:28Z</time>
      </trkpt>
      <trkpt lat="39.548860033974051" lon="-9.074237979948521">
        <ele>10.710000000000001</ele>
        <time>2025-05-04T12:58:41Z</time>
      </trkpt>
      <trkpt lat="39.546986008062959" lon="-9.076453987509012">
        <ele>13.6</ele>
        <time>2025-05-04T12:58:56Z</time>
      </trkpt>
      <trkpt lat="39.546234989538789" lon="-9.077729964628816">
        <ele>15.039999999999999</ele>
        <time>2025-05-04T12:59:03Z</time>
      </trkpt>
      <trkpt lat="39.546126024797559" lon="-9.077901961281896">
        <ele>15.039999999999999</ele>
        <time>2025-05-04T12:59:04Z</time>
      </trkpt>
      <trkpt lat="39.544658018276095" lon="-9.079195037484169">
        <ele>16</ele>
        <time>2025-05-04T12:59:14Z</time>
      </trkpt>
      <trkpt lat="39.544512005522847" lon="-9.079286986961961">
        <ele>15.52</ele>
        <time>2025-05-04T12:59:16Z</time>
      </trkpt>
      <trkpt lat="39.544363981112838" lon="-9.079380026087165">
        <ele>15.039999999999999</ele>
        <time>2025-05-04T12:59:17Z</time>
      </trkpt>
      <trkpt lat="39.542332040145993" lon="-9.080312009900808">
        <ele>17.920000000000002</ele>
        <time>2025-05-04T12:59:30Z</time>
      </trkpt>
      <trkpt lat="39.540847018361092" lon="-9.080907963216305">
        <ele>19.84</ele>
        <time>2025-05-04T12:59:41Z</time>
      </trkpt>
      <trkpt lat="39.540723972022533" lon="-9.080907963216305">
        <ele>19.84</ele>
        <time>2025-05-04T12:59:42Z</time>
      </trkpt>
      <trkpt lat="39.539688974618912" lon="-9.080822970718145">
        <ele>22.25</ele>
        <time>2025-05-04T12:59:51Z</time>
      </trkpt>
      <trkpt lat="39.539570035412908" lon="-9.080822970718145">
        <ele>22.73</ele>
        <time>2025-05-04T12:59:52Z</time>
      </trkpt>
      <trkpt lat="39.539452018216252" lon="-9.08083101734519">
        <ele>23.210000000000001</ele>
        <time>2025-05-04T12:59:53Z</time>
      </trkpt>
      <trkpt lat="39.538636039942503" lon="-9.081141985952854">
        <ele>25.129999999999999</ele>
        <time>2025-05-04T13:00:00Z</time>
      </trkpt>
      <trkpt lat="39.538518022745848" lon="-9.081195965409279">
        <ele>25.609999999999999</ele>
        <time>2025-05-04T13:00:01Z</time>
      </trkpt>
      <trkpt lat="39.538412997499108" lon="-9.081279030069709">
        <ele>25.609999999999999</ele>
        <time>2025-05-04T13:00:02Z</time>
      </trkpt>
      <trkpt lat="39.538306966423988" lon="-9.081362010911107">
        <ele>26.09</ele>
        <time>2025-05-04T13:00:03Z</time>
      </trkpt>
      <trkpt lat="39.538210993632674" lon="-9.081457983702421">
        <ele>26.09</ele>
        <time>2025-05-04T13:00:04Z</time>
      </trkpt>
      <trkpt lat="39.538145028054714" lon="-9.08158496953547">
        <ele>26.09</ele>
        <time>2025-05-04T13:00:05Z</time>
      </trkpt>
      <trkpt lat="39.538076967000961" lon="-9.081714972853661">
        <ele>26.09</ele>
        <time>2025-05-04T13:00:06Z</time>
      </trkpt>
      <trkpt lat="39.53800798393786" lon="-9.081845982000232">
        <ele>26.09</ele>
        <time>2025-05-04T13:00:07Z</time>
      </trkpt>
      <trkpt lat="39.537941012531519" lon="-9.081973973661661">
        <ele>26.57</ele>
        <time>2025-05-04T13:00:08Z</time>
      </trkpt>
      <trkpt lat="39.537875968962908" lon="-9.082099031656981">
        <ele>26.57</ele>
        <time>2025-05-04T13:00:09Z</time>
      </trkpt>
      <trkpt lat="39.537808997556567" lon="-9.082226017490029">
        <ele>26.57</ele>
        <time>2025-05-04T13:00:10Z</time>
      </trkpt>
      <trkpt lat="39.537744959816337" lon="-9.082349985837936">
        <ele>26.57</ele>
        <time>2025-05-04T13:00:11Z</time>
      </trkpt>
      <trkpt lat="39.537650998681784" lon="-9.082431038841605">
        <ele>26.57</ele>
        <time>2025-05-04T13:00:12Z</time>
      </trkpt>
      <trkpt lat="39.537540022283792" lon="-9.082468003034592">
        <ele>26.57</ele>
        <time>2025-05-04T13:00:13Z</time>
      </trkpt>
      <trkpt lat="39.537067031487823" lon="-9.082644023001194">
        <ele>28.02</ele>
        <time>2025-05-04T13:00:17Z</time>
      </trkpt>
      <trkpt lat="39.536963012069464" lon="-9.082689033821225">
        <ele>28.5</ele>
        <time>2025-05-04T13:00:18Z</time>
      </trkpt>
      <trkpt lat="39.536853963509202" lon="-9.082776959985495">
        <ele>28.98</ele>
        <time>2025-05-04T13:00:19Z</time>
      </trkpt>
      <trkpt lat="39.536127001047134" lon="-9.08349797129631">
        <ele>32.82</ele>
        <time>2025-05-04T13:00:27Z</time>
      </trkpt>
      <trkpt lat="39.535878980532289" lon="-9.083694024011493">
        <ele>33.299999999999997</ele>
        <time>2025-05-04T13:00:30Z</time>
      </trkpt>
      <trkpt lat="39.535790970548987" lon="-9.08375496044755">
        <ele>33.299999999999997</ele>
        <time>2025-05-04T13:00:31Z</time>
      </trkpt>
      <trkpt lat="39.535486958920956" lon="-9.083885969594121">
        <ele>33.299999999999997</ele>
        <time>2025-05-04T13:00:34Z</time>
      </trkpt>
      <trkpt lat="39.534373003989458" lon="-9.084507990628481">
        <ele>34.740000000000002</ele>
        <time>2025-05-04T13:00:45Z</time>
      </trkpt>
      <trkpt lat="39.533390980213881" lon="-9.085061028599739">
        <ele>36.670000000000002</ele>
        <time>2025-05-04T13:00:55Z</time>
      </trkpt>
      <trkpt lat="39.532441981136799" lon="-9.085507029667497">
        <ele>37.630000000000003</ele>
        <time>2025-05-04T13:01:04Z</time>
      </trkpt>
      <trkpt lat="39.531382005661726" lon="-9.086133996024728">
        <ele>39.07</ele>
        <time>2025-05-04T13:01:14Z</time>
      </trkpt>
      <trkpt lat="39.531281003728509" lon="-9.086185041815043">
        <ele>39.549999999999997</ele>
        <time>2025-05-04T13:01:15Z</time>
      </trkpt>
      <trkpt lat="39.530233014374971" lon="-9.086894989013672">
        <ele>40.509999999999998</ele>
        <time>2025-05-04T13:01:25Z</time>
      </trkpt>
      <trkpt lat="39.530138969421387" lon="-9.086964977905154">
        <ele>40.030000000000001</ele>
        <time>2025-05-04T13:01:26Z</time>
      </trkpt>
      <trkpt lat="39.529212014749646" lon="-9.087664028629661">
        <ele>39.07</ele>
        <time>2025-05-04T13:01:36Z</time>
      </trkpt>
      <trkpt lat="39.528316995128989" lon="-9.088350003585219">
        <ele>38.109999999999999</ele>
        <time>2025-05-04T13:01:44Z</time>
      </trkpt>
      <trkpt lat="39.527057027444243" lon="-9.089348036795855">
        <ele>33.299999999999997</ele>
        <time>2025-05-04T13:01:53Z</time>
      </trkpt>
      <trkpt lat="39.526895005255938" lon="-9.089432023465633">
        <ele>32.340000000000003</ele>
        <time>2025-05-04T13:01:54Z</time>
      </trkpt>
      <trkpt lat="39.52674999833107" lon="-9.089475022628903">
        <ele>31.859999999999999</ele>
        <time>2025-05-04T13:01:55Z</time>
      </trkpt>
      <trkpt lat="39.526652013882995" lon="-9.089504024013877">
        <ele>30.899999999999999</ele>
        <time>2025-05-04T13:01:56Z</time>
      </trkpt>
      <trkpt lat="39.526589987799525" lon="-9.089521961286664">
        <ele>29.940000000000001</ele>
        <time>2025-05-04T13:01:57Z</time>
      </trkpt>
      <trkpt lat="39.526549000293016" lon="-9.089534031227231">
        <ele>29.460000000000001</ele>
        <time>2025-05-04T13:01:58Z</time>
      </trkpt>
      <trkpt lat="39.526530979201198" lon="-9.089538976550102">
        <ele>28.98</ele>
        <time>2025-05-04T13:01:59Z</time>
      </trkpt>
      <trkpt lat="39.526513963937759" lon="-9.089544005692005">
        <ele>28.02</ele>
        <time>2025-05-04T13:02:00Z</time>
      </trkpt>
      <trkpt lat="39.526490997523069" lon="-9.089550962671638">
        <ele>27.530000000000001</ele>
        <time>2025-05-04T13:02:01Z</time>
      </trkpt>
      <trkpt lat="39.52646903693676" lon="-9.089556997641921">
        <ele>26.57</ele>
        <time>2025-05-04T13:02:02Z</time>
      </trkpt>
      <trkpt lat="39.526404999196529" lon="-9.08996201120317">
        <ele>21.77</ele>
        <time>2025-05-04T13:02:12Z</time>
      </trkpt>
      <trkpt lat="39.526375997811556" lon="-9.08996201120317">
        <ele>18.879999999999999</ele>
        <time>2025-05-04T13:02:18Z</time>
      </trkpt>
      <trkpt lat="39.526412962004542" lon="-9.089943990111351">
        <ele>17.920000000000002</ele>
        <time>2025-05-04T13:02:31Z</time>
      </trkpt>
      <trkpt lat="39.526475993916392" lon="-9.089860003441572">
        <ele>37.149999999999999</ele>
        <time>2025-05-04T13:03:13Z</time>
      </trkpt>
      <trkpt lat="39.526467025279999" lon="-9.08985598012805">
        <ele>33.780000000000001</ele>
        <time>2025-05-04T13:04:02Z</time>
      </trkpt>
      <trkpt lat="39.526415979489684" lon="-9.089573007076979">
        <ele>36.670000000000002</ele>
        <time>2025-05-04T13:04:24Z</time>
      </trkpt>
      <trkpt lat="39.526441963389516" lon="-9.089564960449934">
        <ele>36.189999999999998</ele>
        <time>2025-05-04T13:04:25Z</time>
      </trkpt>
      <trkpt lat="39.526468031108379" lon="-9.089558003470302">
        <ele>36.189999999999998</ele>
        <time>2025-05-04T13:04:26Z</time>
      </trkpt>
      <trkpt lat="39.526457972824574" lon="-9.089561020955443">
        <ele>35.229999999999997</ele>
        <time>2025-05-04T13:04:29Z</time>
      </trkpt>
      <trkpt lat="39.526436012238264" lon="-9.089566972106695">
        <ele>35.229999999999997</ele>
        <time>2025-05-04T13:04:30Z</time>
      </trkpt>
      <trkpt lat="39.526411034166813" lon="-9.089574012905359">
        <ele>34.740000000000002</ele>
        <time>2025-05-04T13:04:31Z</time>
      </trkpt>
      <trkpt lat="39.526384966447949" lon="-9.089581975713372">
        <ele>34.740000000000002</ele>
        <time>2025-05-04T13:04:32Z</time>
      </trkpt>
      <trkpt lat="39.526348002254963" lon="-9.089593039825559">
        <ele>34.259999999999998</ele>
        <time>2025-05-04T13:04:33Z</time>
      </trkpt>
      <trkpt lat="39.525713995099068" lon="-9.089732011780143">
        <ele>32.340000000000003</ele>
        <time>2025-05-04T13:04:40Z</time>
      </trkpt>
      <trkpt lat="39.524249006062746" lon="-9.090034011751413">
        <ele>32.340000000000003</ele>
        <time>2025-05-04T13:04:51Z</time>
      </trkpt>
      <trkpt lat="39.522362994030118" lon="-9.090443970635533">
        <ele>30.899999999999999</ele>
        <time>2025-05-04T13:05:04Z</time>
      </trkpt>
      <trkpt lat="39.521343000233173" lon="-9.09075703471899">
        <ele>31.379999999999999</ele>
        <time>2025-05-04T13:05:13Z</time>
      </trkpt>
      <trkpt lat="39.520994983613491" lon="-9.090912016108632">
        <ele>31.859999999999999</ele>
        <time>2025-05-04T13:05:16Z</time>
      </trkpt>
      <trkpt lat="39.520877972245216" lon="-9.090921990573406">
        <ele>31.379999999999999</ele>
        <time>2025-05-04T13:05:17Z</time>
      </trkpt>
      <trkpt lat="39.519627979025245" lon="-9.091047970578075">
        <ele>31.859999999999999</ele>
        <time>2025-05-04T13:05:28Z</time>
      </trkpt>
      <trkpt lat="39.518987014889717" lon="-9.091246034950018">
        <ele>33.780000000000001</ele>
        <time>2025-05-04T13:05:35Z</time>
      </trkpt>
      <trkpt lat="39.518189979717135" lon="-9.09166001714766">
        <ele>32.340000000000003</ele>
        <time>2025-05-04T13:05:45Z</time>
      </trkpt>
      <trkpt lat="39.517672983929515" lon="-9.091920023784041">
        <ele>31.379999999999999</ele>
        <time>2025-05-04T13:05:51Z</time>
      </trkpt>
      <trkpt lat="39.517567036673427" lon="-9.091962017118931">
        <ele>31.379999999999999</ele>
        <time>2025-05-04T13:05:52Z</time>
      </trkpt>
      <trkpt lat="39.517450025305152" lon="-9.091971991583705">
        <ele>31.379999999999999</ele>
        <time>2025-05-04T13:05:53Z</time>
      </trkpt>
      <trkpt lat="39.517328990623355" lon="-9.091948019340634">
        <ele>31.379999999999999</ele>
        <time>2025-05-04T13:05:54Z</time>
      </trkpt>
      <trkpt lat="39.5172109734267" lon="-9.091890016570687">
        <ele>31.379999999999999</ele>
        <time>2025-05-04T13:05:55Z</time>
      </trkpt>
      <trkpt lat="39.517093040049076" lon="-9.091830002143979">
        <ele>31.859999999999999</ele>
        <time>2025-05-04T13:05:56Z</time>
      </trkpt>
      <trkpt lat="39.515940025448799" lon="-9.091432029381394">
        <ele>33.780000000000001</ele>
        <time>2025-05-04T13:06:06Z</time>
      </trkpt>
      <trkpt lat="39.515180960297585" lon="-9.091282999143004">
        <ele>35.229999999999997</ele>
        <time>2025-05-04T13:06:12Z</time>
      </trkpt>
      <trkpt lat="39.515053974464536" lon="-9.091277970001102">
        <ele>35.710000000000001</ele>
        <time>2025-05-04T13:06:13Z</time>
      </trkpt>
      <trkpt lat="39.513798030093312" lon="-9.091452984139323">
        <ele>35.710000000000001</ele>
        <time>2025-05-04T13:06:21Z</time>
      </trkpt>
      <trkpt lat="39.512361958622932" lon="-9.091722965240479">
        <ele>35.229999999999997</ele>
        <time>2025-05-04T13:06:31Z</time>
      </trkpt>
      <trkpt lat="39.512190967798233" lon="-9.091755989938974">
        <ele>35.229999999999997</ele>
        <time>2025-05-04T13:06:32Z</time>
      </trkpt>
      <trkpt lat="39.512024000287056" lon="-9.091787002980709">
        <ele>35.229999999999997</ele>
        <time>2025-05-04T13:06:33Z</time>
      </trkpt>
      <trkpt lat="39.511704985052347" lon="-9.091848023235798">
        <ele>35.229999999999997</ele>
        <time>2025-05-04T13:06:34Z</time>
      </trkpt>
      <trkpt lat="39.511544974520802" lon="-9.091878030449152">
        <ele>35.710000000000001</ele>
        <time>2025-05-04T13:06:35Z</time>
      </trkpt>
      <trkpt lat="39.511385969817638" lon="-9.091908037662506">
        <ele>35.710000000000001</ele>
        <time>2025-05-04T13:06:36Z</time>
      </trkpt>
      <trkpt lat="39.511385969817638" lon="-9.091908037662506">
        <ele>36.189999999999998</ele>
        <time>2025-05-04T13:06:37Z</time>
      </trkpt>
      <trkpt lat="39.511229982599616" lon="-9.092027982696891">
        <ele>36.670000000000002</ele>
        <time>2025-05-04T13:06:38Z</time>
      </trkpt>
      <trkpt lat="39.511088998988271" lon="-9.092169972136617">
        <ele>37.149999999999999</ele>
        <time>2025-05-04T13:06:39Z</time>
      </trkpt>
      <trkpt lat="39.510941980406642" lon="-9.092316990718246">
        <ele>37.630000000000003</ele>
        <time>2025-05-04T13:06:40Z</time>
      </trkpt>
      <trkpt lat="39.509560978040099" lon="-9.093697993084788">
        <ele>37.149999999999999</ele>
        <time>2025-05-04T13:06:49Z</time>
      </trkpt>
      <trkpt lat="39.508908027783036" lon="-9.094334011897445">
        <ele>36.189999999999998</ele>
        <time>2025-05-04T13:06:53Z</time>
      </trkpt>
      <trkpt lat="39.508031029254198" lon="-9.094936000183225">
        <ele>34.740000000000002</ele>
        <time>2025-05-04T13:06:58Z</time>
      </trkpt>
      <trkpt lat="39.50786598958075" lon="-9.095048988237977">
        <ele>34.259999999999998</ele>
        <time>2025-05-04T13:06:59Z</time>
      </trkpt>
      <trkpt lat="39.507725005969405" lon="-9.095240011811256">
        <ele>33.299999999999997</ele>
        <time>2025-05-04T13:07:00Z</time>
      </trkpt>
      <trkpt lat="39.507224019616842" lon="-9.095930010080338">
        <ele>30.420000000000002</ele>
        <time>2025-05-04T13:07:04Z</time>
      </trkpt>
      <trkpt lat="39.507112959399819" lon="-9.09608599729836">
        <ele>29.940000000000001</ele>
        <time>2025-05-04T13:07:05Z</time>
      </trkpt>
      <trkpt lat="39.506987985223532" lon="-9.096206026151776">
        <ele>28.98</ele>
        <time>2025-05-04T13:07:06Z</time>
      </trkpt>
      <trkpt lat="39.505966985598207" lon="-9.096873980015516">
        <ele>23.210000000000001</ele>
        <time>2025-05-04T13:07:14Z</time>
      </trkpt>
      <trkpt lat="39.505765987560153" lon="-9.097072966396809">
        <ele>22.25</ele>
        <time>2025-05-04T13:07:16Z</time>
      </trkpt>
      <trkpt lat="39.505670014768839" lon="-9.097173968330026">
        <ele>22.25</ele>
        <time>2025-05-04T13:07:17Z</time>
      </trkpt>
      <trkpt lat="39.505575969815254" lon="-9.097273964434862">
        <ele>21.77</ele>
        <time>2025-05-04T13:07:18Z</time>
      </trkpt>
      <trkpt lat="39.504912961274385" lon="-9.09849202260375">
        <ele>21.77</ele>
        <time>2025-05-04T13:07:29Z</time>
      </trkpt>
      <trkpt lat="39.504145011305809" lon="-9.099881993606687">
        <ele>23.210000000000001</ele>
        <time>2025-05-04T13:07:43Z</time>
      </trkpt>
      <trkpt lat="39.503529025241733" lon="-9.100900981575251">
        <ele>23.690000000000001</ele>
        <time>2025-05-04T13:07:52Z</time>
      </trkpt>
      <trkpt lat="39.503038013353944" lon="-9.101445972919464">
        <ele>24.170000000000002</ele>
        <time>2025-05-04T13:08:00Z</time>
      </trkpt>
      <trkpt lat="39.502967018634081" lon="-9.101523002609611">
        <ele>23.690000000000001</ele>
        <time>2025-05-04T13:08:01Z</time>
      </trkpt>
      <trkpt lat="39.502307027578354" lon="-9.102253988385201">
        <ele>20.809999999999999</ele>
        <time>2025-05-04T13:08:11Z</time>
      </trkpt>
      <trkpt lat="39.501618035137653" lon="-9.102896964177489">
        <ele>22.25</ele>
        <time>2025-05-04T13:08:21Z</time>
      </trkpt>
      <trkpt lat="39.500543978065252" lon="-9.103613030165434">
        <ele>24.170000000000002</ele>
        <time>2025-05-04T13:08:34Z</time>
      </trkpt>
      <trkpt lat="39.500205013900995" lon="-9.103646976873279">
        <ele>25.129999999999999</ele>
        <time>2025-05-04T13:08:40Z</time>
      </trkpt>
      <trkpt lat="39.499928997829556" lon="-9.103631973266602">
        <ele>25.129999999999999</ele>
        <time>2025-05-04T13:08:47Z</time>
      </trkpt>
      <trkpt lat="39.499904019758105" lon="-9.103631973266602">
        <ele>26.09</ele>
        <time>2025-05-04T13:09:08Z</time>
      </trkpt>
      <trkpt lat="39.499841993674636" lon="-9.103638008236885">
        <ele>26.57</ele>
        <time>2025-05-04T13:09:09Z</time>
      </trkpt>
      <trkpt lat="39.499840987846255" lon="-9.103631973266602">
        <ele>27.050000000000001</ele>
        <time>2025-05-04T13:09:10Z</time>
      </trkpt>
      <trkpt lat="39.499837970361114" lon="-9.103485960513353">
        <ele>27.530000000000001</ele>
        <time>2025-05-04T13:09:11Z</time>
      </trkpt>
      <trkpt lat="39.499824978411198" lon="-9.103402979671955">
        <ele>27.530000000000001</ele>
        <time>2025-05-04T13:09:12Z</time>
      </trkpt>
      <trkpt lat="39.499747026711702" lon="-9.102837033569813">
        <ele>27.530000000000001</ele>
        <time>2025-05-04T13:09:18Z</time>
      </trkpt>
      <trkpt lat="39.49963403865695" lon="-9.101719977334142">
        <ele>28.5</ele>
        <time>2025-05-04T13:09:29Z</time>
      </trkpt>
      <trkpt lat="39.499585004523396" lon="-9.101100973784924">
        <ele>27.530000000000001</ele>
        <time>2025-05-04T13:09:35Z</time>
      </trkpt>
      <trkpt lat="39.499577041715384" lon="-9.100998966023326">
        <ele>27.530000000000001</ele>
        <time>2025-05-04T13:09:36Z</time>
      </trkpt>
      <trkpt lat="39.499474028125405" lon="-9.099819967523217">
        <ele>26.57</ele>
        <time>2025-05-04T13:09:47Z</time>
      </trkpt>
      <trkpt lat="39.499303037300706" lon="-9.097960023209453">
        <ele>25.609999999999999</ele>
        <time>2025-05-04T13:10:02Z</time>
      </trkpt>
      <trkpt lat="39.499207986518741" lon="-9.096660995855928">
        <ele>25.129999999999999</ele>
        <time>2025-05-04T13:10:12Z</time>
      </trkpt>
      <trkpt lat="39.499112013727427" lon="-9.095457019284368">
        <ele>26.09</ele>
        <time>2025-05-04T13:10:21Z</time>
      </trkpt>
      <trkpt lat="39.499060967937112" lon="-9.095102967694402">
        <ele>26.09</ele>
        <time>2025-05-04T13:10:24Z</time>
      </trkpt>
      <trkpt lat="39.499050993472338" lon="-9.095015963539481">
        <ele>26.09</ele>
        <time>2025-05-04T13:10:25Z</time>
      </trkpt>
      <trkpt lat="39.498985027894378" lon="-9.094884032383561">
        <ele>25.609999999999999</ele>
        <time>2025-05-04T13:10:27Z</time>
      </trkpt>
      <trkpt lat="39.498933982104063" lon="-9.094809014350176">
        <ele>25.129999999999999</ele>
        <time>2025-05-04T13:10:28Z</time>
      </trkpt>
      <trkpt lat="39.498868016526103" lon="-9.094768026843667">
        <ele>24.649999999999999</ele>
        <time>2025-05-04T13:10:29Z</time>
      </trkpt>
      <trkpt lat="39.498736001551151" lon="-9.094725027680397">
        <ele>24.170000000000002</ele>
        <time>2025-05-04T13:10:30Z</time>
      </trkpt>
      <trkpt lat="39.498661989346147" lon="-9.094769032672048">
        <ele>24.170000000000002</ele>
        <time>2025-05-04T13:10:31Z</time>
      </trkpt>
      <trkpt lat="39.498554030433297" lon="-9.094833992421627">
        <ele>24.170000000000002</ele>
        <time>2025-05-04T13:10:32Z</time>
      </trkpt>
      <trkpt lat="39.49840902350843" lon="-9.095107996836305">
        <ele>23.210000000000001</ele>
        <time>2025-05-04T13:10:35Z</time>
      </trkpt>
      <trkpt lat="39.498328976333141" lon="-9.095176979899406">
        <ele>22.73</ele>
        <time>2025-05-04T13:10:36Z</time>
      </trkpt>
      <trkpt lat="39.498252030462027" lon="-9.095239005982876">
        <ele>22.25</ele>
        <time>2025-05-04T13:10:37Z</time>
      </trkpt>
      <trkpt lat="39.49817500077188" lon="-9.095301032066345">
        <ele>22.25</ele>
        <time>2025-05-04T13:10:38Z</time>
      </trkpt>
      <trkpt lat="39.498061006888747" lon="-9.095249986276031">
        <ele>21.77</ele>
        <time>2025-05-04T13:10:39Z</time>
      </trkpt>
      <trkpt lat="39.497975008562207" lon="-9.095283010974526">
        <ele>21.289999999999999</ele>
        <time>2025-05-04T13:10:40Z</time>
      </trkpt>
      <trkpt lat="39.497888004407287" lon="-9.095317041501403">
        <ele>20.809999999999999</ele>
        <time>2025-05-04T13:10:41Z</time>
      </trkpt>
      <trkpt lat="39.497802006080747" lon="-9.095348976552486">
        <ele>20.809999999999999</ele>
        <time>2025-05-04T13:10:42Z</time>
      </trkpt>
      <trkpt lat="39.496545977890491" lon="-9.095422988757491">
        <ele>18.399999999999999</ele>
        <time>2025-05-04T13:10:54Z</time>
      </trkpt>
      <trkpt lat="39.495343007147312" lon="-9.095486020669341">
        <ele>14.56</ele>
        <time>2025-05-04T13:11:05Z</time>
      </trkpt>
      <trkpt lat="39.494100976735353" lon="-9.095544023439288">
        <ele>16</ele>
        <time>2025-05-04T13:11:15Z</time>
      </trkpt>
      <trkpt lat="39.493502005934715" lon="-9.095619041472673">
        <ele>17.920000000000002</ele>
        <time>2025-05-04T13:11:19Z</time>
      </trkpt>
      <trkpt lat="39.492090996354818" lon="-9.096225975081325">
        <ele>21.77</ele>
        <time>2025-05-04T13:11:28Z</time>
      </trkpt>
      <trkpt lat="39.491967028006911" lon="-9.096291018649936">
        <ele>21.77</ele>
        <time>2025-05-04T13:11:29Z</time>
      </trkpt>
      <trkpt lat="39.49185797944665" lon="-9.096349021419883">
        <ele>22.25</ele>
        <time>2025-05-04T13:11:30Z</time>
      </trkpt>
      <trkpt lat="39.491598978638649" lon="-9.096484975889325">
        <ele>23.210000000000001</ele>
        <time>2025-05-04T13:11:33Z</time>
      </trkpt>
      <trkpt lat="39.49153502471745" lon="-9.096519006416202">
        <ele>23.210000000000001</ele>
        <time>2025-05-04T13:11:34Z</time>
      </trkpt>
      <trkpt lat="39.491267977282405" lon="-9.096371987834573">
        <ele>24.170000000000002</ele>
        <time>2025-05-04T13:11:39Z</time>
      </trkpt>
      <trkpt lat="39.49123302474618" lon="-9.096397971734405">
        <ele>24.649999999999999</ele>
        <time>2025-05-04T13:11:40Z</time>
      </trkpt>
      <trkpt lat="39.491178039461374" lon="-9.096438959240913">
        <ele>25.129999999999999</ele>
        <time>2025-05-04T13:11:41Z</time>
      </trkpt>
      <trkpt lat="39.490459961816669" lon="-9.096961989998817">
        <ele>28.98</ele>
        <time>2025-05-04T13:11:49Z</time>
      </trkpt>
      <trkpt lat="39.488990027457476" lon="-9.098054990172386">
        <ele>32.82</ele>
        <time>2025-05-04T13:12:01Z</time>
      </trkpt>
      <trkpt lat="39.48736603371799" lon="-9.099275982007384">
        <ele>36.670000000000002</ele>
        <time>2025-05-04T13:12:13Z</time>
      </trkpt>
      <trkpt lat="39.486970994621515" lon="-9.099558033049107">
        <ele>36.670000000000002</ele>
        <time>2025-05-04T13:12:15Z</time>
      </trkpt>
      <trkpt lat="39.486007997766137" lon="-9.10025398246944">
        <ele>41.469999999999999</ele>
        <time>2025-05-04T13:12:24Z</time>
      </trkpt>
      <trkpt lat="39.485952006652951" lon="-9.100294969975948">
        <ele>41.950000000000003</ele>
        <time>2025-05-04T13:12:30Z</time>
      </trkpt>
      <trkpt lat="39.485804988071322" lon="-9.100414998829365">
        <ele>42.439999999999998</ele>
        <time>2025-05-04T13:12:37Z</time>
      </trkpt>
      <trkpt lat="39.484779965132475" lon="-9.101182026788592">
        <ele>42.920000000000002</ele>
        <time>2025-05-04T13:12:47Z</time>
      </trkpt>
      <trkpt lat="39.483857033774257" lon="-9.101870013400912">
        <ele>40.990000000000002</ele>
        <time>2025-05-04T13:12:58Z</time>
      </trkpt>
      <trkpt lat="39.482811978086829" lon="-9.102669982239604">
        <ele>40.990000000000002</ele>
        <time>2025-05-04T13:13:07Z</time>
      </trkpt>
      <trkpt lat="39.482689015567303" lon="-9.102757992222905">
        <ele>41.950000000000003</ele>
        <time>2025-05-04T13:13:08Z</time>
      </trkpt>
      <trkpt lat="39.481731969863176" lon="-9.103465005755425">
        <ele>43.880000000000003</ele>
        <time>2025-05-04T13:13:17Z</time>
      </trkpt>
      <trkpt lat="39.480145024135709" lon="-9.104677028954029">
        <ele>42.920000000000002</ele>
        <time>2025-05-04T13:13:33Z</time>
      </trkpt>
      <trkpt lat="39.478561012074351" lon="-9.105878993868828">
        <ele>40.030000000000001</ele>
        <time>2025-05-04T13:13:46Z</time>
      </trkpt>
      <trkpt lat="39.477129969745874" lon="-9.106966964900494">
        <ele>38.109999999999999</ele>
        <time>2025-05-04T13:13:57Z</time>
      </trkpt>
      <trkpt lat="39.475420983508229" lon="-9.108276972547174">
        <ele>37.630000000000003</ele>
        <time>2025-05-04T13:14:08Z</time>
      </trkpt>
      <trkpt lat="39.473301032558084" lon="-9.109946982935071">
        <ele>32.82</ele>
        <time>2025-05-04T13:14:21Z</time>
      </trkpt>
      <trkpt lat="39.471748033538461" lon="-9.111166968941689">
        <ele>29.940000000000001</ele>
        <time>2025-05-04T13:14:33Z</time>
      </trkpt>
      <trkpt lat="39.470149017870426" lon="-9.112428026273847">
        <ele>26.57</ele>
        <time>2025-05-04T13:14:44Z</time>
      </trkpt>
      <trkpt lat="39.468053039163351" lon="-9.114058976992965">
        <ele>19.84</ele>
        <time>2025-05-04T13:14:57Z</time>
      </trkpt>
      <trkpt lat="39.466029983013868" lon="-9.115641983225942">
        <ele>16</ele>
        <time>2025-05-04T13:15:10Z</time>
      </trkpt>
      <trkpt lat="39.464245978742838" lon="-9.117090962827206">
        <ele>18.879999999999999</ele>
        <time>2025-05-04T13:15:21Z</time>
      </trkpt>
      <trkpt lat="39.462147988379002" lon="-9.119000025093556">
        <ele>20.32</ele>
        <time>2025-05-04T13:15:35Z</time>
      </trkpt>
      <trkpt lat="39.45993198081851" lon="-9.120883019641042">
        <ele>20.32</ele>
        <time>2025-05-04T13:15:49Z</time>
      </trkpt>
      <trkpt lat="39.457991989329457" lon="-9.122105017304421">
        <ele>20.809999999999999</ele>
        <time>2025-05-04T13:16:00Z</time>
      </trkpt>
      <trkpt lat="39.455906990915537" lon="-9.123460035771132">
        <ele>19.84</ele>
        <time>2025-05-04T13:16:11Z</time>
      </trkpt>
      <trkpt lat="39.454222982749343" lon="-9.12485302425921">
        <ele>16.48</ele>
        <time>2025-05-04T13:16:20Z</time>
      </trkpt>
      <trkpt lat="39.452522965148091" lon="-9.126483974978328">
        <ele>17.440000000000001</ele>
        <time>2025-05-04T13:16:30Z</time>
      </trkpt>
      <trkpt lat="39.451619982719421" lon="-9.12730498239398">
        <ele>18.399999999999999</ele>
        <time>2025-05-04T13:16:37Z</time>
      </trkpt>
      <trkpt lat="39.450896959751844" lon="-9.127986012026668">
        <ele>21.289999999999999</ele>
        <time>2025-05-04T13:16:45Z</time>
      </trkpt>
      <trkpt lat="39.450586996972561" lon="-9.128246018663049">
        <ele>23.210000000000001</ele>
        <time>2025-05-04T13:16:50Z</time>
      </trkpt>
      <trkpt lat="39.45051901973784" lon="-9.128298992291093">
        <ele>24.649999999999999</ele>
        <time>2025-05-04T13:16:56Z</time>
      </trkpt>
      <trkpt lat="39.450100008398294" lon="-9.128595041111112">
        <ele>26.09</ele>
        <time>2025-05-04T13:17:03Z</time>
      </trkpt>
      <trkpt lat="39.449022011831403" lon="-9.129063002765179">
        <ele>28.02</ele>
        <time>2025-05-04T13:17:14Z</time>
      </trkpt>
      <trkpt lat="39.448283985257149" lon="-9.129166016355157">
        <ele>27.050000000000001</ele>
        <time>2025-05-04T13:17:23Z</time>
      </trkpt>
      <trkpt lat="39.448104025796056" lon="-9.129183031618595">
        <ele>25.609999999999999</ele>
        <time>2025-05-04T13:17:32Z</time>
      </trkpt>
      <trkpt lat="39.447910990566015" lon="-9.129202980548143">
        <ele>24.170000000000002</ele>
        <time>2025-05-04T13:17:40Z</time>
      </trkpt>
      <trkpt lat="39.446938019245863" lon="-9.12928101606667">
        <ele>24.170000000000002</ele>
        <time>2025-05-04T13:17:49Z</time>
      </trkpt>
      <trkpt lat="39.445620970800519" lon="-9.129397021606565">
        <ele>24.649999999999999</ele>
        <time>2025-05-04T13:18:00Z</time>
      </trkpt>
      <trkpt lat="39.444071995094419" lon="-9.129535993561149">
        <ele>26.09</ele>
        <time>2025-05-04T13:18:13Z</time>
      </trkpt>
      <trkpt lat="39.441941985860467" lon="-9.129716036841273">
        <ele>27.530000000000001</ele>
        <time>2025-05-04T13:18:30Z</time>
      </trkpt>
      <trkpt lat="39.440599037334323" lon="-9.129799017682672">
        <ele>29.460000000000001</ele>
        <time>2025-05-04T13:18:43Z</time>
      </trkpt>
      <trkpt lat="39.44050800986588" lon="-9.129794994369149">
        <ele>29.460000000000001</ele>
        <time>2025-05-04T13:18:44Z</time>
      </trkpt>
      <trkpt lat="39.440317992120981" lon="-9.129961039870977">
        <ele>29.940000000000001</ele>
        <time>2025-05-04T13:18:45Z</time>
      </trkpt>
      <trkpt lat="39.440252026543021" lon="-9.130013007670641">
        <ele>29.940000000000001</ele>
        <time>2025-05-04T13:18:47Z</time>
      </trkpt>
      <trkpt lat="39.440176002681255" lon="-9.130038991570473">
        <ele>30.420000000000002</ele>
        <time>2025-05-04T13:18:48Z</time>
      </trkpt>
      <trkpt lat="39.440091010183096" lon="-9.130019964650273">
        <ele>29.940000000000001</ele>
        <time>2025-05-04T13:18:49Z</time>
      </trkpt>
      <trkpt lat="39.440003000199795" lon="-9.129984006285667">
        <ele>30.420000000000002</ele>
        <time>2025-05-04T13:18:50Z</time>
      </trkpt>
      <trkpt lat="39.439944997429848" lon="-9.12990303710103">
        <ele>30.420000000000002</ele>
        <time>2025-05-04T13:18:51Z</time>
      </trkpt>
      <trkpt lat="39.439909961074591" lon="-9.129771022126079">
        <ele>30.899999999999999</ele>
        <time>2025-05-04T13:18:52Z</time>
      </trkpt>
      <trkpt lat="39.439922031015158" lon="-9.129641018807888">
        <ele>30.899999999999999</ele>
        <time>2025-05-04T13:18:53Z</time>
      </trkpt>
      <trkpt lat="39.439952960237861" lon="-9.129531970247626">
        <ele>30.899999999999999</ele>
        <time>2025-05-04T13:18:54Z</time>
      </trkpt>
      <trkpt lat="39.439952038228512" lon="-9.129532976076007">
        <ele>30.420000000000002</ele>
        <time>2025-05-04T13:18:55Z</time>
      </trkpt>
      <trkpt lat="39.440049016848207" lon="-9.129449995234609">
        <ele>30.420000000000002</ele>
        <time>2025-05-04T13:18:56Z</time>
      </trkpt>
      <trkpt lat="39.440111964941025" lon="-9.129341030493379">
        <ele>30.420000000000002</ele>
        <time>2025-05-04T13:18:57Z</time>
      </trkpt>
      <trkpt lat="39.440181031823158" lon="-9.129221001639962">
        <ele>30.420000000000002</ele>
        <time>2025-05-04T13:18:58Z</time>
      </trkpt>
      <trkpt lat="39.440274992957711" lon="-9.129058979451656">
        <ele>30.420000000000002</ele>
        <time>2025-05-04T13:18:59Z</time>
      </trkpt>
      <trkpt lat="39.440305000171065" lon="-9.128949008882046">
        <ele>30.899999999999999</ele>
        <time>2025-05-04T13:19:00Z</time>
      </trkpt>
      <trkpt lat="39.440545979887247" lon="-9.128166977316141">
        <ele>31.379999999999999</ele>
        <time>2025-05-04T13:19:04Z</time>
      </trkpt>
      <trkpt lat="39.440611023455858" lon="-9.128030017018318">
        <ele>31.379999999999999</ele>
        <time>2025-05-04T13:19:05Z</time>
      </trkpt>
      <trkpt lat="39.440675983205438" lon="-9.127893978729844">
        <ele>31.379999999999999</ele>
        <time>2025-05-04T13:19:06Z</time>
      </trkpt>
      <trkpt lat="39.440767010673881" lon="-9.127794988453388">
        <ele>31.379999999999999</ele>
        <time>2025-05-04T13:19:07Z</time>
      </trkpt>
      <trkpt lat="39.440864995121956" lon="-9.127694992348552">
        <ele>30.899999999999999</ele>
        <time>2025-05-04T13:19:08Z</time>
      </trkpt>
      <trkpt lat="39.440957028418779" lon="-9.127587033435702">
        <ele>30.899999999999999</ele>
        <time>2025-05-04T13:19:09Z</time>
      </trkpt>
      <trkpt lat="39.441510988399386" lon="-9.126925030723214">
        <ele>31.379999999999999</ele>
        <time>2025-05-04T13:19:16Z</time>
      </trkpt>
      <trkpt lat="39.441589023917913" lon="-9.126829979941249">
        <ele>31.379999999999999</ele>
        <time>2025-05-04T13:19:17Z</time>
      </trkpt>
      <trkpt lat="39.441652977839112" lon="-9.126720009371638">
        <ele>31.379999999999999</ele>
        <time>2025-05-04T13:19:18Z</time>
      </trkpt>
      <trkpt lat="39.441637974232435" lon="-9.126581037417054">
        <ele>31.859999999999999</ele>
        <time>2025-05-04T13:19:19Z</time>
      </trkpt>
      <trkpt lat="39.441645015031099" lon="-9.126452961936593">
        <ele>31.859999999999999</ele>
        <time>2025-05-04T13:19:20Z</time>
      </trkpt>
      <trkpt lat="39.441631017252803" lon="-9.12633896805346">
        <ele>32.340000000000003</ele>
        <time>2025-05-04T13:19:21Z</time>
      </trkpt>
      <trkpt lat="39.441590029746294" lon="-9.12623000331223">
        <ele>32.340000000000003</ele>
        <time>2025-05-04T13:19:22Z</time>
      </trkpt>
      <trkpt lat="39.441511994227767" lon="-9.126136964187026">
        <ele>32.82</ele>
        <time>2025-05-04T13:19:23Z</time>
      </trkpt>
      <trkpt lat="39.441432030871511" lon="-9.126040991395712">
        <ele>33.299999999999997</ele>
        <time>2025-05-04T13:19:24Z</time>
      </trkpt>
      <trkpt lat="39.441328011453152" lon="-9.125975025817752">
        <ele>33.780000000000001</ele>
        <time>2025-05-04T13:19:25Z</time>
      </trkpt>
      <trkpt lat="39.441076973453164" lon="-9.126001009717584">
        <ele>35.710000000000001</ele>
        <time>2025-05-04T13:19:27Z</time>
      </trkpt>
      <trkpt lat="39.440029989928007" lon="-9.126559998840094">
        <ele>42.439999999999998</ele>
        <time>2025-05-04T13:19:36Z</time>
      </trkpt>
      <trkpt lat="39.438965991139412" lon="-9.127449989318848">
        <ele>43.880000000000003</ele>
        <time>2025-05-04T13:19:44Z</time>
      </trkpt>
      <trkpt lat="39.43769596517086" lon="-9.128800984472036">
        <ele>42.439999999999998</ele>
        <time>2025-05-04T13:19:51Z</time>
      </trkpt>
      <trkpt lat="39.435667963698506" lon="-9.131227964535356">
        <ele>37.630000000000003</ele>
        <time>2025-05-04T13:20:01Z</time>
      </trkpt>
      <trkpt lat="39.433567961677909" lon="-9.133742032572627">
        <ele>30.899999999999999</ele>
        <time>2025-05-04T13:20:11Z</time>
      </trkpt>
      <trkpt lat="39.431196972727776" lon="-9.136461038142443">
        <ele>33.299999999999997</ele>
        <time>2025-05-04T13:20:22Z</time>
      </trkpt>
      <trkpt lat="39.428289039060473" lon="-9.139536023139954">
        <ele>36.670000000000002</ele>
        <time>2025-05-04T13:20:35Z</time>
      </trkpt>
      <trkpt lat="39.425587970763445" lon="-9.142316970974207">
        <ele>40.030000000000001</ele>
        <time>2025-05-04T13:20:47Z</time>
      </trkpt>
      <trkpt lat="39.423773037269711" lon="-9.144687037914991">
        <ele>41.950000000000003</ele>
        <time>2025-05-04T13:20:56Z</time>
      </trkpt>
      <trkpt lat="39.422149965539575" lon="-9.147766968235374">
        <ele>41.469999999999999</ele>
        <time>2025-05-04T13:21:05Z</time>
      </trkpt>
      <trkpt lat="39.420796036720276" lon="-9.150617988780141">
        <ele>38.590000000000003</ele>
        <time>2025-05-04T13:21:14Z</time>
      </trkpt>
      <trkpt lat="39.419593987986445" lon="-9.152213986963034">
        <ele>36.189999999999998</ele>
        <time>2025-05-04T13:21:20Z</time>
      </trkpt>
      <trkpt lat="39.418115001171827" lon="-9.153372030705214">
        <ele>32.340000000000003</ele>
        <time>2025-05-04T13:21:26Z</time>
      </trkpt>
      <trkpt lat="39.414776992052794" lon="-9.155591977760196">
        <ele>26.57</ele>
        <time>2025-05-04T13:21:40Z</time>
      </trkpt>
      <trkpt lat="39.413371011614799" lon="-9.155985005199909">
        <ele>27.050000000000001</ele>
        <time>2025-05-04T13:21:45Z</time>
      </trkpt>
      <trkpt lat="39.411652972921729" lon="-9.155853996053338">
        <ele>34.259999999999998</ele>
        <time>2025-05-04T13:21:51Z</time>
      </trkpt>
      <trkpt lat="39.409450041130185" lon="-9.154901979491115">
        <ele>34.740000000000002</ele>
        <time>2025-05-04T13:21:59Z</time>
      </trkpt>
      <trkpt lat="39.407771984115243" lon="-9.154478022828698">
        <ele>34.259999999999998</ele>
        <time>2025-05-04T13:22:05Z</time>
      </trkpt>
      <trkpt lat="39.405763009563088" lon="-9.154692012816668">
        <ele>35.710000000000001</ele>
        <time>2025-05-04T13:22:11Z</time>
      </trkpt>
      <trkpt lat="39.401484970003366" lon="-9.155640006065369">
        <ele>32.82</ele>
        <time>2025-05-04T13:22:27Z</time>
      </trkpt>
      <trkpt lat="39.399185981601477" lon="-9.155402965843678">
        <ele>33.780000000000001</ele>
        <time>2025-05-04T13:22:35Z</time>
      </trkpt>
      <trkpt lat="39.396717008203268" lon="-9.154378026723862">
        <ele>37.149999999999999</ele>
        <time>2025-05-04T13:22:44Z</time>
      </trkpt>
      <trkpt lat="39.394287010654807" lon="-9.153209002688527">
        <ele>40.990000000000002</ele>
        <time>2025-05-04T13:22:53Z</time>
      </trkpt>
      <trkpt lat="39.390501994639635" lon="-9.151359032839537">
        <ele>48.68</ele>
        <time>2025-05-04T13:23:07Z</time>
      </trkpt>
      <trkpt lat="39.387276973575354" lon="-9.149718023836613">
        <ele>56.369999999999997</ele>
        <time>2025-05-04T13:23:19Z</time>
      </trkpt>
      <trkpt lat="39.385307980701327" lon="-9.148132000118494">
        <ele>61.659999999999997</ele>
        <time>2025-05-04T13:23:27Z</time>
      </trkpt>
      <trkpt lat="39.383471002802253" lon="-9.145746007561684">
        <ele>62.619999999999997</ele>
        <time>2025-05-04T13:23:36Z</time>
      </trkpt>
      <trkpt lat="39.381731003522873" lon="-9.143119035288692">
        <ele>63.100000000000001</ele>
        <time>2025-05-04T13:23:44Z</time>
      </trkpt>
      <trkpt lat="39.379778020083904" lon="-9.140158966183662">
        <ele>60.700000000000003</ele>
        <time>2025-05-04T13:23:55Z</time>
      </trkpt>
      <trkpt lat="39.377432009205222" lon="-9.136632028967142">
        <ele>60.700000000000003</ele>
        <time>2025-05-04T13:24:07Z</time>
      </trkpt>
      <trkpt lat="39.376071961596608" lon="-9.135154969990253">
        <ele>65.030000000000001</ele>
        <time>2025-05-04T13:24:13Z</time>
      </trkpt>
      <trkpt lat="39.374400023370981" lon="-9.134323988109827">
        <ele>70.790000000000006</ele>
        <time>2025-05-04T13:24:19Z</time>
      </trkpt>
      <trkpt lat="39.372611995786428" lon="-9.134240001440048">
        <ele>76.079999999999998</ele>
        <time>2025-05-04T13:24:25Z</time>
      </trkpt>
      <trkpt lat="39.36963097192347" lon="-9.13497400470078">
        <ele>77.040000000000006</ele>
        <time>2025-05-04T13:24:35Z</time>
      </trkpt>
      <trkpt lat="39.366988996043801" lon="-9.13583398796618">
        <ele>72.239999999999995</ele>
        <time>2025-05-04T13:24:43Z</time>
      </trkpt>
      <trkpt lat="39.365167021751404" lon="-9.13716796785593">
        <ele>65.030000000000001</ele>
        <time>2025-05-04T13:24:50Z</time>
      </trkpt>
      <trkpt lat="39.363432973623276" lon="-9.139312980696559">
        <ele>54.93</ele>
        <time>2025-05-04T13:24:58Z</time>
      </trkpt>
      <trkpt lat="39.360836008563638" lon="-9.14255702868104">
        <ele>46.280000000000001</ele>
        <time>2025-05-04T13:25:10Z</time>
      </trkpt>
      <trkpt lat="39.357603024691343" lon="-9.14606099948287">
        <ele>51.090000000000003</ele>
        <time>2025-05-04T13:25:24Z</time>
      </trkpt>
      <trkpt lat="39.354883013293147" lon="-9.149098014459014">
        <ele>57.340000000000003</ele>
        <time>2025-05-04T13:25:36Z</time>
      </trkpt>
      <trkpt lat="39.352960959076881" lon="-9.152052970603108">
        <ele>69.349999999999994</ele>
        <time>2025-05-04T13:25:46Z</time>
      </trkpt>
      <trkpt lat="39.350823992863297" lon="-9.154800977557898">
        <ele>82.810000000000002</ele>
        <time>2025-05-04T13:25:56Z</time>
      </trkpt>
      <trkpt lat="39.348667999729514" lon="-9.157521994784474">
        <ele>93.390000000000001</ele>
        <time>2025-05-04T13:26:07Z</time>
      </trkpt>
      <trkpt lat="39.346342021599412" lon="-9.161124033853412">
        <ele>94.349999999999994</ele>
        <time>2025-05-04T13:26:19Z</time>
      </trkpt>
      <trkpt lat="39.34408301487565" lon="-9.165265029296279">
        <ele>81.370000000000005</ele>
        <time>2025-05-04T13:26:31Z</time>
      </trkpt>
      <trkpt lat="39.342179987579584" lon="-9.168774029240012">
        <ele>65.030000000000001</ele>
        <time>2025-05-04T13:26:42Z</time>
      </trkpt>
      <trkpt lat="39.340247036889195" lon="-9.172245981171727">
        <ele>46.280000000000001</ele>
        <time>2025-05-04T13:26:54Z</time>
      </trkpt>
      <trkpt lat="39.339159987866879" lon="-9.173549031838775">
        <ele>41.469999999999999</ele>
        <time>2025-05-04T13:26:59Z</time>
      </trkpt>
      <trkpt lat="39.337798012420535" lon="-9.174326034262776">
        <ele>40.990000000000002</ele>
        <time>2025-05-04T13:27:04Z</time>
      </trkpt>
      <trkpt lat="39.336017025634646" lon="-9.174497025087476">
        <ele>44.840000000000003</ele>
        <time>2025-05-04T13:27:10Z</time>
      </trkpt>
      <trkpt lat="39.332720004022121" lon="-9.174244981259108">
        <ele>53.490000000000002</ele>
        <time>2025-05-04T13:27:20Z</time>
      </trkpt>
      <trkpt lat="39.33033300563693" lon="-9.174804976209998">
        <ele>56.369999999999997</ele>
        <time>2025-05-04T13:27:29Z</time>
      </trkpt>
      <trkpt lat="39.327354999259114" lon="-9.17555901221931">
        <ele>47.240000000000002</ele>
        <time>2025-05-04T13:27:39Z</time>
      </trkpt>
      <trkpt lat="39.324410017579794" lon="-9.176301984116435">
        <ele>46.280000000000001</ele>
        <time>2025-05-04T13:27:49Z</time>
      </trkpt>
      <trkpt lat="39.322309009730816" lon="-9.17639602907002">
        <ele>49.649999999999999</ele>
        <time>2025-05-04T13:27:56Z</time>
      </trkpt>
      <trkpt lat="39.318742007017136" lon="-9.175681974738836">
        <ele>52.530000000000001</ele>
        <time>2025-05-04T13:28:08Z</time>
      </trkpt>
      <trkpt lat="39.316360037773848" lon="-9.175590025261045">
        <ele>54.93</ele>
        <time>2025-05-04T13:28:16Z</time>
      </trkpt>
      <trkpt lat="39.314113017171621" lon="-9.175651967525482">
        <ele>56.859999999999999</ele>
        <time>2025-05-04T13:28:24Z</time>
      </trkpt>
      <trkpt lat="39.312770990654826" lon="-9.175058025866747">
        <ele>56.859999999999999</ele>
        <time>2025-05-04T13:28:29Z</time>
      </trkpt>
      <trkpt lat="39.311614958569407" lon="-9.173844996839762">
        <ele>56.369999999999997</ele>
        <time>2025-05-04T13:28:34Z</time>
      </trkpt>
      <trkpt lat="39.309616964310408" lon="-9.171082992106676">
        <ele>53.490000000000002</ele>
        <time>2025-05-04T13:28:44Z</time>
      </trkpt>
      <trkpt lat="39.308212995529175" lon="-9.169811960309744">
        <ele>52.049999999999997</ele>
        <time>2025-05-04T13:28:50Z</time>
      </trkpt>
      <trkpt lat="39.306580033153296" lon="-9.169146018102765">
        <ele>49.649999999999999</ele>
        <time>2025-05-04T13:28:56Z</time>
      </trkpt>
      <trkpt lat="39.304654961451888" lon="-9.168503964319825">
        <ele>47.719999999999999</ele>
        <time>2025-05-04T13:29:03Z</time>
      </trkpt>
      <trkpt lat="39.303404968231916" lon="-9.167455974966288">
        <ele>45.32</ele>
        <time>2025-05-04T13:29:08Z</time>
      </trkpt>
      <trkpt lat="39.301473023369908" lon="-9.164978032931685">
        <ele>39.07</ele>
        <time>2025-05-04T13:29:17Z</time>
      </trkpt>
      <trkpt lat="39.299933016300201" lon="-9.16382996365428">
        <ele>39.07</ele>
        <time>2025-05-04T13:29:23Z</time>
      </trkpt>
      <trkpt lat="39.297554986551404" lon="-9.162175040692091">
        <ele>45.799999999999997</ele>
        <time>2025-05-04T13:29:32Z</time>
      </trkpt>
      <trkpt lat="39.295808030292392" lon="-9.160003960132599">
        <ele>47.240000000000002</ele>
        <time>2025-05-04T13:29:40Z</time>
      </trkpt>
      <trkpt lat="39.294239021837711" lon="-9.15821903385222">
        <ele>42.439999999999998</ele>
        <time>2025-05-04T13:29:47Z</time>
      </trkpt>
      <trkpt lat="39.292850978672504" lon="-9.157569017261267">
        <ele>39.07</ele>
        <time>2025-05-04T13:29:52Z</time>
      </trkpt>
      <trkpt lat="39.292259970679879" lon="-9.15746902115643">
        <ele>38.109999999999999</ele>
        <time>2025-05-04T13:29:54Z</time>
      </trkpt>
      <trkpt lat="39.29196098819375" lon="-9.157455023378134">
        <ele>37.630000000000003</ele>
        <time>2025-05-04T13:29:55Z</time>
      </trkpt>
      <trkpt lat="39.291666029021144" lon="-9.157476983964443">
        <ele>37.149999999999999</ele>
        <time>2025-05-04T13:29:56Z</time>
      </trkpt>
      <trkpt lat="39.291368974372745" lon="-9.157519983127713">
        <ele>37.149999999999999</ele>
        <time>2025-05-04T13:29:57Z</time>
      </trkpt>
      <trkpt lat="39.291078960523009" lon="-9.157606987282634">
        <ele>37.149999999999999</ele>
        <time>2025-05-04T13:29:58Z</time>
      </trkpt>
      <trkpt lat="39.28972402587533" lon="-9.158349959179759">
        <ele>39.07</ele>
        <time>2025-05-04T13:30:03Z</time>
      </trkpt>
      <trkpt lat="39.286333965137601" lon="-9.161213971674442">
        <ele>46.759999999999998</ele>
        <time>2025-05-04T13:30:17Z</time>
      </trkpt>
      <trkpt lat="39.282406959682703" lon="-9.164375038817525">
        <ele>39.07</ele>
        <time>2025-05-04T13:30:33Z</time>
      </trkpt>
      <trkpt lat="39.280383987352252" lon="-9.165774984285235">
        <ele>37.149999999999999</ele>
        <time>2025-05-04T13:30:41Z</time>
      </trkpt>
      <trkpt lat="39.276743978261948" lon="-9.166914001107216">
        <ele>37.630000000000003</ele>
        <time>2025-05-04T13:30:54Z</time>
      </trkpt>
      <trkpt lat="39.274188000708818" lon="-9.167430996894836">
        <ele>41.469999999999999</ele>
        <time>2025-05-04T13:31:03Z</time>
      </trkpt>
      <trkpt lat="39.271895969286561" lon="-9.167150035500526">
        <ele>50.609999999999999</ele>
        <time>2025-05-04T13:31:11Z</time>
      </trkpt>
      <trkpt lat="39.267972987145185" lon="-9.166241018101573">
        <ele>67.430000000000007</ele>
        <time>2025-05-04T13:31:25Z</time>
      </trkpt>
      <trkpt lat="39.265537038445473" lon="-9.165714969858527">
        <ele>73.200000000000003</ele>
        <time>2025-05-04T13:31:35Z</time>
      </trkpt>
      <trkpt lat="39.26271996460855" lon="-9.165372988209128">
        <ele>72.239999999999995</ele>
        <time>2025-05-04T13:31:48Z</time>
      </trkpt>
      <trkpt lat="39.260015962645411" lon="-9.165134020149708">
        <ele>69.829999999999998</ele>
        <time>2025-05-04T13:32:00Z</time>
      </trkpt>
      <trkpt lat="39.259699964895844" lon="-9.165106024593115">
        <ele>69.349999999999994</ele>
        <time>2025-05-04T13:32:03Z</time>
      </trkpt>
      <trkpt lat="39.259566022083163" lon="-9.165220018476248">
        <ele>68.870000000000005</ele>
        <time>2025-05-04T13:32:04Z</time>
      </trkpt>
      <trkpt lat="39.259442975744605" lon="-9.165277015417814">
        <ele>68.870000000000005</ele>
        <time>2025-05-04T13:32:05Z</time>
      </trkpt>
      <trkpt lat="39.259329987689853" lon="-9.165339041501284">
        <ele>68.390000000000001</ele>
        <time>2025-05-04T13:32:06Z</time>
      </trkpt>
      <trkpt lat="39.2592360265553" lon="-9.165454041212797">
        <ele>67.909999999999997</ele>
        <time>2025-05-04T13:32:07Z</time>
      </trkpt>
      <trkpt lat="39.259141981601715" lon="-9.165569040924311">
        <ele>67.430000000000007</ele>
        <time>2025-05-04T13:32:08Z</time>
      </trkpt>
      <trkpt lat="39.258962022140622" lon="-9.165788982063532">
        <ele>66.950000000000003</ele>
        <time>2025-05-04T13:32:10Z</time>
      </trkpt>
      <trkpt lat="39.258862026035786" lon="-9.165873974561691">
        <ele>66.469999999999999</ele>
        <time>2025-05-04T13:32:11Z</time>
      </trkpt>
      <trkpt lat="39.258762029930949" lon="-9.16595402173698">
        <ele>65.989999999999995</ele>
        <time>2025-05-04T13:32:12Z</time>
      </trkpt>
      <trkpt lat="39.258663039654493" lon="-9.166030967608094">
        <ele>65.510000000000005</ele>
        <time>2025-05-04T13:32:13Z</time>
      </trkpt>
      <trkpt lat="39.258561031892896" lon="-9.166076984256506">
        <ele>65.030000000000001</ele>
        <time>2025-05-04T13:32:14Z</time>
      </trkpt>
      <trkpt lat="39.258455000817776" lon="-9.166112020611763">
        <ele>64.549999999999997</ele>
        <time>2025-05-04T13:32:15Z</time>
      </trkpt>
      <trkpt lat="39.2583570163697" lon="-9.166142027825117">
        <ele>64.069999999999993</ele>
        <time>2025-05-04T13:32:16Z</time>
      </trkpt>
      <trkpt lat="39.258274035528302" lon="-9.166242023929954">
        <ele>63.579999999999998</ele>
        <time>2025-05-04T13:32:17Z</time>
      </trkpt>
      <trkpt lat="39.25820698030293" lon="-9.166308995336294">
        <ele>63.100000000000001</ele>
        <time>2025-05-04T13:32:18Z</time>
      </trkpt>
      <trkpt lat="39.258180996403098" lon="-9.166403962299228">
        <ele>63.100000000000001</ele>
        <time>2025-05-04T13:32:19Z</time>
      </trkpt>
      <trkpt lat="39.258159035816789" lon="-9.166488032788038">
        <ele>63.100000000000001</ele>
        <time>2025-05-04T13:32:20Z</time>
      </trkpt>
      <trkpt lat="39.25812098197639" lon="-9.166632033884525">
        <ele>63.100000000000001</ele>
        <time>2025-05-04T13:32:21Z</time>
      </trkpt>
      <trkpt lat="39.258128022775054" lon="-9.166716020554304">
        <ele>63.100000000000001</ele>
        <time>2025-05-04T13:32:22Z</time>
      </trkpt>
      <trkpt lat="39.258139003068209" lon="-9.166832026094198">
        <ele>63.579999999999998</ele>
        <time>2025-05-04T13:32:23Z</time>
      </trkpt>
      <trkpt lat="39.258159035816789" lon="-9.167018020525575">
        <ele>64.549999999999997</ele>
        <time>2025-05-04T13:32:25Z</time>
      </trkpt>
      <trkpt lat="39.258166998624802" lon="-9.167089015245438">
        <ele>65.510000000000005</ele>
        <time>2025-05-04T13:32:26Z</time>
      </trkpt>
      <trkpt lat="39.258334971964359" lon="-9.167208960279822">
        <ele>65.989999999999995</ele>
        <time>2025-05-04T13:32:27Z</time>
      </trkpt>
      <trkpt lat="39.258390041068196" lon="-9.167193034663796">
        <ele>66.469999999999999</ele>
        <time>2025-05-04T13:32:28Z</time>
      </trkpt>
      <trkpt lat="39.258455000817776" lon="-9.167134026065469">
        <ele>66.950000000000003</ele>
        <time>2025-05-04T13:32:29Z</time>
      </trkpt>
      <trkpt lat="39.258513003587723" lon="-9.167076023295522">
        <ele>67.430000000000007</ele>
        <time>2025-05-04T13:32:30Z</time>
      </trkpt>
      <trkpt lat="39.258575029671192" lon="-9.166992958635092">
        <ele>67.430000000000007</ele>
        <time>2025-05-04T13:32:31Z</time>
      </trkpt>
      <trkpt lat="39.258635966107249" lon="-9.166886005550623">
        <ele>67.909999999999997</ele>
        <time>2025-05-04T13:32:32Z</time>
      </trkpt>
      <trkpt lat="39.258703021332622" lon="-9.166765976697207">
        <ele>68.390000000000001</ele>
        <time>2025-05-04T13:32:33Z</time>
      </trkpt>
      <trkpt lat="39.259105017408729" lon="-9.166047982871532">
        <ele>70.310000000000002</ele>
        <time>2025-05-04T13:32:38Z</time>
      </trkpt>
      <trkpt lat="39.259200990200043" lon="-9.16591102257371">
        <ele>70.310000000000002</ele>
        <time>2025-05-04T13:32:39Z</time>
      </trkpt>
      <trkpt lat="39.259310038760304" lon="-9.165790993720293">
        <ele>70.310000000000002</ele>
        <time>2025-05-04T13:32:40Z</time>
      </trkpt>
      <trkpt lat="39.25943199545145" lon="-9.165692003443837">
        <ele>70.790000000000006</ele>
        <time>2025-05-04T13:32:41Z</time>
      </trkpt>
      <trkpt lat="39.25955998711288" lon="-9.165616985410452">
        <ele>70.790000000000006</ele>
        <time>2025-05-04T13:32:42Z</time>
      </trkpt>
      <trkpt lat="39.25968999043107" lon="-9.165569040924311">
        <ele>70.310000000000002</ele>
        <time>2025-05-04T13:32:43Z</time>
      </trkpt>
      <trkpt lat="39.259828040376306" lon="-9.165545990690589">
        <ele>69.829999999999998</ele>
        <time>2025-05-04T13:32:44Z</time>
      </trkpt>
      <trkpt lat="39.259969023987651" lon="-9.165543979033828">
        <ele>69.829999999999998</ele>
        <time>2025-05-04T13:32:45Z</time>
      </trkpt>
      <trkpt lat="39.260116964578629" lon="-9.165554037317634">
        <ele>68.870000000000005</ele>
        <time>2025-05-04T13:32:46Z</time>
      </trkpt>
      <trkpt lat="39.261079961434007" lon="-9.165727039799094">
        <ele>65.510000000000005</ele>
        <time>2025-05-04T13:32:52Z</time>
      </trkpt>
      <trkpt lat="39.262295002117753" lon="-9.16595402173698">
        <ele>63.100000000000001</ele>
        <time>2025-05-04T13:33:01Z</time>
      </trkpt>
      <trkpt lat="39.262422993779182" lon="-9.16597799398005">
        <ele>62.619999999999997</ele>
        <time>2025-05-04T13:33:02Z</time>
      </trkpt>
      <trkpt lat="39.262546040117741" lon="-9.165969025343657">
        <ele>62.619999999999997</ele>
        <time>2025-05-04T13:33:03Z</time>
      </trkpt>
      <trkpt lat="39.262663973495364" lon="-9.165937006473541">
        <ele>62.140000000000001</ele>
        <time>2025-05-04T13:33:04Z</time>
      </trkpt>
      <trkpt lat="39.262766987085342" lon="-9.165876992046833">
        <ele>62.140000000000001</ele>
        <time>2025-05-04T13:33:05Z</time>
      </trkpt>
      <trkpt lat="39.262953987345099" lon="-9.16571999900043">
        <ele>61.659999999999997</ele>
        <time>2025-05-04T13:33:06Z</time>
      </trkpt>
      <trkpt lat="39.263029005378485" lon="-9.165618997067213">
        <ele>61.659999999999997</ele>
        <time>2025-05-04T13:33:07Z</time>
      </trkpt>
      <trkpt lat="39.263093965128064" lon="-9.165497962385416">
        <ele>61.659999999999997</ele>
        <time>2025-05-04T13:33:08Z</time>
      </trkpt>
      <trkpt lat="39.263093965128064" lon="-9.165497962385416">
        <ele>61.18</ele>
        <time>2025-05-04T13:33:09Z</time>
      </trkpt>
      <trkpt lat="39.263203013688326" lon="-9.165186993777752">
        <ele>60.700000000000003</ele>
        <time>2025-05-04T13:33:10Z</time>
      </trkpt>
      <trkpt lat="39.26323302090168" lon="-9.165017008781433">
        <ele>60.700000000000003</ele>
        <time>2025-05-04T13:33:11Z</time>
      </trkpt>
      <trkpt lat="39.263415997847915" lon="-9.163739020004869">
        <ele>60.700000000000003</ele>
        <time>2025-05-04T13:33:21Z</time>
      </trkpt>
      <trkpt lat="39.263578020036221" lon="-9.162857998162508">
        <ele>57.82</ele>
        <time>2025-05-04T13:33:27Z</time>
      </trkpt>
      <trkpt lat="39.263619007542729" lon="-9.162633027881384">
        <ele>56.859999999999999</ele>
        <time>2025-05-04T13:33:29Z</time>
      </trkpt>
      <trkpt lat="39.263630993664265" lon="-9.162567984312773">
        <ele>56.369999999999997</ele>
        <time>2025-05-04T13:33:30Z</time>
      </trkpt>
      <trkpt lat="39.263650020584464" lon="-9.162272019311786">
        <ele>54.450000000000003</ele>
        <time>2025-05-04T13:33:36Z</time>
      </trkpt>
      <trkpt lat="39.263651026412845" lon="-9.162273025140166">
        <ele>53.969999999999999</ele>
        <time>2025-05-04T13:33:37Z</time>
      </trkpt>
      <trkpt lat="39.26362001337111" lon="-9.162221979349852">
        <ele>53.490000000000002</ele>
        <time>2025-05-04T13:33:38Z</time>
      </trkpt>
      <trkpt lat="39.263613978400826" lon="-9.162212004885078">
        <ele>53.009999999999998</ele>
        <time>2025-05-04T13:33:39Z</time>
      </trkpt>
      <trkpt lat="39.263535020872951" lon="-9.162159031257033">
        <ele>52.530000000000001</ele>
        <time>2025-05-04T13:33:40Z</time>
      </trkpt>
      <trkpt lat="39.263481041416526" lon="-9.162122989073396">
        <ele>52.530000000000001</ele>
        <time>2025-05-04T13:33:41Z</time>
      </trkpt>
      <trkpt lat="39.263414992019534" lon="-9.162080995738506">
        <ele>52.049999999999997</ele>
        <time>2025-05-04T13:33:42Z</time>
      </trkpt>
      <trkpt lat="39.262976031750441" lon="-9.16182903572917">
        <ele>49.649999999999999</ele>
        <time>2025-05-04T13:33:47Z</time>
      </trkpt>
      <trkpt lat="39.262877041473985" lon="-9.161778995767236">
        <ele>49.159999999999997</ele>
        <time>2025-05-04T13:33:48Z</time>
      </trkpt>
      <trkpt lat="39.262781990692019" lon="-9.161724010482431">
        <ele>48.68</ele>
        <time>2025-05-04T13:33:49Z</time>
      </trkpt>
      <trkpt lat="39.262693980708718" lon="-9.161634994670749">
        <ele>48.200000000000003</ele>
        <time>2025-05-04T13:33:50Z</time>
      </trkpt>
      <trkpt lat="39.262607982382178" lon="-9.161541033536196">
        <ele>47.719999999999999</ele>
        <time>2025-05-04T13:33:51Z</time>
      </trkpt>
      <trkpt lat="39.262526007369161" lon="-9.161440031602979">
        <ele>47.240000000000002</ele>
        <time>2025-05-04T13:33:52Z</time>
      </trkpt>
      <trkpt lat="39.262446966022253" lon="-9.161331988871098">
        <ele>46.280000000000001</ele>
        <time>2025-05-04T13:33:53Z</time>
      </trkpt>
      <trkpt lat="39.262392986565828" lon="-9.161197962239385">
        <ele>45.799999999999997</ele>
        <time>2025-05-04T13:33:54Z</time>
      </trkpt>
      <trkpt lat="39.262344036251307" lon="-9.161076005548239">
        <ele>45.32</ele>
        <time>2025-05-04T13:33:55Z</time>
      </trkpt>
      <trkpt lat="39.262089980766177" lon="-9.159721992909908">
        <ele>36.670000000000002</ele>
        <time>2025-05-04T13:34:05Z</time>
      </trkpt>
      <trkpt lat="39.261964000761509" lon="-9.159030988812447">
        <ele>34.259999999999998</ele>
        <time>2025-05-04T13:34:10Z</time>
      </trkpt>
      <trkpt lat="39.261943968012929" lon="-9.158920012414455">
        <ele>33.780000000000001</ele>
        <time>2025-05-04T13:34:11Z</time>
      </trkpt>
      <trkpt lat="39.261929970234632" lon="-9.158841976895928">
        <ele>33.780000000000001</ele>
        <time>2025-05-04T13:34:12Z</time>
      </trkpt>
      <trkpt lat="39.261789992451668" lon="-9.158756984397769">
        <ele>32.82</ele>
        <time>2025-05-04T13:34:19Z</time>
      </trkpt>
      <trkpt lat="39.261789992451668" lon="-9.158756984397769">
        <ele>32.340000000000003</ele>
        <time>2025-05-04T13:34:20Z</time>
      </trkpt>
      <trkpt lat="39.261757973581553" lon="-9.158704010769725">
        <ele>31.859999999999999</ele>
        <time>2025-05-04T13:34:21Z</time>
      </trkpt>
      <trkpt lat="39.261725032702088" lon="-9.1586500313133">
        <ele>31.859999999999999</ele>
        <time>2025-05-04T13:34:22Z</time>
      </trkpt>
      <trkpt lat="39.261725032702088" lon="-9.1585239674896">
        <ele>31.379999999999999</ele>
        <time>2025-05-04T13:34:23Z</time>
      </trkpt>
      <trkpt lat="39.261758979409933" lon="-9.15843796916306">
        <ele>30.899999999999999</ele>
        <time>2025-05-04T13:34:24Z</time>
      </trkpt>
      <trkpt lat="39.261812958866358" lon="-9.158373009413481">
        <ele>30.899999999999999</ele>
        <time>2025-05-04T13:34:25Z</time>
      </trkpt>
      <trkpt lat="39.261888982728124" lon="-9.158363034948707">
        <ele>30.899999999999999</ele>
        <time>2025-05-04T13:34:26Z</time>
      </trkpt>
      <trkpt lat="39.262048993259668" lon="-9.158325986936688">
        <ele>30.899999999999999</ele>
        <time>2025-05-04T13:34:28Z</time>
      </trkpt>
      <trkpt lat="39.262098027393222" lon="-9.158251974731684">
        <ele>30.420000000000002</ele>
        <time>2025-05-04T13:34:29Z</time>
      </trkpt>
      <trkpt lat="39.262132979929447" lon="-9.15819900110364">
        <ele>30.420000000000002</ele>
        <time>2025-05-04T13:34:30Z</time>
      </trkpt>
      <trkpt lat="39.262161981314421" lon="-9.158074026927352">
        <ele>30.420000000000002</ele>
        <time>2025-05-04T13:34:31Z</time>
      </trkpt>
      <trkpt lat="39.262187965214252" lon="-9.1579610388726">
        <ele>29.940000000000001</ele>
        <time>2025-05-04T13:34:32Z</time>
      </trkpt>
      <trkpt lat="39.262207997962832" lon="-9.157842015847564">
        <ele>29.940000000000001</ele>
        <time>2025-05-04T13:34:33Z</time>
      </trkpt>
      <trkpt lat="39.262292990460992" lon="-9.157229969277978">
        <ele>28.98</ele>
        <time>2025-05-04T13:34:38Z</time>
      </trkpt>
      <trkpt lat="39.262304976582527" lon="-9.15714799426496">
        <ele>28.5</ele>
        <time>2025-05-04T13:34:39Z</time>
      </trkpt>
      <trkpt lat="39.26228896714747" lon="-9.157037017866969">
        <ele>28.5</ele>
        <time>2025-05-04T13:34:40Z</time>
      </trkpt>
      <trkpt lat="39.262277986854315" lon="-9.156959988176823">
        <ele>28.5</ele>
        <time>2025-05-04T13:34:41Z</time>
      </trkpt>
      <trkpt lat="39.262256026268005" lon="-9.156844988465309">
        <ele>28.02</ele>
        <time>2025-05-04T13:34:42Z</time>
      </trkpt>
      <trkpt lat="39.26220296882093" lon="-9.156823027879">
        <ele>28.02</ele>
        <time>2025-05-04T13:34:43Z</time>
      </trkpt>
      <trkpt lat="39.262113030999899" lon="-9.156816992908716">
        <ele>27.530000000000001</ele>
        <time>2025-05-04T13:34:44Z</time>
      </trkpt>
      <trkpt lat="39.262040024623275" lon="-9.156839037314057">
        <ele>27.530000000000001</ele>
        <time>2025-05-04T13:34:45Z</time>
      </trkpt>
      <trkpt lat="39.261688990518451" lon="-9.156948002055287">
        <ele>28.02</ele>
        <time>2025-05-04T13:34:49Z</time>
      </trkpt>
      <trkpt lat="39.261592011898756" lon="-9.156978009268642">
        <ele>28.5</ele>
        <time>2025-05-04T13:34:50Z</time>
      </trkpt>
      <trkpt lat="39.260559026151896" lon="-9.157241033390164">
        <ele>29.460000000000001</ele>
        <time>2025-05-04T13:34:59Z</time>
      </trkpt>
      <trkpt lat="39.25988101400435" lon="-9.15731898508966">
        <ele>30.420000000000002</ele>
        <time>2025-05-04T13:35:05Z</time>
      </trkpt>
      <trkpt lat="39.2593879904598" lon="-9.15721002034843">
        <ele>30.899999999999999</ele>
        <time>2025-05-04T13:35:09Z</time>
      </trkpt>
      <trkpt lat="39.258721964433789" lon="-9.156906008720398">
        <ele>33.780000000000001</ele>
        <time>2025-05-04T13:35:16Z</time>
      </trkpt>
      <trkpt lat="39.25867703743279" lon="-9.156885975971818">
        <ele>34.259999999999998</ele>
        <time>2025-05-04T13:35:17Z</time>
      </trkpt>
      <trkpt lat="39.258633032441139" lon="-9.15686602704227">
        <ele>34.259999999999998</ele>
        <time>2025-05-04T13:35:18Z</time>
      </trkpt>
      <trkpt lat="39.258583998307586" lon="-9.15684599429369">
        <ele>34.740000000000002</ele>
        <time>2025-05-04T13:35:19Z</time>
      </trkpt>
      <trkpt lat="39.258515015244484" lon="-9.156839037314057">
        <ele>34.740000000000002</ele>
        <time>2025-05-04T13:35:20Z</time>
      </trkpt>
      <trkpt lat="39.25839900970459" lon="-9.15682596154511">
        <ele>34.740000000000002</ele>
        <time>2025-05-04T13:35:21Z</time>
      </trkpt>
      <trkpt lat="39.258331032469869" lon="-9.156848005950451">
        <ele>35.229999999999997</ele>
        <time>2025-05-04T13:35:22Z</time>
      </trkpt>
      <trkpt lat="39.258205974474549" lon="-9.15688999928534">
        <ele>35.229999999999997</ele>
        <time>2025-05-04T13:35:23Z</time>
      </trkpt>
      <trkpt lat="39.257413968443871" lon="-9.157617967575789">
        <ele>36.189999999999998</ele>
        <time>2025-05-04T13:35:32Z</time>
      </trkpt>
      <trkpt lat="39.257329981774092" lon="-9.157702038064599">
        <ele>36.670000000000002</ele>
        <time>2025-05-04T13:35:33Z</time>
      </trkpt>
      <trkpt lat="39.25724096596241" lon="-9.157760040834546">
        <ele>36.670000000000002</ele>
        <time>2025-05-04T13:35:34Z</time>
      </trkpt>
      <trkpt lat="39.257137030363083" lon="-9.157789964228869">
        <ele>37.149999999999999</ele>
        <time>2025-05-04T13:35:35Z</time>
      </trkpt>
      <trkpt lat="39.257034016773105" lon="-9.157819971442223">
        <ele>37.630000000000003</ele>
        <time>2025-05-04T13:35:36Z</time>
      </trkpt>
      <trkpt lat="39.256936032325029" lon="-9.15783598087728">
        <ele>38.109999999999999</ele>
        <time>2025-05-04T13:35:37Z</time>
      </trkpt>
      <trkpt lat="39.256834024563432" lon="-9.157838998362422">
        <ele>38.109999999999999</ele>
        <time>2025-05-04T13:35:38Z</time>
      </trkpt>
      <trkpt lat="39.256029026582837" lon="-9.157862970605493">
        <ele>40.509999999999998</ele>
        <time>2025-05-04T13:35:47Z</time>
      </trkpt>
      <trkpt lat="39.255283959209919" lon="-9.157900018617511">
        <ele>39.07</ele>
        <time>2025-05-04T13:35:53Z</time>
      </trkpt>
      <trkpt lat="39.254266982898116" lon="-9.158304026350379">
        <ele>36.189999999999998</ele>
        <time>2025-05-04T13:36:02Z</time>
      </trkpt>
      <trkpt lat="39.253020007163286" lon="-9.15940398350358">
        <ele>36.189999999999998</ele>
        <time>2025-05-04T13:36:12Z</time>
      </trkpt>
      <trkpt lat="39.252569982782006" lon="-9.159739008173347">
        <ele>36.189999999999998</ele>
        <time>2025-05-04T13:36:15Z</time>
      </trkpt>
      <trkpt lat="39.252412989735603" lon="-9.159844033420086">
        <ele>35.710000000000001</ele>
        <time>2025-05-04T13:36:16Z</time>
      </trkpt>
      <trkpt lat="39.252244010567665" lon="-9.159903964027762">
        <ele>35.710000000000001</ele>
        <time>2025-05-04T13:36:17Z</time>
      </trkpt>
      <trkpt lat="39.252062039449811" lon="-9.159931959584355">
        <ele>36.189999999999998</ele>
        <time>2025-05-04T13:36:18Z</time>
      </trkpt>
      <trkpt lat="39.251871015876532" lon="-9.159903964027762">
        <ele>36.189999999999998</ele>
        <time>2025-05-04T13:36:19Z</time>
      </trkpt>
      <trkpt lat="39.251678986474872" lon="-9.159856019541621">
        <ele>37.149999999999999</ele>
        <time>2025-05-04T13:36:20Z</time>
      </trkpt>
      <trkpt lat="39.251305991783738" lon="-9.159761974588037">
        <ele>38.109999999999999</ele>
        <time>2025-05-04T13:36:22Z</time>
      </trkpt>
      <trkpt lat="39.251132989302278" lon="-9.159726016223431">
        <ele>38.590000000000003</ele>
        <time>2025-05-04T13:36:23Z</time>
      </trkpt>
      <trkpt lat="39.250970967113972" lon="-9.159763986244798">
        <ele>38.590000000000003</ele>
        <time>2025-05-04T13:36:24Z</time>
      </trkpt>
      <trkpt lat="39.250807017087936" lon="-9.159802040085197">
        <ele>39.07</ele>
        <time>2025-05-04T13:36:25Z</time>
      </trkpt>
      <trkpt lat="39.250657986849546" lon="-9.159906981512904">
        <ele>39.07</ele>
        <time>2025-05-04T13:36:26Z</time>
      </trkpt>
      <trkpt lat="39.250511974096298" lon="-9.160020975396037">
        <ele>39.549999999999997</ele>
        <time>2025-05-04T13:36:27Z</time>
      </trkpt>
      <trkpt lat="39.250078964978456" lon="-9.160376032814384">
        <ele>40.509999999999998</ele>
        <time>2025-05-04T13:36:30Z</time>
      </trkpt>
      <trkpt lat="39.249934963881969" lon="-9.160495977848768">
        <ele>40.990000000000002</ele>
        <time>2025-05-04T13:36:31Z</time>
      </trkpt>
      <trkpt lat="39.249771013855934" lon="-9.160583987832069">
        <ele>40.990000000000002</ele>
        <time>2025-05-04T13:36:32Z</time>
      </trkpt>
      <trkpt lat="39.249418973922729" lon="-9.160681972280145">
        <ele>41.469999999999999</ele>
        <time>2025-05-04T13:36:34Z</time>
      </trkpt>
      <trkpt lat="39.249251000583172" lon="-9.160742992535234">
        <ele>41.469999999999999</ele>
        <time>2025-05-04T13:36:35Z</time>
      </trkpt>
      <trkpt lat="39.249085960909724" lon="-9.160822033882141">
        <ele>41.469999999999999</ele>
        <time>2025-05-04T13:36:36Z</time>
      </trkpt>
      <trkpt lat="39.248912036418915" lon="-9.160905014723539">
        <ele>41.469999999999999</ele>
        <time>2025-05-04T13:36:37Z</time>
      </trkpt>
      <trkpt lat="39.248766023665667" lon="-9.161052033305168">
        <ele>41.469999999999999</ele>
        <time>2025-05-04T13:36:38Z</time>
      </trkpt>
      <trkpt lat="39.248627973720431" lon="-9.161221012473106">
        <ele>41.950000000000003</ele>
        <time>2025-05-04T13:36:39Z</time>
      </trkpt>
      <trkpt lat="39.248377019539475" lon="-9.161583026871085">
        <ele>42.439999999999998</ele>
        <time>2025-05-04T13:36:41Z</time>
      </trkpt>
      <trkpt lat="39.248255984857678" lon="-9.161757035180926">
        <ele>42.439999999999998</ele>
        <time>2025-05-04T13:36:42Z</time>
      </trkpt>
      <trkpt lat="39.248127993196249" lon="-9.161914028227329">
        <ele>42.439999999999998</ele>
        <time>2025-05-04T13:36:43Z</time>
      </trkpt>
      <trkpt lat="39.247969994321465" lon="-9.162022992968559">
        <ele>42.439999999999998</ele>
        <time>2025-05-04T13:36:44Z</time>
      </trkpt>
      <trkpt lat="39.24780897796154" lon="-9.162132041528821">
        <ele>42.439999999999998</ele>
        <time>2025-05-04T13:36:45Z</time>
      </trkpt>
      <trkpt lat="39.245619038119912" lon="-9.163441965356469">
        <ele>41.469999999999999</ele>
        <time>2025-05-04T13:36:57Z</time>
      </trkpt>
      <trkpt lat="39.245431032031775" lon="-9.163555037230253">
        <ele>41.469999999999999</ele>
        <time>2025-05-04T13:36:58Z</time>
      </trkpt>
      <trkpt lat="39.245257023721933" lon="-9.163694009184837">
        <ele>41.469999999999999</ele>
        <time>2025-05-04T13:36:59Z</time>
      </trkpt>
      <trkpt lat="39.244524026289582" lon="-9.16458098217845">
        <ele>43.880000000000003</ele>
        <time>2025-05-04T13:37:04Z</time>
      </trkpt>
      <trkpt lat="39.244371978566051" lon="-9.164724983274937">
        <ele>44.359999999999999</ele>
        <time>2025-05-04T13:37:05Z</time>
      </trkpt>
      <trkpt lat="39.244237029924989" lon="-9.164850963279605">
        <ele>44.359999999999999</ele>
        <time>2025-05-04T13:37:06Z</time>
      </trkpt>
      <trkpt lat="39.244056986644864" lon="-9.164918018504977">
        <ele>44.840000000000003</ele>
        <time>2025-05-04T13:37:07Z</time>
      </trkpt>
      <trkpt lat="39.243883984163404" lon="-9.164983984082937">
        <ele>44.840000000000003</ele>
        <time>2025-05-04T13:37:08Z</time>
      </trkpt>
      <trkpt lat="39.243519036099315" lon="-9.165120022371411">
        <ele>45.32</ele>
        <time>2025-05-04T13:37:10Z</time>
      </trkpt>
      <trkpt lat="39.242574982345104" lon="-9.165473990142345">
        <ele>45.799999999999997</ele>
        <time>2025-05-04T13:37:15Z</time>
      </trkpt>
      <trkpt lat="39.242395022884011" lon="-9.165541967377067">
        <ele>45.799999999999997</ele>
        <time>2025-05-04T13:37:16Z</time>
      </trkpt>
      <trkpt lat="39.24123102799058" lon="-9.166484009474516">
        <ele>48.68</ele>
        <time>2025-05-04T13:37:23Z</time>
      </trkpt>
      <trkpt lat="39.241051990538836" lon="-9.166576964780688">
        <ele>49.159999999999997</ele>
        <time>2025-05-04T13:37:24Z</time>
      </trkpt>
      <trkpt lat="39.240875970572233" lon="-9.166670003905892">
        <ele>49.159999999999997</ele>
        <time>2025-05-04T13:37:25Z</time>
      </trkpt>
      <trkpt lat="39.240690981969237" lon="-9.166706968098879">
        <ele>49.159999999999997</ele>
        <time>2025-05-04T13:37:26Z</time>
      </trkpt>
      <trkpt lat="39.240504987537861" lon="-9.166696993634105">
        <ele>49.649999999999999</ele>
        <time>2025-05-04T13:37:27Z</time>
      </trkpt>
      <trkpt lat="39.240321004763246" lon="-9.166634967550635">
        <ele>49.649999999999999</ele>
        <time>2025-05-04T13:37:28Z</time>
      </trkpt>
      <trkpt lat="39.240134004503489" lon="-9.166573025286198">
        <ele>49.649999999999999</ele>
        <time>2025-05-04T13:37:29Z</time>
      </trkpt>
      <trkpt lat="39.239950021728873" lon="-9.166490966454148">
        <ele>49.649999999999999</ele>
        <time>2025-05-04T13:37:30Z</time>
      </trkpt>
      <trkpt lat="39.239573003724217" lon="-9.166289968416095">
        <ele>50.130000000000003</ele>
        <time>2025-05-04T13:37:32Z</time>
      </trkpt>
      <trkpt lat="39.239387009292841" lon="-9.166199024766684">
        <ele>50.130000000000003</ele>
        <time>2025-05-04T13:37:33Z</time>
      </trkpt>
      <trkpt lat="39.239201014861465" lon="-9.166168011724949">
        <ele>49.649999999999999</ele>
        <time>2025-05-04T13:37:34Z</time>
      </trkpt>
      <trkpt lat="39.239027006551623" lon="-9.166214028373361">
        <ele>49.649999999999999</ele>
        <time>2025-05-04T13:37:35Z</time>
      </trkpt>
      <trkpt lat="39.238862972706556" lon="-9.166286028921604">
        <ele>49.649999999999999</ele>
        <time>2025-05-04T13:37:36Z</time>
      </trkpt>
      <trkpt lat="39.238716959953308" lon="-9.166392982006073">
        <ele>49.649999999999999</ele>
        <time>2025-05-04T13:37:37Z</time>
      </trkpt>
      <trkpt lat="39.23856901936233" lon="-9.166526002809405">
        <ele>49.649999999999999</ele>
        <time>2025-05-04T13:37:38Z</time>
      </trkpt>
      <trkpt lat="39.23841998912394" lon="-9.166662041097879">
        <ele>50.130000000000003</ele>
        <time>2025-05-04T13:37:39Z</time>
      </trkpt>
      <trkpt lat="39.238256039097905" lon="-9.166764970868826">
        <ele>50.130000000000003</ele>
        <time>2025-05-04T13:37:40Z</time>
      </trkpt>
      <trkpt lat="39.238085970282555" lon="-9.166846023872495">
        <ele>50.609999999999999</ele>
        <time>2025-05-04T13:37:41Z</time>
      </trkpt>
      <trkpt lat="39.237913973629475" lon="-9.166895980015397">
        <ele>50.609999999999999</ele>
        <time>2025-05-04T13:37:42Z</time>
      </trkpt>
      <trkpt lat="39.237733008340001" lon="-9.166909977793694">
        <ele>50.609999999999999</ele>
        <time>2025-05-04T13:37:43Z</time>
      </trkpt>
      <trkpt lat="39.237550031393766" lon="-9.166875025257468">
        <ele>51.090000000000003</ele>
        <time>2025-05-04T13:37:44Z</time>
      </trkpt>
      <trkpt lat="39.236784009262919" lon="-9.166740998625755">
        <ele>51.57</ele>
        <time>2025-05-04T13:37:48Z</time>
      </trkpt>
      <trkpt lat="39.236588962376118" lon="-9.166749967262149">
        <ele>51.57</ele>
        <time>2025-05-04T13:37:49Z</time>
      </trkpt>
      <trkpt lat="39.236395005136728" lon="-9.166759019717574">
        <ele>52.049999999999997</ele>
        <time>2025-05-04T13:37:50Z</time>
      </trkpt>
      <trkpt lat="39.23620599322021" lon="-9.166839988902211">
        <ele>52.049999999999997</ele>
        <time>2025-05-04T13:37:51Z</time>
      </trkpt>
      <trkpt lat="39.236021004617214" lon="-9.166935039684176">
        <ele>52.049999999999997</ele>
        <time>2025-05-04T13:37:52Z</time>
      </trkpt>
      <trkpt lat="39.235831992700696" lon="-9.167031012475491">
        <ele>52.530000000000001</ele>
        <time>2025-05-04T13:37:53Z</time>
      </trkpt>
      <trkpt lat="39.235264034941792" lon="-9.167306022718549">
        <ele>52.530000000000001</ele>
        <time>2025-05-04T13:37:56Z</time>
      </trkpt>
      <trkpt lat="39.235069993883371" lon="-9.167369976639748">
        <ele>52.530000000000001</ele>
        <time>2025-05-04T13:37:57Z</time>
      </trkpt>
      <trkpt lat="39.233619002625346" lon="-9.16761196218431">
        <ele>51.090000000000003</ele>
        <time>2025-05-04T13:38:04Z</time>
      </trkpt>
      <trkpt lat="39.233223041519523" lon="-9.167638029903173">
        <ele>51.57</ele>
        <time>2025-05-04T13:38:06Z</time>
      </trkpt>
      <trkpt lat="39.233008967712522" lon="-9.16763199493289">
        <ele>52.049999999999997</ele>
        <time>2025-05-04T13:38:07Z</time>
      </trkpt>
      <trkpt lat="39.232801012694836" lon="-9.167626965790987">
        <ele>53.009999999999998</ele>
        <time>2025-05-04T13:38:08Z</time>
      </trkpt>
      <trkpt lat="39.232598003000021" lon="-9.167622020468116">
        <ele>53.490000000000002</ele>
        <time>2025-05-04T13:38:09Z</time>
      </trkpt>
      <trkpt lat="39.232202963903546" lon="-9.167677005752921">
        <ele>54.450000000000003</ele>
        <time>2025-05-04T13:38:11Z</time>
      </trkpt>
      <trkpt lat="39.232001965865493" lon="-9.167723022401333">
        <ele>54.93</ele>
        <time>2025-05-04T13:38:12Z</time>
      </trkpt>
      <trkpt lat="39.231158997863531" lon="-9.16778395883739">
        <ele>55.890000000000001</ele>
        <time>2025-05-04T13:38:16Z</time>
      </trkpt>
      <trkpt lat="39.23053496517241" lon="-9.167663007974625">
        <ele>56.369999999999997</ele>
        <time>2025-05-04T13:38:19Z</time>
      </trkpt>
      <trkpt lat="39.230335978791118" lon="-9.167640041559935">
        <ele>56.369999999999997</ele>
        <time>2025-05-04T13:38:20Z</time>
      </trkpt>
      <trkpt lat="39.229955021291971" lon="-9.167672982439399">
        <ele>55.890000000000001</ele>
        <time>2025-05-04T13:38:22Z</time>
      </trkpt>
      <trkpt lat="39.229776989668608" lon="-9.167703995481134">
        <ele>55.890000000000001</ele>
        <time>2025-05-04T13:38:23Z</time>
      </trkpt>
      <trkpt lat="39.229613961651921" lon="-9.167675999924541">
        <ele>55.409999999999997</ele>
        <time>2025-05-04T13:38:24Z</time>
      </trkpt>
      <trkpt lat="39.228723971173167" lon="-9.167426973581314">
        <ele>54.450000000000003</ele>
        <time>2025-05-04T13:38:31Z</time>
      </trkpt>
      <trkpt lat="39.227211037650704" lon="-9.167425967752934">
        <ele>55.409999999999997</ele>
        <time>2025-05-04T13:38:41Z</time>
      </trkpt>
      <trkpt lat="39.225710006430745" lon="-9.167447006329894">
        <ele>60.219999999999999</ele>
        <time>2025-05-04T13:38:50Z</time>
      </trkpt>
      <trkpt lat="39.224814986810088" lon="-9.167339969426394">
        <ele>62.140000000000001</ele>
        <time>2025-05-04T13:38:56Z</time>
      </trkpt>
      <trkpt lat="39.224669979885221" lon="-9.167339969426394">
        <ele>62.140000000000001</ele>
        <time>2025-05-04T13:38:57Z</time>
      </trkpt>
      <trkpt lat="39.224531007930636" lon="-9.167339969426394">
        <ele>62.619999999999997</ele>
        <time>2025-05-04T13:38:58Z</time>
      </trkpt>
      <trkpt lat="39.224397987127304" lon="-9.167403001338244">
        <ele>62.619999999999997</ele>
        <time>2025-05-04T13:38:59Z</time>
      </trkpt>
      <trkpt lat="39.224273012951016" lon="-9.167507020756602">
        <ele>63.100000000000001</ele>
        <time>2025-05-04T13:39:00Z</time>
      </trkpt>
      <trkpt lat="39.224146027117968" lon="-9.16761196218431">
        <ele>63.579999999999998</ele>
        <time>2025-05-04T13:39:01Z</time>
      </trkpt>
      <trkpt lat="39.224019041284919" lon="-9.167716987431049">
        <ele>63.579999999999998</ele>
        <time>2025-05-04T13:39:02Z</time>
      </trkpt>
      <trkpt lat="39.223879985511303" lon="-9.167790999636054">
        <ele>64.069999999999993</ele>
        <time>2025-05-04T13:39:03Z</time>
      </trkpt>
      <trkpt lat="39.223730033263564" lon="-9.167855037376285">
        <ele>64.069999999999993</ele>
        <time>2025-05-04T13:39:04Z</time>
      </trkpt>
      <trkpt lat="39.223576979711652" lon="-9.167875992134213">
        <ele>64.549999999999997</ele>
        <time>2025-05-04T13:39:05Z</time>
      </trkpt>
      <trkpt lat="39.223425015807152" lon="-9.167868029326201">
        <ele>65.030000000000001</ele>
        <time>2025-05-04T13:39:06Z</time>
      </trkpt>
      <trkpt lat="39.223276991397142" lon="-9.167809020727873">
        <ele>65.510000000000005</ele>
        <time>2025-05-04T13:39:07Z</time>
      </trkpt>
      <trkpt lat="39.222977003082633" lon="-9.167688991874456">
        <ele>66.469999999999999</ele>
        <time>2025-05-04T13:39:09Z</time>
      </trkpt>
      <trkpt lat="39.222828978672624" lon="-9.167684968560934">
        <ele>66.469999999999999</ele>
        <time>2025-05-04T13:39:10Z</time>
      </trkpt>
      <trkpt lat="39.222381971776485" lon="-9.167817989364266">
        <ele>67.909999999999997</ele>
        <time>2025-05-04T13:39:13Z</time>
      </trkpt>
      <trkpt lat="39.222242999821901" lon="-9.167859982699156">
        <ele>68.390000000000001</ele>
        <time>2025-05-04T13:39:14Z</time>
      </trkpt>
      <trkpt lat="39.222104027867317" lon="-9.167893007397652">
        <ele>68.870000000000005</ele>
        <time>2025-05-04T13:39:15Z</time>
      </trkpt>
      <trkpt lat="39.221976958215237" lon="-9.167831987142563">
        <ele>68.870000000000005</ele>
        <time>2025-05-04T13:39:16Z</time>
      </trkpt>
      <trkpt lat="39.221850978210568" lon="-9.167770966887474">
        <ele>69.349999999999994</ele>
        <time>2025-05-04T13:39:17Z</time>
      </trkpt>
      <trkpt lat="39.221730027347803" lon="-9.167712964117527">
        <ele>69.829999999999998</ele>
        <time>2025-05-04T13:39:18Z</time>
      </trkpt>
      <trkpt lat="39.221614021807909" lon="-9.167657978832722">
        <ele>70.310000000000002</ele>
        <time>2025-05-04T13:39:19Z</time>
      </trkpt>
      <trkpt lat="39.221501033753157" lon="-9.167635012418032">
        <ele>70.790000000000006</ele>
        <time>2025-05-04T13:39:20Z</time>
      </trkpt>
      <trkpt lat="39.221384022384882" lon="-9.167626965790987">
        <ele>70.790000000000006</ele>
        <time>2025-05-04T13:39:21Z</time>
      </trkpt>
      <trkpt lat="39.221256030723453" lon="-9.167619002982974">
        <ele>71.269999999999996</ele>
        <time>2025-05-04T13:39:22Z</time>
      </trkpt>
      <trkpt lat="39.221143964678049" lon="-9.167697038501501">
        <ele>71.269999999999996</ele>
        <time>2025-05-04T13:39:23Z</time>
      </trkpt>
      <trkpt lat="39.221027037128806" lon="-9.167779013514519">
        <ele>71.760000000000005</ele>
        <time>2025-05-04T13:39:24Z</time>
      </trkpt>
      <trkpt lat="39.220680026337504" lon="-9.168020999059081">
        <ele>72.239999999999995</ele>
        <time>2025-05-04T13:39:27Z</time>
      </trkpt>
      <trkpt lat="39.220571983605623" lon="-9.168096017092466">
        <ele>72.719999999999999</ele>
        <time>2025-05-04T13:39:28Z</time>
      </trkpt>
      <trkpt lat="39.220453966408968" lon="-9.168135998770595">
        <ele>72.719999999999999</ele>
        <time>2025-05-04T13:39:29Z</time>
      </trkpt>
      <trkpt lat="39.220333015546203" lon="-9.168166005983949">
        <ele>72.719999999999999</ele>
        <time>2025-05-04T13:39:30Z</time>
      </trkpt>
      <trkpt lat="39.220205023884773" lon="-9.168198024854064">
        <ele>73.200000000000003</ele>
        <time>2025-05-04T13:39:31Z</time>
      </trkpt>
      <trkpt lat="39.220083989202976" lon="-9.168204981833696">
        <ele>73.200000000000003</ele>
        <time>2025-05-04T13:39:32Z</time>
      </trkpt>
      <trkpt lat="39.219557018950582" lon="-9.16823398321867">
        <ele>74.640000000000001</ele>
        <time>2025-05-04T13:39:36Z</time>
      </trkpt>
      <trkpt lat="39.219431960955262" lon="-9.168241024017334">
        <ele>74.640000000000001</ele>
        <time>2025-05-04T13:39:37Z</time>
      </trkpt>
      <trkpt lat="39.219306986778975" lon="-9.168315036222339">
        <ele>75.120000000000005</ele>
        <time>2025-05-04T13:39:38Z</time>
      </trkpt>
      <trkpt lat="39.219186035916209" lon="-9.168387036770582">
        <ele>75.120000000000005</ele>
        <time>2025-05-04T13:39:39Z</time>
      </trkpt>
      <trkpt lat="39.219066007062793" lon="-9.168458031490445">
        <ele>75.120000000000005</ele>
        <time>2025-05-04T13:39:40Z</time>
      </trkpt>
      <trkpt lat="39.218946984037757" lon="-9.168535983189941">
        <ele>75.599999999999994</ele>
        <time>2025-05-04T13:39:41Z</time>
      </trkpt>
      <trkpt lat="39.21884598210454" lon="-9.168661963194609">
        <ele>75.599999999999994</ele>
        <time>2025-05-04T13:39:42Z</time>
      </trkpt>
      <trkpt lat="39.21873701736331" lon="-9.168795989826322">
        <ele>76.079999999999998</ele>
        <time>2025-05-04T13:39:43Z</time>
      </trkpt>
      <trkpt lat="39.218087000772357" lon="-9.169763009995222">
        <ele>78.480000000000004</ele>
        <time>2025-05-04T13:39:49Z</time>
      </trkpt>
      <trkpt lat="39.218012988567352" lon="-9.169958978891373">
        <ele>78.480000000000004</ele>
        <time>2025-05-04T13:39:50Z</time>
      </trkpt>
      <trkpt lat="39.217892037704587" lon="-9.17035804130137">
        <ele>78.969999999999999</ele>
        <time>2025-05-04T13:39:52Z</time>
      </trkpt>
      <trkpt lat="39.217829005792737" lon="-9.170539006590843">
        <ele>79.450000000000003</ele>
        <time>2025-05-04T13:39:53Z</time>
      </trkpt>
      <trkpt lat="39.217726998031139" lon="-9.170699017122388">
        <ele>79.450000000000003</ele>
        <time>2025-05-04T13:39:54Z</time>
      </trkpt>
      <trkpt lat="39.217495992779732" lon="-9.171001017093658">
        <ele>80.409999999999997</ele>
        <time>2025-05-04T13:39:56Z</time>
      </trkpt>
      <trkpt lat="39.217374958097935" lon="-9.171144012361765">
        <ele>80.890000000000001</ele>
        <time>2025-05-04T13:39:57Z</time>
      </trkpt>
      <trkpt lat="39.217265993356705" lon="-9.171309974044561">
        <ele>80.890000000000001</ele>
        <time>2025-05-04T13:39:58Z</time>
      </trkpt>
      <trkpt lat="39.217173038050532" lon="-9.17149999178946">
        <ele>81.370000000000005</ele>
        <time>2025-05-04T13:39:59Z</time>
      </trkpt>
      <trkpt lat="39.217079998925328" lon="-9.17169101536274">
        <ele>81.849999999999994</ele>
        <time>2025-05-04T13:40:00Z</time>
      </trkpt>
      <trkpt lat="39.216986037790775" lon="-9.171882960945368">
        <ele>81.849999999999994</ele>
        <time>2025-05-04T13:40:01Z</time>
      </trkpt>
      <trkpt lat="39.216894004493952" lon="-9.172070967033505">
        <ele>82.329999999999998</ele>
        <time>2025-05-04T13:40:02Z</time>
      </trkpt>
      <trkpt lat="39.216793002560735" lon="-9.172231983393431">
        <ele>82.329999999999998</ele>
        <time>2025-05-04T13:40:03Z</time>
      </trkpt>
      <trkpt lat="39.216670040041208" lon="-9.172355029731989">
        <ele>82.810000000000002</ele>
        <time>2025-05-04T13:40:04Z</time>
      </trkpt>
      <trkpt lat="39.216536013409495" lon="-9.172489978373051">
        <ele>83.290000000000006</ele>
        <time>2025-05-04T13:40:05Z</time>
      </trkpt>
      <trkpt lat="39.21639502979815" lon="-9.172535995021462">
        <ele>83.769999999999996</ele>
        <time>2025-05-04T13:40:06Z</time>
      </trkpt>
      <trkpt lat="39.216234013438225" lon="-9.172589974477887">
        <ele>83.769999999999996</ele>
        <time>2025-05-04T13:40:07Z</time>
      </trkpt>
      <trkpt lat="39.216065034270287" lon="-9.172645965591073">
        <ele>83.769999999999996</ele>
        <time>2025-05-04T13:40:08Z</time>
      </trkpt>
      <trkpt lat="39.215896977111697" lon="-9.172719977796078">
        <ele>84.25</ele>
        <time>2025-05-04T13:40:09Z</time>
      </trkpt>
      <trkpt lat="39.215731015428901" lon="-9.172822991386056">
        <ele>84.25</ele>
        <time>2025-05-04T13:40:10Z</time>
      </trkpt>
      <trkpt lat="39.215559018775821" lon="-9.172931034117937">
        <ele>84.730000000000004</ele>
        <time>2025-05-04T13:40:11Z</time>
      </trkpt>
      <trkpt lat="39.215201027691364" lon="-9.173130020499229">
        <ele>85.209999999999994</ele>
        <time>2025-05-04T13:40:13Z</time>
      </trkpt>
      <trkpt lat="39.21502199023962" lon="-9.173176037147641">
        <ele>85.689999999999998</ele>
        <time>2025-05-04T13:40:14Z</time>
      </trkpt>
      <trkpt lat="39.214853011071682" lon="-9.173220964148641">
        <ele>86.180000000000007</ele>
        <time>2025-05-04T13:40:15Z</time>
      </trkpt>
      <trkpt lat="39.214685959741473" lon="-9.173222975805402">
        <ele>86.659999999999997</ele>
        <time>2025-05-04T13:40:16Z</time>
      </trkpt>
      <trkpt lat="39.214519998058677" lon="-9.17317695915699">
        <ele>87.620000000000005</ele>
        <time>2025-05-04T13:40:17Z</time>
      </trkpt>
      <trkpt lat="39.214359987527132" lon="-9.173096995800734">
        <ele>88.099999999999994</ele>
        <time>2025-05-04T13:40:18Z</time>
      </trkpt>
      <trkpt lat="39.214214980602264" lon="-9.172986019402742">
        <ele>88.579999999999998</ele>
        <time>2025-05-04T13:40:19Z</time>
      </trkpt>
      <trkpt lat="39.214067040011287" lon="-9.172846963629127">
        <ele>89.540000000000006</ele>
        <time>2025-05-04T13:40:20Z</time>
      </trkpt>
      <trkpt lat="39.213918009772897" lon="-9.172707991674542">
        <ele>90.019999999999996</ele>
        <time>2025-05-04T13:40:21Z</time>
      </trkpt>
      <trkpt lat="39.213477037847042" lon="-9.172357963398099">
        <ele>92.900000000000006</ele>
        <time>2025-05-04T13:40:24Z</time>
      </trkpt>
      <trkpt lat="39.213335970416665" lon="-9.172280011698604">
        <ele>93.870000000000005</ele>
        <time>2025-05-04T13:40:25Z</time>
      </trkpt>
      <trkpt lat="39.21319498680532" lon="-9.172210022807121">
        <ele>94.349999999999994</ele>
        <time>2025-05-04T13:40:26Z</time>
      </trkpt>
      <trkpt lat="39.213040005415678" lon="-9.172201976180077">
        <ele>94.829999999999998</ele>
        <time>2025-05-04T13:40:27Z</time>
      </trkpt>
      <trkpt lat="39.212883012369275" lon="-9.172193007543683">
        <ele>94.829999999999998</ele>
        <time>2025-05-04T13:40:28Z</time>
      </trkpt>
      <trkpt lat="39.212728030979633" lon="-9.172223014757037">
        <ele>95.310000000000002</ele>
        <time>2025-05-04T13:40:29Z</time>
      </trkpt>
      <trkpt lat="39.212583024054766" lon="-9.17227397672832">
        <ele>95.310000000000002</ele>
        <time>2025-05-04T13:40:30Z</time>
      </trkpt>
      <trkpt lat="39.211987992748618" lon="-9.172482015565038">
        <ele>96.269999999999996</ele>
        <time>2025-05-04T13:40:34Z</time>
      </trkpt>
      <trkpt lat="39.211825970560312" lon="-9.172524008899927">
        <ele>96.75</ele>
        <time>2025-05-04T13:40:35Z</time>
      </trkpt>
      <trkpt lat="39.211664032191038" lon="-9.172564996406436">
        <ele>97.230000000000004</ele>
        <time>2025-05-04T13:40:36Z</time>
      </trkpt>
      <trkpt lat="39.211495975032449" lon="-9.172560973092914">
        <ele>97.709999999999994</ele>
        <time>2025-05-04T13:40:37Z</time>
      </trkpt>
      <trkpt lat="39.211324984207749" lon="-9.172541024163365">
        <ele>98.670000000000002</ele>
        <time>2025-05-04T13:40:38Z</time>
      </trkpt>
      <trkpt lat="39.21100202947855" lon="-9.172404985874891">
        <ele>99.150000000000006</ele>
        <time>2025-05-04T13:40:40Z</time>
      </trkpt>
      <trkpt lat="39.210489979013801" lon="-9.172156965360045">
        <ele>99.150000000000006</ele>
        <time>2025-05-04T13:40:43Z</time>
      </trkpt>
      <trkpt lat="39.210310019552708" lon="-9.172106003388763">
        <ele>98.670000000000002</ele>
        <time>2025-05-04T13:40:44Z</time>
      </trkpt>
      <trkpt lat="39.21012201346457" lon="-9.172088988125324">
        <ele>98.670000000000002</ele>
        <time>2025-05-04T13:40:45Z</time>
      </trkpt>
      <trkpt lat="39.209936019033194" lon="-9.17210198007524">
        <ele>98.189999999999998</ele>
        <time>2025-05-04T13:40:46Z</time>
      </trkpt>
      <trkpt lat="39.209755975753069" lon="-9.172178003937006">
        <ele>98.189999999999998</ele>
        <time>2025-05-04T13:40:47Z</time>
      </trkpt>
      <trkpt lat="39.209579033777118" lon="-9.172278000041843">
        <ele>97.709999999999994</ele>
        <time>2025-05-04T13:40:48Z</time>
      </trkpt>
      <trkpt lat="39.209425980225205" lon="-9.172427030280232">
        <ele>97.709999999999994</ele>
        <time>2025-05-04T13:40:49Z</time>
      </trkpt>
      <trkpt lat="39.207763010635972" lon="-9.174076002091169">
        <ele>98.189999999999998</ele>
        <time>2025-05-04T13:40:59Z</time>
      </trkpt>
      <trkpt lat="39.206892969086766" lon="-9.17495802976191">
        <ele>99.150000000000006</ele>
        <time>2025-05-04T13:41:04Z</time>
      </trkpt>
      <trkpt lat="39.206709992140532" lon="-9.175076968967915">
        <ele>99.150000000000006</ele>
        <time>2025-05-04T13:41:05Z</time>
      </trkpt>
      <trkpt lat="39.206515029072762" lon="-9.175153998658061">
        <ele>99.150000000000006</ele>
        <time>2025-05-04T13:41:06Z</time>
      </trkpt>
      <trkpt lat="39.206322999671102" lon="-9.17521501891315">
        <ele>99.629999999999995</ele>
        <time>2025-05-04T13:41:07Z</time>
      </trkpt>
      <trkpt lat="39.206122001633048" lon="-9.17521501891315">
        <ele>100.11</ele>
        <time>2025-05-04T13:41:08Z</time>
      </trkpt>
      <trkpt lat="39.205921003594995" lon="-9.17521501891315">
        <ele>100.59999999999999</ele>
        <time>2025-05-04T13:41:09Z</time>
      </trkpt>
      <trkpt lat="39.205722017213702" lon="-9.175189035013318">
        <ele>100.59999999999999</ele>
        <time>2025-05-04T13:41:10Z</time>
      </trkpt>
      <trkpt lat="39.205530993640423" lon="-9.175110999494791">
        <ele>101.08</ele>
        <time>2025-05-04T13:41:11Z</time>
      </trkpt>
      <trkpt lat="39.205347010865808" lon="-9.175017960369587">
        <ele>101.56</ele>
        <time>2025-05-04T13:41:12Z</time>
      </trkpt>
      <trkpt lat="39.204268008470535" lon="-9.174340032041073">
        <ele>106.36</ele>
        <time>2025-05-04T13:41:18Z</time>
      </trkpt>
      <trkpt lat="39.204089976847172" lon="-9.174227965995669">
        <ele>107.31999999999999</ele>
        <time>2025-05-04T13:41:19Z</time>
      </trkpt>
      <trkpt lat="39.20391202904284" lon="-9.174181027337909">
        <ele>107.81</ele>
        <time>2025-05-04T13:41:20Z</time>
      </trkpt>
      <trkpt lat="39.203728968277574" lon="-9.174148002639413">
        <ele>108.29000000000001</ele>
        <time>2025-05-04T13:41:21Z</time>
      </trkpt>
      <trkpt lat="39.203543979674578" lon="-9.174173986539245">
        <ele>109.25</ele>
        <time>2025-05-04T13:41:22Z</time>
      </trkpt>
      <trkpt lat="39.203358991071582" lon="-9.174212962388992">
        <ele>109.73</ele>
        <time>2025-05-04T13:41:23Z</time>
      </trkpt>
      <trkpt lat="39.201152035966516" lon="-9.174821991473436">
        <ele>114.53</ele>
        <time>2025-05-04T13:41:34Z</time>
      </trkpt>
      <trkpt lat="39.1992739867419" lon="-9.175394978374243">
        <ele>118.38</ele>
        <time>2025-05-04T13:41:43Z</time>
      </trkpt>
      <trkpt lat="39.199111964553595" lon="-9.175450969487429">
        <ele>118.38</ele>
        <time>2025-05-04T13:41:44Z</time>
      </trkpt>
      <trkpt lat="39.198962012305856" lon="-9.175592036917806">
        <ele>118.86</ele>
        <time>2025-05-04T13:41:45Z</time>
      </trkpt>
      <trkpt lat="39.19882102869451" lon="-9.175723968073726">
        <ele>119.34</ele>
        <time>2025-05-04T13:41:46Z</time>
      </trkpt>
      <trkpt lat="39.198706028982997" lon="-9.175881966948509">
        <ele>119.81999999999999</ele>
        <time>2025-05-04T13:41:47Z</time>
      </trkpt>
      <trkpt lat="39.198615001514554" lon="-9.176078019663692">
        <ele>120.3</ele>
        <time>2025-05-04T13:41:48Z</time>
      </trkpt>
      <trkpt lat="39.198523974046111" lon="-9.176276000216603">
        <ele>120.3</ele>
        <time>2025-05-04T13:41:49Z</time>
      </trkpt>
      <trkpt lat="39.198342002928257" lon="-9.176668021827936">
        <ele>121.26000000000001</ele>
        <time>2025-05-04T13:41:51Z</time>
      </trkpt>
      <trkpt lat="39.198238989338279" lon="-9.176844963803887">
        <ele>121.26000000000001</ele>
        <time>2025-05-04T13:41:52Z</time>
      </trkpt>
      <trkpt lat="39.198124995455146" lon="-9.177039004862309">
        <ele>121.73999999999999</ele>
        <time>2025-05-04T13:41:53Z</time>
      </trkpt>
      <trkpt lat="39.197107013314962" lon="-9.178178021684289">
        <ele>125.59</ele>
        <time>2025-05-04T13:42:01Z</time>
      </trkpt>
      <trkpt lat="39.196506030857563" lon="-9.178873971104622">
        <ele>125.11</ele>
        <time>2025-05-04T13:42:07Z</time>
      </trkpt>
      <trkpt lat="39.196516005322337" lon="-9.179119979962707">
        <ele>125.59</ele>
        <time>2025-05-04T13:42:08Z</time>
      </trkpt>
      <trkpt lat="39.196496978402138" lon="-9.179183011874557">
        <ele>125.59</ele>
        <time>2025-05-04T13:42:09Z</time>
      </trkpt>
      <trkpt lat="39.196466971188784" lon="-9.179282002151012">
        <ele>125.59</ele>
        <time>2025-05-04T13:42:10Z</time>
      </trkpt>
      <trkpt lat="39.196409974247217" lon="-9.179365988820791">
        <ele>125.59</ele>
        <time>2025-05-04T13:42:11Z</time>
      </trkpt>
      <trkpt lat="39.196364963427186" lon="-9.179399013519287">
        <ele>125.59</ele>
        <time>2025-05-04T13:42:12Z</time>
      </trkpt>
      <trkpt lat="39.196160025894642" lon="-9.179389961063862">
        <ele>125.59</ele>
        <time>2025-05-04T13:42:13Z</time>
      </trkpt>
      <trkpt lat="39.196064975112677" lon="-9.179548965767026">
        <ele>126.06999999999999</ele>
        <time>2025-05-04T13:42:15Z</time>
      </trkpt>
      <trkpt lat="39.195938995108008" lon="-9.179704030975699">
        <ele>126.55</ele>
        <time>2025-05-04T13:42:16Z</time>
      </trkpt>
      <trkpt lat="39.19585601426661" lon="-9.179806960746646">
        <ele>126.55</ele>
        <time>2025-05-04T13:42:17Z</time>
      </trkpt>
      <trkpt lat="39.195773033425212" lon="-9.179901005700231">
        <ele>126.55</ele>
        <time>2025-05-04T13:42:18Z</time>
      </trkpt>
      <trkpt lat="39.195668008178473" lon="-9.179964037612081">
        <ele>126.55</ele>
        <time>2025-05-04T13:42:19Z</time>
      </trkpt>
      <trkpt lat="39.195560971274972" lon="-9.180030003190041">
        <ele>127.03</ele>
        <time>2025-05-04T13:42:20Z</time>
      </trkpt>
      <trkpt lat="39.195454018190503" lon="-9.18009496293962">
        <ele>127.03</ele>
        <time>2025-05-04T13:42:21Z</time>
      </trkpt>
      <trkpt lat="39.195351004600525" lon="-9.180140979588032">
        <ele>127.03</ele>
        <time>2025-05-04T13:42:22Z</time>
      </trkpt>
      <trkpt lat="39.195243967697024" lon="-9.180168975144625">
        <ele>127.03</ele>
        <time>2025-05-04T13:42:23Z</time>
      </trkpt>
      <trkpt lat="39.194531003013253" lon="-9.180375002324581">
        <ele>128.47</ele>
        <time>2025-05-04T13:42:30Z</time>
      </trkpt>
      <trkpt lat="39.194212993606925" lon="-9.180514980107546">
        <ele>128.47</ele>
        <time>2025-05-04T13:42:33Z</time>
      </trkpt>
      <trkpt lat="39.194112997502089" lon="-9.180584968999028">
        <ele>128.47</ele>
        <time>2025-05-04T13:42:34Z</time>
      </trkpt>
      <trkpt lat="39.194028005003929" lon="-9.180683037266135">
        <ele>128.47</ele>
        <time>2025-05-04T13:42:35Z</time>
      </trkpt>
      <trkpt lat="39.193951981142163" lon="-9.180783033370972">
        <ele>127.98999999999999</ele>
        <time>2025-05-04T13:42:36Z</time>
      </trkpt>
      <trkpt lat="39.193882998079062" lon="-9.180873977020383">
        <ele>127.98999999999999</ele>
        <time>2025-05-04T13:42:37Z</time>
      </trkpt>
      <trkpt lat="39.193823989480734" lon="-9.180951006710529">
        <ele>127.51000000000001</ele>
        <time>2025-05-04T13:42:38Z</time>
      </trkpt>
      <trkpt lat="39.19377202168107" lon="-9.181018983945251">
        <ele>127.51000000000001</ele>
        <time>2025-05-04T13:42:39Z</time>
      </trkpt>
      <trkpt lat="39.193565994501114" lon="-9.181329030543566">
        <ele>126.55</ele>
        <time>2025-05-04T13:42:47Z</time>
      </trkpt>
      <trkpt lat="39.193430040031672" lon="-9.181537991389632">
        <ele>126.06999999999999</ele>
        <time>2025-05-04T13:42:50Z</time>
      </trkpt>
      <trkpt lat="39.193362984806299" lon="-9.18159800581634">
        <ele>126.06999999999999</ele>
        <time>2025-05-04T13:42:51Z</time>
      </trkpt>
      <trkpt lat="39.193291990086436" lon="-9.18166003189981">
        <ele>126.06999999999999</ele>
        <time>2025-05-04T13:42:52Z</time>
      </trkpt>
      <trkpt lat="39.193211020901799" lon="-9.181695990264416">
        <ele>126.06999999999999</ele>
        <time>2025-05-04T13:42:53Z</time>
      </trkpt>
      <trkpt lat="39.19312703423202" lon="-9.181724991649389">
        <ele>126.06999999999999</ele>
        <time>2025-05-04T13:42:54Z</time>
      </trkpt>
      <trkpt lat="39.19312703423202" lon="-9.181724991649389">
        <ele>126.06999999999999</ele>
        <time>2025-05-04T13:42:55Z</time>
      </trkpt>
      <trkpt lat="39.192652031779289" lon="-9.181888019666076">
        <ele>125.59</ele>
        <time>2025-05-04T13:42:59Z</time>
      </trkpt>
      <trkpt lat="39.192551029846072" lon="-9.181935964152217">
        <ele>125.11</ele>
        <time>2025-05-04T13:43:01Z</time>
      </trkpt>
      <trkpt lat="39.192453967407346" lon="-9.18200402520597">
        <ele>125.11</ele>
        <time>2025-05-04T13:43:02Z</time>
      </trkpt>
      <trkpt lat="39.192197984084487" lon="-9.182188007980585">
        <ele>125.11</ele>
        <time>2025-05-04T13:43:05Z</time>
      </trkpt>
      <trkpt lat="39.19203202240169" lon="-9.18228498660028">
        <ele>125.11</ele>
        <time>2025-05-04T13:43:06Z</time>
      </trkpt>
      <trkpt lat="39.19203202240169" lon="-9.182283980771899">
        <ele>125.11</ele>
        <time>2025-05-04T13:43:07Z</time>
      </trkpt>
      <trkpt lat="39.191935965791345" lon="-9.182289009913802">
        <ele>124.63</ele>
        <time>2025-05-04T13:43:08Z</time>
      </trkpt>
      <trkpt lat="39.191831024363637" lon="-9.182280041277409">
        <ele>124.63</ele>
        <time>2025-05-04T13:43:09Z</time>
      </trkpt>
      <trkpt lat="39.191723987460136" lon="-9.182269982993603">
        <ele>124.63</ele>
        <time>2025-05-04T13:43:10Z</time>
      </trkpt>
      <trkpt lat="39.191030971705914" lon="-9.182150959968567">
        <ele>122.70999999999999</ele>
        <time>2025-05-04T13:43:16Z</time>
      </trkpt>
      <trkpt lat="39.19091303832829" lon="-9.182146014645696">
        <ele>121.73999999999999</ele>
        <time>2025-05-04T13:43:17Z</time>
      </trkpt>
      <trkpt lat="39.19078404083848" lon="-9.182166969403625">
        <ele>121.26000000000001</ele>
        <time>2025-05-04T13:43:18Z</time>
      </trkpt>
      <trkpt lat="39.190688990056515" lon="-9.182251961901784">
        <ele>120.3</ele>
        <time>2025-05-04T13:43:19Z</time>
      </trkpt>
      <trkpt lat="39.190593017265201" lon="-9.182338966056705">
        <ele>119.81999999999999</ele>
        <time>2025-05-04T13:43:20Z</time>
      </trkpt>
      <trkpt lat="39.190510958433151" lon="-9.182481039315462">
        <ele>119.34</ele>
        <time>2025-05-04T13:43:21Z</time>
      </trkpt>
      <trkpt lat="39.190434012562037" lon="-9.182613976299763">
        <ele>118.86</ele>
        <time>2025-05-04T13:43:22Z</time>
      </trkpt>
      <trkpt lat="39.190358994528651" lon="-9.182744985446334">
        <ele>118.38</ele>
        <time>2025-05-04T13:43:23Z</time>
      </trkpt>
      <trkpt lat="39.190286993980408" lon="-9.182869037613273">
        <ele>118.38</ele>
        <time>2025-05-04T13:43:24Z</time>
      </trkpt>
      <trkpt lat="39.190210970118642" lon="-9.182968027889729">
        <ele>117.90000000000001</ele>
        <time>2025-05-04T13:43:25Z</time>
      </trkpt>
      <trkpt lat="39.190142992883921" lon="-9.183046985417604">
        <ele>117.90000000000001</ele>
        <time>2025-05-04T13:43:26Z</time>
      </trkpt>
      <trkpt lat="39.190026987344027" lon="-9.183075986802578">
        <ele>117.42</ele>
        <time>2025-05-04T13:43:27Z</time>
      </trkpt>
      <trkpt lat="39.189916010946035" lon="-9.183089984580874">
        <ele>117.42</ele>
        <time>2025-05-04T13:43:28Z</time>
      </trkpt>
      <trkpt lat="39.189793970435858" lon="-9.183087972924113">
        <ele>117.42</ele>
        <time>2025-05-04T13:43:29Z</time>
      </trkpt>
      <trkpt lat="39.189671007916331" lon="-9.183033993467689">
        <ele>117.42</ele>
        <time>2025-05-04T13:43:30Z</time>
      </trkpt>
      <trkpt lat="39.18863601051271" lon="-9.182570977136493">
        <ele>117.42</ele>
        <time>2025-05-04T13:43:38Z</time>
      </trkpt>
      <trkpt lat="39.188511958345771" lon="-9.182538958266377">
        <ele>117.42</ele>
        <time>2025-05-04T13:43:39Z</time>
      </trkpt>
      <trkpt lat="39.188384972512722" lon="-9.1825429815799">
        <ele>117.42</ele>
        <time>2025-05-04T13:43:40Z</time>
      </trkpt>
      <trkpt lat="39.18814399279654" lon="-9.182573994621635">
        <ele>117.90000000000001</ele>
        <time>2025-05-04T13:43:42Z</time>
      </trkpt>
      <trkpt lat="39.188019018620253" lon="-9.182591009885073">
        <ele>117.90000000000001</ele>
        <time>2025-05-04T13:43:43Z</time>
      </trkpt>
      <trkpt lat="39.187897983938456" lon="-9.182570977136493">
        <ele>117.90000000000001</ele>
        <time>2025-05-04T13:43:44Z</time>
      </trkpt>
      <trkpt lat="39.18777703307569" lon="-9.182527977973223">
        <ele>117.42</ele>
        <time>2025-05-04T13:43:45Z</time>
      </trkpt>
      <trkpt lat="39.187664967030287" lon="-9.182441979646683">
        <ele>117.42</ele>
        <time>2025-05-04T13:43:46Z</time>
      </trkpt>
      <trkpt lat="39.187289038673043" lon="-9.18215699493885">
        <ele>116.45999999999999</ele>
        <time>2025-05-04T13:43:49Z</time>
      </trkpt>
      <trkpt lat="39.187151994556189" lon="-9.182053981348872">
        <ele>115.98</ele>
        <time>2025-05-04T13:43:50Z</time>
      </trkpt>
      <trkpt lat="39.187013022601604" lon="-9.181949961930513">
        <ele>115.5</ele>
        <time>2025-05-04T13:43:51Z</time>
      </trkpt>
      <trkpt lat="39.186848988756537" lon="-9.181908974424005">
        <ele>115.01000000000001</ele>
        <time>2025-05-04T13:43:52Z</time>
      </trkpt>
      <trkpt lat="39.186684032902122" lon="-9.181882990524173">
        <ele>114.05</ele>
        <time>2025-05-04T13:43:53Z</time>
      </trkpt>
      <trkpt lat="39.186513964086771" lon="-9.181874021887779">
        <ele>113.56999999999999</ele>
        <time>2025-05-04T13:43:54Z</time>
      </trkpt>
      <trkpt lat="39.186340039595962" lon="-9.181894976645708">
        <ele>113.09</ele>
        <time>2025-05-04T13:43:55Z</time>
      </trkpt>
      <trkpt lat="39.184935986995697" lon="-9.182191025465727">
        <ele>107.81</ele>
        <time>2025-05-04T13:44:02Z</time>
      </trkpt>
      <trkpt lat="39.183122981339693" lon="-9.182600984349847">
        <ele>103</ele>
        <time>2025-05-04T13:44:10Z</time>
      </trkpt>
      <trkpt lat="39.182929024100304" lon="-9.182684971019626">
        <ele>102.52</ele>
        <time>2025-05-04T13:44:11Z</time>
      </trkpt>
      <trkpt lat="39.182755015790462" lon="-9.182762000709772">
        <ele>102.04000000000001</ele>
        <time>2025-05-04T13:44:12Z</time>
      </trkpt>
      <trkpt lat="39.182626018300653" lon="-9.182900972664356">
        <ele>101.56</ele>
        <time>2025-05-04T13:44:13Z</time>
      </trkpt>
      <trkpt lat="39.182506995275617" lon="-9.183040028437972">
        <ele>100.59999999999999</ele>
        <time>2025-05-04T13:44:14Z</time>
      </trkpt>
      <trkpt lat="39.182439018040895" lon="-9.183213030919433">
        <ele>99.629999999999995</ele>
        <time>2025-05-04T13:44:15Z</time>
      </trkpt>
      <trkpt lat="39.182348996400833" lon="-9.183589965105057">
        <ele>97.709999999999994</ele>
        <time>2025-05-04T13:44:17Z</time>
      </trkpt>
      <trkpt lat="39.182315971702337" lon="-9.184212991967797">
        <ele>96.269999999999996</ele>
        <time>2025-05-04T13:44:20Z</time>
      </trkpt>
      <trkpt lat="39.182295016944408" lon="-9.184397980570793">
        <ele>96.269999999999996</ele>
        <time>2025-05-04T13:44:21Z</time>
      </trkpt>
      <trkpt lat="39.18225503526628" lon="-9.184568971395493">
        <ele>96.269999999999996</ele>
        <time>2025-05-04T13:44:22Z</time>
      </trkpt>
      <trkpt lat="39.182172976434231" lon="-9.184701992198825">
        <ele>96.269999999999996</ele>
        <time>2025-05-04T13:44:23Z</time>
      </trkpt>
      <trkpt lat="39.18208597227931" lon="-9.184835013002157">
        <ele>96.269999999999996</ele>
        <time>2025-05-04T13:44:24Z</time>
      </trkpt>
      <trkpt lat="39.181970972567797" lon="-9.184917993843556">
        <ele>96.75</ele>
        <time>2025-05-04T13:44:25Z</time>
      </trkpt>
      <trkpt lat="39.181859996169806" lon="-9.184998041018844">
        <ele>96.269999999999996</ele>
        <time>2025-05-04T13:44:26Z</time>
      </trkpt>
      <trkpt lat="39.181752959266305" lon="-9.185074986889958">
        <ele>96.269999999999996</ele>
        <time>2025-05-04T13:44:27Z</time>
      </trkpt>
      <trkpt lat="39.181651035323739" lon="-9.185131983831525">
        <ele>96.269999999999996</ele>
        <time>2025-05-04T13:44:28Z</time>
      </trkpt>
      <trkpt lat="39.181548021733761" lon="-9.185185041278601">
        <ele>96.269999999999996</ele>
        <time>2025-05-04T13:44:29Z</time>
      </trkpt>
      <trkpt lat="39.181474009528756" lon="-9.185275984928012">
        <ele>96.269999999999996</ele>
        <time>2025-05-04T13:44:30Z</time>
      </trkpt>
      <trkpt lat="39.18139697983861" lon="-9.185370029881597">
        <ele>95.790000000000006</ele>
        <time>2025-05-04T13:44:31Z</time>
      </trkpt>
      <trkpt lat="39.181317016482353" lon="-9.185468014329672">
        <ele>95.790000000000006</ele>
        <time>2025-05-04T13:44:32Z</time>
      </trkpt>
      <trkpt lat="39.180544037371874" lon="-9.186778021976352">
        <ele>91.459999999999994</ele>
        <time>2025-05-04T13:44:43Z</time>
      </trkpt>
      <trkpt lat="39.179842974990606" lon="-9.187981998547912">
        <ele>87.140000000000001</ele>
        <time>2025-05-04T13:44:53Z</time>
      </trkpt>
      <trkpt lat="39.179595960304141" lon="-9.188573006540537">
        <ele>85.209999999999994</ele>
        <time>2025-05-04T13:44:57Z</time>
      </trkpt>
      <trkpt lat="39.179534018039703" lon="-9.188760006800294">
        <ele>85.209999999999994</ele>
        <time>2025-05-04T13:44:58Z</time>
      </trkpt>
      <trkpt lat="39.179503004997969" lon="-9.18896796181798">
        <ele>84.730000000000004</ele>
        <time>2025-05-04T13:44:59Z</time>
      </trkpt>
      <trkpt lat="39.179480038583279" lon="-9.189187986776233">
        <ele>84.730000000000004</ele>
        <time>2025-05-04T13:45:00Z</time>
      </trkpt>
      <trkpt lat="39.179471991956234" lon="-9.189415974542499">
        <ele>84.730000000000004</ele>
        <time>2025-05-04T13:45:01Z</time>
      </trkpt>
      <trkpt lat="39.179327990859747" lon="-9.191963989287615">
        <ele>84.730000000000004</ele>
        <time>2025-05-04T13:45:11Z</time>
      </trkpt>
      <trkpt lat="39.1792699880898" lon="-9.192221984267235">
        <ele>84.25</ele>
        <time>2025-05-04T13:45:12Z</time>
      </trkpt>
      <trkpt lat="39.17920796200633" lon="-9.192472016438842">
        <ele>84.25</ele>
        <time>2025-05-04T13:45:13Z</time>
      </trkpt>
      <trkpt lat="39.179106038063765" lon="-9.192692041397095">
        <ele>83.769999999999996</ele>
        <time>2025-05-04T13:45:14Z</time>
      </trkpt>
      <trkpt lat="39.179004030302167" lon="-9.192909970879555">
        <ele>83.769999999999996</ele>
        <time>2025-05-04T13:45:15Z</time>
      </trkpt>
      <trkpt lat="39.178887018933892" lon="-9.193124966695905">
        <ele>83.290000000000006</ele>
        <time>2025-05-04T13:45:16Z</time>
      </trkpt>
      <trkpt lat="39.177712965756655" lon="-9.194589033722878">
        <ele>83.290000000000006</ele>
        <time>2025-05-04T13:45:24Z</time>
      </trkpt>
      <trkpt lat="39.177601989358664" lon="-9.194806041195989">
        <ele>83.290000000000006</ele>
        <time>2025-05-04T13:45:25Z</time>
      </trkpt>
      <trkpt lat="39.177505010738969" lon="-9.195032017305493">
        <ele>83.290000000000006</ele>
        <time>2025-05-04T13:45:26Z</time>
      </trkpt>
      <trkpt lat="39.177434016019106" lon="-9.195275008678436">
        <ele>83.290000000000006</ele>
        <time>2025-05-04T13:45:27Z</time>
      </trkpt>
      <trkpt lat="39.177371989935637" lon="-9.195523029193282">
        <ele>83.290000000000006</ele>
        <time>2025-05-04T13:45:28Z</time>
      </trkpt>
      <trkpt lat="39.177046017721295" lon="-9.196810992434621">
        <ele>82.810000000000002</ele>
        <time>2025-05-04T13:45:33Z</time>
      </trkpt>
      <trkpt lat="39.176963958889246" lon="-9.197051972150803">
        <ele>82.810000000000002</ele>
        <time>2025-05-04T13:45:34Z</time>
      </trkpt>
      <trkpt lat="39.176877038553357" lon="-9.197291024029255">
        <ele>82.329999999999998</ele>
        <time>2025-05-04T13:45:35Z</time>
      </trkpt>
      <trkpt lat="39.176739994436502" lon="-9.197486992925406">
        <ele>82.329999999999998</ele>
        <time>2025-05-04T13:45:36Z</time>
      </trkpt>
      <trkpt lat="39.176592975854874" lon="-9.197667958214879">
        <ele>81.849999999999994</ele>
        <time>2025-05-04T13:45:37Z</time>
      </trkpt>
      <trkpt lat="39.176448974758387" lon="-9.197845989838243">
        <ele>81.370000000000005</ele>
        <time>2025-05-04T13:45:38Z</time>
      </trkpt>
      <trkpt lat="39.176284018903971" lon="-9.197986973449588">
        <ele>80.890000000000001</ele>
        <time>2025-05-04T13:45:39Z</time>
      </trkpt>
      <trkpt lat="39.17611101642251" lon="-9.198113037273288">
        <ele>80.409999999999997</ele>
        <time>2025-05-04T13:45:40Z</time>
      </trkpt>
      <trkpt lat="39.17525103315711" lon="-9.198754001408815">
        <ele>76.560000000000002</ele>
        <time>2025-05-04T13:45:45Z</time>
      </trkpt>
      <trkpt lat="39.17507903650403" lon="-9.19897997751832">
        <ele>75.599999999999994</ele>
        <time>2025-05-04T13:45:46Z</time>
      </trkpt>
      <trkpt lat="39.174937969073653" lon="-9.199165971949697">
        <ele>74.640000000000001</ele>
        <time>2025-05-04T13:45:47Z</time>
      </trkpt>
      <trkpt lat="39.174817018210888" lon="-9.19936696998775">
        <ele>73.200000000000003</ele>
        <time>2025-05-04T13:45:48Z</time>
      </trkpt>
      <trkpt lat="39.17473403736949" lon="-9.199606021866202">
        <ele>72.239999999999995</ele>
        <time>2025-05-04T13:45:49Z</time>
      </trkpt>
      <trkpt lat="39.174649966880679" lon="-9.199848007410765">
        <ele>70.790000000000006</ele>
        <time>2025-05-04T13:45:50Z</time>
      </trkpt>
      <trkpt lat="39.174074968323112" lon="-9.202236011624336">
        <ele>64.549999999999997</ele>
        <time>2025-05-04T13:45:59Z</time>
      </trkpt>
      <trkpt lat="39.173976983875036" lon="-9.202461987733841">
        <ele>64.069999999999993</ele>
        <time>2025-05-04T13:46:00Z</time>
      </trkpt>
      <trkpt lat="39.173871958628297" lon="-9.202668014913797">
        <ele>63.579999999999998</ele>
        <time>2025-05-04T13:46:01Z</time>
      </trkpt>
      <trkpt lat="39.173745978623629" lon="-9.202857026830316">
        <ele>62.619999999999997</ele>
        <time>2025-05-04T13:46:02Z</time>
      </trkpt>
      <trkpt lat="39.173598038032651" lon="-9.203015025705099">
        <ele>62.140000000000001</ele>
        <time>2025-05-04T13:46:03Z</time>
      </trkpt>
      <trkpt lat="39.173431992530823" lon="-9.203149974346161">
        <ele>61.18</ele>
        <time>2025-05-04T13:46:04Z</time>
      </trkpt>
      <trkpt lat="39.173240968957543" lon="-9.203246030956507">
        <ele>60.700000000000003</ele>
        <time>2025-05-04T13:46:05Z</time>
      </trkpt>
      <trkpt lat="39.171360991895199" lon="-9.204127974808216">
        <ele>53.490000000000002</ele>
        <time>2025-05-04T13:46:14Z</time>
      </trkpt>
      <trkpt lat="39.17114800773561" lon="-9.204219002276659">
        <ele>52.530000000000001</ele>
        <time>2025-05-04T13:46:15Z</time>
      </trkpt>
      <trkpt lat="39.170923037454486" lon="-9.20424398034811">
        <ele>52.049999999999997</ele>
        <time>2025-05-04T13:46:16Z</time>
      </trkpt>
      <trkpt lat="39.169114977121353" lon="-9.204409020021558">
        <ele>45.799999999999997</ele>
        <time>2025-05-04T13:46:25Z</time>
      </trkpt>
      <trkpt lat="39.167834976688027" lon="-9.205011008307338">
        <ele>42.439999999999998</ele>
        <time>2025-05-04T13:46:32Z</time>
      </trkpt>
      <trkpt lat="39.167127963155508" lon="-9.205437982454896">
        <ele>41.950000000000003</ele>
        <time>2025-05-04T13:46:36Z</time>
      </trkpt>
      <trkpt lat="39.166983962059021" lon="-9.205568991601467">
        <ele>41.950000000000003</ele>
        <time>2025-05-04T13:46:37Z</time>
      </trkpt>
      <trkpt lat="39.166863011196256" lon="-9.205715004354715">
        <ele>41.950000000000003</ele>
        <time>2025-05-04T13:46:38Z</time>
      </trkpt>
      <trkpt lat="39.166766032576561" lon="-9.205887001007795">
        <ele>41.469999999999999</ele>
        <time>2025-05-04T13:46:39Z</time>
      </trkpt>
      <trkpt lat="39.166687997058034" lon="-9.206065032631159">
        <ele>41.469999999999999</ele>
        <time>2025-05-04T13:46:40Z</time>
      </trkpt>
      <trkpt lat="39.166263034567237" lon="-9.207577966153622">
        <ele>41.469999999999999</ele>
        <time>2025-05-04T13:46:47Z</time>
      </trkpt>
      <trkpt lat="39.165952987968922" lon="-9.2086670268327">
        <ele>40.990000000000002</ele>
        <time>2025-05-04T13:46:52Z</time>
      </trkpt>
      <trkpt lat="39.165888028219342" lon="-9.208860984072089">
        <ele>40.990000000000002</ele>
        <time>2025-05-04T13:46:53Z</time>
      </trkpt>
      <trkpt lat="39.165807981044054" lon="-9.209037004038692">
        <ele>40.990000000000002</ele>
        <time>2025-05-04T13:46:54Z</time>
      </trkpt>
      <trkpt lat="39.165703961625695" lon="-9.209199026226997">
        <ele>41.469999999999999</ele>
        <time>2025-05-04T13:46:55Z</time>
      </trkpt>
      <trkpt lat="39.165577981621027" lon="-9.209344033151865">
        <ele>41.469999999999999</ele>
        <time>2025-05-04T13:46:56Z</time>
      </trkpt>
      <trkpt lat="39.16543398052454" lon="-9.209476970136166">
        <ele>40.990000000000002</ele>
        <time>2025-05-04T13:46:57Z</time>
      </trkpt>
      <trkpt lat="39.165274975821376" lon="-9.209596998989582">
        <ele>40.990000000000002</ele>
        <time>2025-05-04T13:46:58Z</time>
      </trkpt>
      <trkpt lat="39.16259603574872" lon="-9.211212024092674">
        <ele>41.950000000000003</ele>
        <time>2025-05-04T13:47:12Z</time>
      </trkpt>
      <trkpt lat="39.161704033613205" lon="-9.211831027641892">
        <ele>42.920000000000002</ele>
        <time>2025-05-04T13:47:17Z</time>
      </trkpt>
      <trkpt lat="39.161551985889673" lon="-9.21201903373003">
        <ele>42.920000000000002</ele>
        <time>2025-05-04T13:47:18Z</time>
      </trkpt>
      <trkpt lat="39.161330033093691" lon="-9.212482972070575">
        <ele>43.399999999999999</ele>
        <time>2025-05-04T13:47:20Z</time>
      </trkpt>
      <trkpt lat="39.161330033093691" lon="-9.212482972070575">
        <ele>43.880000000000003</ele>
        <time>2025-05-04T13:47:21Z</time>
      </trkpt>
      <trkpt lat="39.161255015060306" lon="-9.212734010070562">
        <ele>44.840000000000003</ele>
        <time>2025-05-04T13:47:22Z</time>
      </trkpt>
      <trkpt lat="39.161130962893367" lon="-9.213269026950002">
        <ele>47.240000000000002</ele>
        <time>2025-05-04T13:47:24Z</time>
      </trkpt>
      <trkpt lat="39.16107103228569" lon="-9.213528027758002">
        <ele>48.68</ele>
        <time>2025-05-04T13:47:25Z</time>
      </trkpt>
      <trkpt lat="39.160997020080686" lon="-9.213783005252481">
        <ele>50.130000000000003</ele>
        <time>2025-05-04T13:47:26Z</time>
      </trkpt>
      <trkpt lat="39.160882020369172" lon="-9.214003030210733">
        <ele>51.090000000000003</ele>
        <time>2025-05-04T13:47:27Z</time>
      </trkpt>
      <trkpt lat="39.160758974030614" lon="-9.214209979400039">
        <ele>52.049999999999997</ele>
        <time>2025-05-04T13:47:28Z</time>
      </trkpt>
      <trkpt lat="39.160595024004579" lon="-9.214365966618061">
        <ele>53.009999999999998</ele>
        <time>2025-05-04T13:47:29Z</time>
      </trkpt>
      <trkpt lat="39.16042897850275" lon="-9.214523965492845">
        <ele>53.969999999999999</ele>
        <time>2025-05-04T13:47:30Z</time>
      </trkpt>
      <trkpt lat="39.160250024870038" lon="-9.214649023488164">
        <ele>54.450000000000003</ele>
        <time>2025-05-04T13:47:31Z</time>
      </trkpt>
      <trkpt lat="39.160048021003604" lon="-9.214757988229394">
        <ele>54.450000000000003</ele>
        <time>2025-05-04T13:47:32Z</time>
      </trkpt>
      <trkpt lat="39.159436980262399" lon="-9.215118996798992">
        <ele>56.369999999999997</ele>
        <time>2025-05-04T13:47:35Z</time>
      </trkpt>
      <trkpt lat="39.159259032458067" lon="-9.215284958481789">
        <ele>56.859999999999999</ele>
        <time>2025-05-04T13:47:36Z</time>
      </trkpt>
      <trkpt lat="39.159103967249393" lon="-9.215476987883449">
        <ele>57.340000000000003</ele>
        <time>2025-05-04T13:47:37Z</time>
      </trkpt>
      <trkpt lat="39.158958960324526" lon="-9.21567496843636">
        <ele>58.299999999999997</ele>
        <time>2025-05-04T13:47:38Z</time>
      </trkpt>
      <trkpt lat="39.158856030553579" lon="-9.215912008658052">
        <ele>59.740000000000002</ele>
        <time>2025-05-04T13:47:39Z</time>
      </trkpt>
      <trkpt lat="39.158474989235401" lon="-9.216871988028288">
        <ele>64.069999999999993</ele>
        <time>2025-05-04T13:47:43Z</time>
      </trkpt>
      <trkpt lat="39.158351020887494" lon="-9.217079021036625">
        <ele>65.030000000000001</ele>
        <time>2025-05-04T13:47:44Z</time>
      </trkpt>
      <trkpt lat="39.158208025619388" lon="-9.217269960790873">
        <ele>65.510000000000005</ele>
        <time>2025-05-04T13:47:45Z</time>
      </trkpt>
      <trkpt lat="39.158052960410714" lon="-9.217448998242617">
        <ele>66.469999999999999</ele>
        <time>2025-05-04T13:47:46Z</time>
      </trkpt>
      <trkpt lat="39.157869983464479" lon="-9.217576989904046">
        <ele>66.950000000000003</ele>
        <time>2025-05-04T13:47:47Z</time>
      </trkpt>
      <trkpt lat="39.1576789598912" lon="-9.21769299544394">
        <ele>66.950000000000003</ele>
        <time>2025-05-04T13:47:48Z</time>
      </trkpt>
      <trkpt lat="39.155938038602471" lon="-9.218856990337372">
        <ele>64.069999999999993</ele>
        <time>2025-05-04T13:47:57Z</time>
      </trkpt>
      <trkpt lat="39.155131028965116" lon="-9.21962502412498">
        <ele>62.140000000000001</ele>
        <time>2025-05-04T13:48:03Z</time>
      </trkpt>
      <trkpt lat="39.154145987704396" lon="-9.220587015151978">
        <ele>60.219999999999999</ele>
        <time>2025-05-04T13:48:12Z</time>
      </trkpt>
      <trkpt lat="39.153546011075377" lon="-9.22121599316597">
        <ele>57.340000000000003</ele>
        <time>2025-05-04T13:48:19Z</time>
      </trkpt>
      <trkpt lat="39.152726009488106" lon="-9.222329026088119">
        <ele>55.409999999999997</ele>
        <time>2025-05-04T13:48:28Z</time>
      </trkpt>
      <trkpt lat="39.151735017076135" lon="-9.22364397905767">
        <ele>56.369999999999997</ele>
        <time>2025-05-04T13:48:39Z</time>
      </trkpt>
      <trkpt lat="39.15065199136734" lon="-9.225049037486315">
        <ele>56.369999999999997</ele>
        <time>2025-05-04T13:48:51Z</time>
      </trkpt>
      <trkpt lat="39.149798965081573" lon="-9.226431967690587">
        <ele>54.93</ele>
        <time>2025-05-04T13:49:02Z</time>
      </trkpt>
      <trkpt lat="39.149370985105634" lon="-9.227237971499562">
        <ele>52.530000000000001</ele>
        <time>2025-05-04T13:49:08Z</time>
      </trkpt>
      <trkpt lat="39.148445958271623" lon="-9.228334994986653">
        <ele>49.649999999999999</ele>
        <time>2025-05-04T13:49:18Z</time>
      </trkpt>
      <trkpt lat="39.147459995001554" lon="-9.229700993746519">
        <ele>47.719999999999999</ele>
        <time>2025-05-04T13:49:29Z</time>
      </trkpt>
      <trkpt lat="39.146587019786239" lon="-9.230692991986871">
        <ele>45.32</ele>
        <time>2025-05-04T13:49:38Z</time>
      </trkpt>
      <trkpt lat="39.145820997655392" lon="-9.23146203160286">
        <ele>46.280000000000001</ele>
        <time>2025-05-04T13:49:47Z</time>
      </trkpt>
      <trkpt lat="39.145664004608989" lon="-9.231611983850598">
        <ele>46.280000000000001</ele>
        <time>2025-05-04T13:49:49Z</time>
      </trkpt>
      <trkpt lat="39.145574988797307" lon="-9.231691025197506">
        <ele>46.280000000000001</ele>
        <time>2025-05-04T13:49:50Z</time>
      </trkpt>
      <trkpt lat="39.145483961328864" lon="-9.231746010482311">
        <ele>46.280000000000001</ele>
        <time>2025-05-04T13:49:51Z</time>
      </trkpt>
      <trkpt lat="39.144951961934566" lon="-9.232019009068608">
        <ele>44.840000000000003</ele>
        <time>2025-05-04T13:49:56Z</time>
      </trkpt>
      <trkpt lat="39.144850037992001" lon="-9.232067037373781">
        <ele>44.840000000000003</ele>
        <time>2025-05-04T13:49:57Z</time>
      </trkpt>
      <trkpt lat="39.14371102117002" lon="-9.232569029554725">
        <ele>44.359999999999999</ele>
        <time>2025-05-04T13:50:08Z</time>
      </trkpt>
      <trkpt lat="39.142649034038186" lon="-9.232941018417478">
        <ele>41.469999999999999</ele>
        <time>2025-05-04T13:50:17Z</time>
      </trkpt>
      <trkpt lat="39.141943026334047" lon="-9.233438987284899">
        <ele>39.549999999999997</ele>
        <time>2025-05-04T13:50:24Z</time>
      </trkpt>
      <trkpt lat="39.141843030229211" lon="-9.233501013368368">
        <ele>39.549999999999997</ele>
        <time>2025-05-04T13:50:25Z</time>
      </trkpt>
      <trkpt lat="39.141730964183807" lon="-9.233544012531638">
        <ele>39.549999999999997</ele>
        <time>2025-05-04T13:50:26Z</time>
      </trkpt>
      <trkpt lat="39.140782970935106" lon="-9.233819022774696">
        <ele>40.509999999999998</ele>
        <time>2025-05-04T13:50:34Z</time>
      </trkpt>
      <trkpt lat="39.13969399407506" lon="-9.233852969482541">
        <ele>42.920000000000002</ele>
        <time>2025-05-04T13:50:44Z</time>
      </trkpt>
      <trkpt lat="39.138566963374615" lon="-9.233779041096568">
        <ele>47.719999999999999</ele>
        <time>2025-05-04T13:50:54Z</time>
      </trkpt>
      <trkpt lat="39.137271959334612" lon="-9.233667980879545">
        <ele>53.009999999999998</ele>
        <time>2025-05-04T13:51:05Z</time>
      </trkpt>
      <trkpt lat="39.136803997680545" lon="-9.233518028631806">
        <ele>55.409999999999997</ele>
        <time>2025-05-04T13:51:09Z</time>
      </trkpt>
      <trkpt lat="39.136680029332638" lon="-9.233479974791408">
        <ele>55.890000000000001</ele>
        <time>2025-05-04T13:51:10Z</time>
      </trkpt>
      <trkpt lat="39.13655798882246" lon="-9.233457008376718">
        <ele>56.369999999999997</ele>
        <time>2025-05-04T13:51:11Z</time>
      </trkpt>
      <trkpt lat="39.136435026302934" lon="-9.233433958142996">
        <ele>56.859999999999999</ele>
        <time>2025-05-04T13:51:12Z</time>
      </trkpt>
      <trkpt lat="39.136308962479234" lon="-9.233437981456518">
        <ele>57.82</ele>
        <time>2025-05-04T13:51:13Z</time>
      </trkpt>
      <trkpt lat="39.136189017444849" lon="-9.233448039740324">
        <ele>58.299999999999997</ele>
        <time>2025-05-04T13:51:14Z</time>
      </trkpt>
      <trkpt lat="39.135324005037546" lon="-9.233563039451838">
        <ele>62.140000000000001</ele>
        <time>2025-05-04T13:51:22Z</time>
      </trkpt>
      <trkpt lat="39.1350759845227" lon="-9.233711985871196">
        <ele>63.579999999999998</ele>
        <time>2025-05-04T13:51:25Z</time>
      </trkpt>
      <trkpt lat="39.134998032823205" lon="-9.233761020004749">
        <ele>64.069999999999993</ele>
        <time>2025-05-04T13:51:26Z</time>
      </trkpt>
      <trkpt lat="39.13490398786962" lon="-9.233811981976032">
        <ele>64.069999999999993</ele>
        <time>2025-05-04T13:51:27Z</time>
      </trkpt>
      <trkpt lat="39.134502997621894" lon="-9.233515011146665">
        <ele>65.030000000000001</ele>
        <time>2025-05-04T13:51:30Z</time>
      </trkpt>
      <trkpt lat="39.134411970153451" lon="-9.233491960912943">
        <ele>65.510000000000005</ele>
        <time>2025-05-04T13:51:31Z</time>
      </trkpt>
      <trkpt lat="39.133459031581879" lon="-9.233044032007456">
        <ele>68.870000000000005</ele>
        <time>2025-05-04T13:51:40Z</time>
      </trkpt>
      <trkpt lat="39.132917979732156" lon="-9.232747983187437">
        <ele>71.269999999999996</ele>
        <time>2025-05-04T13:51:45Z</time>
      </trkpt>
      <trkpt lat="39.132798034697771" lon="-9.232705989852548">
        <ele>71.760000000000005</ele>
        <time>2025-05-04T13:51:46Z</time>
      </trkpt>
      <trkpt lat="39.132684040814638" lon="-9.2326670140028">
        <ele>72.239999999999995</ele>
        <time>2025-05-04T13:51:47Z</time>
      </trkpt>
      <trkpt lat="39.132575998082757" lon="-9.232677994295955">
        <ele>72.719999999999999</ele>
        <time>2025-05-04T13:51:48Z</time>
      </trkpt>
      <trkpt lat="39.132468039169908" lon="-9.232706995680928">
        <ele>72.719999999999999</ele>
        <time>2025-05-04T13:51:49Z</time>
      </trkpt>
      <trkpt lat="39.132356978952885" lon="-9.232735997065902">
        <ele>73.200000000000003</ele>
        <time>2025-05-04T13:51:50Z</time>
      </trkpt>
      <trkpt lat="39.13223996758461" lon="-9.232773967087269">
        <ele>73.200000000000003</ele>
        <time>2025-05-04T13:51:51Z</time>
      </trkpt>
      <trkpt lat="39.132142988964915" lon="-9.232862982898951">
        <ele>73.680000000000007</ele>
        <time>2025-05-04T13:51:52Z</time>
      </trkpt>
      <trkpt lat="39.132047016173601" lon="-9.232953004539013">
        <ele>74.159999999999997</ele>
        <time>2025-05-04T13:51:53Z</time>
      </trkpt>
      <trkpt lat="39.131700005382299" lon="-9.233347959816456">
        <ele>76.079999999999998</ele>
        <time>2025-05-04T13:51:57Z</time>
      </trkpt>
      <trkpt lat="39.131617024540901" lon="-9.233449967578054">
        <ele>76.560000000000002</ele>
        <time>2025-05-04T13:51:58Z</time>
      </trkpt>
      <trkpt lat="39.131548041477799" lon="-9.233582988381386">
        <ele>77.040000000000006</ele>
        <time>2025-05-04T13:51:59Z</time>
      </trkpt>
      <trkpt lat="39.131484003737569" lon="-9.233863027766347">
        <ele>78</ele>
        <time>2025-05-04T13:52:01Z</time>
      </trkpt>
      <trkpt lat="39.131260961294174" lon="-9.234699038788676">
        <ele>81.370000000000005</ele>
        <time>2025-05-04T13:52:08Z</time>
      </trkpt>
      <trkpt lat="39.13120798766613" lon="-9.234805991873145">
        <ele>81.370000000000005</ele>
        <time>2025-05-04T13:52:09Z</time>
      </trkpt>
      <trkpt lat="39.131155014038086" lon="-9.234911017119885">
        <ele>81.370000000000005</ele>
        <time>2025-05-04T13:52:10Z</time>
      </trkpt>
      <trkpt lat="39.131093993782997" lon="-9.234981006011367">
        <ele>81.370000000000005</ele>
        <time>2025-05-04T13:52:11Z</time>
      </trkpt>
      <trkpt lat="39.131004977971315" lon="-9.235042026266456">
        <ele>80.890000000000001</ele>
        <time>2025-05-04T13:52:12Z</time>
      </trkpt>
      <trkpt lat="39.130917973816395" lon="-9.235102962702513">
        <ele>80.890000000000001</ele>
        <time>2025-05-04T13:52:13Z</time>
      </trkpt>
      <trkpt lat="39.130837004631758" lon="-9.235141016542912">
        <ele>80.409999999999997</ele>
        <time>2025-05-04T13:52:14Z</time>
      </trkpt>
      <trkpt lat="39.130738014355302" lon="-9.235110003501177">
        <ele>79.930000000000007</ele>
        <time>2025-05-04T13:52:15Z</time>
      </trkpt>
      <trkpt lat="39.130633994936943" lon="-9.235077984631062">
        <ele>79.450000000000003</ele>
        <time>2025-05-04T13:52:16Z</time>
      </trkpt>
      <trkpt lat="39.130537016317248" lon="-9.235030962154269">
        <ele>78.969999999999999</ele>
        <time>2025-05-04T13:52:17Z</time>
      </trkpt>
      <trkpt lat="39.130269968882203" lon="-9.234830969944596">
        <ele>76.560000000000002</ele>
        <time>2025-05-04T13:52:20Z</time>
      </trkpt>
      <trkpt lat="39.130178019404411" lon="-9.234784031286836">
        <ele>76.079999999999998</ele>
        <time>2025-05-04T13:52:21Z</time>
      </trkpt>
      <trkpt lat="39.130076011642814" lon="-9.23475100658834">
        <ele>75.120000000000005</ele>
        <time>2025-05-04T13:52:22Z</time>
      </trkpt>
      <trkpt lat="39.129967968910933" lon="-9.234745977446437">
        <ele>74.640000000000001</ele>
        <time>2025-05-04T13:52:23Z</time>
      </trkpt>
      <trkpt lat="39.129736963659525" lon="-9.234824012964964">
        <ele>73.680000000000007</ele>
        <time>2025-05-04T13:52:25Z</time>
      </trkpt>
      <trkpt lat="39.129630010575056" lon="-9.234885033220053">
        <ele>73.200000000000003</ele>
        <time>2025-05-04T13:52:26Z</time>
      </trkpt>
      <trkpt lat="39.129529008641839" lon="-9.23494404181838">
        <ele>72.719999999999999</ele>
        <time>2025-05-04T13:52:27Z</time>
      </trkpt>
      <trkpt lat="39.129427000880241" lon="-9.234999027103186">
        <ele>72.239999999999995</ele>
        <time>2025-05-04T13:52:28Z</time>
      </trkpt>
      <trkpt lat="39.129308983683586" lon="-9.235028028488159">
        <ele>71.760000000000005</ele>
        <time>2025-05-04T13:52:29Z</time>
      </trkpt>
      <trkpt lat="39.129185015335679" lon="-9.235030962154269">
        <ele>71.760000000000005</ele>
        <time>2025-05-04T13:52:30Z</time>
      </trkpt>
      <trkpt lat="39.129054006189108" lon="-9.235017970204353">
        <ele>71.760000000000005</ele>
        <time>2025-05-04T13:52:31Z</time>
      </trkpt>
      <trkpt lat="39.128932971507311" lon="-9.234977988526225">
        <ele>71.269999999999996</ele>
        <time>2025-05-04T13:52:32Z</time>
      </trkpt>
      <trkpt lat="39.128812020644546" lon="-9.234938006848097">
        <ele>70.790000000000006</ele>
        <time>2025-05-04T13:52:33Z</time>
      </trkpt>
      <trkpt lat="39.12869299761951" lon="-9.234898025169969">
        <ele>70.790000000000006</ele>
        <time>2025-05-04T13:52:34Z</time>
      </trkpt>
      <trkpt lat="39.127589017152786" lon="-9.234750000759959">
        <ele>66.469999999999999</ele>
        <time>2025-05-04T13:52:43Z</time>
      </trkpt>
      <trkpt lat="39.126654015854001" lon="-9.234939012676477">
        <ele>64.549999999999997</ele>
        <time>2025-05-04T13:52:50Z</time>
      </trkpt>
      <trkpt lat="39.125712979584932" lon="-9.235528009012342">
        <ele>65.510000000000005</ele>
        <time>2025-05-04T13:52:58Z</time>
      </trkpt>
      <trkpt lat="39.125597979873419" lon="-9.235629010945559">
        <ele>65.510000000000005</ele>
        <time>2025-05-04T13:52:59Z</time>
      </trkpt>
      <trkpt lat="39.125105962157249" lon="-9.236258994787931">
        <ele>65.030000000000001</ele>
        <time>2025-05-04T13:53:04Z</time>
      </trkpt>
      <trkpt lat="39.124991968274117" lon="-9.236367959529162">
        <ele>65.030000000000001</ele>
        <time>2025-05-04T13:53:05Z</time>
      </trkpt>
      <trkpt lat="39.124871017411351" lon="-9.236481031402946">
        <ele>64.549999999999997</ele>
        <time>2025-05-04T13:53:06Z</time>
      </trkpt>
      <trkpt lat="39.12474000826478" lon="-9.236604999750853">
        <ele>64.549999999999997</ele>
        <time>2025-05-04T13:53:07Z</time>
      </trkpt>
      <trkpt lat="39.124593995511532" lon="-9.2366630025208">
        <ele>64.069999999999993</ele>
        <time>2025-05-04T13:53:08Z</time>
      </trkpt>
      <trkpt lat="39.123405022546649" lon="-9.237184021621943">
        <ele>62.140000000000001</ele>
        <time>2025-05-04T13:53:15Z</time>
      </trkpt>
      <trkpt lat="39.123216010630131" lon="-9.237291980534792">
        <ele>61.659999999999997</ele>
        <time>2025-05-04T13:53:16Z</time>
      </trkpt>
      <trkpt lat="39.12306203506887" lon="-9.237412009388208">
        <ele>61.18</ele>
        <time>2025-05-04T13:53:17Z</time>
      </trkpt>
      <trkpt lat="39.122918033972383" lon="-9.237578976899386">
        <ele>61.18</ele>
        <time>2025-05-04T13:53:18Z</time>
      </trkpt>
      <trkpt lat="39.122790964320302" lon="-9.237760026007891">
        <ele>60.700000000000003</ele>
        <time>2025-05-04T13:53:19Z</time>
      </trkpt>
      <trkpt lat="39.122694991528988" lon="-9.237969992682338">
        <ele>60.219999999999999</ele>
        <time>2025-05-04T13:53:20Z</time>
      </trkpt>
      <trkpt lat="39.122599018737674" lon="-9.238182976841927">
        <ele>59.740000000000002</ele>
        <time>2025-05-04T13:53:21Z</time>
      </trkpt>
      <trkpt lat="39.122501034289598" lon="-9.238396966829896">
        <ele>59.259999999999998</ele>
        <time>2025-05-04T13:53:22Z</time>
      </trkpt>
      <trkpt lat="39.122444959357381" lon="-9.238642975687981">
        <ele>58.780000000000001</ele>
        <time>2025-05-04T13:53:23Z</time>
      </trkpt>
      <trkpt lat="39.122192999348044" lon="-9.239842006936669">
        <ele>57.82</ele>
        <time>2025-05-04T13:53:28Z</time>
      </trkpt>
      <trkpt lat="39.122111024335027" lon="-9.240060020238161">
        <ele>57.340000000000003</ele>
        <time>2025-05-04T13:53:29Z</time>
      </trkpt>
      <trkpt lat="39.122001975774765" lon="-9.240248026326299">
        <ele>56.859999999999999</ele>
        <time>2025-05-04T13:53:30Z</time>
      </trkpt>
      <trkpt lat="39.121869960799813" lon="-9.240423962473869">
        <ele>56.369999999999997</ele>
        <time>2025-05-04T13:53:31Z</time>
      </trkpt>
      <trkpt lat="39.12173300050199" lon="-9.240600988268852">
        <ele>55.890000000000001</ele>
        <time>2025-05-04T13:53:32Z</time>
      </trkpt>
      <trkpt lat="39.120538998395205" lon="-9.242032030597329">
        <ele>51.090000000000003</ele>
        <time>2025-05-04T13:53:40Z</time>
      </trkpt>
      <trkpt lat="39.120216965675354" lon="-9.242373006418347">
        <ele>50.609999999999999</ele>
        <time>2025-05-04T13:53:42Z</time>
      </trkpt>
      <trkpt lat="39.120039017871022" lon="-9.242511978372932">
        <ele>50.609999999999999</ele>
        <time>2025-05-04T13:53:43Z</time>
      </trkpt>
      <trkpt lat="39.11984296515584" lon="-9.242622032761574">
        <ele>50.609999999999999</ele>
        <time>2025-05-04T13:53:44Z</time>
      </trkpt>
      <trkpt lat="39.119650013744831" lon="-9.242729991674423">
        <ele>50.130000000000003</ele>
        <time>2025-05-04T13:53:45Z</time>
      </trkpt>
      <trkpt lat="39.119451027363539" lon="-9.242783971130848">
        <ele>50.609999999999999</ele>
        <time>2025-05-04T13:53:46Z</time>
      </trkpt>
      <trkpt lat="39.119243994355202" lon="-9.242814984172583">
        <ele>50.130000000000003</ele>
        <time>2025-05-04T13:53:47Z</time>
      </trkpt>
      <trkpt lat="39.119036039337516" lon="-9.242845997214317">
        <ele>50.130000000000003</ele>
        <time>2025-05-04T13:53:48Z</time>
      </trkpt>
      <trkpt lat="39.118829006329179" lon="-9.242844991385937">
        <ele>50.130000000000003</ele>
        <time>2025-05-04T13:53:49Z</time>
      </trkpt>
      <trkpt lat="39.117438029497862" lon="-9.242796963080764">
        <ele>48.68</ele>
        <time>2025-05-04T13:53:56Z</time>
      </trkpt>
      <trkpt lat="39.117238959297538" lon="-9.242824958637357">
        <ele>48.68</ele>
        <time>2025-05-04T13:53:57Z</time>
      </trkpt>
      <trkpt lat="39.117052964866161" lon="-9.242886984720826">
        <ele>48.200000000000003</ele>
        <time>2025-05-04T13:53:58Z</time>
      </trkpt>
      <trkpt lat="39.116902006790042" lon="-9.242991004139185">
        <ele>48.200000000000003</ele>
        <time>2025-05-04T13:53:59Z</time>
      </trkpt>
      <trkpt lat="39.116760017350316" lon="-9.243095023557544">
        <ele>48.200000000000003</ele>
        <time>2025-05-04T13:54:00Z</time>
      </trkpt>
      <trkpt lat="39.116634959354997" lon="-9.243215974420309">
        <ele>48.200000000000003</ele>
        <time>2025-05-04T13:54:01Z</time>
      </trkpt>
      <trkpt lat="39.115528967231512" lon="-9.24459395930171">
        <ele>47.719999999999999</ele>
        <time>2025-05-04T13:54:10Z</time>
      </trkpt>
      <trkpt lat="39.115403993055224" lon="-9.244747012853622">
        <ele>47.719999999999999</ele>
        <time>2025-05-04T13:54:11Z</time>
      </trkpt>
      <trkpt lat="39.11528798751533" lon="-9.244906017556787">
        <ele>47.240000000000002</ele>
        <time>2025-05-04T13:54:12Z</time>
      </trkpt>
      <trkpt lat="39.115183968096972" lon="-9.245066028088331">
        <ele>47.240000000000002</ele>
        <time>2025-05-04T13:54:13Z</time>
      </trkpt>
      <trkpt lat="39.115087995305657" lon="-9.245212962850928">
        <ele>46.759999999999998</ele>
        <time>2025-05-04T13:54:14Z</time>
      </trkpt>
      <trkpt lat="39.115014988929033" lon="-9.245370961725712">
        <ele>46.759999999999998</ele>
        <time>2025-05-04T13:54:15Z</time>
      </trkpt>
      <trkpt lat="39.114946005865932" lon="-9.245542958378792">
        <ele>46.280000000000001</ele>
        <time>2025-05-04T13:54:16Z</time>
      </trkpt>
      <trkpt lat="39.114895965903997" lon="-9.245726019144058">
        <ele>46.280000000000001</ele>
        <time>2025-05-04T13:54:17Z</time>
      </trkpt>
      <trkpt lat="39.114317027851939" lon="-9.24747297540307">
        <ele>43.399999999999999</ele>
        <time>2025-05-04T13:54:25Z</time>
      </trkpt>
      <trkpt lat="39.11382501013577" lon="-9.248565975576639">
        <ele>40.509999999999998</ele>
        <time>2025-05-04T13:54:33Z</time>
      </trkpt>
      <trkpt lat="39.113647984340787" lon="-9.248936958611012">
        <ele>38.590000000000003</ele>
        <time>2025-05-04T13:54:37Z</time>
      </trkpt>
      <trkpt lat="39.113553017377853" lon="-9.249115996062756">
        <ele>35.229999999999997</ele>
        <time>2025-05-04T13:54:45Z</time>
      </trkpt>
      <trkpt lat="39.113553017377853" lon="-9.249115996062756">
        <ele>35.229999999999997</ele>
        <time>2025-05-04T13:55:09Z</time>
      </trkpt>
      <trkpt lat="39.113553017377853" lon="-9.249115996062756">
        <ele>35.229999999999997</ele>
        <time>2025-05-04T13:55:32Z</time>
      </trkpt>
      <trkpt lat="39.113553017377853" lon="-9.249115996062756">
        <ele>34.740000000000002</ele>
        <time>2025-05-04T13:55:36Z</time>
      </trkpt>
      <trkpt lat="39.113453021273017" lon="-9.248969983309507">
        <ele>33.299999999999997</ele>
        <time>2025-05-04T13:55:41Z</time>
      </trkpt>
      <trkpt lat="39.113398035988212" lon="-9.248832017183304">
        <ele>33.299999999999997</ele>
        <time>2025-05-04T13:55:55Z</time>
      </trkpt>
      <trkpt lat="39.114420041441917" lon="-9.248529011383653">
        <ele>128.94999999999999</ele>
        <time>2025-05-04T14:01:47Z</time>
      </trkpt>
      <trkpt lat="39.113844037055969" lon="-9.248526999726892">
        <ele>109.25</ele>
        <time>2025-05-04T14:01:55Z</time>
      </trkpt>
      <trkpt lat="39.113830039277673" lon="-9.248556001111865">
        <ele>77.519999999999996</ele>
        <time>2025-05-04T14:02:14Z</time>
      </trkpt>
      <trkpt lat="39.113830039277673" lon="-9.248556001111865">
        <ele>51.090000000000003</ele>
        <time>2025-05-04T14:02:42Z</time>
      </trkpt>
      <trkpt lat="39.113830039277673" lon="-9.248556001111865">
        <ele>42.920000000000002</ele>
        <time>2025-05-04T14:03:16Z</time>
      </trkpt>
      <trkpt lat="39.113830039277673" lon="-9.248556001111865">
        <ele>40.030000000000001</ele>
        <time>2025-05-04T14:03:52Z</time>
      </trkpt>
      <trkpt lat="39.113830039277673" lon="-9.248556001111865">
        <ele>40.030000000000001</ele>
        <time>2025-05-04T14:04:27Z</time>
      </trkpt>
      <trkpt lat="39.113830039277673" lon="-9.248556001111865">
        <ele>40.030000000000001</ele>
        <time>2025-05-04T14:04:56Z</time>
      </trkpt>
      <trkpt lat="39.113830039277673" lon="-9.248556001111865">
        <ele>40.030000000000001</ele>
        <time>2025-05-04T14:05:21Z</time>
      </trkpt>
      <trkpt lat="39.113830039277673" lon="-9.248556001111865">
        <ele>40.030000000000001</ele>
        <time>2025-05-04T14:05:55Z</time>
      </trkpt>
      <trkpt lat="39.113830039277673" lon="-9.248556001111865">
        <ele>40.030000000000001</ele>
        <time>2025-05-04T14:06:24Z</time>
      </trkpt>
      <trkpt lat="39.113830039277673" lon="-9.248556001111865">
        <ele>40.030000000000001</ele>
        <time>2025-05-04T14:07:03Z</time>
      </trkpt>
      <trkpt lat="39.113830039277673" lon="-9.248556001111865">
        <ele>40.509999999999998</ele>
        <time>2025-05-04T14:07:40Z</time>
      </trkpt>
      <trkpt lat="39.113830039277673" lon="-9.248556001111865">
        <ele>40.509999999999998</ele>
        <time>2025-05-04T14:08:29Z</time>
      </trkpt>
      <trkpt lat="39.113830039277673" lon="-9.248556001111865">
        <ele>39.549999999999997</ele>
        <time>2025-05-04T14:09:11Z</time>
      </trkpt>
      <trkpt lat="39.113830039277673" lon="-9.248556001111865">
        <ele>38.590000000000003</ele>
        <time>2025-05-04T14:09:49Z</time>
      </trkpt>
      <trkpt lat="39.113830039277673" lon="-9.248556001111865">
        <ele>38.590000000000003</ele>
        <time>2025-05-04T14:10:20Z</time>
      </trkpt>
      <trkpt lat="39.113830039277673" lon="-9.248556001111865">
        <ele>38.590000000000003</ele>
        <time>2025-05-04T14:10:52Z</time>
      </trkpt>
      <trkpt lat="39.113830039277673" lon="-9.248556001111865">
        <ele>38.590000000000003</ele>
        <time>2025-05-04T14:11:34Z</time>
      </trkpt>
      <trkpt lat="39.113830039277673" lon="-9.248556001111865">
        <ele>38.590000000000003</ele>
        <time>2025-05-04T14:12:16Z</time>
      </trkpt>
      <trkpt lat="39.113710010424256" lon="-9.248807039111853">
        <ele>38.109999999999999</ele>
        <time>2025-05-04T14:12:20Z</time>
      </trkpt>
      <trkpt lat="39.113699030131102" lon="-9.248828999698162">
        <ele>38.109999999999999</ele>
        <time>2025-05-04T14:12:21Z</time>
      </trkpt>
      <trkpt lat="39.113687966018915" lon="-9.248851966112852">
        <ele>38.109999999999999</ele>
        <time>2025-05-04T14:12:22Z</time>
      </trkpt>
      <trkpt lat="39.113453021273017" lon="-9.249310959130526">
        <ele>37.630000000000003</ele>
        <time>2025-05-04T14:12:35Z</time>
      </trkpt>
      <trkpt lat="39.113453021273017" lon="-9.249310959130526">
        <ele>38.590000000000003</ele>
        <time>2025-05-04T14:12:49Z</time>
      </trkpt>
      <trkpt lat="39.113442962989211" lon="-9.249330991879106">
        <ele>40.509999999999998</ele>
        <time>2025-05-04T14:12:51Z</time>
      </trkpt>
      <trkpt lat="39.113415973260999" lon="-9.249385977163911">
        <ele>40.990000000000002</ele>
        <time>2025-05-04T14:12:52Z</time>
      </trkpt>
      <trkpt lat="39.11337599158287" lon="-9.24946803599596">
        <ele>41.469999999999999</ele>
        <time>2025-05-04T14:12:53Z</time>
      </trkpt>
      <trkpt lat="39.113328969106078" lon="-9.249566020444036">
        <ele>41.469999999999999</ele>
        <time>2025-05-04T14:12:54Z</time>
      </trkpt>
      <trkpt lat="39.113272977992892" lon="-9.249679008498788">
        <ele>41.469999999999999</ele>
        <time>2025-05-04T14:12:55Z</time>
      </trkpt>
      <trkpt lat="39.112916998565197" lon="-9.250387027859688">
        <ele>40.990000000000002</ele>
        <time>2025-05-04T14:13:00Z</time>
      </trkpt>
      <trkpt lat="39.112453982234001" lon="-9.251117007806897">
        <ele>39.549999999999997</ele>
        <time>2025-05-04T14:13:05Z</time>
      </trkpt>
      <trkpt lat="39.112378964200616" lon="-9.2512740008533">
        <ele>39.07</ele>
        <time>2025-05-04T14:13:06Z</time>
      </trkpt>
      <trkpt lat="39.112176038324833" lon="-9.251737017184496">
        <ele>38.590000000000003</ele>
        <time>2025-05-04T14:13:09Z</time>
      </trkpt>
      <trkpt lat="39.111826010048389" lon="-9.252690961584449">
        <ele>37.630000000000003</ele>
        <time>2025-05-04T14:13:15Z</time>
      </trkpt>
      <trkpt lat="39.111802959814668" lon="-9.252866981551051">
        <ele>37.630000000000003</ele>
        <time>2025-05-04T14:13:16Z</time>
      </trkpt>
      <trkpt lat="39.11180698312819" lon="-9.253046019002795">
        <ele>37.149999999999999</ele>
        <time>2025-05-04T14:13:17Z</time>
      </trkpt>
      <trkpt lat="39.111811006441712" lon="-9.253234025090933">
        <ele>37.149999999999999</ele>
        <time>2025-05-04T14:13:18Z</time>
      </trkpt>
      <trkpt lat="39.111815029755235" lon="-9.253422031179071">
        <ele>36.670000000000002</ele>
        <time>2025-05-04T14:13:19Z</time>
      </trkpt>
      <trkpt lat="39.111818969249725" lon="-9.253601990640163">
        <ele>36.670000000000002</ele>
        <time>2025-05-04T14:13:20Z</time>
      </trkpt>
      <trkpt lat="39.111820980906487" lon="-9.253778010606766">
        <ele>36.189999999999998</ele>
        <time>2025-05-04T14:13:21Z</time>
      </trkpt>
      <trkpt lat="39.111801031976938" lon="-9.253942966461182">
        <ele>35.710000000000001</ele>
        <time>2025-05-04T14:13:22Z</time>
      </trkpt>
      <trkpt lat="39.111735988408327" lon="-9.254108006134629">
        <ele>35.710000000000001</ele>
        <time>2025-05-04T14:13:23Z</time>
      </trkpt>
      <trkpt lat="39.111675973981619" lon="-9.25426097586751">
        <ele>35.229999999999997</ele>
        <time>2025-05-04T14:13:24Z</time>
      </trkpt>
      <trkpt lat="39.111607996746898" lon="-9.254436995834112">
        <ele>35.229999999999997</ele>
        <time>2025-05-04T14:13:25Z</time>
      </trkpt>
      <trkpt lat="39.11152602173388" lon="-9.254547972232103">
        <ele>35.229999999999997</ele>
        <time>2025-05-04T14:13:26Z</time>
      </trkpt>
      <trkpt lat="39.111428959295154" lon="-9.254679987207055">
        <ele>35.229999999999997</ele>
        <time>2025-05-04T14:13:27Z</time>
      </trkpt>
      <trkpt lat="39.110736027359962" lon="-9.255667040124536">
        <ele>35.710000000000001</ele>
        <time>2025-05-04T14:13:35Z</time>
      </trkpt>
      <trkpt lat="39.109803959727287" lon="-9.256782000884414">
        <ele>35.229999999999997</ele>
        <time>2025-05-04T14:13:45Z</time>
      </trkpt>
      <trkpt lat="39.1093560308218" lon="-9.257403016090393">
        <ele>35.710000000000001</ele>
        <time>2025-05-04T14:13:50Z</time>
      </trkpt>
      <trkpt lat="39.109258968383074" lon="-9.257506029680371">
        <ele>36.189999999999998</ele>
        <time>2025-05-04T14:13:51Z</time>
      </trkpt>
      <trkpt lat="39.109161989763379" lon="-9.257608959451318">
        <ele>36.189999999999998</ele>
        <time>2025-05-04T14:13:52Z</time>
      </trkpt>
      <trkpt lat="39.109052019193769" lon="-9.25769504159689">
        <ele>36.670000000000002</ele>
        <time>2025-05-04T14:13:53Z</time>
      </trkpt>
      <trkpt lat="39.108931990340352" lon="-9.257766958326101">
        <ele>36.670000000000002</ele>
        <time>2025-05-04T14:13:54Z</time>
      </trkpt>
      <trkpt lat="39.108807016164064" lon="-9.257808029651642">
        <ele>36.670000000000002</ele>
        <time>2025-05-04T14:13:55Z</time>
      </trkpt>
      <trkpt lat="39.108678018674254" lon="-9.25784801132977">
        <ele>37.149999999999999</ele>
        <time>2025-05-04T14:13:56Z</time>
      </trkpt>
      <trkpt lat="39.108539968729019" lon="-9.25784801132977">
        <ele>37.149999999999999</ele>
        <time>2025-05-04T14:13:57Z</time>
      </trkpt>
      <trkpt lat="39.108398985117674" lon="-9.25784801132977">
        <ele>37.149999999999999</ele>
        <time>2025-05-04T14:13:58Z</time>
      </trkpt>
      <trkpt lat="39.107974022626877" lon="-9.257897967472673">
        <ele>38.109999999999999</ele>
        <time>2025-05-04T14:14:01Z</time>
      </trkpt>
      <trkpt lat="39.107430959120393" lon="-9.258014978840947">
        <ele>40.030000000000001</ele>
        <time>2025-05-04T14:14:05Z</time>
      </trkpt>
      <trkpt lat="39.107297016307712" lon="-9.258001986891031">
        <ele>40.509999999999998</ele>
        <time>2025-05-04T14:14:06Z</time>
      </trkpt>
      <trkpt lat="39.106936007738113" lon="-9.258001986891031">
        <ele>40.990000000000002</ele>
        <time>2025-05-04T14:14:09Z</time>
      </trkpt>
      <trkpt lat="39.10684104077518" lon="-9.258046997711062">
        <ele>41.469999999999999</ele>
        <time>2025-05-04T14:14:10Z</time>
      </trkpt>
      <trkpt lat="39.106754958629608" lon="-9.258140036836267">
        <ele>41.950000000000003</ele>
        <time>2025-05-04T14:14:11Z</time>
      </trkpt>
      <trkpt lat="39.106666026636958" lon="-9.258236009627581">
        <ele>42.439999999999998</ele>
        <time>2025-05-04T14:14:12Z</time>
      </trkpt>
      <trkpt lat="39.106608023867011" lon="-9.258299041539431">
        <ele>42.920000000000002</ele>
        <time>2025-05-04T14:14:13Z</time>
      </trkpt>
      <trkpt lat="39.106211978942156" lon="-9.258854007348418">
        <ele>45.32</ele>
        <time>2025-05-04T14:14:18Z</time>
      </trkpt>
      <trkpt lat="39.106165962293744" lon="-9.258946962654591">
        <ele>45.32</ele>
        <time>2025-05-04T14:14:19Z</time>
      </trkpt>
      <trkpt lat="39.106121035292745" lon="-9.259036984294653">
        <ele>45.799999999999997</ele>
        <time>2025-05-04T14:14:20Z</time>
      </trkpt>
      <trkpt lat="39.106102008372545" lon="-9.259233037009835">
        <ele>46.280000000000001</ele>
        <time>2025-05-04T14:14:22Z</time>
      </trkpt>
      <trkpt lat="39.106079963967204" lon="-9.259291961789131">
        <ele>46.759999999999998</ele>
        <time>2025-05-04T14:14:23Z</time>
      </trkpt>
      <trkpt lat="39.106003018096089" lon="-9.259344013407826">
        <ele>47.240000000000002</ele>
        <time>2025-05-04T14:14:24Z</time>
      </trkpt>
      <trkpt lat="39.10594099201262" lon="-9.259306965395808">
        <ele>47.719999999999999</ele>
        <time>2025-05-04T14:14:25Z</time>
      </trkpt>
      <trkpt lat="39.105867985635996" lon="-9.259270001202822">
        <ele>47.719999999999999</ele>
        <time>2025-05-04T14:14:26Z</time>
      </trkpt>
      <trkpt lat="39.105785004794598" lon="-9.259229013696313">
        <ele>48.200000000000003</ele>
        <time>2025-05-04T14:14:27Z</time>
      </trkpt>
      <trkpt lat="39.105693977326155" lon="-9.259187020361424">
        <ele>48.200000000000003</ele>
        <time>2025-05-04T14:14:28Z</time>
      </trkpt>
      <trkpt lat="39.105499014258385" lon="-9.259112002328038">
        <ele>48.200000000000003</ele>
        <time>2025-05-04T14:14:30Z</time>
      </trkpt>
      <trkpt lat="39.10529600456357" lon="-9.259076965972781">
        <ele>48.200000000000003</ele>
        <time>2025-05-04T14:14:32Z</time>
      </trkpt>
      <trkpt lat="39.105078997090459" lon="-9.259053999558091">
        <ele>48.200000000000003</ele>
        <time>2025-05-04T14:14:34Z</time>
      </trkpt>
      <trkpt lat="39.104976989328861" lon="-9.259049976244569">
        <ele>48.200000000000003</ele>
        <time>2025-05-04T14:14:35Z</time>
      </trkpt>
      <trkpt lat="39.104864001274109" lon="-9.259069003164768">
        <ele>48.200000000000003</ele>
        <time>2025-05-04T14:14:36Z</time>
      </trkpt>
      <trkpt lat="39.104755958542228" lon="-9.259108984842897">
        <ele>47.719999999999999</ele>
        <time>2025-05-04T14:14:37Z</time>
      </trkpt>
      <trkpt lat="39.104637019336224" lon="-9.259159024804831">
        <ele>47.240000000000002</ele>
        <time>2025-05-04T14:14:38Z</time>
      </trkpt>
      <trkpt lat="39.103983985260129" lon="-9.259389024227858">
        <ele>44.840000000000003</ele>
        <time>2025-05-04T14:14:44Z</time>
      </trkpt>
      <trkpt lat="39.103637980297208" lon="-9.259376032277942">
        <ele>42.920000000000002</ele>
        <time>2025-05-04T14:14:47Z</time>
      </trkpt>
      <trkpt lat="39.103528009727597" lon="-9.259363040328026">
        <ele>42.439999999999998</ele>
        <time>2025-05-04T14:14:48Z</time>
      </trkpt>
      <trkpt lat="39.102584039792418" lon="-9.259103033691645">
        <ele>38.590000000000003</ele>
        <time>2025-05-04T14:14:58Z</time>
      </trkpt>
      <trkpt lat="39.102033013477921" lon="-9.258947968482971">
        <ele>35.710000000000001</ele>
        <time>2025-05-04T14:15:06Z</time>
      </trkpt>
      <trkpt lat="39.101506965234876" lon="-9.258934976533055">
        <ele>34.259999999999998</ele>
        <time>2025-05-04T14:15:13Z</time>
      </trkpt>
      <trkpt lat="39.101420966908336" lon="-9.258954003453255">
        <ele>34.259999999999998</ele>
        <time>2025-05-04T14:15:14Z</time>
      </trkpt>
      <trkpt lat="39.101332034915686" lon="-9.258984010666609">
        <ele>33.780000000000001</ele>
        <time>2025-05-04T14:15:15Z</time>
      </trkpt>
      <trkpt lat="39.100872036069632" lon="-9.259261032566428">
        <ele>32.82</ele>
        <time>2025-05-04T14:15:22Z</time>
      </trkpt>
      <trkpt lat="39.10080598667264" lon="-9.259317023679614">
        <ele>32.82</ele>
        <time>2025-05-04T14:15:23Z</time>
      </trkpt>
      <trkpt lat="39.100744966417551" lon="-9.259387012571096">
        <ele>32.82</ele>
        <time>2025-05-04T14:15:24Z</time>
      </trkpt>
      <trkpt lat="39.100256972014904" lon="-9.259865032508969">
        <ele>31.859999999999999</ele>
        <time>2025-05-04T14:15:31Z</time>
      </trkpt>
      <trkpt lat="39.100171979516745" lon="-9.259908031672239">
        <ele>31.859999999999999</ele>
        <time>2025-05-04T14:15:32Z</time>
      </trkpt>
      <trkpt lat="39.100084975361824" lon="-9.259951030835509">
        <ele>31.859999999999999</ele>
        <time>2025-05-04T14:15:33Z</time>
      </trkpt>
      <trkpt lat="39.099027011543512" lon="-9.260245990008116">
        <ele>33.299999999999997</ele>
        <time>2025-05-04T14:15:46Z</time>
      </trkpt>
      <trkpt lat="39.098652005195618" lon="-9.260337017476559">
        <ele>34.259999999999998</ele>
        <time>2025-05-04T14:15:53Z</time>
      </trkpt>
      <trkpt lat="39.098475985229015" lon="-9.260324025526643">
        <ele>34.259999999999998</ele>
        <time>2025-05-04T14:16:01Z</time>
      </trkpt>
      <trkpt lat="39.098390992730856" lon="-9.260267028585076">
        <ele>34.259999999999998</ele>
        <time>2025-05-04T14:16:08Z</time>
      </trkpt>
      <trkpt lat="39.098304994404316" lon="-9.26029703579843">
        <ele>34.259999999999998</ele>
        <time>2025-05-04T14:16:09Z</time>
      </trkpt>
      <trkpt lat="39.098256966099143" lon="-9.260330982506275">
        <ele>34.259999999999998</ele>
        <time>2025-05-04T14:16:10Z</time>
      </trkpt>
      <trkpt lat="39.097552970051765" lon="-9.260166026651859">
        <ele>34.259999999999998</ele>
        <time>2025-05-04T14:16:18Z</time>
      </trkpt>
      <trkpt lat="39.097048966214061" lon="-9.259968968108296">
        <ele>33.299999999999997</ele>
        <time>2025-05-04T14:16:27Z</time>
      </trkpt>
      <trkpt lat="39.096908988431096" lon="-9.260037029162049">
        <ele>33.299999999999997</ele>
        <time>2025-05-04T14:16:28Z</time>
      </trkpt>
      <trkpt lat="39.096908988431096" lon="-9.260037029162049">
        <ele>33.299999999999997</ele>
        <time>2025-05-04T14:16:29Z</time>
      </trkpt>
      <trkpt lat="39.096908988431096" lon="-9.260037029162049">
        <ele>32.82</ele>
        <time>2025-05-04T14:16:30Z</time>
      </trkpt>
      <trkpt lat="39.09685299731791" lon="-9.260266022756696">
        <ele>32.82</ele>
        <time>2025-05-04T14:16:31Z</time>
      </trkpt>
      <trkpt lat="39.096864983439445" lon="-9.260351015254855">
        <ele>32.340000000000003</ele>
        <time>2025-05-04T14:16:32Z</time>
      </trkpt>
      <trkpt lat="39.096880992874503" lon="-9.260443970561028">
        <ele>31.859999999999999</ele>
        <time>2025-05-04T14:16:33Z</time>
      </trkpt>
      <trkpt lat="39.096898008137941" lon="-9.260539021342993">
        <ele>31.379999999999999</ele>
        <time>2025-05-04T14:16:34Z</time>
      </trkpt>
      <trkpt lat="39.09691502340138" lon="-9.260634994134307">
        <ele>31.379999999999999</ele>
        <time>2025-05-04T14:16:35Z</time>
      </trkpt>
      <trkpt lat="39.096932038664818" lon="-9.260733984410763">
        <ele>30.899999999999999</ele>
        <time>2025-05-04T14:16:36Z</time>
      </trkpt>
      <trkpt lat="39.096952993422747" lon="-9.260844038799405">
        <ele>30.420000000000002</ele>
        <time>2025-05-04T14:16:37Z</time>
      </trkpt>
      <trkpt lat="39.096975037828088" lon="-9.260960966348648">
        <ele>30.420000000000002</ele>
        <time>2025-05-04T14:16:38Z</time>
      </trkpt>
      <trkpt lat="39.096994986757636" lon="-9.261066997423768">
        <ele>29.940000000000001</ele>
        <time>2025-05-04T14:16:39Z</time>
      </trkpt>
      <trkpt lat="39.096985012292862" lon="-9.261202029883862">
        <ele>29.940000000000001</ele>
        <time>2025-05-04T14:16:40Z</time>
      </trkpt>
      <trkpt lat="39.096976965665817" lon="-9.261323986575007">
        <ele>29.460000000000001</ele>
        <time>2025-05-04T14:16:41Z</time>
      </trkpt>
      <trkpt lat="39.096947964280844" lon="-9.261428005993366">
        <ele>28.98</ele>
        <time>2025-05-04T14:16:42Z</time>
      </trkpt>
      <trkpt lat="39.09691502340138" lon="-9.261508975178003">
        <ele>28.5</ele>
        <time>2025-05-04T14:16:43Z</time>
      </trkpt>
      <trkpt lat="39.096890967339277" lon="-9.26156597211957">
        <ele>28.02</ele>
        <time>2025-05-04T14:16:44Z</time>
      </trkpt>
      <trkpt lat="39.096865989267826" lon="-9.261624980717897">
        <ele>28.02</ele>
        <time>2025-05-04T14:16:45Z</time>
      </trkpt>
      <trkpt lat="39.096835982054472" lon="-9.261665968224406">
        <ele>27.530000000000001</ele>
        <time>2025-05-04T14:16:46Z</time>
      </trkpt>
      <trkpt lat="39.096802035346627" lon="-9.261711984872818">
        <ele>27.050000000000001</ele>
        <time>2025-05-04T14:16:47Z</time>
      </trkpt>
      <trkpt lat="39.096770016476512" lon="-9.261756995692849">
        <ele>27.050000000000001</ele>
        <time>2025-05-04T14:16:48Z</time>
      </trkpt>
      <trkpt lat="39.09657496958971" lon="-9.262027982622385">
        <ele>25.609999999999999</ele>
        <time>2025-05-04T14:16:55Z</time>
      </trkpt>
      <trkpt lat="39.09655099734664" lon="-9.262062013149262">
        <ele>25.609999999999999</ele>
        <time>2025-05-04T14:16:56Z</time>
      </trkpt>
      <trkpt lat="39.096519984304905" lon="-9.262105012312532">
        <ele>25.129999999999999</ele>
        <time>2025-05-04T14:16:57Z</time>
      </trkpt>
      <trkpt lat="39.096320997923613" lon="-9.262880003079772">
        <ele>23.210000000000001</ele>
        <time>2025-05-04T14:17:05Z</time>
      </trkpt>
      <trkpt lat="39.096044981852174" lon="-9.264095965772867">
        <ele>22.73</ele>
        <time>2025-05-04T14:17:14Z</time>
      </trkpt>
      <trkpt lat="39.095903998240829" lon="-9.264910016208887">
        <ele>20.809999999999999</ele>
        <time>2025-05-04T14:17:19Z</time>
      </trkpt>
      <trkpt lat="39.095892012119293" lon="-9.265085030347109">
        <ele>20.32</ele>
        <time>2025-05-04T14:17:20Z</time>
      </trkpt>
      <trkpt lat="39.095897041261196" lon="-9.266883032396436">
        <ele>14.56</ele>
        <time>2025-05-04T14:17:31Z</time>
      </trkpt>
      <trkpt lat="39.096007011830807" lon="-9.26783999428153">
        <ele>14.56</ele>
        <time>2025-05-04T14:17:37Z</time>
      </trkpt>
      <trkpt lat="39.096055962145329" lon="-9.267934039235115">
        <ele>15.52</ele>
        <time>2025-05-04T14:17:38Z</time>
      </trkpt>
      <trkpt lat="39.096107007935643" lon="-9.268024982884526">
        <ele>16</ele>
        <time>2025-05-04T14:17:39Z</time>
      </trkpt>
      <trkpt lat="39.09620700404048" lon="-9.268206031993032">
        <ele>17.440000000000001</ele>
        <time>2025-05-04T14:17:41Z</time>
      </trkpt>
      <trkpt lat="39.096239022910595" lon="-9.268293036147952">
        <ele>17.920000000000002</ele>
        <time>2025-05-04T14:17:42Z</time>
      </trkpt>
      <trkpt lat="39.096256960183382" lon="-9.268413987010717">
        <ele>17.920000000000002</ele>
        <time>2025-05-04T14:17:43Z</time>
      </trkpt>
      <trkpt lat="39.096243968233466" lon="-9.268491016700864">
        <ele>18.399999999999999</ele>
        <time>2025-05-04T14:17:44Z</time>
      </trkpt>
      <trkpt lat="39.096160987392068" lon="-9.268573997542262">
        <ele>18.879999999999999</ele>
        <time>2025-05-04T14:17:45Z</time>
      </trkpt>
      <trkpt lat="39.09607800655067" lon="-9.268598975613713">
        <ele>18.879999999999999</ele>
        <time>2025-05-04T14:17:46Z</time>
      </trkpt>
      <trkpt lat="39.096051016822457" lon="-9.268598975613713">
        <ele>19.84</ele>
        <time>2025-05-04T14:17:47Z</time>
      </trkpt>
      <trkpt lat="39.09594900906086" lon="-9.268496967852116">
        <ele>19.84</ele>
        <time>2025-05-04T14:17:48Z</time>
      </trkpt>
      <trkpt lat="39.095814982429147" lon="-9.268417004495859">
        <ele>20.32</ele>
        <time>2025-05-04T14:17:49Z</time>
      </trkpt>
      <trkpt lat="39.095719009637833" lon="-9.268427984789014">
        <ele>20.32</ele>
        <time>2025-05-04T14:17:50Z</time>
      </trkpt>
      <trkpt lat="39.095612978562713" lon="-9.268437037244439">
        <ele>20.32</ele>
        <time>2025-05-04T14:17:51Z</time>
      </trkpt>
      <trkpt lat="39.095493033528328" lon="-9.268448017537594">
        <ele>20.809999999999999</ele>
        <time>2025-05-04T14:17:52Z</time>
      </trkpt>
      <trkpt lat="39.094543028622866" lon="-9.268287001177669">
        <ele>22.25</ele>
        <time>2025-05-04T14:17:59Z</time>
      </trkpt>
      <trkpt lat="39.092649975791574" lon="-9.267334984615445">
        <ele>22.73</ele>
        <time>2025-05-04T14:18:12Z</time>
      </trkpt>
      <trkpt lat="39.092102972790599" lon="-9.26685000769794">
        <ele>23.690000000000001</ele>
        <time>2025-05-04T14:18:17Z</time>
      </trkpt>
      <trkpt lat="39.09191002137959" lon="-9.266706006601453">
        <ele>25.129999999999999</ele>
        <time>2025-05-04T14:18:19Z</time>
      </trkpt>
      <trkpt lat="39.09184698946774" lon="-9.26665797829628">
        <ele>25.609999999999999</ele>
        <time>2025-05-04T14:18:20Z</time>
      </trkpt>
      <trkpt lat="39.091784041374922" lon="-9.266617996618152">
        <ele>26.09</ele>
        <time>2025-05-04T14:18:21Z</time>
      </trkpt>
      <trkpt lat="39.091729978099465" lon="-9.266600981354713">
        <ele>26.09</ele>
        <time>2025-05-04T14:18:22Z</time>
      </trkpt>
      <trkpt lat="39.091669041663408" lon="-9.266580026596785">
        <ele>26.57</ele>
        <time>2025-05-04T14:18:23Z</time>
      </trkpt>
      <trkpt lat="39.0916090272367" lon="-9.266559993848205">
        <ele>26.57</ele>
        <time>2025-05-04T14:18:24Z</time>
      </trkpt>
      <trkpt lat="39.09156602807343" lon="-9.266389003023505">
        <ele>26.57</ele>
        <time>2025-05-04T14:18:25Z</time>
      </trkpt>
      <trkpt lat="39.091526968404651" lon="-9.266310967504978">
        <ele>26.57</ele>
        <time>2025-05-04T14:18:26Z</time>
      </trkpt>
      <trkpt lat="39.091468965634704" lon="-9.266194039955735">
        <ele>26.57</ele>
        <time>2025-05-04T14:18:27Z</time>
      </trkpt>
      <trkpt lat="39.091407023370266" lon="-9.266070993617177">
        <ele>26.57</ele>
        <time>2025-05-04T14:18:28Z</time>
      </trkpt>
      <trkpt lat="39.09130803309381" lon="-9.265934033319354">
        <ele>26.57</ele>
        <time>2025-05-04T14:18:29Z</time>
      </trkpt>
      <trkpt lat="39.091206025332212" lon="-9.265824984759092">
        <ele>27.050000000000001</ele>
        <time>2025-05-04T14:18:30Z</time>
      </trkpt>
      <trkpt lat="39.091098988428712" lon="-9.265710990875959">
        <ele>27.050000000000001</ele>
        <time>2025-05-04T14:18:31Z</time>
      </trkpt>
      <trkpt lat="39.090990023687482" lon="-9.265595991164446">
        <ele>27.530000000000001</ele>
        <time>2025-05-04T14:18:32Z</time>
      </trkpt>
      <trkpt lat="39.089939016848803" lon="-9.264621008187532">
        <ele>26.09</ele>
        <time>2025-05-04T14:18:40Z</time>
      </trkpt>
      <trkpt lat="39.089774983003736" lon="-9.264538027346134">
        <ele>26.09</ele>
        <time>2025-05-04T14:18:41Z</time>
      </trkpt>
      <trkpt lat="39.089609021320939" lon="-9.264479018747807">
        <ele>26.57</ele>
        <time>2025-05-04T14:18:42Z</time>
      </trkpt>
      <trkpt lat="39.08815098926425" lon="-9.26407802850008">
        <ele>30.899999999999999</ele>
        <time>2025-05-04T14:18:52Z</time>
      </trkpt>
      <trkpt lat="39.08765603788197" lon="-9.264050032943487">
        <ele>31.859999999999999</ele>
        <time>2025-05-04T14:18:56Z</time>
      </trkpt>
      <trkpt lat="39.087544977664948" lon="-9.264050032943487">
        <ele>31.859999999999999</ele>
        <time>2025-05-04T14:18:57Z</time>
      </trkpt>
      <trkpt lat="39.087402988225222" lon="-9.264050032943487">
        <ele>32.340000000000003</ele>
        <time>2025-05-04T14:18:58Z</time>
      </trkpt>
      <trkpt lat="39.087070981040597" lon="-9.264079034328461">
        <ele>33.299999999999997</ele>
        <time>2025-05-04T14:19:01Z</time>
      </trkpt>
      <trkpt lat="39.086960004642606" lon="-9.264162015169859">
        <ele>33.299999999999997</ele>
        <time>2025-05-04T14:19:02Z</time>
      </trkpt>
      <trkpt lat="39.086823966354132" lon="-9.264264022931457">
        <ele>33.299999999999997</ele>
        <time>2025-05-04T14:19:03Z</time>
      </trkpt>
      <trkpt lat="39.085513036698103" lon="-9.2651960067451">
        <ele>41.469999999999999</ele>
        <time>2025-05-04T14:19:13Z</time>
      </trkpt>
      <trkpt lat="39.08417503349483" lon="-9.26545400172472">
        <ele>51.57</ele>
        <time>2025-05-04T14:19:20Z</time>
      </trkpt>
      <trkpt lat="39.082700992003083" lon="-9.264991991221905">
        <ele>57.340000000000003</ele>
        <time>2025-05-04T14:19:27Z</time>
      </trkpt>
      <trkpt lat="39.080110983923078" lon="-9.263856997713447">
        <ele>60.219999999999999</ele>
        <time>2025-05-04T14:19:40Z</time>
      </trkpt>
      <trkpt lat="39.078798964619637" lon="-9.263276970013976">
        <ele>59.740000000000002</ele>
        <time>2025-05-04T14:19:49Z</time>
      </trkpt>
      <trkpt lat="39.078319016844034" lon="-9.263027021661401">
        <ele>58.780000000000001</ele>
        <time>2025-05-04T14:19:55Z</time>
      </trkpt>
      <trkpt lat="39.078149031847715" lon="-9.262948986142874">
        <ele>57.82</ele>
        <time>2025-05-04T14:19:58Z</time>
      </trkpt>
      <trkpt lat="39.077982986345887" lon="-9.263041019439697">
        <ele>57.82</ele>
        <time>2025-05-04T14:19:59Z</time>
      </trkpt>
      <trkpt lat="39.077982986345887" lon="-9.263041019439697">
        <ele>57.82</ele>
        <time>2025-05-04T14:20:00Z</time>
      </trkpt>
      <trkpt lat="39.077948033809662" lon="-9.263044958934188">
        <ele>57.82</ele>
        <time>2025-05-04T14:20:01Z</time>
      </trkpt>
      <trkpt lat="39.077879972755909" lon="-9.263054011389613">
        <ele>57.82</ele>
        <time>2025-05-04T14:20:02Z</time>
      </trkpt>
      <trkpt lat="39.077791040763259" lon="-9.263097010552883">
        <ele>57.82</ele>
        <time>2025-05-04T14:20:03Z</time>
      </trkpt>
      <trkpt lat="39.077748041599989" lon="-9.263165993615985">
        <ele>57.340000000000003</ele>
        <time>2025-05-04T14:20:04Z</time>
      </trkpt>
      <trkpt lat="39.077703030779958" lon="-9.263237994164228">
        <ele>57.340000000000003</ele>
        <time>2025-05-04T14:20:05Z</time>
      </trkpt>
      <trkpt lat="39.077639998868108" lon="-9.263342013582587">
        <ele>57.82</ele>
        <time>2025-05-04T14:20:06Z</time>
      </trkpt>
      <trkpt lat="39.077565986663103" lon="-9.263390963897109">
        <ele>57.82</ele>
        <time>2025-05-04T14:20:07Z</time>
      </trkpt>
      <trkpt lat="39.077475965023041" lon="-9.263450978323817">
        <ele>58.299999999999997</ele>
        <time>2025-05-04T14:20:08Z</time>
      </trkpt>
      <trkpt lat="39.077378986403346" lon="-9.263516021892428">
        <ele>58.780000000000001</ele>
        <time>2025-05-04T14:20:09Z</time>
      </trkpt>
      <trkpt lat="39.077274966984987" lon="-9.26358500495553">
        <ele>59.740000000000002</ele>
        <time>2025-05-04T14:20:10Z</time>
      </trkpt>
      <trkpt lat="39.076736010611057" lon="-9.263902008533478">
        <ele>64.549999999999997</ele>
        <time>2025-05-04T14:20:15Z</time>
      </trkpt>
      <trkpt lat="39.076645988970995" lon="-9.26399203017354">
        <ele>65.510000000000005</ele>
        <time>2025-05-04T14:20:16Z</time>
      </trkpt>
      <trkpt lat="39.07657197676599" lon="-9.264086997136474">
        <ele>66.950000000000003</ele>
        <time>2025-05-04T14:20:17Z</time>
      </trkpt>
      <trkpt lat="39.076515985652804" lon="-9.264208031818271">
        <ele>68.390000000000001</ele>
        <time>2025-05-04T14:20:18Z</time>
      </trkpt>
      <trkpt lat="39.076459994539618" lon="-9.264328982681036">
        <ele>69.349999999999994</ele>
        <time>2025-05-04T14:20:19Z</time>
      </trkpt>
      <trkpt lat="39.07639604061842" lon="-9.264430990442634">
        <ele>70.310000000000002</ele>
        <time>2025-05-04T14:20:20Z</time>
      </trkpt>
      <trkpt lat="39.07635304145515" lon="-9.264499973505735">
        <ele>71.269999999999996</ele>
        <time>2025-05-04T14:20:21Z</time>
      </trkpt>
      <trkpt lat="39.07624801620841" lon="-9.264578009024262">
        <ele>72.239999999999995</ele>
        <time>2025-05-04T14:20:22Z</time>
      </trkpt>
      <trkpt lat="39.076165035367012" lon="-9.264641040936112">
        <ele>72.719999999999999</ele>
        <time>2025-05-04T14:20:23Z</time>
      </trkpt>
      <trkpt lat="39.076066967099905" lon="-9.264695020392537">
        <ele>73.200000000000003</ele>
        <time>2025-05-04T14:20:24Z</time>
      </trkpt>
      <trkpt lat="39.075949033722281" lon="-9.26470298320055">
        <ele>73.680000000000007</ele>
        <time>2025-05-04T14:20:25Z</time>
      </trkpt>
      <trkpt lat="39.07512903213501" lon="-9.264757968485355">
        <ele>78</ele>
        <time>2025-05-04T14:20:32Z</time>
      </trkpt>
      <trkpt lat="39.075001962482929" lon="-9.264802979305387">
        <ele>78.480000000000004</ele>
        <time>2025-05-04T14:20:33Z</time>
      </trkpt>
      <trkpt lat="39.074886962771416" lon="-9.264843966811895">
        <ele>79.450000000000003</ele>
        <time>2025-05-04T14:20:34Z</time>
      </trkpt>
      <trkpt lat="39.074791995808482" lon="-9.264927031472325">
        <ele>80.409999999999997</ele>
        <time>2025-05-04T14:20:35Z</time>
      </trkpt>
      <trkpt lat="39.074713960289955" lon="-9.265056028962135">
        <ele>80.890000000000001</ele>
        <time>2025-05-04T14:20:36Z</time>
      </trkpt>
      <trkpt lat="39.074631985276937" lon="-9.265192989259958">
        <ele>81.849999999999994</ele>
        <time>2025-05-04T14:20:37Z</time>
      </trkpt>
      <trkpt lat="39.074544981122017" lon="-9.265337996184826">
        <ele>82.329999999999998</ele>
        <time>2025-05-04T14:20:38Z</time>
      </trkpt>
      <trkpt lat="39.074317999184132" lon="-9.265692969784141">
        <ele>84.25</ele>
        <time>2025-05-04T14:20:41Z</time>
      </trkpt>
      <trkpt lat="39.07422898337245" lon="-9.265806041657925">
        <ele>84.730000000000004</ele>
        <time>2025-05-04T14:20:42Z</time>
      </trkpt>
      <trkpt lat="39.074141979217529" lon="-9.265916012227535">
        <ele>85.209999999999994</ele>
        <time>2025-05-04T14:20:43Z</time>
      </trkpt>
      <trkpt lat="39.074040977284312" lon="-9.265992036089301">
        <ele>85.689999999999998</ele>
        <time>2025-05-04T14:20:44Z</time>
      </trkpt>
      <trkpt lat="39.073930000886321" lon="-9.266064036637545">
        <ele>86.180000000000007</ele>
        <time>2025-05-04T14:20:45Z</time>
      </trkpt>
      <trkpt lat="39.073808966204524" lon="-9.26611902192235">
        <ele>86.659999999999997</ele>
        <time>2025-05-04T14:20:46Z</time>
      </trkpt>
      <trkpt lat="39.072691993787885" lon="-9.266744982451201">
        <ele>89.540000000000006</ele>
        <time>2025-05-04T14:20:54Z</time>
      </trkpt>
      <trkpt lat="39.072192013263702" lon="-9.267140021547675">
        <ele>90.980000000000004</ele>
        <time>2025-05-04T14:20:57Z</time>
      </trkpt>
      <trkpt lat="39.072033008560538" lon="-9.267325010150671">
        <ele>90.980000000000004</ele>
        <time>2025-05-04T14:20:58Z</time>
      </trkpt>
      <trkpt lat="39.07104997895658" lon="-9.268282977864146">
        <ele>97.230000000000004</ele>
        <time>2025-05-04T14:21:05Z</time>
      </trkpt>
      <trkpt lat="39.070646977052093" lon="-9.268601993098855">
        <ele>101.56</ele>
        <time>2025-05-04T14:21:08Z</time>
      </trkpt>
      <trkpt lat="39.070499036461115" lon="-9.268682040274143">
        <ele>103</ele>
        <time>2025-05-04T14:21:09Z</time>
      </trkpt>
      <trkpt lat="39.069098001345992" lon="-9.269425012171269">
        <ele>118.86</ele>
        <time>2025-05-04T14:21:18Z</time>
      </trkpt>
      <trkpt lat="39.068772029131651" lon="-9.269668003544211">
        <ele>125.59</ele>
        <time>2025-05-04T14:21:21Z</time>
      </trkpt>
      <trkpt lat="39.068691981956363" lon="-9.269780991598964">
        <ele>127.51000000000001</ele>
        <time>2025-05-04T14:21:22Z</time>
      </trkpt>
      <trkpt lat="39.068616963922977" lon="-9.269887022674084">
        <ele>129.43000000000001</ele>
        <time>2025-05-04T14:21:23Z</time>
      </trkpt>
      <trkpt lat="39.068542029708624" lon="-9.269992969930172">
        <ele>130.88</ele>
        <time>2025-05-04T14:21:24Z</time>
      </trkpt>
      <trkpt lat="39.068498024716973" lon="-9.270134037360549">
        <ele>132.80000000000001</ele>
        <time>2025-05-04T14:21:25Z</time>
      </trkpt>
      <trkpt lat="39.068404985591769" lon="-9.270434025675058">
        <ele>136.16</ele>
        <time>2025-05-04T14:21:27Z</time>
      </trkpt>
      <trkpt lat="39.068358968943357" lon="-9.270582972094417">
        <ele>138.09</ele>
        <time>2025-05-04T14:21:28Z</time>
      </trkpt>
      <trkpt lat="39.068215973675251" lon="-9.270820012316108">
        <ele>141.93000000000001</ele>
        <time>2025-05-04T14:21:30Z</time>
      </trkpt>
      <trkpt lat="39.06814799644053" lon="-9.270925037562847">
        <ele>143.37</ele>
        <time>2025-05-04T14:21:31Z</time>
      </trkpt>
      <trkpt lat="39.068069960922003" lon="-9.271044982597232">
        <ele>145.78</ele>
        <time>2025-05-04T14:21:32Z</time>
      </trkpt>
      <trkpt lat="39.067788999527693" lon="-9.271200969815254">
        <ele>151.06</ele>
        <time>2025-05-04T14:21:35Z</time>
      </trkpt>
      <trkpt lat="39.067578027024865" lon="-9.271281016990542">
        <ele>154.43000000000001</ele>
        <time>2025-05-04T14:21:37Z</time>
      </trkpt>
      <trkpt lat="39.067371999844909" lon="-9.271324016153812">
        <ele>158.27000000000001</ele>
        <time>2025-05-04T14:21:39Z</time>
      </trkpt>
      <trkpt lat="39.067287007346749" lon="-9.271342037245631">
        <ele>159.72</ele>
        <time>2025-05-04T14:21:40Z</time>
      </trkpt>
      <trkpt lat="39.067101012915373" lon="-9.27138201892376">
        <ele>164.52000000000001</ele>
        <time>2025-05-04T14:21:43Z</time>
      </trkpt>
      <trkpt lat="39.067048039287329" lon="-9.271394005045295">
        <ele>165.47999999999999</ele>
        <time>2025-05-04T14:21:44Z</time>
      </trkpt>
      <trkpt lat="39.066976038739085" lon="-9.271410014480352">
        <ele>166.93000000000001</ele>
        <time>2025-05-04T14:21:45Z</time>
      </trkpt>
      <trkpt lat="39.066756013780832" lon="-9.271459970623255">
        <ele>173.16999999999999</ele>
        <time>2025-05-04T14:21:51Z</time>
      </trkpt>
      <trkpt lat="39.066645037382841" lon="-9.27149198949337">
        <ele>177.5</ele>
        <time>2025-05-04T14:21:55Z</time>
      </trkpt>
      <trkpt lat="39.066139021888375" lon="-9.271710002794862">
        <ele>183.27000000000001</ele>
        <time>2025-05-04T14:22:03Z</time>
      </trkpt>
      <trkpt lat="39.065786981955171" lon="-9.271852998062968">
        <ele>185.66999999999999</ele>
        <time>2025-05-04T14:22:08Z</time>
      </trkpt>
      <trkpt lat="39.065641975030303" lon="-9.271900020539761">
        <ele>186.15000000000001</ele>
        <time>2025-05-04T14:22:10Z</time>
      </trkpt>
      <trkpt lat="39.065566034987569" lon="-9.271919969469309">
        <ele>186.63</ele>
        <time>2025-05-04T14:22:11Z</time>
      </trkpt>
      <trkpt lat="39.065388003364205" lon="-9.271967997774482">
        <ele>186.15000000000001</ele>
        <time>2025-05-04T14:22:13Z</time>
      </trkpt>
      <trkpt lat="39.065284989774227" lon="-9.271958023309708">
        <ele>186.15000000000001</ele>
        <time>2025-05-04T14:22:15Z</time>
      </trkpt>
      <trkpt lat="39.065224975347519" lon="-9.271952994167805">
        <ele>186.15000000000001</ele>
        <time>2025-05-04T14:22:16Z</time>
      </trkpt>
      <trkpt lat="39.064471023157239" lon="-9.271833971142769">
        <ele>183.27000000000001</ele>
        <time>2025-05-04T14:22:24Z</time>
      </trkpt>
      <trkpt lat="39.063827963545918" lon="-9.271690975874662">
        <ele>179.41999999999999</ele>
        <time>2025-05-04T14:22:30Z</time>
      </trkpt>
      <trkpt lat="39.063716987147927" lon="-9.271670021116734">
        <ele>178.46000000000001</ele>
        <time>2025-05-04T14:22:31Z</time>
      </trkpt>
      <trkpt lat="39.063193034380674" lon="-9.271531971171498">
        <ele>175.58000000000001</ele>
        <time>2025-05-04T14:22:36Z</time>
      </trkpt>
      <trkpt lat="39.063105024397373" lon="-9.271443961188197">
        <ele>175.09999999999999</ele>
        <time>2025-05-04T14:22:37Z</time>
      </trkpt>
      <trkpt lat="39.063015002757311" lon="-9.271354023367167">
        <ele>174.13999999999999</ele>
        <time>2025-05-04T14:22:38Z</time>
      </trkpt>
      <trkpt lat="39.062825990840793" lon="-9.271180015057325">
        <ele>172.69</ele>
        <time>2025-05-04T14:22:40Z</time>
      </trkpt>
      <trkpt lat="39.062727000564337" lon="-9.271109020337462">
        <ele>171.72999999999999</ele>
        <time>2025-05-04T14:22:41Z</time>
      </trkpt>
      <trkpt lat="39.062630021944642" lon="-9.27112502977252">
        <ele>171.25</ele>
        <time>2025-05-04T14:22:42Z</time>
      </trkpt>
      <trkpt lat="39.062530025839806" lon="-9.271141961216927">
        <ele>170.28999999999999</ele>
        <time>2025-05-04T14:22:43Z</time>
      </trkpt>
      <trkpt lat="39.062428018078208" lon="-9.271158976480365">
        <ele>169.81</ele>
        <time>2025-05-04T14:22:44Z</time>
      </trkpt>
      <trkpt lat="39.062333973124623" lon="-9.271174985915422">
        <ele>168.84999999999999</ele>
        <time>2025-05-04T14:22:45Z</time>
      </trkpt>
      <trkpt lat="39.062255015596747" lon="-9.271187977865338">
        <ele>167.88999999999999</ele>
        <time>2025-05-04T14:22:46Z</time>
      </trkpt>
      <trkpt lat="39.062212016433477" lon="-9.271195018664002">
        <ele>167.41</ele>
        <time>2025-05-04T14:22:47Z</time>
      </trkpt>
      <trkpt lat="39.062084024772048" lon="-9.271122012287378">
        <ele>164.03999999999999</ele>
        <time>2025-05-04T14:22:53Z</time>
      </trkpt>
      <trkpt lat="39.062044965103269" lon="-9.271094016730785">
        <ele>161.63999999999999</ele>
        <time>2025-05-04T14:23:05Z</time>
      </trkpt>
      <trkpt lat="39.061987968161702" lon="-9.271043976768851">
        <ele>159.72</ele>
        <time>2025-05-04T14:23:51Z</time>
      </trkpt>
      <trkpt lat="39.061565017327666" lon="-9.270555982366204">
        <ele>155.87</ele>
        <time>2025-05-04T14:23:56Z</time>
      </trkpt>
      <trkpt lat="39.060924975201488" lon="-9.269712008535862">
        <ele>150.58000000000001</ele>
        <time>2025-05-04T14:24:01Z</time>
      </trkpt>
      <trkpt lat="39.060833025723696" lon="-9.269548980519176">
        <ele>149.13999999999999</ele>
        <time>2025-05-04T14:24:02Z</time>
      </trkpt>
      <trkpt lat="39.060747027397156" lon="-9.26936499774456">
        <ele>148.18000000000001</ele>
        <time>2025-05-04T14:24:03Z</time>
      </trkpt>
      <trkpt lat="39.060246963053942" lon="-9.268410969525576">
        <ele>141.93000000000001</ele>
        <time>2025-05-04T14:24:08Z</time>
      </trkpt>
      <trkpt lat="39.060140009969473" lon="-9.268296975642443">
        <ele>140.49000000000001</ele>
        <time>2025-05-04T14:24:09Z</time>
      </trkpt>
      <trkpt lat="39.060028027743101" lon="-9.268240984529257">
        <ele>139.05000000000001</ele>
        <time>2025-05-04T14:24:10Z</time>
      </trkpt>
      <trkpt lat="39.059905987232924" lon="-9.268216006457806">
        <ele>137.61000000000001</ele>
        <time>2025-05-04T14:24:11Z</time>
      </trkpt>
      <trkpt lat="39.059772966429591" lon="-9.268260011449456">
        <ele>136.16</ele>
        <time>2025-05-04T14:24:12Z</time>
      </trkpt>
      <trkpt lat="39.059635000303388" lon="-9.268306028097868">
        <ele>134.72</ele>
        <time>2025-05-04T14:24:13Z</time>
      </trkpt>
      <trkpt lat="39.059497034177184" lon="-9.268320025876164">
        <ele>132.80000000000001</ele>
        <time>2025-05-04T14:24:14Z</time>
      </trkpt>
      <trkpt lat="39.059357978403568" lon="-9.268320025876164">
        <ele>130.40000000000001</ele>
        <time>2025-05-04T14:24:15Z</time>
      </trkpt>
      <trkpt lat="39.059219006448984" lon="-9.268251964822412">
        <ele>128.47</ele>
        <time>2025-05-04T14:24:16Z</time>
      </trkpt>
      <trkpt lat="39.059069976210594" lon="-9.268179964274168">
        <ele>126.06999999999999</ele>
        <time>2025-05-04T14:24:17Z</time>
      </trkpt>
      <trkpt lat="39.058913988992572" lon="-9.268103018403053">
        <ele>124.15000000000001</ele>
        <time>2025-05-04T14:24:18Z</time>
      </trkpt>
      <trkpt lat="39.05845801346004" lon="-9.267920963466167">
        <ele>118.38</ele>
        <time>2025-05-04T14:24:21Z</time>
      </trkpt>
      <trkpt lat="39.058323986828327" lon="-9.267939990386367">
        <ele>116.45999999999999</ele>
        <time>2025-05-04T14:24:22Z</time>
      </trkpt>
      <trkpt lat="39.058205969631672" lon="-9.267965974286199">
        <ele>114.53</ele>
        <time>2025-05-04T14:24:23Z</time>
      </trkpt>
      <trkpt lat="39.058095999062061" lon="-9.268049960955977">
        <ele>113.09</ele>
        <time>2025-05-04T14:24:24Z</time>
      </trkpt>
      <trkpt lat="39.057979993522167" lon="-9.268137970939279">
        <ele>111.65000000000001</ele>
        <time>2025-05-04T14:24:25Z</time>
      </trkpt>
      <trkpt lat="39.057067036628723" lon="-9.268789999186993">
        <ele>100.11</ele>
        <time>2025-05-04T14:24:31Z</time>
      </trkpt>
      <trkpt lat="39.056880036368966" lon="-9.268877003341913">
        <ele>98.189999999999998</ele>
        <time>2025-05-04T14:24:32Z</time>
      </trkpt>
      <trkpt lat="39.056693036109209" lon="-9.268928971141577">
        <ele>96.269999999999996</ele>
        <time>2025-05-04T14:24:33Z</time>
      </trkpt>
      <trkpt lat="39.054923029616475" lon="-9.269472034648061">
        <ele>80.890000000000001</ele>
        <time>2025-05-04T14:24:43Z</time>
      </trkpt>
      <trkpt lat="39.053536998108029" lon="-9.270166978240013">
        <ele>69.349999999999994</ele>
        <time>2025-05-04T14:24:51Z</time>
      </trkpt>
      <trkpt lat="39.053363995626569" lon="-9.270210983231664">
        <ele>68.390000000000001</ele>
        <time>2025-05-04T14:24:52Z</time>
      </trkpt>
      <trkpt lat="39.052107967436314" lon="-9.270533015951514">
        <ele>61.659999999999997</ele>
        <time>2025-05-04T14:24:59Z</time>
      </trkpt>
      <trkpt lat="39.051916021853685" lon="-9.270560005679727">
        <ele>60.700000000000003</ele>
        <time>2025-05-04T14:25:00Z</time>
      </trkpt>
      <trkpt lat="39.050727970898151" lon="-9.270754968747497">
        <ele>52.530000000000001</ele>
        <time>2025-05-04T14:25:07Z</time>
      </trkpt>
      <trkpt lat="39.05052999034524" lon="-9.27080299705267">
        <ele>50.130000000000003</ele>
        <time>2025-05-04T14:25:09Z</time>
      </trkpt>
      <trkpt lat="39.050290016457438" lon="-9.270860999822617">
        <ele>45.32</ele>
        <time>2025-05-04T14:25:14Z</time>
      </trkpt>
      <trkpt lat="39.05027199536562" lon="-9.27086602896452">
        <ele>43.880000000000003</ele>
        <time>2025-05-04T14:25:25Z</time>
      </trkpt>
      <trkpt lat="39.04977603815496" lon="-9.270837027579546">
        <ele>39.07</ele>
        <time>2025-05-04T14:25:30Z</time>
      </trkpt>
      <trkpt lat="39.049382004886866" lon="-9.270768966525793">
        <ele>37.149999999999999</ele>
        <time>2025-05-04T14:25:33Z</time>
      </trkpt>
      <trkpt lat="39.049252001568675" lon="-9.270743988454342">
        <ele>37.149999999999999</ele>
        <time>2025-05-04T14:25:34Z</time>
      </trkpt>
      <trkpt lat="39.049140019342303" lon="-9.270724039524794">
        <ele>37.149999999999999</ele>
        <time>2025-05-04T14:25:35Z</time>
      </trkpt>
      <trkpt lat="39.049043962731957" lon="-9.270707024261355">
        <ele>37.149999999999999</ele>
        <time>2025-05-04T14:25:36Z</time>
      </trkpt>
      <trkpt lat="39.048972968012094" lon="-9.270710963755846">
        <ele>37.149999999999999</ele>
        <time>2025-05-04T14:25:37Z</time>
      </trkpt>
      <trkpt lat="39.048895016312599" lon="-9.270727979019284">
        <ele>37.149999999999999</ele>
        <time>2025-05-04T14:25:38Z</time>
      </trkpt>
      <trkpt lat="39.048809017986059" lon="-9.2707599978894">
        <ele>37.630000000000003</ele>
        <time>2025-05-04T14:25:39Z</time>
      </trkpt>
      <trkpt lat="39.04872503131628" lon="-9.270862005650997">
        <ele>37.630000000000003</ele>
        <time>2025-05-04T14:25:40Z</time>
      </trkpt>
      <trkpt lat="39.047939982265234" lon="-9.271614030003548">
        <ele>39.07</ele>
        <time>2025-05-04T14:25:46Z</time>
      </trkpt>
      <trkpt lat="39.046886963769794" lon="-9.272237978875637">
        <ele>43.399999999999999</ele>
        <time>2025-05-04T14:25:52Z</time>
      </trkpt>
      <trkpt lat="39.045476960018277" lon="-9.272991009056568">
        <ele>52.049999999999997</ele>
        <time>2025-05-04T14:26:00Z</time>
      </trkpt>
      <trkpt lat="39.044452020898461" lon="-9.273519990965724">
        <ele>58.780000000000001</ele>
        <time>2025-05-04T14:26:06Z</time>
      </trkpt>
      <trkpt lat="39.042756026610732" lon="-9.274290958419442">
        <ele>67.430000000000007</ele>
        <time>2025-05-04T14:26:16Z</time>
      </trkpt>
      <trkpt lat="39.042197959497571" lon="-9.274459015578032">
        <ele>68.390000000000001</ele>
        <time>2025-05-04T14:26:19Z</time>
      </trkpt>
      <trkpt lat="39.04200098477304" lon="-9.274496985599399">
        <ele>68.870000000000005</ele>
        <time>2025-05-04T14:26:20Z</time>
      </trkpt>
      <trkpt lat="39.039493035525084" lon="-9.274879032745957">
        <ele>62.619999999999997</ele>
        <time>2025-05-04T14:26:32Z</time>
      </trkpt>
      <trkpt lat="39.038329040631652" lon="-9.275064021348953">
        <ele>64.069999999999993</ele>
        <time>2025-05-04T14:26:39Z</time>
      </trkpt>
      <trkpt lat="39.037475008517504" lon="-9.275197964161634">
        <ele>68.870000000000005</ele>
        <time>2025-05-04T14:26:49Z</time>
      </trkpt>
      <trkpt lat="39.036399023607373" lon="-9.275369038805366">
        <ele>72.719999999999999</ele>
        <time>2025-05-04T14:26:59Z</time>
      </trkpt>
      <trkpt lat="39.03561900369823" lon="-9.275484038516879">
        <ele>74.640000000000001</ele>
        <time>2025-05-04T14:27:09Z</time>
      </trkpt>
      <trkpt lat="39.035270987078547" lon="-9.275565007701516">
        <ele>74.640000000000001</ele>
        <time>2025-05-04T14:27:13Z</time>
      </trkpt>
      <trkpt lat="39.035183982923627" lon="-9.275601971894503">
        <ele>74.159999999999997</ele>
        <time>2025-05-04T14:27:14Z</time>
      </trkpt>
      <trkpt lat="39.03510401956737" lon="-9.275636002421379">
        <ele>74.159999999999997</ele>
        <time>2025-05-04T14:27:15Z</time>
      </trkpt>
      <trkpt lat="39.035004023462534" lon="-9.27568000741303">
        <ele>73.200000000000003</ele>
        <time>2025-05-04T14:27:17Z</time>
      </trkpt>
      <trkpt lat="39.034878965467215" lon="-9.275862984359264">
        <ele>72.239999999999995</ele>
        <time>2025-05-04T14:27:18Z</time>
      </trkpt>
      <trkpt lat="39.034810988232493" lon="-9.275850998237729">
        <ele>71.760000000000005</ele>
        <time>2025-05-04T14:27:19Z</time>
      </trkpt>
      <trkpt lat="39.033918986096978" lon="-9.276048978790641">
        <ele>68.390000000000001</ele>
        <time>2025-05-04T14:27:26Z</time>
      </trkpt>
      <trkpt lat="39.03254896402359" lon="-9.276739982888103">
        <ele>60.219999999999999</ele>
        <time>2025-05-04T14:27:35Z</time>
      </trkpt>
      <trkpt lat="39.031508015468717" lon="-9.277096968144178">
        <ele>54.93</ele>
        <time>2025-05-04T14:27:42Z</time>
      </trkpt>
      <trkpt lat="39.02971001341939" lon="-9.277424030005932">
        <ele>48.200000000000003</ele>
        <time>2025-05-04T14:27:51Z</time>
      </trkpt>
      <trkpt lat="39.027872029691935" lon="-9.277819991111755">
        <ele>46.280000000000001</ele>
        <time>2025-05-04T14:28:01Z</time>
      </trkpt>
      <trkpt lat="39.027711013332009" lon="-9.277878999710083">
        <ele>46.280000000000001</ele>
        <time>2025-05-04T14:28:02Z</time>
      </trkpt>
      <trkpt lat="39.026584988459945" lon="-9.278494985774159">
        <ele>45.799999999999997</ele>
        <time>2025-05-04T14:28:10Z</time>
      </trkpt>
      <trkpt lat="39.025416970252991" lon="-9.279155982658267">
        <ele>46.759999999999998</ele>
        <time>2025-05-04T14:28:20Z</time>
      </trkpt>
      <trkpt lat="39.024518011137843" lon="-9.279640037566423">
        <ele>48.200000000000003</ele>
        <time>2025-05-04T14:28:32Z</time>
      </trkpt>
      <trkpt lat="39.024302009493113" lon="-9.279729975387454">
        <ele>48.200000000000003</ele>
        <time>2025-05-04T14:28:35Z</time>
      </trkpt>
      <trkpt lat="39.024048037827015" lon="-9.279733998700976">
        <ele>48.200000000000003</ele>
        <time>2025-05-04T14:28:38Z</time>
      </trkpt>
      <trkpt lat="39.023948963731527" lon="-9.279718995094299">
        <ele>48.200000000000003</ele>
        <time>2025-05-04T14:28:39Z</time>
      </trkpt>
      <trkpt lat="39.023852990940213" lon="-9.279706003144383">
        <ele>48.200000000000003</ele>
        <time>2025-05-04T14:28:40Z</time>
      </trkpt>
      <trkpt lat="39.023165004327893" lon="-9.279649006202817">
        <ele>47.240000000000002</ele>
        <time>2025-05-04T14:28:48Z</time>
      </trkpt>
      <trkpt lat="39.023086968809366" lon="-9.27965403534472">
        <ele>47.240000000000002</ele>
        <time>2025-05-04T14:28:49Z</time>
      </trkpt>
      <trkpt lat="39.022039985284209" lon="-9.279754031449556">
        <ele>45.32</ele>
        <time>2025-05-04T14:28:59Z</time>
      </trkpt>
      <trkpt lat="39.020648002624512" lon="-9.280015965923667">
        <ele>44.359999999999999</ele>
        <time>2025-05-04T14:29:10Z</time>
      </trkpt>
      <trkpt lat="39.020269978791475" lon="-9.280080003663898">
        <ele>44.840000000000003</ele>
        <time>2025-05-04T14:29:13Z</time>
      </trkpt>
      <trkpt lat="39.020140981301665" lon="-9.280033987015486">
        <ele>45.32</ele>
        <time>2025-05-04T14:29:14Z</time>
      </trkpt>
      <trkpt lat="39.020016007125378" lon="-9.279984030872583">
        <ele>45.32</ele>
        <time>2025-05-04T14:29:15Z</time>
      </trkpt>
      <trkpt lat="39.019906036555767" lon="-9.279886968433857">
        <ele>45.32</ele>
        <time>2025-05-04T14:29:16Z</time>
      </trkpt>
      <trkpt lat="39.019792964681983" lon="-9.279787978157401">
        <ele>45.32</ele>
        <time>2025-05-04T14:29:17Z</time>
      </trkpt>
      <trkpt lat="39.018529979512095" lon="-9.278716016560793">
        <ele>50.130000000000003</ele>
        <time>2025-05-04T14:29:28Z</time>
      </trkpt>
      <trkpt lat="39.017208991572261" lon="-9.277970027178526">
        <ele>52.530000000000001</ele>
        <time>2025-05-04T14:29:37Z</time>
      </trkpt>
      <trkpt lat="39.017047975212336" lon="-9.277844969183207">
        <ele>52.530000000000001</ele>
        <time>2025-05-04T14:29:38Z</time>
      </trkpt>
      <trkpt lat="39.016898022964597" lon="-9.277680013328791">
        <ele>52.530000000000001</ele>
        <time>2025-05-04T14:29:39Z</time>
      </trkpt>
      <trkpt lat="39.016767013818026" lon="-9.277480021119118">
        <ele>52.530000000000001</ele>
        <time>2025-05-04T14:29:40Z</time>
      </trkpt>
      <trkpt lat="39.016633993014693" lon="-9.27727097645402">
        <ele>53.009999999999998</ele>
        <time>2025-05-04T14:29:41Z</time>
      </trkpt>
      <trkpt lat="39.016506001353264" lon="-9.277049023658037">
        <ele>53.009999999999998</ele>
        <time>2025-05-04T14:29:42Z</time>
      </trkpt>
      <trkpt lat="39.015479972586036" lon="-9.275363003835082">
        <ele>54.450000000000003</ele>
        <time>2025-05-04T14:29:50Z</time>
      </trkpt>
      <trkpt lat="39.015348041430116" lon="-9.275228977203369">
        <ele>54.93</ele>
        <time>2025-05-04T14:29:51Z</time>
      </trkpt>
      <trkpt lat="39.015204962342978" lon="-9.275136021897197">
        <ele>54.93</ele>
        <time>2025-05-04T14:29:52Z</time>
      </trkpt>
      <trkpt lat="39.015050986781716" lon="-9.275070978328586">
        <ele>54.93</ele>
        <time>2025-05-04T14:29:53Z</time>
      </trkpt>
      <trkpt lat="39.014875972643495" lon="-9.27503602579236">
        <ele>55.409999999999997</ele>
        <time>2025-05-04T14:29:54Z</time>
      </trkpt>
      <trkpt lat="39.014703975990415" lon="-9.275024039670825">
        <ele>55.409999999999997</ele>
        <time>2025-05-04T14:29:55Z</time>
      </trkpt>
      <trkpt lat="39.013332026079297" lon="-9.274956984445453">
        <ele>54.450000000000003</ele>
        <time>2025-05-04T14:30:03Z</time>
      </trkpt>
      <trkpt lat="39.012382021173835" lon="-9.274837961420417">
        <ele>53.009999999999998</ele>
        <time>2025-05-04T14:30:12Z</time>
      </trkpt>
      <trkpt lat="39.011013004928827" lon="-9.274707958102226">
        <ele>53.009999999999998</ele>
        <time>2025-05-04T14:30:24Z</time>
      </trkpt>
      <trkpt lat="39.010886019095778" lon="-9.274730002507567">
        <ele>53.009999999999998</ele>
        <time>2025-05-04T14:30:25Z</time>
      </trkpt>
      <trkpt lat="39.01076196692884" lon="-9.274781970307231">
        <ele>53.490000000000002</ele>
        <time>2025-05-04T14:30:26Z</time>
      </trkpt>
      <trkpt lat="39.009669972583652" lon="-9.275263007730246">
        <ele>53.490000000000002</ele>
        <time>2025-05-04T14:30:36Z</time>
      </trkpt>
      <trkpt lat="39.008108004927635" lon="-9.275971027091146">
        <ele>53.969999999999999</ele>
        <time>2025-05-04T14:30:48Z</time>
      </trkpt>
      <trkpt lat="39.006839990615845" lon="-9.276237990707159">
        <ele>56.369999999999997</ele>
        <time>2025-05-04T14:30:55Z</time>
      </trkpt>
      <trkpt lat="39.004762033000588" lon="-9.276537979021668">
        <ele>60.219999999999999</ele>
        <time>2025-05-04T14:31:06Z</time>
      </trkpt>
      <trkpt lat="39.004613002762198" lon="-9.276549965143204">
        <ele>60.700000000000003</ele>
        <time>2025-05-04T14:31:07Z</time>
      </trkpt>
      <trkpt lat="39.00448702275753" lon="-9.276506965979934">
        <ele>61.18</ele>
        <time>2025-05-04T14:31:08Z</time>
      </trkpt>
      <trkpt lat="39.004365988075733" lon="-9.276465978473425">
        <ele>60.700000000000003</ele>
        <time>2025-05-04T14:31:09Z</time>
      </trkpt>
      <trkpt lat="39.003142984583974" lon="-9.276043027639389">
        <ele>61.18</ele>
        <time>2025-05-04T14:31:20Z</time>
      </trkpt>
      <trkpt lat="39.002943998202682" lon="-9.2759820073843">
        <ele>61.18</ele>
        <time>2025-05-04T14:31:22Z</time>
      </trkpt>
      <trkpt lat="39.002840984612703" lon="-9.275988964363933">
        <ele>61.659999999999997</ele>
        <time>2025-05-04T14:31:23Z</time>
      </trkpt>
      <trkpt lat="39.001442966982722" lon="-9.276099018752575">
        <ele>60.700000000000003</ele>
        <time>2025-05-04T14:31:36Z</time>
      </trkpt>
      <trkpt lat="39.000354995951056" lon="-9.276159033179283">
        <ele>63.579999999999998</ele>
        <time>2025-05-04T14:31:47Z</time>
      </trkpt>
      <trkpt lat="39.000251982361078" lon="-9.276145035400987">
        <ele>63.579999999999998</ele>
        <time>2025-05-04T14:31:48Z</time>
      </trkpt>
      <trkpt lat="39.000143017619848" lon="-9.27613103762269">
        <ele>64.069999999999993</ele>
        <time>2025-05-04T14:31:49Z</time>
      </trkpt>
      <trkpt lat="38.998692026361823" lon="-9.275948982685804">
        <ele>66.950000000000003</ele>
        <time>2025-05-04T14:32:02Z</time>
      </trkpt>
      <trkpt lat="38.998361025005579" lon="-9.275827025994659">
        <ele>67.430000000000007</ele>
        <time>2025-05-04T14:32:05Z</time>
      </trkpt>
      <trkpt lat="38.998259017243981" lon="-9.27574697881937">
        <ele>67.430000000000007</ele>
        <time>2025-05-04T14:32:06Z</time>
      </trkpt>
      <trkpt lat="38.996977005153894" lon="-9.274570997804403">
        <ele>64.069999999999993</ele>
        <time>2025-05-04T14:32:18Z</time>
      </trkpt>
      <trkpt lat="38.995778979733586" lon="-9.27359601482749">
        <ele>59.259999999999998</ele>
        <time>2025-05-04T14:32:28Z</time>
      </trkpt>
      <trkpt lat="38.995435992255807" lon="-9.273470034822822">
        <ele>58.299999999999997</ele>
        <time>2025-05-04T14:32:31Z</time>
      </trkpt>
      <trkpt lat="38.995324010029435" lon="-9.273470034822822">
        <ele>57.82</ele>
        <time>2025-05-04T14:32:32Z</time>
      </trkpt>
      <trkpt lat="38.995214039459825" lon="-9.273470034822822">
        <ele>57.340000000000003</ele>
        <time>2025-05-04T14:32:33Z</time>
      </trkpt>
      <trkpt lat="38.995117982849479" lon="-9.273495012894273">
        <ele>57.340000000000003</ele>
        <time>2025-05-04T14:32:34Z</time>
      </trkpt>
      <trkpt lat="38.995045982301235" lon="-9.273525020107627">
        <ele>57.340000000000003</ele>
        <time>2025-05-04T14:32:35Z</time>
      </trkpt>
      <trkpt lat="38.994993008673191" lon="-9.273546980693936">
        <ele>56.859999999999999</ele>
        <time>2025-05-04T14:32:36Z</time>
      </trkpt>
      <trkpt lat="38.994955038651824" lon="-9.273562990128994">
        <ele>56.859999999999999</ele>
        <time>2025-05-04T14:32:37Z</time>
      </trkpt>
      <trkpt lat="38.994426978752017" lon="-9.273786032572389">
        <ele>57.340000000000003</ele>
        <time>2025-05-04T14:32:47Z</time>
      </trkpt>
      <trkpt lat="38.993416959419847" lon="-9.274233039468527">
        <ele>62.619999999999997</ele>
        <time>2025-05-04T14:32:57Z</time>
      </trkpt>
      <trkpt lat="38.992860987782478" lon="-9.274414004758">
        <ele>66.469999999999999</ele>
        <time>2025-05-04T14:33:07Z</time>
      </trkpt>
      <trkpt lat="38.992787981405854" lon="-9.274404030293226">
        <ele>66.950000000000003</ele>
        <time>2025-05-04T14:33:08Z</time>
      </trkpt>
      <trkpt lat="38.991912994533777" lon="-9.274229016155005">
        <ele>70.310000000000002</ele>
        <time>2025-05-04T14:33:17Z</time>
      </trkpt>
      <trkpt lat="38.990991991013288" lon="-9.274016031995416">
        <ele>72.719999999999999</ele>
        <time>2025-05-04T14:33:25Z</time>
      </trkpt>
      <trkpt lat="38.990874979645014" lon="-9.273993987590075">
        <ele>72.719999999999999</ele>
        <time>2025-05-04T14:33:26Z</time>
      </trkpt>
      <trkpt lat="38.990757968276739" lon="-9.273973032832146">
        <ele>73.200000000000003</ele>
        <time>2025-05-04T14:33:27Z</time>
      </trkpt>
      <trkpt lat="38.989698998630047" lon="-9.274061964824796">
        <ele>71.269999999999996</ele>
        <time>2025-05-04T14:33:35Z</time>
      </trkpt>
      <trkpt lat="38.988335011526942" lon="-9.274251982569695">
        <ele>69.349999999999994</ele>
        <time>2025-05-04T14:33:43Z</time>
      </trkpt>
      <trkpt lat="38.987647024914622" lon="-9.274300010874867">
        <ele>68.870000000000005</ele>
        <time>2025-05-04T14:33:48Z</time>
      </trkpt>
      <trkpt lat="38.987510986626148" lon="-9.274260029196739">
        <ele>68.390000000000001</ele>
        <time>2025-05-04T14:33:49Z</time>
      </trkpt>
      <trkpt lat="38.987375032156706" lon="-9.274219963699579">
        <ele>68.390000000000001</ele>
        <time>2025-05-04T14:33:50Z</time>
      </trkpt>
      <trkpt lat="38.98613995872438" lon="-9.273621998727322">
        <ele>69.349999999999994</ele>
        <time>2025-05-04T14:33:59Z</time>
      </trkpt>
      <trkpt lat="38.985998975113034" lon="-9.273630967363715">
        <ele>69.349999999999994</ele>
        <time>2025-05-04T14:34:00Z</time>
      </trkpt>
      <trkpt lat="38.984799021854997" lon="-9.273656029254198">
        <ele>71.760000000000005</ele>
        <time>2025-05-04T14:34:09Z</time>
      </trkpt>
      <trkpt lat="38.982687033712864" lon="-9.273455031216145">
        <ele>73.200000000000003</ele>
        <time>2025-05-04T14:34:23Z</time>
      </trkpt>
      <trkpt lat="38.982563987374306" lon="-9.27338101901114">
        <ele>73.200000000000003</ele>
        <time>2025-05-04T14:34:24Z</time>
      </trkpt>
      <trkpt lat="38.982458962127566" lon="-9.273293009027839">
        <ele>73.680000000000007</ele>
        <time>2025-05-04T14:34:25Z</time>
      </trkpt>
      <trkpt lat="38.982369024306536" lon="-9.273177003487945">
        <ele>73.680000000000007</ele>
        <time>2025-05-04T14:34:26Z</time>
      </trkpt>
      <trkpt lat="38.98231403902173" lon="-9.273051023483276">
        <ele>74.159999999999997</ele>
        <time>2025-05-04T14:34:27Z</time>
      </trkpt>
      <trkpt lat="38.982265004888177" lon="-9.272901993244886">
        <ele>74.159999999999997</ele>
        <time>2025-05-04T14:34:28Z</time>
      </trkpt>
      <trkpt lat="38.98222703486681" lon="-9.272752963006496">
        <ele>74.159999999999997</ele>
        <time>2025-05-04T14:34:29Z</time>
      </trkpt>
      <trkpt lat="38.982196021825075" lon="-9.272569986060262">
        <ele>74.159999999999997</ele>
        <time>2025-05-04T14:34:30Z</time>
      </trkpt>
      <trkpt lat="38.981997035443783" lon="-9.27125402726233">
        <ele>72.719999999999999</ele>
        <time>2025-05-04T14:34:35Z</time>
      </trkpt>
      <trkpt lat="38.981745997443795" lon="-9.26949298940599">
        <ele>69.829999999999998</ele>
        <time>2025-05-04T14:34:41Z</time>
      </trkpt>
      <trkpt lat="38.981446009129286" lon="-9.267992964014411">
        <ele>69.829999999999998</ele>
        <time>2025-05-04T14:34:47Z</time>
      </trkpt>
      <trkpt lat="38.980996990576386" lon="-9.266837015748024">
        <ele>72.239999999999995</ele>
        <time>2025-05-04T14:34:53Z</time>
      </trkpt>
      <trkpt lat="38.980952985584736" lon="-9.266682034358382">
        <ele>72.719999999999999</ele>
        <time>2025-05-04T14:34:54Z</time>
      </trkpt>
      <trkpt lat="38.980919038876891" lon="-9.266523029655218">
        <ele>73.200000000000003</ele>
        <time>2025-05-04T14:34:55Z</time>
      </trkpt>
      <trkpt lat="38.980903029441833" lon="-9.266358995810151">
        <ele>73.200000000000003</ele>
        <time>2025-05-04T14:34:56Z</time>
      </trkpt>
      <trkpt lat="38.980847038328648" lon="-9.265337996184826">
        <ele>75.599999999999994</ele>
        <time>2025-05-04T14:35:04Z</time>
      </trkpt>
      <trkpt lat="38.980834968388081" lon="-9.265128029510379">
        <ele>77.519999999999996</ele>
        <time>2025-05-04T14:35:11Z</time>
      </trkpt>
      <trkpt lat="38.980834968388081" lon="-9.265128029510379">
        <ele>77.519999999999996</ele>
        <time>2025-05-04T14:35:48Z</time>
      </trkpt>
      <trkpt lat="38.980834968388081" lon="-9.265128029510379">
        <ele>77.519999999999996</ele>
        <time>2025-05-04T14:36:33Z</time>
      </trkpt>
      <trkpt lat="38.980834968388081" lon="-9.265128029510379">
        <ele>77.519999999999996</ele>
        <time>2025-05-04T14:37:24Z</time>
      </trkpt>
      <trkpt lat="38.980834968388081" lon="-9.265128029510379">
        <ele>78</ele>
        <time>2025-05-04T14:38:18Z</time>
      </trkpt>
      <trkpt lat="38.98083102889359" lon="-9.265061980113387">
        <ele>78</ele>
        <time>2025-05-04T14:39:00Z</time>
      </trkpt>
      <trkpt lat="38.980791969224811" lon="-9.26457398571074">
        <ele>77.519999999999996</ele>
        <time>2025-05-04T14:39:06Z</time>
      </trkpt>
      <trkpt lat="38.980758022516966" lon="-9.264459991827607">
        <ele>77.519999999999996</ele>
        <time>2025-05-04T14:39:07Z</time>
      </trkpt>
      <trkpt lat="38.980214037001133" lon="-9.263113019987941">
        <ele>79.930000000000007</ele>
        <time>2025-05-04T14:39:16Z</time>
      </trkpt>
      <trkpt lat="38.980055032297969" lon="-9.262736001983285">
        <ele>81.370000000000005</ele>
        <time>2025-05-04T14:39:18Z</time>
      </trkpt>
      <trkpt lat="38.979408033192158" lon="-9.261384001001716">
        <ele>86.659999999999997</ele>
        <time>2025-05-04T14:39:25Z</time>
      </trkpt>
      <trkpt lat="38.978764973580837" lon="-9.260084973648191">
        <ele>91.459999999999994</ele>
        <time>2025-05-04T14:39:34Z</time>
      </trkpt>
      <trkpt lat="38.978313021361828" lon="-9.259162964299321">
        <ele>93.870000000000005</ele>
        <time>2025-05-04T14:39:39Z</time>
      </trkpt>
      <trkpt lat="38.978238003328443" lon="-9.259009994566441">
        <ele>94.829999999999998</ele>
        <time>2025-05-04T14:39:40Z</time>
      </trkpt>
      <trkpt lat="38.978217970579863" lon="-9.258843027055264">
        <ele>95.790000000000006</ele>
        <time>2025-05-04T14:39:41Z</time>
      </trkpt>
      <trkpt lat="38.978207996115088" lon="-9.258659966289997">
        <ele>96.269999999999996</ele>
        <time>2025-05-04T14:39:42Z</time>
      </trkpt>
      <trkpt lat="38.978197015821934" lon="-9.258471038192511">
        <ele>96.75</ele>
        <time>2025-05-04T14:39:43Z</time>
      </trkpt>
      <trkpt lat="38.978097019717097" lon="-9.257387006655335">
        <ele>101.08</ele>
        <time>2025-05-04T14:39:49Z</time>
      </trkpt>
      <trkpt lat="38.978043040260673" lon="-9.257243005558848">
        <ele>101.08</ele>
        <time>2025-05-04T14:39:50Z</time>
      </trkpt>
      <trkpt lat="38.977973973378539" lon="-9.257118031382561">
        <ele>101.56</ele>
        <time>2025-05-04T14:39:51Z</time>
      </trkpt>
      <trkpt lat="38.977878000587225" lon="-9.257008982822299">
        <ele>101.56</ele>
        <time>2025-05-04T14:39:52Z</time>
      </trkpt>
      <trkpt lat="38.977761995047331" lon="-9.256947040557861">
        <ele>101.56</ele>
        <time>2025-05-04T14:39:53Z</time>
      </trkpt>
      <trkpt lat="38.977634003385901" lon="-9.256892977282405">
        <ele>102.04000000000001</ele>
        <time>2025-05-04T14:39:54Z</time>
      </trkpt>
      <trkpt lat="38.97750198841095" lon="-9.256875040009618">
        <ele>102.52</ele>
        <time>2025-05-04T14:39:55Z</time>
      </trkpt>
      <trkpt lat="38.977367961779237" lon="-9.256904041394591">
        <ele>103</ele>
        <time>2025-05-04T14:39:56Z</time>
      </trkpt>
      <trkpt lat="38.977249022573233" lon="-9.256978975608945">
        <ele>103.48</ele>
        <time>2025-05-04T14:39:57Z</time>
      </trkpt>
      <trkpt lat="38.977145003154874" lon="-9.257100010290742">
        <ele>103.95999999999999</ele>
        <time>2025-05-04T14:39:58Z</time>
      </trkpt>
      <trkpt lat="38.977062022313476" lon="-9.257239988073707">
        <ele>104.92</ele>
        <time>2025-05-04T14:39:59Z</time>
      </trkpt>
      <trkpt lat="38.976975018158555" lon="-9.257399998605251">
        <ele>105.40000000000001</ele>
        <time>2025-05-04T14:40:00Z</time>
      </trkpt>
      <trkpt lat="38.97692103870213" lon="-9.257575012743473">
        <ele>106.84</ele>
        <time>2025-05-04T14:40:01Z</time>
      </trkpt>
      <trkpt lat="38.976775025948882" lon="-9.258053032681346">
        <ele>109.73</ele>
        <time>2025-05-04T14:40:04Z</time>
      </trkpt>
      <trkpt lat="38.976733032613993" lon="-9.25816803239286">
        <ele>111.17</ele>
        <time>2025-05-04T14:40:05Z</time>
      </trkpt>
      <trkpt lat="38.976656002923846" lon="-9.25827699713409">
        <ele>112.13</ele>
        <time>2025-05-04T14:40:06Z</time>
      </trkpt>
      <trkpt lat="38.976570004597306" lon="-9.258376993238926">
        <ele>113.09</ele>
        <time>2025-05-04T14:40:07Z</time>
      </trkpt>
      <trkpt lat="38.976452993229032" lon="-9.258442036807537">
        <ele>113.56999999999999</ele>
        <time>2025-05-04T14:40:08Z</time>
      </trkpt>
      <trkpt lat="38.976326007395983" lon="-9.258496016263962">
        <ele>114.53</ele>
        <time>2025-05-04T14:40:09Z</time>
      </trkpt>
      <trkpt lat="38.976190974935889" lon="-9.258541027083993">
        <ele>115.01000000000001</ele>
        <time>2025-05-04T14:40:10Z</time>
      </trkpt>
      <trkpt lat="38.976053008809686" lon="-9.258574973791838">
        <ele>115.5</ele>
        <time>2025-05-04T14:40:11Z</time>
      </trkpt>
      <trkpt lat="38.975915964692831" lon="-9.258557036519051">
        <ele>116.45999999999999</ele>
        <time>2025-05-04T14:40:12Z</time>
      </trkpt>
      <trkpt lat="38.97578596137464" lon="-9.258510014042258">
        <ele>116.94</ele>
        <time>2025-05-04T14:40:13Z</time>
      </trkpt>
      <trkpt lat="38.97565696388483" lon="-9.258459974080324">
        <ele>117.90000000000001</ele>
        <time>2025-05-04T14:40:14Z</time>
      </trkpt>
      <trkpt lat="38.975531989708543" lon="-9.258413035422564">
        <ele>118.38</ele>
        <time>2025-05-04T14:40:15Z</time>
      </trkpt>
      <trkpt lat="38.975416989997029" lon="-9.258354026824236">
        <ele>118.86</ele>
        <time>2025-05-04T14:40:16Z</time>
      </trkpt>
      <trkpt lat="38.975319005548954" lon="-9.258267022669315">
        <ele>119.81999999999999</ele>
        <time>2025-05-04T14:40:17Z</time>
      </trkpt>
      <trkpt lat="38.975227978080511" lon="-9.258174989372492">
        <ele>120.3</ele>
        <time>2025-05-04T14:40:18Z</time>
      </trkpt>
      <trkpt lat="38.974802009761333" lon="-9.257756983861327">
        <ele>123.67</ele>
        <time>2025-05-04T14:40:23Z</time>
      </trkpt>
      <trkpt lat="38.974176971241832" lon="-9.257205035537481">
        <ele>126.06999999999999</ele>
        <time>2025-05-04T14:40:30Z</time>
      </trkpt>
      <trkpt lat="38.974065994843841" lon="-9.25713898614049">
        <ele>126.06999999999999</ele>
        <time>2025-05-04T14:40:31Z</time>
      </trkpt>
      <trkpt lat="38.972862018272281" lon="-9.25651797093451">
        <ele>127.98999999999999</ele>
        <time>2025-05-04T14:40:41Z</time>
      </trkpt>
      <trkpt lat="38.972717011347413" lon="-9.256531968712807">
        <ele>128.94999999999999</ele>
        <time>2025-05-04T14:40:42Z</time>
      </trkpt>
      <trkpt lat="38.972584996372461" lon="-9.256568010896444">
        <ele>129.91999999999999</ele>
        <time>2025-05-04T14:40:43Z</time>
      </trkpt>
      <trkpt lat="38.97245298139751" lon="-9.256627019494772">
        <ele>130.88</ele>
        <time>2025-05-04T14:40:44Z</time>
      </trkpt>
      <trkpt lat="38.972328007221222" lon="-9.256683010607958">
        <ele>131.84</ele>
        <time>2025-05-04T14:40:45Z</time>
      </trkpt>
      <trkpt lat="38.971350006759167" lon="-9.257177039980888">
        <ele>135.68000000000001</ele>
        <time>2025-05-04T14:40:54Z</time>
      </trkpt>
      <trkpt lat="38.970708036795259" lon="-9.257469987496734">
        <ele>138.56999999999999</ele>
        <time>2025-05-04T14:41:00Z</time>
      </trkpt>
      <trkpt lat="38.970602005720139" lon="-9.257543999701738">
        <ele>139.05000000000001</ele>
        <time>2025-05-04T14:41:01Z</time>
      </trkpt>
      <trkpt lat="38.97051801905036" lon="-9.25765497609973">
        <ele>139.53</ele>
        <time>2025-05-04T14:41:02Z</time>
      </trkpt>
      <trkpt lat="38.970460016280413" lon="-9.257803000509739">
        <ele>140.00999999999999</ele>
        <time>2025-05-04T14:41:03Z</time>
      </trkpt>
      <trkpt lat="38.970419028773904" lon="-9.257964016869664">
        <ele>140.49000000000001</ele>
        <time>2025-05-04T14:41:04Z</time>
      </trkpt>
      <trkpt lat="38.970434032380581" lon="-9.258111035451293">
        <ele>140.97</ele>
        <time>2025-05-04T14:41:05Z</time>
      </trkpt>
      <trkpt lat="38.970450041815639" lon="-9.258265011012554">
        <ele>141.93000000000001</ele>
        <time>2025-05-04T14:41:06Z</time>
      </trkpt>
      <trkpt lat="38.970467979088426" lon="-9.258418986573815">
        <ele>142.41</ele>
        <time>2025-05-04T14:41:07Z</time>
      </trkpt>
      <trkpt lat="38.970477031543851" lon="-9.258564999327064">
        <ele>143.37</ele>
        <time>2025-05-04T14:41:08Z</time>
      </trkpt>
      <trkpt lat="38.970460016280413" lon="-9.258720986545086">
        <ele>143.84999999999999</ele>
        <time>2025-05-04T14:41:09Z</time>
      </trkpt>
      <trkpt lat="38.970349039882421" lon="-9.259488014504314">
        <ele>147.22</ele>
        <time>2025-05-04T14:41:14Z</time>
      </trkpt>
      <trkpt lat="38.970300005748868" lon="-9.259633021429181">
        <ele>147.69999999999999</ele>
        <time>2025-05-04T14:41:15Z</time>
      </trkpt>
      <trkpt lat="38.970248037949204" lon="-9.259774005040526">
        <ele>147.69999999999999</ele>
        <time>2025-05-04T14:41:16Z</time>
      </trkpt>
      <trkpt lat="38.970187017694116" lon="-9.259906020015478">
        <ele>148.18000000000001</ele>
        <time>2025-05-04T14:41:17Z</time>
      </trkpt>
      <trkpt lat="38.970114011317492" lon="-9.260035017505288">
        <ele>148.18000000000001</ele>
        <time>2025-05-04T14:41:18Z</time>
      </trkpt>
      <trkpt lat="38.970044022426009" lon="-9.260153034701943">
        <ele>147.69999999999999</ele>
        <time>2025-05-04T14:41:19Z</time>
      </trkpt>
      <trkpt lat="38.969955006614327" lon="-9.260259987786412">
        <ele>147.22</ele>
        <time>2025-05-04T14:41:20Z</time>
      </trkpt>
      <trkpt lat="38.969006007537246" lon="-9.261296996846795">
        <ele>144.81999999999999</ele>
        <time>2025-05-04T14:41:30Z</time>
      </trkpt>
      <trkpt lat="38.968824036419392" lon="-9.261581981554627">
        <ele>144.34</ele>
        <time>2025-05-04T14:41:32Z</time>
      </trkpt>
      <trkpt lat="38.96873602643609" lon="-9.261750038713217">
        <ele>144.81999999999999</ele>
        <time>2025-05-04T14:41:33Z</time>
      </trkpt>
      <trkpt lat="38.968655979260802" lon="-9.261916000396013">
        <ele>145.30000000000001</ele>
        <time>2025-05-04T14:41:34Z</time>
      </trkpt>
      <trkpt lat="38.96852002479136" lon="-9.262248007580638">
        <ele>146.74000000000001</ele>
        <time>2025-05-04T14:41:36Z</time>
      </trkpt>
      <trkpt lat="38.968430003151298" lon="-9.26238396205008">
        <ele>147.22</ele>
        <time>2025-05-04T14:41:37Z</time>
      </trkpt>
      <trkpt lat="38.968329001218081" lon="-9.262478007003665">
        <ele>147.69999999999999</ele>
        <time>2025-05-04T14:41:38Z</time>
      </trkpt>
      <trkpt lat="38.968222970142961" lon="-9.26257599145174">
        <ele>148.18000000000001</ele>
        <time>2025-05-04T14:41:39Z</time>
      </trkpt>
      <trkpt lat="38.968091960996389" lon="-9.262631982564926">
        <ele>148.66</ele>
        <time>2025-05-04T14:41:40Z</time>
      </trkpt>
      <trkpt lat="38.967951983213425" lon="-9.26266198977828">
        <ele>149.13999999999999</ele>
        <time>2025-05-04T14:41:41Z</time>
      </trkpt>
      <trkpt lat="38.967803958803415" lon="-9.262679005041719">
        <ele>149.62</ele>
        <time>2025-05-04T14:41:42Z</time>
      </trkpt>
      <trkpt lat="38.967650989070535" lon="-9.262685040012002">
        <ele>150.09999999999999</ele>
        <time>2025-05-04T14:41:43Z</time>
      </trkpt>
      <trkpt lat="38.966066977009177" lon="-9.262712029740214">
        <ele>152.50999999999999</ele>
        <time>2025-05-04T14:41:52Z</time>
      </trkpt>
      <trkpt lat="38.965870002284646" lon="-9.262716975063086">
        <ele>152.50999999999999</ele>
        <time>2025-05-04T14:41:53Z</time>
      </trkpt>
      <trkpt lat="38.964745989069343" lon="-9.262413969263434">
        <ele>154.91</ele>
        <time>2025-05-04T14:41:59Z</time>
      </trkpt>
      <trkpt lat="38.963382001966238" lon="-9.261305965483189">
        <ele>160.19999999999999</ele>
        <time>2025-05-04T14:42:07Z</time>
      </trkpt>
      <trkpt lat="38.962510032579303" lon="-9.260599035769701">
        <ele>166.44999999999999</ele>
        <time>2025-05-04T14:42:12Z</time>
      </trkpt>
      <trkpt lat="38.962311968207359" lon="-9.260513037443161">
        <ele>167.41</ele>
        <time>2025-05-04T14:42:13Z</time>
      </trkpt>
      <trkpt lat="38.962099989876151" lon="-9.260433996096253">
        <ele>168.84999999999999</ele>
        <time>2025-05-04T14:42:14Z</time>
      </trkpt>
      <trkpt lat="38.961892034858465" lon="-9.260358978062868">
        <ele>169.81</ele>
        <time>2025-05-04T14:42:15Z</time>
      </trkpt>
      <trkpt lat="38.961682990193367" lon="-9.260347997769713">
        <ele>170.77000000000001</ele>
        <time>2025-05-04T14:42:16Z</time>
      </trkpt>
      <trkpt lat="38.961485009640455" lon="-9.260337017476559">
        <ele>172.21000000000001</ele>
        <time>2025-05-04T14:42:17Z</time>
      </trkpt>
      <trkpt lat="38.960226969793439" lon="-9.260120010003448">
        <ele>180.87</ele>
        <time>2025-05-04T14:42:24Z</time>
      </trkpt>
      <trkpt lat="38.960070982575417" lon="-9.260052032768726">
        <ele>181.83000000000001</ele>
        <time>2025-05-04T14:42:25Z</time>
      </trkpt>
      <trkpt lat="38.958886032924056" lon="-9.259213004261255">
        <ele>185.66999999999999</ele>
        <time>2025-05-04T14:42:33Z</time>
      </trkpt>
      <trkpt lat="38.957721032202244" lon="-9.258740013465285">
        <ele>183.27000000000001</ele>
        <time>2025-05-04T14:42:41Z</time>
      </trkpt>
      <trkpt lat="38.956514960154891" lon="-9.258755017071962">
        <ele>180.87</ele>
        <time>2025-05-04T14:42:48Z</time>
      </trkpt>
      <trkpt lat="38.956327037885785" lon="-9.258807990700007">
        <ele>180.38</ele>
        <time>2025-05-04T14:42:49Z</time>
      </trkpt>
      <trkpt lat="38.956142971292138" lon="-9.258901029825211">
        <ele>180.38</ele>
        <time>2025-05-04T14:42:50Z</time>
      </trkpt>
      <trkpt lat="38.955972986295819" lon="-9.259027009829879">
        <ele>180.38</ele>
        <time>2025-05-04T14:42:51Z</time>
      </trkpt>
      <trkpt lat="38.954667001962662" lon="-9.260054966434836">
        <ele>184.22999999999999</ele>
        <time>2025-05-04T14:42:59Z</time>
      </trkpt>
      <trkpt lat="38.954481007531285" lon="-9.260108023881912">
        <ele>184.22999999999999</ele>
        <time>2025-05-04T14:43:00Z</time>
      </trkpt>
      <trkpt lat="38.954293001443148" lon="-9.260156974196434">
        <ele>183.75</ele>
        <time>2025-05-04T14:43:01Z</time>
      </trkpt>
      <trkpt lat="38.953258004039526" lon="-9.260411029681563">
        <ele>183.75</ele>
        <time>2025-05-04T14:43:07Z</time>
      </trkpt>
      <trkpt lat="38.953105034306645" lon="-9.260441036894918">
        <ele>183.75</ele>
        <time>2025-05-04T14:43:08Z</time>
      </trkpt>
      <trkpt lat="38.952947035431862" lon="-9.260408012196422">
        <ele>183.27000000000001</ele>
        <time>2025-05-04T14:43:09Z</time>
      </trkpt>
      <trkpt lat="38.952785013243556" lon="-9.260366018861532">
        <ele>183.27000000000001</ele>
        <time>2025-05-04T14:43:10Z</time>
      </trkpt>
      <trkpt lat="38.952618967741728" lon="-9.260300975292921">
        <ele>183.27000000000001</ele>
        <time>2025-05-04T14:43:11Z</time>
      </trkpt>
      <trkpt lat="38.952445965260267" lon="-9.260234003886581">
        <ele>182.78999999999999</ele>
        <time>2025-05-04T14:43:12Z</time>
      </trkpt>
      <trkpt lat="38.950719963759184" lon="-9.259469993412495">
        <ele>181.83000000000001</ele>
        <time>2025-05-04T14:43:22Z</time>
      </trkpt>
      <trkpt lat="38.950548972934484" lon="-9.259434035047889">
        <ele>181.83000000000001</ele>
        <time>2025-05-04T14:43:23Z</time>
      </trkpt>
      <trkpt lat="38.950370019301772" lon="-9.259414002299309">
        <ele>182.31</ele>
        <time>2025-05-04T14:43:24Z</time>
      </trkpt>
      <trkpt lat="38.949541971087456" lon="-9.259305959567428">
        <ele>183.27000000000001</ele>
        <time>2025-05-04T14:43:29Z</time>
      </trkpt>
      <trkpt lat="38.94940098747611" lon="-9.259260026738048">
        <ele>183.75</ele>
        <time>2025-05-04T14:43:30Z</time>
      </trkpt>
      <trkpt lat="38.949282970279455" lon="-9.259152989834547">
        <ele>184.71000000000001</ele>
        <time>2025-05-04T14:43:31Z</time>
      </trkpt>
      <trkpt lat="38.949181968346238" lon="-9.259036984294653">
        <ele>185.19</ele>
        <time>2025-05-04T14:43:32Z</time>
      </trkpt>
      <trkpt lat="38.949090018868446" lon="-9.258880997076631">
        <ele>186.15000000000001</ele>
        <time>2025-05-04T14:43:33Z</time>
      </trkpt>
      <trkpt lat="38.948992034420371" lon="-9.258716963231564">
        <ele>187.11000000000001</ele>
        <time>2025-05-04T14:43:34Z</time>
      </trkpt>
      <trkpt lat="38.948889020830393" lon="-9.258543038740754">
        <ele>187.59</ele>
        <time>2025-05-04T14:43:35Z</time>
      </trkpt>
      <trkpt lat="38.948039012029767" lon="-9.256948968395591">
        <ele>193.84</ele>
        <time>2025-05-04T14:43:42Z</time>
      </trkpt>
      <trkpt lat="38.947860980406404" lon="-9.256507996469736">
        <ele>195.28</ele>
        <time>2025-05-04T14:43:44Z</time>
      </trkpt>
      <trkpt lat="38.947803983464837" lon="-9.256282020360231">
        <ele>195.77000000000001</ele>
        <time>2025-05-04T14:43:45Z</time>
      </trkpt>
      <trkpt lat="38.947575995698571" lon="-9.254209008067846">
        <ele>200.09</ele>
        <time>2025-05-04T14:43:54Z</time>
      </trkpt>
      <trkpt lat="38.947653025388718" lon="-9.253518003970385">
        <ele>202.97999999999999</ele>
        <time>2025-05-04T14:43:57Z</time>
      </trkpt>
      <trkpt lat="38.947707004845142" lon="-9.253267971798778">
        <ele>203.94</ele>
        <time>2025-05-04T14:43:58Z</time>
      </trkpt>
      <trkpt lat="38.948176978155971" lon="-9.251782028004527">
        <ele>207.30000000000001</ele>
        <time>2025-05-04T14:44:04Z</time>
      </trkpt>
      <trkpt lat="38.948224000632763" lon="-9.251576000824571">
        <ele>207.78</ele>
        <time>2025-05-04T14:44:05Z</time>
      </trkpt>
      <trkpt lat="38.948264988139272" lon="-9.251377014443278">
        <ele>207.78</ele>
        <time>2025-05-04T14:44:06Z</time>
      </trkpt>
      <trkpt lat="38.948272028937936" lon="-9.251175010576844">
        <ele>208.25999999999999</ele>
        <time>2025-05-04T14:44:07Z</time>
      </trkpt>
      <trkpt lat="38.948272028937936" lon="-9.250981975346804">
        <ele>209.22</ele>
        <time>2025-05-04T14:44:08Z</time>
      </trkpt>
      <trkpt lat="38.948237998411059" lon="-9.250797992572188">
        <ele>209.69999999999999</ele>
        <time>2025-05-04T14:44:09Z</time>
      </trkpt>
      <trkpt lat="38.948204973712564" lon="-9.250611998140812">
        <ele>210.19</ele>
        <time>2025-05-04T14:44:10Z</time>
      </trkpt>
      <trkpt lat="38.948158035054803" lon="-9.250449975952506">
        <ele>211.15000000000001</ele>
        <time>2025-05-04T14:44:11Z</time>
      </trkpt>
      <trkpt lat="38.948086034506559" lon="-9.250290971249342">
        <ele>212.11000000000001</ele>
        <time>2025-05-04T14:44:12Z</time>
      </trkpt>
      <trkpt lat="38.948013028129935" lon="-9.250132972374558">
        <ele>212.59</ele>
        <time>2025-05-04T14:44:13Z</time>
      </trkpt>
      <trkpt lat="38.947949996218085" lon="-9.249995006248355">
        <ele>213.55000000000001</ele>
        <time>2025-05-04T14:44:14Z</time>
      </trkpt>
      <trkpt lat="38.947607008740306" lon="-9.249629974365234">
        <ele>215.47</ele>
        <time>2025-05-04T14:44:17Z</time>
      </trkpt>
      <trkpt lat="38.946680976077914" lon="-9.249011976644397">
        <ele>223.16</ele>
        <time>2025-05-04T14:44:24Z</time>
      </trkpt>
      <trkpt lat="38.946145037189126" lon="-9.248922038823366">
        <ele>226.53</ele>
        <time>2025-05-04T14:44:28Z</time>
      </trkpt>
      <trkpt lat="38.946013022214174" lon="-9.248927989974618">
        <ele>227.49000000000001</ele>
        <time>2025-05-04T14:44:29Z</time>
      </trkpt>
      <trkpt lat="38.945222022011876" lon="-9.249250022694469">
        <ele>232.30000000000001</ele>
        <time>2025-05-04T14:44:35Z</time>
      </trkpt>
      <trkpt lat="38.94420001655817" lon="-9.249914959073067">
        <ele>240.47</ele>
        <time>2025-05-04T14:44:44Z</time>
      </trkpt>
      <trkpt lat="38.943926012143493" lon="-9.250013027340174">
        <ele>243.34999999999999</ele>
        <time>2025-05-04T14:44:47Z</time>
      </trkpt>
      <trkpt lat="38.943844037130475" lon="-9.250038005411625">
        <ele>244.31</ele>
        <time>2025-05-04T14:44:48Z</time>
      </trkpt>
      <trkpt lat="38.943762984126806" lon="-9.250061977654696">
        <ele>244.78999999999999</ele>
        <time>2025-05-04T14:44:49Z</time>
      </trkpt>
      <trkpt lat="38.943657958880067" lon="-9.250294994562864">
        <ele>245.75</ele>
        <time>2025-05-04T14:44:50Z</time>
      </trkpt>
      <trkpt lat="38.943631974980235" lon="-9.250311003997922">
        <ele>246.72</ele>
        <time>2025-05-04T14:44:51Z</time>
      </trkpt>
      <trkpt lat="38.943542959168553" lon="-9.250360960140824">
        <ele>247.68000000000001</ele>
        <time>2025-05-04T14:44:52Z</time>
      </trkpt>
      <trkpt lat="38.943442963063717" lon="-9.250380992889404">
        <ele>248.63999999999999</ele>
        <time>2025-05-04T14:44:53Z</time>
      </trkpt>
      <trkpt lat="38.943337015807629" lon="-9.250369006767869">
        <ele>249.12</ele>
        <time>2025-05-04T14:44:54Z</time>
      </trkpt>
      <trkpt lat="38.943222016096115" lon="-9.250355008989573">
        <ele>249.59999999999999</ele>
        <time>2025-05-04T14:44:55Z</time>
      </trkpt>
      <trkpt lat="38.943079020828009" lon="-9.250337993726134">
        <ele>250.08000000000001</ele>
        <time>2025-05-04T14:44:56Z</time>
      </trkpt>
      <trkpt lat="38.942980030551553" lon="-9.250383004546166">
        <ele>250.08000000000001</ele>
        <time>2025-05-04T14:44:57Z</time>
      </trkpt>
      <trkpt lat="38.94286603666842" lon="-9.250445030629635">
        <ele>250.56</ele>
        <time>2025-05-04T14:44:58Z</time>
      </trkpt>
      <trkpt lat="38.942743996158242" lon="-9.250505967065692">
        <ele>250.56</ele>
        <time>2025-05-04T14:44:59Z</time>
      </trkpt>
      <trkpt lat="38.941700030118227" lon="-9.250846020877361">
        <ele>248.63999999999999</ele>
        <time>2025-05-04T14:45:08Z</time>
      </trkpt>
      <trkpt lat="38.940739966928959" lon="-9.251041989773512">
        <ele>247.19999999999999</ele>
        <time>2025-05-04T14:45:18Z</time>
      </trkpt>
      <trkpt lat="38.940594960004091" lon="-9.251064034178853">
        <ele>246.72</ele>
        <time>2025-05-04T14:45:22Z</time>
      </trkpt>
      <trkpt lat="38.940482977777719" lon="-9.251238964498043">
        <ele>246.22999999999999</ele>
        <time>2025-05-04T14:45:24Z</time>
      </trkpt>
      <trkpt lat="38.940409971401095" lon="-9.251238964498043">
        <ele>246.22999999999999</ele>
        <time>2025-05-04T14:45:25Z</time>
      </trkpt>
      <trkpt lat="38.94037501886487" lon="-9.251238964498043">
        <ele>246.22999999999999</ele>
        <time>2025-05-04T14:45:26Z</time>
      </trkpt>
      <trkpt lat="38.94013898447156" lon="-9.251175010576844">
        <ele>246.72</ele>
        <time>2025-05-04T14:45:28Z</time>
      </trkpt>
      <trkpt lat="38.939117984846234" lon="-9.251392018049955">
        <ele>246.72</ele>
        <time>2025-05-04T14:45:38Z</time>
      </trkpt>
      <trkpt lat="38.938447013497353" lon="-9.251525960862637">
        <ele>246.22999999999999</ele>
        <time>2025-05-04T14:45:44Z</time>
      </trkpt>
      <trkpt lat="38.938207039609551" lon="-9.251609025523067">
        <ele>246.22999999999999</ele>
        <time>2025-05-04T14:45:46Z</time>
      </trkpt>
      <trkpt lat="38.938086004927754" lon="-9.251651018857956">
        <ele>246.22999999999999</ele>
        <time>2025-05-04T14:45:47Z</time>
      </trkpt>
      <trkpt lat="38.937026029452682" lon="-9.252288965508342">
        <ele>245.27000000000001</ele>
        <time>2025-05-04T14:45:57Z</time>
      </trkpt>
      <trkpt lat="38.935946021229029" lon="-9.252976030111313">
        <ele>244.78999999999999</ele>
        <time>2025-05-04T14:46:07Z</time>
      </trkpt>
      <trkpt lat="38.935195002704859" lon="-9.253433011472225">
        <ele>242.87</ele>
        <time>2025-05-04T14:46:14Z</time>
      </trkpt>
      <trkpt lat="38.935031974688172" lon="-9.25367902033031">
        <ele>241.91</ele>
        <time>2025-05-04T14:46:16Z</time>
      </trkpt>
      <trkpt lat="38.934932984411716" lon="-9.253773987293243">
        <ele>240.47</ele>
        <time>2025-05-04T14:46:17Z</time>
      </trkpt>
      <trkpt lat="38.934482038021088" lon="-9.254202973097563">
        <ele>236.13999999999999</ele>
        <time>2025-05-04T14:46:22Z</time>
      </trkpt>
      <trkpt lat="38.934135027229786" lon="-9.254607986658812">
        <ele>233.25999999999999</ele>
        <time>2025-05-04T14:46:27Z</time>
      </trkpt>
      <trkpt lat="38.933707969263196" lon="-9.255223972722888">
        <ele>230.84999999999999</ele>
        <time>2025-05-04T14:46:35Z</time>
      </trkpt>
      <trkpt lat="38.933081002905965" lon="-9.256195016205311">
        <ele>231.33000000000001</ele>
        <time>2025-05-04T14:46:44Z</time>
      </trkpt>
      <trkpt lat="38.932498963549733" lon="-9.257059022784233">
        <ele>237.58000000000001</ele>
        <time>2025-05-04T14:46:53Z</time>
      </trkpt>
      <trkpt lat="38.932368960231543" lon="-9.257259014993906">
        <ele>239.50999999999999</ele>
        <time>2025-05-04T14:46:55Z</time>
      </trkpt>
      <trkpt lat="38.932307017967105" lon="-9.25735498778522">
        <ele>239.99000000000001</ele>
        <time>2025-05-04T14:46:56Z</time>
      </trkpt>
      <trkpt lat="38.931972999125719" lon="-9.258157974109054">
        <ele>242.38999999999999</ele>
        <time>2025-05-04T14:47:05Z</time>
      </trkpt>
      <trkpt lat="38.93193201161921" lon="-9.258328964933753">
        <ele>242.38999999999999</ele>
        <time>2025-05-04T14:47:07Z</time>
      </trkpt>
      <trkpt lat="38.931913990527391" lon="-9.258404988795519">
        <ele>242.38999999999999</ele>
        <time>2025-05-04T14:47:08Z</time>
      </trkpt>
      <trkpt lat="38.931895969435573" lon="-9.258482018485665">
        <ele>242.38999999999999</ele>
        <time>2025-05-04T14:47:09Z</time>
      </trkpt>
      <trkpt lat="38.931878032162786" lon="-9.25855603069067">
        <ele>242.87</ele>
        <time>2025-05-04T14:47:10Z</time>
      </trkpt>
      <trkpt lat="38.931895969435573" lon="-9.25864202901721">
        <ele>242.87</ele>
        <time>2025-05-04T14:47:11Z</time>
      </trkpt>
      <trkpt lat="38.93191197887063" lon="-9.258715035393834">
        <ele>243.34999999999999</ele>
        <time>2025-05-04T14:47:12Z</time>
      </trkpt>
      <trkpt lat="38.931928994134068" lon="-9.25879399292171">
        <ele>243.34999999999999</ele>
        <time>2025-05-04T14:47:13Z</time>
      </trkpt>
      <trkpt lat="38.931941986083984" lon="-9.25885702483356">
        <ele>243.83000000000001</ele>
        <time>2025-05-04T14:47:14Z</time>
      </trkpt>
      <trkpt lat="38.932002000510693" lon="-9.258917039260268">
        <ele>243.83000000000001</ele>
        <time>2025-05-04T14:47:15Z</time>
      </trkpt>
      <trkpt lat="38.932048017159104" lon="-9.258962972089648">
        <ele>243.83000000000001</ele>
        <time>2025-05-04T14:47:16Z</time>
      </trkpt>
      <trkpt lat="38.932090010493994" lon="-9.259003959596157">
        <ele>243.83000000000001</ele>
        <time>2025-05-04T14:47:17Z</time>
      </trkpt>
      <trkpt lat="38.932129992172122" lon="-9.259130023419857">
        <ele>244.31</ele>
        <time>2025-05-04T14:47:18Z</time>
      </trkpt>
      <trkpt lat="38.932124963030219" lon="-9.259214010089636">
        <ele>244.78999999999999</ele>
        <time>2025-05-04T14:47:19Z</time>
      </trkpt>
      <trkpt lat="38.932119011878967" lon="-9.259305037558079">
        <ele>244.78999999999999</ele>
        <time>2025-05-04T14:47:20Z</time>
      </trkpt>
      <trkpt lat="38.932112976908684" lon="-9.259401010349393">
        <ele>244.78999999999999</ele>
        <time>2025-05-04T14:47:21Z</time>
      </trkpt>
      <trkpt lat="38.932099984958768" lon="-9.259594967588782">
        <ele>244.31</ele>
        <time>2025-05-04T14:47:23Z</time>
      </trkpt>
      <trkpt lat="38.932095961645246" lon="-9.259665962308645">
        <ele>244.31</ele>
        <time>2025-05-04T14:47:24Z</time>
      </trkpt>
      <trkpt lat="38.932093027979136" lon="-9.259714996442199">
        <ele>243.83000000000001</ele>
        <time>2025-05-04T14:47:25Z</time>
      </trkpt>
      <trkpt lat="38.932093027979136" lon="-9.259714996442199">
        <ele>243.83000000000001</ele>
        <time>2025-05-04T14:47:26Z</time>
      </trkpt>
      <trkpt lat="38.932003006339073" lon="-9.259670991450548">
        <ele>243.83000000000001</ele>
        <time>2025-05-04T14:47:27Z</time>
      </trkpt>
      <trkpt lat="38.931921031326056" lon="-9.259628998115659">
        <ele>243.34999999999999</ele>
        <time>2025-05-04T14:47:28Z</time>
      </trkpt>
      <trkpt lat="38.931883983314037" lon="-9.259589016437531">
        <ele>243.34999999999999</ele>
        <time>2025-05-04T14:47:29Z</time>
      </trkpt>
      <trkpt lat="38.931820029392838" lon="-9.259520033374429">
        <ele>243.34999999999999</ele>
        <time>2025-05-04T14:47:30Z</time>
      </trkpt>
      <trkpt lat="38.931754985824227" lon="-9.259448032826185">
        <ele>243.34999999999999</ele>
        <time>2025-05-04T14:47:31Z</time>
      </trkpt>
      <trkpt lat="38.931486010551453" lon="-9.259156007319689">
        <ele>244.31</ele>
        <time>2025-05-04T14:47:35Z</time>
      </trkpt>
      <trkpt lat="38.931147968396544" lon="-9.258909998461604">
        <ele>247.68000000000001</ele>
        <time>2025-05-04T14:47:42Z</time>
      </trkpt>
      <trkpt lat="38.931141011416912" lon="-9.25892299041152">
        <ele>248.16</ele>
        <time>2025-05-04T14:47:43Z</time>
      </trkpt>
      <trkpt lat="38.931127013638616" lon="-9.258946040645242">
        <ele>248.16</ele>
        <time>2025-05-04T14:47:44Z</time>
      </trkpt>
      <trkpt lat="38.931104969233274" lon="-9.25898602232337">
        <ele>248.63999999999999</ele>
        <time>2025-05-04T14:47:45Z</time>
      </trkpt>
      <trkpt lat="38.93107202835381" lon="-9.259041007608175">
        <ele>248.63999999999999</ele>
        <time>2025-05-04T14:47:46Z</time>
      </trkpt>
      <trkpt lat="38.93103196285665" lon="-9.259110996499658">
        <ele>249.12</ele>
        <time>2025-05-04T14:47:47Z</time>
      </trkpt>
      <trkpt lat="38.930982006713748" lon="-9.259196994826198">
        <ele>249.12</ele>
        <time>2025-05-04T14:47:48Z</time>
      </trkpt>
      <trkpt lat="38.930920986458659" lon="-9.259292967617512">
        <ele>249.59999999999999</ele>
        <time>2025-05-04T14:47:49Z</time>
      </trkpt>
      <trkpt lat="38.93085703253746" lon="-9.259383995085955">
        <ele>249.12</ele>
        <time>2025-05-04T14:47:50Z</time>
      </trkpt>
      <trkpt lat="38.930603982880712" lon="-9.259763024747372">
        <ele>246.72</ele>
        <time>2025-05-04T14:47:55Z</time>
      </trkpt>
      <trkpt lat="38.930573975667357" lon="-9.259867966175079">
        <ele>245.75</ele>
        <time>2025-05-04T14:47:56Z</time>
      </trkpt>
      <trkpt lat="38.930281028151512" lon="-9.260799027979374">
        <ele>240.47</ele>
        <time>2025-05-04T14:48:03Z</time>
      </trkpt>
      <trkpt lat="38.930215984582901" lon="-9.260919978842139">
        <ele>239.99000000000001</ele>
        <time>2025-05-04T14:48:04Z</time>
      </trkpt>
      <trkpt lat="38.930141972377896" lon="-9.261014023795724">
        <ele>239.50999999999999</ele>
        <time>2025-05-04T14:48:05Z</time>
      </trkpt>
      <trkpt lat="38.930045999586582" lon="-9.261090969666839">
        <ele>239.02000000000001</ele>
        <time>2025-05-04T14:48:06Z</time>
      </trkpt>
      <trkpt lat="38.929942985996604" lon="-9.261173028498888">
        <ele>238.53999999999999</ele>
        <time>2025-05-04T14:48:07Z</time>
      </trkpt>
      <trkpt lat="38.929861010983586" lon="-9.261238994076848">
        <ele>238.06</ele>
        <time>2025-05-04T14:48:08Z</time>
      </trkpt>
      <trkpt lat="38.929756991565228" lon="-9.261402022093535">
        <ele>237.58000000000001</ele>
        <time>2025-05-04T14:48:09Z</time>
      </trkpt>
      <trkpt lat="38.929682979360223" lon="-9.261560020968318">
        <ele>237.58000000000001</ele>
        <time>2025-05-04T14:48:10Z</time>
      </trkpt>
      <trkpt lat="38.929284000769258" lon="-9.262823006138206">
        <ele>238.53999999999999</ele>
        <time>2025-05-04T14:48:18Z</time>
      </trkpt>
      <trkpt lat="38.929290035739541" lon="-9.262958038598299">
        <ele>238.53999999999999</ele>
        <time>2025-05-04T14:48:19Z</time>
      </trkpt>
      <trkpt lat="38.929296992719173" lon="-9.263104973360896">
        <ele>239.02000000000001</ele>
        <time>2025-05-04T14:48:20Z</time>
      </trkpt>
      <trkpt lat="38.929383996874094" lon="-9.263773011043668">
        <ele>240.47</ele>
        <time>2025-05-04T14:48:25Z</time>
      </trkpt>
      <trkpt lat="38.929371004924178" lon="-9.263889016583562">
        <ele>240.94999999999999</ele>
        <time>2025-05-04T14:48:26Z</time>
      </trkpt>
      <trkpt lat="38.929314007982612" lon="-9.26399203017354">
        <ele>241.43000000000001</ele>
        <time>2025-05-04T14:48:27Z</time>
      </trkpt>
      <trkpt lat="38.929238989949226" lon="-9.264090014621615">
        <ele>241.91</ele>
        <time>2025-05-04T14:48:28Z</time>
      </trkpt>
      <trkpt lat="38.929158020764589" lon="-9.264195961877704">
        <ele>241.91</ele>
        <time>2025-05-04T14:48:29Z</time>
      </trkpt>
      <trkpt lat="38.929077973589301" lon="-9.264300987124443">
        <ele>241.91</ele>
        <time>2025-05-04T14:48:30Z</time>
      </trkpt>
      <trkpt lat="38.928784020245075" lon="-9.264724021777511">
        <ele>241.43000000000001</ele>
        <time>2025-05-04T14:48:34Z</time>
      </trkpt>
      <trkpt lat="38.928739009425044" lon="-9.264859976246953">
        <ele>241.43000000000001</ele>
        <time>2025-05-04T14:48:35Z</time>
      </trkpt>
      <trkpt lat="38.928701039403677" lon="-9.26500397734344">
        <ele>240.94999999999999</ele>
        <time>2025-05-04T14:48:36Z</time>
      </trkpt>
      <trkpt lat="38.928695004433393" lon="-9.265176979824901">
        <ele>240.94999999999999</ele>
        <time>2025-05-04T14:48:37Z</time>
      </trkpt>
      <trkpt lat="38.928718976676464" lon="-9.265343025326729">
        <ele>240.47</ele>
        <time>2025-05-04T14:48:38Z</time>
      </trkpt>
      <trkpt lat="38.928745966404676" lon="-9.265504041686654">
        <ele>239.99000000000001</ele>
        <time>2025-05-04T14:48:39Z</time>
      </trkpt>
      <trkpt lat="38.928830958902836" lon="-9.265980971977115">
        <ele>238.53999999999999</ele>
        <time>2025-05-04T14:48:42Z</time>
      </trkpt>
      <trkpt lat="38.928845040500164" lon="-9.266122961416841">
        <ele>238.53999999999999</ele>
        <time>2025-05-04T14:48:43Z</time>
      </trkpt>
      <trkpt lat="38.928835988044739" lon="-9.266268974170089">
        <ele>238.53999999999999</ele>
        <time>2025-05-04T14:48:44Z</time>
      </trkpt>
      <trkpt lat="38.928801035508513" lon="-9.26642001606524">
        <ele>238.53999999999999</ele>
        <time>2025-05-04T14:48:45Z</time>
      </trkpt>
      <trkpt lat="38.928762981668115" lon="-9.266584971919656">
        <ele>238.53999999999999</ele>
        <time>2025-05-04T14:48:46Z</time>
      </trkpt>
      <trkpt lat="38.928519990295172" lon="-9.267661962658167">
        <ele>237.58000000000001</ele>
        <time>2025-05-04T14:48:52Z</time>
      </trkpt>
      <trkpt lat="38.928479002788663" lon="-9.26783898845315">
        <ele>237.58000000000001</ele>
        <time>2025-05-04T14:48:53Z</time>
      </trkpt>
      <trkpt lat="38.928266018629074" lon="-9.268734008073807">
        <ele>233.25999999999999</ele>
        <time>2025-05-04T14:48:58Z</time>
      </trkpt>
      <trkpt lat="38.928249003365636" lon="-9.268916985020042">
        <ele>232.78</ele>
        <time>2025-05-04T14:48:59Z</time>
      </trkpt>
      <trkpt lat="38.928240034729242" lon="-9.269288973882794">
        <ele>231.81</ele>
        <time>2025-05-04T14:49:01Z</time>
      </trkpt>
      <trkpt lat="38.928252020850778" lon="-9.269500030204654">
        <ele>230.84999999999999</ele>
        <time>2025-05-04T14:49:02Z</time>
      </trkpt>
      <trkpt lat="38.928326033055782" lon="-9.270188016816974">
        <ele>229.41</ele>
        <time>2025-05-04T14:49:06Z</time>
      </trkpt>
      <trkpt lat="38.928286973387003" lon="-9.270344004034996">
        <ele>228.93000000000001</ele>
        <time>2025-05-04T14:49:07Z</time>
      </trkpt>
      <trkpt lat="38.928238023072481" lon="-9.270486999303103">
        <ele>229.41</ele>
        <time>2025-05-04T14:49:08Z</time>
      </trkpt>
      <trkpt lat="38.928180020302534" lon="-9.270625971257687">
        <ele>229.41</ele>
        <time>2025-05-04T14:49:09Z</time>
      </trkpt>
      <trkpt lat="38.928110031411052" lon="-9.270748011767864">
        <ele>229.41</ele>
        <time>2025-05-04T14:49:10Z</time>
      </trkpt>
      <trkpt lat="38.928029984235764" lon="-9.270877009257674">
        <ele>228.93000000000001</ele>
        <time>2025-05-04T14:49:11Z</time>
      </trkpt>
      <trkpt lat="38.927948009222746" lon="-9.271007012575865">
        <ele>228.93000000000001</ele>
        <time>2025-05-04T14:49:12Z</time>
      </trkpt>
      <trkpt lat="38.927087020128965" lon="-9.272441994398832">
        <ele>228.44999999999999</ele>
        <time>2025-05-04T14:49:22Z</time>
      </trkpt>
      <trkpt lat="38.926524007692933" lon="-9.273332990705967">
        <ele>227.00999999999999</ele>
        <time>2025-05-04T14:49:28Z</time>
      </trkpt>
      <trkpt lat="38.926400961354375" lon="-9.273430975154042">
        <ele>226.53</ele>
        <time>2025-05-04T14:49:29Z</time>
      </trkpt>
      <trkpt lat="38.926264001056552" lon="-9.273502975702286">
        <ele>226.05000000000001</ele>
        <time>2025-05-04T14:49:30Z</time>
      </trkpt>
      <trkpt lat="38.925882959738374" lon="-9.273786032572389">
        <ele>224.61000000000001</ele>
        <time>2025-05-04T14:49:33Z</time>
      </trkpt>
      <trkpt lat="38.925777012482285" lon="-9.273917963728309">
        <ele>224.12</ele>
        <time>2025-05-04T14:49:34Z</time>
      </trkpt>
      <trkpt lat="38.925672993063927" lon="-9.274047967046499">
        <ele>222.68000000000001</ele>
        <time>2025-05-04T14:49:35Z</time>
      </trkpt>
      <trkpt lat="38.92557299695909" lon="-9.274174030870199">
        <ele>221.72</ele>
        <time>2025-05-04T14:49:36Z</time>
      </trkpt>
      <trkpt lat="38.925452968105674" lon="-9.274228010326624">
        <ele>220.28</ele>
        <time>2025-05-04T14:49:37Z</time>
      </trkpt>
      <trkpt lat="38.925332017242908" lon="-9.274278972297907">
        <ele>218.84</ele>
        <time>2025-05-04T14:49:38Z</time>
      </trkpt>
      <trkpt lat="38.925204025581479" lon="-9.274305962026119">
        <ele>217.88</ele>
        <time>2025-05-04T14:49:39Z</time>
      </trkpt>
      <trkpt lat="38.92507603392005" lon="-9.274305962026119">
        <ele>216.91</ele>
        <time>2025-05-04T14:49:40Z</time>
      </trkpt>
      <trkpt lat="38.924957010895014" lon="-9.274262962862849">
        <ele>215.94999999999999</ele>
        <time>2025-05-04T14:49:41Z</time>
      </trkpt>
      <trkpt lat="38.924837987869978" lon="-9.274203032255173">
        <ele>215.47</ele>
        <time>2025-05-04T14:49:42Z</time>
      </trkpt>
      <trkpt lat="38.924726005643606" lon="-9.274118961766362">
        <ele>214.99000000000001</ele>
        <time>2025-05-04T14:49:43Z</time>
      </trkpt>
      <trkpt lat="38.924610000103712" lon="-9.274032041430473">
        <ele>214.03</ele>
        <time>2025-05-04T14:49:44Z</time>
      </trkpt>
      <trkpt lat="38.924357034265995" lon="-9.273892985656858">
        <ele>213.06999999999999</ele>
        <time>2025-05-04T14:49:46Z</time>
      </trkpt>
      <trkpt lat="38.924233987927437" lon="-9.273826014250517">
        <ele>213.06999999999999</ele>
        <time>2025-05-04T14:49:47Z</time>
      </trkpt>
      <trkpt lat="38.924105996266007" lon="-9.273770023137331">
        <ele>212.59</ele>
        <time>2025-05-04T14:49:48Z</time>
      </trkpt>
      <trkpt lat="38.923980016261339" lon="-9.273770023137331">
        <ele>212.59</ele>
        <time>2025-05-04T14:49:49Z</time>
      </trkpt>
      <trkpt lat="38.92385202459991" lon="-9.273805981501937">
        <ele>212.11000000000001</ele>
        <time>2025-05-04T14:49:50Z</time>
      </trkpt>
      <trkpt lat="38.9237230271101" lon="-9.273848980665207">
        <ele>211.63</ele>
        <time>2025-05-04T14:49:51Z</time>
      </trkpt>
      <trkpt lat="38.92359402962029" lon="-9.273886028677225">
        <ele>211.15000000000001</ele>
        <time>2025-05-04T14:49:52Z</time>
      </trkpt>
      <trkpt lat="38.923036968335509" lon="-9.274076968431473">
        <ele>208.74000000000001</ele>
        <time>2025-05-04T14:49:57Z</time>
      </trkpt>
      <trkpt lat="38.922934038564563" lon="-9.274146035313606">
        <ele>208.25999999999999</ele>
        <time>2025-05-04T14:49:58Z</time>
      </trkpt>
      <trkpt lat="38.92288701608777" lon="-9.27417797036469">
        <ele>207.78</ele>
        <time>2025-05-04T14:49:59Z</time>
      </trkpt>
      <trkpt lat="38.922802023589611" lon="-9.274331023916602">
        <ele>207.30000000000001</ele>
        <time>2025-05-04T14:50:00Z</time>
      </trkpt>
      <trkpt lat="38.922766987234354" lon="-9.27443403750658">
        <ele>206.34</ele>
        <time>2025-05-04T14:50:01Z</time>
      </trkpt>
      <trkpt lat="38.92273798584938" lon="-9.2745659686625">
        <ele>205.86000000000001</ele>
        <time>2025-05-04T14:50:02Z</time>
      </trkpt>
      <trkpt lat="38.922716025263071" lon="-9.274697983637452">
        <ele>205.38</ele>
        <time>2025-05-04T14:50:03Z</time>
      </trkpt>
      <trkpt lat="38.922720970585942" lon="-9.274847013875842">
        <ele>204.41999999999999</ele>
        <time>2025-05-04T14:50:04Z</time>
      </trkpt>
      <trkpt lat="38.922733962535858" lon="-9.27525001578033">
        <ele>202.97999999999999</ele>
        <time>2025-05-04T14:50:07Z</time>
      </trkpt>
      <trkpt lat="38.922720970585942" lon="-9.275383958593011">
        <ele>202.49000000000001</ele>
        <time>2025-05-04T14:50:08Z</time>
      </trkpt>
      <trkpt lat="38.922684006392956" lon="-9.275496024638414">
        <ele>201.53</ele>
        <time>2025-05-04T14:50:09Z</time>
      </trkpt>
      <trkpt lat="38.922611000016332" lon="-9.275568025186658">
        <ele>200.56999999999999</ele>
        <time>2025-05-04T14:50:10Z</time>
      </trkpt>
      <trkpt lat="38.922501029446721" lon="-9.27563700824976">
        <ele>200.09</ele>
        <time>2025-05-04T14:50:11Z</time>
      </trkpt>
      <trkpt lat="38.922430034726858" lon="-9.27566098049283">
        <ele>200.09</ele>
        <time>2025-05-04T14:50:12Z</time>
      </trkpt>
      <trkpt lat="38.922330038622022" lon="-9.275695011019707">
        <ele>200.09</ele>
        <time>2025-05-04T14:50:13Z</time>
      </trkpt>
      <trkpt lat="38.92181396484375" lon="-9.275872958824039">
        <ele>200.09</ele>
        <time>2025-05-04T14:50:18Z</time>
      </trkpt>
      <trkpt lat="38.921663006767631" lon="-9.27600396797061">
        <ele>200.56999999999999</ele>
        <time>2025-05-04T14:50:20Z</time>
      </trkpt>
      <trkpt lat="38.921612966805696" lon="-9.276121985167265">
        <ele>201.05000000000001</ele>
        <time>2025-05-04T14:50:21Z</time>
      </trkpt>
      <trkpt lat="38.921554964035749" lon="-9.276242014020681">
        <ele>201.05000000000001</ele>
        <time>2025-05-04T14:50:22Z</time>
      </trkpt>
      <trkpt lat="38.921499978750944" lon="-9.276351984590292">
        <ele>201.05000000000001</ele>
        <time>2025-05-04T14:50:23Z</time>
      </trkpt>
      <trkpt lat="38.92142403870821" lon="-9.276446029543877">
        <ele>201.05000000000001</ele>
        <time>2025-05-04T14:50:24Z</time>
      </trkpt>
      <trkpt lat="38.921338962391019" lon="-9.276511995121837">
        <ele>201.05000000000001</ele>
        <time>2025-05-04T14:50:25Z</time>
      </trkpt>
      <trkpt lat="38.921255981549621" lon="-9.276576032862067">
        <ele>201.05000000000001</ele>
        <time>2025-05-04T14:50:26Z</time>
      </trkpt>
      <trkpt lat="38.921075016260147" lon="-9.276717016473413">
        <ele>201.05000000000001</ele>
        <time>2025-05-04T14:50:28Z</time>
      </trkpt>
      <trkpt lat="38.920978959649801" lon="-9.276792034506798">
        <ele>201.53</ele>
        <time>2025-05-04T14:50:29Z</time>
      </trkpt>
      <trkpt lat="38.920887010172009" lon="-9.276865962892771">
        <ele>201.05000000000001</ele>
        <time>2025-05-04T14:50:30Z</time>
      </trkpt>
      <trkpt lat="38.920806962996721" lon="-9.276971993967891">
        <ele>201.05000000000001</ele>
        <time>2025-05-04T14:50:31Z</time>
      </trkpt>
      <trkpt lat="38.920728005468845" lon="-9.277079030871391">
        <ele>201.05000000000001</ele>
        <time>2025-05-04T14:50:32Z</time>
      </trkpt>
      <trkpt lat="38.920677965506911" lon="-9.277202999219298">
        <ele>200.56999999999999</ele>
        <time>2025-05-04T14:50:33Z</time>
      </trkpt>
      <trkpt lat="38.920643012970686" lon="-9.277353035286069">
        <ele>200.56999999999999</ele>
        <time>2025-05-04T14:50:34Z</time>
      </trkpt>
      <trkpt lat="38.920607976615429" lon="-9.277498964220285">
        <ele>200.09</ele>
        <time>2025-05-04T14:50:35Z</time>
      </trkpt>
      <trkpt lat="38.920575035735965" lon="-9.277639025822282">
        <ele>199.61000000000001</ele>
        <time>2025-05-04T14:50:36Z</time>
      </trkpt>
      <trkpt lat="38.920543016865849" lon="-9.277772968634963">
        <ele>199.13</ele>
        <time>2025-05-04T14:50:37Z</time>
      </trkpt>
      <trkpt lat="38.920512003824115" lon="-9.277905989438295">
        <ele>198.65000000000001</ele>
        <time>2025-05-04T14:50:38Z</time>
      </trkpt>
      <trkpt lat="38.920434974133968" lon="-9.278317037969828">
        <ele>196.72999999999999</ele>
        <time>2025-05-04T14:50:41Z</time>
      </trkpt>
      <trkpt lat="38.920405972748995" lon="-9.278798997402191">
        <ele>195.28</ele>
        <time>2025-05-04T14:50:44Z</time>
      </trkpt>
      <trkpt lat="38.920380994677544" lon="-9.278960013762116">
        <ele>194.80000000000001</ele>
        <time>2025-05-04T14:50:45Z</time>
      </trkpt>
      <trkpt lat="38.920257026329637" lon="-9.279244998469949">
        <ele>193.36000000000001</ele>
        <time>2025-05-04T14:50:47Z</time>
      </trkpt>
      <trkpt lat="38.919560993090272" lon="-9.280704958364368">
        <ele>188.08000000000001</ele>
        <time>2025-05-04T14:50:57Z</time>
      </trkpt>
      <trkpt lat="38.918914999812841" lon="-9.282139018177986">
        <ele>184.71000000000001</ele>
        <time>2025-05-04T14:51:07Z</time>
      </trkpt>
      <trkpt lat="38.918447038158774" lon="-9.283706014975905">
        <ele>184.71000000000001</ele>
        <time>2025-05-04T14:51:17Z</time>
      </trkpt>
      <trkpt lat="38.918360034003854" lon="-9.284036010503769">
        <ele>185.66999999999999</ele>
        <time>2025-05-04T14:51:19Z</time>
      </trkpt>
      <trkpt lat="38.918317034840584" lon="-9.284198032692075">
        <ele>186.15000000000001</ele>
        <time>2025-05-04T14:51:20Z</time>
      </trkpt>
      <trkpt lat="38.918237993493676" lon="-9.284341027960181">
        <ele>186.63</ele>
        <time>2025-05-04T14:51:21Z</time>
      </trkpt>
      <trkpt lat="38.91800899989903" lon="-9.284757021814585">
        <ele>186.63</ele>
        <time>2025-05-04T14:51:24Z</time>
      </trkpt>
      <trkpt lat="38.917963989078999" lon="-9.284914014860988">
        <ele>186.15000000000001</ele>
        <time>2025-05-04T14:51:25Z</time>
      </trkpt>
      <trkpt lat="38.917969018220901" lon="-9.285086011514068">
        <ele>186.15000000000001</ele>
        <time>2025-05-04T14:51:26Z</time>
      </trkpt>
      <trkpt lat="38.918017968535423" lon="-9.285232024267316">
        <ele>185.66999999999999</ele>
        <time>2025-05-04T14:51:27Z</time>
      </trkpt>
      <trkpt lat="38.91807597130537" lon="-9.285380970686674">
        <ele>185.19</ele>
        <time>2025-05-04T14:51:28Z</time>
      </trkpt>
      <trkpt lat="38.91816096380353" lon="-9.285506028681994">
        <ele>185.19</ele>
        <time>2025-05-04T14:51:29Z</time>
      </trkpt>
      <trkpt lat="38.918248973786831" lon="-9.285634020343423">
        <ele>184.71000000000001</ele>
        <time>2025-05-04T14:51:30Z</time>
      </trkpt>
      <trkpt lat="38.918334972113371" lon="-9.285760000348091">
        <ele>184.71000000000001</ele>
        <time>2025-05-04T14:51:31Z</time>
      </trkpt>
      <trkpt lat="38.918386017903686" lon="-9.285908024758101">
        <ele>184.22999999999999</ele>
        <time>2025-05-04T14:51:32Z</time>
      </trkpt>
      <trkpt lat="38.918403033167124" lon="-9.286064011976123">
        <ele>183.75</ele>
        <time>2025-05-04T14:51:33Z</time>
      </trkpt>
      <trkpt lat="38.918403033167124" lon="-9.286233996972442">
        <ele>183.27000000000001</ele>
        <time>2025-05-04T14:51:34Z</time>
      </trkpt>
      <trkpt lat="38.918403033167124" lon="-9.286410016939044">
        <ele>182.78999999999999</ele>
        <time>2025-05-04T14:51:35Z</time>
      </trkpt>
      <trkpt lat="38.918403033167124" lon="-9.287781966850162">
        <ele>182.31</ele>
        <time>2025-05-04T14:51:43Z</time>
      </trkpt>
      <trkpt lat="38.918476961553097" lon="-9.288116991519928">
        <ele>183.75</ele>
        <time>2025-05-04T14:51:46Z</time>
      </trkpt>
      <trkpt lat="38.91850202344358" lon="-9.288234002888203">
        <ele>184.22999999999999</ele>
        <time>2025-05-04T14:51:47Z</time>
      </trkpt>
      <trkpt lat="38.91871701925993" lon="-9.289552979171276">
        <ele>188.56</ele>
        <time>2025-05-04T14:51:56Z</time>
      </trkpt>
      <trkpt lat="38.918807962909341" lon="-9.290145998820663">
        <ele>190.47999999999999</ele>
        <time>2025-05-04T14:52:00Z</time>
      </trkpt>
      <trkpt lat="38.918859008699656" lon="-9.290286982432008">
        <ele>190.96000000000001</ele>
        <time>2025-05-04T14:52:01Z</time>
      </trkpt>
      <trkpt lat="38.91949201002717" lon="-9.291612999513745">
        <ele>197.69</ele>
        <time>2025-05-04T14:52:11Z</time>
      </trkpt>
      <trkpt lat="38.91981496475637" lon="-9.292256981134415">
        <ele>201.05000000000001</ele>
        <time>2025-05-04T14:52:16Z</time>
      </trkpt>
      <trkpt lat="38.919919990003109" lon="-9.292528973892331">
        <ele>202.97999999999999</ele>
        <time>2025-05-04T14:52:18Z</time>
      </trkpt>
      <trkpt lat="38.919991990551353" lon="-9.292652020230889">
        <ele>203.94</ele>
        <time>2025-05-04T14:52:19Z</time>
      </trkpt>
      <trkpt lat="38.920068014413118" lon="-9.292771965265274">
        <ele>204.90000000000001</ele>
        <time>2025-05-04T14:52:20Z</time>
      </trkpt>
      <trkpt lat="38.920164993032813" lon="-9.292860981076956">
        <ele>205.86000000000001</ele>
        <time>2025-05-04T14:52:21Z</time>
      </trkpt>
      <trkpt lat="38.920262977480888" lon="-9.292949996888638">
        <ele>206.81999999999999</ele>
        <time>2025-05-04T14:52:22Z</time>
      </trkpt>
      <trkpt lat="38.920360961928964" lon="-9.293039012700319">
        <ele>207.30000000000001</ele>
        <time>2025-05-04T14:52:23Z</time>
      </trkpt>
      <trkpt lat="38.921652026474476" lon="-9.294192027300596">
        <ele>218.36000000000001</ele>
        <time>2025-05-04T14:52:36Z</time>
      </trkpt>
      <trkpt lat="38.921766020357609" lon="-9.294249024242163">
        <ele>218.84</ele>
        <time>2025-05-04T14:52:37Z</time>
      </trkpt>
      <trkpt lat="38.922419976443052" lon="-9.294581031426787">
        <ele>222.68000000000001</ele>
        <time>2025-05-04T14:52:43Z</time>
      </trkpt>
      <trkpt lat="38.922497006133199" lon="-9.294649008661509">
        <ele>224.12</ele>
        <time>2025-05-04T14:52:44Z</time>
      </trkpt>
      <trkpt lat="38.922537993639708" lon="-9.294744981452823">
        <ele>225.09</ele>
        <time>2025-05-04T14:52:45Z</time>
      </trkpt>
      <trkpt lat="38.922527013346553" lon="-9.294844977557659">
        <ele>226.53</ele>
        <time>2025-05-04T14:52:46Z</time>
      </trkpt>
      <trkpt lat="38.92247898504138" lon="-9.294929970055819">
        <ele>227.49000000000001</ele>
        <time>2025-05-04T14:52:47Z</time>
      </trkpt>
      <trkpt lat="38.922396004199982" lon="-9.29501798003912">
        <ele>228.93000000000001</ele>
        <time>2025-05-04T14:52:48Z</time>
      </trkpt>
      <trkpt lat="38.922301959246397" lon="-9.295117976143956">
        <ele>229.88999999999999</ele>
        <time>2025-05-04T14:52:49Z</time>
      </trkpt>
      <trkpt lat="38.922206992283463" lon="-9.295217972248793">
        <ele>230.84999999999999</ele>
        <time>2025-05-04T14:52:50Z</time>
      </trkpt>
      <trkpt lat="38.922135997563601" lon="-9.295313023030758">
        <ele>231.81</ele>
        <time>2025-05-04T14:52:51Z</time>
      </trkpt>
      <trkpt lat="38.922111019492149" lon="-9.295472027733922">
        <ele>232.78</ele>
        <time>2025-05-04T14:52:52Z</time>
      </trkpt>
      <trkpt lat="38.922088975086808" lon="-9.295614017173648">
        <ele>233.74000000000001</ele>
        <time>2025-05-04T14:52:53Z</time>
      </trkpt>
      <trkpt lat="38.922080006450415" lon="-9.295763969421387">
        <ele>234.22</ele>
        <time>2025-05-04T14:52:54Z</time>
      </trkpt>
      <trkpt lat="38.922110013663769" lon="-9.295908976346254">
        <ele>235.18000000000001</ele>
        <time>2025-05-04T14:52:55Z</time>
      </trkpt>
      <trkpt lat="38.922163993120193" lon="-9.296035040169954">
        <ele>235.66</ele>
        <time>2025-05-04T14:52:56Z</time>
      </trkpt>
      <trkpt lat="38.922232976183295" lon="-9.296129001304507">
        <ele>236.13999999999999</ele>
        <time>2025-05-04T14:52:57Z</time>
      </trkpt>
      <trkpt lat="38.922328026965261" lon="-9.296192033216357">
        <ele>237.58000000000001</ele>
        <time>2025-05-04T14:52:58Z</time>
      </trkpt>
      <trkpt lat="38.922458030283451" lon="-9.296279037371278">
        <ele>238.06</ele>
        <time>2025-05-04T14:52:59Z</time>
      </trkpt>
      <trkpt lat="38.92254201695323" lon="-9.296297980472446">
        <ele>239.50999999999999</ele>
        <time>2025-05-04T14:53:00Z</time>
      </trkpt>
      <trkpt lat="38.922657016664743" lon="-9.296322958543897">
        <ele>239.99000000000001</ele>
        <time>2025-05-04T14:53:01Z</time>
      </trkpt>
      <trkpt lat="38.92329596914351" lon="-9.296453967690468">
        <ele>245.27000000000001</ele>
        <time>2025-05-04T14:53:08Z</time>
      </trkpt>
      <trkpt lat="38.923375010490417" lon="-9.296469977125526">
        <ele>248.63999999999999</ele>
        <time>2025-05-04T14:53:16Z</time>
      </trkpt>
      <trkpt lat="38.923411974683404" lon="-9.29647802375257">
        <ele>249.12</ele>
        <time>2025-05-04T14:53:17Z</time>
      </trkpt>
      <trkpt lat="38.923476012423635" lon="-9.296566033735871">
        <ele>249.12</ele>
        <time>2025-05-04T14:53:18Z</time>
      </trkpt>
      <trkpt lat="38.923462014645338" lon="-9.296643985435367">
        <ele>249.12</ele>
        <time>2025-05-04T14:53:19Z</time>
      </trkpt>
      <trkpt lat="38.923447011038661" lon="-9.296734007075429">
        <ele>249.59999999999999</ele>
        <time>2025-05-04T14:53:20Z</time>
      </trkpt>
      <trkpt lat="38.923428989946842" lon="-9.296839032322168">
        <ele>249.59999999999999</ele>
        <time>2025-05-04T14:53:21Z</time>
      </trkpt>
      <trkpt lat="38.923409041017294" lon="-9.296956965699792">
        <ele>249.12</ele>
        <time>2025-05-04T14:53:22Z</time>
      </trkpt>
      <trkpt lat="38.923268979415298" lon="-9.297525007277727">
        <ele>247.19999999999999</ele>
        <time>2025-05-04T14:53:27Z</time>
      </trkpt>
      <trkpt lat="38.92323100939393" lon="-9.297608993947506">
        <ele>247.19999999999999</ele>
        <time>2025-05-04T14:53:28Z</time>
      </trkpt>
      <trkpt lat="38.923169989138842" lon="-9.29768200032413">
        <ele>247.19999999999999</ele>
        <time>2025-05-04T14:53:29Z</time>
      </trkpt>
      <trkpt lat="38.923103017732501" lon="-9.297750983387232">
        <ele>246.72</ele>
        <time>2025-05-04T14:53:30Z</time>
      </trkpt>
      <trkpt lat="38.923009978607297" lon="-9.297808986157179">
        <ele>246.22999999999999</ele>
        <time>2025-05-04T14:53:31Z</time>
      </trkpt>
      <trkpt lat="38.922172961756587" lon="-9.298331011086702">
        <ele>241.43000000000001</ele>
        <time>2025-05-04T14:53:39Z</time>
      </trkpt>
      <trkpt lat="38.922063997015357" lon="-9.298385996371508">
        <ele>240.47</ele>
        <time>2025-05-04T14:53:40Z</time>
      </trkpt>
      <trkpt lat="38.921957965940237" lon="-9.2984330188483">
        <ele>239.99000000000001</ele>
        <time>2025-05-04T14:53:41Z</time>
      </trkpt>
      <trkpt lat="38.921836009249091" lon="-9.298467971384525">
        <ele>239.99000000000001</ele>
        <time>2025-05-04T14:53:42Z</time>
      </trkpt>
      <trkpt lat="38.921151962131262" lon="-9.298600992187858">
        <ele>238.53999999999999</ele>
        <time>2025-05-04T14:53:48Z</time>
      </trkpt>
      <trkpt lat="38.921053977683187" lon="-9.298676010221243">
        <ele>238.53999999999999</ele>
        <time>2025-05-04T14:53:49Z</time>
      </trkpt>
      <trkpt lat="38.920973008498549" lon="-9.298778017982841">
        <ele>238.53999999999999</ele>
        <time>2025-05-04T14:53:50Z</time>
      </trkpt>
      <trkpt lat="38.920922968536615" lon="-9.298896035179496">
        <ele>238.06</ele>
        <time>2025-05-04T14:53:51Z</time>
      </trkpt>
      <trkpt lat="38.920876029878855" lon="-9.299006005749106">
        <ele>238.06</ele>
        <time>2025-05-04T14:53:52Z</time>
      </trkpt>
      <trkpt lat="38.920849040150642" lon="-9.299129974097014">
        <ele>237.58000000000001</ele>
        <time>2025-05-04T14:53:53Z</time>
      </trkpt>
      <trkpt lat="38.920849040150642" lon="-9.299244973808527">
        <ele>237.58000000000001</ele>
        <time>2025-05-04T14:53:54Z</time>
      </trkpt>
      <trkpt lat="38.920849040150642" lon="-9.299347987398505">
        <ele>237.09999999999999</ele>
        <time>2025-05-04T14:53:55Z</time>
      </trkpt>
      <trkpt lat="38.920881981030107" lon="-9.299471033737063">
        <ele>236.13999999999999</ele>
        <time>2025-05-04T14:53:56Z</time>
      </trkpt>
      <trkpt lat="38.92091098241508" lon="-9.299579998478293">
        <ele>235.66</ele>
        <time>2025-05-04T14:53:57Z</time>
      </trkpt>
      <trkpt lat="38.921093037351966" lon="-9.299971014261246">
        <ele>234.22</ele>
        <time>2025-05-04T14:54:01Z</time>
      </trkpt>
      <trkpt lat="38.92114601098001" lon="-9.300072016194463">
        <ele>233.25999999999999</ele>
        <time>2025-05-04T14:54:02Z</time>
      </trkpt>
      <trkpt lat="38.921219017356634" lon="-9.300165977329016">
        <ele>232.30000000000001</ele>
        <time>2025-05-04T14:54:03Z</time>
      </trkpt>
      <trkpt lat="38.921597963199019" lon="-9.300525980070233">
        <ele>228.93000000000001</ele>
        <time>2025-05-04T14:54:08Z</time>
      </trkpt>
      <trkpt lat="38.921701982617378" lon="-9.300554981455207">
        <ele>228.44999999999999</ele>
        <time>2025-05-04T14:54:09Z</time>
      </trkpt>
      <trkpt lat="38.921800972893834" lon="-9.300581971183419">
        <ele>227.97</ele>
        <time>2025-05-04T14:54:10Z</time>
      </trkpt>
      <trkpt lat="38.922363985329866" lon="-9.300735024735332">
        <ele>225.09</ele>
        <time>2025-05-04T14:54:17Z</time>
      </trkpt>
      <trkpt lat="38.923031017184258" lon="-9.300928981974721">
        <ele>220.75999999999999</ele>
        <time>2025-05-04T14:54:25Z</time>
      </trkpt>
      <trkpt lat="38.92323100939393" lon="-9.300999976694584">
        <ele>219.31999999999999</ele>
        <time>2025-05-04T14:54:27Z</time>
      </trkpt>
      <trkpt lat="38.923305021598935" lon="-9.301074994727969">
        <ele>217.88</ele>
        <time>2025-05-04T14:54:28Z</time>
      </trkpt>
      <trkpt lat="38.923370987176895" lon="-9.301172979176045">
        <ele>216.43000000000001</ele>
        <time>2025-05-04T14:54:29Z</time>
      </trkpt>
      <trkpt lat="38.923423960804939" lon="-9.301283033564687">
        <ele>214.99000000000001</ele>
        <time>2025-05-04T14:54:30Z</time>
      </trkpt>
      <trkpt lat="38.923441981896758" lon="-9.301408007740974">
        <ele>214.03</ele>
        <time>2025-05-04T14:54:31Z</time>
      </trkpt>
      <trkpt lat="38.923436030745506" lon="-9.30152602493763">
        <ele>213.06999999999999</ele>
        <time>2025-05-04T14:54:32Z</time>
      </trkpt>
      <trkpt lat="38.92342496663332" lon="-9.30165502242744">
        <ele>212.59</ele>
        <time>2025-05-04T14:54:33Z</time>
      </trkpt>
      <trkpt lat="38.923412980511785" lon="-9.301799023523927">
        <ele>211.63</ele>
        <time>2025-05-04T14:54:34Z</time>
      </trkpt>
      <trkpt lat="38.923266967758536" lon="-9.303211038932204">
        <ele>202.00999999999999</ele>
        <time>2025-05-04T14:54:43Z</time>
      </trkpt>
      <trkpt lat="38.923160014674067" lon="-9.303895002231002">
        <ele>199.13</ele>
        <time>2025-05-04T14:54:47Z</time>
      </trkpt>
      <trkpt lat="38.923094971105456" lon="-9.303992986679077">
        <ele>199.13</ele>
        <time>2025-05-04T14:54:48Z</time>
      </trkpt>
      <trkpt lat="38.923029005527496" lon="-9.304090971127152">
        <ele>199.13</ele>
        <time>2025-05-04T14:54:49Z</time>
      </trkpt>
      <trkpt lat="38.922957004979253" lon="-9.304199013859034">
        <ele>199.13</ele>
        <time>2025-05-04T14:54:50Z</time>
      </trkpt>
      <trkpt lat="38.922885004431009" lon="-9.304292974993587">
        <ele>199.61000000000001</ele>
        <time>2025-05-04T14:54:51Z</time>
      </trkpt>
      <trkpt lat="38.922762963920832" lon="-9.304435970261693">
        <ele>200.09</ele>
        <time>2025-05-04T14:54:53Z</time>
      </trkpt>
      <trkpt lat="38.922704039141536" lon="-9.304505037143827">
        <ele>200.56999999999999</ele>
        <time>2025-05-04T14:54:54Z</time>
      </trkpt>
      <trkpt lat="38.922162987291813" lon="-9.305132003501058">
        <ele>203.94</ele>
        <time>2025-05-04T14:55:03Z</time>
      </trkpt>
      <trkpt lat="38.921269979327917" lon="-9.306058958172798">
        <ele>209.69999999999999</ele>
        <time>2025-05-04T14:55:14Z</time>
      </trkpt>
      <trkpt lat="38.920682994648814" lon="-9.307060008868575">
        <ele>214.50999999999999</ele>
        <time>2025-05-04T14:55:20Z</time>
      </trkpt>
      <trkpt lat="38.919969024136662" lon="-9.30803800933063">
        <ele>222.19999999999999</ele>
        <time>2025-05-04T14:55:27Z</time>
      </trkpt>
      <trkpt lat="38.91974899917841" lon="-9.308458026498556">
        <ele>224.61000000000001</ele>
        <time>2025-05-04T14:55:30Z</time>
      </trkpt>
      <trkpt lat="38.919740030542016" lon="-9.308615019544959">
        <ele>225.09</ele>
        <time>2025-05-04T14:55:31Z</time>
      </trkpt>
      <trkpt lat="38.919732989743352" lon="-9.30874602869153">
        <ele>225.56999999999999</ele>
        <time>2025-05-04T14:55:32Z</time>
      </trkpt>
      <trkpt lat="38.919732989743352" lon="-9.30874602869153">
        <ele>225.56999999999999</ele>
        <time>2025-05-04T14:55:33Z</time>
      </trkpt>
      <trkpt lat="38.919820999726653" lon="-9.308893969282508">
        <ele>225.56999999999999</ele>
        <time>2025-05-04T14:55:34Z</time>
      </trkpt>
      <trkpt lat="38.919897023588419" lon="-9.309022966772318">
        <ele>225.09</ele>
        <time>2025-05-04T14:55:35Z</time>
      </trkpt>
      <trkpt lat="38.919980004429817" lon="-9.309164034202695">
        <ele>224.61000000000001</ele>
        <time>2025-05-04T14:55:36Z</time>
      </trkpt>
      <trkpt lat="38.920063991099596" lon="-9.309276016429067">
        <ele>223.63999999999999</ele>
        <time>2025-05-04T14:55:37Z</time>
      </trkpt>
      <trkpt lat="38.920461041852832" lon="-9.309721011668444">
        <ele>218.84</ele>
        <time>2025-05-04T14:55:41Z</time>
      </trkpt>
      <trkpt lat="38.920561037957668" lon="-9.30986400693655">
        <ele>217.40000000000001</ele>
        <time>2025-05-04T14:55:42Z</time>
      </trkpt>
      <trkpt lat="38.920590039342642" lon="-9.30997297167778">
        <ele>216.43000000000001</ele>
        <time>2025-05-04T14:55:43Z</time>
      </trkpt>
      <trkpt lat="38.920606970787048" lon="-9.31010196916759">
        <ele>214.99000000000001</ele>
        <time>2025-05-04T14:55:44Z</time>
      </trkpt>
      <trkpt lat="38.920596996322274" lon="-9.310190984979272">
        <ele>214.50999999999999</ele>
        <time>2025-05-04T14:55:45Z</time>
      </trkpt>
      <trkpt lat="38.9205870218575" lon="-9.31027396582067">
        <ele>213.55000000000001</ele>
        <time>2025-05-04T14:55:46Z</time>
      </trkpt>
      <trkpt lat="38.920576041564345" lon="-9.310368010774255">
        <ele>213.55000000000001</ele>
        <time>2025-05-04T14:55:47Z</time>
      </trkpt>
      <trkpt lat="38.920529019087553" lon="-9.310459960252047">
        <ele>213.06999999999999</ele>
        <time>2025-05-04T14:55:48Z</time>
      </trkpt>
      <trkpt lat="38.920447966083884" lon="-9.310542019084096">
        <ele>212.59</ele>
        <time>2025-05-04T14:55:49Z</time>
      </trkpt>
      <trkpt lat="38.920363979414105" lon="-9.310626005753875">
        <ele>212.11000000000001</ele>
        <time>2025-05-04T14:55:50Z</time>
      </trkpt>
      <trkpt lat="38.920283010229468" lon="-9.310699012130499">
        <ele>211.63</ele>
        <time>2025-05-04T14:55:51Z</time>
      </trkpt>
      <trkpt lat="38.920181002467871" lon="-9.310712004080415">
        <ele>211.15000000000001</ele>
        <time>2025-05-04T14:55:52Z</time>
      </trkpt>
      <trkpt lat="38.92007396556437" lon="-9.31072399020195">
        <ele>210.66999999999999</ele>
        <time>2025-05-04T14:55:53Z</time>
      </trkpt>
      <trkpt lat="38.91996399499476" lon="-9.310736982151866">
        <ele>210.19</ele>
        <time>2025-05-04T14:55:54Z</time>
      </trkpt>
      <trkpt lat="38.919852012768388" lon="-9.310749974101782">
        <ele>209.69999999999999</ele>
        <time>2025-05-04T14:55:55Z</time>
      </trkpt>
      <trkpt lat="38.919624025002122" lon="-9.310776963829994">
        <ele>208.74000000000001</ele>
        <time>2025-05-04T14:55:57Z</time>
      </trkpt>
      <trkpt lat="38.91951103694737" lon="-9.310807976871729">
        <ele>208.25999999999999</ele>
        <time>2025-05-04T14:55:58Z</time>
      </trkpt>
      <trkpt lat="38.919400982558727" lon="-9.310860028490424">
        <ele>207.30000000000001</ele>
        <time>2025-05-04T14:55:59Z</time>
      </trkpt>
      <trkpt lat="38.919295035302639" lon="-9.310909984633327">
        <ele>206.81999999999999</ele>
        <time>2025-05-04T14:56:00Z</time>
      </trkpt>
      <trkpt lat="38.919183975085616" lon="-9.310967987403274">
        <ele>206.34</ele>
        <time>2025-05-04T14:56:01Z</time>
      </trkpt>
      <trkpt lat="38.918673014268279" lon="-9.311423040926457">
        <ele>203.94</ele>
        <time>2025-05-04T14:56:06Z</time>
      </trkpt>
      <trkpt lat="38.918511997908354" lon="-9.311663014814258">
        <ele>203.94</ele>
        <time>2025-05-04T14:56:08Z</time>
      </trkpt>
      <trkpt lat="38.918428011238575" lon="-9.311835011467338">
        <ele>203.94</ele>
        <time>2025-05-04T14:56:09Z</time>
      </trkpt>
      <trkpt lat="38.918335977941751" lon="-9.312024023383856">
        <ele>203.94</ele>
        <time>2025-05-04T14:56:10Z</time>
      </trkpt>
      <trkpt lat="38.917920989915729" lon="-9.31289398111403">
        <ele>205.38</ele>
        <time>2025-05-04T14:56:16Z</time>
      </trkpt>
      <trkpt lat="38.917895006015897" lon="-9.313021972775459">
        <ele>205.38</ele>
        <time>2025-05-04T14:56:17Z</time>
      </trkpt>
      <trkpt lat="38.917878996580839" lon="-9.313167985528708">
        <ele>205.38</ele>
        <time>2025-05-04T14:56:18Z</time>
      </trkpt>
      <trkpt lat="38.917870027944446" lon="-9.313335036858916">
        <ele>205.38</ele>
        <time>2025-05-04T14:56:19Z</time>
      </trkpt>
      <trkpt lat="38.91790296882391" lon="-9.313483983278275">
        <ele>204.90000000000001</ele>
        <time>2025-05-04T14:56:20Z</time>
      </trkpt>
      <trkpt lat="38.917936999350786" lon="-9.313641982153058">
        <ele>204.90000000000001</ele>
        <time>2025-05-04T14:56:21Z</time>
      </trkpt>
      <trkpt lat="38.917972035706043" lon="-9.313802998512983">
        <ele>204.90000000000001</ele>
        <time>2025-05-04T14:56:22Z</time>
      </trkpt>
      <trkpt lat="38.91824796795845" lon="-9.314979985356331">
        <ele>201.53</ele>
        <time>2025-05-04T14:56:30Z</time>
      </trkpt>
      <trkpt lat="38.918228019028902" lon="-9.315120968967676">
        <ele>201.05000000000001</ele>
        <time>2025-05-04T14:56:31Z</time>
      </trkpt>
      <trkpt lat="38.918207986280322" lon="-9.315261030569673">
        <ele>201.05000000000001</ele>
        <time>2025-05-04T14:56:32Z</time>
      </trkpt>
      <trkpt lat="38.918188959360123" lon="-9.315389022231102">
        <ele>201.53</ele>
        <time>2025-05-04T14:56:33Z</time>
      </trkpt>
      <trkpt lat="38.918119976297021" lon="-9.31544903665781">
        <ele>202.00999999999999</ele>
        <time>2025-05-04T14:56:34Z</time>
      </trkpt>
      <trkpt lat="38.918041018769145" lon="-9.315507961437106">
        <ele>202.49000000000001</ele>
        <time>2025-05-04T14:56:35Z</time>
      </trkpt>
      <trkpt lat="38.917930964380503" lon="-9.315591026097536">
        <ele>202.97999999999999</ele>
        <time>2025-05-04T14:56:36Z</time>
      </trkpt>
      <trkpt lat="38.917853012681007" lon="-9.315607035532594">
        <ele>203.94</ele>
        <time>2025-05-04T14:56:37Z</time>
      </trkpt>
      <trkpt lat="38.917743964120746" lon="-9.315628996118903">
        <ele>204.41999999999999</ele>
        <time>2025-05-04T14:56:38Z</time>
      </trkpt>
      <trkpt lat="38.917298968881369" lon="-9.315721029415727">
        <ele>207.30000000000001</ele>
        <time>2025-05-04T14:56:42Z</time>
      </trkpt>
      <trkpt lat="38.917195033282042" lon="-9.315745001658797">
        <ele>208.25999999999999</ele>
        <time>2025-05-04T14:56:43Z</time>
      </trkpt>
      <trkpt lat="38.917105011641979" lon="-9.315808033570647">
        <ele>209.22</ele>
        <time>2025-05-04T14:56:44Z</time>
      </trkpt>
      <trkpt lat="38.91702001914382" lon="-9.315867964178324">
        <ele>209.69999999999999</ele>
        <time>2025-05-04T14:56:45Z</time>
      </trkpt>
      <trkpt lat="38.916939971968532" lon="-9.315942982211709">
        <ele>210.66999999999999</ele>
        <time>2025-05-04T14:56:46Z</time>
      </trkpt>
      <trkpt lat="38.916725981980562" lon="-9.316209023818374">
        <ele>214.50999999999999</ele>
        <time>2025-05-04T14:56:49Z</time>
      </trkpt>
      <trkpt lat="38.916540993377566" lon="-9.316536001861095">
        <ele>218.36000000000001</ele>
        <time>2025-05-04T14:56:52Z</time>
      </trkpt>
      <trkpt lat="38.916492965072393" lon="-9.316620994359255">
        <ele>219.80000000000001</ele>
        <time>2025-05-04T14:56:53Z</time>
      </trkpt>
      <trkpt lat="38.916475027799606" lon="-9.316798020154238">
        <ele>220.75999999999999</ele>
        <time>2025-05-04T14:56:54Z</time>
      </trkpt>
      <trkpt lat="38.91646103002131" lon="-9.316936992108822">
        <ele>222.19999999999999</ele>
        <time>2025-05-04T14:56:55Z</time>
      </trkpt>
      <trkpt lat="38.916450971737504" lon="-9.317051991820335">
        <ele>223.16</ele>
        <time>2025-05-04T14:56:56Z</time>
      </trkpt>
      <trkpt lat="38.916483996436" lon="-9.317180989310145">
        <ele>223.63999999999999</ele>
        <time>2025-05-04T14:56:57Z</time>
      </trkpt>
      <trkpt lat="38.916519032791257" lon="-9.317315015941858">
        <ele>224.61000000000001</ele>
        <time>2025-05-04T14:56:58Z</time>
      </trkpt>
      <trkpt lat="38.916789013892412" lon="-9.318442968651652">
        <ele>230.37</ele>
        <time>2025-05-04T14:57:06Z</time>
      </trkpt>
      <trkpt lat="38.916836036369205" lon="-9.319518031552434">
        <ele>234.69999999999999</ele>
        <time>2025-05-04T14:57:13Z</time>
      </trkpt>
      <trkpt lat="38.916791025549173" lon="-9.319650968536735">
        <ele>235.18000000000001</ele>
        <time>2025-05-04T14:57:14Z</time>
      </trkpt>
      <trkpt lat="38.916742997244" lon="-9.319793041795492">
        <ele>235.18000000000001</ele>
        <time>2025-05-04T14:57:15Z</time>
      </trkpt>
      <trkpt lat="38.91626900061965" lon="-9.321286026388407">
        <ele>233.25999999999999</ele>
        <time>2025-05-04T14:57:25Z</time>
      </trkpt>
      <trkpt lat="38.916170010343194" lon="-9.321749964728952">
        <ele>233.25999999999999</ele>
        <time>2025-05-04T14:57:28Z</time>
      </trkpt>
      <trkpt lat="38.916138997301459" lon="-9.32189698331058">
        <ele>233.25999999999999</ele>
        <time>2025-05-04T14:57:29Z</time>
      </trkpt>
      <trkpt lat="38.916027015075088" lon="-9.322522021830082">
        <ele>234.22</ele>
        <time>2025-05-04T14:57:35Z</time>
      </trkpt>
      <trkpt lat="38.916023997589946" lon="-9.322597039863467">
        <ele>234.69999999999999</ele>
        <time>2025-05-04T14:57:36Z</time>
      </trkpt>
      <trkpt lat="38.916085017845035" lon="-9.322800971567631">
        <ele>235.18000000000001</ele>
        <time>2025-05-04T14:57:42Z</time>
      </trkpt>
      <trkpt lat="38.916035983711481" lon="-9.322850005701184">
        <ele>235.66</ele>
        <time>2025-05-04T14:57:43Z</time>
      </trkpt>
      <trkpt lat="38.915980998426676" lon="-9.32290499098599">
        <ele>235.66</ele>
        <time>2025-05-04T14:57:44Z</time>
      </trkpt>
      <trkpt lat="38.915915032848716" lon="-9.322975985705853">
        <ele>235.66</ele>
        <time>2025-05-04T14:57:45Z</time>
      </trkpt>
      <trkpt lat="38.915841020643711" lon="-9.323070030659437">
        <ele>235.66</ele>
        <time>2025-05-04T14:57:46Z</time>
      </trkpt>
      <trkpt lat="38.91551798209548" lon="-9.323542015627027">
        <ele>235.18000000000001</ele>
        <time>2025-05-04T14:57:50Z</time>
      </trkpt>
      <trkpt lat="38.914984976872802" lon="-9.324717996641994">
        <ele>234.22</ele>
        <time>2025-05-04T14:57:59Z</time>
      </trkpt>
      <trkpt lat="38.914395980536938" lon="-9.326311983168125">
        <ele>231.81</ele>
        <time>2025-05-04T14:58:10Z</time>
      </trkpt>
      <trkpt lat="38.91422800719738" lon="-9.326724959537387">
        <ele>230.84999999999999</ele>
        <time>2025-05-04T14:58:13Z</time>
      </trkpt>
      <trkpt lat="38.914155000820756" lon="-9.326860997825861">
        <ele>230.37</ele>
        <time>2025-05-04T14:58:14Z</time>
      </trkpt>
      <trkpt lat="38.914069002494216" lon="-9.326973985880613">
        <ele>229.88999999999999</ele>
        <time>2025-05-04T14:58:15Z</time>
      </trkpt>
      <trkpt lat="38.913950985297561" lon="-9.327038023620844">
        <ele>229.41</ele>
        <time>2025-05-04T14:58:16Z</time>
      </trkpt>
      <trkpt lat="38.913823999464512" lon="-9.327093008905649">
        <ele>228.93000000000001</ele>
        <time>2025-05-04T14:58:17Z</time>
      </trkpt>
      <trkpt lat="38.913695001974702" lon="-9.327141037210822">
        <ele>227.97</ele>
        <time>2025-05-04T14:58:18Z</time>
      </trkpt>
      <trkpt lat="38.913557035848498" lon="-9.327171966433525">
        <ele>227.00999999999999</ele>
        <time>2025-05-04T14:58:19Z</time>
      </trkpt>
      <trkpt lat="38.911955002695322" lon="-9.327588966116309">
        <ele>222.68000000000001</ele>
        <time>2025-05-04T14:58:31Z</time>
      </trkpt>
      <trkpt lat="38.910745996981859" lon="-9.32812700048089">
        <ele>220.75999999999999</ele>
        <time>2025-05-04T14:58:39Z</time>
      </trkpt>
      <trkpt lat="38.909095013514161" lon="-9.328608037903905">
        <ele>220.75999999999999</ele>
        <time>2025-05-04T14:58:48Z</time>
      </trkpt>
      <trkpt lat="38.906677002087235" lon="-9.32904900982976">
        <ele>212.59</ele>
        <time>2025-05-04T14:59:00Z</time>
      </trkpt>
      <trkpt lat="38.905866974964738" lon="-9.329130984842777">
        <ele>208.25999999999999</ele>
        <time>2025-05-04T14:59:04Z</time>
      </trkpt>
      <trkpt lat="38.905665976926684" lon="-9.329098965972662">
        <ele>206.81999999999999</ele>
        <time>2025-05-04T14:59:05Z</time>
      </trkpt>
      <trkpt lat="38.903712993487716" lon="-9.32844802737236">
        <ele>195.77000000000001</ele>
        <time>2025-05-04T14:59:14Z</time>
      </trkpt>
      <trkpt lat="38.901489023119211" lon="-9.327339017763734">
        <ele>183.27000000000001</ele>
        <time>2025-05-04T14:59:25Z</time>
      </trkpt>
      <trkpt lat="38.900581011548638" lon="-9.326695958152413">
        <ele>178.94</ele>
        <time>2025-05-04T14:59:30Z</time>
      </trkpt>
      <trkpt lat="38.900413038209081" lon="-9.326587999239564">
        <ele>178.46000000000001</ele>
        <time>2025-05-04T14:59:31Z</time>
      </trkpt>
      <trkpt lat="38.900229977443814" lon="-9.326521027833223">
        <ele>177.5</ele>
        <time>2025-05-04T14:59:32Z</time>
      </trkpt>
      <trkpt lat="38.898891974240541" lon="-9.326057005673647">
        <ele>172.69</ele>
        <time>2025-05-04T14:59:39Z</time>
      </trkpt>
      <trkpt lat="38.898727018386126" lon="-9.326005037873983">
        <ele>172.21000000000001</ele>
        <time>2025-05-04T14:59:40Z</time>
      </trkpt>
      <trkpt lat="38.898575976490974" lon="-9.326016018167138">
        <ele>171.72999999999999</ele>
        <time>2025-05-04T14:59:41Z</time>
      </trkpt>
      <trkpt lat="38.898428035899997" lon="-9.326036972925067">
        <ele>171.25</ele>
        <time>2025-05-04T14:59:42Z</time>
      </trkpt>
      <trkpt lat="38.898291997611523" lon="-9.326096987351775">
        <ele>171.25</ele>
        <time>2025-05-04T14:59:43Z</time>
      </trkpt>
      <trkpt lat="38.8981550373137" lon="-9.326164964586496">
        <ele>170.77000000000001</ele>
        <time>2025-05-04T14:59:44Z</time>
      </trkpt>
      <trkpt lat="38.898023022338748" lon="-9.326244005933404">
        <ele>170.77000000000001</ele>
        <time>2025-05-04T14:59:45Z</time>
      </trkpt>
      <trkpt lat="38.89790098182857" lon="-9.326346013695002">
        <ele>170.28999999999999</ele>
        <time>2025-05-04T14:59:46Z</time>
      </trkpt>
      <trkpt lat="38.897652961313725" lon="-9.326539970934391">
        <ele>168.84999999999999</ele>
        <time>2025-05-04T14:59:48Z</time>
      </trkpt>
      <trkpt lat="38.897514995187521" lon="-9.326574001461268">
        <ele>167.88999999999999</ele>
        <time>2025-05-04T14:59:49Z</time>
      </trkpt>
      <trkpt lat="38.897376023232937" lon="-9.326609037816525">
        <ele>166.44999999999999</ele>
        <time>2025-05-04T14:59:50Z</time>
      </trkpt>
      <trkpt lat="38.896298026666045" lon="-9.3268399592489">
        <ele>156.83000000000001</ele>
        <time>2025-05-04T14:59:58Z</time>
      </trkpt>
      <trkpt lat="38.894700016826391" lon="-9.326895028352737">
        <ele>142.88999999999999</ele>
        <time>2025-05-04T15:00:09Z</time>
      </trkpt>
      <trkpt lat="38.893190016970038" lon="-9.326819004490972">
        <ele>126.55</ele>
        <time>2025-05-04T15:00:19Z</time>
      </trkpt>
      <trkpt lat="38.89179702848196" lon="-9.327059984207153">
        <ele>109.25</ele>
        <time>2025-05-04T15:00:28Z</time>
      </trkpt>
      <trkpt lat="38.890876024961472" lon="-9.326975997537375">
        <ele>98.189999999999998</ele>
        <time>2025-05-04T15:00:35Z</time>
      </trkpt>
      <trkpt lat="38.88988402672112" lon="-9.326784973964095">
        <ele>84.730000000000004</ele>
        <time>2025-05-04T15:00:46Z</time>
      </trkpt>
      <trkpt lat="38.889670958742499" lon="-9.326774999499321">
        <ele>76.560000000000002</ele>
        <time>2025-05-04T15:00:53Z</time>
      </trkpt>
      <trkpt lat="38.889617985114455" lon="-9.32677298784256">
        <ele>75.599999999999994</ele>
        <time>2025-05-04T15:00:54Z</time>
      </trkpt>
      <trkpt lat="38.889555959030986" lon="-9.326776005327702">
        <ele>74.159999999999997</ele>
        <time>2025-05-04T15:00:55Z</time>
      </trkpt>
      <trkpt lat="38.889496028423309" lon="-9.326824033632875">
        <ele>73.200000000000003</ele>
        <time>2025-05-04T15:00:56Z</time>
      </trkpt>
      <trkpt lat="38.889427967369556" lon="-9.32687901891768">
        <ele>72.239999999999995</ele>
        <time>2025-05-04T15:00:57Z</time>
      </trkpt>
      <trkpt lat="38.889349009841681" lon="-9.326941967010498">
        <ele>70.790000000000006</ele>
        <time>2025-05-04T15:00:58Z</time>
      </trkpt>
      <trkpt lat="38.889292012900114" lon="-9.326998963952065">
        <ele>69.829999999999998</ele>
        <time>2025-05-04T15:00:59Z</time>
      </trkpt>
      <trkpt lat="38.889107024297118" lon="-9.32720398530364">
        <ele>66.950000000000003</ele>
        <time>2025-05-04T15:01:02Z</time>
      </trkpt>
      <trkpt lat="38.88904700987041" lon="-9.327275985851884">
        <ele>65.989999999999995</ele>
        <time>2025-05-04T15:01:03Z</time>
      </trkpt>
      <trkpt lat="38.888844000175595" lon="-9.327531969174743">
        <ele>64.069999999999993</ele>
        <time>2025-05-04T15:01:06Z</time>
      </trkpt>
      <trkpt lat="38.887877985835075" lon="-9.328694036230445">
        <ele>59.259999999999998</ele>
        <time>2025-05-04T15:01:18Z</time>
      </trkpt>
      <trkpt lat="38.887562993913889" lon="-9.329075999557972">
        <ele>59.259999999999998</ele>
        <time>2025-05-04T15:01:22Z</time>
      </trkpt>
      <trkpt lat="38.88749803416431" lon="-9.329183958470821">
        <ele>59.259999999999998</ele>
        <time>2025-05-04T15:01:23Z</time>
      </trkpt>
      <trkpt lat="38.887440031394362" lon="-9.329300969839096">
        <ele>59.259999999999998</ele>
        <time>2025-05-04T15:01:24Z</time>
      </trkpt>
      <trkpt lat="38.887130990624428" lon="-9.330064980313182">
        <ele>61.659999999999997</ele>
        <time>2025-05-04T15:01:30Z</time>
      </trkpt>
      <trkpt lat="38.887066030874848" lon="-9.33018802665174">
        <ele>62.140000000000001</ele>
        <time>2025-05-04T15:01:31Z</time>
      </trkpt>
      <trkpt lat="38.886961005628109" lon="-9.330266984179616">
        <ele>63.579999999999998</ele>
        <time>2025-05-04T15:01:32Z</time>
      </trkpt>
      <trkpt lat="38.886849023401737" lon="-9.330350970849395">
        <ele>64.549999999999997</ele>
        <time>2025-05-04T15:01:33Z</time>
      </trkpt>
      <trkpt lat="38.886716002598405" lon="-9.330414002761245">
        <ele>65.510000000000005</ele>
        <time>2025-05-04T15:01:34Z</time>
      </trkpt>
      <trkpt lat="38.886577030643821" lon="-9.33046898804605">
        <ele>66.469999999999999</ele>
        <time>2025-05-04T15:01:35Z</time>
      </trkpt>
      <trkpt lat="38.886430012062192" lon="-9.330525984987617">
        <ele>67.909999999999997</ele>
        <time>2025-05-04T15:01:36Z</time>
      </trkpt>
      <trkpt lat="38.88580396771431" lon="-9.330676021054387">
        <ele>72.719999999999999</ele>
        <time>2025-05-04T15:01:40Z</time>
      </trkpt>
      <trkpt lat="38.885185969993472" lon="-9.330967040732503">
        <ele>79.450000000000003</ele>
        <time>2025-05-04T15:01:45Z</time>
      </trkpt>
      <trkpt lat="38.885069964453578" lon="-9.330996964126825">
        <ele>80.890000000000001</ele>
        <time>2025-05-04T15:01:46Z</time>
      </trkpt>
      <trkpt lat="38.884951025247574" lon="-9.331011967733502">
        <ele>82.329999999999998</ele>
        <time>2025-05-04T15:01:47Z</time>
      </trkpt>
      <trkpt lat="38.884837031364441" lon="-9.330971986055374">
        <ele>83.769999999999996</ele>
        <time>2025-05-04T15:01:48Z</time>
      </trkpt>
      <trkpt lat="38.884724965319037" lon="-9.330933010205627">
        <ele>85.209999999999994</ele>
        <time>2025-05-04T15:01:49Z</time>
      </trkpt>
      <trkpt lat="38.884508041664958" lon="-9.330857992172241">
        <ele>87.620000000000005</ele>
        <time>2025-05-04T15:01:51Z</time>
      </trkpt>
      <trkpt lat="38.884394969791174" lon="-9.330860003829002">
        <ele>88.579999999999998</ele>
        <time>2025-05-04T15:01:52Z</time>
      </trkpt>
      <trkpt lat="38.884288016706705" lon="-9.330877019092441">
        <ele>89.540000000000006</ele>
        <time>2025-05-04T15:01:53Z</time>
      </trkpt>
      <trkpt lat="38.884179973974824" lon="-9.330917000770569">
        <ele>90.5</ele>
        <time>2025-05-04T15:01:54Z</time>
      </trkpt>
      <trkpt lat="38.884100010618567" lon="-9.331034012138844">
        <ele>90.980000000000004</ele>
        <time>2025-05-04T15:01:55Z</time>
      </trkpt>
      <trkpt lat="38.884005965664983" lon="-9.331168960779905">
        <ele>91.939999999999998</ele>
        <time>2025-05-04T15:01:56Z</time>
      </trkpt>
      <trkpt lat="38.883951986208558" lon="-9.331304999068379">
        <ele>92.420000000000002</ele>
        <time>2025-05-04T15:01:57Z</time>
      </trkpt>
      <trkpt lat="38.883889960125089" lon="-9.33145796880126">
        <ele>93.390000000000001</ele>
        <time>2025-05-04T15:01:58Z</time>
      </trkpt>
      <trkpt lat="38.883886020630598" lon="-9.331643041223288">
        <ele>94.349999999999994</ele>
        <time>2025-05-04T15:01:59Z</time>
      </trkpt>
      <trkpt lat="38.883898006752133" lon="-9.331823000684381">
        <ele>95.310000000000002</ele>
        <time>2025-05-04T15:02:00Z</time>
      </trkpt>
      <trkpt lat="38.883908987045288" lon="-9.332012012600899">
        <ele>96.269999999999996</ele>
        <time>2025-05-04T15:02:01Z</time>
      </trkpt>
      <trkpt lat="38.883920973166823" lon="-9.332207981497049">
        <ele>96.75</ele>
        <time>2025-05-04T15:02:02Z</time>
      </trkpt>
      <trkpt lat="38.883932959288359" lon="-9.33240101672709">
        <ele>97.230000000000004</ele>
        <time>2025-05-04T15:02:03Z</time>
      </trkpt>
      <trkpt lat="38.883931031450629" lon="-9.332591034471989">
        <ele>98.189999999999998</ele>
        <time>2025-05-04T15:02:04Z</time>
      </trkpt>
      <trkpt lat="38.88389197178185" lon="-9.332765964791179">
        <ele>98.670000000000002</ele>
        <time>2025-05-04T15:02:05Z</time>
      </trkpt>
      <trkpt lat="38.883851990103722" lon="-9.3329409789294">
        <ele>99.629999999999995</ele>
        <time>2025-05-04T15:02:06Z</time>
      </trkpt>
      <trkpt lat="38.883792981505394" lon="-9.333115993067622">
        <ele>100.59999999999999</ele>
        <time>2025-05-04T15:02:07Z</time>
      </trkpt>
      <trkpt lat="38.883735984563828" lon="-9.333290001377463">
        <ele>101.08</ele>
        <time>2025-05-04T15:02:08Z</time>
      </trkpt>
      <trkpt lat="38.88369700871408" lon="-9.333481024950743">
        <ele>102.04000000000001</ele>
        <time>2025-05-04T15:02:09Z</time>
      </trkpt>
      <trkpt lat="38.883684016764164" lon="-9.333637012168765">
        <ele>102.52</ele>
        <time>2025-05-04T15:02:10Z</time>
      </trkpt>
      <trkpt lat="38.883731039240956" lon="-9.333848990499973">
        <ele>103.48</ele>
        <time>2025-05-04T15:02:11Z</time>
      </trkpt>
      <trkpt lat="38.883771020919085" lon="-9.334029033780098">
        <ele>104.44</ele>
        <time>2025-05-04T15:02:12Z</time>
      </trkpt>
      <trkpt lat="38.883926002308726" lon="-9.334879964590073">
        <ele>108.29000000000001</ele>
        <time>2025-05-04T15:02:17Z</time>
      </trkpt>
      <trkpt lat="38.883904963731766" lon="-9.334995970129967">
        <ele>108.77</ele>
        <time>2025-05-04T15:02:18Z</time>
      </trkpt>
      <trkpt lat="38.883861964568496" lon="-9.335038969293237">
        <ele>109.73</ele>
        <time>2025-05-04T15:02:19Z</time>
      </trkpt>
      <trkpt lat="38.883790969848633" lon="-9.335052967071533">
        <ele>110.69</ele>
        <time>2025-05-04T15:02:20Z</time>
      </trkpt>
      <trkpt lat="38.883745959028602" lon="-9.335022959858179">
        <ele>111.65000000000001</ele>
        <time>2025-05-04T15:02:21Z</time>
      </trkpt>
      <trkpt lat="38.883717963472009" lon="-9.334992030635476">
        <ele>112.13</ele>
        <time>2025-05-04T15:02:22Z</time>
      </trkpt>
      <trkpt lat="38.883673958480358" lon="-9.334905026480556">
        <ele>113.09</ele>
        <time>2025-05-04T15:02:23Z</time>
      </trkpt>
      <trkpt lat="38.883618973195553" lon="-9.334794972091913">
        <ele>114.05</ele>
        <time>2025-05-04T15:02:24Z</time>
      </trkpt>
      <trkpt lat="38.883553007617593" lon="-9.334662035107613">
        <ele>114.53</ele>
        <time>2025-05-04T15:02:25Z</time>
      </trkpt>
      <trkpt lat="38.883480001240969" lon="-9.334516022354364">
        <ele>115.98</ele>
        <time>2025-05-04T15:02:26Z</time>
      </trkpt>
      <trkpt lat="38.88285999186337" lon="-9.333151029422879">
        <ele>123.19</ele>
        <time>2025-05-04T15:02:33Z</time>
      </trkpt>
      <trkpt lat="38.88279402628541" lon="-9.332922035828233">
        <ele>124.15000000000001</ele>
        <time>2025-05-04T15:02:34Z</time>
      </trkpt>
      <trkpt lat="38.882767036557198" lon="-9.332690024748445">
        <ele>125.11</ele>
        <time>2025-05-04T15:02:35Z</time>
      </trkpt>
      <trkpt lat="38.882676009088755" lon="-9.331899024546146">
        <ele>129.43000000000001</ele>
        <time>2025-05-04T15:02:39Z</time>
      </trkpt>
      <trkpt lat="38.882628986611962" lon="-9.331732979044318">
        <ele>130.40000000000001</ele>
        <time>2025-05-04T15:02:40Z</time>
      </trkpt>
      <trkpt lat="38.882249034941196" lon="-9.330173023045063">
        <ele>139.53</ele>
        <time>2025-05-04T15:02:50Z</time>
      </trkpt>
      <trkpt lat="38.882188014686108" lon="-9.330092975869775">
        <ele>140.49000000000001</ele>
        <time>2025-05-04T15:02:51Z</time>
      </trkpt>
      <trkpt lat="38.882118025794625" lon="-9.330011000856757">
        <ele>141.44999999999999</ele>
        <time>2025-05-04T15:02:52Z</time>
      </trkpt>
      <trkpt lat="38.882034961134195" lon="-9.329991973936558">
        <ele>142.41</ele>
        <time>2025-05-04T15:02:53Z</time>
      </trkpt>
      <trkpt lat="38.881945023313165" lon="-9.32997202500701">
        <ele>142.88999999999999</ele>
        <time>2025-05-04T15:02:54Z</time>
      </trkpt>
      <trkpt lat="38.881860030815005" lon="-9.32997202500701">
        <ele>143.84999999999999</ele>
        <time>2025-05-04T15:02:55Z</time>
      </trkpt>
      <trkpt lat="38.880808018147945" lon="-9.329998008906841">
        <ele>153.47</ele>
        <time>2025-05-04T15:03:05Z</time>
      </trkpt>
      <trkpt lat="38.879897994920611" lon="-9.329774966463447">
        <ele>161.16</ele>
        <time>2025-05-04T15:03:12Z</time>
      </trkpt>
      <trkpt lat="38.879772014915943" lon="-9.32975996285677">
        <ele>162.59999999999999</ele>
        <time>2025-05-04T15:03:13Z</time>
      </trkpt>
      <trkpt lat="38.878597039729357" lon="-9.329774966463447">
        <ele>171.72999999999999</ele>
        <time>2025-05-04T15:03:22Z</time>
      </trkpt>
      <trkpt lat="38.87714697048068" lon="-9.329734984785318">
        <ele>176.53999999999999</ele>
        <time>2025-05-04T15:03:32Z</time>
      </trkpt>
      <trkpt lat="38.875150987878442" lon="-9.329811008647084">
        <ele>178.94</ele>
        <time>2025-05-04T15:03:45Z</time>
      </trkpt>
      <trkpt lat="38.873529005795717" lon="-9.329731967300177">
        <ele>177.97999999999999</ele>
        <time>2025-05-04T15:03:56Z</time>
      </trkpt>
      <trkpt lat="38.871825970709324" lon="-9.329847972840071">
        <ele>174.13999999999999</ele>
        <time>2025-05-04T15:04:07Z</time>
      </trkpt>
      <trkpt lat="38.871680963784456" lon="-9.329902036115527">
        <ele>173.66</ele>
        <time>2025-05-04T15:04:08Z</time>
      </trkpt>
      <trkpt lat="38.871532017365098" lon="-9.3299759645015">
        <ele>172.69</ele>
        <time>2025-05-04T15:04:09Z</time>
      </trkpt>
      <trkpt lat="38.871403019875288" lon="-9.330110996961594">
        <ele>171.72999999999999</ele>
        <time>2025-05-04T15:04:10Z</time>
      </trkpt>
      <trkpt lat="38.871266981586814" lon="-9.33025298640132">
        <ele>171.25</ele>
        <time>2025-05-04T15:04:11Z</time>
      </trkpt>
      <trkpt lat="38.869757987558842" lon="-9.331899024546146">
        <ele>164.52000000000001</ele>
        <time>2025-05-04T15:04:21Z</time>
      </trkpt>
      <trkpt lat="38.869617003947496" lon="-9.332092981785536">
        <ele>163.56</ele>
        <time>2025-05-04T15:04:22Z</time>
      </trkpt>
      <trkpt lat="38.869477026164532" lon="-9.332285011187196">
        <ele>162.59999999999999</ele>
        <time>2025-05-04T15:04:23Z</time>
      </trkpt>
      <trkpt lat="38.868263997137547" lon="-9.333811020478606">
        <ele>154.43000000000001</ele>
        <time>2025-05-04T15:04:31Z</time>
      </trkpt>
      <trkpt lat="38.866408998146653" lon="-9.335398972034454">
        <ele>146.25999999999999</ele>
        <time>2025-05-04T15:04:40Z</time>
      </trkpt>
      <trkpt lat="38.863668031990528" lon="-9.337582038715482">
        <ele>138.56999999999999</ele>
        <time>2025-05-04T15:04:52Z</time>
      </trkpt>
      <trkpt lat="38.860809970647097" lon="-9.339693021029234">
        <ele>128.47</ele>
        <time>2025-05-04T15:05:04Z</time>
      </trkpt>
      <trkpt lat="38.858613995835185" lon="-9.340898003429174">
        <ele>117.90000000000001</ele>
        <time>2025-05-04T15:05:13Z</time>
      </trkpt>
      <trkpt lat="38.857026966288686" lon="-9.342183033004403">
        <ele>108.77</ele>
        <time>2025-05-04T15:05:20Z</time>
      </trkpt>
      <trkpt lat="38.855328038334846" lon="-9.344384036958218">
        <ele>100.59999999999999</ele>
        <time>2025-05-04T15:05:29Z</time>
      </trkpt>
      <trkpt lat="38.854879019781947" lon="-9.345808960497379">
        <ele>98.189999999999998</ele>
        <time>2025-05-04T15:05:34Z</time>
      </trkpt>
      <trkpt lat="38.854469982907176" lon="-9.347863029688597">
        <ele>100.11</ele>
        <time>2025-05-04T15:05:41Z</time>
      </trkpt>
      <trkpt lat="38.854355989024043" lon="-9.348123036324978">
        <ele>101.08</ele>
        <time>2025-05-04T15:05:42Z</time>
      </trkpt>
      <trkpt lat="38.854230009019375" lon="-9.348397040739656">
        <ele>102.04000000000001</ele>
        <time>2025-05-04T15:05:43Z</time>
      </trkpt>
      <trkpt lat="38.854058012366295" lon="-9.348629973828793">
        <ele>103</ele>
        <time>2025-05-04T15:05:44Z</time>
      </trkpt>
      <trkpt lat="38.853881992399693" lon="-9.348867014050484">
        <ele>103.48</ele>
        <time>2025-05-04T15:05:45Z</time>
      </trkpt>
      <trkpt lat="38.853687029331923" lon="-9.349056025967002">
        <ele>104.44</ele>
        <time>2025-05-04T15:05:46Z</time>
      </trkpt>
      <trkpt lat="38.853476978838444" lon="-9.349218970164657">
        <ele>105.40000000000001</ele>
        <time>2025-05-04T15:05:47Z</time>
      </trkpt>
      <trkpt lat="38.853246979415417" lon="-9.349357020109892">
        <ele>106.84</ele>
        <time>2025-05-04T15:05:48Z</time>
      </trkpt>
      <trkpt lat="38.852998036891222" lon="-9.349447041749954">
        <ele>108.29000000000001</ele>
        <time>2025-05-04T15:05:49Z</time>
      </trkpt>
      <trkpt lat="38.852748004719615" lon="-9.349536979570985">
        <ele>109.25</ele>
        <time>2025-05-04T15:05:50Z</time>
      </trkpt>
      <trkpt lat="38.852495038881898" lon="-9.349609985947609">
        <ele>110.20999999999999</ele>
        <time>2025-05-04T15:05:51Z</time>
      </trkpt>
      <trkpt lat="38.852234026417136" lon="-9.349642004817724">
        <ele>111.17</ele>
        <time>2025-05-04T15:05:52Z</time>
      </trkpt>
      <trkpt lat="38.851963961496949" lon="-9.349662959575653">
        <ele>111.65000000000001</ele>
        <time>2025-05-04T15:05:53Z</time>
      </trkpt>
      <trkpt lat="38.849517032504082" lon="-9.349637981504202">
        <ele>118.38</ele>
        <time>2025-05-04T15:06:02Z</time>
      </trkpt>
      <trkpt lat="38.846897017210722" lon="-9.349749963730574">
        <ele>125.59</ele>
        <time>2025-05-04T15:06:12Z</time>
      </trkpt>
      <trkpt lat="38.846642039716244" lon="-9.349700007587671">
        <ele>126.55</ele>
        <time>2025-05-04T15:06:13Z</time>
      </trkpt>
      <trkpt lat="38.844665000215173" lon="-9.349368000403047">
        <ele>133.28</ele>
        <time>2025-05-04T15:06:21Z</time>
      </trkpt>
      <trkpt lat="38.843662021681666" lon="-9.349465984851122">
        <ele>134.24000000000001</ele>
        <time>2025-05-04T15:06:25Z</time>
      </trkpt>
      <trkpt lat="38.843419030308723" lon="-9.349562963470817">
        <ele>134.24000000000001</ele>
        <time>2025-05-04T15:06:26Z</time>
      </trkpt>
      <trkpt lat="38.843172015622258" lon="-9.349677041172981">
        <ele>133.75999999999999</ele>
        <time>2025-05-04T15:06:27Z</time>
      </trkpt>
      <trkpt lat="38.84296003729105" lon="-9.349840991199017">
        <ele>133.75999999999999</ele>
        <time>2025-05-04T15:06:28Z</time>
      </trkpt>
      <trkpt lat="38.842746969312429" lon="-9.350004019215703">
        <ele>133.28</ele>
        <time>2025-05-04T15:06:29Z</time>
      </trkpt>
      <trkpt lat="38.842533985152841" lon="-9.350209962576628">
        <ele>132.80000000000001</ele>
        <time>2025-05-04T15:06:30Z</time>
      </trkpt>
      <trkpt lat="38.842341033741832" lon="-9.35044901445508">
        <ele>132.31999999999999</ele>
        <time>2025-05-04T15:06:31Z</time>
      </trkpt>
      <trkpt lat="38.842141963541508" lon="-9.350696029141545">
        <ele>131.36000000000001</ele>
        <time>2025-05-04T15:06:32Z</time>
      </trkpt>
      <trkpt lat="38.841974996030331" lon="-9.350956035777926">
        <ele>130.88</ele>
        <time>2025-05-04T15:06:33Z</time>
      </trkpt>
      <trkpt lat="38.841834012418985" lon="-9.351204978302121">
        <ele>130.40000000000001</ele>
        <time>2025-05-04T15:06:34Z</time>
      </trkpt>
      <trkpt lat="38.841300001367927" lon="-9.352138973772526">
        <ele>129.43000000000001</ele>
        <time>2025-05-04T15:06:39Z</time>
      </trkpt>
      <trkpt lat="38.840658031404018" lon="-9.352929973974824">
        <ele>128.94999999999999</ele>
        <time>2025-05-04T15:06:46Z</time>
      </trkpt>
      <trkpt lat="38.839398985728621" lon="-9.353901017457247">
        <ele>125.11</ele>
        <time>2025-05-04T15:06:56Z</time>
      </trkpt>
      <trkpt lat="38.837777003645897" lon="-9.35519702732563">
        <ele>127.03</ele>
        <time>2025-05-04T15:07:10Z</time>
      </trkpt>
      <trkpt lat="38.836493985727429" lon="-9.355783006176353">
        <ele>129.91999999999999</ele>
        <time>2025-05-04T15:07:20Z</time>
      </trkpt>
      <trkpt lat="38.835426969453692" lon="-9.356022980064154">
        <ele>132.80000000000001</ele>
        <time>2025-05-04T15:07:29Z</time>
      </trkpt>
      <trkpt lat="38.835286991670728" lon="-9.3561000097543">
        <ele>133.28</ele>
        <time>2025-05-04T15:07:30Z</time>
      </trkpt>
      <trkpt lat="38.835266958922148" lon="-9.356179973110557">
        <ele>134.24000000000001</ele>
        <time>2025-05-04T15:07:31Z</time>
      </trkpt>
      <trkpt lat="38.835253966972232" lon="-9.356232024729252">
        <ele>135.19999999999999</ele>
        <time>2025-05-04T15:07:32Z</time>
      </trkpt>
      <trkpt lat="38.835176015272737" lon="-9.356264965608716">
        <ele>136.16</ele>
        <time>2025-05-04T15:07:33Z</time>
      </trkpt>
      <trkpt lat="38.835093034431338" lon="-9.356289021670818">
        <ele>137.13</ele>
        <time>2025-05-04T15:07:34Z</time>
      </trkpt>
      <trkpt lat="38.835039976984262" lon="-9.356252979487181">
        <ele>138.09</ele>
        <time>2025-05-04T15:07:35Z</time>
      </trkpt>
      <trkpt lat="38.834930006414652" lon="-9.356131022796035">
        <ele>138.56999999999999</ele>
        <time>2025-05-04T15:07:36Z</time>
      </trkpt>
      <trkpt lat="38.83484099060297" lon="-9.356144014745951">
        <ele>138.56999999999999</ele>
        <time>2025-05-04T15:07:37Z</time>
      </trkpt>
      <trkpt lat="38.834738982841372" lon="-9.35616304166615">
        <ele>139.05000000000001</ele>
        <time>2025-05-04T15:07:38Z</time>
      </trkpt>
      <trkpt lat="38.834633035585284" lon="-9.356183996424079">
        <ele>139.05000000000001</ele>
        <time>2025-05-04T15:07:39Z</time>
      </trkpt>
      <trkpt lat="38.833413971588016" lon="-9.356441991403699">
        <ele>144.34</ele>
        <time>2025-05-04T15:07:50Z</time>
      </trkpt>
      <trkpt lat="38.832359025254846" lon="-9.356648018583655">
        <ele>144.81999999999999</ele>
        <time>2025-05-04T15:08:01Z</time>
      </trkpt>
      <trkpt lat="38.832250982522964" lon="-9.356668973341584">
        <ele>144.81999999999999</ele>
        <time>2025-05-04T15:08:02Z</time>
      </trkpt>
      <trkpt lat="38.831344982609153" lon="-9.356854967772961">
        <ele>144.81999999999999</ele>
        <time>2025-05-04T15:08:09Z</time>
      </trkpt>
      <trkpt lat="38.830966036766768" lon="-9.356940966099501">
        <ele>144.34</ele>
        <time>2025-05-04T15:08:14Z</time>
      </trkpt>
      <trkpt lat="38.830506959930062" lon="-9.357046997174621">
        <ele>144.34</ele>
        <time>2025-05-04T15:08:22Z</time>
      </trkpt>
      <trkpt lat="38.83021904155612" lon="-9.357108017429709">
        <ele>144.81999999999999</ele>
        <time>2025-05-04T15:08:29Z</time>
      </trkpt>
      <trkpt lat="38.829531976953149" lon="-9.357235003262758">
        <ele>144.34</ele>
        <time>2025-05-04T15:08:39Z</time>
      </trkpt>
      <trkpt lat="38.828808031976223" lon="-9.357393002137542">
        <ele>143.37</ele>
        <time>2025-05-04T15:08:50Z</time>
      </trkpt>
      <trkpt lat="38.828261028975248" lon="-9.357516970485449">
        <ele>140.49000000000001</ele>
        <time>2025-05-04T15:09:00Z</time>
      </trkpt>
      <trkpt lat="38.827742021530867" lon="-9.357628030702472">
        <ele>137.13</ele>
        <time>2025-05-04T15:09:12Z</time>
      </trkpt>
      <trkpt lat="38.827152019366622" lon="-9.357744036242366">
        <ele>138.09</ele>
        <time>2025-05-04T15:09:22Z</time>
      </trkpt>
      <trkpt lat="38.826438970863819" lon="-9.357890971004963">
        <ele>141.93000000000001</ele>
        <time>2025-05-04T15:09:31Z</time>
      </trkpt>
      <trkpt lat="38.82573002949357" lon="-9.358040001243353">
        <ele>142.88999999999999</ele>
        <time>2025-05-04T15:09:41Z</time>
      </trkpt>
      <trkpt lat="38.824822017922997" lon="-9.358228007331491">
        <ele>142.88999999999999</ele>
        <time>2025-05-04T15:09:49Z</time>
      </trkpt>
      <trkpt lat="38.823580993339419" lon="-9.358492959290743">
        <ele>145.30000000000001</ele>
        <time>2025-05-04T15:09:58Z</time>
      </trkpt>
      <trkpt lat="38.821861026808619" lon="-9.35887198895216">
        <ele>149.13999999999999</ele>
        <time>2025-05-04T15:10:10Z</time>
      </trkpt>
      <trkpt lat="38.820300986990333" lon="-9.359297035261989">
        <ele>153.47</ele>
        <time>2025-05-04T15:10:19Z</time>
      </trkpt>
      <trkpt lat="38.81814599968493" lon="-9.359571961686015">
        <ele>163.08000000000001</ele>
        <time>2025-05-04T15:10:29Z</time>
      </trkpt>
      <trkpt lat="38.816378004848957" lon="-9.359335005283356">
        <ele>170.28999999999999</ele>
        <time>2025-05-04T15:10:38Z</time>
      </trkpt>
      <trkpt lat="38.814690979197621" lon="-9.35882898978889">
        <ele>170.77000000000001</ele>
        <time>2025-05-04T15:10:47Z</time>
      </trkpt>
      <trkpt lat="38.81247497163713" lon="-9.357919972389936">
        <ele>175.58000000000001</ele>
        <time>2025-05-04T15:10:58Z</time>
      </trkpt>
      <trkpt lat="38.810986010357738" lon="-9.35751898214221">
        <ele>181.83000000000001</ele>
        <time>2025-05-04T15:11:04Z</time>
      </trkpt>
      <trkpt lat="38.81073203869164" lon="-9.357525017112494">
        <ele>183.27000000000001</ele>
        <time>2025-05-04T15:11:05Z</time>
      </trkpt>
      <trkpt lat="38.809245005249977" lon="-9.35771101154387">
        <ele>192.40000000000001</ele>
        <time>2025-05-04T15:11:11Z</time>
      </trkpt>
      <trkpt lat="38.807344995439053" lon="-9.358694041147828">
        <ele>200.56999999999999</ele>
        <time>2025-05-04T15:11:20Z</time>
      </trkpt>
      <trkpt lat="38.806142024695873" lon="-9.359916960820556">
        <ele>202.49000000000001</ele>
        <time>2025-05-04T15:11:27Z</time>
      </trkpt>
      <trkpt lat="38.805424030870199" lon="-9.360951958224177">
        <ele>200.56999999999999</ele>
        <time>2025-05-04T15:11:33Z</time>
      </trkpt>
      <trkpt lat="38.80536301061511" lon="-9.361125966534019">
        <ele>200.09</ele>
        <time>2025-05-04T15:11:34Z</time>
      </trkpt>
      <trkpt lat="38.805301990360022" lon="-9.36129997484386">
        <ele>199.61000000000001</ele>
        <time>2025-05-04T15:11:35Z</time>
      </trkpt>
      <trkpt lat="38.805239964276552" lon="-9.361474988982081">
        <ele>199.13</ele>
        <time>2025-05-04T15:11:36Z</time>
      </trkpt>
      <trkpt lat="38.80521398037672" lon="-9.361673975363374">
        <ele>198.16999999999999</ele>
        <time>2025-05-04T15:11:37Z</time>
      </trkpt>
      <trkpt lat="38.805193025618792" lon="-9.361869022250176">
        <ele>197.69</ele>
        <time>2025-05-04T15:11:38Z</time>
      </trkpt>
      <trkpt lat="38.80517098121345" lon="-9.362063985317946">
        <ele>197.21000000000001</ele>
        <time>2025-05-04T15:11:39Z</time>
      </trkpt>
      <trkpt lat="38.805149020627141" lon="-9.362259032204747">
        <ele>197.21000000000001</ele>
        <time>2025-05-04T15:11:40Z</time>
      </trkpt>
      <trkpt lat="38.805064028128982" lon="-9.362858003005385">
        <ele>196.72999999999999</ele>
        <time>2025-05-04T15:11:43Z</time>
      </trkpt>
      <trkpt lat="38.805023962631822" lon="-9.363055983558297">
        <ele>196.72999999999999</ele>
        <time>2025-05-04T15:11:44Z</time>
      </trkpt>
      <trkpt lat="38.804927989840508" lon="-9.363219011574984">
        <ele>196.72999999999999</ele>
        <time>2025-05-04T15:11:45Z</time>
      </trkpt>
      <trkpt lat="38.80482698790729" lon="-9.363373992964625">
        <ele>196.72999999999999</ele>
        <time>2025-05-04T15:11:46Z</time>
      </trkpt>
      <trkpt lat="38.804723974317312" lon="-9.36353299766779">
        <ele>197.21000000000001</ele>
        <time>2025-05-04T15:11:47Z</time>
      </trkpt>
      <trkpt lat="38.804404959082603" lon="-9.364040018990636">
        <ele>198.16999999999999</ele>
        <time>2025-05-04T15:11:50Z</time>
      </trkpt>
      <trkpt lat="38.80433295853436" lon="-9.364239005371928">
        <ele>198.65000000000001</ele>
        <time>2025-05-04T15:11:51Z</time>
      </trkpt>
      <trkpt lat="38.804261041805148" lon="-9.364437991753221">
        <ele>199.13</ele>
        <time>2025-05-04T15:11:52Z</time>
      </trkpt>
      <trkpt lat="38.804200021550059" lon="-9.364649970084429">
        <ele>199.13</ele>
        <time>2025-05-04T15:11:53Z</time>
      </trkpt>
      <trkpt lat="38.804141012951732" lon="-9.364901008084416">
        <ele>199.61000000000001</ele>
        <time>2025-05-04T15:11:54Z</time>
      </trkpt>
      <trkpt lat="38.804121986031532" lon="-9.365118015557528">
        <ele>199.13</ele>
        <time>2025-05-04T15:11:55Z</time>
      </trkpt>
      <trkpt lat="38.803898021578789" lon="-9.367540972307324">
        <ele>198.65000000000001</ele>
        <time>2025-05-04T15:12:04Z</time>
      </trkpt>
      <trkpt lat="38.803993994370103" lon="-9.369017025455833">
        <ele>200.09</ele>
        <time>2025-05-04T15:12:10Z</time>
      </trkpt>
      <trkpt lat="38.804143024608493" lon="-9.370114970952272">
        <ele>202.00999999999999</ele>
        <time>2025-05-04T15:12:15Z</time>
      </trkpt>
      <trkpt lat="38.804062977433205" lon="-9.371090959757567">
        <ele>203.46000000000001</ele>
        <time>2025-05-04T15:12:19Z</time>
      </trkpt>
      <trkpt lat="38.803997011855245" lon="-9.371306039392948">
        <ele>203.94</ele>
        <time>2025-05-04T15:12:20Z</time>
      </trkpt>
      <trkpt lat="38.803931968286633" lon="-9.371501002460718">
        <ele>204.41999999999999</ele>
        <time>2025-05-04T15:12:21Z</time>
      </trkpt>
      <trkpt lat="38.80379400216043" lon="-9.371807025745511">
        <ele>204.90000000000001</ele>
        <time>2025-05-04T15:12:23Z</time>
      </trkpt>
      <trkpt lat="38.803754020482302" lon="-9.371961001306772">
        <ele>205.38</ele>
        <time>2025-05-04T15:12:24Z</time>
      </trkpt>
      <trkpt lat="38.803743040189147" lon="-9.37210701406002">
        <ele>205.38</ele>
        <time>2025-05-04T15:12:25Z</time>
      </trkpt>
      <trkpt lat="38.803711021319032" lon="-9.372153030708432">
        <ele>205.38</ele>
        <time>2025-05-04T15:12:26Z</time>
      </trkpt>
      <trkpt lat="38.803567020222545" lon="-9.372232994064689">
        <ele>204.90000000000001</ele>
        <time>2025-05-04T15:12:27Z</time>
      </trkpt>
      <trkpt lat="38.803480016067624" lon="-9.372319998219609">
        <ele>204.90000000000001</ele>
        <time>2025-05-04T15:12:28Z</time>
      </trkpt>
      <trkpt lat="38.803381025791168" lon="-9.372419994324446">
        <ele>204.90000000000001</ele>
        <time>2025-05-04T15:12:29Z</time>
      </trkpt>
      <trkpt lat="38.803276000544429" lon="-9.372548991814256">
        <ele>204.90000000000001</ele>
        <time>2025-05-04T15:12:30Z</time>
      </trkpt>
      <trkpt lat="38.803198970854282" lon="-9.372698022052646">
        <ele>204.90000000000001</ele>
        <time>2025-05-04T15:12:31Z</time>
      </trkpt>
      <trkpt lat="38.802985986694694" lon="-9.373157015070319">
        <ele>204.90000000000001</ele>
        <time>2025-05-04T15:12:34Z</time>
      </trkpt>
      <trkpt lat="38.802949022501707" lon="-9.373325994238257">
        <ele>203.94</ele>
        <time>2025-05-04T15:12:35Z</time>
      </trkpt>
      <trkpt lat="38.802912980318069" lon="-9.373492039740086">
        <ele>203.46000000000001</ele>
        <time>2025-05-04T15:12:36Z</time>
      </trkpt>
      <trkpt lat="38.802852965891361" lon="-9.373939968645573">
        <ele>202.00999999999999</ele>
        <time>2025-05-04T15:12:39Z</time>
      </trkpt>
      <trkpt lat="38.802778031677008" lon="-9.375850036740303">
        <ele>197.21000000000001</ele>
        <time>2025-05-04T15:12:51Z</time>
      </trkpt>
      <trkpt lat="38.802733020856977" lon="-9.377179993316531">
        <ele>195.28</ele>
        <time>2025-05-04T15:12:59Z</time>
      </trkpt>
      <trkpt lat="38.802702007815242" lon="-9.377875020727515">
        <ele>194.80000000000001</ele>
        <time>2025-05-04T15:13:05Z</time>
      </trkpt>
      <trkpt lat="38.802692033350468" lon="-9.377968981862068">
        <ele>194.80000000000001</ele>
        <time>2025-05-04T15:13:06Z</time>
      </trkpt>
      <trkpt lat="38.802653979510069" lon="-9.378094039857388">
        <ele>194.80000000000001</ele>
        <time>2025-05-04T15:13:07Z</time>
      </trkpt>
      <trkpt lat="38.802598994225264" lon="-9.378131004050374">
        <ele>194.80000000000001</ele>
        <time>2025-05-04T15:13:08Z</time>
      </trkpt>
      <trkpt lat="38.802552977576852" lon="-9.378162017092109">
        <ele>194.80000000000001</ele>
        <time>2025-05-04T15:13:09Z</time>
      </trkpt>
      <trkpt lat="38.802414005622268" lon="-9.378204010426998">
        <ele>194.80000000000001</ele>
        <time>2025-05-04T15:13:10Z</time>
      </trkpt>
      <trkpt lat="38.80239799618721" lon="-9.378308029845357">
        <ele>194.80000000000001</ele>
        <time>2025-05-04T15:13:11Z</time>
      </trkpt>
      <trkpt lat="38.802378969267011" lon="-9.378424035385251">
        <ele>194.31999999999999</ele>
        <time>2025-05-04T15:13:12Z</time>
      </trkpt>
      <trkpt lat="38.802360026165843" lon="-9.378550015389919">
        <ele>194.31999999999999</ele>
        <time>2025-05-04T15:13:13Z</time>
      </trkpt>
      <trkpt lat="38.802360026165843" lon="-9.378682030364871">
        <ele>194.31999999999999</ele>
        <time>2025-05-04T15:13:14Z</time>
      </trkpt>
      <trkpt lat="38.802365977317095" lon="-9.380152970552445">
        <ele>200.56999999999999</ele>
        <time>2025-05-04T15:13:26Z</time>
      </trkpt>
      <trkpt lat="38.802383998408914" lon="-9.380418006330729">
        <ele>202.97999999999999</ele>
        <time>2025-05-04T15:13:33Z</time>
      </trkpt>
      <trkpt lat="38.802385004237294" lon="-9.380438039079309">
        <ele>203.46000000000001</ele>
        <time>2025-05-04T15:13:34Z</time>
      </trkpt>
      <trkpt lat="38.802385004237294" lon="-9.380438039079309">
        <ele>203.46000000000001</ele>
        <time>2025-05-04T15:13:49Z</time>
      </trkpt>
      <trkpt lat="38.802422974258661" lon="-9.380810027942061">
        <ele>207.30000000000001</ele>
        <time>2025-05-04T15:13:59Z</time>
      </trkpt>
      <trkpt lat="38.802458010613918" lon="-9.381010020151734">
        <ele>209.22</ele>
        <time>2025-05-04T15:14:03Z</time>
      </trkpt>
      <trkpt lat="38.802527999505401" lon="-9.381415033712983">
        <ele>212.11000000000001</ele>
        <time>2025-05-04T15:14:14Z</time>
      </trkpt>
      <trkpt lat="38.802565969526768" lon="-9.381632041186094">
        <ele>215.94999999999999</ele>
        <time>2025-05-04T15:14:40Z</time>
      </trkpt>
      <trkpt lat="38.802625983953476" lon="-9.381701024249196">
        <ele>216.91</ele>
        <time>2025-05-04T15:14:41Z</time>
      </trkpt>
      <trkpt lat="38.802678035572171" lon="-9.381721979007125">
        <ele>217.88</ele>
        <time>2025-05-04T15:14:42Z</time>
      </trkpt>
      <trkpt lat="38.802736960351467" lon="-9.381708987057209">
        <ele>218.36000000000001</ele>
        <time>2025-05-04T15:14:43Z</time>
      </trkpt>
      <trkpt lat="38.802785994485021" lon="-9.381694989278913">
        <ele>218.84</ele>
        <time>2025-05-04T15:14:44Z</time>
      </trkpt>
      <trkpt lat="38.802824970334768" lon="-9.381684008985758">
        <ele>219.31999999999999</ele>
        <time>2025-05-04T15:14:45Z</time>
      </trkpt>
      <trkpt lat="38.802954973652959" lon="-9.381649978458881">
        <ele>220.28</ele>
        <time>2025-05-04T15:14:50Z</time>
      </trkpt>
      <trkpt lat="38.802979029715061" lon="-9.38164402730763">
        <ele>220.75999999999999</ele>
        <time>2025-05-04T15:14:51Z</time>
      </trkpt>
      <trkpt lat="38.803079025819898" lon="-9.381618965417147">
        <ele>224.12</ele>
        <time>2025-05-04T15:15:03Z</time>
      </trkpt>
      <trkpt lat="38.803079025819898" lon="-9.381618965417147">
        <ele>224.12</ele>
        <time>2025-05-04T15:15:39Z</time>
      </trkpt>
      <trkpt lat="38.80325797945261" lon="-9.381574038416147">
        <ele>222.68000000000001</ele>
        <time>2025-05-04T15:16:02Z</time>
      </trkpt>
      <trkpt lat="38.803379014134407" lon="-9.38153799623251">
        <ele>217.88</ele>
        <time>2025-05-04T15:16:17Z</time>
      </trkpt>
      <trkpt lat="38.803585963323712" lon="-9.381545959040523">
        <ele>213.55000000000001</ele>
        <time>2025-05-04T15:16:27Z</time>
      </trkpt>
      <trkpt lat="38.803799031302333" lon="-9.38142903149128">
        <ele>212.11000000000001</ele>
        <time>2025-05-04T15:16:38Z</time>
      </trkpt>
      <trkpt lat="38.803819986060262" lon="-9.381441017612815">
        <ele>212.11000000000001</ele>
        <time>2025-05-04T15:16:41Z</time>
      </trkpt>
      <trkpt lat="38.803868014365435" lon="-9.381489967927337">
        <ele>212.11000000000001</ele>
        <time>2025-05-04T15:16:42Z</time>
      </trkpt>
      <trkpt lat="38.803878994658589" lon="-9.381536990404129">
        <ele>212.11000000000001</ele>
        <time>2025-05-04T15:16:43Z</time>
      </trkpt>
      <trkpt lat="38.804044034332037" lon="-9.381862040609121">
        <ele>213.06999999999999</ele>
        <time>2025-05-04T15:16:51Z</time>
      </trkpt>
      <trkpt lat="38.804086027666926" lon="-9.381905039772391">
        <ele>213.06999999999999</ele>
        <time>2025-05-04T15:16:52Z</time>
      </trkpt>
      <trkpt lat="38.804451981559396" lon="-9.382320027798414">
        <ele>211.63</ele>
        <time>2025-05-04T15:16:59Z</time>
      </trkpt>
      <trkpt lat="38.804487017914653" lon="-9.382408037781715">
        <ele>210.66999999999999</ele>
        <time>2025-05-04T15:17:00Z</time>
      </trkpt>
      <trkpt lat="38.804505039006472" lon="-9.382509961724281">
        <ele>210.19</ele>
        <time>2025-05-04T15:17:01Z</time>
      </trkpt>
      <trkpt lat="38.804505039006472" lon="-9.382610963657498">
        <ele>209.69999999999999</ele>
        <time>2025-05-04T15:17:02Z</time>
      </trkpt>
      <trkpt lat="38.804491963237524" lon="-9.382710959762335">
        <ele>208.74000000000001</ele>
        <time>2025-05-04T15:17:03Z</time>
      </trkpt>
      <trkpt lat="38.804470002651215" lon="-9.382817996665835">
        <ele>208.25999999999999</ele>
        <time>2025-05-04T15:17:04Z</time>
      </trkpt>
      <trkpt lat="38.804423986002803" lon="-9.38304103910923">
        <ele>207.30000000000001</ele>
        <time>2025-05-04T15:17:06Z</time>
      </trkpt>
      <trkpt lat="38.804400013759732" lon="-9.383157966658473">
        <ele>206.34</ele>
        <time>2025-05-04T15:17:07Z</time>
      </trkpt>
      <trkpt lat="38.804376963526011" lon="-9.383271038532257">
        <ele>205.86000000000001</ele>
        <time>2025-05-04T15:17:08Z</time>
      </trkpt>
      <trkpt lat="38.804355002939701" lon="-9.383375979959965">
        <ele>205.38</ele>
        <time>2025-05-04T15:17:09Z</time>
      </trkpt>
      <trkpt lat="38.804304962977767" lon="-9.383446974679828">
        <ele>204.41999999999999</ele>
        <time>2025-05-04T15:17:10Z</time>
      </trkpt>
      <trkpt lat="38.804250983521342" lon="-9.383525010198355">
        <ele>203.94</ele>
        <time>2025-05-04T15:17:11Z</time>
      </trkpt>
      <trkpt lat="38.804194992408156" lon="-9.383604973554611">
        <ele>203.46000000000001</ele>
        <time>2025-05-04T15:17:12Z</time>
      </trkpt>
      <trkpt lat="38.804144030436873" lon="-9.383676974102855">
        <ele>202.97999999999999</ele>
        <time>2025-05-04T15:17:13Z</time>
      </trkpt>
      <trkpt lat="38.804098013788462" lon="-9.383743023499847">
        <ele>202.97999999999999</ele>
        <time>2025-05-04T15:17:14Z</time>
      </trkpt>
      <trkpt lat="38.804055014625192" lon="-9.383804965764284">
        <ele>202.97999999999999</ele>
        <time>2025-05-04T15:17:15Z</time>
      </trkpt>
      <trkpt lat="38.804077981039882" lon="-9.383922982960939">
        <ele>202.00999999999999</ele>
        <time>2025-05-04T15:17:16Z</time>
      </trkpt>
      <trkpt lat="38.804098013788462" lon="-9.384019039571285">
        <ele>201.05000000000001</ele>
        <time>2025-05-04T15:17:17Z</time>
      </trkpt>
      <trkpt lat="38.804150987416506" lon="-9.384082993492484">
        <ele>199.61000000000001</ele>
        <time>2025-05-04T15:17:18Z</time>
      </trkpt>
      <trkpt lat="38.804220976307988" lon="-9.384167985990644">
        <ele>198.16999999999999</ele>
        <time>2025-05-04T15:17:19Z</time>
      </trkpt>
      <trkpt lat="38.804394984617829" lon="-9.384338976815343">
        <ele>196.25</ele>
        <time>2025-05-04T15:17:21Z</time>
      </trkpt>
      <trkpt lat="38.805175004526973" lon="-9.384868964552879">
        <ele>191.91999999999999</ele>
        <time>2025-05-04T15:17:28Z</time>
      </trkpt>
      <trkpt lat="38.805368961766362" lon="-9.38499603420496">
        <ele>190.96000000000001</ele>
        <time>2025-05-04T15:17:30Z</time>
      </trkpt>
      <trkpt lat="38.805435011163354" lon="-9.38510499894619">
        <ele>190.96000000000001</ele>
        <time>2025-05-04T15:17:31Z</time>
      </trkpt>
      <trkpt lat="38.80549100227654" lon="-9.385217987000942">
        <ele>190.47999999999999</ele>
        <time>2025-05-04T15:17:32Z</time>
      </trkpt>
      <trkpt lat="38.805544981732965" lon="-9.385326029732823">
        <ele>190</ele>
        <time>2025-05-04T15:17:33Z</time>
      </trkpt>
      <trkpt lat="38.80559803918004" lon="-9.385431976988912">
        <ele>189.52000000000001</ele>
        <time>2025-05-04T15:17:34Z</time>
      </trkpt>
      <trkpt lat="38.805725025013089" lon="-9.385906979441643">
        <ele>187.59</ele>
        <time>2025-05-04T15:17:38Z</time>
      </trkpt>
      <trkpt lat="38.805742962285876" lon="-9.386031031608582">
        <ele>187.11000000000001</ele>
        <time>2025-05-04T15:17:39Z</time>
      </trkpt>
      <trkpt lat="38.80575000308454" lon="-9.386154999956489">
        <ele>186.63</ele>
        <time>2025-05-04T15:17:40Z</time>
      </trkpt>
      <trkpt lat="38.80575000308454" lon="-9.386550039052963">
        <ele>184.22999999999999</ele>
        <time>2025-05-04T15:17:43Z</time>
      </trkpt>
      <trkpt lat="38.805699963122606" lon="-9.386810967698693">
        <ele>181.83000000000001</ele>
        <time>2025-05-04T15:17:45Z</time>
      </trkpt>
      <trkpt lat="38.805509023368359" lon="-9.387559974566102">
        <ele>177.02000000000001</ele>
        <time>2025-05-04T15:17:51Z</time>
      </trkpt>
      <trkpt lat="38.805480021983385" lon="-9.387674974277616">
        <ele>176.06</ele>
        <time>2025-05-04T15:17:52Z</time>
      </trkpt>
      <trkpt lat="38.805435011163354" lon="-9.387781005352736">
        <ele>175.58000000000001</ele>
        <time>2025-05-04T15:17:53Z</time>
      </trkpt>
      <trkpt lat="38.8053859770298" lon="-9.387878989800811">
        <ele>174.62</ele>
        <time>2025-05-04T15:17:54Z</time>
      </trkpt>
      <trkpt lat="38.805364016443491" lon="-9.387925006449223">
        <ele>174.13999999999999</ele>
        <time>2025-05-04T15:17:55Z</time>
      </trkpt>
      <trkpt lat="38.805258991196752" lon="-9.387965993955731">
        <ele>173.16999999999999</ele>
        <time>2025-05-04T15:17:56Z</time>
      </trkpt>
      <trkpt lat="38.805185984820127" lon="-9.387996001169086">
        <ele>172.69</ele>
        <time>2025-05-04T15:17:57Z</time>
      </trkpt>
      <trkpt lat="38.805149020627141" lon="-9.388011004775763">
        <ele>172.21000000000001</ele>
        <time>2025-05-04T15:17:58Z</time>
      </trkpt>
      <trkpt lat="38.805097974836826" lon="-9.38798300921917">
        <ele>171.72999999999999</ele>
        <time>2025-05-04T15:17:59Z</time>
      </trkpt>
      <trkpt lat="38.805051036179066" lon="-9.387958031147718">
        <ele>171.25</ele>
        <time>2025-05-04T15:18:00Z</time>
      </trkpt>
      <trkpt lat="38.805010970681906" lon="-9.387936992570758">
        <ele>170.77000000000001</ele>
        <time>2025-05-04T15:18:01Z</time>
      </trkpt>
      <trkpt lat="38.804974006488919" lon="-9.387916959822178">
        <ele>170.28999999999999</ele>
        <time>2025-05-04T15:18:02Z</time>
      </trkpt>
      <trkpt lat="38.804749036207795" lon="-9.387870021164417">
        <ele>167.41</ele>
        <time>2025-05-04T15:18:08Z</time>
      </trkpt>
      <trkpt lat="38.804712994024158" lon="-9.387891981750727">
        <ele>166.93000000000001</ele>
        <time>2025-05-04T15:18:09Z</time>
      </trkpt>
      <trkpt lat="38.804678041487932" lon="-9.3879400100559">
        <ele>166.44999999999999</ele>
        <time>2025-05-04T15:18:10Z</time>
      </trkpt>
      <trkpt lat="38.804645016789436" lon="-9.387986026704311">
        <ele>165.96000000000001</ele>
        <time>2025-05-04T15:18:11Z</time>
      </trkpt>
      <trkpt lat="38.804620960727334" lon="-9.388063978403807">
        <ele>165.47999999999999</ele>
        <time>2025-05-04T15:18:12Z</time>
      </trkpt>
      <trkpt lat="38.804637975990772" lon="-9.38813497312367">
        <ele>165</ele>
        <time>2025-05-04T15:18:13Z</time>
      </trkpt>
      <trkpt lat="38.804658008739352" lon="-9.388213008642197">
        <ele>164.03999999999999</ele>
        <time>2025-05-04T15:18:14Z</time>
      </trkpt>
      <trkpt lat="38.804677035659552" lon="-9.388290038332343">
        <ele>163.56</ele>
        <time>2025-05-04T15:18:15Z</time>
      </trkpt>
      <trkpt lat="38.804725985974073" lon="-9.38832800835371">
        <ele>163.08000000000001</ele>
        <time>2025-05-04T15:18:16Z</time>
      </trkpt>
      <trkpt lat="38.804787006229162" lon="-9.388376036658883">
        <ele>162.59999999999999</ele>
        <time>2025-05-04T15:18:17Z</time>
      </trkpt>
      <trkpt lat="38.804851965978742" lon="-9.388426998630166">
        <ele>161.63999999999999</ele>
        <time>2025-05-04T15:18:18Z</time>
      </trkpt>
      <trkpt lat="38.805112978443503" lon="-9.388632019981742">
        <ele>160.68000000000001</ele>
        <time>2025-05-04T15:18:22Z</time>
      </trkpt>
      <trkpt lat="38.805181039497256" lon="-9.388684993609786">
        <ele>159.72</ele>
        <time>2025-05-04T15:18:23Z</time>
      </trkpt>
      <trkpt lat="38.805247005075216" lon="-9.38873696140945">
        <ele>159.72</ele>
        <time>2025-05-04T15:18:24Z</time>
      </trkpt>
      <trkpt lat="38.805310958996415" lon="-9.388788007199764">
        <ele>159.72</ele>
        <time>2025-05-04T15:18:25Z</time>
      </trkpt>
      <trkpt lat="38.80538497120142" lon="-9.388847015798092">
        <ele>159.72</ele>
        <time>2025-05-04T15:18:26Z</time>
      </trkpt>
      <trkpt lat="38.805458983406425" lon="-9.388860007748008">
        <ele>159.72</ele>
        <time>2025-05-04T15:18:27Z</time>
      </trkpt>
      <trkpt lat="38.805540036410093" lon="-9.388868976384401">
        <ele>159.24000000000001</ele>
        <time>2025-05-04T15:18:28Z</time>
      </trkpt>
      <trkpt lat="38.805627040565014" lon="-9.388855984434485">
        <ele>158.75</ele>
        <time>2025-05-04T15:18:29Z</time>
      </trkpt>
      <trkpt lat="38.805692000314593" lon="-9.388825977221131">
        <ele>158.27000000000001</ele>
        <time>2025-05-04T15:18:30Z</time>
      </trkpt>
      <trkpt lat="38.805752014741302" lon="-9.388797981664538">
        <ele>157.78999999999999</ele>
        <time>2025-05-04T15:18:31Z</time>
      </trkpt>
      <trkpt lat="38.805938009172678" lon="-9.388711983337998">
        <ele>156.83000000000001</ele>
        <time>2025-05-04T15:18:34Z</time>
      </trkpt>
      <trkpt lat="38.806015038862824" lon="-9.388680970296264">
        <ele>156.34999999999999</ele>
        <time>2025-05-04T15:18:35Z</time>
      </trkpt>
      <trkpt lat="38.8060939963907" lon="-9.388690022751689">
        <ele>156.34999999999999</ele>
        <time>2025-05-04T15:18:36Z</time>
      </trkpt>
      <trkpt lat="38.806185023859143" lon="-9.388708965852857">
        <ele>155.87</ele>
        <time>2025-05-04T15:18:37Z</time>
      </trkpt>
      <trkpt lat="38.806287031620741" lon="-9.388731010258198">
        <ele>155.38999999999999</ele>
        <time>2025-05-04T15:18:38Z</time>
      </trkpt>
      <trkpt lat="38.806384010240436" lon="-9.388776021078229">
        <ele>155.38999999999999</ele>
        <time>2025-05-04T15:18:39Z</time>
      </trkpt>
      <trkpt lat="38.806476965546608" lon="-9.388838969171047">
        <ele>155.38999999999999</ele>
        <time>2025-05-04T15:18:40Z</time>
      </trkpt>
      <trkpt lat="38.806562963873148" lon="-9.388915998861194">
        <ele>155.38999999999999</ele>
        <time>2025-05-04T15:18:41Z</time>
      </trkpt>
      <trkpt lat="38.806650973856449" lon="-9.389019012451172">
        <ele>155.38999999999999</ele>
        <time>2025-05-04T15:18:42Z</time>
      </trkpt>
      <trkpt lat="38.806692967191339" lon="-9.38914398662746">
        <ele>154.91</ele>
        <time>2025-05-04T15:18:43Z</time>
      </trkpt>
      <trkpt lat="38.80673898383975" lon="-9.389282036572695">
        <ele>154.43000000000001</ele>
        <time>2025-05-04T15:18:44Z</time>
      </trkpt>
      <trkpt lat="38.807036960497499" lon="-9.390302030369639">
        <ele>148.18000000000001</ele>
        <time>2025-05-04T15:18:51Z</time>
      </trkpt>
      <trkpt lat="38.807036960497499" lon="-9.390621967613697">
        <ele>145.78</ele>
        <time>2025-05-04T15:18:53Z</time>
      </trkpt>
      <trkpt lat="38.807036960497499" lon="-9.39077602699399">
        <ele>144.81999999999999</ele>
        <time>2025-05-04T15:18:54Z</time>
      </trkpt>
      <trkpt lat="38.806993961334229" lon="-9.391222028061748">
        <ele>142.41</ele>
        <time>2025-05-04T15:18:57Z</time>
      </trkpt>
      <trkpt lat="38.806964959949255" lon="-9.391351025551558">
        <ele>141.44999999999999</ele>
        <time>2025-05-04T15:18:58Z</time>
      </trkpt>
      <trkpt lat="38.806663965806365" lon="-9.391935998573899">
        <ele>136.63999999999999</ele>
        <time>2025-05-04T15:19:03Z</time>
      </trkpt>
      <trkpt lat="38.80632902495563" lon="-9.39232399687171">
        <ele>133.75999999999999</ele>
        <time>2025-05-04T15:19:07Z</time>
      </trkpt>
      <trkpt lat="38.806228023022413" lon="-9.392380993813276">
        <ele>133.28</ele>
        <time>2025-05-04T15:19:08Z</time>
      </trkpt>
      <trkpt lat="38.806128026917577" lon="-9.392428016290069">
        <ele>132.80000000000001</ele>
        <time>2025-05-04T15:19:09Z</time>
      </trkpt>
      <trkpt lat="38.806024007499218" lon="-9.392465986311436">
        <ele>132.31999999999999</ele>
        <time>2025-05-04T15:19:10Z</time>
      </trkpt>
      <trkpt lat="38.805927028879523" lon="-9.392501022666693">
        <ele>131.84</ele>
        <time>2025-05-04T15:19:11Z</time>
      </trkpt>
      <trkpt lat="38.805368961766362" lon="-9.392619961872697">
        <ele>126.55</ele>
        <time>2025-05-04T15:19:19Z</time>
      </trkpt>
      <trkpt lat="38.805302996188402" lon="-9.392604036256671">
        <ele>126.06999999999999</ele>
        <time>2025-05-04T15:19:20Z</time>
      </trkpt>
      <trkpt lat="38.805261002853513" lon="-9.392561037093401">
        <ele>125.11</ele>
        <time>2025-05-04T15:19:21Z</time>
      </trkpt>
      <trkpt lat="38.805199982598424" lon="-9.39249599352479">
        <ele>124.63</ele>
        <time>2025-05-04T15:19:22Z</time>
      </trkpt>
      <trkpt lat="38.805137034505606" lon="-9.392429022118449">
        <ele>124.15000000000001</ele>
        <time>2025-05-04T15:19:23Z</time>
      </trkpt>
      <trkpt lat="38.805076014250517" lon="-9.392361966893077">
        <ele>123.19</ele>
        <time>2025-05-04T15:19:24Z</time>
      </trkpt>
      <trkpt lat="38.80484702065587" lon="-9.392116963863373">
        <ele>120.78</ele>
        <time>2025-05-04T15:19:28Z</time>
      </trkpt>
      <trkpt lat="38.804792035371065" lon="-9.392058039084077">
        <ele>120.3</ele>
        <time>2025-05-04T15:19:29Z</time>
      </trkpt>
      <trkpt lat="38.804737972095609" lon="-9.391999030485749">
        <ele>119.81999999999999</ele>
        <time>2025-05-04T15:19:30Z</time>
      </trkpt>
      <trkpt lat="38.804671000689268" lon="-9.391961982473731">
        <ele>119.34</ele>
        <time>2025-05-04T15:19:31Z</time>
      </trkpt>
      <trkpt lat="38.804600005969405" lon="-9.391934992745519">
        <ele>119.34</ele>
        <time>2025-05-04T15:19:32Z</time>
      </trkpt>
      <trkpt lat="38.804529011249542" lon="-9.391922000795603">
        <ele>118.38</ele>
        <time>2025-05-04T15:19:33Z</time>
      </trkpt>
      <trkpt lat="38.804449969902635" lon="-9.391948990523815">
        <ele>117.90000000000001</ele>
        <time>2025-05-04T15:19:34Z</time>
      </trkpt>
      <trkpt lat="38.804376041516662" lon="-9.391972962766886">
        <ele>117.90000000000001</ele>
        <time>2025-05-04T15:19:35Z</time>
      </trkpt>
      <trkpt lat="38.804327007383108" lon="-9.392047980800271">
        <ele>117.42</ele>
        <time>2025-05-04T15:19:36Z</time>
      </trkpt>
      <trkpt lat="38.80428803153336" lon="-9.392143031582236">
        <ele>116.94</ele>
        <time>2025-05-04T15:19:37Z</time>
      </trkpt>
      <trkpt lat="38.804242014884949" lon="-9.392254007980228">
        <ele>116.94</ele>
        <time>2025-05-04T15:19:38Z</time>
      </trkpt>
      <trkpt lat="38.804198009893298" lon="-9.392386022955179">
        <ele>116.45999999999999</ele>
        <time>2025-05-04T15:19:39Z</time>
      </trkpt>
      <trkpt lat="38.804154004901648" lon="-9.392662039026618">
        <ele>115.98</ele>
        <time>2025-05-04T15:19:41Z</time>
      </trkpt>
      <trkpt lat="38.804131960496306" lon="-9.392800005152822">
        <ele>115.98</ele>
        <time>2025-05-04T15:19:42Z</time>
      </trkpt>
      <trkpt lat="38.804119974374771" lon="-9.392937971279025">
        <ele>115.5</ele>
        <time>2025-05-04T15:19:43Z</time>
      </trkpt>
      <trkpt lat="38.804120980203152" lon="-9.393079038709402">
        <ele>115.01000000000001</ele>
        <time>2025-05-04T15:19:44Z</time>
      </trkpt>
      <trkpt lat="38.804122991859913" lon="-9.393223039805889">
        <ele>115.01000000000001</ele>
        <time>2025-05-04T15:19:45Z</time>
      </trkpt>
      <trkpt lat="38.804140007123351" lon="-9.394669001922011">
        <ele>110.20999999999999</ele>
        <time>2025-05-04T15:19:54Z</time>
      </trkpt>
      <trkpt lat="38.803947977721691" lon="-9.395791003480554">
        <ele>107.31999999999999</ele>
        <time>2025-05-04T15:20:02Z</time>
      </trkpt>
      <trkpt lat="38.803868014365435" lon="-9.39601899124682">
        <ele>105.88</ele>
        <time>2025-05-04T15:20:04Z</time>
      </trkpt>
      <trkpt lat="38.803815962746739" lon="-9.396109012886882">
        <ele>104.92</ele>
        <time>2025-05-04T15:20:05Z</time>
      </trkpt>
      <trkpt lat="38.803762989118695" lon="-9.396194005385041">
        <ele>104.44</ele>
        <time>2025-05-04T15:20:06Z</time>
      </trkpt>
      <trkpt lat="38.80368797108531" lon="-9.396231975406408">
        <ele>103.95999999999999</ele>
        <time>2025-05-04T15:20:07Z</time>
      </trkpt>
      <trkpt lat="38.803613958880305" lon="-9.39625795930624">
        <ele>103</ele>
        <time>2025-05-04T15:20:08Z</time>
      </trkpt>
      <trkpt lat="38.80353600718081" lon="-9.396286960691214">
        <ele>102.52</ele>
        <time>2025-05-04T15:20:09Z</time>
      </trkpt>
      <trkpt lat="38.80345000885427" lon="-9.39627799205482">
        <ele>102.04000000000001</ele>
        <time>2025-05-04T15:20:10Z</time>
      </trkpt>
      <trkpt lat="38.80336401052773" lon="-9.39625795930624">
        <ele>101.56</ele>
        <time>2025-05-04T15:20:11Z</time>
      </trkpt>
      <trkpt lat="38.803279018029571" lon="-9.396238010376692">
        <ele>100.59999999999999</ele>
        <time>2025-05-04T15:20:12Z</time>
      </trkpt>
      <trkpt lat="38.803202994167805" lon="-9.396194005385041">
        <ele>100.11</ele>
        <time>2025-05-04T15:20:13Z</time>
      </trkpt>
      <trkpt lat="38.803133005276322" lon="-9.396127033978701">
        <ele>100.11</ele>
        <time>2025-05-04T15:20:14Z</time>
      </trkpt>
      <trkpt lat="38.803061004728079" lon="-9.396056961268187">
        <ele>99.629999999999995</ele>
        <time>2025-05-04T15:20:15Z</time>
      </trkpt>
      <trkpt lat="38.802498998120427" lon="-9.395497972145677">
        <ele>92.900000000000006</ele>
        <time>2025-05-04T15:20:23Z</time>
      </trkpt>
      <trkpt lat="38.802200015634298" lon="-9.395190021023154">
        <ele>87.620000000000005</ele>
        <time>2025-05-04T15:20:29Z</time>
      </trkpt>
      <trkpt lat="38.802146958187222" lon="-9.395146016031504">
        <ele>87.140000000000001</ele>
        <time>2025-05-04T15:20:30Z</time>
      </trkpt>
      <trkpt lat="38.802123991772532" lon="-9.395135035738349">
        <ele>86.180000000000007</ele>
        <time>2025-05-04T15:20:31Z</time>
      </trkpt>
      <trkpt lat="38.802060037851334" lon="-9.39518197439611">
        <ele>85.689999999999998</ele>
        <time>2025-05-04T15:20:32Z</time>
      </trkpt>
      <trkpt lat="38.80203003063798" lon="-9.395205024629831">
        <ele>84.730000000000004</ele>
        <time>2025-05-04T15:20:33Z</time>
      </trkpt>
      <trkpt lat="38.801951995119452" lon="-9.395263027399778">
        <ele>83.769999999999996</ele>
        <time>2025-05-04T15:20:34Z</time>
      </trkpt>
      <trkpt lat="38.801951995119452" lon="-9.395263027399778">
        <ele>83.290000000000006</ele>
        <time>2025-05-04T15:20:35Z</time>
      </trkpt>
      <trkpt lat="38.801936991512775" lon="-9.395295968279243">
        <ele>82.329999999999998</ele>
        <time>2025-05-04T15:20:36Z</time>
      </trkpt>
      <trkpt lat="38.801974961534142" lon="-9.395366962999106">
        <ele>81.849999999999994</ele>
        <time>2025-05-04T15:20:37Z</time>
      </trkpt>
      <trkpt lat="38.802058026194572" lon="-9.395664017647505">
        <ele>78.969999999999999</ele>
        <time>2025-05-04T15:20:44Z</time>
      </trkpt>
      <trkpt lat="38.802103959023952" lon="-9.395696958526969">
        <ele>78.969999999999999</ele>
        <time>2025-05-04T15:20:45Z</time>
      </trkpt>
      <trkpt lat="38.802243014797568" lon="-9.395830985158682">
        <ele>78.480000000000004</ele>
        <time>2025-05-04T15:20:48Z</time>
      </trkpt>
      <trkpt lat="38.80229095928371" lon="-9.395896028727293">
        <ele>78.480000000000004</ele>
        <time>2025-05-04T15:20:49Z</time>
      </trkpt>
      <trkpt lat="38.802522970363498" lon="-9.396210014820099">
        <ele>77.519999999999996</ele>
        <time>2025-05-04T15:20:53Z</time>
      </trkpt>
      <trkpt lat="38.802596982568502" lon="-9.396287966519594">
        <ele>77.040000000000006</ele>
        <time>2025-05-04T15:20:54Z</time>
      </trkpt>
      <trkpt lat="38.802833016961813" lon="-9.396486030891538">
        <ele>76.560000000000002</ele>
        <time>2025-05-04T15:20:57Z</time>
      </trkpt>
      <trkpt lat="38.802909040823579" lon="-9.396550990641117">
        <ele>76.560000000000002</ele>
        <time>2025-05-04T15:20:58Z</time>
      </trkpt>
      <trkpt lat="38.802984980866313" lon="-9.396626008674502">
        <ele>76.560000000000002</ele>
        <time>2025-05-04T15:20:59Z</time>
      </trkpt>
      <trkpt lat="38.803053963929415" lon="-9.396714018657804">
        <ele>76.560000000000002</ele>
        <time>2025-05-04T15:21:00Z</time>
      </trkpt>
      <trkpt lat="38.803126970306039" lon="-9.396807979792357">
        <ele>76.560000000000002</ele>
        <time>2025-05-04T15:21:01Z</time>
      </trkpt>
      <trkpt lat="38.803197965025902" lon="-9.39690001308918">
        <ele>76.560000000000002</ele>
        <time>2025-05-04T15:21:02Z</time>
      </trkpt>
      <trkpt lat="38.803267031908035" lon="-9.396982993930578">
        <ele>76.560000000000002</ele>
        <time>2025-05-04T15:21:03Z</time>
      </trkpt>
      <trkpt lat="38.803355041891336" lon="-9.397026998922229">
        <ele>76.560000000000002</ele>
        <time>2025-05-04T15:21:04Z</time>
      </trkpt>
      <trkpt lat="38.803441962227225" lon="-9.397069998085499">
        <ele>77.040000000000006</ele>
        <time>2025-05-04T15:21:05Z</time>
      </trkpt>
      <trkpt lat="38.803560985252261" lon="-9.397130012512207">
        <ele>77.519999999999996</ele>
        <time>2025-05-04T15:21:06Z</time>
      </trkpt>
      <trkpt lat="38.803626028820872" lon="-9.397123977541924">
        <ele>78.480000000000004</ele>
        <time>2025-05-04T15:21:07Z</time>
      </trkpt>
      <trkpt lat="38.803723007440567" lon="-9.397114003077149">
        <ele>79.450000000000003</ele>
        <time>2025-05-04T15:21:08Z</time>
      </trkpt>
      <trkpt lat="38.803827026858926" lon="-9.397080978378654">
        <ele>80.409999999999997</ele>
        <time>2025-05-04T15:21:09Z</time>
      </trkpt>
      <trkpt lat="38.803919982165098" lon="-9.397031022235751">
        <ele>80.890000000000001</ele>
        <time>2025-05-04T15:21:10Z</time>
      </trkpt>
      <trkpt lat="38.804012015461922" lon="-9.396980982273817">
        <ele>81.370000000000005</ele>
        <time>2025-05-04T15:21:11Z</time>
      </trkpt>
      <trkpt lat="38.804299011826515" lon="-9.396827006712556">
        <ele>82.810000000000002</ele>
        <time>2025-05-04T15:21:14Z</time>
      </trkpt>
      <trkpt lat="38.804402025416493" lon="-9.396792976185679">
        <ele>82.329999999999998</ele>
        <time>2025-05-04T15:21:15Z</time>
      </trkpt>
      <trkpt lat="38.804509984329343" lon="-9.396757017821074">
        <ele>81.849999999999994</ele>
        <time>2025-05-04T15:21:16Z</time>
      </trkpt>
      <trkpt lat="38.804730009287596" lon="-9.396703960373998">
        <ele>80.409999999999997</ele>
        <time>2025-05-04T15:21:18Z</time>
      </trkpt>
      <trkpt lat="38.804950034245849" lon="-9.396689962595701">
        <ele>79.450000000000003</ele>
        <time>2025-05-04T15:21:20Z</time>
      </trkpt>
      <trkpt lat="38.805594015866518" lon="-9.396870005875826">
        <ele>77.040000000000006</ele>
        <time>2025-05-04T15:21:26Z</time>
      </trkpt>
      <trkpt lat="38.805798031389713" lon="-9.397005038335919">
        <ele>76.079999999999998</ele>
        <time>2025-05-04T15:21:28Z</time>
      </trkpt>
      <trkpt lat="38.806165996938944" lon="-9.397278036922216">
        <ele>74.159999999999997</ele>
        <time>2025-05-04T15:21:32Z</time>
      </trkpt>
      <trkpt lat="38.806253001093864" lon="-9.397346014156938">
        <ele>74.159999999999997</ele>
        <time>2025-05-04T15:21:33Z</time>
      </trkpt>
      <trkpt lat="38.806927995756269" lon="-9.397839037701488">
        <ele>73.680000000000007</ele>
        <time>2025-05-04T15:21:43Z</time>
      </trkpt>
      <trkpt lat="38.806981975212693" lon="-9.397869966924191">
        <ele>74.159999999999997</ele>
        <time>2025-05-04T15:21:44Z</time>
      </trkpt>
      <trkpt lat="38.807032015174627" lon="-9.397897040471435">
        <ele>74.640000000000001</ele>
        <time>2025-05-04T15:21:45Z</time>
      </trkpt>
      <trkpt lat="38.807068979367614" lon="-9.397917995229363">
        <ele>74.640000000000001</ele>
        <time>2025-05-04T15:21:46Z</time>
      </trkpt>
      <trkpt lat="38.807133017107844" lon="-9.397843983024359">
        <ele>75.120000000000005</ele>
        <time>2025-05-04T15:21:47Z</time>
      </trkpt>
      <trkpt lat="38.80716796964407" lon="-9.397865021601319">
        <ele>75.599999999999994</ele>
        <time>2025-05-04T15:21:48Z</time>
      </trkpt>
      <trkpt lat="38.80720803514123" lon="-9.39788899384439">
        <ele>76.079999999999998</ele>
        <time>2025-05-04T15:21:49Z</time>
      </trkpt>
      <trkpt lat="38.807229995727539" lon="-9.397902991622686">
        <ele>76.560000000000002</ele>
        <time>2025-05-04T15:21:50Z</time>
      </trkpt>
      <trkpt lat="38.807224966585636" lon="-9.397916989400983">
        <ele>77.040000000000006</ele>
        <time>2025-05-04T15:21:51Z</time>
      </trkpt>
      <trkpt lat="38.80718800239265" lon="-9.398010028526187">
        <ele>77.519999999999996</ele>
        <time>2025-05-04T15:21:52Z</time>
      </trkpt>
      <trkpt lat="38.807190014049411" lon="-9.398026959970594">
        <ele>78.480000000000004</ele>
        <time>2025-05-04T15:21:53Z</time>
      </trkpt>
      <trkpt lat="38.807193031534553" lon="-9.398051016032696">
        <ele>78.480000000000004</ele>
        <time>2025-05-04T15:21:54Z</time>
      </trkpt>
      <trkpt lat="38.807193031534553" lon="-9.398051016032696">
        <ele>78.969999999999999</ele>
        <time>2025-05-04T15:21:55Z</time>
      </trkpt>
      <trkpt lat="38.80718800239265" lon="-9.398010028526187">
        <ele>79.930000000000007</ele>
        <time>2025-05-04T15:21:59Z</time>
      </trkpt>
      <trkpt lat="38.80718800239265" lon="-9.398010028526187">
        <ele>80.409999999999997</ele>
        <time>2025-05-04T15:22:00Z</time>
      </trkpt>
      <trkpt lat="38.80718800239265" lon="-9.398010028526187">
        <ele>81.370000000000005</ele>
        <time>2025-05-04T15:22:18Z</time>
      </trkpt>
      <trkpt lat="38.807152966037393" lon="-9.398010028526187">
        <ele>82.329999999999998</ele>
        <time>2025-05-04T15:22:49Z</time>
      </trkpt>
      <trkpt lat="38.807104015722871" lon="-9.398010028526187">
        <ele>82.329999999999998</ele>
        <time>2025-05-04T15:22:50Z</time>
      </trkpt>
      <trkpt lat="38.806656002998352" lon="-9.39765396527946">
        <ele>83.290000000000006</ele>
        <time>2025-05-04T15:22:55Z</time>
      </trkpt>
      <trkpt lat="38.80572896450758" lon="-9.396959021687508">
        <ele>83.769999999999996</ele>
        <time>2025-05-04T15:23:04Z</time>
      </trkpt>
      <trkpt lat="38.805529978126287" lon="-9.396847039461136">
        <ele>84.25</ele>
        <time>2025-05-04T15:23:06Z</time>
      </trkpt>
      <trkpt lat="38.804763033986092" lon="-9.396699015051127">
        <ele>85.209999999999994</ele>
        <time>2025-05-04T15:23:13Z</time>
      </trkpt>
      <trkpt lat="38.80465398542583" lon="-9.396716030314565">
        <ele>85.209999999999994</ele>
        <time>2025-05-04T15:23:14Z</time>
      </trkpt>
      <trkpt lat="38.804540997371078" lon="-9.396746037527919">
        <ele>85.689999999999998</ele>
        <time>2025-05-04T15:23:15Z</time>
      </trkpt>
      <trkpt lat="38.804227011278272" lon="-9.396863970905542">
        <ele>86.659999999999997</ele>
        <time>2025-05-04T15:23:18Z</time>
      </trkpt>
      <trkpt lat="38.804135983809829" lon="-9.396913005039096">
        <ele>86.659999999999997</ele>
        <time>2025-05-04T15:23:19Z</time>
      </trkpt>
      <trkpt lat="38.80405199714005" lon="-9.396959021687508">
        <ele>86.659999999999997</ele>
        <time>2025-05-04T15:23:20Z</time>
      </trkpt>
      <trkpt lat="38.803969016298652" lon="-9.397004032507539">
        <ele>86.659999999999997</ele>
        <time>2025-05-04T15:23:21Z</time>
      </trkpt>
      <trkpt lat="38.803888969123363" lon="-9.397047031670809">
        <ele>87.140000000000001</ele>
        <time>2025-05-04T15:23:22Z</time>
      </trkpt>
      <trkpt lat="38.803775981068611" lon="-9.397108973935247">
        <ele>87.140000000000001</ele>
        <time>2025-05-04T15:23:23Z</time>
      </trkpt>
      <trkpt lat="38.803775981068611" lon="-9.397108973935247">
        <ele>87.140000000000001</ele>
        <time>2025-05-04T15:23:24Z</time>
      </trkpt>
      <trkpt lat="38.803667016327381" lon="-9.397119032219052">
        <ele>87.140000000000001</ele>
        <time>2025-05-04T15:23:25Z</time>
      </trkpt>
      <trkpt lat="38.803591998293996" lon="-9.397126995027065">
        <ele>87.620000000000005</ele>
        <time>2025-05-04T15:23:26Z</time>
      </trkpt>
      <trkpt lat="38.803509017452598" lon="-9.397104028612375">
        <ele>87.620000000000005</ele>
        <time>2025-05-04T15:23:27Z</time>
      </trkpt>
      <trkpt lat="38.803418995812535" lon="-9.397059017792344">
        <ele>87.620000000000005</ele>
        <time>2025-05-04T15:23:28Z</time>
      </trkpt>
      <trkpt lat="38.803324028849602" lon="-9.397011995315552">
        <ele>87.620000000000005</ele>
        <time>2025-05-04T15:23:29Z</time>
      </trkpt>
      <trkpt lat="38.80323501303792" lon="-9.396947035565972">
        <ele>87.620000000000005</ele>
        <time>2025-05-04T15:23:30Z</time>
      </trkpt>
      <trkpt lat="38.803163012489676" lon="-9.396853996440768">
        <ele>87.620000000000005</ele>
        <time>2025-05-04T15:23:31Z</time>
      </trkpt>
      <trkpt lat="38.803094029426575" lon="-9.396764980629087">
        <ele>87.620000000000005</ele>
        <time>2025-05-04T15:23:32Z</time>
      </trkpt>
      <trkpt lat="38.802876016125083" lon="-9.396522995084524">
        <ele>87.140000000000001</ele>
        <time>2025-05-04T15:23:35Z</time>
      </trkpt>
      <trkpt lat="38.802796974778175" lon="-9.396456023678184">
        <ele>87.140000000000001</ele>
        <time>2025-05-04T15:23:36Z</time>
      </trkpt>
      <trkpt lat="38.802494974806905" lon="-9.3961719609797">
        <ele>86.659999999999997</ele>
        <time>2025-05-04T15:23:40Z</time>
      </trkpt>
      <trkpt lat="38.802431020885706" lon="-9.39608596265316">
        <ele>87.140000000000001</ele>
        <time>2025-05-04T15:23:41Z</time>
      </trkpt>
      <trkpt lat="38.802370000630617" lon="-9.396002981811762">
        <ele>87.140000000000001</ele>
        <time>2025-05-04T15:23:42Z</time>
      </trkpt>
      <trkpt lat="38.802314009517431" lon="-9.395927963778377">
        <ele>87.140000000000001</ele>
        <time>2025-05-04T15:23:43Z</time>
      </trkpt>
      <trkpt lat="38.802263969555497" lon="-9.395859986543655">
        <ele>87.620000000000005</ele>
        <time>2025-05-04T15:23:44Z</time>
      </trkpt>
      <trkpt lat="38.802215019240975" lon="-9.395794020965695">
        <ele>88.099999999999994</ele>
        <time>2025-05-04T15:23:45Z</time>
      </trkpt>
      <trkpt lat="38.8021619617939" lon="-9.39573802985251">
        <ele>88.579999999999998</ele>
        <time>2025-05-04T15:23:46Z</time>
      </trkpt>
      <trkpt lat="38.802102031186223" lon="-9.39569503068924">
        <ele>89.060000000000002</ele>
        <time>2025-05-04T15:23:47Z</time>
      </trkpt>
      <trkpt lat="38.802037993445992" lon="-9.395650019869208">
        <ele>89.060000000000002</ele>
        <time>2025-05-04T15:23:48Z</time>
      </trkpt>
      <trkpt lat="38.802003040909767" lon="-9.395610960200429">
        <ele>89.540000000000006</ele>
        <time>2025-05-04T15:23:49Z</time>
      </trkpt>
      <trkpt lat="38.801926011219621" lon="-9.39552403986454">
        <ele>90.5</ele>
        <time>2025-05-04T15:23:52Z</time>
      </trkpt>
      <trkpt lat="38.80190203897655" lon="-9.395599979907274">
        <ele>90.980000000000004</ele>
        <time>2025-05-04T15:23:54Z</time>
      </trkpt>
      <trkpt lat="38.801916958764195" lon="-9.395661000162363">
        <ele>91.459999999999994</ele>
        <time>2025-05-04T15:23:55Z</time>
      </trkpt>
      <trkpt lat="38.801930034533143" lon="-9.395713973790407">
        <ele>91.939999999999998</ele>
        <time>2025-05-04T15:23:56Z</time>
      </trkpt>
      <trkpt lat="38.801984013989568" lon="-9.395764013752341">
        <ele>92.900000000000006</ele>
        <time>2025-05-04T15:23:57Z</time>
      </trkpt>
      <trkpt lat="38.802057020366192" lon="-9.395831990987063">
        <ele>93.390000000000001</ele>
        <time>2025-05-04T15:23:58Z</time>
      </trkpt>
      <trkpt lat="38.802145030349493" lon="-9.39591396600008">
        <ele>93.870000000000005</ele>
        <time>2025-05-04T15:23:59Z</time>
      </trkpt>
      <trkpt lat="38.802238991484046" lon="-9.396001975983381">
        <ele>94.349999999999994</ele>
        <time>2025-05-04T15:24:00Z</time>
      </trkpt>
      <trkpt lat="38.802328007295728" lon="-9.396122004836798">
        <ele>94.829999999999998</ele>
        <time>2025-05-04T15:24:01Z</time>
      </trkpt>
      <trkpt lat="38.802412999793887" lon="-9.396248990669847">
        <ele>94.829999999999998</ele>
        <time>2025-05-04T15:24:02Z</time>
      </trkpt>
      <trkpt lat="38.802607962861657" lon="-9.396679988130927">
        <ele>94.829999999999998</ele>
        <time>2025-05-04T15:24:05Z</time>
      </trkpt>
      <trkpt lat="38.802650962024927" lon="-9.396838992834091">
        <ele>94.349999999999994</ele>
        <time>2025-05-04T15:24:06Z</time>
      </trkpt>
      <trkpt lat="38.802808960899711" lon="-9.397341990843415">
        <ele>93.870000000000005</ele>
        <time>2025-05-04T15:24:09Z</time>
      </trkpt>
      <trkpt lat="38.802895965054631" lon="-9.397558998316526">
        <ele>93.870000000000005</ele>
        <time>2025-05-04T15:24:10Z</time>
      </trkpt>
      <trkpt lat="38.80336401052773" lon="-9.398289984092116">
        <ele>91.459999999999994</ele>
        <time>2025-05-04T15:24:16Z</time>
      </trkpt>
      <trkpt lat="38.803411033004522" lon="-9.398417975753546">
        <ele>90.980000000000004</ele>
        <time>2025-05-04T15:24:17Z</time>
      </trkpt>
      <trkpt lat="38.803442968055606" lon="-9.398558037355542">
        <ele>90.5</ele>
        <time>2025-05-04T15:24:18Z</time>
      </trkpt>
      <trkpt lat="38.803475992754102" lon="-9.398702960461378">
        <ele>90.5</ele>
        <time>2025-05-04T15:24:19Z</time>
      </trkpt>
      <trkpt lat="38.803510023280978" lon="-9.39885500818491">
        <ele>90.019999999999996</ele>
        <time>2025-05-04T15:24:20Z</time>
      </trkpt>
      <trkpt lat="38.80353600718081" lon="-9.399165976792574">
        <ele>88.579999999999998</ele>
        <time>2025-05-04T15:24:22Z</time>
      </trkpt>
      <trkpt lat="38.803544975817204" lon="-9.399314001202583">
        <ele>88.099999999999994</ele>
        <time>2025-05-04T15:24:23Z</time>
      </trkpt>
      <trkpt lat="38.803554028272629" lon="-9.399461019784212">
        <ele>87.140000000000001</ele>
        <time>2025-05-04T15:24:24Z</time>
      </trkpt>
      <trkpt lat="38.803562996909022" lon="-9.400110030546784">
        <ele>84.25</ele>
        <time>2025-05-04T15:24:28Z</time>
      </trkpt>
      <trkpt lat="38.803544975817204" lon="-9.400280015543103">
        <ele>83.769999999999996</ele>
        <time>2025-05-04T15:24:29Z</time>
      </trkpt>
      <trkpt lat="38.803502982482314" lon="-9.400438014417887">
        <ele>82.810000000000002</ele>
        <time>2025-05-04T15:24:30Z</time>
      </trkpt>
      <trkpt lat="38.803451014682651" lon="-9.400598024949431">
        <ele>82.329999999999998</ele>
        <time>2025-05-04T15:24:31Z</time>
      </trkpt>
      <trkpt lat="38.803400974720716" lon="-9.400750994682312">
        <ele>81.849999999999994</ele>
        <time>2025-05-04T15:24:32Z</time>
      </trkpt>
      <trkpt lat="38.802980035543442" lon="-9.402032000944018">
        <ele>77.040000000000006</ele>
        <time>2025-05-04T15:24:40Z</time>
      </trkpt>
      <trkpt lat="38.802545014768839" lon="-9.403353994712234">
        <ele>71.760000000000005</ele>
        <time>2025-05-04T15:24:47Z</time>
      </trkpt>
      <trkpt lat="38.802127009257674" lon="-9.40465503372252">
        <ele>65.510000000000005</ele>
        <time>2025-05-04T15:24:55Z</time>
      </trkpt>
      <trkpt lat="38.802059032022953" lon="-9.404898025095463">
        <ele>64.549999999999997</ele>
        <time>2025-05-04T15:24:57Z</time>
      </trkpt>
      <trkpt lat="38.802046962082386" lon="-9.405060969293118">
        <ele>64.069999999999993</ele>
        <time>2025-05-04T15:24:58Z</time>
      </trkpt>
      <trkpt lat="38.802043022587895" lon="-9.405188038945198">
        <ele>63.579999999999998</ele>
        <time>2025-05-04T15:24:59Z</time>
      </trkpt>
      <trkpt lat="38.802092978730798" lon="-9.405297003686428">
        <ele>63.579999999999998</ele>
        <time>2025-05-04T15:25:00Z</time>
      </trkpt>
      <trkpt lat="38.802148969843984" lon="-9.405418038368225">
        <ele>63.100000000000001</ele>
        <time>2025-05-04T15:25:01Z</time>
      </trkpt>
      <trkpt lat="38.80222599953413" lon="-9.405520968139172">
        <ele>63.100000000000001</ele>
        <time>2025-05-04T15:25:02Z</time>
      </trkpt>
      <trkpt lat="38.802295988425612" lon="-9.405614007264376">
        <ele>62.140000000000001</ele>
        <time>2025-05-04T15:25:03Z</time>
      </trkpt>
      <trkpt lat="38.802335970103741" lon="-9.405700005590916">
        <ele>61.659999999999997</ele>
        <time>2025-05-04T15:25:04Z</time>
      </trkpt>
      <trkpt lat="38.802325995638967" lon="-9.405822968110442">
        <ele>61.18</ele>
        <time>2025-05-04T15:25:05Z</time>
      </trkpt>
      <trkpt lat="38.802313003689051" lon="-9.405954983085394">
        <ele>60.700000000000003</ele>
        <time>2025-05-04T15:25:06Z</time>
      </trkpt>
      <trkpt lat="38.80224796012044" lon="-9.406065037474036">
        <ele>60.219999999999999</ele>
        <time>2025-05-04T15:25:07Z</time>
      </trkpt>
      <trkpt lat="38.802176965400577" lon="-9.40618397668004">
        <ele>59.740000000000002</ele>
        <time>2025-05-04T15:25:08Z</time>
      </trkpt>
      <trkpt lat="38.802036987617612" lon="-9.40641900524497">
        <ele>58.299999999999997</ele>
        <time>2025-05-04T15:25:10Z</time>
      </trkpt>
      <trkpt lat="38.801971022039652" lon="-9.406528975814581">
        <ele>57.82</ele>
        <time>2025-05-04T15:25:11Z</time>
      </trkpt>
      <trkpt lat="38.801832972094417" lon="-9.406760986894369">
        <ele>56.859999999999999</ele>
        <time>2025-05-04T15:25:13Z</time>
      </trkpt>
      <trkpt lat="38.801692994311452" lon="-9.40700096078217">
        <ele>55.409999999999997</ele>
        <time>2025-05-04T15:25:15Z</time>
      </trkpt>
      <trkpt lat="38.801149008795619" lon="-9.40818096511066">
        <ele>51.090000000000003</ele>
        <time>2025-05-04T15:25:24Z</time>
      </trkpt>
      <trkpt lat="38.800784982740879" lon="-9.409083025529981">
        <ele>48.200000000000003</ele>
        <time>2025-05-04T15:25:31Z</time>
      </trkpt>
      <trkpt lat="38.800390027463436" lon="-9.410419017076492">
        <ele>45.799999999999997</ele>
        <time>2025-05-04T15:25:40Z</time>
      </trkpt>
      <trkpt lat="38.800352979451418" lon="-9.410548014566302">
        <ele>45.799999999999997</ele>
        <time>2025-05-04T15:25:41Z</time>
      </trkpt>
      <trkpt lat="38.800316015258431" lon="-9.410677012056112">
        <ele>45.799999999999997</ele>
        <time>2025-05-04T15:25:42Z</time>
      </trkpt>
      <trkpt lat="38.800281984731555" lon="-9.410811960697174">
        <ele>45.799999999999997</ele>
        <time>2025-05-04T15:25:43Z</time>
      </trkpt>
      <trkpt lat="38.80024996586144" lon="-9.410950010642409">
        <ele>45.799999999999997</ele>
        <time>2025-05-04T15:25:44Z</time>
      </trkpt>
      <trkpt lat="38.80016203969717" lon="-9.41136097535491">
        <ele>44.840000000000003</ele>
        <time>2025-05-04T15:25:47Z</time>
      </trkpt>
      <trkpt lat="38.80014100112021" lon="-9.411508999764919">
        <ele>44.359999999999999</ele>
        <time>2025-05-04T15:25:48Z</time>
      </trkpt>
      <trkpt lat="38.800128009170294" lon="-9.412795035168529">
        <ele>41.469999999999999</ele>
        <time>2025-05-04T15:25:57Z</time>
      </trkpt>
      <trkpt lat="38.80009800195694" lon="-9.412921015173197">
        <ele>40.990000000000002</ele>
        <time>2025-05-04T15:25:58Z</time>
      </trkpt>
      <trkpt lat="38.800066988915205" lon="-9.413053030148149">
        <ele>40.509999999999998</ele>
        <time>2025-05-04T15:25:59Z</time>
      </trkpt>
      <trkpt lat="38.799799019470811" lon="-9.414018960669637">
        <ele>41.950000000000003</ele>
        <time>2025-05-04T15:26:06Z</time>
      </trkpt>
      <trkpt lat="38.799751996994019" lon="-9.414450963959098">
        <ele>43.399999999999999</ele>
        <time>2025-05-04T15:26:09Z</time>
      </trkpt>
      <trkpt lat="38.799737999215722" lon="-9.414581973105669">
        <ele>44.359999999999999</ele>
        <time>2025-05-04T15:26:10Z</time>
      </trkpt>
      <trkpt lat="38.79966801032424" lon="-9.415372973307967">
        <ele>47.240000000000002</ele>
        <time>2025-05-04T15:26:16Z</time>
      </trkpt>
      <trkpt lat="38.799659041687846" lon="-9.415503982454538">
        <ele>47.240000000000002</ele>
        <time>2025-05-04T15:26:17Z</time>
      </trkpt>
      <trkpt lat="38.799688965082169" lon="-9.415640020743012">
        <ele>47.240000000000002</ele>
        <time>2025-05-04T15:26:18Z</time>
      </trkpt>
      <trkpt lat="38.799729030579329" lon="-9.415758959949017">
        <ele>47.719999999999999</ele>
        <time>2025-05-04T15:26:19Z</time>
      </trkpt>
      <trkpt lat="38.799780998378992" lon="-9.415859961882234">
        <ele>48.200000000000003</ele>
        <time>2025-05-04T15:26:20Z</time>
      </trkpt>
      <trkpt lat="38.7998410128057" lon="-9.415955012664199">
        <ele>48.68</ele>
        <time>2025-05-04T15:26:21Z</time>
      </trkpt>
      <trkpt lat="38.799903960898519" lon="-9.416054002940655">
        <ele>49.159999999999997</ele>
        <time>2025-05-04T15:26:22Z</time>
      </trkpt>
      <trkpt lat="38.79997001029551" lon="-9.416157016530633">
        <ele>49.649999999999999</ele>
        <time>2025-05-04T15:26:23Z</time>
      </trkpt>
      <trkpt lat="38.800095990300179" lon="-9.416389027610421">
        <ele>50.609999999999999</ele>
        <time>2025-05-04T15:26:25Z</time>
      </trkpt>
      <trkpt lat="38.800144018605351" lon="-9.416493969038129">
        <ele>51.57</ele>
        <time>2025-05-04T15:26:26Z</time>
      </trkpt>
      <trkpt lat="38.800134966149926" lon="-9.416652973741293">
        <ele>51.57</ele>
        <time>2025-05-04T15:26:27Z</time>
      </trkpt>
      <trkpt lat="38.800128009170294" lon="-9.416721034795046">
        <ele>52.049999999999997</ele>
        <time>2025-05-04T15:26:28Z</time>
      </trkpt>
      <trkpt lat="38.800067994743586" lon="-9.416878027841449">
        <ele>52.049999999999997</ele>
        <time>2025-05-04T15:26:29Z</time>
      </trkpt>
      <trkpt lat="38.800026001408696" lon="-9.416984980925918">
        <ele>52.530000000000001</ele>
        <time>2025-05-04T15:26:30Z</time>
      </trkpt>
      <trkpt lat="38.79994997754693" lon="-9.417057987302542">
        <ele>52.530000000000001</ele>
        <time>2025-05-04T15:26:31Z</time>
      </trkpt>
      <trkpt lat="38.799857022240758" lon="-9.417125964537263">
        <ele>52.530000000000001</ele>
        <time>2025-05-04T15:26:32Z</time>
      </trkpt>
      <trkpt lat="38.799753002822399" lon="-9.41718396730721">
        <ele>53.009999999999998</ele>
        <time>2025-05-04T15:26:33Z</time>
      </trkpt>
      <trkpt lat="38.79964797757566" lon="-9.417240964248776">
        <ele>53.009999999999998</ele>
        <time>2025-05-04T15:26:34Z</time>
      </trkpt>
      <trkpt lat="38.799462988972664" lon="-9.417342972010374">
        <ele>52.530000000000001</ele>
        <time>2025-05-04T15:26:36Z</time>
      </trkpt>
      <trkpt lat="38.799380008131266" lon="-9.417454032227397">
        <ele>52.530000000000001</ele>
        <time>2025-05-04T15:26:37Z</time>
      </trkpt>
      <trkpt lat="38.79930499009788" lon="-9.417554028332233">
        <ele>52.530000000000001</ele>
        <time>2025-05-04T15:26:38Z</time>
      </trkpt>
      <trkpt lat="38.799252016469836" lon="-9.41765402443707">
        <ele>52.049999999999997</ele>
        <time>2025-05-04T15:26:39Z</time>
      </trkpt>
      <trkpt lat="38.799210023134947" lon="-9.417780004441738">
        <ele>52.049999999999997</ele>
        <time>2025-05-04T15:26:40Z</time>
      </trkpt>
      <trkpt lat="38.799167023971677" lon="-9.417909001931548">
        <ele>52.049999999999997</ele>
        <time>2025-05-04T15:26:41Z</time>
      </trkpt>
      <trkpt lat="38.799141962081194" lon="-9.41804202273488">
        <ele>51.57</ele>
        <time>2025-05-04T15:26:42Z</time>
      </trkpt>
      <trkpt lat="38.799118995666504" lon="-9.418187029659748">
        <ele>51.57</ele>
        <time>2025-05-04T15:26:43Z</time>
      </trkpt>
      <trkpt lat="38.799124024808407" lon="-9.418347040191293">
        <ele>52.049999999999997</ele>
        <time>2025-05-04T15:26:44Z</time>
      </trkpt>
      <trkpt lat="38.7991329934448" lon="-9.418500009924173">
        <ele>53.009999999999998</ele>
        <time>2025-05-04T15:26:45Z</time>
      </trkpt>
      <trkpt lat="38.799144979566336" lon="-9.418653985485435">
        <ele>53.490000000000002</ele>
        <time>2025-05-04T15:26:46Z</time>
      </trkpt>
      <trkpt lat="38.799431975930929" lon="-9.420418040826917">
        <ele>58.780000000000001</ele>
        <time>2025-05-04T15:26:58Z</time>
      </trkpt>
      <trkpt lat="38.799615958705544" lon="-9.420975018292666">
        <ele>59.740000000000002</ele>
        <time>2025-05-04T15:27:02Z</time>
      </trkpt>
      <trkpt lat="38.79969097673893" lon="-9.421108961105347">
        <ele>59.740000000000002</ele>
        <time>2025-05-04T15:27:03Z</time>
      </trkpt>
      <trkpt lat="38.800669983029366" lon="-9.422894977033138">
        <ele>61.18</ele>
        <time>2025-05-04T15:27:15Z</time>
      </trkpt>
      <trkpt lat="38.801512029021978" lon="-9.424240021035075">
        <ele>57.82</ele>
        <time>2025-05-04T15:27:23Z</time>
      </trkpt>
      <trkpt lat="38.80263302475214" lon="-9.425807017832995">
        <ele>50.609999999999999</ele>
        <time>2025-05-04T15:27:32Z</time>
      </trkpt>
      <trkpt lat="38.803596021607518" lon="-9.427159018814564">
        <ele>45.799999999999997</ele>
        <time>2025-05-04T15:27:41Z</time>
      </trkpt>
      <trkpt lat="38.803964992985129" lon="-9.427680959925056">
        <ele>43.880000000000003</ele>
        <time>2025-05-04T15:27:45Z</time>
      </trkpt>
      <trkpt lat="38.804035987704992" lon="-9.427830995991826">
        <ele>43.880000000000003</ele>
        <time>2025-05-04T15:27:46Z</time>
      </trkpt>
      <trkpt lat="38.804519036784768" lon="-9.429092975333333">
        <ele>44.840000000000003</ele>
        <time>2025-05-04T15:27:54Z</time>
      </trkpt>
      <trkpt lat="38.804597994312644" lon="-9.42940796725452">
        <ele>45.32</ele>
        <time>2025-05-04T15:27:56Z</time>
      </trkpt>
      <trkpt lat="38.804602017626166" lon="-9.429570995271206">
        <ele>44.840000000000003</ele>
        <time>2025-05-04T15:27:57Z</time>
      </trkpt>
      <trkpt lat="38.804586008191109" lon="-9.429737040773034">
        <ele>44.359999999999999</ele>
        <time>2025-05-04T15:27:58Z</time>
      </trkpt>
      <trkpt lat="38.80456899292767" lon="-9.429905014112592">
        <ele>43.880000000000003</ele>
        <time>2025-05-04T15:27:59Z</time>
      </trkpt>
      <trkpt lat="38.804551977664232" lon="-9.430070975795388">
        <ele>43.399999999999999</ele>
        <time>2025-05-04T15:28:00Z</time>
      </trkpt>
      <trkpt lat="38.804519036784768" lon="-9.430226041004062">
        <ele>42.439999999999998</ele>
        <time>2025-05-04T15:28:01Z</time>
      </trkpt>
      <trkpt lat="38.804442007094622" lon="-9.430537009611726">
        <ele>40.990000000000002</ele>
        <time>2025-05-04T15:28:03Z</time>
      </trkpt>
      <trkpt lat="38.80439699627459" lon="-9.430677993223071">
        <ele>40.030000000000001</ele>
        <time>2025-05-04T15:28:04Z</time>
      </trkpt>
      <trkpt lat="38.804336981847882" lon="-9.430818976834416">
        <ele>39.549999999999997</ele>
        <time>2025-05-04T15:28:05Z</time>
      </trkpt>
      <trkpt lat="38.80385996773839" lon="-9.431859003379941">
        <ele>37.149999999999999</ele>
        <time>2025-05-04T15:28:12Z</time>
      </trkpt>
      <trkpt lat="38.803790984675288" lon="-9.432004010304809">
        <ele>36.670000000000002</ele>
        <time>2025-05-04T15:28:13Z</time>
      </trkpt>
      <trkpt lat="38.803473981097341" lon="-9.432669030502439">
        <ele>31.859999999999999</ele>
        <time>2025-05-04T15:28:18Z</time>
      </trkpt>
      <trkpt lat="38.803435005247593" lon="-9.432810014113784">
        <ele>30.899999999999999</ele>
        <time>2025-05-04T15:28:19Z</time>
      </trkpt>
      <trkpt lat="38.803354036062956" lon="-9.433092987164855">
        <ele>28.98</ele>
        <time>2025-05-04T15:28:21Z</time>
      </trkpt>
      <trkpt lat="38.803303996101022" lon="-9.433243023231626">
        <ele>28.02</ele>
        <time>2025-05-04T15:28:22Z</time>
      </trkpt>
      <trkpt lat="38.803217997774482" lon="-9.433415019884706">
        <ele>27.050000000000001</ele>
        <time>2025-05-04T15:28:23Z</time>
      </trkpt>
      <trkpt lat="38.803156977519393" lon="-9.433472016826272">
        <ele>26.09</ele>
        <time>2025-05-04T15:28:24Z</time>
      </trkpt>
      <trkpt lat="38.803056981414557" lon="-9.433565977960825">
        <ele>25.129999999999999</ele>
        <time>2025-05-04T15:28:25Z</time>
      </trkpt>
      <trkpt lat="38.802951034158468" lon="-9.433664968237281">
        <ele>24.649999999999999</ele>
        <time>2025-05-04T15:28:26Z</time>
      </trkpt>
      <trkpt lat="38.802851960062981" lon="-9.433766975998879">
        <ele>23.690000000000001</ele>
        <time>2025-05-04T15:28:27Z</time>
      </trkpt>
      <trkpt lat="38.80276202224195" lon="-9.433889016509056">
        <ele>22.73</ele>
        <time>2025-05-04T15:28:28Z</time>
      </trkpt>
      <trkpt lat="38.80259002558887" lon="-9.434122033417225">
        <ele>21.289999999999999</ele>
        <time>2025-05-04T15:28:30Z</time>
      </trkpt>
      <trkpt lat="38.802495980635285" lon="-9.43424298427999">
        <ele>20.32</ele>
        <time>2025-05-04T15:28:31Z</time>
      </trkpt>
      <trkpt lat="38.801799025386572" lon="-9.434850001707673">
        <ele>15.52</ele>
        <time>2025-05-04T15:28:38Z</time>
      </trkpt>
      <trkpt lat="38.801286974921823" lon="-9.435581993311644">
        <ele>11.67</ele>
        <time>2025-05-04T15:28:44Z</time>
      </trkpt>
      <trkpt lat="38.801264008507133" lon="-9.435676038265228">
        <ele>11.19</ele>
        <time>2025-05-04T15:28:45Z</time>
      </trkpt>
      <trkpt lat="38.801189996302128" lon="-9.435983989387751">
        <ele>10.23</ele>
        <time>2025-05-04T15:28:47Z</time>
      </trkpt>
      <trkpt lat="38.801152026280761" lon="-9.436139976605773">
        <ele>9.75</ele>
        <time>2025-05-04T15:28:48Z</time>
      </trkpt>
      <trkpt lat="38.801097040995955" lon="-9.436294035986066">
        <ele>9.27</ele>
        <time>2025-05-04T15:28:49Z</time>
      </trkpt>
      <trkpt lat="38.80102101713419" lon="-9.436439964920282">
        <ele>8.789999999999999</ele>
        <time>2025-05-04T15:28:50Z</time>
      </trkpt>
      <trkpt lat="38.800924960523844" lon="-9.436579020693898">
        <ele>7.83</ele>
        <time>2025-05-04T15:28:51Z</time>
      </trkpt>
      <trkpt lat="38.800857989117503" lon="-9.436677005141974">
        <ele>7.35</ele>
        <time>2025-05-04T15:28:52Z</time>
      </trkpt>
      <trkpt lat="38.800679035484791" lon="-9.436841038987041">
        <ele>6.87</ele>
        <time>2025-05-04T15:28:53Z</time>
      </trkpt>
      <trkpt lat="38.800553977489471" lon="-9.436970036476851">
        <ele>6.39</ele>
        <time>2025-05-04T15:28:54Z</time>
      </trkpt>
      <trkpt lat="38.80046303384006" lon="-9.437106996774674">
        <ele>5.42</ele>
        <time>2025-05-04T15:28:55Z</time>
      </trkpt>
      <trkpt lat="38.800218030810356" lon="-9.437459958717227">
        <ele>3.98</ele>
        <time>2025-05-04T15:28:58Z</time>
      </trkpt>
      <trkpt lat="38.800111999735236" lon="-9.437531037256122">
        <ele>3.5</ele>
        <time>2025-05-04T15:28:59Z</time>
      </trkpt>
      <trkpt lat="38.799787033349276" lon="-9.437747960910201">
        <ele>1.1</ele>
        <time>2025-05-04T15:29:02Z</time>
      </trkpt>
      <trkpt lat="38.799704974517226" lon="-9.437822978943586">
        <ele>0.62</ele>
        <time>2025-05-04T15:29:03Z</time>
      </trkpt>
      <trkpt lat="38.799659963697195" lon="-9.437913000583649">
        <ele>-0.82</ele>
        <time>2025-05-04T15:29:04Z</time>
      </trkpt>
      <trkpt lat="38.799618976190686" lon="-9.438059013336897">
        <ele>-1.79</ele>
        <time>2025-05-04T15:29:05Z</time>
      </trkpt>
      <trkpt lat="38.799630962312222" lon="-9.438170995563269">
        <ele>-2.27</ele>
        <time>2025-05-04T15:29:06Z</time>
      </trkpt>
      <trkpt lat="38.799693994224072" lon="-9.438314996659756">
        <ele>-2.75</ele>
        <time>2025-05-04T15:29:07Z</time>
      </trkpt>
      <trkpt lat="38.799763983115554" lon="-9.438450029119849">
        <ele>-3.23</ele>
        <time>2025-05-04T15:29:08Z</time>
      </trkpt>
      <trkpt lat="38.79984000697732" lon="-9.438597969710827">
        <ele>-3.23</ele>
        <time>2025-05-04T15:29:09Z</time>
      </trkpt>
      <trkpt lat="38.799917036667466" lon="-9.438746999949217">
        <ele>-2.75</ele>
        <time>2025-05-04T15:29:10Z</time>
      </trkpt>
      <trkpt lat="38.799979984760284" lon="-9.438909022137523">
        <ele>-3.23</ele>
        <time>2025-05-04T15:29:11Z</time>
      </trkpt>
      <trkpt lat="38.800019966438413" lon="-9.439081018790603">
        <ele>-3.23</ele>
        <time>2025-05-04T15:29:12Z</time>
      </trkpt>
      <trkpt lat="38.8000120036304" lon="-9.43924899213016">
        <ele>-3.71</ele>
        <time>2025-05-04T15:29:13Z</time>
      </trkpt>
      <trkpt lat="38.800004040822387" lon="-9.439430963248015">
        <ele>-4.19</ele>
        <time>2025-05-04T15:29:14Z</time>
      </trkpt>
      <trkpt lat="38.799823997542262" lon="-9.44053603336215">
        <ele>-6.59</ele>
        <time>2025-05-04T15:29:20Z</time>
      </trkpt>
      <trkpt lat="38.79979801364243" lon="-9.440715992823243">
        <ele>-6.59</ele>
        <time>2025-05-04T15:29:21Z</time>
      </trkpt>
      <trkpt lat="38.799783010035753" lon="-9.440886983647943">
        <ele>-7.07</ele>
        <time>2025-05-04T15:29:22Z</time>
      </trkpt>
      <trkpt lat="38.799769012257457" lon="-9.441049005836248">
        <ele>-7.07</ele>
        <time>2025-05-04T15:29:23Z</time>
      </trkpt>
      <trkpt lat="38.799775969237089" lon="-9.441221002489328">
        <ele>-6.59</ele>
        <time>2025-05-04T15:29:24Z</time>
      </trkpt>
      <trkpt lat="38.79982098005712" lon="-9.441383024677634">
        <ele>-6.59</ele>
        <time>2025-05-04T15:29:25Z</time>
      </trkpt>
      <trkpt lat="38.799891974776983" lon="-9.441569019109011">
        <ele>-6.11</ele>
        <time>2025-05-04T15:29:26Z</time>
      </trkpt>
      <trkpt lat="38.799971016123891" lon="-9.441651999950409">
        <ele>-6.11</ele>
        <time>2025-05-04T15:29:27Z</time>
      </trkpt>
      <trkpt lat="38.800072018057108" lon="-9.441758031025529">
        <ele>-6.11</ele>
        <time>2025-05-04T15:29:28Z</time>
      </trkpt>
      <trkpt lat="38.800180982798338" lon="-9.441873030737042">
        <ele>-6.11</ele>
        <time>2025-05-04T15:29:29Z</time>
      </trkpt>
      <trkpt lat="38.800408970564604" lon="-9.442087020725012">
        <ele>-5.63</ele>
        <time>2025-05-04T15:29:31Z</time>
      </trkpt>
      <trkpt lat="38.800733014941216" lon="-9.442333029583097">
        <ele>-3.71</ele>
        <time>2025-05-04T15:29:34Z</time>
      </trkpt>
      <trkpt lat="38.80080602131784" lon="-9.442432019859552">
        <ele>-3.23</ele>
        <time>2025-05-04T15:29:35Z</time>
      </trkpt>
      <trkpt lat="38.800862012431026" lon="-9.442544002085924">
        <ele>-2.75</ele>
        <time>2025-05-04T15:29:36Z</time>
      </trkpt>
      <trkpt lat="38.800882967188954" lon="-9.442678028717637">
        <ele>-1.79</ele>
        <time>2025-05-04T15:29:37Z</time>
      </trkpt>
      <trkpt lat="38.80084902048111" lon="-9.442794034257531">
        <ele>-1.3</ele>
        <time>2025-05-04T15:29:38Z</time>
      </trkpt>
      <trkpt lat="38.800811972469091" lon="-9.44292102009058">
        <ele>-0.82</ele>
        <time>2025-05-04T15:29:39Z</time>
      </trkpt>
      <trkpt lat="38.80076402798295" lon="-9.443053035065532">
        <ele>-0.82</ele>
        <time>2025-05-04T15:29:40Z</time>
      </trkpt>
      <trkpt lat="38.800546014681458" lon="-9.443515967577696">
        <ele>0.62</ele>
        <time>2025-05-04T15:29:44Z</time>
      </trkpt>
      <trkpt lat="38.800458004698157" lon="-9.443604983389378">
        <ele>0.62</ele>
        <time>2025-05-04T15:29:45Z</time>
      </trkpt>
      <trkpt lat="38.800363959744573" lon="-9.44367203861475">
        <ele>1.1</ele>
        <time>2025-05-04T15:29:46Z</time>
      </trkpt>
      <trkpt lat="38.800268992781639" lon="-9.443741021677852">
        <ele>1.1</ele>
        <time>2025-05-04T15:29:47Z</time>
      </trkpt>
      <trkpt lat="38.800170002505183" lon="-9.443812016397715">
        <ele>1.58</ele>
        <time>2025-05-04T15:29:48Z</time>
      </trkpt>
      <trkpt lat="38.800081992521882" lon="-9.443874964490533">
        <ele>2.06</ele>
        <time>2025-05-04T15:29:49Z</time>
      </trkpt>
      <trkpt lat="38.799977973103523" lon="-9.443950988352299">
        <ele>2.54</ele>
        <time>2025-05-04T15:29:50Z</time>
      </trkpt>
      <trkpt lat="38.799917958676815" lon="-9.444031035527587">
        <ele>3.02</ele>
        <time>2025-05-04T15:29:51Z</time>
      </trkpt>
      <trkpt lat="38.799765994772315" lon="-9.444233039394021">
        <ele>3.5</ele>
        <time>2025-05-04T15:29:53Z</time>
      </trkpt>
      <trkpt lat="38.799696005880833" lon="-9.444327000528574">
        <ele>3.98</ele>
        <time>2025-05-04T15:29:54Z</time>
      </trkpt>
      <trkpt lat="38.799645965918899" lon="-9.444420039653778">
        <ele>3.98</ele>
        <time>2025-05-04T15:29:55Z</time>
      </trkpt>
      <trkpt lat="38.799622999504209" lon="-9.444510983303189">
        <ele>3.98</ele>
        <time>2025-05-04T15:29:56Z</time>
      </trkpt>
      <trkpt lat="38.79960598424077" lon="-9.444578038528562">
        <ele>4.46</ele>
        <time>2025-05-04T15:29:57Z</time>
      </trkpt>
      <trkpt lat="38.799591986462474" lon="-9.444636963307858">
        <ele>4.94</ele>
        <time>2025-05-04T15:29:58Z</time>
      </trkpt>
      <trkpt lat="38.799613025039434" lon="-9.444698989391327">
        <ele>4.94</ele>
        <time>2025-05-04T15:29:59Z</time>
      </trkpt>
      <trkpt lat="38.799702962860465" lon="-9.44496201351285">
        <ele>6.39</ele>
        <time>2025-05-04T15:30:02Z</time>
      </trkpt>
      <trkpt lat="38.800101019442081" lon="-9.44616599008441">
        <ele>16.48</ele>
        <time>2025-05-04T15:30:12Z</time>
      </trkpt>
      <trkpt lat="38.800343004986644" lon="-9.446774013340473">
        <ele>19.84</ele>
        <time>2025-05-04T15:30:17Z</time>
      </trkpt>
      <trkpt lat="38.800401007756591" lon="-9.44687501527369">
        <ele>20.32</ele>
        <time>2025-05-04T15:30:18Z</time>
      </trkpt>
      <trkpt lat="38.800846002995968" lon="-9.447450013831258">
        <ele>20.809999999999999</ele>
        <time>2025-05-04T15:30:24Z</time>
      </trkpt>
      <trkpt lat="38.800925966352224" lon="-9.447534000501037">
        <ele>20.809999999999999</ele>
        <time>2025-05-04T15:30:25Z</time>
      </trkpt>
      <trkpt lat="38.801008025184274" lon="-9.447619998827577">
        <ele>20.809999999999999</ele>
        <time>2025-05-04T15:30:26Z</time>
      </trkpt>
      <trkpt lat="38.801100980490446" lon="-9.447675989940763">
        <ele>20.809999999999999</ele>
        <time>2025-05-04T15:30:27Z</time>
      </trkpt>
      <trkpt lat="38.801195025444031" lon="-9.447732986882329">
        <ele>20.32</ele>
        <time>2025-05-04T15:30:28Z</time>
      </trkpt>
      <trkpt lat="38.801662987098098" lon="-9.448016965761781">
        <ele>18.879999999999999</ele>
        <time>2025-05-04T15:30:33Z</time>
      </trkpt>
      <trkpt lat="38.801750997081399" lon="-9.448042027652264">
        <ele>19.359999999999999</ele>
        <time>2025-05-04T15:30:34Z</time>
      </trkpt>
      <trkpt lat="38.801840012893081" lon="-9.448023000732064">
        <ele>19.84</ele>
        <time>2025-05-04T15:30:35Z</time>
      </trkpt>
      <trkpt lat="38.801934979856014" lon="-9.448001962155104">
        <ele>19.84</ele>
        <time>2025-05-04T15:30:36Z</time>
      </trkpt>
      <trkpt lat="38.802038999274373" lon="-9.447987964376807">
        <ele>20.32</ele>
        <time>2025-05-04T15:30:37Z</time>
      </trkpt>
      <trkpt lat="38.802150981500745" lon="-9.448001962155104">
        <ele>20.32</ele>
        <time>2025-05-04T15:30:38Z</time>
      </trkpt>
      <trkpt lat="38.80224603228271" lon="-9.448063988238573">
        <ele>20.32</ele>
        <time>2025-05-04T15:30:39Z</time>
      </trkpt>
      <trkpt lat="38.80233203060925" lon="-9.448149986565113">
        <ele>20.32</ele>
        <time>2025-05-04T15:30:40Z</time>
      </trkpt>
      <trkpt lat="38.802419034764171" lon="-9.448237996548414">
        <ele>20.32</ele>
        <time>2025-05-04T15:30:41Z</time>
      </trkpt>
      <trkpt lat="38.80250402726233" lon="-9.448337992653251">
        <ele>20.809999999999999</ele>
        <time>2025-05-04T15:30:42Z</time>
      </trkpt>
      <trkpt lat="38.802982969209552" lon="-9.449076019227505">
        <ele>22.73</ele>
        <time>2025-05-04T15:30:50Z</time>
      </trkpt>
      <trkpt lat="38.803024962544441" lon="-9.449169980362058">
        <ele>22.73</ele>
        <time>2025-05-04T15:30:51Z</time>
      </trkpt>
      <trkpt lat="38.803097968921065" lon="-9.449353041127324">
        <ele>22.25</ele>
        <time>2025-05-04T15:30:53Z</time>
      </trkpt>
      <trkpt lat="38.803120013326406" lon="-9.449442978948355">
        <ele>21.77</ele>
        <time>2025-05-04T15:30:54Z</time>
      </trkpt>
      <trkpt lat="38.803168963640928" lon="-9.449651017785072">
        <ele>20.809999999999999</ele>
        <time>2025-05-04T15:30:56Z</time>
      </trkpt>
      <trkpt lat="38.803196037188172" lon="-9.449765011668205">
        <ele>20.32</ele>
        <time>2025-05-04T15:30:57Z</time>
      </trkpt>
      <trkpt lat="38.803213974460959" lon="-9.449881017208099">
        <ele>19.84</ele>
        <time>2025-05-04T15:30:58Z</time>
      </trkpt>
      <trkpt lat="38.803233001381159" lon="-9.450004985556006">
        <ele>19.84</ele>
        <time>2025-05-04T15:30:59Z</time>
      </trkpt>
      <trkpt lat="38.803251022472978" lon="-9.450129959732294">
        <ele>19.359999999999999</ele>
        <time>2025-05-04T15:31:00Z</time>
      </trkpt>
      <trkpt lat="38.803269965574145" lon="-9.450253006070852">
        <ele>19.359999999999999</ele>
        <time>2025-05-04T15:31:01Z</time>
      </trkpt>
      <trkpt lat="38.803288992494345" lon="-9.450376974418759">
        <ele>19.359999999999999</ele>
        <time>2025-05-04T15:31:02Z</time>
      </trkpt>
      <trkpt lat="38.803325034677982" lon="-9.450617032125592">
        <ele>18.879999999999999</ele>
        <time>2025-05-04T15:31:04Z</time>
      </trkpt>
      <trkpt lat="38.803368033841252" lon="-9.451040988788009">
        <ele>18.879999999999999</ele>
        <time>2025-05-04T15:31:07Z</time>
      </trkpt>
      <trkpt lat="38.803368033841252" lon="-9.451912036165595">
        <ele>22.73</ele>
        <time>2025-05-04T15:31:13Z</time>
      </trkpt>
      <trkpt lat="38.803332997485995" lon="-9.452040027827025">
        <ele>23.210000000000001</ele>
        <time>2025-05-04T15:31:14Z</time>
      </trkpt>
      <trkpt lat="38.803298966959119" lon="-9.452155027538538">
        <ele>23.210000000000001</ele>
        <time>2025-05-04T15:31:15Z</time>
      </trkpt>
      <trkpt lat="38.803241970017552" lon="-9.452244965359569">
        <ele>23.690000000000001</ele>
        <time>2025-05-04T15:31:16Z</time>
      </trkpt>
      <trkpt lat="38.803182961419225" lon="-9.452336998656392">
        <ele>24.170000000000002</ele>
        <time>2025-05-04T15:31:17Z</time>
      </trkpt>
      <trkpt lat="38.803114984184504" lon="-9.452445963397622">
        <ele>24.649999999999999</ele>
        <time>2025-05-04T15:31:18Z</time>
      </trkpt>
      <trkpt lat="38.803046001121402" lon="-9.452559035271406">
        <ele>25.609999999999999</ele>
        <time>2025-05-04T15:31:19Z</time>
      </trkpt>
      <trkpt lat="38.802981963381171" lon="-9.452662970870733">
        <ele>26.57</ele>
        <time>2025-05-04T15:31:20Z</time>
      </trkpt>
      <trkpt lat="38.802929995581508" lon="-9.452780988067389">
        <ele>27.050000000000001</ele>
        <time>2025-05-04T15:31:21Z</time>
      </trkpt>
      <trkpt lat="38.802880039438605" lon="-9.452897999435663">
        <ele>27.530000000000001</ele>
        <time>2025-05-04T15:31:22Z</time>
      </trkpt>
      <trkpt lat="38.802829999476671" lon="-9.453011993318796">
        <ele>28.5</ele>
        <time>2025-05-04T15:31:23Z</time>
      </trkpt>
      <trkpt lat="38.802779959514737" lon="-9.453129004687071">
        <ele>28.98</ele>
        <time>2025-05-04T15:31:24Z</time>
      </trkpt>
      <trkpt lat="38.802595976740122" lon="-9.453447014093399">
        <ele>30.420000000000002</ele>
        <time>2025-05-04T15:31:27Z</time>
      </trkpt>
      <trkpt lat="38.80252699367702" lon="-9.453538041561842">
        <ele>31.379999999999999</ele>
        <time>2025-05-04T15:31:28Z</time>
      </trkpt>
      <trkpt lat="38.802453987300396" lon="-9.453634014353156">
        <ele>31.859999999999999</ele>
        <time>2025-05-04T15:31:29Z</time>
      </trkpt>
      <trkpt lat="38.802377041429281" lon="-9.453736022114754">
        <ele>32.340000000000003</ele>
        <time>2025-05-04T15:31:30Z</time>
      </trkpt>
      <trkpt lat="38.802301017567515" lon="-9.45383601821959">
        <ele>33.299999999999997</ele>
        <time>2025-05-04T15:31:31Z</time>
      </trkpt>
      <trkpt lat="38.80222499370575" lon="-9.453932996839285">
        <ele>34.259999999999998</ele>
        <time>2025-05-04T15:31:32Z</time>
      </trkpt>
      <trkpt lat="38.802134972065687" lon="-9.454012960195541">
        <ele>35.229999999999997</ele>
        <time>2025-05-04T15:31:33Z</time>
      </trkpt>
      <trkpt lat="38.802043022587895" lon="-9.45409401319921">
        <ele>36.189999999999998</ele>
        <time>2025-05-04T15:31:34Z</time>
      </trkpt>
      <trkpt lat="38.801949983462691" lon="-9.454176994040608">
        <ele>37.149999999999999</ele>
        <time>2025-05-04T15:31:35Z</time>
      </trkpt>
      <trkpt lat="38.801865996792912" lon="-9.454250000417233">
        <ele>38.109999999999999</ele>
        <time>2025-05-04T15:31:36Z</time>
      </trkpt>
      <trkpt lat="38.80179600790143" lon="-9.454376986250281">
        <ele>39.07</ele>
        <time>2025-05-04T15:31:37Z</time>
      </trkpt>
      <trkpt lat="38.801758959889412" lon="-9.454490980133414">
        <ele>40.030000000000001</ele>
        <time>2025-05-04T15:31:38Z</time>
      </trkpt>
      <trkpt lat="38.801758959889412" lon="-9.45462903007865">
        <ele>40.990000000000002</ele>
        <time>2025-05-04T15:31:39Z</time>
      </trkpt>
      <trkpt lat="38.801758959889412" lon="-9.454787028953433">
        <ele>41.469999999999999</ele>
        <time>2025-05-04T15:31:40Z</time>
      </trkpt>
      <trkpt lat="38.80181897431612" lon="-9.454898005351424">
        <ele>41.950000000000003</ele>
        <time>2025-05-04T15:31:41Z</time>
      </trkpt>
      <trkpt lat="38.80188200622797" lon="-9.45501602254808">
        <ele>42.920000000000002</ele>
        <time>2025-05-04T15:31:42Z</time>
      </trkpt>
      <trkpt lat="38.801960041746497" lon="-9.455128004774451">
        <ele>43.399999999999999</ele>
        <time>2025-05-04T15:31:43Z</time>
      </trkpt>
      <trkpt lat="38.802047967910767" lon="-9.455235041677952">
        <ele>44.359999999999999</ele>
        <time>2025-05-04T15:31:44Z</time>
      </trkpt>
      <trkpt lat="38.802231028676033" lon="-9.455460011959076">
        <ele>45.32</ele>
        <time>2025-05-04T15:31:46Z</time>
      </trkpt>
      <trkpt lat="38.802318032830954" lon="-9.455583980306983">
        <ele>45.799999999999997</ele>
        <time>2025-05-04T15:31:47Z</time>
      </trkpt>
      <trkpt lat="38.802518025040627" lon="-9.455983964726329">
        <ele>45.799999999999997</ele>
        <time>2025-05-04T15:31:50Z</time>
      </trkpt>
      <trkpt lat="38.802539985626936" lon="-9.456134000793099">
        <ele>46.280000000000001</ele>
        <time>2025-05-04T15:31:51Z</time>
      </trkpt>
      <trkpt lat="38.802552977576852" lon="-9.456310020759702">
        <ele>46.280000000000001</ele>
        <time>2025-05-04T15:31:52Z</time>
      </trkpt>
      <trkpt lat="38.802552977576852" lon="-9.456468019634485">
        <ele>46.759999999999998</ele>
        <time>2025-05-04T15:31:53Z</time>
      </trkpt>
      <trkpt lat="38.8025470264256" lon="-9.456647979095578">
        <ele>46.759999999999998</ele>
        <time>2025-05-04T15:31:54Z</time>
      </trkpt>
      <trkpt lat="38.802535962313414" lon="-9.457013010978699">
        <ele>47.240000000000002</ele>
        <time>2025-05-04T15:31:56Z</time>
      </trkpt>
      <trkpt lat="38.802545014768839" lon="-9.457194982096553">
        <ele>47.719999999999999</ele>
        <time>2025-05-04T15:31:57Z</time>
      </trkpt>
      <trkpt lat="38.802617015317082" lon="-9.457330014556646">
        <ele>47.719999999999999</ele>
        <time>2025-05-04T15:31:58Z</time>
      </trkpt>
      <trkpt lat="38.802692033350468" lon="-9.457469992339611">
        <ele>48.68</ele>
        <time>2025-05-04T15:31:59Z</time>
      </trkpt>
      <trkpt lat="38.802766967564821" lon="-9.457619022578001">
        <ele>49.649999999999999</ele>
        <time>2025-05-04T15:32:00Z</time>
      </trkpt>
      <trkpt lat="38.802834022790194" lon="-9.45776897482574">
        <ele>50.130000000000003</ele>
        <time>2025-05-04T15:32:01Z</time>
      </trkpt>
      <trkpt lat="38.802850032225251" lon="-9.457934014499188">
        <ele>51.090000000000003</ele>
        <time>2025-05-04T15:32:02Z</time>
      </trkpt>
      <trkpt lat="38.802841985598207" lon="-9.458093019202352">
        <ele>51.57</ele>
        <time>2025-05-04T15:32:03Z</time>
      </trkpt>
      <trkpt lat="38.802821030840278" lon="-9.458250012248755">
        <ele>52.049999999999997</ele>
        <time>2025-05-04T15:32:04Z</time>
      </trkpt>
      <trkpt lat="38.802771996706724" lon="-9.458394013345242">
        <ele>52.049999999999997</ele>
        <time>2025-05-04T15:32:05Z</time>
      </trkpt>
      <trkpt lat="38.802723968401551" lon="-9.458530973643065">
        <ele>52.530000000000001</ele>
        <time>2025-05-04T15:32:06Z</time>
      </trkpt>
      <trkpt lat="38.80263595841825" lon="-9.458815036341548">
        <ele>53.009999999999998</ele>
        <time>2025-05-04T15:32:08Z</time>
      </trkpt>
      <trkpt lat="38.802622966468334" lon="-9.458979992195964">
        <ele>53.490000000000002</ele>
        <time>2025-05-04T15:32:09Z</time>
      </trkpt>
      <trkpt lat="38.802624978125095" lon="-9.459152994677424">
        <ele>53.969999999999999</ele>
        <time>2025-05-04T15:32:10Z</time>
      </trkpt>
      <trkpt lat="38.802672000601888" lon="-9.45970200933516">
        <ele>56.859999999999999</ele>
        <time>2025-05-04T15:32:13Z</time>
      </trkpt>
      <trkpt lat="38.802723968401551" lon="-9.459875011816621">
        <ele>57.82</ele>
        <time>2025-05-04T15:32:14Z</time>
      </trkpt>
      <trkpt lat="38.802814995869994" lon="-9.460019012913108">
        <ele>58.780000000000001</ele>
        <time>2025-05-04T15:32:15Z</time>
      </trkpt>
      <trkpt lat="38.802981963381171" lon="-9.460353031754494">
        <ele>61.659999999999997</ele>
        <time>2025-05-04T15:32:17Z</time>
      </trkpt>
      <trkpt lat="38.803039966151118" lon="-9.460537014529109">
        <ele>62.619999999999997</ele>
        <time>2025-05-04T15:32:18Z</time>
      </trkpt>
      <trkpt lat="38.803067961707711" lon="-9.46073298342526">
        <ele>63.579999999999998</ele>
        <time>2025-05-04T15:32:19Z</time>
      </trkpt>
      <trkpt lat="38.803067961707711" lon="-9.460921995341778">
        <ele>64.549999999999997</ele>
        <time>2025-05-04T15:32:20Z</time>
      </trkpt>
      <trkpt lat="38.803033009171486" lon="-9.461073959246278">
        <ele>65.030000000000001</ele>
        <time>2025-05-04T15:32:21Z</time>
      </trkpt>
      <trkpt lat="38.802983975037932" lon="-9.461197005584836">
        <ele>65.989999999999995</ele>
        <time>2025-05-04T15:32:22Z</time>
      </trkpt>
      <trkpt lat="38.802908034995198" lon="-9.461263976991177">
        <ele>66.950000000000003</ele>
        <time>2025-05-04T15:32:23Z</time>
      </trkpt>
      <trkpt lat="38.802817007526755" lon="-9.461304964497685">
        <ele>67.430000000000007</ele>
        <time>2025-05-04T15:32:24Z</time>
      </trkpt>
      <trkpt lat="38.802714999765158" lon="-9.461289960891008">
        <ele>67.909999999999997</ele>
        <time>2025-05-04T15:32:25Z</time>
      </trkpt>
      <trkpt lat="38.802638975903392" lon="-9.461225001141429">
        <ele>68.870000000000005</ele>
        <time>2025-05-04T15:32:26Z</time>
      </trkpt>
      <trkpt lat="38.802601005882025" lon="-9.461115030571818">
        <ele>69.349999999999994</ele>
        <time>2025-05-04T15:32:27Z</time>
      </trkpt>
      <trkpt lat="38.802554989233613" lon="-9.460982009768486">
        <ele>70.310000000000002</ele>
        <time>2025-05-04T15:32:28Z</time>
      </trkpt>
      <trkpt lat="38.802501009777188" lon="-9.460827028378844">
        <ele>70.790000000000006</ele>
        <time>2025-05-04T15:32:29Z</time>
      </trkpt>
      <trkpt lat="38.802445018664002" lon="-9.460666012018919">
        <ele>71.269999999999996</ele>
        <time>2025-05-04T15:32:30Z</time>
      </trkpt>
      <trkpt lat="38.802344016730785" lon="-9.460463002324104">
        <ele>72.239999999999995</ele>
        <time>2025-05-04T15:32:31Z</time>
      </trkpt>
      <trkpt lat="38.801975967362523" lon="-9.459708966314793">
        <ele>75.120000000000005</ele>
        <time>2025-05-04T15:32:35Z</time>
      </trkpt>
      <trkpt lat="38.801878988742828" lon="-9.45955297909677">
        <ele>76.079999999999998</ele>
        <time>2025-05-04T15:32:36Z</time>
      </trkpt>
      <trkpt lat="38.80155703984201" lon="-9.459209991618991">
        <ele>78.480000000000004</ele>
        <time>2025-05-04T15:32:39Z</time>
      </trkpt>
      <trkpt lat="38.801437010988593" lon="-9.45914302021265">
        <ele>79.450000000000003</ele>
        <time>2025-05-04T15:32:40Z</time>
      </trkpt>
      <trkpt lat="38.801306001842022" lon="-9.459118964150548">
        <ele>80.409999999999997</ele>
        <time>2025-05-04T15:32:41Z</time>
      </trkpt>
      <trkpt lat="38.80117298103869" lon="-9.459107983857393">
        <ele>81.370000000000005</ele>
        <time>2025-05-04T15:32:42Z</time>
      </trkpt>
      <trkpt lat="38.801034009084105" lon="-9.459149977192283">
        <ele>82.329999999999998</ele>
        <time>2025-05-04T15:32:43Z</time>
      </trkpt>
      <trkpt lat="38.800908029079437" lon="-9.459243016317487">
        <ele>83.290000000000006</ele>
        <time>2025-05-04T15:32:44Z</time>
      </trkpt>
      <trkpt lat="38.800790011882782" lon="-9.459361033514142">
        <ele>83.769999999999996</ele>
        <time>2025-05-04T15:32:45Z</time>
      </trkpt>
      <trkpt lat="38.800702001899481" lon="-9.459511991590262">
        <ele>84.25</ele>
        <time>2025-05-04T15:32:46Z</time>
      </trkpt>
      <trkpt lat="38.800624972209334" lon="-9.45965800434351">
        <ele>85.209999999999994</ele>
        <time>2025-05-04T15:32:47Z</time>
      </trkpt>
      <trkpt lat="38.800553977489471" lon="-9.459793036803603">
        <ele>85.689999999999998</ele>
        <time>2025-05-04T15:32:48Z</time>
      </trkpt>
      <trkpt lat="38.799975961446762" lon="-9.460935993120074">
        <ele>92.420000000000002</ele>
        <time>2025-05-04T15:32:56Z</time>
      </trkpt>
      <trkpt lat="38.799689970910549" lon="-9.461488025262952">
        <ele>96.269999999999996</ele>
        <time>2025-05-04T15:33:00Z</time>
      </trkpt>
      <trkpt lat="38.799564996734262" lon="-9.461639989167452">
        <ele>96.75</ele>
        <time>2025-05-04T15:33:01Z</time>
      </trkpt>
      <trkpt lat="38.799272971227765" lon="-9.461965961381793">
        <ele>98.670000000000002</ele>
        <time>2025-05-04T15:33:03Z</time>
      </trkpt>
      <trkpt lat="38.798798974603415" lon="-9.462509024888277">
        <ele>103</ele>
        <time>2025-05-04T15:33:07Z</time>
      </trkpt>
      <trkpt lat="38.798687998205423" lon="-9.462612960487604">
        <ele>103.95999999999999</ele>
        <time>2025-05-04T15:33:08Z</time>
      </trkpt>
      <trkpt lat="38.797651994973421" lon="-9.463408989831805">
        <ele>111.65000000000001</ele>
        <time>2025-05-04T15:33:17Z</time>
      </trkpt>
      <trkpt lat="38.797236001119018" lon="-9.463613005355001">
        <ele>114.05</ele>
        <time>2025-05-04T15:33:21Z</time>
      </trkpt>
      <trkpt lat="38.797159977257252" lon="-9.463699003681541">
        <ele>114.53</ele>
        <time>2025-05-04T15:33:22Z</time>
      </trkpt>
      <trkpt lat="38.797105997800827" lon="-9.463792964816093">
        <ele>115.01000000000001</ele>
        <time>2025-05-04T15:33:23Z</time>
      </trkpt>
      <trkpt lat="38.797116978093982" lon="-9.463884998112917">
        <ele>115.5</ele>
        <time>2025-05-04T15:33:24Z</time>
      </trkpt>
      <trkpt lat="38.797132987529039" lon="-9.463984994217753">
        <ele>115.5</ele>
        <time>2025-05-04T15:33:25Z</time>
      </trkpt>
      <trkpt lat="38.797160983085632" lon="-9.464080967009068">
        <ele>115.98</ele>
        <time>2025-05-04T15:33:26Z</time>
      </trkpt>
      <trkpt lat="38.797222003340721" lon="-9.464180041104555">
        <ele>116.94</ele>
        <time>2025-05-04T15:33:27Z</time>
      </trkpt>
      <trkpt lat="38.797502964735031" lon="-9.464632999151945">
        <ele>118.38</ele>
        <time>2025-05-04T15:33:31Z</time>
      </trkpt>
      <trkpt lat="38.797575971111655" lon="-9.464752022176981">
        <ele>118.86</ele>
        <time>2025-05-04T15:33:32Z</time>
      </trkpt>
      <trkpt lat="38.797810999676585" lon="-9.465129040181637">
        <ele>120.3</ele>
        <time>2025-05-04T15:33:35Z</time>
      </trkpt>
      <trkpt lat="38.797863973304629" lon="-9.465273041278124">
        <ele>120.78</ele>
        <time>2025-05-04T15:33:36Z</time>
      </trkpt>
      <trkpt lat="38.797917030751705" lon="-9.465414024889469">
        <ele>121.26000000000001</ele>
        <time>2025-05-04T15:33:37Z</time>
      </trkpt>
      <trkpt lat="38.797967992722988" lon="-9.465549979358912">
        <ele>121.73999999999999</ele>
        <time>2025-05-04T15:33:38Z</time>
      </trkpt>
      <trkpt lat="38.798001017421484" lon="-9.465686017647386">
        <ele>122.22</ele>
        <time>2025-05-04T15:33:39Z</time>
      </trkpt>
      <trkpt lat="38.797991964966059" lon="-9.465834964066744">
        <ele>123.19</ele>
        <time>2025-05-04T15:33:40Z</time>
      </trkpt>
      <trkpt lat="38.797981990501285" lon="-9.465988017618656">
        <ele>123.67</ele>
        <time>2025-05-04T15:33:41Z</time>
      </trkpt>
      <trkpt lat="38.797938991338015" lon="-9.466117015108466">
        <ele>124.63</ele>
        <time>2025-05-04T15:33:42Z</time>
      </trkpt>
      <trkpt lat="38.797875037416816" lon="-9.466236038133502">
        <ele>125.59</ele>
        <time>2025-05-04T15:33:43Z</time>
      </trkpt>
      <trkpt lat="38.797789961099625" lon="-9.466347014531493">
        <ele>126.55</ele>
        <time>2025-05-04T15:33:44Z</time>
      </trkpt>
      <trkpt lat="38.797700023278594" lon="-9.466463020071387">
        <ele>127.03</ele>
        <time>2025-05-04T15:33:45Z</time>
      </trkpt>
      <trkpt lat="38.797611007466912" lon="-9.46657701395452">
        <ele>127.98999999999999</ele>
        <time>2025-05-04T15:33:46Z</time>
      </trkpt>
      <trkpt lat="38.797521991655231" lon="-9.466681033372879">
        <ele>128.94999999999999</ele>
        <time>2025-05-04T15:33:47Z</time>
      </trkpt>
      <trkpt lat="38.797228038311005" lon="-9.46694296784699">
        <ele>131.36000000000001</ele>
        <time>2025-05-04T15:33:50Z</time>
      </trkpt>
      <trkpt lat="38.797125024721026" lon="-9.467016980051994">
        <ele>132.31999999999999</ele>
        <time>2025-05-04T15:33:51Z</time>
      </trkpt>
      <trkpt lat="38.797008013352752" lon="-9.467024020850658">
        <ele>133.28</ele>
        <time>2025-05-04T15:33:52Z</time>
      </trkpt>
      <trkpt lat="38.796886978670955" lon="-9.467031983658671">
        <ele>134.24000000000001</ele>
        <time>2025-05-04T15:33:53Z</time>
      </trkpt>
      <trkpt lat="38.796758987009525" lon="-9.467039024457336">
        <ele>135.19999999999999</ele>
        <time>2025-05-04T15:33:54Z</time>
      </trkpt>
      <trkpt lat="38.79664096981287" lon="-9.467030977830291">
        <ele>136.16</ele>
        <time>2025-05-04T15:33:55Z</time>
      </trkpt>
      <trkpt lat="38.795620976015925" lon="-9.466787986457348">
        <ele>146.74000000000001</ele>
        <time>2025-05-04T15:34:04Z</time>
      </trkpt>
      <trkpt lat="38.795525003224611" lon="-9.466724032536149">
        <ele>147.69999999999999</ele>
        <time>2025-05-04T15:34:05Z</time>
      </trkpt>
      <trkpt lat="38.795426012948155" lon="-9.466658988967538">
        <ele>148.66</ele>
        <time>2025-05-04T15:34:06Z</time>
      </trkpt>
      <trkpt lat="38.795320987701416" lon="-9.466589000076056">
        <ele>149.62</ele>
        <time>2025-05-04T15:34:07Z</time>
      </trkpt>
      <trkpt lat="38.795250998809934" lon="-9.466480035334826">
        <ele>151.06</ele>
        <time>2025-05-04T15:34:08Z</time>
      </trkpt>
      <trkpt lat="38.795171035453677" lon="-9.466355983167887">
        <ele>152.03</ele>
        <time>2025-05-04T15:34:09Z</time>
      </trkpt>
      <trkpt lat="38.794677006080747" lon="-9.465571017935872">
        <ele>155.87</ele>
        <time>2025-05-04T15:34:15Z</time>
      </trkpt>
      <trkpt lat="38.794578015804291" lon="-9.465460041537881">
        <ele>155.87</ele>
        <time>2025-05-04T15:34:16Z</time>
      </trkpt>
      <trkpt lat="38.794479025527835" lon="-9.465347975492477">
        <ele>156.34999999999999</ele>
        <time>2025-05-04T15:34:17Z</time>
      </trkpt>
      <trkpt lat="38.794376011937857" lon="-9.46524403989315">
        <ele>156.83000000000001</ele>
        <time>2025-05-04T15:34:18Z</time>
      </trkpt>
      <trkpt lat="38.794256988912821" lon="-9.465171033516526">
        <ele>157.31</ele>
        <time>2025-05-04T15:34:19Z</time>
      </trkpt>
      <trkpt lat="38.794135032221675" lon="-9.465096015483141">
        <ele>158.27000000000001</ele>
        <time>2025-05-04T15:34:20Z</time>
      </trkpt>
      <trkpt lat="38.793066004291177" lon="-9.464716985821724">
        <ele>167.41</ele>
        <time>2025-05-04T15:34:28Z</time>
      </trkpt>
      <trkpt lat="38.792567029595375" lon="-9.464591005817056">
        <ele>171.72999999999999</ele>
        <time>2025-05-04T15:34:32Z</time>
      </trkpt>
      <trkpt lat="38.792468039318919" lon="-9.464511964470148">
        <ele>172.69</ele>
        <time>2025-05-04T15:34:33Z</time>
      </trkpt>
      <trkpt lat="38.791970992460847" lon="-9.464116003364325">
        <ele>177.02000000000001</ele>
        <time>2025-05-04T15:34:38Z</time>
      </trkpt>
      <trkpt lat="38.791872002184391" lon="-9.464076021686196">
        <ele>177.97999999999999</ele>
        <time>2025-05-04T15:34:39Z</time>
      </trkpt>
      <trkpt lat="38.791778041049838" lon="-9.464046014472842">
        <ele>178.46000000000001</ele>
        <time>2025-05-04T15:34:40Z</time>
      </trkpt>
      <trkpt lat="38.791605960577726" lon="-9.464007038623095">
        <ele>181.34999999999999</ele>
        <time>2025-05-04T15:34:42Z</time>
      </trkpt>
      <trkpt lat="38.791537983343005" lon="-9.463983988389373">
        <ele>182.78999999999999</ele>
        <time>2025-05-04T15:34:43Z</time>
      </trkpt>
      <trkpt lat="38.791459025815129" lon="-9.463884998112917">
        <ele>184.22999999999999</ele>
        <time>2025-05-04T15:34:44Z</time>
      </trkpt>
      <trkpt lat="38.79141703248024" lon="-9.463792964816093">
        <ele>186.15000000000001</ele>
        <time>2025-05-04T15:34:45Z</time>
      </trkpt>
      <trkpt lat="38.791351988911629" lon="-9.463648963719606">
        <ele>188.08000000000001</ele>
        <time>2025-05-04T15:34:46Z</time>
      </trkpt>
      <trkpt lat="38.791351988911629" lon="-9.463523989543319">
        <ele>189.52000000000001</ele>
        <time>2025-05-04T15:34:47Z</time>
      </trkpt>
      <trkpt lat="38.791351988911629" lon="-9.463390968739986">
        <ele>191.44</ele>
        <time>2025-05-04T15:34:48Z</time>
      </trkpt>
      <trkpt lat="38.791367998346686" lon="-9.463274041190743">
        <ele>192.88</ele>
        <time>2025-05-04T15:34:49Z</time>
      </trkpt>
      <trkpt lat="38.791381996124983" lon="-9.463173039257526">
        <ele>193.84</ele>
        <time>2025-05-04T15:34:50Z</time>
      </trkpt>
      <trkpt lat="38.791393982246518" lon="-9.463080000132322">
        <ele>195.28</ele>
        <time>2025-05-04T15:34:51Z</time>
      </trkpt>
      <trkpt lat="38.791416026651859" lon="-9.462918983772397">
        <ele>197.69</ele>
        <time>2025-05-04T15:34:53Z</time>
      </trkpt>
      <trkpt lat="38.791361963376403" lon="-9.462811024859548">
        <ele>198.65000000000001</ele>
        <time>2025-05-04T15:34:54Z</time>
      </trkpt>
      <trkpt lat="38.7913120072335" lon="-9.462711028754711">
        <ele>199.61000000000001</ele>
        <time>2025-05-04T15:34:55Z</time>
      </trkpt>
      <trkpt lat="38.791257021948695" lon="-9.462610026821494">
        <ele>200.56999999999999</ele>
        <time>2025-05-04T15:34:56Z</time>
      </trkpt>
      <trkpt lat="38.791187033057213" lon="-9.462540037930012">
        <ele>201.53</ele>
        <time>2025-05-04T15:34:57Z</time>
      </trkpt>
      <trkpt lat="38.790966002270579" lon="-9.462319007143378">
        <ele>204.41999999999999</ele>
        <time>2025-05-04T15:35:00Z</time>
      </trkpt>
      <trkpt lat="38.790909005329013" lon="-9.462221022695303">
        <ele>205.86000000000001</ele>
        <time>2025-05-04T15:35:01Z</time>
      </trkpt>
      <trkpt lat="38.790618991479278" lon="-9.461710983887315">
        <ele>210.66999999999999</ele>
        <time>2025-05-04T15:35:06Z</time>
      </trkpt>
      <trkpt lat="38.790570041164756" lon="-9.46161299943924">
        <ele>211.63</ele>
        <time>2025-05-04T15:35:07Z</time>
      </trkpt>
      <trkpt lat="38.790527964010835" lon="-9.461514009162784">
        <ele>212.59</ele>
        <time>2025-05-04T15:35:08Z</time>
      </trkpt>
      <trkpt lat="38.79040801897645" lon="-9.460977986454964">
        <ele>216.43000000000001</ele>
        <time>2025-05-04T15:35:13Z</time>
      </trkpt>
      <trkpt lat="38.790411036461592" lon="-9.460870027542114">
        <ele>216.91</ele>
        <time>2025-05-04T15:35:14Z</time>
      </trkpt>
      <trkpt lat="38.790446994826198" lon="-9.460762990638614">
        <ele>216.91</ele>
        <time>2025-05-04T15:35:15Z</time>
      </trkpt>
      <trkpt lat="38.79051698371768" lon="-9.46069099009037">
        <ele>216.91</ele>
        <time>2025-05-04T15:35:16Z</time>
      </trkpt>
      <trkpt lat="38.790588984265924" lon="-9.460623012855649">
        <ele>216.91</ele>
        <time>2025-05-04T15:35:17Z</time>
      </trkpt>
      <trkpt lat="38.790810015052557" lon="-9.46036702953279">
        <ele>217.40000000000001</ele>
        <time>2025-05-04T15:35:21Z</time>
      </trkpt>
      <trkpt lat="38.790841028094292" lon="-9.460311038419604">
        <ele>217.40000000000001</ele>
        <time>2025-05-04T15:35:22Z</time>
      </trkpt>
      <trkpt lat="38.790854020044208" lon="-9.460236020386219">
        <ele>217.40000000000001</ele>
        <time>2025-05-04T15:35:23Z</time>
      </trkpt>
      <trkpt lat="38.790848990902305" lon="-9.460176005959511">
        <ele>217.88</ele>
        <time>2025-05-04T15:35:24Z</time>
      </trkpt>
      <trkpt lat="38.790843039751053" lon="-9.460110040381551">
        <ele>217.88</ele>
        <time>2025-05-04T15:35:25Z</time>
      </trkpt>
      <trkpt lat="38.790837004780769" lon="-9.460043990984559">
        <ele>218.36000000000001</ele>
        <time>2025-05-04T15:35:26Z</time>
      </trkpt>
      <trkpt lat="38.790781013667583" lon="-9.459987999871373">
        <ele>218.36000000000001</ele>
        <time>2025-05-04T15:35:27Z</time>
      </trkpt>
      <trkpt lat="38.790751006454229" lon="-9.459957992658019">
        <ele>218.36000000000001</ele>
        <time>2025-05-04T15:35:28Z</time>
      </trkpt>
      <trkpt lat="38.790723010897636" lon="-9.459957992658019">
        <ele>218.36000000000001</ele>
        <time>2025-05-04T15:35:29Z</time>
      </trkpt>
      <trkpt lat="38.790699038654566" lon="-9.459957992658019">
        <ele>218.84</ele>
        <time>2025-05-04T15:35:30Z</time>
      </trkpt>
      <trkpt lat="38.790671965107322" lon="-9.459957992658019">
        <ele>218.84</ele>
        <time>2025-05-04T15:35:31Z</time>
      </trkpt>
      <trkpt lat="38.790644975379109" lon="-9.459957992658019">
        <ele>219.31999999999999</ele>
        <time>2025-05-04T15:35:32Z</time>
      </trkpt>
      <trkpt lat="38.790502985939384" lon="-9.460055977106094">
        <ele>219.80000000000001</ele>
        <time>2025-05-04T15:35:41Z</time>
      </trkpt>
      <trkpt lat="38.789994036778808" lon="-9.460530979558826">
        <ele>223.63999999999999</ele>
        <time>2025-05-04T15:35:47Z</time>
      </trkpt>
      <trkpt lat="38.789553986862302" lon="-9.460734995082021">
        <ele>225.56999999999999</ele>
        <time>2025-05-04T15:35:51Z</time>
      </trkpt>
      <trkpt lat="38.789429012686014" lon="-9.460766008123756">
        <ele>225.56999999999999</ele>
        <time>2025-05-04T15:35:52Z</time>
      </trkpt>
      <trkpt lat="38.789317030459642" lon="-9.460794003680348">
        <ele>226.53</ele>
        <time>2025-05-04T15:35:53Z</time>
      </trkpt>
      <trkpt lat="38.789135981351137" lon="-9.46083901450038">
        <ele>227.49000000000001</ele>
        <time>2025-05-04T15:35:55Z</time>
      </trkpt>
      <trkpt lat="38.789056017994881" lon="-9.460858963429928">
        <ele>227.97</ele>
        <time>2025-05-04T15:35:56Z</time>
      </trkpt>
      <trkpt lat="38.788878992199898" lon="-9.460963988676667">
        <ele>230.37</ele>
        <time>2025-05-04T15:35:58Z</time>
      </trkpt>
      <trkpt lat="38.7887769844383" lon="-9.461036995053291">
        <ele>231.81</ele>
        <time>2025-05-04T15:35:59Z</time>
      </trkpt>
      <trkpt lat="38.788677994161844" lon="-9.461107989773154">
        <ele>232.78</ele>
        <time>2025-05-04T15:36:00Z</time>
      </trkpt>
      <trkpt lat="38.788559976965189" lon="-9.46116004139185">
        <ele>233.74000000000001</ele>
        <time>2025-05-04T15:36:01Z</time>
      </trkpt>
      <trkpt lat="38.788445983082056" lon="-9.46116004139185">
        <ele>235.18000000000001</ele>
        <time>2025-05-04T15:36:02Z</time>
      </trkpt>
      <trkpt lat="38.78832302056253" lon="-9.461130034178495">
        <ele>236.13999999999999</ele>
        <time>2025-05-04T15:36:03Z</time>
      </trkpt>
      <trkpt lat="38.788206009194255" lon="-9.461090974509716">
        <ele>237.58000000000001</ele>
        <time>2025-05-04T15:36:04Z</time>
      </trkpt>
      <trkpt lat="38.788094026967883" lon="-9.46105401031673">
        <ele>238.53999999999999</ele>
        <time>2025-05-04T15:36:05Z</time>
      </trkpt>
      <trkpt lat="38.787997970357537" lon="-9.461089968681335">
        <ele>239.50999999999999</ele>
        <time>2025-05-04T15:36:06Z</time>
      </trkpt>
      <trkpt lat="38.787797978147864" lon="-9.461173033341765">
        <ele>242.38999999999999</ele>
        <time>2025-05-04T15:36:08Z</time>
      </trkpt>
      <trkpt lat="38.78767803311348" lon="-9.461217038333416">
        <ele>243.83000000000001</ele>
        <time>2025-05-04T15:36:09Z</time>
      </trkpt>
      <trkpt lat="38.787113009020686" lon="-9.461323991417885">
        <ele>251.52000000000001</ele>
        <time>2025-05-04T15:36:13Z</time>
      </trkpt>
      <trkpt lat="38.786968002095819" lon="-9.461338995024562">
        <ele>252.47999999999999</ele>
        <time>2025-05-04T15:36:14Z</time>
      </trkpt>
      <trkpt lat="38.78647699020803" lon="-9.461404960602522">
        <ele>254.88999999999999</ele>
        <time>2025-05-04T15:36:18Z</time>
      </trkpt>
      <trkpt lat="38.7863680254668" lon="-9.461460029706359">
        <ele>255.84999999999999</ele>
        <time>2025-05-04T15:36:19Z</time>
      </trkpt>
      <trkpt lat="38.78628303296864" lon="-9.461533958092332">
        <ele>255.84999999999999</ele>
        <time>2025-05-04T15:36:20Z</time>
      </trkpt>
      <trkpt lat="38.786214971914887" lon="-9.461639989167452">
        <ele>256.81</ele>
        <time>2025-05-04T15:36:21Z</time>
      </trkpt>
      <trkpt lat="38.786163004115224" lon="-9.461764041334391">
        <ele>256.81</ele>
        <time>2025-05-04T15:36:22Z</time>
      </trkpt>
      <trkpt lat="38.786138026043773" lon="-9.461899995803833">
        <ele>257.29000000000002</ele>
        <time>2025-05-04T15:36:23Z</time>
      </trkpt>
      <trkpt lat="38.786138026043773" lon="-9.462018013000488">
        <ele>257.76999999999998</ele>
        <time>2025-05-04T15:36:24Z</time>
      </trkpt>
      <trkpt lat="38.786185970529914" lon="-9.462147010490298">
        <ele>258.25</ele>
        <time>2025-05-04T15:36:25Z</time>
      </trkpt>
      <trkpt lat="38.786231987178326" lon="-9.462229991331697">
        <ele>258.25</ele>
        <time>2025-05-04T15:36:26Z</time>
      </trkpt>
      <trkpt lat="38.786286972463131" lon="-9.462304003536701">
        <ele>258.25</ele>
        <time>2025-05-04T15:36:27Z</time>
      </trkpt>
      <trkpt lat="38.786342963576317" lon="-9.462378015741706">
        <ele>258.73000000000002</ele>
        <time>2025-05-04T15:36:28Z</time>
      </trkpt>
      <trkpt lat="38.786395015195012" lon="-9.462446998804808">
        <ele>258.25</ele>
        <time>2025-05-04T15:36:29Z</time>
      </trkpt>
      <trkpt lat="38.786428039893508" lon="-9.462579013779759">
        <ele>258.25</ele>
        <time>2025-05-04T15:36:30Z</time>
      </trkpt>
      <trkpt lat="38.786438014358282" lon="-9.462618995457888">
        <ele>257.29000000000002</ele>
        <time>2025-05-04T15:36:31Z</time>
      </trkpt>
      <trkpt lat="38.786397026851773" lon="-9.462760984897614">
        <ele>255.84999999999999</ele>
        <time>2025-05-04T15:36:32Z</time>
      </trkpt>
      <trkpt lat="38.786372970789671" lon="-9.462816976010799">
        <ele>254.88999999999999</ele>
        <time>2025-05-04T15:36:33Z</time>
      </trkpt>
      <trkpt lat="38.786346986889839" lon="-9.462874978780747">
        <ele>253.93000000000001</ele>
        <time>2025-05-04T15:36:34Z</time>
      </trkpt>
      <trkpt lat="38.78628202714026" lon="-9.463016968220472">
        <ele>252</ele>
        <time>2025-05-04T15:36:36Z</time>
      </trkpt>
      <trkpt lat="38.786237016320229" lon="-9.463117970153689">
        <ele>251.52000000000001</ele>
        <time>2025-05-04T15:36:37Z</time>
      </trkpt>
      <trkpt lat="38.786180019378662" lon="-9.46324797347188">
        <ele>250.56</ele>
        <time>2025-05-04T15:36:38Z</time>
      </trkpt>
      <trkpt lat="38.786173984408379" lon="-9.463352998718619">
        <ele>250.08000000000001</ele>
        <time>2025-05-04T15:36:39Z</time>
      </trkpt>
      <trkpt lat="38.786169039085507" lon="-9.463449977338314">
        <ele>249.12</ele>
        <time>2025-05-04T15:36:40Z</time>
      </trkpt>
      <trkpt lat="38.786152023822069" lon="-9.463742002844811">
        <ele>247.19999999999999</ele>
        <time>2025-05-04T15:36:43Z</time>
      </trkpt>
      <trkpt lat="38.786169961094856" lon="-9.464219016954303">
        <ele>244.78999999999999</ele>
        <time>2025-05-04T15:36:47Z</time>
      </trkpt>
      <trkpt lat="38.786207009106874" lon="-9.46434399113059">
        <ele>244.78999999999999</ele>
        <time>2025-05-04T15:36:48Z</time>
      </trkpt>
      <trkpt lat="38.78626300022006" lon="-9.464451028034091">
        <ele>244.78999999999999</ele>
        <time>2025-05-04T15:36:49Z</time>
      </trkpt>
      <trkpt lat="38.786466009914875" lon="-9.464908009395003">
        <ele>245.27000000000001</ele>
        <time>2025-05-04T15:36:53Z</time>
      </trkpt>
      <trkpt lat="38.786474978551269" lon="-9.465018985792995">
        <ele>244.78999999999999</ele>
        <time>2025-05-04T15:36:54Z</time>
      </trkpt>
      <trkpt lat="38.786451006308198" lon="-9.465142032131553">
        <ele>244.31</ele>
        <time>2025-05-04T15:36:55Z</time>
      </trkpt>
      <trkpt lat="38.786395015195012" lon="-9.465247979387641">
        <ele>243.83000000000001</ele>
        <time>2025-05-04T15:36:56Z</time>
      </trkpt>
      <trkpt lat="38.786309016868472" lon="-9.465407989919186">
        <ele>243.34999999999999</ele>
        <time>2025-05-04T15:36:57Z</time>
      </trkpt>
      <trkpt lat="38.786238022148609" lon="-9.465490970760584">
        <ele>243.34999999999999</ele>
        <time>2025-05-04T15:36:58Z</time>
      </trkpt>
      <trkpt lat="38.785794032737613" lon="-9.466008972376585">
        <ele>240.47</ele>
        <time>2025-05-04T15:37:03Z</time>
      </trkpt>
      <trkpt lat="38.785690013319254" lon="-9.466044008731842">
        <ele>239.50999999999999</ele>
        <time>2025-05-04T15:37:04Z</time>
      </trkpt>
      <trkpt lat="38.78557501360774" lon="-9.466081978753209">
        <ele>239.02000000000001</ele>
        <time>2025-05-04T15:37:05Z</time>
      </trkpt>
      <trkpt lat="38.785464037209749" lon="-9.466119026765227">
        <ele>238.53999999999999</ele>
        <time>2025-05-04T15:37:06Z</time>
      </trkpt>
      <trkpt lat="38.785364963114262" lon="-9.466151967644692">
        <ele>238.06</ele>
        <time>2025-05-04T15:37:07Z</time>
      </trkpt>
      <trkpt lat="38.785309977829456" lon="-9.466218017041683">
        <ele>237.09999999999999</ele>
        <time>2025-05-04T15:37:08Z</time>
      </trkpt>
      <trkpt lat="38.785257004201412" lon="-9.466308038681746">
        <ele>236.13999999999999</ele>
        <time>2025-05-04T15:37:09Z</time>
      </trkpt>
      <trkpt lat="38.785197995603085" lon="-9.466409040614963">
        <ele>235.66</ele>
        <time>2025-05-04T15:37:10Z</time>
      </trkpt>
      <trkpt lat="38.785161031410098" lon="-9.466507025063038">
        <ele>234.22</ele>
        <time>2025-05-04T15:37:11Z</time>
      </trkpt>
      <trkpt lat="38.78508199006319" lon="-9.466729983687401">
        <ele>232.30000000000001</ele>
        <time>2025-05-04T15:37:13Z</time>
      </trkpt>
      <trkpt lat="38.78503798507154" lon="-9.46685403585434">
        <ele>231.33000000000001</ele>
        <time>2025-05-04T15:37:14Z</time>
      </trkpt>
      <trkpt lat="38.784943018108606" lon="-9.467119993641973">
        <ele>229.41</ele>
        <time>2025-05-04T15:37:16Z</time>
      </trkpt>
      <trkpt lat="38.784710001200438" lon="-9.467721981927753">
        <ele>226.53</ele>
        <time>2025-05-04T15:37:20Z</time>
      </trkpt>
      <trkpt lat="38.784612016752362" lon="-9.46790998801589">
        <ele>226.53</ele>
        <time>2025-05-04T15:37:21Z</time>
      </trkpt>
      <trkpt lat="38.784258970990777" lon="-9.46837903931737">
        <ele>225.09</ele>
        <time>2025-05-04T15:37:24Z</time>
      </trkpt>
      <trkpt lat="38.783908020704985" lon="-9.468866027891636">
        <ele>223.16</ele>
        <time>2025-05-04T15:37:27Z</time>
      </trkpt>
      <trkpt lat="38.783809030428529" lon="-9.469031989574432">
        <ele>222.19999999999999</ele>
        <time>2025-05-04T15:37:28Z</time>
      </trkpt>
      <trkpt lat="38.783548017963767" lon="-9.469467010349035">
        <ele>221.72</ele>
        <time>2025-05-04T15:37:31Z</time>
      </trkpt>
      <trkpt lat="38.783204024657607" lon="-9.46977898478508">
        <ele>222.68000000000001</ele>
        <time>2025-05-04T15:37:34Z</time>
      </trkpt>
      <trkpt lat="38.783087013289332" lon="-9.469861965626478">
        <ele>223.16</ele>
        <time>2025-05-04T15:37:35Z</time>
      </trkpt>
      <trkpt lat="38.782964972779155" lon="-9.469919968396425">
        <ele>223.63999999999999</ele>
        <time>2025-05-04T15:37:36Z</time>
      </trkpt>
      <trkpt lat="38.782297018915415" lon="-9.470278965309262">
        <ele>225.09</ele>
        <time>2025-05-04T15:37:42Z</time>
      </trkpt>
      <trkpt lat="38.782243961468339" lon="-9.470410980284214">
        <ele>225.56999999999999</ele>
        <time>2025-05-04T15:37:43Z</time>
      </trkpt>
      <trkpt lat="38.782211020588875" lon="-9.470493961125612">
        <ele>226.05000000000001</ele>
        <time>2025-05-04T15:37:44Z</time>
      </trkpt>
      <trkpt lat="38.782211020588875" lon="-9.470493961125612">
        <ele>226.53</ele>
        <time>2025-05-04T15:37:45Z</time>
      </trkpt>
      <trkpt lat="38.782246978953481" lon="-9.470694037154317">
        <ele>227.49000000000001</ele>
        <time>2025-05-04T15:37:46Z</time>
      </trkpt>
      <trkpt lat="38.782254019752145" lon="-9.470729995518923">
        <ele>227.00999999999999</ele>
        <time>2025-05-04T15:37:47Z</time>
      </trkpt>
      <trkpt lat="38.782254019752145" lon="-9.470729995518923">
        <ele>227.00999999999999</ele>
        <time>2025-05-04T15:37:48Z</time>
      </trkpt>
      <trkpt lat="38.782362984493375" lon="-9.4708520360291">
        <ele>227.00999999999999</ele>
        <time>2025-05-04T15:37:49Z</time>
      </trkpt>
      <trkpt lat="38.782450994476676" lon="-9.470949014648795">
        <ele>227.00999999999999</ele>
        <time>2025-05-04T15:37:50Z</time>
      </trkpt>
      <trkpt lat="38.782543027773499" lon="-9.471052028238773">
        <ele>227.49000000000001</ele>
        <time>2025-05-04T15:37:51Z</time>
      </trkpt>
      <trkpt lat="38.783303014934063" lon="-9.472033968195319">
        <ele>228.44999999999999</ele>
        <time>2025-05-04T15:37:58Z</time>
      </trkpt>
      <trkpt lat="38.783483980223536" lon="-9.472498996183276">
        <ele>230.37</ele>
        <time>2025-05-04T15:38:01Z</time>
      </trkpt>
      <trkpt lat="38.783529996871948" lon="-9.472630005329847">
        <ele>231.81</ele>
        <time>2025-05-04T15:38:02Z</time>
      </trkpt>
      <trkpt lat="38.783548017963767" lon="-9.472770988941193">
        <ele>233.25999999999999</ele>
        <time>2025-05-04T15:38:03Z</time>
      </trkpt>
      <trkpt lat="38.783556986600161" lon="-9.472899986431003">
        <ele>234.69999999999999</ele>
        <time>2025-05-04T15:38:04Z</time>
      </trkpt>
      <trkpt lat="38.783552963286638" lon="-9.473012974485755">
        <ele>235.18000000000001</ele>
        <time>2025-05-04T15:38:05Z</time>
      </trkpt>
      <trkpt lat="38.783515999093652" lon="-9.473134009167552">
        <ele>236.13999999999999</ele>
        <time>2025-05-04T15:38:06Z</time>
      </trkpt>
      <trkpt lat="38.783477023243904" lon="-9.473262000828981">
        <ele>236.62</ele>
        <time>2025-05-04T15:38:07Z</time>
      </trkpt>
      <trkpt lat="38.783405022695661" lon="-9.47336501441896">
        <ele>237.09999999999999</ele>
        <time>2025-05-04T15:38:08Z</time>
      </trkpt>
      <trkpt lat="38.783326987177134" lon="-9.473476996645331">
        <ele>238.06</ele>
        <time>2025-05-04T15:38:09Z</time>
      </trkpt>
      <trkpt lat="38.783225985243917" lon="-9.47353701107204">
        <ele>238.53999999999999</ele>
        <time>2025-05-04T15:38:10Z</time>
      </trkpt>
      <trkpt lat="38.783120037987828" lon="-9.473600964993238">
        <ele>239.02000000000001</ele>
        <time>2025-05-04T15:38:11Z</time>
      </trkpt>
      <trkpt lat="38.782999003306031" lon="-9.473670031875372">
        <ele>239.99000000000001</ele>
        <time>2025-05-04T15:38:12Z</time>
      </trkpt>
      <trkpt lat="38.782895989716053" lon="-9.473670031875372">
        <ele>240.47</ele>
        <time>2025-05-04T15:38:13Z</time>
      </trkpt>
      <trkpt lat="38.782796999439597" lon="-9.473670031875372">
        <ele>241.43000000000001</ele>
        <time>2025-05-04T15:38:14Z</time>
      </trkpt>
      <trkpt lat="38.782660961151123" lon="-9.473670031875372">
        <ele>241.91</ele>
        <time>2025-05-04T15:38:15Z</time>
      </trkpt>
      <trkpt lat="38.78185504116118" lon="-9.473385969176889">
        <ele>244.78999999999999</ele>
        <time>2025-05-04T15:38:22Z</time>
      </trkpt>
      <trkpt lat="38.781741969287395" lon="-9.473380018025637">
        <ele>244.78999999999999</ele>
        <time>2025-05-04T15:38:23Z</time>
      </trkpt>
      <trkpt lat="38.781546000391245" lon="-9.473369037732482">
        <ele>245.27000000000001</ele>
        <time>2025-05-04T15:38:24Z</time>
      </trkpt>
      <trkpt lat="38.781388001516461" lon="-9.473439026623964">
        <ele>246.22999999999999</ele>
        <time>2025-05-04T15:38:26Z</time>
      </trkpt>
      <trkpt lat="38.781275013461709" lon="-9.473489988595247">
        <ele>246.22999999999999</ele>
        <time>2025-05-04T15:38:27Z</time>
      </trkpt>
      <trkpt lat="38.781132018193603" lon="-9.473573975265026">
        <ele>246.22999999999999</ele>
        <time>2025-05-04T15:38:28Z</time>
      </trkpt>
      <trkpt lat="38.781035961583257" lon="-9.47368897497654">
        <ele>246.22999999999999</ele>
        <time>2025-05-04T15:38:29Z</time>
      </trkpt>
      <trkpt lat="38.78093303181231" lon="-9.47381797246635">
        <ele>246.22999999999999</ele>
        <time>2025-05-04T15:38:30Z</time>
      </trkpt>
      <trkpt lat="38.780854996293783" lon="-9.473949987441301">
        <ele>246.22999999999999</ele>
        <time>2025-05-04T15:38:31Z</time>
      </trkpt>
      <trkpt lat="38.780004987493157" lon="-9.475209033116698">
        <ele>242.38999999999999</ele>
        <time>2025-05-04T15:38:41Z</time>
      </trkpt>
      <trkpt lat="38.779573990032077" lon="-9.475684035569429">
        <ele>241.91</ele>
        <time>2025-05-04T15:38:45Z</time>
      </trkpt>
      <trkpt lat="38.779468964785337" lon="-9.475799035280943">
        <ele>241.91</ele>
        <time>2025-05-04T15:38:46Z</time>
      </trkpt>
      <trkpt lat="38.779356982558966" lon="-9.47592300362885">
        <ele>241.91</ele>
        <time>2025-05-04T15:38:47Z</time>
      </trkpt>
      <trkpt lat="38.779229996725917" lon="-9.475968014448881">
        <ele>241.91</ele>
        <time>2025-05-04T15:38:48Z</time>
      </trkpt>
      <trkpt lat="38.779090018942952" lon="-9.476017970591784">
        <ele>241.91</ele>
        <time>2025-05-04T15:38:49Z</time>
      </trkpt>
      <trkpt lat="38.778753988444805" lon="-9.476136993616819">
        <ele>241.91</ele>
        <time>2025-05-04T15:38:51Z</time>
      </trkpt>
      <trkpt lat="38.778590960428119" lon="-9.47611503303051">
        <ele>242.38999999999999</ele>
        <time>2025-05-04T15:38:52Z</time>
      </trkpt>
      <trkpt lat="38.777147009968758" lon="-9.475661991164088">
        <ele>246.22999999999999</ele>
        <time>2025-05-04T15:39:01Z</time>
      </trkpt>
      <trkpt lat="38.77603598870337" lon="-9.475058997049928">
        <ele>251.03999999999999</ele>
        <time>2025-05-04T15:39:10Z</time>
      </trkpt>
      <trkpt lat="38.775899028405547" lon="-9.475021027028561">
        <ele>251.52000000000001</ele>
        <time>2025-05-04T15:39:11Z</time>
      </trkpt>
      <trkpt lat="38.775749998167157" lon="-9.475021027028561">
        <ele>252.47999999999999</ele>
        <time>2025-05-04T15:39:12Z</time>
      </trkpt>
      <trkpt lat="38.775587975978851" lon="-9.475046005100012">
        <ele>253.44</ele>
        <time>2025-05-04T15:39:13Z</time>
      </trkpt>
      <trkpt lat="38.775430982932448" lon="-9.475095039233565">
        <ele>254.41</ele>
        <time>2025-05-04T15:39:14Z</time>
      </trkpt>
      <trkpt lat="38.774185013025999" lon="-9.475661991164088">
        <ele>262.10000000000002</ele>
        <time>2025-05-04T15:39:23Z</time>
      </trkpt>
      <trkpt lat="38.77392902970314" lon="-9.475799035280943">
        <ele>263.06</ele>
        <time>2025-05-04T15:39:25Z</time>
      </trkpt>
      <trkpt lat="38.773315977305174" lon="-9.475962985306978">
        <ele>264.98000000000002</ele>
        <time>2025-05-04T15:39:30Z</time>
      </trkpt>
      <trkpt lat="38.7733060028404" lon="-9.47596600279212">
        <ele>265.45999999999998</ele>
        <time>2025-05-04T15:39:31Z</time>
      </trkpt>
      <trkpt lat="38.77309100702405" lon="-9.476116038858891">
        <ele>265.94</ele>
        <time>2025-05-04T15:39:32Z</time>
      </trkpt>
      <trkpt lat="38.77214603126049" lon="-9.476786004379392">
        <ele>264.98000000000002</ele>
        <time>2025-05-04T15:39:41Z</time>
      </trkpt>
      <trkpt lat="38.771865991875529" lon="-9.477034024894238">
        <ele>263.06</ele>
        <time>2025-05-04T15:39:44Z</time>
      </trkpt>
      <trkpt lat="38.77184696495533" lon="-9.477060008794069">
        <ele>262.57999999999998</ele>
        <time>2025-05-04T15:39:45Z</time>
      </trkpt>
      <trkpt lat="38.77184696495533" lon="-9.477281039580703">
        <ele>262.10000000000002</ele>
        <time>2025-05-04T15:39:46Z</time>
      </trkpt>
      <trkpt lat="38.77184696495533" lon="-9.477402996271849">
        <ele>261.62</ele>
        <time>2025-05-04T15:39:47Z</time>
      </trkpt>
      <trkpt lat="38.771875966340303" lon="-9.4775350112468">
        <ele>260.64999999999998</ele>
        <time>2025-05-04T15:39:48Z</time>
      </trkpt>
      <trkpt lat="38.771904967725277" lon="-9.477665014564991">
        <ele>259.69</ele>
        <time>2025-05-04T15:39:49Z</time>
      </trkpt>
      <trkpt lat="38.77193296328187" lon="-9.477790994569659">
        <ele>258.73000000000002</ele>
        <time>2025-05-04T15:39:50Z</time>
      </trkpt>
      <trkpt lat="38.771975040435791" lon="-9.477983023971319">
        <ele>257.76999999999998</ele>
        <time>2025-05-04T15:39:51Z</time>
      </trkpt>
      <trkpt lat="38.77201896160841" lon="-9.478034991770983">
        <ele>256.32999999999998</ele>
        <time>2025-05-04T15:39:52Z</time>
      </trkpt>
      <trkpt lat="38.77210596576333" lon="-9.478139011189342">
        <ele>254.88999999999999</ele>
        <time>2025-05-04T15:39:53Z</time>
      </trkpt>
      <trkpt lat="38.77219196408987" lon="-9.4782430306077">
        <ele>253.93000000000001</ele>
        <time>2025-05-04T15:39:54Z</time>
      </trkpt>
      <trkpt lat="38.772496981546283" lon="-9.47860898450017">
        <ele>249.12</ele>
        <time>2025-05-04T15:39:58Z</time>
      </trkpt>
      <trkpt lat="38.772591026499867" lon="-9.478690959513187">
        <ele>248.63999999999999</ele>
        <time>2025-05-04T15:39:59Z</time>
      </trkpt>
      <trkpt lat="38.772694962099195" lon="-9.478775030001998">
        <ele>247.19999999999999</ele>
        <time>2025-05-04T15:40:00Z</time>
      </trkpt>
      <trkpt lat="38.772801999002695" lon="-9.478862034156919">
        <ele>246.22999999999999</ele>
        <time>2025-05-04T15:40:01Z</time>
      </trkpt>
      <trkpt lat="38.77291901037097" lon="-9.478941997513175">
        <ele>244.78999999999999</ele>
        <time>2025-05-04T15:40:02Z</time>
      </trkpt>
      <trkpt lat="38.773654019460082" lon="-9.479414988309145">
        <ele>237.09999999999999</ele>
        <time>2025-05-04T15:40:09Z</time>
      </trkpt>
      <trkpt lat="38.773743035271764" lon="-9.479496963322163">
        <ele>236.13999999999999</ele>
        <time>2025-05-04T15:40:10Z</time>
      </trkpt>
      <trkpt lat="38.774461029097438" lon="-9.480122001841664">
        <ele>229.41</ele>
        <time>2025-05-04T15:40:18Z</time>
      </trkpt>
      <trkpt lat="38.774565970525146" lon="-9.480209005996585">
        <ele>228.44999999999999</ele>
        <time>2025-05-04T15:40:19Z</time>
      </trkpt>
      <trkpt lat="38.774674013257027" lon="-9.480299027636647">
        <ele>227.97</ele>
        <time>2025-05-04T15:40:20Z</time>
      </trkpt>
      <trkpt lat="38.775728037580848" lon="-9.480997994542122">
        <ele>222.19999999999999</ele>
        <time>2025-05-04T15:40:30Z</time>
      </trkpt>
      <trkpt lat="38.775914032012224" lon="-9.48112296871841">
        <ele>221.72</ele>
        <time>2025-05-04T15:40:32Z</time>
      </trkpt>
      <trkpt lat="38.776030959561467" lon="-9.481201004236937">
        <ele>221.24000000000001</ele>
        <time>2025-05-04T15:40:33Z</time>
      </trkpt>
      <trkpt lat="38.776211002841592" lon="-9.481276022270322">
        <ele>221.24000000000001</ele>
        <time>2025-05-04T15:40:35Z</time>
      </trkpt>
      <trkpt lat="38.776304963976145" lon="-9.481318015605211">
        <ele>221.24000000000001</ele>
        <time>2025-05-04T15:40:36Z</time>
      </trkpt>
      <trkpt lat="38.777124965563416" lon="-9.482070039957762">
        <ele>217.40000000000001</ele>
        <time>2025-05-04T15:40:46Z</time>
      </trkpt>
      <trkpt lat="38.777226973325014" lon="-9.482121001929045">
        <ele>216.43000000000001</ele>
        <time>2025-05-04T15:40:47Z</time>
      </trkpt>
      <trkpt lat="38.777360999956727" lon="-9.482187973335385">
        <ele>215.94999999999999</ele>
        <time>2025-05-04T15:40:48Z</time>
      </trkpt>
      <trkpt lat="38.777468958869576" lon="-9.482230972498655">
        <ele>215.47</ele>
        <time>2025-05-04T15:40:49Z</time>
      </trkpt>
      <trkpt lat="38.777580019086599" lon="-9.482286963611841">
        <ele>214.99000000000001</ele>
        <time>2025-05-04T15:40:50Z</time>
      </trkpt>
      <trkpt lat="38.777693007141352" lon="-9.482343038544059">
        <ele>214.03</ele>
        <time>2025-05-04T15:40:51Z</time>
      </trkpt>
      <trkpt lat="38.777984026819468" lon="-9.482502965256572">
        <ele>210.66999999999999</ele>
        <time>2025-05-04T15:40:54Z</time>
      </trkpt>
      <trkpt lat="38.778066001832485" lon="-9.482570020481944">
        <ele>209.69999999999999</ele>
        <time>2025-05-04T15:40:55Z</time>
      </trkpt>
      <trkpt lat="38.778144037351012" lon="-9.482633974403143">
        <ele>209.22</ele>
        <time>2025-05-04T15:40:56Z</time>
      </trkpt>
      <trkpt lat="38.77822701819241" lon="-9.482688959687948">
        <ele>208.25999999999999</ele>
        <time>2025-05-04T15:40:57Z</time>
      </trkpt>
      <trkpt lat="38.778305975720286" lon="-9.482733970507979">
        <ele>207.30000000000001</ele>
        <time>2025-05-04T15:40:58Z</time>
      </trkpt>
      <trkpt lat="38.778381999582052" lon="-9.482740005478263">
        <ele>206.34</ele>
        <time>2025-05-04T15:40:59Z</time>
      </trkpt>
      <trkpt lat="38.778459029272199" lon="-9.482731958851218">
        <ele>205.86000000000001</ele>
        <time>2025-05-04T15:41:00Z</time>
      </trkpt>
      <trkpt lat="38.7785470392555" lon="-9.482703963294625">
        <ele>204.41999999999999</ele>
        <time>2025-05-04T15:41:01Z</time>
      </trkpt>
      <trkpt lat="38.778629014268517" lon="-9.482639003545046">
        <ele>203.94</ele>
        <time>2025-05-04T15:41:02Z</time>
      </trkpt>
      <trkpt lat="38.778717024251819" lon="-9.482570020481944">
        <ele>203.46000000000001</ele>
        <time>2025-05-04T15:41:03Z</time>
      </trkpt>
      <trkpt lat="38.779206024482846" lon="-9.482289981096983">
        <ele>200.09</ele>
        <time>2025-05-04T15:41:08Z</time>
      </trkpt>
      <trkpt lat="38.779335021972656" lon="-9.482230972498655">
        <ele>199.13</ele>
        <time>2025-05-04T15:41:09Z</time>
      </trkpt>
      <trkpt lat="38.779772976413369" lon="-9.482184033840895">
        <ele>195.28</ele>
        <time>2025-05-04T15:41:13Z</time>
      </trkpt>
      <trkpt lat="38.779875990003347" lon="-9.482172969728708">
        <ele>194.31999999999999</ele>
        <time>2025-05-04T15:41:14Z</time>
      </trkpt>
      <trkpt lat="38.779977997764945" lon="-9.482185961678624">
        <ele>192.88</ele>
        <time>2025-05-04T15:41:15Z</time>
      </trkpt>
      <trkpt lat="38.780071958899498" lon="-9.482228960841894">
        <ele>191.91999999999999</ele>
        <time>2025-05-04T15:41:16Z</time>
      </trkpt>
      <trkpt lat="38.78016198053956" lon="-9.482271037995815">
        <ele>191.44</ele>
        <time>2025-05-04T15:41:17Z</time>
      </trkpt>
      <trkpt lat="38.780249990522861" lon="-9.482324011623859">
        <ele>190.47999999999999</ele>
        <time>2025-05-04T15:41:18Z</time>
      </trkpt>
      <trkpt lat="38.780330959707499" lon="-9.482389977201819">
        <ele>189.52000000000001</ele>
        <time>2025-05-04T15:41:19Z</time>
      </trkpt>
      <trkpt lat="38.780414024367929" lon="-9.482458960264921">
        <ele>188.56</ele>
        <time>2025-05-04T15:41:20Z</time>
      </trkpt>
      <trkpt lat="38.780491976067424" lon="-9.482551999390125">
        <ele>187.59</ele>
        <time>2025-05-04T15:41:21Z</time>
      </trkpt>
      <trkpt lat="38.780601024627686" lon="-9.482725001871586">
        <ele>185.66999999999999</ele>
        <time>2025-05-04T15:41:23Z</time>
      </trkpt>
      <trkpt lat="38.780635977163911" lon="-9.48286104016006">
        <ele>184.71000000000001</ele>
        <time>2025-05-04T15:41:24Z</time>
      </trkpt>
      <trkpt lat="38.780661961063743" lon="-9.482968999072909">
        <ele>183.75</ele>
        <time>2025-05-04T15:41:25Z</time>
      </trkpt>
      <trkpt lat="38.780665984377265" lon="-9.483070001006126">
        <ele>182.78999999999999</ele>
        <time>2025-05-04T15:41:26Z</time>
      </trkpt>
      <trkpt lat="38.780665984377265" lon="-9.483177959918976">
        <ele>181.34999999999999</ele>
        <time>2025-05-04T15:41:27Z</time>
      </trkpt>
      <trkpt lat="38.780641006305814" lon="-9.483576016500592">
        <ele>177.02000000000001</ele>
        <time>2025-05-04T15:41:31Z</time>
      </trkpt>
      <trkpt lat="38.780599012970924" lon="-9.483671989291906">
        <ele>176.06</ele>
        <time>2025-05-04T15:41:32Z</time>
      </trkpt>
      <trkpt lat="38.780519971624017" lon="-9.483852032572031">
        <ele>173.66</ele>
        <time>2025-05-04T15:41:34Z</time>
      </trkpt>
      <trkpt lat="38.78052500076592" lon="-9.483950017020106">
        <ele>172.69</ele>
        <time>2025-05-04T15:41:35Z</time>
      </trkpt>
      <trkpt lat="38.780534975230694" lon="-9.484031992033124">
        <ele>171.25</ele>
        <time>2025-05-04T15:41:36Z</time>
      </trkpt>
      <trkpt lat="38.780536986887455" lon="-9.484054958447814">
        <ele>170.28999999999999</ele>
        <time>2025-05-04T15:41:37Z</time>
      </trkpt>
      <trkpt lat="38.780599012970924" lon="-9.484126036986709">
        <ele>169.33000000000001</ele>
        <time>2025-05-04T15:41:38Z</time>
      </trkpt>
      <trkpt lat="38.780645029619336" lon="-9.484178004786372">
        <ele>168.37</ele>
        <time>2025-05-04T15:41:39Z</time>
      </trkpt>
      <trkpt lat="38.780687022954226" lon="-9.484227038919926">
        <ele>167.41</ele>
        <time>2025-05-04T15:41:40Z</time>
      </trkpt>
      <trkpt lat="38.78076396882534" lon="-9.484232990071178">
        <ele>165.96000000000001</ele>
        <time>2025-05-04T15:41:41Z</time>
      </trkpt>
      <trkpt lat="38.780863964930177" lon="-9.484241958707571">
        <ele>165</ele>
        <time>2025-05-04T15:41:42Z</time>
      </trkpt>
      <trkpt lat="38.780968990176916" lon="-9.484251011162996">
        <ele>164.03999999999999</ele>
        <time>2025-05-04T15:41:43Z</time>
      </trkpt>
      <trkpt lat="38.78108499571681" lon="-9.48426098562777">
        <ele>163.08000000000001</ele>
        <time>2025-05-04T15:41:44Z</time>
      </trkpt>
      <trkpt lat="38.781203012913465" lon="-9.484264003112912">
        <ele>162.59999999999999</ele>
        <time>2025-05-04T15:41:45Z</time>
      </trkpt>
      <trkpt lat="38.781329998746514" lon="-9.484233995899558">
        <ele>162.12</ele>
        <time>2025-05-04T15:41:46Z</time>
      </trkpt>
      <trkpt lat="38.781582964584231" lon="-9.48417398147285">
        <ele>161.63999999999999</ele>
        <time>2025-05-04T15:41:48Z</time>
      </trkpt>
      <trkpt lat="38.781713973730803" lon="-9.48417498730123">
        <ele>161.16</ele>
        <time>2025-05-04T15:41:49Z</time>
      </trkpt>
      <trkpt lat="38.781827967613935" lon="-9.484193008393049">
        <ele>160.68000000000001</ele>
        <time>2025-05-04T15:41:50Z</time>
      </trkpt>
      <trkpt lat="38.781955959275365" lon="-9.484270038083196">
        <ele>160.19999999999999</ele>
        <time>2025-05-04T15:41:51Z</time>
      </trkpt>
      <trkpt lat="38.782025026157498" lon="-9.484368022531271">
        <ele>160.68000000000001</ele>
        <time>2025-05-04T15:41:52Z</time>
      </trkpt>
      <trkpt lat="38.782097026705742" lon="-9.484469024464488">
        <ele>160.19999999999999</ele>
        <time>2025-05-04T15:41:53Z</time>
      </trkpt>
      <trkpt lat="38.782168021425605" lon="-9.484570026397705">
        <ele>160.68000000000001</ele>
        <time>2025-05-04T15:41:54Z</time>
      </trkpt>
      <trkpt lat="38.782248990610242" lon="-9.48462501168251">
        <ele>160.68000000000001</ele>
        <time>2025-05-04T15:41:55Z</time>
      </trkpt>
      <trkpt lat="38.782335994765162" lon="-9.484685026109219">
        <ele>160.68000000000001</ele>
        <time>2025-05-04T15:41:56Z</time>
      </trkpt>
      <trkpt lat="38.782419981434941" lon="-9.484742023050785">
        <ele>160.19999999999999</ele>
        <time>2025-05-04T15:41:57Z</time>
      </trkpt>
      <trkpt lat="38.78250396810472" lon="-9.484800025820732">
        <ele>160.19999999999999</ele>
        <time>2025-05-04T15:41:58Z</time>
      </trkpt>
      <trkpt lat="38.782611005008221" lon="-9.484923994168639">
        <ele>159.72</ele>
        <time>2025-05-04T15:41:59Z</time>
      </trkpt>
      <trkpt lat="38.782669007778168" lon="-9.485045028850436">
        <ele>159.72</ele>
        <time>2025-05-04T15:42:00Z</time>
      </trkpt>
      <trkpt lat="38.782728016376495" lon="-9.485167991369963">
        <ele>159.24000000000001</ele>
        <time>2025-05-04T15:42:01Z</time>
      </trkpt>
      <trkpt lat="38.782928008586168" lon="-9.485860001295805">
        <ele>157.31</ele>
        <time>2025-05-04T15:42:06Z</time>
      </trkpt>
      <trkpt lat="38.782980982214212" lon="-9.486428964883089">
        <ele>157.78999999999999</ele>
        <time>2025-05-04T15:42:10Z</time>
      </trkpt>
      <trkpt lat="38.783030016347766" lon="-9.486577995121479">
        <ele>158.75</ele>
        <time>2025-05-04T15:42:11Z</time>
      </trkpt>
      <trkpt lat="38.783145016059279" lon="-9.487037993967533">
        <ele>160.19999999999999</ele>
        <time>2025-05-04T15:42:14Z</time>
      </trkpt>
      <trkpt lat="38.783139986917377" lon="-9.487173026427627">
        <ele>160.68000000000001</ele>
        <time>2025-05-04T15:42:15Z</time>
      </trkpt>
      <trkpt lat="38.783120037987828" lon="-9.487289031967521">
        <ele>160.68000000000001</ele>
        <time>2025-05-04T15:42:16Z</time>
      </trkpt>
      <trkpt lat="38.783106962218881" lon="-9.487370001152158">
        <ele>160.68000000000001</ele>
        <time>2025-05-04T15:42:17Z</time>
      </trkpt>
      <trkpt lat="38.783100005239248" lon="-9.487409982830286">
        <ele>161.16</ele>
        <time>2025-05-04T15:42:18Z</time>
      </trkpt>
      <trkpt lat="38.783095981925726" lon="-9.487434960901737">
        <ele>161.16</ele>
        <time>2025-05-04T15:42:19Z</time>
      </trkpt>
      <trkpt lat="38.783095981925726" lon="-9.487434960901737">
        <ele>161.16</ele>
        <time>2025-05-04T15:42:20Z</time>
      </trkpt>
      <trkpt lat="38.783095981925726" lon="-9.487434960901737">
        <ele>161.63999999999999</ele>
        <time>2025-05-04T15:42:38Z</time>
      </trkpt>
      <trkpt lat="38.783061029389501" lon="-9.487709971144795">
        <ele>157.78999999999999</ele>
        <time>2025-05-04T15:42:54Z</time>
      </trkpt>
      <trkpt lat="38.783033033832908" lon="-9.487943993881345">
        <ele>153.47</ele>
        <time>2025-05-04T15:43:05Z</time>
      </trkpt>
      <trkpt lat="38.783033033832908" lon="-9.487943993881345">
        <ele>153.47</ele>
        <time>2025-05-04T15:43:38Z</time>
      </trkpt>
      <trkpt lat="38.783029010519385" lon="-9.487981963902712">
        <ele>152.99000000000001</ele>
        <time>2025-05-04T15:43:48Z</time>
      </trkpt>
      <trkpt lat="38.783023981377482" lon="-9.488023035228252">
        <ele>152.99000000000001</ele>
        <time>2025-05-04T15:43:49Z</time>
      </trkpt>
      <trkpt lat="38.78301702439785" lon="-9.488082965835929">
        <ele>152.50999999999999</ele>
        <time>2025-05-04T15:43:50Z</time>
      </trkpt>
      <trkpt lat="38.782917028293014" lon="-9.488910008221865">
        <ele>151.53999999999999</ele>
        <time>2025-05-04T15:43:57Z</time>
      </trkpt>
      <trkpt lat="38.782896995544434" lon="-9.489075969904661">
        <ele>151.53999999999999</ele>
        <time>2025-05-04T15:43:58Z</time>
      </trkpt>
      <trkpt lat="38.782914010807872" lon="-9.489226005971432">
        <ele>151.06</ele>
        <time>2025-05-04T15:43:59Z</time>
      </trkpt>
      <trkpt lat="38.782993974164128" lon="-9.490112978965044">
        <ele>150.09999999999999</ele>
        <time>2025-05-04T15:44:05Z</time>
      </trkpt>
      <trkpt lat="38.78297402523458" lon="-9.490238958969712">
        <ele>150.09999999999999</ele>
        <time>2025-05-04T15:44:06Z</time>
      </trkpt>
      <trkpt lat="38.782756011933088" lon="-9.491658015176654">
        <ele>143.84999999999999</ele>
        <time>2025-05-04T15:44:18Z</time>
      </trkpt>
      <trkpt lat="38.782409001141787" lon="-9.493445036932826">
        <ele>135.19999999999999</ele>
        <time>2025-05-04T15:44:32Z</time>
      </trkpt>
      <trkpt lat="38.782387962564826" lon="-9.493576968088746">
        <ele>134.72</ele>
        <time>2025-05-04T15:44:33Z</time>
      </trkpt>
      <trkpt lat="38.782295007258654" lon="-9.494150038808584">
        <ele>133.75999999999999</ele>
        <time>2025-05-04T15:44:38Z</time>
      </trkpt>
      <trkpt lat="38.782271035015583" lon="-9.494274007156491">
        <ele>133.75999999999999</ele>
        <time>2025-05-04T15:44:39Z</time>
      </trkpt>
      <trkpt lat="38.781777005642653" lon="-9.495156034827232">
        <ele>132.31999999999999</ele>
        <time>2025-05-04T15:44:48Z</time>
      </trkpt>
      <trkpt lat="38.781748004257679" lon="-9.495276985689998">
        <ele>131.84</ele>
        <time>2025-05-04T15:44:49Z</time>
      </trkpt>
      <trkpt lat="38.781721014529467" lon="-9.495390979573131">
        <ele>131.36000000000001</ele>
        <time>2025-05-04T15:44:50Z</time>
      </trkpt>
      <trkpt lat="38.78172998316586" lon="-9.49549600481987">
        <ele>131.36000000000001</ele>
        <time>2025-05-04T15:44:51Z</time>
      </trkpt>
      <trkpt lat="38.781745992600918" lon="-9.4956049695611">
        <ele>131.36000000000001</ele>
        <time>2025-05-04T15:44:52Z</time>
      </trkpt>
      <trkpt lat="38.781759990379214" lon="-9.495704965665937">
        <ele>131.36000000000001</ele>
        <time>2025-05-04T15:44:53Z</time>
      </trkpt>
      <trkpt lat="38.78177298232913" lon="-9.495798004791141">
        <ele>131.36000000000001</ele>
        <time>2025-05-04T15:44:54Z</time>
      </trkpt>
      <trkpt lat="38.781785974279046" lon="-9.495890038087964">
        <ele>131.36000000000001</ele>
        <time>2025-05-04T15:44:55Z</time>
      </trkpt>
      <trkpt lat="38.781957970932126" lon="-9.496481968089938">
        <ele>133.75999999999999</ele>
        <time>2025-05-04T15:45:02Z</time>
      </trkpt>
      <trkpt lat="38.781974986195564" lon="-9.496543994173408">
        <ele>134.24000000000001</ele>
        <time>2025-05-04T15:45:03Z</time>
      </trkpt>
      <trkpt lat="38.781967023387551" lon="-9.49663401581347">
        <ele>134.24000000000001</ele>
        <time>2025-05-04T15:45:04Z</time>
      </trkpt>
      <trkpt lat="38.781960988417268" lon="-9.496710961684585">
        <ele>134.72</ele>
        <time>2025-05-04T15:45:05Z</time>
      </trkpt>
      <trkpt lat="38.781953025609255" lon="-9.496800983324647">
        <ele>135.19999999999999</ele>
        <time>2025-05-04T15:45:06Z</time>
      </trkpt>
      <trkpt lat="38.781918995082378" lon="-9.496858986094594">
        <ele>135.19999999999999</ele>
        <time>2025-05-04T15:45:07Z</time>
      </trkpt>
      <trkpt lat="38.781868033111095" lon="-9.496926041319966">
        <ele>135.19999999999999</ele>
        <time>2025-05-04T15:45:08Z</time>
      </trkpt>
      <trkpt lat="38.781813969835639" lon="-9.496970968320966">
        <ele>135.68000000000001</ele>
        <time>2025-05-04T15:45:09Z</time>
      </trkpt>
      <trkpt lat="38.781573995947838" lon="-9.497170960530639">
        <ele>138.09</ele>
        <time>2025-05-04T15:45:17Z</time>
      </trkpt>
      <trkpt lat="38.781291022896767" lon="-9.497447982430458">
        <ele>138.56999999999999</ele>
        <time>2025-05-04T15:45:28Z</time>
      </trkpt>
      <trkpt lat="38.781020035967231" lon="-9.497676976025105">
        <ele>138.56999999999999</ele>
        <time>2025-05-04T15:45:39Z</time>
      </trkpt>
      <trkpt lat="38.780823983252048" lon="-9.497704971581698">
        <ele>136.16</ele>
        <time>2025-05-04T15:45:53Z</time>
      </trkpt>
      <trkpt lat="38.780751982703805" lon="-9.497680999338627">
        <ele>136.16</ele>
        <time>2025-05-04T15:46:10Z</time>
      </trkpt>
      <trkpt lat="38.780751982703805" lon="-9.497680999338627">
        <ele>136.16</ele>
        <time>2025-05-04T15:46:29Z</time>
      </trkpt>
      <trkpt lat="38.780678976327181" lon="-9.497679993510246">
        <ele>143.37</ele>
        <time>2025-05-04T16:06:16Z</time>
      </trkpt>
      <trkpt lat="38.780686017125845" lon="-9.497674964368343">
        <ele>143.37</ele>
        <time>2025-05-04T16:07:16Z</time>
      </trkpt>
      <trkpt lat="38.780687022954226" lon="-9.497674964368343">
        <ele>143.84999999999999</ele>
        <time>2025-05-04T16:08:08Z</time>
      </trkpt>
      <trkpt lat="38.780690962448716" lon="-9.497675970196724">
        <ele>143.84999999999999</ele>
        <time>2025-05-04T16:09:13Z</time>
      </trkpt>
      <trkpt lat="38.780691968277097" lon="-9.497675970196724">
        <ele>143.84999999999999</ele>
        <time>2025-05-04T16:10:08Z</time>
      </trkpt>
      <trkpt lat="38.780691968277097" lon="-9.497673958539963">
        <ele>143.84999999999999</ele>
        <time>2025-05-04T16:10:47Z</time>
      </trkpt>
      <trkpt lat="38.780620973557234" lon="-9.497696002945304">
        <ele>142.88999999999999</ele>
        <time>2025-05-04T16:10:58Z</time>
      </trkpt>
      <trkpt lat="38.780595995485783" lon="-9.497630037367344">
        <ele>141.44999999999999</ele>
        <time>2025-05-04T16:11:16Z</time>
      </trkpt>
      <trkpt lat="38.780594989657402" lon="-9.497627019882202">
        <ele>141.44999999999999</ele>
        <time>2025-05-04T16:12:05Z</time>
      </trkpt>
      <trkpt lat="38.780592978000641" lon="-9.497620984911919">
        <ele>140.97</ele>
        <time>2025-05-04T16:12:37Z</time>
      </trkpt>
      <trkpt lat="38.780579986050725" lon="-9.497562982141972">
        <ele>140.49000000000001</ele>
        <time>2025-05-04T16:12:40Z</time>
      </trkpt>
      <trkpt lat="38.780602030456066" lon="-9.497535992413759">
        <ele>140.97</ele>
        <time>2025-05-04T16:12:41Z</time>
      </trkpt>
      <trkpt lat="38.780621979385614" lon="-9.497519982978702">
        <ele>140.97</ele>
        <time>2025-05-04T16:12:42Z</time>
      </trkpt>
      <trkpt lat="38.780645029619336" lon="-9.497503973543644">
        <ele>140.97</ele>
        <time>2025-05-04T16:12:43Z</time>
      </trkpt>
      <trkpt lat="38.780665984377265" lon="-9.497487964108586">
        <ele>140.49000000000001</ele>
        <time>2025-05-04T16:12:44Z</time>
      </trkpt>
      <trkpt lat="38.780665984377265" lon="-9.497487964108586">
        <ele>140.49000000000001</ele>
        <time>2025-05-04T16:12:45Z</time>
      </trkpt>
      <trkpt lat="38.780751982703805" lon="-9.497453011572361">
        <ele>140.49000000000001</ele>
        <time>2025-05-04T16:12:48Z</time>
      </trkpt>
      <trkpt lat="38.780768997967243" lon="-9.4974319729954">
        <ele>140.49000000000001</ele>
        <time>2025-05-04T16:12:49Z</time>
      </trkpt>
      <trkpt lat="38.780785007402301" lon="-9.497411018237472">
        <ele>140.49000000000001</ele>
        <time>2025-05-04T16:12:50Z</time>
      </trkpt>
      <trkpt lat="38.780802022665739" lon="-9.49738897383213">
        <ele>140.49000000000001</ele>
        <time>2025-05-04T16:12:51Z</time>
      </trkpt>
      <trkpt lat="38.780820965766907" lon="-9.49736500158906">
        <ele>140.49000000000001</ele>
        <time>2025-05-04T16:12:52Z</time>
      </trkpt>
      <trkpt lat="38.780922973528504" lon="-9.496989995241165">
        <ele>140.00999999999999</ele>
        <time>2025-05-04T16:13:00Z</time>
      </trkpt>
      <trkpt lat="38.780964966863394" lon="-9.496963005512953">
        <ele>140.00999999999999</ele>
        <time>2025-05-04T16:13:01Z</time>
      </trkpt>
      <trkpt lat="38.781174011528492" lon="-9.496820010244846">
        <ele>140.00999999999999</ele>
        <time>2025-05-04T16:13:05Z</time>
      </trkpt>
      <trkpt lat="38.781210975721478" lon="-9.496758989989758">
        <ele>140.00999999999999</ele>
        <time>2025-05-04T16:13:06Z</time>
      </trkpt>
      <trkpt lat="38.781251041218638" lon="-9.496694030240178">
        <ele>140.00999999999999</ele>
        <time>2025-05-04T16:13:07Z</time>
      </trkpt>
      <trkpt lat="38.781290017068386" lon="-9.496629992499948">
        <ele>140.00999999999999</ele>
        <time>2025-05-04T16:13:09Z</time>
      </trkpt>
      <trkpt lat="38.781365035101771" lon="-9.496507029980421">
        <ele>140.00999999999999</ele>
        <time>2025-05-04T16:13:11Z</time>
      </trkpt>
      <trkpt lat="38.781524039804935" lon="-9.496371997520328">
        <ele>140.00999999999999</ele>
        <time>2025-05-04T16:13:14Z</time>
      </trkpt>
      <trkpt lat="38.781588999554515" lon="-9.496328998357058">
        <ele>140.49000000000001</ele>
        <time>2025-05-04T16:13:15Z</time>
      </trkpt>
      <trkpt lat="38.781627975404263" lon="-9.496268983930349">
        <ele>140.49000000000001</ele>
        <time>2025-05-04T16:13:16Z</time>
      </trkpt>
      <trkpt lat="38.781743980944157" lon="-9.496094975620508">
        <ele>140.49000000000001</ele>
        <time>2025-05-04T16:13:19Z</time>
      </trkpt>
      <trkpt lat="38.781778011471033" lon="-9.496046025305986">
        <ele>140.49000000000001</ele>
        <time>2025-05-04T16:13:20Z</time>
      </trkpt>
      <trkpt lat="38.78179200924933" lon="-9.49592599645257">
        <ele>140.49000000000001</ele>
        <time>2025-05-04T16:13:21Z</time>
      </trkpt>
      <trkpt lat="38.781767031177878" lon="-9.495752993971109">
        <ele>140.49000000000001</ele>
        <time>2025-05-04T16:13:22Z</time>
      </trkpt>
      <trkpt lat="38.781753033399582" lon="-9.495654003694654">
        <ele>140.97</ele>
        <time>2025-05-04T16:13:23Z</time>
      </trkpt>
      <trkpt lat="38.781738029792905" lon="-9.495553001761437">
        <ele>140.97</ele>
        <time>2025-05-04T16:13:24Z</time>
      </trkpt>
      <trkpt lat="38.781725037842989" lon="-9.495459962636232">
        <ele>140.97</ele>
        <time>2025-05-04T16:13:25Z</time>
      </trkpt>
      <trkpt lat="38.781723026186228" lon="-9.495382010936737">
        <ele>140.97</ele>
        <time>2025-05-04T16:13:26Z</time>
      </trkpt>
      <trkpt lat="38.781739035621285" lon="-9.495315961539745">
        <ele>140.97</ele>
        <time>2025-05-04T16:13:27Z</time>
      </trkpt>
      <trkpt lat="38.781754961237311" lon="-9.495248990133405">
        <ele>140.97</ele>
        <time>2025-05-04T16:13:28Z</time>
      </trkpt>
      <trkpt lat="38.781773988157511" lon="-9.495171960443258">
        <ele>140.97</ele>
        <time>2025-05-04T16:13:30Z</time>
      </trkpt>
      <trkpt lat="38.781812964007258" lon="-9.495008010417223">
        <ele>141.44999999999999</ele>
        <time>2025-05-04T16:13:32Z</time>
      </trkpt>
      <trkpt lat="38.782261982560158" lon="-9.494288004934788">
        <ele>144.34</ele>
        <time>2025-05-04T16:13:39Z</time>
      </trkpt>
      <trkpt lat="38.782261982560158" lon="-9.494288004934788">
        <ele>144.81999999999999</ele>
        <time>2025-05-04T16:13:40Z</time>
      </trkpt>
      <trkpt lat="38.782294001430273" lon="-9.494154984131455">
        <ele>144.81999999999999</ele>
        <time>2025-05-04T16:13:41Z</time>
      </trkpt>
      <trkpt lat="38.782315962016582" lon="-9.494019029662013">
        <ele>145.30000000000001</ele>
        <time>2025-05-04T16:13:42Z</time>
      </trkpt>
      <trkpt lat="38.782389974221587" lon="-9.493564981967211">
        <ele>146.74000000000001</ele>
        <time>2025-05-04T16:13:45Z</time>
      </trkpt>
      <trkpt lat="38.78241503611207" lon="-9.493408994749188">
        <ele>147.22</ele>
        <time>2025-05-04T16:13:46Z</time>
      </trkpt>
      <trkpt lat="38.782767998054624" lon="-9.491578973829746">
        <ele>155.38999999999999</ele>
        <time>2025-05-04T16:13:57Z</time>
      </trkpt>
      <trkpt lat="38.782978970557451" lon="-9.490208029747009">
        <ele>160.68000000000001</ele>
        <time>2025-05-04T16:14:05Z</time>
      </trkpt>
      <trkpt lat="38.783004032447934" lon="-9.490034021437168">
        <ele>161.16</ele>
        <time>2025-05-04T16:14:06Z</time>
      </trkpt>
      <trkpt lat="38.782905964180827" lon="-9.489155011251569">
        <ele>162.12</ele>
        <time>2025-05-04T16:14:11Z</time>
      </trkpt>
      <trkpt lat="38.782908981665969" lon="-9.488981002941728">
        <ele>162.59999999999999</ele>
        <time>2025-05-04T16:14:12Z</time>
      </trkpt>
      <trkpt lat="38.783021969720721" lon="-9.488037033006549">
        <ele>166.93000000000001</ele>
        <time>2025-05-04T16:14:19Z</time>
      </trkpt>
      <trkpt lat="38.783034961670637" lon="-9.48793200775981">
        <ele>167.41</ele>
        <time>2025-05-04T16:14:20Z</time>
      </trkpt>
      <trkpt lat="38.78306002356112" lon="-9.487724974751473">
        <ele>168.37</ele>
        <time>2025-05-04T16:14:22Z</time>
      </trkpt>
      <trkpt lat="38.783098999410868" lon="-9.48741601780057">
        <ele>169.81</ele>
        <time>2025-05-04T16:14:25Z</time>
      </trkpt>
      <trkpt lat="38.783116014674306" lon="-9.487311998382211">
        <ele>169.81</ele>
        <time>2025-05-04T16:14:26Z</time>
      </trkpt>
      <trkpt lat="38.783134035766125" lon="-9.487204039469361">
        <ele>169.81</ele>
        <time>2025-05-04T16:14:27Z</time>
      </trkpt>
      <trkpt lat="38.783124983310699" lon="-9.486945038661361">
        <ele>169.81</ele>
        <time>2025-05-04T16:14:28Z</time>
      </trkpt>
      <trkpt lat="38.783124983310699" lon="-9.486945038661361">
        <ele>169.81</ele>
        <time>2025-05-04T16:14:29Z</time>
      </trkpt>
      <trkpt lat="38.783028004691005" lon="-9.486571038141847">
        <ele>169.81</ele>
        <time>2025-05-04T16:14:32Z</time>
      </trkpt>
      <trkpt lat="38.782985005527735" lon="-9.486442040652037">
        <ele>169.33000000000001</ele>
        <time>2025-05-04T16:14:33Z</time>
      </trkpt>
      <trkpt lat="38.782946029677987" lon="-9.486146997660399">
        <ele>168.84999999999999</ele>
        <time>2025-05-04T16:14:35Z</time>
      </trkpt>
      <trkpt lat="38.782935971394181" lon="-9.485992016270757">
        <ele>168.37</ele>
        <time>2025-05-04T16:14:36Z</time>
      </trkpt>
      <trkpt lat="38.782927002757788" lon="-9.485839968547225">
        <ele>167.88999999999999</ele>
        <time>2025-05-04T16:14:37Z</time>
      </trkpt>
      <trkpt lat="38.78291099332273" lon="-9.485680963844061">
        <ele>167.88999999999999</ele>
        <time>2025-05-04T16:14:38Z</time>
      </trkpt>
      <trkpt lat="38.78286799415946" lon="-9.48554802685976">
        <ele>167.88999999999999</ele>
        <time>2025-05-04T16:14:39Z</time>
      </trkpt>
      <trkpt lat="38.782620979472995" lon="-9.484944026917219">
        <ele>168.84999999999999</ele>
        <time>2025-05-04T16:14:43Z</time>
      </trkpt>
      <trkpt lat="38.782556019723415" lon="-9.484835984185338">
        <ele>169.81</ele>
        <time>2025-05-04T16:14:45Z</time>
      </trkpt>
      <trkpt lat="38.782470021396875" lon="-9.48477697558701">
        <ele>170.28999999999999</ele>
        <time>2025-05-04T16:14:46Z</time>
      </trkpt>
      <trkpt lat="38.782203979790211" lon="-9.484595004469156">
        <ele>170.77000000000001</ele>
        <time>2025-05-04T16:14:48Z</time>
      </trkpt>
      <trkpt lat="38.782203979790211" lon="-9.484595004469156">
        <ele>170.77000000000001</ele>
        <time>2025-05-04T16:14:49Z</time>
      </trkpt>
      <trkpt lat="38.781993007287383" lon="-9.484322005882859">
        <ele>171.25</ele>
        <time>2025-05-04T16:14:51Z</time>
      </trkpt>
      <trkpt lat="38.781993007287383" lon="-9.484322005882859">
        <ele>171.25</ele>
        <time>2025-05-04T16:14:52Z</time>
      </trkpt>
      <trkpt lat="38.781808018684387" lon="-9.484189990907908">
        <ele>171.25</ele>
        <time>2025-05-04T16:14:53Z</time>
      </trkpt>
      <trkpt lat="38.781699975952506" lon="-9.484172975644469">
        <ele>171.72999999999999</ele>
        <time>2025-05-04T16:14:54Z</time>
      </trkpt>
      <trkpt lat="38.781699975952506" lon="-9.484172975644469">
        <ele>171.72999999999999</ele>
        <time>2025-05-04T16:14:55Z</time>
      </trkpt>
      <trkpt lat="38.781581958755851" lon="-9.48417398147285">
        <ele>172.21000000000001</ele>
        <time>2025-05-04T16:14:56Z</time>
      </trkpt>
      <trkpt lat="38.78112799488008" lon="-9.484265008941293">
        <ele>173.66</ele>
        <time>2025-05-04T16:15:00Z</time>
      </trkpt>
      <trkpt lat="38.781014000996947" lon="-9.484255034476519">
        <ele>174.62</ele>
        <time>2025-05-04T16:15:01Z</time>
      </trkpt>
      <trkpt lat="38.780899001285434" lon="-9.484244976192713">
        <ele>175.09999999999999</ele>
        <time>2025-05-04T16:15:02Z</time>
      </trkpt>
      <trkpt lat="38.78078400157392" lon="-9.484235001727939">
        <ele>176.06</ele>
        <time>2025-05-04T16:15:03Z</time>
      </trkpt>
      <trkpt lat="38.780687022954226" lon="-9.484227038919926">
        <ele>177.02000000000001</ele>
        <time>2025-05-04T16:15:04Z</time>
      </trkpt>
      <trkpt lat="38.780536986887455" lon="-9.484054958447814">
        <ele>178.46000000000001</ele>
        <time>2025-05-04T16:15:05Z</time>
      </trkpt>
      <trkpt lat="38.780536986887455" lon="-9.484054958447814">
        <ele>179.41999999999999</ele>
        <time>2025-05-04T16:15:06Z</time>
      </trkpt>
      <trkpt lat="38.7805260065943" lon="-9.483954040333629">
        <ele>180.38</ele>
        <time>2025-05-04T16:15:07Z</time>
      </trkpt>
      <trkpt lat="38.780523994937539" lon="-9.483842980116606">
        <ele>181.83000000000001</ele>
        <time>2025-05-04T16:15:08Z</time>
      </trkpt>
      <trkpt lat="38.780570011585951" lon="-9.483738038688898">
        <ele>182.78999999999999</ele>
        <time>2025-05-04T16:15:09Z</time>
      </trkpt>
      <trkpt lat="38.780616028234363" lon="-9.483632007613778">
        <ele>183.75</ele>
        <time>2025-05-04T16:15:10Z</time>
      </trkpt>
      <trkpt lat="38.780661961063743" lon="-9.483526982367039">
        <ele>184.71000000000001</ele>
        <time>2025-05-04T16:15:11Z</time>
      </trkpt>
      <trkpt lat="38.780665984377265" lon="-9.483394967392087">
        <ele>186.15000000000001</ele>
        <time>2025-05-04T16:15:12Z</time>
      </trkpt>
      <trkpt lat="38.780665984377265" lon="-9.483266975730658">
        <ele>187.11000000000001</ele>
        <time>2025-05-04T16:15:13Z</time>
      </trkpt>
      <trkpt lat="38.780665984377265" lon="-9.483011998236179">
        <ele>188.08000000000001</ele>
        <time>2025-05-04T16:15:14Z</time>
      </trkpt>
      <trkpt lat="38.780646035447717" lon="-9.482903033494949">
        <ele>189.03999999999999</ele>
        <time>2025-05-04T16:15:15Z</time>
      </trkpt>
      <trkpt lat="38.780646035447717" lon="-9.482902027666569">
        <ele>190</ele>
        <time>2025-05-04T16:15:16Z</time>
      </trkpt>
      <trkpt lat="38.780579986050725" lon="-9.482690971344709">
        <ele>190.96000000000001</ele>
        <time>2025-05-04T16:15:17Z</time>
      </trkpt>
      <trkpt lat="38.780579986050725" lon="-9.482690971344709">
        <ele>192.40000000000001</ele>
        <time>2025-05-04T16:15:18Z</time>
      </trkpt>
      <trkpt lat="38.780520977452397" lon="-9.482598016038537">
        <ele>193.36000000000001</ele>
        <time>2025-05-04T16:15:19Z</time>
      </trkpt>
      <trkpt lat="38.780384017154574" lon="-9.48243398219347">
        <ele>194.31999999999999</ele>
        <time>2025-05-04T16:15:20Z</time>
      </trkpt>
      <trkpt lat="38.780307993292809" lon="-9.482372039929032">
        <ele>195.77000000000001</ele>
        <time>2025-05-04T16:15:21Z</time>
      </trkpt>
      <trkpt lat="38.780307993292809" lon="-9.482372039929032">
        <ele>196.72999999999999</ele>
        <time>2025-05-04T16:15:22Z</time>
      </trkpt>
      <trkpt lat="38.780162986367941" lon="-9.482271960005164">
        <ele>198.16999999999999</ele>
        <time>2025-05-04T16:15:23Z</time>
      </trkpt>
      <trkpt lat="38.780081011354923" lon="-9.482233989983797">
        <ele>199.13</ele>
        <time>2025-05-04T16:15:24Z</time>
      </trkpt>
      <trkpt lat="38.780081011354923" lon="-9.482233989983797">
        <ele>200.09</ele>
        <time>2025-05-04T16:15:25Z</time>
      </trkpt>
      <trkpt lat="38.779895016923547" lon="-9.482171041890979">
        <ele>201.05000000000001</ele>
        <time>2025-05-04T16:15:26Z</time>
      </trkpt>
      <trkpt lat="38.779895016923547" lon="-9.482171041890979">
        <ele>202.49000000000001</ele>
        <time>2025-05-04T16:15:27Z</time>
      </trkpt>
      <trkpt lat="38.779798960313201" lon="-9.482182022184134">
        <ele>203.46000000000001</ele>
        <time>2025-05-04T16:15:28Z</time>
      </trkpt>
      <trkpt lat="38.779274001717567" lon="-9.482258968055248">
        <ele>207.30000000000001</ele>
        <time>2025-05-04T16:15:33Z</time>
      </trkpt>
      <trkpt lat="38.77917199395597" lon="-9.48230498470366">
        <ele>208.25999999999999</ele>
        <time>2025-05-04T16:15:34Z</time>
      </trkpt>
      <trkpt lat="38.779065040871501" lon="-9.482357036322355">
        <ele>209.22</ele>
        <time>2025-05-04T16:15:35Z</time>
      </trkpt>
      <trkpt lat="38.778646029531956" lon="-9.48262601159513">
        <ele>211.63</ele>
        <time>2025-05-04T16:15:39Z</time>
      </trkpt>
      <trkpt lat="38.778551984578371" lon="-9.482700023800135">
        <ele>212.59</ele>
        <time>2025-05-04T16:15:40Z</time>
      </trkpt>
      <trkpt lat="38.778467997908592" lon="-9.482731036841869">
        <ele>213.06999999999999</ele>
        <time>2025-05-04T16:15:41Z</time>
      </trkpt>
      <trkpt lat="38.778374036774039" lon="-9.482741011306644">
        <ele>214.03</ele>
        <time>2025-05-04T16:15:42Z</time>
      </trkpt>
      <trkpt lat="38.778299018740654" lon="-9.482730031013489">
        <ele>214.50999999999999</ele>
        <time>2025-05-04T16:15:43Z</time>
      </trkpt>
      <trkpt lat="38.778216959908605" lon="-9.482683008536696">
        <ele>215.47</ele>
        <time>2025-05-04T16:15:44Z</time>
      </trkpt>
      <trkpt lat="38.777912026271224" lon="-9.482453009113669">
        <ele>217.40000000000001</ele>
        <time>2025-05-04T16:15:48Z</time>
      </trkpt>
      <trkpt lat="38.777333004400134" lon="-9.482173975557089">
        <ele>221.24000000000001</ele>
        <time>2025-05-04T16:15:54Z</time>
      </trkpt>
      <trkpt lat="38.77723703160882" lon="-9.482126031070948">
        <ele>222.19999999999999</ele>
        <time>2025-05-04T16:15:55Z</time>
      </trkpt>
      <trkpt lat="38.777146004140377" lon="-9.482080014422536">
        <ele>222.68000000000001</ele>
        <time>2025-05-04T16:15:56Z</time>
      </trkpt>
      <trkpt lat="38.777054976671934" lon="-9.482031986117363">
        <ele>223.16</ele>
        <time>2025-05-04T16:15:57Z</time>
      </trkpt>
      <trkpt lat="38.776908041909337" lon="-9.48187398724258">
        <ele>223.63999999999999</ele>
        <time>2025-05-04T16:15:58Z</time>
      </trkpt>
      <trkpt lat="38.776908041909337" lon="-9.48187398724258">
        <ele>224.12</ele>
        <time>2025-05-04T16:15:59Z</time>
      </trkpt>
      <trkpt lat="38.776837969198823" lon="-9.481798969209194">
        <ele>225.09</ele>
        <time>2025-05-04T16:16:00Z</time>
      </trkpt>
      <trkpt lat="38.776691034436226" lon="-9.481653962284327">
        <ele>225.56999999999999</ele>
        <time>2025-05-04T16:16:01Z</time>
      </trkpt>
      <trkpt lat="38.776546027511358" lon="-9.481523958966136">
        <ele>227.49000000000001</ele>
        <time>2025-05-04T16:16:04Z</time>
      </trkpt>
      <trkpt lat="38.776198010891676" lon="-9.481270993128419">
        <ele>231.33000000000001</ele>
        <time>2025-05-04T16:16:11Z</time>
      </trkpt>
      <trkpt lat="38.776143025606871" lon="-9.481246015056968">
        <ele>231.81</ele>
        <time>2025-05-04T16:16:12Z</time>
      </trkpt>
      <trkpt lat="38.775467025116086" lon="-9.480809988453984">
        <ele>234.69999999999999</ele>
        <time>2025-05-04T16:16:21Z</time>
      </trkpt>
      <trkpt lat="38.774519031867385" lon="-9.480170030146837">
        <ele>239.99000000000001</ele>
        <time>2025-05-04T16:16:32Z</time>
      </trkpt>
      <trkpt lat="38.773681009188294" lon="-9.479439966380596">
        <ele>244.78999999999999</ele>
        <time>2025-05-04T16:16:41Z</time>
      </trkpt>
      <trkpt lat="38.773681009188294" lon="-9.479439966380596">
        <ele>245.27000000000001</ele>
        <time>2025-05-04T16:16:42Z</time>
      </trkpt>
      <trkpt lat="38.772692028433084" lon="-9.478773018345237">
        <ele>250.56</ele>
        <time>2025-05-04T16:16:50Z</time>
      </trkpt>
      <trkpt lat="38.772590020671487" lon="-9.478690037503839">
        <ele>251.52000000000001</ele>
        <time>2025-05-04T16:16:51Z</time>
      </trkpt>
      <trkpt lat="38.772590020671487" lon="-9.478690037503839">
        <ele>252.47999999999999</ele>
        <time>2025-05-04T16:16:52Z</time>
      </trkpt>
      <trkpt lat="38.772397991269827" lon="-9.478489961475134">
        <ele>253.44</ele>
        <time>2025-05-04T16:16:53Z</time>
      </trkpt>
      <trkpt lat="38.772397991269827" lon="-9.478489961475134">
        <ele>254.41</ele>
        <time>2025-05-04T16:16:54Z</time>
      </trkpt>
      <trkpt lat="38.772307969629765" lon="-9.478380996733904">
        <ele>255.37</ele>
        <time>2025-05-04T16:16:55Z</time>
      </trkpt>
      <trkpt lat="38.772133961319923" lon="-9.478172035887837">
        <ele>255.84999999999999</ele>
        <time>2025-05-04T16:16:56Z</time>
      </trkpt>
      <trkpt lat="38.771979985758662" lon="-9.47798796929419">
        <ele>257.76999999999998</ele>
        <time>2025-05-04T16:16:59Z</time>
      </trkpt>
      <trkpt lat="38.77195299603045" lon="-9.477882022038102">
        <ele>258.73000000000002</ele>
        <time>2025-05-04T16:17:00Z</time>
      </trkpt>
      <trkpt lat="38.771928017958999" lon="-9.47777003981173">
        <ele>259.20999999999998</ele>
        <time>2025-05-04T16:17:01Z</time>
      </trkpt>
      <trkpt lat="38.77184696495533" lon="-9.47719101794064">
        <ele>263.54000000000002</ele>
        <time>2025-05-04T16:17:06Z</time>
      </trkpt>
      <trkpt lat="38.77184696495533" lon="-9.477060008794069">
        <ele>264.01999999999998</ele>
        <time>2025-05-04T16:17:07Z</time>
      </trkpt>
      <trkpt lat="38.771893987432122" lon="-9.4769979827106">
        <ele>264.98000000000002</ele>
        <time>2025-05-04T16:17:08Z</time>
      </trkpt>
      <trkpt lat="38.771969005465508" lon="-9.476927993819118">
        <ele>265.94</ele>
        <time>2025-05-04T16:17:09Z</time>
      </trkpt>
      <trkpt lat="38.772053997963667" lon="-9.476860016584396">
        <ele>266.42000000000002</ele>
        <time>2025-05-04T16:17:10Z</time>
      </trkpt>
      <trkpt lat="38.77233998849988" lon="-9.47663102298975">
        <ele>269.31</ele>
        <time>2025-05-04T16:17:13Z</time>
      </trkpt>
      <trkpt lat="38.772636959329247" lon="-9.476447040215135">
        <ele>271.70999999999998</ele>
        <time>2025-05-04T16:17:16Z</time>
      </trkpt>
      <trkpt lat="38.772924961522222" lon="-9.476278983056545">
        <ele>274.58999999999997</ele>
        <time>2025-05-04T16:17:19Z</time>
      </trkpt>
      <trkpt lat="38.77309100702405" lon="-9.476116038858891">
        <ele>279.39999999999998</ele>
        <time>2025-05-04T16:17:27Z</time>
      </trkpt>
      <trkpt lat="38.77311103977263" lon="-9.476044960319996">
        <ele>280.36000000000001</ele>
        <time>2025-05-04T16:17:36Z</time>
      </trkpt>
      <trkpt lat="38.77311103977263" lon="-9.476044960319996">
        <ele>280.83999999999997</ele>
        <time>2025-05-04T16:17:38Z</time>
      </trkpt>
      <trkpt lat="38.773050019517541" lon="-9.475924009457231">
        <ele>280.83999999999997</ele>
        <time>2025-05-04T16:17:39Z</time>
      </trkpt>
      <trkpt lat="38.773019006475806" lon="-9.475908000022173">
        <ele>280.83999999999997</ele>
        <time>2025-05-04T16:17:40Z</time>
      </trkpt>
      <trkpt lat="38.77296301536262" lon="-9.47588000446558">
        <ele>280.83999999999997</ele>
        <time>2025-05-04T16:17:41Z</time>
      </trkpt>
      <trkpt lat="38.772903000935912" lon="-9.475825019180775">
        <ele>280.83999999999997</ele>
        <time>2025-05-04T16:17:42Z</time>
      </trkpt>
      <trkpt lat="38.772853966802359" lon="-9.47572804056108">
        <ele>280.83999999999997</ele>
        <time>2025-05-04T16:17:43Z</time>
      </trkpt>
      <trkpt lat="38.77281297929585" lon="-9.475627038627863">
        <ele>280.83999999999997</ele>
        <time>2025-05-04T16:17:44Z</time>
      </trkpt>
      <trkpt lat="38.772819014266133" lon="-9.475503992289305">
        <ele>280.36000000000001</ele>
        <time>2025-05-04T16:17:45Z</time>
      </trkpt>
      <trkpt lat="38.772824965417385" lon="-9.475368037819862">
        <ele>280.36000000000001</ele>
        <time>2025-05-04T16:17:46Z</time>
      </trkpt>
      <trkpt lat="38.772875005379319" lon="-9.474606961011887">
        <ele>279.39999999999998</ele>
        <time>2025-05-04T16:17:50Z</time>
      </trkpt>
      <trkpt lat="38.772875005379319" lon="-9.474606961011887">
        <ele>278.92000000000002</ele>
        <time>2025-05-04T16:17:51Z</time>
      </trkpt>
      <trkpt lat="38.772946000099182" lon="-9.474277971312404">
        <ele>278.44</ele>
        <time>2025-05-04T16:17:52Z</time>
      </trkpt>
      <trkpt lat="38.773174993693829" lon="-9.473633989691734">
        <ele>277.48000000000002</ele>
        <time>2025-05-04T16:17:57Z</time>
      </trkpt>
      <trkpt lat="38.773342967033386" lon="-9.473397033289075">
        <ele>277</ele>
        <time>2025-05-04T16:17:58Z</time>
      </trkpt>
      <trkpt lat="38.773438017815351" lon="-9.473264012485743">
        <ele>276.04000000000002</ele>
        <time>2025-05-04T16:18:00Z</time>
      </trkpt>
      <trkpt lat="38.773645972833037" lon="-9.47293602861464">
        <ele>275.56</ele>
        <time>2025-05-04T16:18:01Z</time>
      </trkpt>
      <trkpt lat="38.773835990577936" lon="-9.472581977024674">
        <ele>272.67000000000002</ele>
        <time>2025-05-04T16:18:04Z</time>
      </trkpt>
      <trkpt lat="38.773919977247715" lon="-9.472211999818683">
        <ele>271.70999999999998</ele>
        <time>2025-05-04T16:18:05Z</time>
      </trkpt>
      <trkpt lat="38.773900028318167" lon="-9.472065987065435">
        <ele>271.23000000000002</ele>
        <time>2025-05-04T16:18:06Z</time>
      </trkpt>
      <trkpt lat="38.773900028318167" lon="-9.472065987065435">
        <ele>270.75</ele>
        <time>2025-05-04T16:18:07Z</time>
      </trkpt>
      <trkpt lat="38.773847976699471" lon="-9.471919974312186">
        <ele>270.75</ele>
        <time>2025-05-04T16:18:08Z</time>
      </trkpt>
      <trkpt lat="38.773785028606653" lon="-9.471817966550589">
        <ele>270.26999999999998</ele>
        <time>2025-05-04T16:18:09Z</time>
      </trkpt>
      <trkpt lat="38.773677991703153" lon="-9.471735991537571">
        <ele>269.79000000000002</ele>
        <time>2025-05-04T16:18:10Z</time>
      </trkpt>
      <trkpt lat="38.773562991991639" lon="-9.47164898738265">
        <ele>269.31</ele>
        <time>2025-05-04T16:18:11Z</time>
      </trkpt>
      <trkpt lat="38.773444974794984" lon="-9.471543040126562">
        <ele>268.82999999999998</ele>
        <time>2025-05-04T16:18:12Z</time>
      </trkpt>
      <trkpt lat="38.773376997560263" lon="-9.471388980746269">
        <ele>268.35000000000002</ele>
        <time>2025-05-04T16:18:13Z</time>
      </trkpt>
      <trkpt lat="38.7733060028404" lon="-9.471227964386344">
        <ele>267.86000000000001</ele>
        <time>2025-05-04T16:18:14Z</time>
      </trkpt>
      <trkpt lat="38.773037027567625" lon="-9.470535032451153">
        <ele>265.45999999999998</ele>
        <time>2025-05-04T16:18:18Z</time>
      </trkpt>
      <trkpt lat="38.772983970120549" lon="-9.470387008041143">
        <ele>264.98000000000002</ele>
        <time>2025-05-04T16:18:19Z</time>
      </trkpt>
      <trkpt lat="38.772904006764293" lon="-9.470265973359346">
        <ele>264.5</ele>
        <time>2025-05-04T16:18:20Z</time>
      </trkpt>
      <trkpt lat="38.772825971245766" lon="-9.470180980861187">
        <ele>264.01999999999998</ele>
        <time>2025-05-04T16:18:21Z</time>
      </trkpt>
      <trkpt lat="38.772729998454452" lon="-9.470139993354678">
        <ele>263.54000000000002</ele>
        <time>2025-05-04T16:18:22Z</time>
      </trkpt>
      <trkpt lat="38.772632014006376" lon="-9.47018601000309">
        <ele>263.06</ele>
        <time>2025-05-04T16:18:23Z</time>
      </trkpt>
      <trkpt lat="38.772541992366314" lon="-9.470255998894572">
        <ele>262.57999999999998</ele>
        <time>2025-05-04T16:18:24Z</time>
      </trkpt>
      <trkpt lat="38.772466974332929" lon="-9.470384996384382">
        <ele>262.10000000000002</ele>
        <time>2025-05-04T16:18:25Z</time>
      </trkpt>
      <trkpt lat="38.772396985441446" lon="-9.470547018572688">
        <ele>261.62</ele>
        <time>2025-05-04T16:18:26Z</time>
      </trkpt>
      <trkpt lat="38.772234041243792" lon="-9.470930993556976">
        <ele>260.17000000000002</ele>
        <time>2025-05-04T16:18:28Z</time>
      </trkpt>
      <trkpt lat="38.772056009620428" lon="-9.471326032653451">
        <ele>259.69</ele>
        <time>2025-05-04T16:18:29Z</time>
      </trkpt>
      <trkpt lat="38.771353019401431" lon="-9.472318030893803">
        <ele>256.81</ele>
        <time>2025-05-04T16:18:36Z</time>
      </trkpt>
      <trkpt lat="38.771173981949687" lon="-9.472650960087776">
        <ele>256.81</ele>
        <time>2025-05-04T16:18:37Z</time>
      </trkpt>
      <trkpt lat="38.770809033885598" lon="-9.473330983892083">
        <ele>255.37</ele>
        <time>2025-05-04T16:18:43Z</time>
      </trkpt>
      <trkpt lat="38.770740972831845" lon="-9.473458975553513">
        <ele>255.37</ele>
        <time>2025-05-04T16:18:44Z</time>
      </trkpt>
      <trkpt lat="38.770638965070248" lon="-9.473542040213943">
        <ele>255.37</ele>
        <time>2025-05-04T16:18:45Z</time>
      </trkpt>
      <trkpt lat="38.770525977015495" lon="-9.47362300939858">
        <ele>255.37</ele>
        <time>2025-05-04T16:18:46Z</time>
      </trkpt>
      <trkpt lat="38.770415000617504" lon="-9.473694004118443">
        <ele>255.37</ele>
        <time>2025-05-04T16:18:47Z</time>
      </trkpt>
      <trkpt lat="38.770157005637884" lon="-9.473745971918106">
        <ele>256.32999999999998</ele>
        <time>2025-05-04T16:18:49Z</time>
      </trkpt>
      <trkpt lat="38.76896501518786" lon="-9.473691992461681">
        <ele>259.20999999999998</ele>
        <time>2025-05-04T16:18:59Z</time>
      </trkpt>
      <trkpt lat="38.767697000876069" lon="-9.473393009975553">
        <ele>261.13999999999999</ele>
        <time>2025-05-04T16:19:09Z</time>
      </trkpt>
      <trkpt lat="38.767561968415976" lon="-9.473370965570211">
        <ele>261.13999999999999</ele>
        <time>2025-05-04T16:19:10Z</time>
      </trkpt>
      <trkpt lat="38.766785971820354" lon="-9.473411031067371">
        <ele>261.62</ele>
        <time>2025-05-04T16:19:16Z</time>
      </trkpt>
      <trkpt lat="38.766662003472447" lon="-9.473392004147172">
        <ele>261.62</ele>
        <time>2025-05-04T16:19:17Z</time>
      </trkpt>
      <trkpt lat="38.766547003760934" lon="-9.473369037732482">
        <ele>261.62</ele>
        <time>2025-05-04T16:19:18Z</time>
      </trkpt>
      <trkpt lat="38.765500020235777" lon="-9.472433030605316">
        <ele>259.20999999999998</ele>
        <time>2025-05-04T16:19:28Z</time>
      </trkpt>
      <trkpt lat="38.765330035239458" lon="-9.472222980111837">
        <ele>258.25</ele>
        <time>2025-05-04T16:19:30Z</time>
      </trkpt>
      <trkpt lat="38.765244036912918" lon="-9.472116027027369">
        <ele>257.76999999999998</ele>
        <time>2025-05-04T16:19:31Z</time>
      </trkpt>
      <trkpt lat="38.765179999172688" lon="-9.47199197486043">
        <ele>257.29000000000002</ele>
        <time>2025-05-04T16:19:32Z</time>
      </trkpt>
      <trkpt lat="38.765119984745979" lon="-9.47184101678431">
        <ele>256.81</ele>
        <time>2025-05-04T16:19:33Z</time>
      </trkpt>
      <trkpt lat="38.76505603082478" lon="-9.471680000424385">
        <ele>256.32999999999998</ele>
        <time>2025-05-04T16:19:34Z</time>
      </trkpt>
      <trkpt lat="38.764999033883214" lon="-9.471514038741589">
        <ele>255.84999999999999</ele>
        <time>2025-05-04T16:19:35Z</time>
      </trkpt>
      <trkpt lat="38.764920998364687" lon="-9.471354028210044">
        <ele>255.37</ele>
        <time>2025-05-04T16:19:36Z</time>
      </trkpt>
      <trkpt lat="38.764815973117948" lon="-9.47123902849853">
        <ele>254.88999999999999</ele>
        <time>2025-05-04T16:19:37Z</time>
      </trkpt>
      <trkpt lat="38.764707008376718" lon="-9.471128974109888">
        <ele>254.88999999999999</ele>
        <time>2025-05-04T16:19:38Z</time>
      </trkpt>
      <trkpt lat="38.764580022543669" lon="-9.471059991046786">
        <ele>254.41</ele>
        <time>2025-05-04T16:19:39Z</time>
      </trkpt>
      <trkpt lat="38.763536978513002" lon="-9.470399999991059">
        <ele>248.63999999999999</ele>
        <time>2025-05-04T16:19:48Z</time>
      </trkpt>
      <trkpt lat="38.763341009616852" lon="-9.470267985016108">
        <ele>245.75</ele>
        <time>2025-05-04T16:19:54Z</time>
      </trkpt>
      <trkpt lat="38.763245958834887" lon="-9.470204031094909">
        <ele>244.31</ele>
        <time>2025-05-04T16:20:04Z</time>
      </trkpt>
      <trkpt lat="38.762795012444258" lon="-9.469862971454859">
        <ele>240.94999999999999</ele>
        <time>2025-05-04T16:20:11Z</time>
      </trkpt>
      <trkpt lat="38.76269199885428" lon="-9.469783008098602">
        <ele>240.47</ele>
        <time>2025-05-04T16:20:12Z</time>
      </trkpt>
      <trkpt lat="38.762593008577824" lon="-9.469687035307288">
        <ele>239.99000000000001</ele>
        <time>2025-05-04T16:20:13Z</time>
      </trkpt>
      <trkpt lat="38.762501981109381" lon="-9.46958402171731">
        <ele>239.02000000000001</ele>
        <time>2025-05-04T16:20:14Z</time>
      </trkpt>
      <trkpt lat="38.762409025803208" lon="-9.469260983169079">
        <ele>238.53999999999999</ele>
        <time>2025-05-04T16:20:15Z</time>
      </trkpt>
      <trkpt lat="38.762409025803208" lon="-9.469260983169079">
        <ele>238.06</ele>
        <time>2025-05-04T16:20:16Z</time>
      </trkpt>
      <trkpt lat="38.762236023321748" lon="-9.468609960749745">
        <ele>236.62</ele>
        <time>2025-05-04T16:20:20Z</time>
      </trkpt>
      <trkpt lat="38.762106020003557" lon="-9.468331011012197">
        <ele>236.62</ele>
        <time>2025-05-04T16:20:21Z</time>
      </trkpt>
      <trkpt lat="38.762019015848637" lon="-9.468176029622555">
        <ele>236.13999999999999</ele>
        <time>2025-05-04T16:20:22Z</time>
      </trkpt>
      <trkpt lat="38.76189898699522" lon="-9.468069998547435">
        <ele>235.18000000000001</ele>
        <time>2025-05-04T16:20:23Z</time>
      </trkpt>
      <trkpt lat="38.76189898699522" lon="-9.468069998547435">
        <ele>234.69999999999999</ele>
        <time>2025-05-04T16:20:24Z</time>
      </trkpt>
      <trkpt lat="38.761651972308755" lon="-9.467904036864638">
        <ele>234.22</ele>
        <time>2025-05-04T16:20:25Z</time>
      </trkpt>
      <trkpt lat="38.761651972308755" lon="-9.467904036864638">
        <ele>233.25999999999999</ele>
        <time>2025-05-04T16:20:26Z</time>
      </trkpt>
      <trkpt lat="38.761536972597241" lon="-9.467837987467647">
        <ele>232.78</ele>
        <time>2025-05-04T16:20:27Z</time>
      </trkpt>
      <trkpt lat="38.761418033391237" lon="-9.467769004404545">
        <ele>232.30000000000001</ele>
        <time>2025-05-04T16:20:28Z</time>
      </trkpt>
      <trkpt lat="38.761365981772542" lon="-9.46767202578485">
        <ele>231.81</ele>
        <time>2025-05-04T16:20:29Z</time>
      </trkpt>
      <trkpt lat="38.761301022022963" lon="-9.467550991103053">
        <ele>231.33000000000001</ele>
        <time>2025-05-04T16:20:30Z</time>
      </trkpt>
      <trkpt lat="38.761249976232648" lon="-9.467409001663327">
        <ele>230.84999999999999</ele>
        <time>2025-05-04T16:20:31Z</time>
      </trkpt>
      <trkpt lat="38.761214017868042" lon="-9.467256031930447">
        <ele>230.84999999999999</ele>
        <time>2025-05-04T16:20:32Z</time>
      </trkpt>
      <trkpt lat="38.761227009817958" lon="-9.467102978378534">
        <ele>230.84999999999999</ele>
        <time>2025-05-04T16:20:33Z</time>
      </trkpt>
      <trkpt lat="38.761259028688073" lon="-9.466955037787557">
        <ele>230.84999999999999</ele>
        <time>2025-05-04T16:20:34Z</time>
      </trkpt>
      <trkpt lat="38.761308984830976" lon="-9.466802990064025">
        <ele>230.84999999999999</ele>
        <time>2025-05-04T16:20:35Z</time>
      </trkpt>
      <trkpt lat="38.761491039767861" lon="-9.466307032853365">
        <ele>230.37</ele>
        <time>2025-05-04T16:20:38Z</time>
      </trkpt>
      <trkpt lat="38.761546025052667" lon="-9.466139981523156">
        <ele>230.37</ele>
        <time>2025-05-04T16:20:39Z</time>
      </trkpt>
      <trkpt lat="38.761558011174202" lon="-9.465966979041696">
        <ele>230.37</ele>
        <time>2025-05-04T16:20:40Z</time>
      </trkpt>
      <trkpt lat="38.761568991467357" lon="-9.465816020965576">
        <ele>230.37</ele>
        <time>2025-05-04T16:20:41Z</time>
      </trkpt>
      <trkpt lat="38.761536972597241" lon="-9.465634971857071">
        <ele>230.37</ele>
        <time>2025-05-04T16:20:42Z</time>
      </trkpt>
      <trkpt lat="38.761506965383887" lon="-9.465469010174274">
        <ele>230.37</ele>
        <time>2025-05-04T16:20:43Z</time>
      </trkpt>
      <trkpt lat="38.761434964835644" lon="-9.465346969664097">
        <ele>230.37</ele>
        <time>2025-05-04T16:20:44Z</time>
      </trkpt>
      <trkpt lat="38.76125399954617" lon="-9.465171033516526">
        <ele>230.37</ele>
        <time>2025-05-04T16:20:46Z</time>
      </trkpt>
      <trkpt lat="38.76097597181797" lon="-9.465110013261437">
        <ele>229.41</ele>
        <time>2025-05-04T16:20:48Z</time>
      </trkpt>
      <trkpt lat="38.760645976290107" lon="-9.465123005211353">
        <ele>228.93000000000001</ele>
        <time>2025-05-04T16:20:49Z</time>
      </trkpt>
      <trkpt lat="38.759953966364264" lon="-9.465166004374623">
        <ele>225.56999999999999</ele>
        <time>2025-05-04T16:20:54Z</time>
      </trkpt>
      <trkpt lat="38.759783981367946" lon="-9.465161981061101">
        <ele>225.09</ele>
        <time>2025-05-04T16:20:55Z</time>
      </trkpt>
      <trkpt lat="38.759610978886485" lon="-9.465124011039734">
        <ele>224.61000000000001</ele>
        <time>2025-05-04T16:20:56Z</time>
      </trkpt>
      <trkpt lat="38.759445017203689" lon="-9.465086963027716">
        <ele>223.63999999999999</ele>
        <time>2025-05-04T16:20:57Z</time>
      </trkpt>
      <trkpt lat="38.759311996400356" lon="-9.464982021600008">
        <ele>223.63999999999999</ele>
        <time>2025-05-04T16:20:58Z</time>
      </trkpt>
      <trkpt lat="38.759187022224069" lon="-9.464884037151933">
        <ele>223.16</ele>
        <time>2025-05-04T16:20:59Z</time>
      </trkpt>
      <trkpt lat="38.759076967835426" lon="-9.464797032997012">
        <ele>223.16</ele>
        <time>2025-05-04T16:21:00Z</time>
      </trkpt>
      <trkpt lat="38.758897008374333" lon="-9.464597040787339">
        <ele>222.19999999999999</ele>
        <time>2025-05-04T16:21:02Z</time>
      </trkpt>
      <trkpt lat="38.758821990340948" lon="-9.464507019147277">
        <ele>222.19999999999999</ele>
        <time>2025-05-04T16:21:03Z</time>
      </trkpt>
      <trkpt lat="38.758756024762988" lon="-9.464375004172325">
        <ele>221.24000000000001</ele>
        <time>2025-05-04T16:21:04Z</time>
      </trkpt>
      <trkpt lat="38.758692992851138" lon="-9.464249024167657">
        <ele>221.24000000000001</ele>
        <time>2025-05-04T16:21:05Z</time>
      </trkpt>
      <trkpt lat="38.758628033101559" lon="-9.464120026677847">
        <ele>220.28</ele>
        <time>2025-05-04T16:21:06Z</time>
      </trkpt>
      <trkpt lat="38.758596014231443" lon="-9.46397895924747">
        <ele>219.80000000000001</ele>
        <time>2025-05-04T16:21:07Z</time>
      </trkpt>
      <trkpt lat="38.758577993139625" lon="-9.463824983686209">
        <ele>219.31999999999999</ele>
        <time>2025-05-04T16:21:08Z</time>
      </trkpt>
      <trkpt lat="38.758540023118258" lon="-9.463496999815106">
        <ele>219.31999999999999</ele>
        <time>2025-05-04T16:21:09Z</time>
      </trkpt>
      <trkpt lat="38.758519990369678" lon="-9.463329026475549">
        <ele>218.84</ele>
        <time>2025-05-04T16:21:11Z</time>
      </trkpt>
      <trkpt lat="38.758500963449478" lon="-9.463159963488579">
        <ele>218.84</ele>
        <time>2025-05-04T16:21:12Z</time>
      </trkpt>
      <trkpt lat="38.758452013134956" lon="-9.462998025119305">
        <ele>218.36000000000001</ele>
        <time>2025-05-04T16:21:13Z</time>
      </trkpt>
      <trkpt lat="38.758316980674863" lon="-9.462713962420821">
        <ele>217.88</ele>
        <time>2025-05-04T16:21:14Z</time>
      </trkpt>
      <trkpt lat="38.758225031197071" lon="-9.462594017386437">
        <ele>217.40000000000001</ele>
        <time>2025-05-04T16:21:15Z</time>
      </trkpt>
      <trkpt lat="38.758225031197071" lon="-9.462594017386437">
        <ele>217.40000000000001</ele>
        <time>2025-05-04T16:21:16Z</time>
      </trkpt>
      <trkpt lat="38.757764026522636" lon="-9.462080961093307">
        <ele>216.43000000000001</ele>
        <time>2025-05-04T16:21:21Z</time>
      </trkpt>
      <trkpt lat="38.757677022367716" lon="-9.461961016058922">
        <ele>215.94999999999999</ele>
        <time>2025-05-04T16:21:22Z</time>
      </trkpt>
      <trkpt lat="38.757518017664552" lon="-9.461693968623877">
        <ele>215.94999999999999</ele>
        <time>2025-05-04T16:21:23Z</time>
      </trkpt>
      <trkpt lat="38.757518017664552" lon="-9.461693968623877">
        <ele>215.47</ele>
        <time>2025-05-04T16:21:24Z</time>
      </trkpt>
      <trkpt lat="38.757463032379746" lon="-9.461542004719377">
        <ele>214.99000000000001</ele>
        <time>2025-05-04T16:21:25Z</time>
      </trkpt>
      <trkpt lat="38.757360018789768" lon="-9.461256014183164">
        <ele>214.50999999999999</ele>
        <time>2025-05-04T16:21:27Z</time>
      </trkpt>
      <trkpt lat="38.757335962727666" lon="-9.461126010864973">
        <ele>214.03</ele>
        <time>2025-05-04T16:21:28Z</time>
      </trkpt>
      <trkpt lat="38.757326994091272" lon="-9.461001958698034">
        <ele>214.03</ele>
        <time>2025-05-04T16:21:29Z</time>
      </trkpt>
      <trkpt lat="38.75732003711164" lon="-9.460901962593198">
        <ele>214.03</ele>
        <time>2025-05-04T16:21:30Z</time>
      </trkpt>
      <trkpt lat="38.757367981597781" lon="-9.460814036428928">
        <ele>214.03</ele>
        <time>2025-05-04T16:21:31Z</time>
      </trkpt>
      <trkpt lat="38.757485998794436" lon="-9.460642039775848">
        <ele>214.03</ele>
        <time>2025-05-04T16:21:32Z</time>
      </trkpt>
      <trkpt lat="38.757576020434499" lon="-9.46058101952076">
        <ele>214.03</ele>
        <time>2025-05-04T16:21:33Z</time>
      </trkpt>
      <trkpt lat="38.757576020434499" lon="-9.46058101952076">
        <ele>214.03</ele>
        <time>2025-05-04T16:21:34Z</time>
      </trkpt>
      <trkpt lat="38.758625015616417" lon="-9.45998297072947">
        <ele>215.47</ele>
        <time>2025-05-04T16:21:45Z</time>
      </trkpt>
      <trkpt lat="38.758704978972673" lon="-9.459903007373214">
        <ele>215.47</ele>
        <time>2025-05-04T16:21:47Z</time>
      </trkpt>
      <trkpt lat="38.758757030591369" lon="-9.4597880076617">
        <ele>214.99000000000001</ele>
        <time>2025-05-04T16:21:48Z</time>
      </trkpt>
      <trkpt lat="38.758800029754639" lon="-9.459678959101439">
        <ele>214.99000000000001</ele>
        <time>2025-05-04T16:21:49Z</time>
      </trkpt>
      <trkpt lat="38.758800029754639" lon="-9.459560019895434">
        <ele>214.99000000000001</ele>
        <time>2025-05-04T16:21:50Z</time>
      </trkpt>
      <trkpt lat="38.758733980357647" lon="-9.459348963573575">
        <ele>214.99000000000001</ele>
        <time>2025-05-04T16:21:51Z</time>
      </trkpt>
      <trkpt lat="38.758733980357647" lon="-9.459348963573575">
        <ele>214.50999999999999</ele>
        <time>2025-05-04T16:21:52Z</time>
      </trkpt>
      <trkpt lat="38.758586039766669" lon="-9.45918601937592">
        <ele>214.50999999999999</ele>
        <time>2025-05-04T16:21:53Z</time>
      </trkpt>
      <trkpt lat="38.75846198759973" lon="-9.45918601937592">
        <ele>214.03</ele>
        <time>2025-05-04T16:21:54Z</time>
      </trkpt>
      <trkpt lat="38.75846198759973" lon="-9.45918601937592">
        <ele>214.03</ele>
        <time>2025-05-04T16:21:55Z</time>
      </trkpt>
      <trkpt lat="38.758231988176703" lon="-9.459231030195952">
        <ele>213.55000000000001</ele>
        <time>2025-05-04T16:21:56Z</time>
      </trkpt>
      <trkpt lat="38.758114976808429" lon="-9.459264976903796">
        <ele>212.59</ele>
        <time>2025-05-04T16:21:58Z</time>
      </trkpt>
      <trkpt lat="38.757891012355685" lon="-9.459290038794279">
        <ele>212.11000000000001</ele>
        <time>2025-05-04T16:21:59Z</time>
      </trkpt>
      <trkpt lat="38.757785987108946" lon="-9.459276963025332">
        <ele>211.63</ele>
        <time>2025-05-04T16:22:00Z</time>
      </trkpt>
      <trkpt lat="38.757785987108946" lon="-9.459276963025332">
        <ele>210.66999999999999</ele>
        <time>2025-05-04T16:22:01Z</time>
      </trkpt>
      <trkpt lat="38.757681967690587" lon="-9.459253996610642">
        <ele>210.19</ele>
        <time>2025-05-04T16:22:02Z</time>
      </trkpt>
      <trkpt lat="38.757516006007791" lon="-9.459111001342535">
        <ele>209.69999999999999</ele>
        <time>2025-05-04T16:22:03Z</time>
      </trkpt>
      <trkpt lat="38.757516006007791" lon="-9.459111001342535">
        <ele>209.22</ele>
        <time>2025-05-04T16:22:04Z</time>
      </trkpt>
      <trkpt lat="38.757434030994773" lon="-9.459032965824008">
        <ele>209.22</ele>
        <time>2025-05-04T16:22:05Z</time>
      </trkpt>
      <trkpt lat="38.756761969998479" lon="-9.4582200050354">
        <ele>206.34</ele>
        <time>2025-05-04T16:22:13Z</time>
      </trkpt>
      <trkpt lat="38.756582010537386" lon="-9.458012972027063">
        <ele>206.34</ele>
        <time>2025-05-04T16:22:14Z</time>
      </trkpt>
      <trkpt lat="38.756468016654253" lon="-9.4579610042274">
        <ele>206.34</ele>
        <time>2025-05-04T16:22:15Z</time>
      </trkpt>
      <trkpt lat="38.756468016654253" lon="-9.4579610042274">
        <ele>205.86000000000001</ele>
        <time>2025-05-04T16:22:16Z</time>
      </trkpt>
      <trkpt lat="38.756221001967788" lon="-9.457920016720891">
        <ele>205.86000000000001</ele>
        <time>2025-05-04T16:22:17Z</time>
      </trkpt>
      <trkpt lat="38.756098039448261" lon="-9.457921022549272">
        <ele>205.86000000000001</ele>
        <time>2025-05-04T16:22:18Z</time>
      </trkpt>
      <trkpt lat="38.755972981452942" lon="-9.457927979528904">
        <ele>204.90000000000001</ele>
        <time>2025-05-04T16:22:19Z</time>
      </trkpt>
      <trkpt lat="38.755972981452942" lon="-9.457927979528904">
        <ele>204.41999999999999</ele>
        <time>2025-05-04T16:22:20Z</time>
      </trkpt>
      <trkpt lat="38.755853036418557" lon="-9.457935020327568">
        <ele>203.94</ele>
        <time>2025-05-04T16:22:21Z</time>
      </trkpt>
      <trkpt lat="38.755639968439937" lon="-9.457872994244099">
        <ele>203.94</ele>
        <time>2025-05-04T16:22:22Z</time>
      </trkpt>
      <trkpt lat="38.7555399723351" lon="-9.457813985645771">
        <ele>203.46000000000001</ele>
        <time>2025-05-04T16:22:23Z</time>
      </trkpt>
      <trkpt lat="38.755467971786857" lon="-9.457699991762638">
        <ele>202.97999999999999</ele>
        <time>2025-05-04T16:22:24Z</time>
      </trkpt>
      <trkpt lat="38.755467971786857" lon="-9.457699991762638">
        <ele>202.00999999999999</ele>
        <time>2025-05-04T16:22:25Z</time>
      </trkpt>
      <trkpt lat="38.75532397069037" lon="-9.457468986511231">
        <ele>201.53</ele>
        <time>2025-05-04T16:22:26Z</time>
      </trkpt>
      <trkpt lat="38.755059018731117" lon="-9.456773959100246">
        <ele>197.69</ele>
        <time>2025-05-04T16:22:32Z</time>
      </trkpt>
      <trkpt lat="38.754997998476028" lon="-9.456692989915609">
        <ele>197.21000000000001</ele>
        <time>2025-05-04T16:22:33Z</time>
      </trkpt>
      <trkpt lat="38.754930021241307" lon="-9.456625012680888">
        <ele>196.25</ele>
        <time>2025-05-04T16:22:34Z</time>
      </trkpt>
      <trkpt lat="38.7548509798944" lon="-9.456604979932308">
        <ele>195.77000000000001</ele>
        <time>2025-05-04T16:22:35Z</time>
      </trkpt>
      <trkpt lat="38.75476598739624" lon="-9.456597017124295">
        <ele>194.80000000000001</ele>
        <time>2025-05-04T16:22:36Z</time>
      </trkpt>
      <trkpt lat="38.754660962149501" lon="-9.456599028781056">
        <ele>194.31999999999999</ele>
        <time>2025-05-04T16:22:37Z</time>
      </trkpt>
      <trkpt lat="38.754568006843328" lon="-9.456647979095578">
        <ele>193.84</ele>
        <time>2025-05-04T16:22:38Z</time>
      </trkpt>
      <trkpt lat="38.753340980038047" lon="-9.457355998456478">
        <ele>189.03999999999999</ele>
        <time>2025-05-04T16:22:50Z</time>
      </trkpt>
      <trkpt lat="38.753017019480467" lon="-9.457513997331262">
        <ele>188.56</ele>
        <time>2025-05-04T16:22:54Z</time>
      </trkpt>
      <trkpt lat="38.752920962870121" lon="-9.457533024251461">
        <ele>188.56</ele>
        <time>2025-05-04T16:22:55Z</time>
      </trkpt>
      <trkpt lat="38.752842005342245" lon="-9.457516008988023">
        <ele>188.56</ele>
        <time>2025-05-04T16:22:56Z</time>
      </trkpt>
      <trkpt lat="38.752842005342245" lon="-9.457516008988023">
        <ele>188.56</ele>
        <time>2025-05-04T16:22:57Z</time>
      </trkpt>
      <trkpt lat="38.752656010910869" lon="-9.457425987347961">
        <ele>188.08000000000001</ele>
        <time>2025-05-04T16:22:58Z</time>
      </trkpt>
      <trkpt lat="38.75257202424109" lon="-9.457350969314575">
        <ele>187.59</ele>
        <time>2025-05-04T16:22:59Z</time>
      </trkpt>
      <trkpt lat="38.752501029521227" lon="-9.457266982644796">
        <ele>187.11000000000001</ele>
        <time>2025-05-04T16:23:00Z</time>
      </trkpt>
      <trkpt lat="38.752455012872815" lon="-9.457150977104902">
        <ele>186.63</ele>
        <time>2025-05-04T16:23:01Z</time>
      </trkpt>
      <trkpt lat="38.752426011487842" lon="-9.457040000706911">
        <ele>186.15000000000001</ele>
        <time>2025-05-04T16:23:02Z</time>
      </trkpt>
      <trkpt lat="38.752426011487842" lon="-9.457041006535292">
        <ele>185.19</ele>
        <time>2025-05-04T16:23:03Z</time>
      </trkpt>
      <trkpt lat="38.752420982345939" lon="-9.456925000995398">
        <ele>184.22999999999999</ele>
        <time>2025-05-04T16:23:04Z</time>
      </trkpt>
      <trkpt lat="38.752416037023067" lon="-9.456815030425787">
        <ele>183.27000000000001</ele>
        <time>2025-05-04T16:23:05Z</time>
      </trkpt>
      <trkpt lat="38.752411007881165" lon="-9.456704976037145">
        <ele>182.78999999999999</ele>
        <time>2025-05-04T16:23:06Z</time>
      </trkpt>
      <trkpt lat="38.752405978739262" lon="-9.456588970497251">
        <ele>181.83000000000001</ele>
        <time>2025-05-04T16:23:07Z</time>
      </trkpt>
      <trkpt lat="38.752378989011049" lon="-9.456513030454516">
        <ele>181.34999999999999</ele>
        <time>2025-05-04T16:23:08Z</time>
      </trkpt>
      <trkpt lat="38.752156030386686" lon="-9.455869970843196">
        <ele>177.02000000000001</ele>
        <time>2025-05-04T16:23:15Z</time>
      </trkpt>
      <trkpt lat="38.752129040658474" lon="-9.45577098056674">
        <ele>176.53999999999999</ele>
        <time>2025-05-04T16:23:16Z</time>
      </trkpt>
      <trkpt lat="38.752105990424752" lon="-9.455674001947045">
        <ele>176.53999999999999</ele>
        <time>2025-05-04T16:23:17Z</time>
      </trkpt>
      <trkpt lat="38.752105990424752" lon="-9.455565037205815">
        <ele>176.06</ele>
        <time>2025-05-04T16:23:18Z</time>
      </trkpt>
      <trkpt lat="38.752105990424752" lon="-9.455454982817173">
        <ele>175.58000000000001</ele>
        <time>2025-05-04T16:23:19Z</time>
      </trkpt>
      <trkpt lat="38.752110013738275" lon="-9.455348029732704">
        <ele>175.09999999999999</ele>
        <time>2025-05-04T16:23:20Z</time>
      </trkpt>
      <trkpt lat="38.752134991809726" lon="-9.455241998657584">
        <ele>174.62</ele>
        <time>2025-05-04T16:23:21Z</time>
      </trkpt>
      <trkpt lat="38.75222803093493" lon="-9.454926000908017">
        <ele>172.69</ele>
        <time>2025-05-04T16:23:24Z</time>
      </trkpt>
      <trkpt lat="38.752664979547262" lon="-9.454130977392197">
        <ele>169.33000000000001</ele>
        <time>2025-05-04T16:23:32Z</time>
      </trkpt>
      <trkpt lat="38.752729017287493" lon="-9.454045984894037">
        <ele>169.33000000000001</ele>
        <time>2025-05-04T16:23:33Z</time>
      </trkpt>
      <trkpt lat="38.752988018095493" lon="-9.453696040436626">
        <ele>167.41</ele>
        <time>2025-05-04T16:23:37Z</time>
      </trkpt>
      <trkpt lat="38.753041997551918" lon="-9.45359998382628">
        <ele>166.93000000000001</ele>
        <time>2025-05-04T16:23:38Z</time>
      </trkpt>
      <trkpt lat="38.753090025857091" lon="-9.453505016863346">
        <ele>166.44999999999999</ele>
        <time>2025-05-04T16:23:39Z</time>
      </trkpt>
      <trkpt lat="38.753136964514852" lon="-9.453404014930129">
        <ele>165.96000000000001</ele>
        <time>2025-05-04T16:23:40Z</time>
      </trkpt>
      <trkpt lat="38.753151968121529" lon="-9.453290021046996">
        <ele>165.47999999999999</ele>
        <time>2025-05-04T16:23:41Z</time>
      </trkpt>
      <trkpt lat="38.753166971728206" lon="-9.453177032992244">
        <ele>165</ele>
        <time>2025-05-04T16:23:42Z</time>
      </trkpt>
      <trkpt lat="38.753160014748573" lon="-9.453060021623969">
        <ele>165</ele>
        <time>2025-05-04T16:23:43Z</time>
      </trkpt>
      <trkpt lat="38.753115003928542" lon="-9.452981986105442">
        <ele>165.47999999999999</ele>
        <time>2025-05-04T16:23:44Z</time>
      </trkpt>
      <trkpt lat="38.753070998936892" lon="-9.452907973900437">
        <ele>165.47999999999999</ele>
        <time>2025-05-04T16:23:45Z</time>
      </trkpt>
      <trkpt lat="38.753030011430383" lon="-9.452837985008955">
        <ele>165.47999999999999</ele>
        <time>2025-05-04T16:23:46Z</time>
      </trkpt>
      <trkpt lat="38.752472028136253" lon="-9.452197020873427">
        <ele>162.12</ele>
        <time>2025-05-04T16:23:55Z</time>
      </trkpt>
      <trkpt lat="38.752410002052784" lon="-9.452130971476436">
        <ele>160.68000000000001</ele>
        <time>2025-05-04T16:23:56Z</time>
      </trkpt>
      <trkpt lat="38.75235996209085" lon="-9.452056037262082">
        <ele>159.24000000000001</ele>
        <time>2025-05-04T16:23:57Z</time>
      </trkpt>
      <trkpt lat="38.75231796875596" lon="-9.451968027278781">
        <ele>157.78999999999999</ele>
        <time>2025-05-04T16:23:58Z</time>
      </trkpt>
      <trkpt lat="38.752292990684509" lon="-9.451866019517183">
        <ele>156.34999999999999</ele>
        <time>2025-05-04T16:23:59Z</time>
      </trkpt>
      <trkpt lat="38.752287039533257" lon="-9.451766023412347">
        <ele>155.38999999999999</ele>
        <time>2025-05-04T16:24:00Z</time>
      </trkpt>
      <trkpt lat="38.752312017604709" lon="-9.451667033135891">
        <ele>153.94999999999999</ele>
        <time>2025-05-04T16:24:01Z</time>
      </trkpt>
      <trkpt lat="38.752349987626076" lon="-9.451570976525545">
        <ele>152.99000000000001</ele>
        <time>2025-05-04T16:24:02Z</time>
      </trkpt>
      <trkpt lat="38.752398015931249" lon="-9.451470980420709">
        <ele>152.03</ele>
        <time>2025-05-04T16:24:03Z</time>
      </trkpt>
      <trkpt lat="38.752669002860785" lon="-9.45091400295496">
        <ele>147.69999999999999</ele>
        <time>2025-05-04T16:24:09Z</time>
      </trkpt>
      <trkpt lat="38.752712002024055" lon="-9.450826998800039">
        <ele>146.74000000000001</ele>
        <time>2025-05-04T16:24:10Z</time>
      </trkpt>
      <trkpt lat="38.752716025337577" lon="-9.450734965503216">
        <ele>146.74000000000001</ele>
        <time>2025-05-04T16:24:11Z</time>
      </trkpt>
      <trkpt lat="38.752687023952603" lon="-9.45059297606349">
        <ele>146.25999999999999</ele>
        <time>2025-05-04T16:24:12Z</time>
      </trkpt>
      <trkpt lat="38.752685012295842" lon="-9.450580989941955">
        <ele>145.78</ele>
        <time>2025-05-04T16:24:13Z</time>
      </trkpt>
      <trkpt lat="38.752685012295842" lon="-9.450580989941955">
        <ele>145.30000000000001</ele>
        <time>2025-05-04T16:24:14Z</time>
      </trkpt>
      <trkpt lat="38.752685012295842" lon="-9.450580989941955">
        <ele>144.81999999999999</ele>
        <time>2025-05-04T16:24:25Z</time>
      </trkpt>
      <trkpt lat="38.752685012295842" lon="-9.450580989941955">
        <ele>144.81999999999999</ele>
        <time>2025-05-04T16:24:33Z</time>
      </trkpt>
      <trkpt lat="38.752685012295842" lon="-9.450580989941955">
        <ele>144.81999999999999</ele>
        <time>2025-05-04T16:24:34Z</time>
      </trkpt>
      <trkpt lat="38.752716025337577" lon="-9.450327018275857">
        <ele>144.81999999999999</ele>
        <time>2025-05-04T16:24:35Z</time>
      </trkpt>
      <trkpt lat="38.752909982576966" lon="-9.450172036886215">
        <ele>143.37</ele>
        <time>2025-05-04T16:24:39Z</time>
      </trkpt>
      <trkpt lat="38.752963040024042" lon="-9.450123002752662">
        <ele>142.88999999999999</ele>
        <time>2025-05-04T16:24:40Z</time>
      </trkpt>
      <trkpt lat="38.753012996166945" lon="-9.450077991932631">
        <ele>141.93000000000001</ele>
        <time>2025-05-04T16:24:41Z</time>
      </trkpt>
      <trkpt lat="38.753070998936892" lon="-9.450023006647825">
        <ele>141.44999999999999</ele>
        <time>2025-05-04T16:24:42Z</time>
      </trkpt>
      <trkpt lat="38.753083990886807" lon="-9.449976989999414">
        <ele>140.97</ele>
        <time>2025-05-04T16:24:43Z</time>
      </trkpt>
      <trkpt lat="38.753100000321865" lon="-9.449919993057847">
        <ele>140.97</ele>
        <time>2025-05-04T16:24:44Z</time>
      </trkpt>
      <trkpt lat="38.753116009756923" lon="-9.449864001944661">
        <ele>140.49000000000001</ele>
        <time>2025-05-04T16:24:45Z</time>
      </trkpt>
      <trkpt lat="38.753130007535219" lon="-9.449812034144998">
        <ele>140.00999999999999</ele>
        <time>2025-05-04T16:24:46Z</time>
      </trkpt>
      <trkpt lat="38.753145011141896" lon="-9.449758976697922">
        <ele>139.53</ele>
        <time>2025-05-04T16:24:47Z</time>
      </trkpt>
      <trkpt lat="38.753162026405334" lon="-9.449698040261865">
        <ele>139.53</ele>
        <time>2025-05-04T16:24:48Z</time>
      </trkpt>
      <trkpt lat="38.753179041668773" lon="-9.449543980881572">
        <ele>139.05000000000001</ele>
        <time>2025-05-04T16:24:50Z</time>
      </trkpt>
      <trkpt lat="38.753179041668773" lon="-9.449269976466894">
        <ele>138.56999999999999</ele>
        <time>2025-05-04T16:24:53Z</time>
      </trkpt>
      <trkpt lat="38.753156997263432" lon="-9.449057998135686">
        <ele>138.56999999999999</ele>
        <time>2025-05-04T16:24:55Z</time>
      </trkpt>
      <trkpt lat="38.753141993656754" lon="-9.448968982324004">
        <ele>138.56999999999999</ele>
        <time>2025-05-04T16:24:56Z</time>
      </trkpt>
      <trkpt lat="38.753113998100162" lon="-9.448877032846212">
        <ele>138.56999999999999</ele>
        <time>2025-05-04T16:24:57Z</time>
      </trkpt>
      <trkpt lat="38.753077033907175" lon="-9.448792962357402">
        <ele>138.09</ele>
        <time>2025-05-04T16:24:58Z</time>
      </trkpt>
      <trkpt lat="38.753030011430383" lon="-9.448728002607822">
        <ele>138.56999999999999</ele>
        <time>2025-05-04T16:24:59Z</time>
      </trkpt>
      <trkpt lat="38.752985000610352" lon="-9.448673017323017">
        <ele>138.09</ele>
        <time>2025-05-04T16:25:00Z</time>
      </trkpt>
      <trkpt lat="38.752943007275462" lon="-9.448621971532702">
        <ele>138.09</ele>
        <time>2025-05-04T16:25:01Z</time>
      </trkpt>
      <trkpt lat="38.752943007275462" lon="-9.448621971532702">
        <ele>138.09</ele>
        <time>2025-05-04T16:25:02Z</time>
      </trkpt>
      <trkpt lat="38.752833036705852" lon="-9.448519963771105">
        <ele>137.61000000000001</ele>
        <time>2025-05-04T16:25:03Z</time>
      </trkpt>
      <trkpt lat="38.752833036705852" lon="-9.448519963771105">
        <ele>137.61000000000001</ele>
        <time>2025-05-04T16:25:04Z</time>
      </trkpt>
      <trkpt lat="38.752753995358944" lon="-9.448493979871273">
        <ele>138.09</ele>
        <time>2025-05-04T16:25:05Z</time>
      </trkpt>
      <trkpt lat="38.752675037831068" lon="-9.448479982092977">
        <ele>138.56999999999999</ele>
        <time>2025-05-04T16:25:06Z</time>
      </trkpt>
      <trkpt lat="38.752500023692846" lon="-9.448466990143061">
        <ele>138.56999999999999</ele>
        <time>2025-05-04T16:25:07Z</time>
      </trkpt>
      <trkpt lat="38.752499017864466" lon="-9.448466990143061">
        <ele>139.53</ele>
        <time>2025-05-04T16:25:08Z</time>
      </trkpt>
      <trkpt lat="38.752233982086182" lon="-9.448543014004827">
        <ele>140.49000000000001</ele>
        <time>2025-05-04T16:25:11Z</time>
      </trkpt>
      <trkpt lat="38.751763002946973" lon="-9.448761027306318">
        <ele>140.97</ele>
        <time>2025-05-04T16:25:18Z</time>
      </trkpt>
      <trkpt lat="38.751666024327278" lon="-9.448814000934362">
        <ele>141.44999999999999</ele>
        <time>2025-05-04T16:25:19Z</time>
      </trkpt>
      <trkpt lat="38.750441009178758" lon="-9.449212979525328">
        <ele>138.56999999999999</ele>
        <time>2025-05-04T16:25:28Z</time>
      </trkpt>
      <trkpt lat="38.749133013188839" lon="-9.449261007830501">
        <ele>130.88</ele>
        <time>2025-05-04T16:25:39Z</time>
      </trkpt>
      <trkpt lat="38.748113019391894" lon="-9.449418000876904">
        <ele>126.06999999999999</ele>
        <time>2025-05-04T16:25:48Z</time>
      </trkpt>
      <trkpt lat="38.747813031077385" lon="-9.449502993375063">
        <ele>125.11</ele>
        <time>2025-05-04T16:25:51Z</time>
      </trkpt>
      <trkpt lat="38.747710017487407" lon="-9.449530988931656">
        <ele>124.63</ele>
        <time>2025-05-04T16:25:52Z</time>
      </trkpt>
      <trkpt lat="38.74760901555419" lon="-9.449557978659868">
        <ele>124.15000000000001</ele>
        <time>2025-05-04T16:25:53Z</time>
      </trkpt>
      <trkpt lat="38.746530013158917" lon="-9.449864001944661">
        <ele>120.3</ele>
        <time>2025-05-04T16:26:02Z</time>
      </trkpt>
      <trkpt lat="38.745668018236756" lon="-9.450115961953998">
        <ele>116.94</ele>
        <time>2025-05-04T16:26:06Z</time>
      </trkpt>
      <trkpt lat="38.744210992008448" lon="-9.450610997155309">
        <ele>110.20999999999999</ele>
        <time>2025-05-04T16:26:13Z</time>
      </trkpt>
      <trkpt lat="38.743211030960083" lon="-9.451178032904863">
        <ele>104.92</ele>
        <time>2025-05-04T16:26:20Z</time>
      </trkpt>
      <trkpt lat="38.742824960500002" lon="-9.451320022344589">
        <ele>103.48</ele>
        <time>2025-05-04T16:26:22Z</time>
      </trkpt>
      <trkpt lat="38.742234036326408" lon="-9.451639037579298">
        <ele>99.150000000000006</ele>
        <time>2025-05-04T16:26:29Z</time>
      </trkpt>
      <trkpt lat="38.742143008857965" lon="-9.4516889937222">
        <ele>98.189999999999998</ele>
        <time>2025-05-04T16:26:30Z</time>
      </trkpt>
      <trkpt lat="38.742056004703045" lon="-9.451691005378962">
        <ele>97.709999999999994</ele>
        <time>2025-05-04T16:26:31Z</time>
      </trkpt>
      <trkpt lat="38.74196195974946" lon="-9.451682958751917">
        <ele>97.230000000000004</ele>
        <time>2025-05-04T16:26:32Z</time>
      </trkpt>
      <trkpt lat="38.741862969473004" lon="-9.451671978458762">
        <ele>96.269999999999996</ele>
        <time>2025-05-04T16:26:33Z</time>
      </trkpt>
      <trkpt lat="38.741769008338451" lon="-9.451628979295492">
        <ele>95.790000000000006</ele>
        <time>2025-05-04T16:26:34Z</time>
      </trkpt>
      <trkpt lat="38.741136007010937" lon="-9.451198987662792">
        <ele>92.900000000000006</ele>
        <time>2025-05-04T16:26:41Z</time>
      </trkpt>
      <trkpt lat="38.740202011540532" lon="-9.450336992740631">
        <ele>89.540000000000006</ele>
        <time>2025-05-04T16:26:50Z</time>
      </trkpt>
      <trkpt lat="38.738883035257459" lon="-9.449890991672874">
        <ele>94.349999999999994</ele>
        <time>2025-05-04T16:27:00Z</time>
      </trkpt>
      <trkpt lat="38.738738028332591" lon="-9.449852015823126">
        <ele>94.829999999999998</ele>
        <time>2025-05-04T16:27:01Z</time>
      </trkpt>
      <trkpt lat="38.738605007529259" lon="-9.449752019718289">
        <ele>95.790000000000006</ele>
        <time>2025-05-04T16:27:02Z</time>
      </trkpt>
      <trkpt lat="38.737503960728645" lon="-9.448917014524341">
        <ele>100.11</ele>
        <time>2025-05-04T16:27:11Z</time>
      </trkpt>
      <trkpt lat="38.736332003027201" lon="-9.448159039020538">
        <ele>103</ele>
        <time>2025-05-04T16:27:21Z</time>
      </trkpt>
      <trkpt lat="38.736211974173784" lon="-9.448089972138405">
        <ele>103</ele>
        <time>2025-05-04T16:27:22Z</time>
      </trkpt>
      <trkpt lat="38.7358140014112" lon="-9.448029035702348">
        <ele>103.95999999999999</ele>
        <time>2025-05-04T16:27:25Z</time>
      </trkpt>
      <trkpt lat="38.735676035284996" lon="-9.448000034317374">
        <ele>103.95999999999999</ele>
        <time>2025-05-04T16:27:26Z</time>
      </trkpt>
      <trkpt lat="38.734467029571533" lon="-9.447636008262634">
        <ele>102.04000000000001</ele>
        <time>2025-05-04T16:27:36Z</time>
      </trkpt>
      <trkpt lat="38.733394984155893" lon="-9.447211967781186">
        <ele>98.189999999999998</ele>
        <time>2025-05-04T16:27:46Z</time>
      </trkpt>
      <trkpt lat="38.732709009200335" lon="-9.446494979783893">
        <ele>95.790000000000006</ele>
        <time>2025-05-04T16:27:55Z</time>
      </trkpt>
      <trkpt lat="38.731932006776333" lon="-9.445556038990617">
        <ele>97.709999999999994</ele>
        <time>2025-05-04T16:28:07Z</time>
      </trkpt>
      <trkpt lat="38.731857994571328" lon="-9.445492001250386">
        <ele>98.189999999999998</ele>
        <time>2025-05-04T16:28:08Z</time>
      </trkpt>
      <trkpt lat="38.731780964881182" lon="-9.445425029844046">
        <ele>98.670000000000002</ele>
        <time>2025-05-04T16:28:09Z</time>
      </trkpt>
      <trkpt lat="38.731612991541624" lon="-9.445344982668757">
        <ele>99.629999999999995</ele>
        <time>2025-05-04T16:28:11Z</time>
      </trkpt>
      <trkpt lat="38.731520036235452" lon="-9.445305000990629">
        <ele>100.11</ele>
        <time>2025-05-04T16:28:12Z</time>
      </trkpt>
      <trkpt lat="38.730687964707613" lon="-9.445094028487802">
        <ele>103.48</ele>
        <time>2025-05-04T16:28:21Z</time>
      </trkpt>
      <trkpt lat="38.730627028271556" lon="-9.445087993517518">
        <ele>104.44</ele>
        <time>2025-05-04T16:28:22Z</time>
      </trkpt>
      <trkpt lat="38.729896964505315" lon="-9.444808959960938">
        <ele>106.84</ele>
        <time>2025-05-04T16:28:30Z</time>
      </trkpt>
      <trkpt lat="38.728772029280663" lon="-9.444257011637092">
        <ele>100.59999999999999</ele>
        <time>2025-05-04T16:28:42Z</time>
      </trkpt>
      <trkpt lat="38.727532010525465" lon="-9.443658040836453">
        <ele>93.870000000000005</ele>
        <time>2025-05-04T16:28:55Z</time>
      </trkpt>
      <trkpt lat="38.72743503190577" lon="-9.443641025573015">
        <ele>93.870000000000005</ele>
        <time>2025-05-04T16:28:56Z</time>
      </trkpt>
      <trkpt lat="38.726864978671074" lon="-9.44362903945148">
        <ele>91.939999999999998</ele>
        <time>2025-05-04T16:29:02Z</time>
      </trkpt>
      <trkpt lat="38.726775962859392" lon="-9.44362903945148">
        <ele>91.939999999999998</ele>
        <time>2025-05-04T16:29:03Z</time>
      </trkpt>
      <trkpt lat="38.725984962657094" lon="-9.44345997646451">
        <ele>90.019999999999996</ele>
        <time>2025-05-04T16:29:11Z</time>
      </trkpt>
      <trkpt lat="38.725798968225718" lon="-9.443393005058169">
        <ele>90.019999999999996</ele>
        <time>2025-05-04T16:29:14Z</time>
      </trkpt>
      <trkpt lat="38.725727973505855" lon="-9.443375989794731">
        <ele>90.019999999999996</ele>
        <time>2025-05-04T16:29:15Z</time>
      </trkpt>
      <trkpt lat="38.725605010986328" lon="-9.443499958142638">
        <ele>90.019999999999996</ele>
        <time>2025-05-04T16:29:16Z</time>
      </trkpt>
      <trkpt lat="38.725557988509536" lon="-9.443484032526612">
        <ele>90.019999999999996</ele>
        <time>2025-05-04T16:29:17Z</time>
      </trkpt>
      <trkpt lat="38.725484982132912" lon="-9.44345997646451">
        <ele>90.019999999999996</ele>
        <time>2025-05-04T16:29:18Z</time>
      </trkpt>
      <trkpt lat="38.725484982132912" lon="-9.44345997646451">
        <ele>90.019999999999996</ele>
        <time>2025-05-04T16:29:19Z</time>
      </trkpt>
      <trkpt lat="38.725431002676487" lon="-9.443302983418107">
        <ele>90.5</ele>
        <time>2025-05-04T16:29:20Z</time>
      </trkpt>
      <trkpt lat="38.725261017680168" lon="-9.443267025053501">
        <ele>90.5</ele>
        <time>2025-05-04T16:29:21Z</time>
      </trkpt>
      <trkpt lat="38.725178958848119" lon="-9.443243974819779">
        <ele>90.980000000000004</ele>
        <time>2025-05-04T16:29:22Z</time>
      </trkpt>
      <trkpt lat="38.725101007148623" lon="-9.443221008405089">
        <ele>91.459999999999994</ele>
        <time>2025-05-04T16:29:23Z</time>
      </trkpt>
      <trkpt lat="38.725024983286858" lon="-9.443199969828129">
        <ele>91.459999999999994</ele>
        <time>2025-05-04T16:29:24Z</time>
      </trkpt>
      <trkpt lat="38.724950971081853" lon="-9.443184966221452">
        <ele>91.459999999999994</ele>
        <time>2025-05-04T16:29:25Z</time>
      </trkpt>
      <trkpt lat="38.724878970533609" lon="-9.443166023120284">
        <ele>91.939999999999998</ele>
        <time>2025-05-04T16:29:26Z</time>
      </trkpt>
      <trkpt lat="38.724592979997396" lon="-9.443077007308602">
        <ele>92.900000000000006</ele>
        <time>2025-05-04T16:29:31Z</time>
      </trkpt>
      <trkpt lat="38.724547969177365" lon="-9.443063009530306">
        <ele>93.390000000000001</ele>
        <time>2025-05-04T16:29:33Z</time>
      </trkpt>
      <trkpt lat="38.724444033578038" lon="-9.443031996488571">
        <ele>93.870000000000005</ele>
        <time>2025-05-04T16:29:35Z</time>
      </trkpt>
      <trkpt lat="38.724382007494569" lon="-9.443012969568372">
        <ele>93.870000000000005</ele>
        <time>2025-05-04T16:29:36Z</time>
      </trkpt>
      <trkpt lat="38.724329033866525" lon="-9.442993020638824">
        <ele>93.870000000000005</ele>
        <time>2025-05-04T16:29:37Z</time>
      </trkpt>
      <trkpt lat="38.72416902333498" lon="-9.442919008433819">
        <ele>94.349999999999994</ele>
        <time>2025-05-04T16:29:40Z</time>
      </trkpt>
      <trkpt lat="38.724082019180059" lon="-9.442870980128646">
        <ele>94.349999999999994</ele>
        <time>2025-05-04T16:29:42Z</time>
      </trkpt>
      <trkpt lat="38.723361007869244" lon="-9.442464038729668">
        <ele>95.310000000000002</ele>
        <time>2025-05-04T16:29:54Z</time>
      </trkpt>
      <trkpt lat="38.722374038770795" lon="-9.442015020176768">
        <ele>93.870000000000005</ele>
        <time>2025-05-04T16:30:05Z</time>
      </trkpt>
      <trkpt lat="38.722290974110365" lon="-9.441980989649892">
        <ele>93.390000000000001</ele>
        <time>2025-05-04T16:30:06Z</time>
      </trkpt>
      <trkpt lat="38.722205981612206" lon="-9.441969003528357">
        <ele>93.390000000000001</ele>
        <time>2025-05-04T16:30:07Z</time>
      </trkpt>
      <trkpt lat="38.721402995288372" lon="-9.441914018243551">
        <ele>90.5</ele>
        <time>2025-05-04T16:30:14Z</time>
      </trkpt>
      <trkpt lat="38.721289001405239" lon="-9.441952994093299">
        <ele>90.5</ele>
        <time>2025-05-04T16:30:15Z</time>
      </trkpt>
      <trkpt lat="38.721105018630624" lon="-9.442079979926348">
        <ele>90.019999999999996</ele>
        <time>2025-05-04T16:30:16Z</time>
      </trkpt>
      <trkpt lat="38.721039975062013" lon="-9.442181987687945">
        <ele>89.540000000000006</ele>
        <time>2025-05-04T16:30:17Z</time>
      </trkpt>
      <trkpt lat="38.720976021140814" lon="-9.442290030419827">
        <ele>89.060000000000002</ele>
        <time>2025-05-04T16:30:18Z</time>
      </trkpt>
      <trkpt lat="38.720907960087061" lon="-9.442425984889269">
        <ele>88.099999999999994</ele>
        <time>2025-05-04T16:30:19Z</time>
      </trkpt>
      <trkpt lat="38.720922041684389" lon="-9.442550959065557">
        <ele>86.659999999999997</ele>
        <time>2025-05-04T16:30:20Z</time>
      </trkpt>
      <trkpt lat="38.720966968685389" lon="-9.442678028717637">
        <ele>86.180000000000007</ele>
        <time>2025-05-04T16:30:21Z</time>
      </trkpt>
      <trkpt lat="38.721013991162181" lon="-9.442770984023809">
        <ele>85.689999999999998</ele>
        <time>2025-05-04T16:30:22Z</time>
      </trkpt>
      <trkpt lat="38.721122033894062" lon="-9.442852037027478">
        <ele>85.689999999999998</ele>
        <time>2025-05-04T16:30:23Z</time>
      </trkpt>
      <trkpt lat="38.721214989200234" lon="-9.442902998998761">
        <ele>85.689999999999998</ele>
        <time>2025-05-04T16:30:24Z</time>
      </trkpt>
      <trkpt lat="38.721321020275354" lon="-9.442919008433819">
        <ele>86.180000000000007</ele>
        <time>2025-05-04T16:30:25Z</time>
      </trkpt>
      <trkpt lat="38.721426967531443" lon="-9.442881960421801">
        <ele>86.659999999999997</ele>
        <time>2025-05-04T16:30:26Z</time>
      </trkpt>
      <trkpt lat="38.721520006656647" lon="-9.442813983187079">
        <ele>86.659999999999997</ele>
        <time>2025-05-04T16:30:27Z</time>
      </trkpt>
      <trkpt lat="38.721588989719748" lon="-9.442711975425482">
        <ele>87.140000000000001</ele>
        <time>2025-05-04T16:30:28Z</time>
      </trkpt>
      <trkpt lat="38.721647998318076" lon="-9.442587001249194">
        <ele>87.140000000000001</ele>
        <time>2025-05-04T16:30:29Z</time>
      </trkpt>
      <trkpt lat="38.721709018573165" lon="-9.442459009587765">
        <ele>87.620000000000005</ele>
        <time>2025-05-04T16:30:30Z</time>
      </trkpt>
      <trkpt lat="38.721770038828254" lon="-9.442311991006136">
        <ele>87.620000000000005</ele>
        <time>2025-05-04T16:30:31Z</time>
      </trkpt>
      <trkpt lat="38.72206499800086" lon="-9.440349033102393">
        <ele>89.540000000000006</ele>
        <time>2025-05-04T16:30:42Z</time>
      </trkpt>
      <trkpt lat="38.722446039319038" lon="-9.438557988032699">
        <ele>91.459999999999994</ele>
        <time>2025-05-04T16:30:52Z</time>
      </trkpt>
      <trkpt lat="38.723056996241212" lon="-9.436520012095571">
        <ele>91.459999999999994</ele>
        <time>2025-05-04T16:31:03Z</time>
      </trkpt>
      <trkpt lat="38.723640963435173" lon="-9.434452028945088">
        <ele>89.540000000000006</ele>
        <time>2025-05-04T16:31:13Z</time>
      </trkpt>
      <trkpt lat="38.724419977515936" lon="-9.43174903281033">
        <ele>86.180000000000007</ele>
        <time>2025-05-04T16:31:25Z</time>
      </trkpt>
      <trkpt lat="38.725419016554952" lon="-9.42831102758646">
        <ele>95.310000000000002</ele>
        <time>2025-05-04T16:31:40Z</time>
      </trkpt>
      <trkpt lat="38.72623398900032" lon="-9.425512980669737">
        <ele>103.95999999999999</ele>
        <time>2025-05-04T16:31:52Z</time>
      </trkpt>
      <trkpt lat="38.726991964504123" lon="-9.422826999798417">
        <ele>110.69</ele>
        <time>2025-05-04T16:32:03Z</time>
      </trkpt>
      <trkpt lat="38.727235961705446" lon="-9.421190014109016">
        <ele>115.01000000000001</ele>
        <time>2025-05-04T16:32:10Z</time>
      </trkpt>
      <trkpt lat="38.727138983085752" lon="-9.419627962633967">
        <ele>116.45999999999999</ele>
        <time>2025-05-04T16:32:18Z</time>
      </trkpt>
      <trkpt lat="38.726901020854712" lon="-9.418991021811962">
        <ele>116.94</ele>
        <time>2025-05-04T16:32:21Z</time>
      </trkpt>
      <trkpt lat="38.726836983114481" lon="-9.418824976310134">
        <ele>116.94</ele>
        <time>2025-05-04T16:32:22Z</time>
      </trkpt>
      <trkpt lat="38.726765988394618" lon="-9.418662032112479">
        <ele>116.94</ele>
        <time>2025-05-04T16:32:23Z</time>
      </trkpt>
      <trkpt lat="38.726671021431684" lon="-9.418502021580935">
        <ele>117.42</ele>
        <time>2025-05-04T16:32:24Z</time>
      </trkpt>
      <trkpt lat="38.726572031155229" lon="-9.418336981907487">
        <ele>117.42</ele>
        <time>2025-05-04T16:32:25Z</time>
      </trkpt>
      <trkpt lat="38.725990997627378" lon="-9.417320005595684">
        <ele>122.70999999999999</ele>
        <time>2025-05-04T16:32:32Z</time>
      </trkpt>
      <trkpt lat="38.725926959887147" lon="-9.417171981185675">
        <ele>123.19</ele>
        <time>2025-05-04T16:32:33Z</time>
      </trkpt>
      <trkpt lat="38.725883960723877" lon="-9.417024040594697">
        <ele>123.67</ele>
        <time>2025-05-04T16:32:34Z</time>
      </trkpt>
      <trkpt lat="38.725883960723877" lon="-9.416877022013068">
        <ele>124.15000000000001</ele>
        <time>2025-05-04T16:32:35Z</time>
      </trkpt>
      <trkpt lat="38.725883960723877" lon="-9.416741989552975">
        <ele>124.63</ele>
        <time>2025-05-04T16:32:36Z</time>
      </trkpt>
      <trkpt lat="38.725944980978966" lon="-9.416597988456488">
        <ele>124.63</ele>
        <time>2025-05-04T16:32:37Z</time>
      </trkpt>
      <trkpt lat="38.725999966263771" lon="-9.416474020108581">
        <ele>124.63</ele>
        <time>2025-05-04T16:32:38Z</time>
      </trkpt>
      <trkpt lat="38.726076995953918" lon="-9.416367989033461">
        <ele>125.11</ele>
        <time>2025-05-04T16:32:39Z</time>
      </trkpt>
      <trkpt lat="38.726155031472445" lon="-9.416260030120611">
        <ele>124.63</ele>
        <time>2025-05-04T16:32:40Z</time>
      </trkpt>
      <trkpt lat="38.726269025355577" lon="-9.416190041229129">
        <ele>124.63</ele>
        <time>2025-05-04T16:32:41Z</time>
      </trkpt>
      <trkpt lat="38.726388970389962" lon="-9.416133966296911">
        <ele>124.15000000000001</ele>
        <time>2025-05-04T16:32:42Z</time>
      </trkpt>
      <trkpt lat="38.726519979536533" lon="-9.416102031245828">
        <ele>123.19</ele>
        <time>2025-05-04T16:32:43Z</time>
      </trkpt>
      <trkpt lat="38.726659035310149" lon="-9.416069006547332">
        <ele>122.22</ele>
        <time>2025-05-04T16:32:44Z</time>
      </trkpt>
      <trkpt lat="38.727768966928124" lon="-9.415700035169721">
        <ele>115.5</ele>
        <time>2025-05-04T16:32:51Z</time>
      </trkpt>
      <trkpt lat="38.728842018172145" lon="-9.415373979136348">
        <ele>114.53</ele>
        <time>2025-05-04T16:32:57Z</time>
      </trkpt>
      <trkpt lat="38.730317987501621" lon="-9.41556902602315">
        <ele>116.94</ele>
        <time>2025-05-04T16:33:04Z</time>
      </trkpt>
      <trkpt lat="38.731848020106554" lon="-9.415752002969384">
        <ele>124.15000000000001</ele>
        <time>2025-05-04T16:33:12Z</time>
      </trkpt>
      <trkpt lat="38.733155010268092" lon="-9.415238024666905">
        <ele>129.43000000000001</ele>
        <time>2025-05-04T16:33:18Z</time>
      </trkpt>
      <trkpt lat="38.734198976308107" lon="-9.41400496289134">
        <ele>130.40000000000001</ele>
        <time>2025-05-04T16:33:24Z</time>
      </trkpt>
      <trkpt lat="38.736204011365771" lon="-9.410829981788993">
        <ele>122.22</ele>
        <time>2025-05-04T16:33:36Z</time>
      </trkpt>
      <trkpt lat="38.737305980175734" lon="-9.40874096006155">
        <ele>128.47</ele>
        <time>2025-05-04T16:33:45Z</time>
      </trkpt>
      <trkpt lat="38.738251961767673" lon="-9.405282000079751">
        <ele>139.53</ele>
        <time>2025-05-04T16:33:56Z</time>
      </trkpt>
      <trkpt lat="38.739488963037729" lon="-9.40061504021287">
        <ele>144.81999999999999</ele>
        <time>2025-05-04T16:34:12Z</time>
      </trkpt>
      <trkpt lat="38.740469980984926" lon="-9.396949969232082">
        <ele>146.74000000000001</ele>
        <time>2025-05-04T16:34:25Z</time>
      </trkpt>
      <trkpt lat="38.741305992007256" lon="-9.395086001604796">
        <ele>145.30000000000001</ele>
        <time>2025-05-04T16:34:32Z</time>
      </trkpt>
      <trkpt lat="38.742378037422895" lon="-9.393710028380156">
        <ele>142.41</ele>
        <time>2025-05-04T16:34:39Z</time>
      </trkpt>
      <trkpt lat="38.744042012840509" lon="-9.392594983801246">
        <ele>137.61000000000001</ele>
        <time>2025-05-04T16:34:47Z</time>
      </trkpt>
      <trkpt lat="38.746740985661745" lon="-9.391186991706491">
        <ele>136.16</ele>
        <time>2025-05-04T16:34:59Z</time>
      </trkpt>
      <trkpt lat="38.749482035636902" lon="-9.389813030138612">
        <ele>141.93000000000001</ele>
        <time>2025-05-04T16:35:11Z</time>
      </trkpt>
      <trkpt lat="38.751367041841149" lon="-9.388774009421468">
        <ele>143.84999999999999</ele>
        <time>2025-05-04T16:35:21Z</time>
      </trkpt>
      <trkpt lat="38.751974981278181" lon="-9.388416018337011">
        <ele>149.62</ele>
        <time>2025-05-04T16:35:27Z</time>
      </trkpt>
      <trkpt lat="38.752137003466487" lon="-9.388302024453878">
        <ele>150.58000000000001</ele>
        <time>2025-05-04T16:35:29Z</time>
      </trkpt>
      <trkpt lat="38.752214033156633" lon="-9.38824201002717">
        <ele>151.06</ele>
        <time>2025-05-04T16:35:30Z</time>
      </trkpt>
      <trkpt lat="38.752377983182669" lon="-9.388094991445541">
        <ele>151.06</ele>
        <time>2025-05-04T16:35:32Z</time>
      </trkpt>
      <trkpt lat="38.752455012872815" lon="-9.38800698146224">
        <ele>151.06</ele>
        <time>2025-05-04T16:35:33Z</time>
      </trkpt>
      <trkpt lat="38.752554003149271" lon="-9.387951996177435">
        <ele>151.06</ele>
        <time>2025-05-04T16:35:34Z</time>
      </trkpt>
      <trkpt lat="38.752647964283824" lon="-9.387910002842546">
        <ele>151.06</ele>
        <time>2025-05-04T16:35:35Z</time>
      </trkpt>
      <trkpt lat="38.752755001187325" lon="-9.387926012277603">
        <ele>151.06</ele>
        <time>2025-05-04T16:35:36Z</time>
      </trkpt>
      <trkpt lat="38.752857008948922" lon="-9.387951996177435">
        <ele>151.53999999999999</ele>
        <time>2025-05-04T16:35:37Z</time>
      </trkpt>
      <trkpt lat="38.752952981740236" lon="-9.387994995340705">
        <ele>151.53999999999999</ele>
        <time>2025-05-04T16:35:38Z</time>
      </trkpt>
      <trkpt lat="38.753037974238396" lon="-9.388068001717329">
        <ele>152.03</ele>
        <time>2025-05-04T16:35:39Z</time>
      </trkpt>
      <trkpt lat="38.753106035292149" lon="-9.388159029185772">
        <ele>152.03</ele>
        <time>2025-05-04T16:35:40Z</time>
      </trkpt>
      <trkpt lat="38.753163032233715" lon="-9.38826103694737">
        <ele>152.50999999999999</ele>
        <time>2025-05-04T16:35:41Z</time>
      </trkpt>
      <trkpt lat="38.753190021961927" lon="-9.388378970324993">
        <ele>152.50999999999999</ele>
        <time>2025-05-04T16:35:42Z</time>
      </trkpt>
      <trkpt lat="38.753199996426702" lon="-9.388461029157043">
        <ele>152.50999999999999</ele>
        <time>2025-05-04T16:35:43Z</time>
      </trkpt>
      <trkpt lat="38.753199996426702" lon="-9.38860603608191">
        <ele>152.99000000000001</ele>
        <time>2025-05-04T16:35:44Z</time>
      </trkpt>
      <trkpt lat="38.753199996426702" lon="-9.388696979731321">
        <ele>152.99000000000001</ele>
        <time>2025-05-04T16:35:45Z</time>
      </trkpt>
      <trkpt lat="38.753163032233715" lon="-9.388809967786074">
        <ele>152.99000000000001</ele>
        <time>2025-05-04T16:35:46Z</time>
      </trkpt>
      <trkpt lat="38.753135958686471" lon="-9.388890014961362">
        <ele>152.99000000000001</ele>
        <time>2025-05-04T16:35:47Z</time>
      </trkpt>
      <trkpt lat="38.753135958686471" lon="-9.388890014961362">
        <ele>152.50999999999999</ele>
        <time>2025-05-04T16:35:48Z</time>
      </trkpt>
      <trkpt lat="38.753059012815356" lon="-9.388983976095915">
        <ele>152.50999999999999</ele>
        <time>2025-05-04T16:35:49Z</time>
      </trkpt>
      <trkpt lat="38.753104023635387" lon="-9.389248006045818">
        <ele>152.03</ele>
        <time>2025-05-04T16:35:50Z</time>
      </trkpt>
      <trkpt lat="38.753142999485135" lon="-9.389277007430792">
        <ele>152.03</ele>
        <time>2025-05-04T16:35:51Z</time>
      </trkpt>
      <trkpt lat="38.753191027790308" lon="-9.389312965795398">
        <ele>152.03</ele>
        <time>2025-05-04T16:35:52Z</time>
      </trkpt>
      <trkpt lat="38.753265962004662" lon="-9.389313971623778">
        <ele>151.53999999999999</ele>
        <time>2025-05-04T16:35:53Z</time>
      </trkpt>
      <trkpt lat="38.753328993916512" lon="-9.389308020472527">
        <ele>151.53999999999999</ele>
        <time>2025-05-04T16:35:54Z</time>
      </trkpt>
      <trkpt lat="38.753397976979613" lon="-9.389301985502243">
        <ele>151.53999999999999</ele>
        <time>2025-05-04T16:35:55Z</time>
      </trkpt>
      <trkpt lat="38.754350999370217" lon="-9.38899302855134">
        <ele>152.99000000000001</ele>
        <time>2025-05-04T16:36:05Z</time>
      </trkpt>
      <trkpt lat="38.755468977615237" lon="-9.388617016375065">
        <ele>154.43000000000001</ele>
        <time>2025-05-04T16:36:16Z</time>
      </trkpt>
      <trkpt lat="38.755651032552123" lon="-9.388548033311963">
        <ele>154.43000000000001</ele>
        <time>2025-05-04T16:36:17Z</time>
      </trkpt>
      <trkpt lat="38.755729990079999" lon="-9.388514002785087">
        <ele>154.43000000000001</ele>
        <time>2025-05-04T16:36:18Z</time>
      </trkpt>
      <trkpt lat="38.755785981193185" lon="-9.388388022780418">
        <ele>154.43000000000001</ele>
        <time>2025-05-04T16:36:20Z</time>
      </trkpt>
      <trkpt lat="38.755939034745097" lon="-9.388353992253542">
        <ele>154.43000000000001</ele>
        <time>2025-05-04T16:36:21Z</time>
      </trkpt>
      <trkpt lat="38.755939034745097" lon="-9.388352986425161">
        <ele>154.43000000000001</ele>
        <time>2025-05-04T16:36:22Z</time>
      </trkpt>
      <trkpt lat="38.755968036130071" lon="-9.388375030830503">
        <ele>154.43000000000001</ele>
        <time>2025-05-04T16:36:23Z</time>
      </trkpt>
      <trkpt lat="38.756121005862951" lon="-9.388446025550365">
        <ele>154.43000000000001</ele>
        <time>2025-05-04T16:36:24Z</time>
      </trkpt>
      <trkpt lat="38.756303982809186" lon="-9.388374025002122">
        <ele>153.94999999999999</ele>
        <time>2025-05-04T16:36:25Z</time>
      </trkpt>
      <trkpt lat="38.756304988637567" lon="-9.388374025002122">
        <ele>154.43000000000001</ele>
        <time>2025-05-04T16:36:26Z</time>
      </trkpt>
      <trkpt lat="38.756408002227545" lon="-9.388329014182091">
        <ele>154.43000000000001</ele>
        <time>2025-05-04T16:36:27Z</time>
      </trkpt>
      <trkpt lat="38.757700994610786" lon="-9.387894999235869">
        <ele>153.94999999999999</ele>
        <time>2025-05-04T16:36:37Z</time>
      </trkpt>
      <trkpt lat="38.759932005777955" lon="-9.387160995975137">
        <ele>169.81</ele>
        <time>2025-05-04T16:36:56Z</time>
      </trkpt>
      <trkpt lat="38.761568991467357" lon="-9.386616004630923">
        <ele>180.38</ele>
        <time>2025-05-04T16:37:10Z</time>
      </trkpt>
      <trkpt lat="38.761676028370857" lon="-9.386579962447286">
        <ele>180.87</ele>
        <time>2025-05-04T16:37:11Z</time>
      </trkpt>
      <trkpt lat="38.761762026697397" lon="-9.386422969400883">
        <ele>182.31</ele>
        <time>2025-05-04T16:37:13Z</time>
      </trkpt>
      <trkpt lat="38.761866968125105" lon="-9.386421963572502">
        <ele>182.78999999999999</ele>
        <time>2025-05-04T16:37:14Z</time>
      </trkpt>
      <trkpt lat="38.761868979781866" lon="-9.386422969400883">
        <ele>183.27000000000001</ele>
        <time>2025-05-04T16:37:15Z</time>
      </trkpt>
      <trkpt lat="38.762028990313411" lon="-9.386512991040945">
        <ele>183.75</ele>
        <time>2025-05-04T16:37:16Z</time>
      </trkpt>
      <trkpt lat="38.762119011953473" lon="-9.386477032676339">
        <ele>184.22999999999999</ele>
        <time>2025-05-04T16:37:17Z</time>
      </trkpt>
      <trkpt lat="38.762228982523084" lon="-9.38643503934145">
        <ele>184.71000000000001</ele>
        <time>2025-05-04T16:37:18Z</time>
      </trkpt>
      <trkpt lat="38.762353034690022" lon="-9.386389022693038">
        <ele>185.19</ele>
        <time>2025-05-04T16:37:19Z</time>
      </trkpt>
      <trkpt lat="38.762353034690022" lon="-9.386389022693038">
        <ele>185.19</ele>
        <time>2025-05-04T16:37:20Z</time>
      </trkpt>
      <trkpt lat="38.76290699467063" lon="-9.386199004948139">
        <ele>187.11000000000001</ele>
        <time>2025-05-04T16:37:24Z</time>
      </trkpt>
      <trkpt lat="38.763034986332059" lon="-9.386161034926772">
        <ele>188.08000000000001</ele>
        <time>2025-05-04T16:37:25Z</time>
      </trkpt>
      <trkpt lat="38.764215996488929" lon="-9.385890970006585">
        <ele>194.31999999999999</ele>
        <time>2025-05-04T16:37:34Z</time>
      </trkpt>
      <trkpt lat="38.765653995797038" lon="-9.385632975026965">
        <ele>199.13</ele>
        <time>2025-05-04T16:37:46Z</time>
      </trkpt>
      <trkpt lat="38.767065005376935" lon="-9.385233996436">
        <ele>203.94</ele>
        <time>2025-05-04T16:37:58Z</time>
      </trkpt>
      <trkpt lat="38.767194002866745" lon="-9.385182028636336">
        <ele>204.41999999999999</ele>
        <time>2025-05-04T16:37:59Z</time>
      </trkpt>
      <trkpt lat="38.768296977505088" lon="-9.384547015652061">
        <ele>207.78</ele>
        <time>2025-05-04T16:38:09Z</time>
      </trkpt>
      <trkpt lat="38.769875038415194" lon="-9.383356031030417">
        <ele>209.69999999999999</ele>
        <time>2025-05-04T16:38:23Z</time>
      </trkpt>
      <trkpt lat="38.771508000791073" lon="-9.382258001714945">
        <ele>217.40000000000001</ele>
        <time>2025-05-04T16:38:35Z</time>
      </trkpt>
      <trkpt lat="38.772711977362633" lon="-9.38147496432066">
        <ele>226.53</ele>
        <time>2025-05-04T16:38:45Z</time>
      </trkpt>
      <trkpt lat="38.77300500869751" lon="-9.381295004859567">
        <ele>229.41</ele>
        <time>2025-05-04T16:38:49Z</time>
      </trkpt>
      <trkpt lat="38.773086983710527" lon="-9.381240019574761">
        <ele>229.88999999999999</ele>
        <time>2025-05-04T16:38:50Z</time>
      </trkpt>
      <trkpt lat="38.773235008120537" lon="-9.381007002666593">
        <ele>231.33000000000001</ele>
        <time>2025-05-04T16:38:52Z</time>
      </trkpt>
      <trkpt lat="38.7734130397439" lon="-9.381014965474606">
        <ele>231.81</ele>
        <time>2025-05-04T16:38:53Z</time>
      </trkpt>
      <trkpt lat="38.7734130397439" lon="-9.381014965474606">
        <ele>232.78</ele>
        <time>2025-05-04T16:38:54Z</time>
      </trkpt>
      <trkpt lat="38.77350096590817" lon="-9.380982024595141">
        <ele>233.74000000000001</ele>
        <time>2025-05-04T16:38:56Z</time>
      </trkpt>
      <trkpt lat="38.77358503639698" lon="-9.380951011553407">
        <ele>234.22</ele>
        <time>2025-05-04T16:38:57Z</time>
      </trkpt>
      <trkpt lat="38.773709004744887" lon="-9.380904994904995">
        <ele>234.69999999999999</ele>
        <time>2025-05-04T16:38:58Z</time>
      </trkpt>
      <trkpt lat="38.7748740054667" lon="-9.380284985527396">
        <ele>235.18000000000001</ele>
        <time>2025-05-04T16:39:08Z</time>
      </trkpt>
      <trkpt lat="38.775337021797895" lon="-9.380035037174821">
        <ele>233.74000000000001</ele>
        <time>2025-05-04T16:39:11Z</time>
      </trkpt>
      <trkpt lat="38.775451015681028" lon="-9.379974016919732">
        <ele>233.25999999999999</ele>
        <time>2025-05-04T16:39:12Z</time>
      </trkpt>
      <trkpt lat="38.776546027511358" lon="-9.379385020583868">
        <ele>230.84999999999999</ele>
        <time>2025-05-04T16:39:20Z</time>
      </trkpt>
      <trkpt lat="38.778007999062538" lon="-9.378572981804609">
        <ele>236.13999999999999</ele>
        <time>2025-05-04T16:39:30Z</time>
      </trkpt>
      <trkpt lat="38.779577007517219" lon="-9.377722973003984">
        <ele>239.50999999999999</ele>
        <time>2025-05-04T16:39:40Z</time>
      </trkpt>
      <trkpt lat="38.780838986858726" lon="-9.37702601775527">
        <ele>240.94999999999999</ele>
        <time>2025-05-04T16:39:48Z</time>
      </trkpt>
      <trkpt lat="38.781625041738153" lon="-9.376587979495525">
        <ele>244.31</ele>
        <time>2025-05-04T16:39:56Z</time>
      </trkpt>
      <trkpt lat="38.781668040901423" lon="-9.376566018909216">
        <ele>244.31</ele>
        <time>2025-05-04T16:39:57Z</time>
      </trkpt>
      <trkpt lat="38.781668040901423" lon="-9.376566018909216">
        <ele>244.31</ele>
        <time>2025-05-04T16:39:58Z</time>
      </trkpt>
      <trkpt lat="38.781716991215944" lon="-9.37638103030622">
        <ele>244.78999999999999</ele>
        <time>2025-05-04T16:39:59Z</time>
      </trkpt>
      <trkpt lat="38.781745992600918" lon="-9.37633803114295">
        <ele>245.27000000000001</ele>
        <time>2025-05-04T16:40:00Z</time>
      </trkpt>
      <trkpt lat="38.781784968450665" lon="-9.376278016716242">
        <ele>245.75</ele>
        <time>2025-05-04T16:40:01Z</time>
      </trkpt>
      <trkpt lat="38.781853029504418" lon="-9.37625203281641">
        <ele>246.22999999999999</ele>
        <time>2025-05-04T16:40:02Z</time>
      </trkpt>
      <trkpt lat="38.781853029504418" lon="-9.37625203281641">
        <ele>246.72</ele>
        <time>2025-05-04T16:40:03Z</time>
      </trkpt>
      <trkpt lat="38.781910026445985" lon="-9.37625203281641">
        <ele>247.19999999999999</ele>
        <time>2025-05-04T16:40:04Z</time>
      </trkpt>
      <trkpt lat="38.782077999785542" lon="-9.376309029757977">
        <ele>247.68000000000001</ele>
        <time>2025-05-04T16:40:05Z</time>
      </trkpt>
      <trkpt lat="38.782079005613923" lon="-9.376309029757977">
        <ele>248.16</ele>
        <time>2025-05-04T16:40:06Z</time>
      </trkpt>
      <trkpt lat="38.782226024195552" lon="-9.376248009502888">
        <ele>248.16</ele>
        <time>2025-05-04T16:40:07Z</time>
      </trkpt>
      <trkpt lat="38.782313028350472" lon="-9.37621196731925">
        <ele>248.16</ele>
        <time>2025-05-04T16:40:08Z</time>
      </trkpt>
      <trkpt lat="38.782313028350472" lon="-9.37621196731925">
        <ele>248.63999999999999</ele>
        <time>2025-05-04T16:40:09Z</time>
      </trkpt>
      <trkpt lat="38.782404977828264" lon="-9.376173997297883">
        <ele>248.63999999999999</ele>
        <time>2025-05-04T16:40:10Z</time>
      </trkpt>
      <trkpt lat="38.783566039055586" lon="-9.375518029555678">
        <ele>252.47999999999999</ele>
        <time>2025-05-04T16:40:21Z</time>
      </trkpt>
      <trkpt lat="38.784486958757043" lon="-9.375005979090929">
        <ele>256.81</ele>
        <time>2025-05-04T16:40:30Z</time>
      </trkpt>
      <trkpt lat="38.785613989457488" lon="-9.374292008578777">
        <ele>260.64999999999998</ele>
        <time>2025-05-04T16:40:42Z</time>
      </trkpt>
      <trkpt lat="38.786442037671804" lon="-9.37376000918448">
        <ele>265.45999999999998</ele>
        <time>2025-05-04T16:40:53Z</time>
      </trkpt>
      <trkpt lat="38.786666002124548" lon="-9.373604021966457">
        <ele>265.45999999999998</ele>
        <time>2025-05-04T16:40:55Z</time>
      </trkpt>
      <trkpt lat="38.786666002124548" lon="-9.373604021966457">
        <ele>265.94</ele>
        <time>2025-05-04T16:40:56Z</time>
      </trkpt>
      <trkpt lat="38.786813020706177" lon="-9.373500002548099">
        <ele>266.42000000000002</ele>
        <time>2025-05-04T16:40:58Z</time>
      </trkpt>
      <trkpt lat="38.786946963518858" lon="-9.373405035585165">
        <ele>266.89999999999998</ele>
        <time>2025-05-04T16:40:59Z</time>
      </trkpt>
      <trkpt lat="38.786946963518858" lon="-9.373405035585165">
        <ele>266.89999999999998</ele>
        <time>2025-05-04T16:41:00Z</time>
      </trkpt>
      <trkpt lat="38.787032039836049" lon="-9.373321970924735">
        <ele>267.38</ele>
        <time>2025-05-04T16:41:01Z</time>
      </trkpt>
      <trkpt lat="38.787059029564261" lon="-9.373261034488678">
        <ele>267.86000000000001</ele>
        <time>2025-05-04T16:41:02Z</time>
      </trkpt>
      <trkpt lat="38.787103034555912" lon="-9.37316196039319">
        <ele>267.86000000000001</ele>
        <time>2025-05-04T16:41:03Z</time>
      </trkpt>
      <trkpt lat="38.787110997363925" lon="-9.373099012300372">
        <ele>268.35000000000002</ele>
        <time>2025-05-04T16:41:04Z</time>
      </trkpt>
      <trkpt lat="38.787120971828699" lon="-9.373016031458974">
        <ele>268.82999999999998</ele>
        <time>2025-05-04T16:41:05Z</time>
      </trkpt>
      <trkpt lat="38.78712197765708" lon="-9.373015025630593">
        <ele>268.82999999999998</ele>
        <time>2025-05-04T16:41:06Z</time>
      </trkpt>
      <trkpt lat="38.78701401874423" lon="-9.372789971530438">
        <ele>268.82999999999998</ele>
        <time>2025-05-04T16:41:07Z</time>
      </trkpt>
      <trkpt lat="38.786963978782296" lon="-9.372696010395885">
        <ele>268.35000000000002</ele>
        <time>2025-05-04T16:41:08Z</time>
      </trkpt>
      <trkpt lat="38.786733979359269" lon="-9.37225797213614">
        <ele>266.89999999999998</ele>
        <time>2025-05-04T16:41:12Z</time>
      </trkpt>
      <trkpt lat="38.786672037094831" lon="-9.372140038758516">
        <ele>265.94</ele>
        <time>2025-05-04T16:41:13Z</time>
      </trkpt>
      <trkpt lat="38.786607999354601" lon="-9.372016992419958">
        <ele>264.98000000000002</ele>
        <time>2025-05-04T16:41:14Z</time>
      </trkpt>
      <trkpt lat="38.786534992977977" lon="-9.371901992708445">
        <ele>264.01999999999998</ele>
        <time>2025-05-04T16:41:15Z</time>
      </trkpt>
      <trkpt lat="38.786446982994676" lon="-9.371800990775228">
        <ele>263.06</ele>
        <time>2025-05-04T16:41:16Z</time>
      </trkpt>
      <trkpt lat="38.786359978839755" lon="-9.371700994670391">
        <ele>262.57999999999998</ele>
        <time>2025-05-04T16:41:17Z</time>
      </trkpt>
      <trkpt lat="38.786270041018724" lon="-9.371602004393935">
        <ele>261.13999999999999</ele>
        <time>2025-05-04T16:41:18Z</time>
      </trkpt>
      <trkpt lat="38.786180019378662" lon="-9.371522041037679">
        <ele>258.73000000000002</ele>
        <time>2025-05-04T16:41:19Z</time>
      </trkpt>
      <trkpt lat="38.785568978637457" lon="-9.371138988062739">
        <ele>249.59999999999999</ele>
        <time>2025-05-04T16:41:25Z</time>
      </trkpt>
      <trkpt lat="38.784256959334016" lon="-9.370630960911512">
        <ele>240.94999999999999</ele>
        <time>2025-05-04T16:41:36Z</time>
      </trkpt>
      <trkpt lat="38.784057972952724" lon="-9.370550997555256">
        <ele>239.99000000000001</ele>
        <time>2025-05-04T16:41:38Z</time>
      </trkpt>
      <trkpt lat="38.783970968797803" lon="-9.370485031977296">
        <ele>239.50999999999999</ele>
        <time>2025-05-04T16:41:39Z</time>
      </trkpt>
      <trkpt lat="38.783888993784785" lon="-9.370414959266782">
        <ele>239.02000000000001</ele>
        <time>2025-05-04T16:41:40Z</time>
      </trkpt>
      <trkpt lat="38.783820010721684" lon="-9.370329966768622">
        <ele>238.53999999999999</ele>
        <time>2025-05-04T16:41:41Z</time>
      </trkpt>
      <trkpt lat="38.783778017386794" lon="-9.370213039219379">
        <ele>238.06</ele>
        <time>2025-05-04T16:41:42Z</time>
      </trkpt>
      <trkpt lat="38.783734012395144" lon="-9.370093010365963">
        <ele>237.58000000000001</ele>
        <time>2025-05-04T16:41:43Z</time>
      </trkpt>
      <trkpt lat="38.783726971596479" lon="-9.369999971240759">
        <ele>236.62</ele>
        <time>2025-05-04T16:41:44Z</time>
      </trkpt>
      <trkpt lat="38.783719008788466" lon="-9.369906010106206">
        <ele>236.13999999999999</ele>
        <time>2025-05-04T16:41:45Z</time>
      </trkpt>
      <trkpt lat="38.783712973818183" lon="-9.369815988466144">
        <ele>235.66</ele>
        <time>2025-05-04T16:41:46Z</time>
      </trkpt>
      <trkpt lat="38.783716997131705" lon="-9.368594996631146">
        <ele>225.56999999999999</ele>
        <time>2025-05-04T16:41:57Z</time>
      </trkpt>
      <trkpt lat="38.783759996294975" lon="-9.366839993745089">
        <ele>211.63</ele>
        <time>2025-05-04T16:42:10Z</time>
      </trkpt>
      <trkpt lat="38.783463025465608" lon="-9.365125978365541">
        <ele>204.41999999999999</ele>
        <time>2025-05-04T16:42:21Z</time>
      </trkpt>
      <trkpt lat="38.782948963344097" lon="-9.363184981048107">
        <ele>198.16999999999999</ele>
        <time>2025-05-04T16:42:34Z</time>
      </trkpt>
      <trkpt lat="38.78284796141088" lon="-9.362844005227089">
        <ele>197.69</ele>
        <time>2025-05-04T16:42:36Z</time>
      </trkpt>
      <trkpt lat="38.782789958640933" lon="-9.362668991088867">
        <ele>197.69</ele>
        <time>2025-05-04T16:42:37Z</time>
      </trkpt>
      <trkpt lat="38.782680993899703" lon="-9.362360034137964">
        <ele>197.21000000000001</ele>
        <time>2025-05-04T16:42:38Z</time>
      </trkpt>
      <trkpt lat="38.78215896897018" lon="-9.360564965754747">
        <ele>192.88</ele>
        <time>2025-05-04T16:42:48Z</time>
      </trkpt>
      <trkpt lat="38.781251963227987" lon="-9.357655020430684">
        <ele>189.52000000000001</ele>
        <time>2025-05-04T16:43:00Z</time>
      </trkpt>
      <trkpt lat="38.780205985531211" lon="-9.355339016765356">
        <ele>191.44</ele>
        <time>2025-05-04T16:43:09Z</time>
      </trkpt>
      <trkpt lat="38.778389040380716" lon="-9.351825993508101">
        <ele>187.59</ele>
        <time>2025-05-04T16:43:23Z</time>
      </trkpt>
      <trkpt lat="38.777219010517001" lon="-9.349552989006043">
        <ele>186.15000000000001</ele>
        <time>2025-05-04T16:43:39Z</time>
      </trkpt>
      <trkpt lat="38.776012016460299" lon="-9.345030030235648">
        <ele>182.78999999999999</ele>
        <time>2025-05-04T16:43:47Z</time>
      </trkpt>
      <trkpt lat="38.776107989251614" lon="-9.343267986550927">
        <ele>179.41999999999999</ele>
        <time>2025-05-04T16:43:54Z</time>
      </trkpt>
      <trkpt lat="38.776845009997487" lon="-9.339322037994862">
        <ele>172.21000000000001</ele>
        <time>2025-05-04T16:44:08Z</time>
      </trkpt>
      <trkpt lat="38.777640033513308" lon="-9.335289001464844">
        <ele>166.44999999999999</ele>
        <time>2025-05-04T16:44:23Z</time>
      </trkpt>
      <trkpt lat="38.777838014066219" lon="-9.334280993789434">
        <ele>164.52000000000001</ele>
        <time>2025-05-04T16:44:27Z</time>
      </trkpt>
      <trkpt lat="38.777886964380741" lon="-9.334032973274589">
        <ele>164.03999999999999</ele>
        <time>2025-05-04T16:44:28Z</time>
      </trkpt>
      <trkpt lat="38.778326008468866" lon="-9.331605993211269">
        <ele>153.94999999999999</ele>
        <time>2025-05-04T16:44:37Z</time>
      </trkpt>
      <trkpt lat="38.778539998456836" lon="-9.328914983198047">
        <ele>139.53</ele>
        <time>2025-05-04T16:44:46Z</time>
      </trkpt>
      <trkpt lat="38.778302036225796" lon="-9.32638599537313">
        <ele>129.43000000000001</ele>
        <time>2025-05-04T16:44:54Z</time>
      </trkpt>
      <trkpt lat="38.777679009363055" lon="-9.324441980570555">
        <ele>130.40000000000001</ele>
        <time>2025-05-04T16:45:01Z</time>
      </trkpt>
      <trkpt lat="38.776709977537394" lon="-9.322814969345927">
        <ele>140.49000000000001</ele>
        <time>2025-05-04T16:45:08Z</time>
      </trkpt>
      <trkpt lat="38.775258986279368" lon="-9.32144402526319">
        <ele>153.47</ele>
        <time>2025-05-04T16:45:16Z</time>
      </trkpt>
      <trkpt lat="38.772895038127899" lon="-9.319631019607186">
        <ele>167.41</ele>
        <time>2025-05-04T16:45:28Z</time>
      </trkpt>
      <trkpt lat="38.769748974591494" lon="-9.31721200235188">
        <ele>166.44999999999999</ele>
        <time>2025-05-04T16:45:44Z</time>
      </trkpt>
      <trkpt lat="38.7680200394243" lon="-9.315516008064151">
        <ele>162.12</ele>
        <time>2025-05-04T16:45:53Z</time>
      </trkpt>
      <trkpt lat="38.766823019832373" lon="-9.313541986048222">
        <ele>156.83000000000001</ele>
        <time>2025-05-04T16:46:00Z</time>
      </trkpt>
      <trkpt lat="38.766203010454774" lon="-9.311501998454332">
        <ele>150.58000000000001</ele>
        <time>2025-05-04T16:46:08Z</time>
      </trkpt>
      <trkpt lat="38.765881983563304" lon="-9.308695988729596">
        <ele>145.30000000000001</ele>
        <time>2025-05-04T16:46:17Z</time>
      </trkpt>
      <trkpt lat="38.765881983563304" lon="-9.30485799908638">
        <ele>149.62</ele>
        <time>2025-05-04T16:46:29Z</time>
      </trkpt>
      <trkpt lat="38.765878966078162" lon="-9.301601964980364">
        <ele>141.44999999999999</ele>
        <time>2025-05-04T16:46:43Z</time>
      </trkpt>
      <trkpt lat="38.765676040202379" lon="-9.300364041700959">
        <ele>137.61000000000001</ele>
        <time>2025-05-04T16:46:48Z</time>
      </trkpt>
      <trkpt lat="38.765491973608732" lon="-9.299876969307661">
        <ele>137.13</ele>
        <time>2025-05-04T16:46:50Z</time>
      </trkpt>
      <trkpt lat="38.765384014695883" lon="-9.299642024561763">
        <ele>137.13</ele>
        <time>2025-05-04T16:46:51Z</time>
      </trkpt>
      <trkpt lat="38.765251999720931" lon="-9.299429962411523">
        <ele>136.63999999999999</ele>
        <time>2025-05-04T16:46:52Z</time>
      </trkpt>
      <trkpt lat="38.764967015013099" lon="-9.299024026840925">
        <ele>136.16</ele>
        <time>2025-05-04T16:46:53Z</time>
      </trkpt>
      <trkpt lat="38.764805998653173" lon="-9.298841971904039">
        <ele>135.68000000000001</ele>
        <time>2025-05-04T16:46:54Z</time>
      </trkpt>
      <trkpt lat="38.763304967433214" lon="-9.297444960102439">
        <ele>128.47</ele>
        <time>2025-05-04T16:47:03Z</time>
      </trkpt>
      <trkpt lat="38.761384002864361" lon="-9.295771010220051">
        <ele>126.06999999999999</ele>
        <time>2025-05-04T16:47:14Z</time>
      </trkpt>
      <trkpt lat="38.758829031139612" lon="-9.293547039851546">
        <ele>127.03</ele>
        <time>2025-05-04T16:47:29Z</time>
      </trkpt>
      <trkpt lat="38.7572340387851" lon="-9.291774015873671">
        <ele>125.59</ele>
        <time>2025-05-04T16:47:38Z</time>
      </trkpt>
      <trkpt lat="38.755960995331407" lon="-9.290650002658367">
        <ele>127.03</ele>
        <time>2025-05-04T16:47:46Z</time>
      </trkpt>
      <trkpt lat="38.754852991551161" lon="-9.290358982980251">
        <ele>128.47</ele>
        <time>2025-05-04T16:47:53Z</time>
      </trkpt>
      <trkpt lat="38.753457991406322" lon="-9.289798988029361">
        <ele>130.40000000000001</ele>
        <time>2025-05-04T16:48:01Z</time>
      </trkpt>
      <trkpt lat="38.752330038696527" lon="-9.288587970659137">
        <ele>130.88</ele>
        <time>2025-05-04T16:48:09Z</time>
      </trkpt>
      <trkpt lat="38.750675031915307" lon="-9.286375986412168">
        <ele>136.63999999999999</ele>
        <time>2025-05-04T16:48:22Z</time>
      </trkpt>
      <trkpt lat="38.749594017863274" lon="-9.284603968262672">
        <ele>135.68000000000001</ele>
        <time>2025-05-04T16:48:31Z</time>
      </trkpt>
      <trkpt lat="38.749036034569144" lon="-9.282928006723523">
        <ele>133.75999999999999</ele>
        <time>2025-05-04T16:48:38Z</time>
      </trkpt>
      <trkpt lat="38.748677959665656" lon="-9.281750014051795">
        <ele>133.28</ele>
        <time>2025-05-04T16:48:47Z</time>
      </trkpt>
      <trkpt lat="38.748399009928107" lon="-9.280805038288236">
        <ele>132.31999999999999</ele>
        <time>2025-05-04T16:48:55Z</time>
      </trkpt>
      <trkpt lat="38.748289039358497" lon="-9.280430031940341">
        <ele>133.28</ele>
        <time>2025-05-04T16:49:04Z</time>
      </trkpt>
      <trkpt lat="38.748103966936469" lon="-9.27967700175941">
        <ele>135.19999999999999</ele>
        <time>2025-05-04T16:49:18Z</time>
      </trkpt>
      <trkpt lat="38.747999025508761" lon="-9.279188001528382">
        <ele>137.13</ele>
        <time>2025-05-04T16:49:29Z</time>
      </trkpt>
      <trkpt lat="38.747990978881717" lon="-9.279137039557099">
        <ele>137.13</ele>
        <time>2025-05-04T16:49:30Z</time>
      </trkpt>
      <trkpt lat="38.747982010245323" lon="-9.279082976281643">
        <ele>137.61000000000001</ele>
        <time>2025-05-04T16:49:31Z</time>
      </trkpt>
      <trkpt lat="38.747972035780549" lon="-9.279021034017205">
        <ele>137.61000000000001</ele>
        <time>2025-05-04T16:49:32Z</time>
      </trkpt>
      <trkpt lat="38.747958960011601" lon="-9.278940986841917">
        <ele>137.61000000000001</ele>
        <time>2025-05-04T16:49:33Z</time>
      </trkpt>
      <trkpt lat="38.747857036069036" lon="-9.278318965807557">
        <ele>140.49000000000001</ele>
        <time>2025-05-04T16:49:41Z</time>
      </trkpt>
      <trkpt lat="38.747806996107101" lon="-9.278012020513415">
        <ele>141.93000000000001</ele>
        <time>2025-05-04T16:49:48Z</time>
      </trkpt>
      <trkpt lat="38.747802972793579" lon="-9.277958041056991">
        <ele>141.93000000000001</ele>
        <time>2025-05-04T16:49:49Z</time>
      </trkpt>
      <trkpt lat="38.747757961973548" lon="-9.277267958968878">
        <ele>143.37</ele>
        <time>2025-05-04T16:50:01Z</time>
      </trkpt>
      <trkpt lat="38.747740024700761" lon="-9.276721961796284">
        <ele>144.81999999999999</ele>
        <time>2025-05-04T16:50:09Z</time>
      </trkpt>
      <trkpt lat="38.74773901887238" lon="-9.276664964854717">
        <ele>144.81999999999999</ele>
        <time>2025-05-04T16:50:10Z</time>
      </trkpt>
      <trkpt lat="38.747731978073716" lon="-9.276387020945549">
        <ele>145.78</ele>
        <time>2025-05-04T16:50:16Z</time>
      </trkpt>
      <trkpt lat="38.747728038579226" lon="-9.276059037074447">
        <ele>145.78</ele>
        <time>2025-05-04T16:50:21Z</time>
      </trkpt>
      <trkpt lat="38.747728038579226" lon="-9.275914030149579">
        <ele>146.25999999999999</ele>
        <time>2025-05-04T16:50:23Z</time>
      </trkpt>
      <trkpt lat="38.747728038579226" lon="-9.275841023772955">
        <ele>146.74000000000001</ele>
        <time>2025-05-04T16:50:24Z</time>
      </trkpt>
      <trkpt lat="38.74771798029542" lon="-9.27484299056232">
        <ele>147.22</ele>
        <time>2025-05-04T16:50:36Z</time>
      </trkpt>
      <trkpt lat="38.747705994173884" lon="-9.274100018665195">
        <ele>145.78</ele>
        <time>2025-05-04T16:50:46Z</time>
      </trkpt>
      <trkpt lat="38.747701970860362" lon="-9.273978983983398">
        <ele>145.30000000000001</ele>
        <time>2025-05-04T16:50:58Z</time>
      </trkpt>
      <trkpt lat="38.747694008052349" lon="-9.273761976510286">
        <ele>143.84999999999999</ele>
        <time>2025-05-04T16:51:18Z</time>
      </trkpt>
      <trkpt lat="38.747685039415956" lon="-9.273419994860888">
        <ele>140.49000000000001</ele>
        <time>2025-05-04T16:51:31Z</time>
      </trkpt>
      <trkpt lat="38.747685039415956" lon="-9.272911967709661">
        <ele>139.53</ele>
        <time>2025-05-04T16:51:45Z</time>
      </trkpt>
      <trkpt lat="38.747685039415956" lon="-9.27275899797678">
        <ele>137.61000000000001</ele>
        <time>2025-05-04T16:51:58Z</time>
      </trkpt>
      <trkpt lat="38.747685039415956" lon="-9.272477030754089">
        <ele>136.63999999999999</ele>
        <time>2025-05-04T16:52:09Z</time>
      </trkpt>
      <trkpt lat="38.747676992788911" lon="-9.272034969180822">
        <ele>134.72</ele>
        <time>2025-05-04T16:52:23Z</time>
      </trkpt>
      <trkpt lat="38.747673975303769" lon="-9.271854003891349">
        <ele>133.75999999999999</ele>
        <time>2025-05-04T16:52:35Z</time>
      </trkpt>
      <trkpt lat="38.747661989182234" lon="-9.271289985626936">
        <ele>131.36000000000001</ele>
        <time>2025-05-04T16:52:53Z</time>
      </trkpt>
      <trkpt lat="38.747661989182234" lon="-9.271289985626936">
        <ele>131.36000000000001</ele>
        <time>2025-05-04T16:53:15Z</time>
      </trkpt>
      <trkpt lat="38.747656960040331" lon="-9.271068032830954">
        <ele>132.31999999999999</ele>
        <time>2025-05-04T16:53:29Z</time>
      </trkpt>
      <trkpt lat="38.747656960040331" lon="-9.271068032830954">
        <ele>132.31999999999999</ele>
        <time>2025-05-04T16:53:51Z</time>
      </trkpt>
      <trkpt lat="38.747654026374221" lon="-9.270935012027621">
        <ele>131.84</ele>
        <time>2025-05-04T16:54:04Z</time>
      </trkpt>
      <trkpt lat="38.747641034424305" lon="-9.270301004871726">
        <ele>128.47</ele>
        <time>2025-05-04T16:54:21Z</time>
      </trkpt>
      <trkpt lat="38.747627036646008" lon="-9.269655011594296">
        <ele>125.59</ele>
        <time>2025-05-04T16:54:37Z</time>
      </trkpt>
      <trkpt lat="38.747622007504106" lon="-9.269376983866096">
        <ele>124.63</ele>
        <time>2025-05-04T16:54:50Z</time>
      </trkpt>
      <trkpt lat="38.74763298779726" lon="-9.269038019701839">
        <ele>121.73999999999999</ele>
        <time>2025-05-04T16:55:07Z</time>
      </trkpt>
      <trkpt lat="38.747642040252686" lon="-9.268754962831736">
        <ele>120.78</ele>
        <time>2025-05-04T16:55:17Z</time>
      </trkpt>
      <trkpt lat="38.747642040252686" lon="-9.268659995868802">
        <ele>119.81999999999999</ele>
        <time>2025-05-04T16:55:30Z</time>
      </trkpt>
      <trkpt lat="38.747642040252686" lon="-9.268659995868802">
        <ele>120.78</ele>
        <time>2025-05-04T16:55:44Z</time>
      </trkpt>
      <trkpt lat="38.747642040252686" lon="-9.268283983692527">
        <ele>119.81999999999999</ele>
        <time>2025-05-04T16:55:54Z</time>
      </trkpt>
      <trkpt lat="38.747640028595924" lon="-9.26811701618135">
        <ele>118.86</ele>
        <time>2025-05-04T16:56:09Z</time>
      </trkpt>
      <trkpt lat="38.747640028595924" lon="-9.268095977604389">
        <ele>118.38</ele>
        <time>2025-05-04T16:56:22Z</time>
      </trkpt>
      <trkpt lat="38.747634999454021" lon="-9.267779979854822">
        <ele>118.86</ele>
        <time>2025-05-04T16:56:36Z</time>
      </trkpt>
      <trkpt lat="38.747628964483738" lon="-9.267402961850166">
        <ele>117.90000000000001</ele>
        <time>2025-05-04T16:56:54Z</time>
      </trkpt>
      <trkpt lat="38.747626030817628" lon="-9.267228031530976">
        <ele>116.45999999999999</ele>
        <time>2025-05-04T16:57:15Z</time>
      </trkpt>
      <trkpt lat="38.747621001675725" lon="-9.266835004091263">
        <ele>113.56999999999999</ele>
        <time>2025-05-04T16:57:30Z</time>
      </trkpt>
      <trkpt lat="38.747621001675725" lon="-9.266682034358382">
        <ele>111.17</ele>
        <time>2025-05-04T16:57:47Z</time>
      </trkpt>
      <trkpt lat="38.747621001675725" lon="-9.266376011073589">
        <ele>110.20999999999999</ele>
        <time>2025-05-04T16:58:06Z</time>
      </trkpt>
      <trkpt lat="38.747621001675725" lon="-9.266354972496629">
        <ele>109.73</ele>
        <time>2025-05-04T16:58:17Z</time>
      </trkpt>
      <trkpt lat="38.747621001675725" lon="-9.26627098582685">
        <ele>109.73</ele>
        <time>2025-05-04T16:58:31Z</time>
      </trkpt>
      <trkpt lat="38.747621001675725" lon="-9.266031011939049">
        <ele>110.20999999999999</ele>
        <time>2025-05-04T16:58:41Z</time>
      </trkpt>
      <trkpt lat="38.747618990018964" lon="-9.265645025297999">
        <ele>108.29000000000001</ele>
        <time>2025-05-04T16:58:59Z</time>
      </trkpt>
      <trkpt lat="38.747616978362203" lon="-9.265602026134729">
        <ele>107.81</ele>
        <time>2025-05-04T16:59:16Z</time>
      </trkpt>
      <trkpt lat="38.74760901555419" lon="-9.265441009774804">
        <ele>106.84</ele>
        <time>2025-05-04T16:59:26Z</time>
      </trkpt>
      <trkpt lat="38.74760901555419" lon="-9.265441009774804">
        <ele>106.36</ele>
        <time>2025-05-04T16:59:53Z</time>
      </trkpt>
      <trkpt lat="38.747599963098764" lon="-9.265035996213555">
        <ele>104.44</ele>
        <time>2025-05-04T17:00:04Z</time>
      </trkpt>
      <trkpt lat="38.747599963098764" lon="-9.264588989317417">
        <ele>100.59999999999999</ele>
        <time>2025-05-04T17:00:19Z</time>
      </trkpt>
      <trkpt lat="38.747599963098764" lon="-9.264495028182864">
        <ele>100.11</ele>
        <time>2025-05-04T17:00:30Z</time>
      </trkpt>
      <trkpt lat="38.747599963098764" lon="-9.264495028182864">
        <ele>100.11</ele>
        <time>2025-05-04T17:00:52Z</time>
      </trkpt>
      <trkpt lat="38.747599963098764" lon="-9.264326971024275">
        <ele>102.52</ele>
        <time>2025-05-04T17:01:00Z</time>
      </trkpt>
      <trkpt lat="38.747599963098764" lon="-9.264259999617934">
        <ele>102.04000000000001</ele>
        <time>2025-05-04T17:01:07Z</time>
      </trkpt>
      <trkpt lat="38.747599963098764" lon="-9.264234015718103">
        <ele>101.56</ele>
        <time>2025-05-04T17:01:08Z</time>
      </trkpt>
      <trkpt lat="38.747578002512455" lon="-9.263739986345172">
        <ele>100.59999999999999</ele>
        <time>2025-05-04T17:01:24Z</time>
      </trkpt>
      <trkpt lat="38.747578002512455" lon="-9.263482997193933">
        <ele>102.04000000000001</ele>
        <time>2025-05-04T17:01:39Z</time>
      </trkpt>
      <trkpt lat="38.747578002512455" lon="-9.263130035251379">
        <ele>102.04000000000001</ele>
        <time>2025-05-04T17:01:54Z</time>
      </trkpt>
      <trkpt lat="38.747573979198933" lon="-9.262800961732864">
        <ele>101.56</ele>
        <time>2025-05-04T17:02:10Z</time>
      </trkpt>
      <trkpt lat="38.747568028047681" lon="-9.262383040040731">
        <ele>101.56</ele>
        <time>2025-05-04T17:02:26Z</time>
      </trkpt>
      <trkpt lat="38.747565010562539" lon="-9.262135019525886">
        <ele>101.56</ele>
        <time>2025-05-04T17:02:40Z</time>
      </trkpt>
      <trkpt lat="38.747562998905778" lon="-9.26203703507781">
        <ele>102.52</ele>
        <time>2025-05-04T17:02:49Z</time>
      </trkpt>
      <trkpt lat="38.747560987249017" lon="-9.261884987354279">
        <ele>103</ele>
        <time>2025-05-04T17:03:02Z</time>
      </trkpt>
      <trkpt lat="38.747559981420636" lon="-9.261764036491513">
        <ele>103.48</ele>
        <time>2025-05-04T17:03:13Z</time>
      </trkpt>
      <trkpt lat="38.747557969763875" lon="-9.261647025123239">
        <ele>103.48</ele>
        <time>2025-05-04T17:03:25Z</time>
      </trkpt>
      <trkpt lat="38.747556963935494" lon="-9.261596985161305">
        <ele>103</ele>
        <time>2025-05-04T17:03:38Z</time>
      </trkpt>
      <trkpt lat="38.747556963935494" lon="-9.261515010148287">
        <ele>103.95999999999999</ele>
        <time>2025-05-04T17:03:50Z</time>
      </trkpt>
      <trkpt lat="38.747556963935494" lon="-9.26143404096365">
        <ele>103.95999999999999</ele>
        <time>2025-05-04T17:04:04Z</time>
      </trkpt>
      <trkpt lat="38.747556963935494" lon="-9.261267995461822">
        <ele>103.95999999999999</ele>
        <time>2025-05-04T17:04:15Z</time>
      </trkpt>
      <trkpt lat="38.747552018612623" lon="-9.26102701574564">
        <ele>103</ele>
        <time>2025-05-04T17:04:28Z</time>
      </trkpt>
      <trkpt lat="38.747544977813959" lon="-9.260654021054506">
        <ele>102.04000000000001</ele>
        <time>2025-05-04T17:04:40Z</time>
      </trkpt>
      <trkpt lat="38.747541960328817" lon="-9.260484036058188">
        <ele>102.04000000000001</ele>
        <time>2025-05-04T17:04:50Z</time>
      </trkpt>
      <trkpt lat="38.747535003349185" lon="-9.260009033605456">
        <ele>99.629999999999995</ele>
        <time>2025-05-04T17:05:03Z</time>
      </trkpt>
      <trkpt lat="38.747535003349185" lon="-9.259394975379109">
        <ele>99.150000000000006</ele>
        <time>2025-05-04T17:05:10Z</time>
      </trkpt>
      <trkpt lat="38.74765302054584" lon="-9.258279008790851">
        <ele>100.11</ele>
        <time>2025-05-04T17:05:16Z</time>
      </trkpt>
      <trkpt lat="38.748174961656332" lon="-9.256552001461387">
        <ele>103.48</ele>
        <time>2025-05-04T17:05:24Z</time>
      </trkpt>
      <trkpt lat="38.748906031250954" lon="-9.254168020561338">
        <ele>105.40000000000001</ele>
        <time>2025-05-04T17:05:34Z</time>
      </trkpt>
      <trkpt lat="38.749075010418892" lon="-9.252058966085315">
        <ele>109.25</ele>
        <time>2025-05-04T17:05:42Z</time>
      </trkpt>
      <trkpt lat="38.749136030673981" lon="-9.24953400157392">
        <ele>118.86</ele>
        <time>2025-05-04T17:05:53Z</time>
      </trkpt>
      <trkpt lat="38.748974008485675" lon="-9.247402986511588">
        <ele>124.63</ele>
        <time>2025-05-04T17:06:01Z</time>
      </trkpt>
      <trkpt lat="38.748294990509748" lon="-9.244599994271994">
        <ele>129.43000000000001</ele>
        <time>2025-05-04T17:06:12Z</time>
      </trkpt>
      <trkpt lat="38.747621001675725" lon="-9.241916025057435">
        <ele>135.19999999999999</ele>
        <time>2025-05-04T17:06:25Z</time>
      </trkpt>
      <trkpt lat="38.746955981478095" lon="-9.239180004224181">
        <ele>141.93000000000001</ele>
        <time>2025-05-04T17:06:37Z</time>
      </trkpt>
      <trkpt lat="38.746440997347236" lon="-9.237153008580208">
        <ele>150.58000000000001</ele>
        <time>2025-05-04T17:06:47Z</time>
      </trkpt>
      <trkpt lat="38.745772037655115" lon="-9.235259033739567">
        <ele>164.52000000000001</ele>
        <time>2025-05-04T17:06:57Z</time>
      </trkpt>
      <trkpt lat="38.745603980496526" lon="-9.235000032931566">
        <ele>165.47999999999999</ele>
        <time>2025-05-04T17:06:58Z</time>
      </trkpt>
      <trkpt lat="38.745481017976999" lon="-9.234897019341588">
        <ele>166.44999999999999</ele>
        <time>2025-05-04T17:06:59Z</time>
      </trkpt>
      <trkpt lat="38.745368029922247" lon="-9.234802974388003">
        <ele>167.41</ele>
        <time>2025-05-04T17:07:00Z</time>
      </trkpt>
      <trkpt lat="38.745206007733941" lon="-9.234759975224733">
        <ele>168.37</ele>
        <time>2025-05-04T17:07:01Z</time>
      </trkpt>
      <trkpt lat="38.745050020515919" lon="-9.234719993546605">
        <ele>169.81</ele>
        <time>2025-05-04T17:07:02Z</time>
      </trkpt>
      <trkpt lat="38.744890009984374" lon="-9.234678000211716">
        <ele>170.77000000000001</ele>
        <time>2025-05-04T17:07:03Z</time>
      </trkpt>
      <trkpt lat="38.744420036673546" lon="-9.234540034085512">
        <ele>174.62</ele>
        <time>2025-05-04T17:07:06Z</time>
      </trkpt>
      <trkpt lat="38.744273018091917" lon="-9.234453029930592">
        <ele>175.58000000000001</ele>
        <time>2025-05-04T17:07:07Z</time>
      </trkpt>
      <trkpt lat="38.744122982025146" lon="-9.23436501994729">
        <ele>176.53999999999999</ele>
        <time>2025-05-04T17:07:08Z</time>
      </trkpt>
      <trkpt lat="38.743998007848859" lon="-9.234207021072507">
        <ele>177.5</ele>
        <time>2025-05-04T17:07:09Z</time>
      </trkpt>
      <trkpt lat="38.743887031450868" lon="-9.234052039682865">
        <ele>177.97999999999999</ele>
        <time>2025-05-04T17:07:10Z</time>
      </trkpt>
      <trkpt lat="38.743789969012141" lon="-9.233856992796063">
        <ele>178.94</ele>
        <time>2025-05-04T17:07:11Z</time>
      </trkpt>
      <trkpt lat="38.743692990392447" lon="-9.233664041385055">
        <ele>179.41999999999999</ele>
        <time>2025-05-04T17:07:12Z</time>
      </trkpt>
      <trkpt lat="38.743596011772752" lon="-9.233470000326634">
        <ele>180.38</ele>
        <time>2025-05-04T17:07:13Z</time>
      </trkpt>
      <trkpt lat="38.743499033153057" lon="-9.233275037258863">
        <ele>180.87</ele>
        <time>2025-05-04T17:07:14Z</time>
      </trkpt>
      <trkpt lat="38.743434995412827" lon="-9.233068004250526">
        <ele>181.34999999999999</ele>
        <time>2025-05-04T17:07:15Z</time>
      </trkpt>
      <trkpt lat="38.743383027613163" lon="-9.232870023697615">
        <ele>181.34999999999999</ele>
        <time>2025-05-04T17:07:16Z</time>
      </trkpt>
      <trkpt lat="38.743366012349725" lon="-9.232666008174419">
        <ele>180.87</ele>
        <time>2025-05-04T17:07:17Z</time>
      </trkpt>
      <trkpt lat="38.743366012349725" lon="-9.232666008174419">
        <ele>180.38</ele>
        <time>2025-05-04T17:07:18Z</time>
      </trkpt>
      <trkpt lat="38.743359977379441" lon="-9.232481019571424">
        <ele>179.90000000000001</ele>
        <time>2025-05-04T17:07:19Z</time>
      </trkpt>
      <trkpt lat="38.74331496655941" lon="-9.232213972136378">
        <ele>179.41999999999999</ele>
        <time>2025-05-04T17:07:20Z</time>
      </trkpt>
      <trkpt lat="38.743233997374773" lon="-9.232133002951741">
        <ele>179.41999999999999</ele>
        <time>2025-05-04T17:07:21Z</time>
      </trkpt>
      <trkpt lat="38.743134001269937" lon="-9.232033006846905">
        <ele>178.46000000000001</ele>
        <time>2025-05-04T17:07:22Z</time>
      </trkpt>
      <trkpt lat="38.743020007386804" lon="-9.231919012963772">
        <ele>177.97999999999999</ele>
        <time>2025-05-04T17:07:23Z</time>
      </trkpt>
      <trkpt lat="38.74273200519383" lon="-9.231693958863616">
        <ele>177.02000000000001</ele>
        <time>2025-05-04T17:07:25Z</time>
      </trkpt>
      <trkpt lat="38.74273200519383" lon="-9.231693958863616">
        <ele>176.53999999999999</ele>
        <time>2025-05-04T17:07:26Z</time>
      </trkpt>
      <trkpt lat="38.740981025621295" lon="-9.230569023638964">
        <ele>172.69</ele>
        <time>2025-05-04T17:07:35Z</time>
      </trkpt>
      <trkpt lat="38.739455016329885" lon="-9.229560010135174">
        <ele>174.13999999999999</ele>
        <time>2025-05-04T17:07:43Z</time>
      </trkpt>
      <trkpt lat="38.737143035978079" lon="-9.228040035814047">
        <ele>174.62</ele>
        <time>2025-05-04T17:07:55Z</time>
      </trkpt>
      <trkpt lat="38.735050996765494" lon="-9.226275980472565">
        <ele>175.09999999999999</ele>
        <time>2025-05-04T17:08:07Z</time>
      </trkpt>
      <trkpt lat="38.733717016875744" lon="-9.224667996168137">
        <ele>164.52000000000001</ele>
        <time>2025-05-04T17:08:16Z</time>
      </trkpt>
      <trkpt lat="38.732412038370967" lon="-9.223058000206947">
        <ele>152.03</ele>
        <time>2025-05-04T17:08:25Z</time>
      </trkpt>
      <trkpt lat="38.73227197676897" lon="-9.222880974411964">
        <ele>150.58000000000001</ele>
        <time>2025-05-04T17:08:26Z</time>
      </trkpt>
      <trkpt lat="38.730488978326321" lon="-9.220646023750305">
        <ele>132.80000000000001</ele>
        <time>2025-05-04T17:08:38Z</time>
      </trkpt>
      <trkpt lat="38.728481009602547" lon="-9.218001030385494">
        <ele>112.13</ele>
        <time>2025-05-04T17:08:52Z</time>
      </trkpt>
      <trkpt lat="38.726787026971579" lon="-9.215682009235025">
        <ele>90.980000000000004</ele>
        <time>2025-05-04T17:09:04Z</time>
      </trkpt>
      <trkpt lat="38.725068988278508" lon="-9.213538002222776">
        <ele>83.290000000000006</ele>
        <time>2025-05-04T17:09:17Z</time>
      </trkpt>
      <trkpt lat="38.723176019266248" lon="-9.211769001558423">
        <ele>84.730000000000004</ele>
        <time>2025-05-04T17:09:29Z</time>
      </trkpt>
      <trkpt lat="38.721242984756827" lon="-9.210206028074026">
        <ele>88.099999999999994</ele>
        <time>2025-05-04T17:09:41Z</time>
      </trkpt>
      <trkpt lat="38.720192983746529" lon="-9.209745023399591">
        <ele>94.829999999999998</ele>
        <time>2025-05-04T17:09:47Z</time>
      </trkpt>
      <trkpt lat="38.719838010147214" lon="-9.209609990939498">
        <ele>97.709999999999994</ele>
        <time>2025-05-04T17:09:50Z</time>
      </trkpt>
      <trkpt lat="38.719737008213997" lon="-9.209574032574892">
        <ele>98.189999999999998</ele>
        <time>2025-05-04T17:09:51Z</time>
      </trkpt>
      <trkpt lat="38.719403995200992" lon="-9.209440005943179">
        <ele>101.08</ele>
        <time>2025-05-04T17:09:54Z</time>
      </trkpt>
      <trkpt lat="38.719187993556261" lon="-9.209416033700109">
        <ele>102.04000000000001</ele>
        <time>2025-05-04T17:09:56Z</time>
      </trkpt>
      <trkpt lat="38.719079028815031" lon="-9.209403963759542">
        <ele>102.52</ele>
        <time>2025-05-04T17:09:57Z</time>
      </trkpt>
      <trkpt lat="38.718989007174969" lon="-9.209415027871728">
        <ele>103.48</ele>
        <time>2025-05-04T17:09:58Z</time>
      </trkpt>
      <trkpt lat="38.718904014676809" lon="-9.20946498401463">
        <ele>103.95999999999999</ele>
        <time>2025-05-04T17:09:59Z</time>
      </trkpt>
      <trkpt lat="38.71882002800703" lon="-9.209516029804945">
        <ele>104.92</ele>
        <time>2025-05-04T17:10:00Z</time>
      </trkpt>
      <trkpt lat="38.718779040500522" lon="-9.209622982889414">
        <ele>105.40000000000001</ele>
        <time>2025-05-04T17:10:01Z</time>
      </trkpt>
      <trkpt lat="38.718748027458787" lon="-9.209748040884733">
        <ele>106.36</ele>
        <time>2025-05-04T17:10:02Z</time>
      </trkpt>
      <trkpt lat="38.718732018023729" lon="-9.210012992843986">
        <ele>107.81</ele>
        <time>2025-05-04T17:10:04Z</time>
      </trkpt>
      <trkpt lat="38.718745009973645" lon="-9.210142996162176">
        <ele>108.29000000000001</ele>
        <time>2025-05-04T17:10:05Z</time>
      </trkpt>
      <trkpt lat="38.718756996095181" lon="-9.210262019187212">
        <ele>108.29000000000001</ele>
        <time>2025-05-04T17:10:06Z</time>
      </trkpt>
      <trkpt lat="38.718827990815043" lon="-9.210340976715088">
        <ele>107.81</ele>
        <time>2025-05-04T17:10:07Z</time>
      </trkpt>
      <trkpt lat="38.718908959999681" lon="-9.210392022505403">
        <ele>107.81</ele>
        <time>2025-05-04T17:10:08Z</time>
      </trkpt>
      <trkpt lat="38.719009039923549" lon="-9.210441978648305">
        <ele>107.81</ele>
        <time>2025-05-04T17:10:09Z</time>
      </trkpt>
      <trkpt lat="38.719095038250089" lon="-9.210398979485035">
        <ele>107.81</ele>
        <time>2025-05-04T17:10:10Z</time>
      </trkpt>
      <trkpt lat="38.719167038798332" lon="-9.21032102778554">
        <ele>107.81</ele>
        <time>2025-05-04T17:10:11Z</time>
      </trkpt>
      <trkpt lat="38.719231998547912" lon="-9.210223965346813">
        <ele>108.29000000000001</ele>
        <time>2025-05-04T17:10:12Z</time>
      </trkpt>
      <trkpt lat="38.719280026853085" lon="-9.210110977292061">
        <ele>108.29000000000001</ele>
        <time>2025-05-04T17:10:13Z</time>
      </trkpt>
      <trkpt lat="38.719322020187974" lon="-9.20997996814549">
        <ele>108.29000000000001</ele>
        <time>2025-05-04T17:10:14Z</time>
      </trkpt>
      <trkpt lat="38.719364013522863" lon="-9.20985097065568">
        <ele>108.77</ele>
        <time>2025-05-04T17:10:15Z</time>
      </trkpt>
      <trkpt lat="38.719774978235364" lon="-9.208496036008">
        <ele>112.61</ele>
        <time>2025-05-04T17:10:25Z</time>
      </trkpt>
      <trkpt lat="38.72034796513617" lon="-9.206642964854837">
        <ele>116.45999999999999</ele>
        <time>2025-05-04T17:10:35Z</time>
      </trkpt>
      <trkpt lat="38.720905026420951" lon="-9.205031041055918">
        <ele>122.70999999999999</ele>
        <time>2025-05-04T17:10:43Z</time>
      </trkpt>
      <trkpt lat="38.721684040501714" lon="-9.202585034072399">
        <ele>134.72</ele>
        <time>2025-05-04T17:10:54Z</time>
      </trkpt>
      <trkpt lat="38.722861027345061" lon="-9.199294969439507">
        <ele>151.06</ele>
        <time>2025-05-04T17:11:08Z</time>
      </trkpt>
      <trkpt lat="38.723879009485245" lon="-9.196498012170196">
        <ele>164.52000000000001</ele>
        <time>2025-05-04T17:11:19Z</time>
      </trkpt>
      <trkpt lat="38.724939990788698" lon="-9.193563004955649">
        <ele>171.25</ele>
        <time>2025-05-04T17:11:29Z</time>
      </trkpt>
      <trkpt lat="38.725388003513217" lon="-9.191272985190153">
        <ele>168.84999999999999</ele>
        <time>2025-05-04T17:11:37Z</time>
      </trkpt>
      <trkpt lat="38.725518006831408" lon="-9.189261998981237">
        <ele>159.24000000000001</ele>
        <time>2025-05-04T17:11:45Z</time>
      </trkpt>
      <trkpt lat="38.725261017680168" lon="-9.186866031959653">
        <ele>144.34</ele>
        <time>2025-05-04T17:11:54Z</time>
      </trkpt>
      <trkpt lat="38.724890034645796" lon="-9.184679025784135">
        <ele>127.98999999999999</ele>
        <time>2025-05-04T17:12:03Z</time>
      </trkpt>
      <trkpt lat="38.724615024402738" lon="-9.182485984638333">
        <ele>111.65000000000001</ele>
        <time>2025-05-04T17:12:12Z</time>
      </trkpt>
      <trkpt lat="38.724310006946325" lon="-9.180652024224401">
        <ele>96.75</ele>
        <time>2025-05-04T17:12:19Z</time>
      </trkpt>
      <trkpt lat="38.723573992028832" lon="-9.177507972344756">
        <ele>70.790000000000006</ele>
        <time>2025-05-04T17:12:32Z</time>
      </trkpt>
      <trkpt lat="38.722936967387795" lon="-9.174747979268432">
        <ele>66.469999999999999</ele>
        <time>2025-05-04T17:12:44Z</time>
      </trkpt>
      <trkpt lat="38.722505969926715" lon="-9.172878982499242">
        <ele>66.950000000000003</ele>
        <time>2025-05-04T17:12:54Z</time>
      </trkpt>
      <trkpt lat="38.722358029335737" lon="-9.172252016142011">
        <ele>67.909999999999997</ele>
        <time>2025-05-04T17:13:01Z</time>
      </trkpt>
      <trkpt lat="38.722308995202184" lon="-9.171837028115988">
        <ele>69.349999999999994</ele>
        <time>2025-05-04T17:13:10Z</time>
      </trkpt>
      <trkpt lat="38.722291979938745" lon="-9.171518012881279">
        <ele>69.829999999999998</ele>
        <time>2025-05-04T17:13:18Z</time>
      </trkpt>
      <trkpt lat="38.722289968281984" lon="-9.171463027596474">
        <ele>69.829999999999998</ele>
        <time>2025-05-04T17:13:19Z</time>
      </trkpt>
      <trkpt lat="38.722288040444255" lon="-9.17143302038312">
        <ele>69.349999999999994</ele>
        <time>2025-05-04T17:13:20Z</time>
      </trkpt>
      <trkpt lat="38.722286028787494" lon="-9.171394966542721">
        <ele>68.870000000000005</ele>
        <time>2025-05-04T17:13:21Z</time>
      </trkpt>
      <trkpt lat="38.722286028787494" lon="-9.171394966542721">
        <ele>68.870000000000005</ele>
        <time>2025-05-04T17:13:22Z</time>
      </trkpt>
      <trkpt lat="38.722284017130733" lon="-9.171358002349734">
        <ele>68.390000000000001</ele>
        <time>2025-05-04T17:13:23Z</time>
      </trkpt>
      <trkpt lat="38.722280999645591" lon="-9.171291030943394">
        <ele>68.390000000000001</ele>
        <time>2025-05-04T17:13:24Z</time>
      </trkpt>
      <trkpt lat="38.722314024344087" lon="-9.170820973813534">
        <ele>69.829999999999998</ele>
        <time>2025-05-04T17:13:34Z</time>
      </trkpt>
      <trkpt lat="38.722357023507357" lon="-9.170527020469308">
        <ele>71.269999999999996</ele>
        <time>2025-05-04T17:13:42Z</time>
      </trkpt>
      <trkpt lat="38.72257998213172" lon="-9.169359002262354">
        <ele>78</ele>
        <time>2025-05-04T17:13:53Z</time>
      </trkpt>
      <trkpt lat="38.722791038453579" lon="-9.168554004281759">
        <ele>84.730000000000004</ele>
        <time>2025-05-04T17:14:04Z</time>
      </trkpt>
      <trkpt lat="38.7228590156883" lon="-9.168282011523843">
        <ele>86.659999999999997</ele>
        <time>2025-05-04T17:14:12Z</time>
      </trkpt>
      <trkpt lat="38.722883993759751" lon="-9.168154019862413">
        <ele>87.620000000000005</ele>
        <time>2025-05-04T17:14:21Z</time>
      </trkpt>
      <trkpt lat="38.722949959337711" lon="-9.167809020727873">
        <ele>88.099999999999994</ele>
        <time>2025-05-04T17:14:28Z</time>
      </trkpt>
      <trkpt lat="38.722972003743052" lon="-9.167696032673121">
        <ele>89.060000000000002</ele>
        <time>2025-05-04T17:14:31Z</time>
      </trkpt>
      <trkpt lat="38.722972003743052" lon="-9.167696032673121">
        <ele>89.540000000000006</ele>
        <time>2025-05-04T17:14:32Z</time>
      </trkpt>
      <trkpt lat="38.723076023161411" lon="-9.167130002751946">
        <ele>93.390000000000001</ele>
        <time>2025-05-04T17:14:41Z</time>
      </trkpt>
      <trkpt lat="38.723122961819172" lon="-9.166840994730592">
        <ele>94.349999999999994</ele>
        <time>2025-05-04T17:14:49Z</time>
      </trkpt>
      <trkpt lat="38.723128996789455" lon="-9.166801013052464">
        <ele>94.349999999999994</ele>
        <time>2025-05-04T17:14:50Z</time>
      </trkpt>
      <trkpt lat="38.723207032307982" lon="-9.166374038904905">
        <ele>96.269999999999996</ele>
        <time>2025-05-04T17:14:57Z</time>
      </trkpt>
      <trkpt lat="38.723207032307982" lon="-9.166374038904905">
        <ele>96.75</ele>
        <time>2025-05-04T17:14:58Z</time>
      </trkpt>
      <trkpt lat="38.723221030086279" lon="-9.166303966194391">
        <ele>97.230000000000004</ele>
        <time>2025-05-04T17:14:59Z</time>
      </trkpt>
      <trkpt lat="38.723234022036195" lon="-9.166226014494896">
        <ele>97.230000000000004</ele>
        <time>2025-05-04T17:15:00Z</time>
      </trkpt>
      <trkpt lat="38.72324500232935" lon="-9.166159965097904">
        <ele>97.709999999999994</ele>
        <time>2025-05-04T17:15:01Z</time>
      </trkpt>
      <trkpt lat="38.723189011216164" lon="-9.166082013398409">
        <ele>98.189999999999998</ele>
        <time>2025-05-04T17:15:02Z</time>
      </trkpt>
      <trkpt lat="38.723145006224513" lon="-9.166021998971701">
        <ele>98.189999999999998</ele>
        <time>2025-05-04T17:15:03Z</time>
      </trkpt>
      <trkpt lat="38.723105024546385" lon="-9.165967013686895">
        <ele>98.670000000000002</ele>
        <time>2025-05-04T17:15:04Z</time>
      </trkpt>
      <trkpt lat="38.72307300567627" lon="-9.165924014523625">
        <ele>99.150000000000006</ele>
        <time>2025-05-04T17:15:05Z</time>
      </trkpt>
      <trkpt lat="38.723055990412831" lon="-9.165913034230471">
        <ele>99.150000000000006</ele>
        <time>2025-05-04T17:15:06Z</time>
      </trkpt>
      <trkpt lat="38.723055990412831" lon="-9.165913034230471">
        <ele>99.629999999999995</ele>
        <time>2025-05-04T17:15:17Z</time>
      </trkpt>
      <trkpt lat="38.722840994596481" lon="-9.16578596457839">
        <ele>102.04000000000001</ele>
        <time>2025-05-04T17:15:43Z</time>
      </trkpt>
      <trkpt lat="38.722740998491645" lon="-9.165727039799094">
        <ele>103</ele>
        <time>2025-05-04T17:15:45Z</time>
      </trkpt>
      <trkpt lat="38.72260102070868" lon="-9.165644980967045">
        <ele>103.48</ele>
        <time>2025-05-04T17:15:47Z</time>
      </trkpt>
      <trkpt lat="38.722290974110365" lon="-9.165123039856553">
        <ele>104.44</ele>
        <time>2025-05-04T17:15:55Z</time>
      </trkpt>
      <trkpt lat="38.722229031845927" lon="-9.16498800739646">
        <ele>104.92</ele>
        <time>2025-05-04T17:16:01Z</time>
      </trkpt>
      <trkpt lat="38.722229031845927" lon="-9.16498800739646">
        <ele>105.40000000000001</ele>
        <time>2025-05-04T17:16:04Z</time>
      </trkpt>
      <trkpt lat="38.722177986055613" lon="-9.164891028776765">
        <ele>105.40000000000001</ele>
        <time>2025-05-04T17:16:10Z</time>
      </trkpt>
      <trkpt lat="38.722158959135413" lon="-9.164855992421508">
        <ele>105.40000000000001</ele>
        <time>2025-05-04T17:16:11Z</time>
      </trkpt>
      <trkpt lat="38.72195603325963" lon="-9.164488026872277">
        <ele>106.36</ele>
        <time>2025-05-04T17:16:18Z</time>
      </trkpt>
      <trkpt lat="38.72195603325963" lon="-9.164488026872277">
        <ele>105.88</ele>
        <time>2025-05-04T17:16:32Z</time>
      </trkpt>
      <trkpt lat="38.721812032163143" lon="-9.164266996085644">
        <ele>106.36</ele>
        <time>2025-05-04T17:16:44Z</time>
      </trkpt>
      <trkpt lat="38.721367036923766" lon="-9.163532992824912">
        <ele>106.84</ele>
        <time>2025-05-04T17:16:54Z</time>
      </trkpt>
      <trkpt lat="38.721078028902411" lon="-9.163048015907407">
        <ele>108.29000000000001</ele>
        <time>2025-05-04T17:16:59Z</time>
      </trkpt>
      <trkpt lat="38.721078028902411" lon="-9.163048015907407">
        <ele>108.29000000000001</ele>
        <time>2025-05-04T17:17:00Z</time>
      </trkpt>
      <trkpt lat="38.720992030575871" lon="-9.162849029526115">
        <ele>108.77</ele>
        <time>2025-05-04T17:17:01Z</time>
      </trkpt>
      <trkpt lat="38.720992030575871" lon="-9.162738975137472">
        <ele>108.77</ele>
        <time>2025-05-04T17:17:02Z</time>
      </trkpt>
      <trkpt lat="38.720992030575871" lon="-9.162640990689397">
        <ele>109.25</ele>
        <time>2025-05-04T17:17:03Z</time>
      </trkpt>
      <trkpt lat="38.720999993383884" lon="-9.16251802816987">
        <ele>109.73</ele>
        <time>2025-05-04T17:17:04Z</time>
      </trkpt>
      <trkpt lat="38.721008040010929" lon="-9.161886032670736">
        <ele>113.09</ele>
        <time>2025-05-04T17:17:12Z</time>
      </trkpt>
      <trkpt lat="38.720999993383884" lon="-9.161827024072409">
        <ele>114.05</ele>
        <time>2025-05-04T17:17:23Z</time>
      </trkpt>
      <trkpt lat="38.720994964241982" lon="-9.161787964403629">
        <ele>114.05</ele>
        <time>2025-05-04T17:17:28Z</time>
      </trkpt>
      <trkpt lat="38.720992030575871" lon="-9.161767009645701">
        <ele>114.05</ele>
        <time>2025-05-04T17:17:29Z</time>
      </trkpt>
      <trkpt lat="38.720988007262349" lon="-9.161735996603966">
        <ele>114.53</ele>
        <time>2025-05-04T17:17:30Z</time>
      </trkpt>
      <trkpt lat="38.720979960635304" lon="-9.161676988005638">
        <ele>115.01000000000001</ele>
        <time>2025-05-04T17:17:31Z</time>
      </trkpt>
      <trkpt lat="38.720970991998911" lon="-9.161611022427678">
        <ele>115.5</ele>
        <time>2025-05-04T17:17:32Z</time>
      </trkpt>
      <trkpt lat="38.720928998664021" lon="-9.161375993862748">
        <ele>117.42</ele>
        <time>2025-05-04T17:17:37Z</time>
      </trkpt>
      <trkpt lat="38.720920030027628" lon="-9.161321008577943">
        <ele>117.90000000000001</ele>
        <time>2025-05-04T17:17:38Z</time>
      </trkpt>
      <trkpt lat="38.720910977572203" lon="-9.161271974444389">
        <ele>117.90000000000001</ele>
        <time>2025-05-04T17:17:39Z</time>
      </trkpt>
      <trkpt lat="38.720763958990574" lon="-9.160603014752269">
        <ele>118.38</ele>
        <time>2025-05-04T17:17:47Z</time>
      </trkpt>
      <trkpt lat="38.720718026161194" lon="-9.160411991178989">
        <ele>118.38</ele>
        <time>2025-05-04T17:17:49Z</time>
      </trkpt>
      <trkpt lat="38.720693970099092" lon="-9.160319035872817">
        <ele>117.90000000000001</ele>
        <time>2025-05-04T17:17:50Z</time>
      </trkpt>
      <trkpt lat="38.720592968165874" lon="-9.159928020089865">
        <ele>116.45999999999999</ele>
        <time>2025-05-04T17:17:55Z</time>
      </trkpt>
      <trkpt lat="38.720533959567547" lon="-9.159653009846807">
        <ele>112.13</ele>
        <time>2025-05-04T17:18:04Z</time>
      </trkpt>
      <trkpt lat="38.720532031729817" lon="-9.159643035382032">
        <ele>112.13</ele>
        <time>2025-05-04T17:18:20Z</time>
      </trkpt>
      <trkpt lat="38.720523985102773" lon="-9.159606993198395">
        <ele>111.65000000000001</ele>
        <time>2025-05-04T17:18:21Z</time>
      </trkpt>
      <trkpt lat="38.720365986227989" lon="-9.158909032121301">
        <ele>104.44</ele>
        <time>2025-05-04T17:18:29Z</time>
      </trkpt>
      <trkpt lat="38.720335979014635" lon="-9.158677021041513">
        <ele>102.04000000000001</ele>
        <time>2025-05-04T17:18:32Z</time>
      </trkpt>
      <trkpt lat="38.720314018428326" lon="-9.158421037718654">
        <ele>101.56</ele>
        <time>2025-05-04T17:18:33Z</time>
      </trkpt>
      <trkpt lat="38.72051996178925" lon="-9.157064007595182">
        <ele>91.459999999999994</ele>
        <time>2025-05-04T17:18:44Z</time>
      </trkpt>
      <trkpt lat="38.720706040039659" lon="-9.156642984598875">
        <ele>84.25</ele>
        <time>2025-05-04T17:18:49Z</time>
      </trkpt>
      <trkpt lat="38.720729006454349" lon="-9.15658799931407">
        <ele>82.810000000000002</ele>
        <time>2025-05-04T17:18:50Z</time>
      </trkpt>
      <trkpt lat="38.720752978697419" lon="-9.156533014029265">
        <ele>81.370000000000005</ele>
        <time>2025-05-04T17:18:51Z</time>
      </trkpt>
      <trkpt lat="38.720778962597251" lon="-9.156470987945795">
        <ele>79.930000000000007</ele>
        <time>2025-05-04T17:18:52Z</time>
      </trkpt>
      <trkpt lat="38.720808969810605" lon="-9.156402004882693">
        <ele>78.969999999999999</ele>
        <time>2025-05-04T17:18:53Z</time>
      </trkpt>
      <trkpt lat="38.720822967588902" lon="-9.156336961314082">
        <ele>77.519999999999996</ele>
        <time>2025-05-04T17:18:54Z</time>
      </trkpt>
      <trkpt lat="38.720830008387566" lon="-9.156254986301065">
        <ele>76.079999999999998</ele>
        <time>2025-05-04T17:18:55Z</time>
      </trkpt>
      <trkpt lat="38.720835959538817" lon="-9.156175022944808">
        <ele>75.120000000000005</ele>
        <time>2025-05-04T17:18:56Z</time>
      </trkpt>
      <trkpt lat="38.720841994509101" lon="-9.156093969941139">
        <ele>73.680000000000007</ele>
        <time>2025-05-04T17:18:57Z</time>
      </trkpt>
      <trkpt lat="38.72081802226603" lon="-9.156002020463347">
        <ele>73.200000000000003</ele>
        <time>2025-05-04T17:18:58Z</time>
      </trkpt>
      <trkpt lat="38.720798995345831" lon="-9.15592398494482">
        <ele>72.239999999999995</ele>
        <time>2025-05-04T17:18:59Z</time>
      </trkpt>
      <trkpt lat="38.720755996182561" lon="-9.155860031023622">
        <ele>71.269999999999996</ele>
        <time>2025-05-04T17:19:00Z</time>
      </trkpt>
      <trkpt lat="38.720698999240994" lon="-9.155789958313108">
        <ele>70.310000000000002</ele>
        <time>2025-05-04T17:19:01Z</time>
      </trkpt>
      <trkpt lat="38.720650970935822" lon="-9.155732039362192">
        <ele>69.349999999999994</ele>
        <time>2025-05-04T17:19:02Z</time>
      </trkpt>
      <trkpt lat="38.720610989257693" lon="-9.155683005228639">
        <ele>68.390000000000001</ele>
        <time>2025-05-04T17:19:03Z</time>
      </trkpt>
      <trkpt lat="38.72056296095252" lon="-9.155623996630311">
        <ele>67.430000000000007</ele>
        <time>2025-05-04T17:19:04Z</time>
      </trkpt>
      <trkpt lat="38.720510993152857" lon="-9.155614022165537">
        <ele>66.469999999999999</ele>
        <time>2025-05-04T17:19:05Z</time>
      </trkpt>
      <trkpt lat="38.720256015658379" lon="-9.155572028830648">
        <ele>60.219999999999999</ele>
        <time>2025-05-04T17:19:14Z</time>
      </trkpt>
      <trkpt lat="38.720133975148201" lon="-9.155559958890081">
        <ele>59.259999999999998</ele>
        <time>2025-05-04T17:19:36Z</time>
      </trkpt>
      <trkpt lat="38.720092987641692" lon="-9.155574962496758">
        <ele>58.780000000000001</ele>
        <time>2025-05-04T17:19:37Z</time>
      </trkpt>
      <trkpt lat="38.720034984871745" lon="-9.155597006902099">
        <ele>58.299999999999997</ele>
        <time>2025-05-04T17:19:38Z</time>
      </trkpt>
      <trkpt lat="38.719969019293785" lon="-9.155620979145169">
        <ele>57.82</ele>
        <time>2025-05-04T17:19:40Z</time>
      </trkpt>
      <trkpt lat="38.719362001866102" lon="-9.155662972480059">
        <ele>54.450000000000003</ele>
        <time>2025-05-04T17:19:49Z</time>
      </trkpt>
      <trkpt lat="38.719316991046071" lon="-9.155660038813949">
        <ele>54.450000000000003</ele>
        <time>2025-05-04T17:19:50Z</time>
      </trkpt>
      <trkpt lat="38.719276003539562" lon="-9.155657021328807">
        <ele>53.969999999999999</ele>
        <time>2025-05-04T17:19:51Z</time>
      </trkpt>
      <trkpt lat="38.719158992171288" lon="-9.155648974701762">
        <ele>53.009999999999998</ele>
        <time>2025-05-04T17:19:54Z</time>
      </trkpt>
      <trkpt lat="38.719118004664779" lon="-9.155646963045001">
        <ele>52.530000000000001</ele>
        <time>2025-05-04T17:19:55Z</time>
      </trkpt>
      <trkpt lat="38.719079028815031" lon="-9.155644029378891">
        <ele>52.530000000000001</ele>
        <time>2025-05-04T17:19:56Z</time>
      </trkpt>
      <trkpt lat="38.719039969146252" lon="-9.155641011893749">
        <ele>52.049999999999997</ele>
        <time>2025-05-04T17:19:57Z</time>
      </trkpt>
      <trkpt lat="38.71899101883173" lon="-9.155637994408608">
        <ele>51.57</ele>
        <time>2025-05-04T17:19:58Z</time>
      </trkpt>
      <trkpt lat="38.718934021890163" lon="-9.155633971095085">
        <ele>51.090000000000003</ele>
        <time>2025-05-04T17:19:59Z</time>
      </trkpt>
      <trkpt lat="38.718881970271468" lon="-9.155631037428975">
        <ele>51.090000000000003</ele>
        <time>2025-05-04T17:20:00Z</time>
      </trkpt>
      <trkpt lat="38.718828996643424" lon="-9.155627014115453">
        <ele>50.609999999999999</ele>
        <time>2025-05-04T17:20:01Z</time>
      </trkpt>
      <trkpt lat="38.71877602301538" lon="-9.15562299080193">
        <ele>50.609999999999999</ele>
        <time>2025-05-04T17:20:02Z</time>
      </trkpt>
      <trkpt lat="38.718716008588672" lon="-9.155615027993918">
        <ele>50.609999999999999</ele>
        <time>2025-05-04T17:20:03Z</time>
      </trkpt>
      <trkpt lat="38.718654988333583" lon="-9.155606981366873">
        <ele>50.609999999999999</ele>
        <time>2025-05-04T17:20:04Z</time>
      </trkpt>
      <trkpt lat="38.718421971425414" lon="-9.155569011345506">
        <ele>50.609999999999999</ele>
        <time>2025-05-04T17:20:08Z</time>
      </trkpt>
      <trkpt lat="38.718170011416078" lon="-9.155490975826979">
        <ele>49.649999999999999</ele>
        <time>2025-05-04T17:20:13Z</time>
      </trkpt>
      <trkpt lat="38.717614961788058" lon="-9.155304981395602">
        <ele>50.130000000000003</ele>
        <time>2025-05-04T17:20:21Z</time>
      </trkpt>
      <trkpt lat="38.717409018427134" lon="-9.155229041352868">
        <ele>49.159999999999997</ele>
        <time>2025-05-04T17:20:25Z</time>
      </trkpt>
      <trkpt lat="38.717327965423465" lon="-9.155199034139514">
        <ele>48.68</ele>
        <time>2025-05-04T17:20:27Z</time>
      </trkpt>
      <trkpt lat="38.717295024544001" lon="-9.155186964198947">
        <ele>48.68</ele>
        <time>2025-05-04T17:20:28Z</time>
      </trkpt>
      <trkpt lat="38.717261999845505" lon="-9.155173972249031">
        <ele>48.200000000000003</ele>
        <time>2025-05-04T17:20:29Z</time>
      </trkpt>
    </trkseg>
  </trk>

</gpx>